<?xml version='1.0' encoding='UTF-8'?><gpx version="1.1" creator="JPX - https://github.com/jenetics/jpx" xmlns="http://www.topografix.com/GPX/1/1"><trk><trkseg><trkpt lat="44.7345407" lon="10.6168537"><ele>41.0</ele><time>2026-04-04T11:14:21.992Z</time></trkpt><trkpt lat="44.7344733" lon="10.6168182"><ele>41.0</ele><time>2026-04-04T11:14:22.991Z</time></trkpt><trkpt lat="44.7343975" lon="10.6167713"><ele>41.0</ele><time>2026-04-04T11:14:23.991Z</time></trkpt><trkpt lat="44.7343146" lon="10.6167221"><ele>41.0</ele><time>2026-04-04T11:14:24.991Z</time></trkpt><trkpt lat="44.7342296" lon="10.61667"><ele>41.0</ele><time>2026-04-04T11:14:25.991Z</time></trkpt><trkpt lat="44.7341454" lon="10.6166125"><ele>41.0</ele><time>2026-04-04T11:14:26.991Z</time></trkpt><trkpt lat="44.7340679" lon="10.6165773"><ele>41.199999999999996</ele><time>2026-04-04T11:14:27.992Z</time></trkpt><trkpt lat="44.7340038" lon="10.6165425"><ele>41.4</ele><time>2026-04-04T11:14:28.991Z</time></trkpt><trkpt lat="44.7339074" lon="10.6164732"><ele>41.6</ele><time>2026-04-04T11:14:30.991Z</time></trkpt><trkpt lat="44.733894" lon="10.6163503"><ele>41.8</ele><time>2026-04-04T11:14:33.991Z</time></trkpt><trkpt lat="44.7339575" lon="10.6162083"><ele>42.0</ele><time>2026-04-04T11:14:35.991Z</time></trkpt><trkpt lat="44.7340129" lon="10.6161126"><ele>42.0</ele><time>2026-04-04T11:14:36.991Z</time></trkpt><trkpt lat="44.7340776" lon="10.6160051"><ele>42.0</ele><time>2026-04-04T11:14:37.991Z</time></trkpt><trkpt lat="44.7341412" lon="10.6158842"><ele>42.0</ele><time>2026-04-04T11:14:38.992Z</time></trkpt><trkpt lat="44.7342085" lon="10.6157604"><ele>42.0</ele><time>2026-04-04T11:14:39.991Z</time></trkpt><trkpt lat="44.7342699" lon="10.6156255"><ele>42.0</ele><time>2026-04-04T11:14:40.992Z</time></trkpt><trkpt lat="44.7343335" lon="10.615482"><ele>42.0</ele><time>2026-04-04T11:14:41.991Z</time></trkpt><trkpt lat="44.7343843" lon="10.6153358"><ele>42.0</ele><time>2026-04-04T11:14:42.991Z</time></trkpt><trkpt lat="44.734421" lon="10.6151912"><ele>42.0</ele><time>2026-04-04T11:14:43.991Z</time></trkpt><trkpt lat="44.7344481" lon="10.6150548"><ele>42.0</ele><time>2026-04-04T11:14:44.991Z</time></trkpt><trkpt lat="44.7344786" lon="10.6149283"><ele>42.0</ele><time>2026-04-04T11:14:45.992Z</time></trkpt><trkpt lat="44.7345158" lon="10.6148183"><ele>42.0</ele><time>2026-04-04T11:14:46.992Z</time></trkpt><trkpt lat="44.7345436" lon="10.6147259"><ele>42.0</ele><time>2026-04-04T11:14:47.991Z</time></trkpt><trkpt lat="44.7345606" lon="10.6146389"><ele>42.0</ele><time>2026-04-04T11:14:48.991Z</time></trkpt><trkpt lat="44.7345165" lon="10.6145113"><ele>42.0</ele><time>2026-04-04T11:14:50.991Z</time></trkpt><trkpt lat="44.7344475" lon="10.6144897"><ele>42.0</ele><time>2026-04-04T11:14:51.991Z</time></trkpt><trkpt lat="44.734354" lon="10.6144892"><ele>42.0</ele><time>2026-04-04T11:14:52.991Z</time></trkpt><trkpt lat="44.7342353" lon="10.6145152"><ele>42.0</ele><time>2026-04-04T11:14:53.992Z</time></trkpt><trkpt lat="44.73411" lon="10.6145544"><ele>42.0</ele><time>2026-04-04T11:14:54.991Z</time></trkpt><trkpt lat="44.7339732" lon="10.6146147"><ele>42.0</ele><time>2026-04-04T11:14:55.991Z</time></trkpt><trkpt lat="44.7338332" lon="10.6146901"><ele>42.0</ele><time>2026-04-04T11:14:56.991Z</time></trkpt><trkpt lat="44.73369" lon="10.6147574"><ele>42.666666666666664</ele><time>2026-04-04T11:14:57.991Z</time></trkpt><trkpt lat="44.7335441" lon="10.6148315"><ele>43.33333333333333</ele><time>2026-04-04T11:14:58.991Z</time></trkpt><trkpt lat="44.7333967" lon="10.6149009"><ele>44.0</ele><time>2026-04-04T11:14:59.991Z</time></trkpt><trkpt lat="44.7332471" lon="10.6149628"><ele>44.0</ele><time>2026-04-04T11:15:00.991Z</time></trkpt><trkpt lat="44.7330977" lon="10.6150319"><ele>44.0</ele><time>2026-04-04T11:15:01.992Z</time></trkpt><trkpt lat="44.7329424" lon="10.615115"><ele>44.0</ele><time>2026-04-04T11:15:02.991Z</time></trkpt><trkpt lat="44.7327854" lon="10.6152074"><ele>44.33333333333333</ele><time>2026-04-04T11:15:03.992Z</time></trkpt><trkpt lat="44.732616" lon="10.6152966"><ele>44.666666666666664</ele><time>2026-04-04T11:15:04.991Z</time></trkpt><trkpt lat="44.7324493" lon="10.6153928"><ele>45.0</ele><time>2026-04-04T11:15:05.991Z</time></trkpt><trkpt lat="44.7317975" lon="10.6157619"><ele>45.666666666666664</ele><time>2026-04-04T11:15:09.994Z</time></trkpt><trkpt lat="44.7316169" lon="10.6158683"><ele>46.33333333333333</ele><time>2026-04-04T11:15:10.994Z</time></trkpt><trkpt lat="44.7314424" lon="10.6159702"><ele>47.0</ele><time>2026-04-04T11:15:11.994Z</time></trkpt><trkpt lat="44.7312747" lon="10.6160617"><ele>47.0</ele><time>2026-04-04T11:15:12.995Z</time></trkpt><trkpt lat="44.7311085" lon="10.6161392"><ele>47.0</ele><time>2026-04-04T11:15:13.994Z</time></trkpt><trkpt lat="44.7309396" lon="10.6162094"><ele>47.0</ele><time>2026-04-04T11:15:14.994Z</time></trkpt><trkpt lat="44.7307883" lon="10.6162691"><ele>46.0</ele><time>2026-04-04T11:15:15.995Z</time></trkpt><trkpt lat="44.7306464" lon="10.6163242"><ele>45.0</ele><time>2026-04-04T11:15:16.995Z</time></trkpt><trkpt lat="44.7305134" lon="10.6163549"><ele>44.0</ele><time>2026-04-04T11:15:17.995Z</time></trkpt><trkpt lat="44.7303929" lon="10.6163627"><ele>43.0</ele><time>2026-04-04T11:15:18.995Z</time></trkpt><trkpt lat="44.7302844" lon="10.6163555"><ele>43.0</ele><time>2026-04-04T11:15:19.995Z</time></trkpt><trkpt lat="44.7301923" lon="10.6163404"><ele>43.0</ele><time>2026-04-04T11:15:20.995Z</time></trkpt><trkpt lat="44.7301097" lon="10.6163001"><ele>43.0</ele><time>2026-04-04T11:15:21.995Z</time></trkpt><trkpt lat="44.7300345" lon="10.6162483"><ele>43.0</ele><time>2026-04-04T11:15:22.994Z</time></trkpt><trkpt lat="44.7299542" lon="10.6162297"><ele>43.0</ele><time>2026-04-04T11:15:23.994Z</time></trkpt><trkpt lat="44.7298834" lon="10.6162604"><ele>43.0</ele><time>2026-04-04T11:15:24.994Z</time></trkpt><trkpt lat="44.7298303" lon="10.6163502"><ele>43.0</ele><time>2026-04-04T11:15:25.995Z</time></trkpt><trkpt lat="44.7297941" lon="10.6164937"><ele>43.0</ele><time>2026-04-04T11:15:26.994Z</time></trkpt><trkpt lat="44.7297529" lon="10.6166611"><ele>43.0</ele><time>2026-04-04T11:15:27.994Z</time></trkpt><trkpt lat="44.7296883" lon="10.6168021"><ele>43.0</ele><time>2026-04-04T11:15:28.994Z</time></trkpt><trkpt lat="44.7295917" lon="10.6169182"><ele>42.66666666666667</ele><time>2026-04-04T11:15:29.995Z</time></trkpt><trkpt lat="44.7294538" lon="10.6170126"><ele>42.333333333333336</ele><time>2026-04-04T11:15:30.994Z</time></trkpt><trkpt lat="44.7293098" lon="10.6171068"><ele>42.0</ele><time>2026-04-04T11:15:31.994Z</time></trkpt><trkpt lat="44.729162" lon="10.6171958"><ele>43.0</ele><time>2026-04-04T11:15:32.994Z</time></trkpt><trkpt lat="44.7290145" lon="10.6172756"><ele>44.0</ele><time>2026-04-04T11:15:33.995Z</time></trkpt><trkpt lat="44.7288737" lon="10.6173529"><ele>45.0</ele><time>2026-04-04T11:15:34.995Z</time></trkpt><trkpt lat="44.7287348" lon="10.6174288"><ele>45.0</ele><time>2026-04-04T11:15:35.995Z</time></trkpt><trkpt lat="44.7285818" lon="10.6175222"><ele>45.0</ele><time>2026-04-04T11:15:36.995Z</time></trkpt><trkpt lat="44.7284276" lon="10.6176056"><ele>45.0</ele><time>2026-04-04T11:15:37.994Z</time></trkpt><trkpt lat="44.7282736" lon="10.617694"><ele>45.333333333333336</ele><time>2026-04-04T11:15:38.994Z</time></trkpt><trkpt lat="44.7281227" lon="10.6177859"><ele>45.66666666666667</ele><time>2026-04-04T11:15:39.995Z</time></trkpt><trkpt lat="44.7279791" lon="10.6178719"><ele>46.0</ele><time>2026-04-04T11:15:40.995Z</time></trkpt><trkpt lat="44.7278455" lon="10.6179514"><ele>45.75</ele><time>2026-04-04T11:15:41.995Z</time></trkpt><trkpt lat="44.7277172" lon="10.6180303"><ele>45.5</ele><time>2026-04-04T11:15:42.994Z</time></trkpt><trkpt lat="44.7275906" lon="10.6181038"><ele>45.25</ele><time>2026-04-04T11:15:43.994Z</time></trkpt><trkpt lat="44.7274691" lon="10.6181699"><ele>45.0</ele><time>2026-04-04T11:15:44.994Z</time></trkpt><trkpt lat="44.727351" lon="10.618228"><ele>45.0</ele><time>2026-04-04T11:15:45.994Z</time></trkpt><trkpt lat="44.7272373" lon="10.6182874"><ele>45.0</ele><time>2026-04-04T11:15:46.995Z</time></trkpt><trkpt lat="44.7271241" lon="10.6183496"><ele>45.0</ele><time>2026-04-04T11:15:47.994Z</time></trkpt><trkpt lat="44.7270056" lon="10.6184081"><ele>45.0</ele><time>2026-04-04T11:15:48.995Z</time></trkpt><trkpt lat="44.7268833" lon="10.6184668"><ele>45.25</ele><time>2026-04-04T11:15:49.994Z</time></trkpt><trkpt lat="44.7267586" lon="10.6185209"><ele>45.5</ele><time>2026-04-04T11:15:50.994Z</time></trkpt><trkpt lat="44.7266352" lon="10.6185798"><ele>45.75</ele><time>2026-04-04T11:15:51.995Z</time></trkpt><trkpt lat="44.726505" lon="10.6186421"><ele>46.0</ele><time>2026-04-04T11:15:52.994Z</time></trkpt><trkpt lat="44.7263752" lon="10.6187031"><ele>46.0</ele><time>2026-04-04T11:15:53.994Z</time></trkpt><trkpt lat="44.7262474" lon="10.6187586"><ele>46.0</ele><time>2026-04-04T11:15:54.994Z</time></trkpt><trkpt lat="44.7261286" lon="10.6188168"><ele>46.0</ele><time>2026-04-04T11:15:55.994Z</time></trkpt><trkpt lat="44.72602" lon="10.6188729"><ele>46.0</ele><time>2026-04-04T11:15:56.994Z</time></trkpt><trkpt lat="44.7259224" lon="10.618918"><ele>46.0</ele><time>2026-04-04T11:15:57.994Z</time></trkpt><trkpt lat="44.7258426" lon="10.6189572"><ele>46.0</ele><time>2026-04-04T11:15:58.994Z</time></trkpt><trkpt lat="44.7257756" lon="10.6189911"><ele>46.0</ele><time>2026-04-04T11:15:59.994Z</time></trkpt><trkpt lat="44.7256538" lon="10.6190189"><ele>46.0</ele><time>2026-04-04T11:16:01.994Z</time></trkpt><trkpt lat="44.7255839" lon="10.6190224"><ele>46.0</ele><time>2026-04-04T11:16:02.994Z</time></trkpt><trkpt lat="44.7255086" lon="10.6190432"><ele>46.0</ele><time>2026-04-04T11:16:03.994Z</time></trkpt><trkpt lat="44.7254334" lon="10.6190901"><ele>46.0</ele><time>2026-04-04T11:16:04.994Z</time></trkpt><trkpt lat="44.7253542" lon="10.6191641"><ele>46.0</ele><time>2026-04-04T11:16:05.995Z</time></trkpt><trkpt lat="44.7252694" lon="10.6192258"><ele>46.0</ele><time>2026-04-04T11:16:06.994Z</time></trkpt><trkpt lat="44.7251747" lon="10.6192815"><ele>46.0</ele><time>2026-04-04T11:16:07.994Z</time></trkpt><trkpt lat="44.72507" lon="10.6193325"><ele>46.0</ele><time>2026-04-04T11:16:08.995Z</time></trkpt><trkpt lat="44.7249546" lon="10.619389"><ele>46.0</ele><time>2026-04-04T11:16:09.995Z</time></trkpt><trkpt lat="44.7248339" lon="10.619453"><ele>46.0</ele><time>2026-04-04T11:16:10.995Z</time></trkpt><trkpt lat="44.7247096" lon="10.6195242"><ele>46.0</ele><time>2026-04-04T11:16:11.994Z</time></trkpt><trkpt lat="44.724581" lon="10.6195959"><ele>46.0</ele><time>2026-04-04T11:16:12.994Z</time></trkpt><trkpt lat="44.7244545" lon="10.6196584"><ele>46.0</ele><time>2026-04-04T11:16:13.994Z</time></trkpt><trkpt lat="44.7243289" lon="10.6197211"><ele>46.0</ele><time>2026-04-04T11:16:14.994Z</time></trkpt><trkpt lat="44.724204" lon="10.6197808"><ele>46.0</ele><time>2026-04-04T11:16:15.994Z</time></trkpt><trkpt lat="44.7240804" lon="10.6198303"><ele>46.0</ele><time>2026-04-04T11:16:16.995Z</time></trkpt><trkpt lat="44.7239545" lon="10.6198795"><ele>46.0</ele><time>2026-04-04T11:16:17.995Z</time></trkpt><trkpt lat="44.7238289" lon="10.6199308"><ele>46.0</ele><time>2026-04-04T11:16:18.994Z</time></trkpt><trkpt lat="44.7236996" lon="10.6199769"><ele>46.0</ele><time>2026-04-04T11:16:19.994Z</time></trkpt><trkpt lat="44.7235709" lon="10.620023"><ele>46.0</ele><time>2026-04-04T11:16:20.994Z</time></trkpt><trkpt lat="44.7234523" lon="10.6200685"><ele>45.599999999999994</ele><time>2026-04-04T11:16:21.994Z</time></trkpt><trkpt lat="44.7233449" lon="10.620116"><ele>45.2</ele><time>2026-04-04T11:16:22.994Z</time></trkpt><trkpt lat="44.7232407" lon="10.6201636"><ele>44.8</ele><time>2026-04-04T11:16:23.994Z</time></trkpt><trkpt lat="44.7231422" lon="10.6202074"><ele>44.400000000000006</ele><time>2026-04-04T11:16:24.995Z</time></trkpt><trkpt lat="44.7230339" lon="10.6202488"><ele>44.0</ele><time>2026-04-04T11:16:25.995Z</time></trkpt><trkpt lat="44.7229217" lon="10.6202883"><ele>44.5</ele><time>2026-04-04T11:16:26.994Z</time></trkpt><trkpt lat="44.7228194" lon="10.6203195"><ele>45.0</ele><time>2026-04-04T11:16:27.995Z</time></trkpt><trkpt lat="44.7227025" lon="10.6203522"><ele>45.5</ele><time>2026-04-04T11:16:28.994Z</time></trkpt><trkpt lat="44.7225786" lon="10.6203843"><ele>46.0</ele><time>2026-04-04T11:16:29.994Z</time></trkpt><trkpt lat="44.722453" lon="10.6204241"><ele>46.0</ele><time>2026-04-04T11:16:30.994Z</time></trkpt><trkpt lat="44.722339" lon="10.620466"><ele>46.0</ele><time>2026-04-04T11:16:31.994Z</time></trkpt><trkpt lat="44.7222264" lon="10.6205064"><ele>46.0</ele><time>2026-04-04T11:16:32.995Z</time></trkpt><trkpt lat="44.7221131" lon="10.620547"><ele>46.0</ele><time>2026-04-04T11:16:33.994Z</time></trkpt><trkpt lat="44.7220079" lon="10.6205769"><ele>46.0</ele><time>2026-04-04T11:16:34.994Z</time></trkpt><trkpt lat="44.7219073" lon="10.6206127"><ele>46.0</ele><time>2026-04-04T11:16:35.994Z</time></trkpt><trkpt lat="44.7218074" lon="10.6206391"><ele>46.0</ele><time>2026-04-04T11:16:36.995Z</time></trkpt><trkpt lat="44.7217189" lon="10.620653"><ele>46.0</ele><time>2026-04-04T11:16:37.994Z</time></trkpt><trkpt lat="44.7216461" lon="10.6206482"><ele>46.0</ele><time>2026-04-04T11:16:38.995Z</time></trkpt><trkpt lat="44.7215799" lon="10.6206318"><ele>46.0</ele><time>2026-04-04T11:16:39.994Z</time></trkpt><trkpt lat="44.7215223" lon="10.6205952"><ele>46.16666666666667</ele><time>2026-04-04T11:16:40.994Z</time></trkpt><trkpt lat="44.7214713" lon="10.6205371"><ele>46.333333333333336</ele><time>2026-04-04T11:16:41.994Z</time></trkpt><trkpt lat="44.7214225" lon="10.62046"><ele>46.5</ele><time>2026-04-04T11:16:42.994Z</time></trkpt><trkpt lat="44.7213748" lon="10.6203813"><ele>46.666666666666664</ele><time>2026-04-04T11:16:43.994Z</time></trkpt><trkpt lat="44.7213158" lon="10.6202913"><ele>46.83333333333333</ele><time>2026-04-04T11:16:44.995Z</time></trkpt><trkpt lat="44.7212537" lon="10.6201756"><ele>47.0</ele><time>2026-04-04T11:16:45.994Z</time></trkpt><trkpt lat="44.7212043" lon="10.6200436"><ele>47.25</ele><time>2026-04-04T11:16:46.994Z</time></trkpt><trkpt lat="44.7211663" lon="10.6198893"><ele>47.5</ele><time>2026-04-04T11:16:47.995Z</time></trkpt><trkpt lat="44.7211333" lon="10.6197222"><ele>47.75</ele><time>2026-04-04T11:16:48.994Z</time></trkpt><trkpt lat="44.7210992" lon="10.6195456"><ele>48.0</ele><time>2026-04-04T11:16:49.994Z</time></trkpt><trkpt lat="44.7210602" lon="10.6193603"><ele>48.0</ele><time>2026-04-04T11:16:50.994Z</time></trkpt><trkpt lat="44.7210202" lon="10.6191686"><ele>48.0</ele><time>2026-04-04T11:16:51.994Z</time></trkpt><trkpt lat="44.7209786" lon="10.6189716"><ele>48.0</ele><time>2026-04-04T11:16:52.994Z</time></trkpt><trkpt lat="44.7209355" lon="10.618774"><ele>48.0</ele><time>2026-04-04T11:16:53.995Z</time></trkpt><trkpt lat="44.7208893" lon="10.6185757"><ele>48.25</ele><time>2026-04-04T11:16:54.995Z</time></trkpt><trkpt lat="44.7208397" lon="10.6183764"><ele>48.5</ele><time>2026-04-04T11:16:55.994Z</time></trkpt><trkpt lat="44.7207932" lon="10.6181789"><ele>48.75</ele><time>2026-04-04T11:16:56.994Z</time></trkpt><trkpt lat="44.7207481" lon="10.6179836"><ele>49.0</ele><time>2026-04-04T11:16:57.994Z</time></trkpt><trkpt lat="44.7207061" lon="10.6177956"><ele>48.25</ele><time>2026-04-04T11:16:58.994Z</time></trkpt><trkpt lat="44.7206661" lon="10.6176125"><ele>47.5</ele><time>2026-04-04T11:16:59.994Z</time></trkpt><trkpt lat="44.7206238" lon="10.6174342"><ele>46.75</ele><time>2026-04-04T11:17:00.995Z</time></trkpt><trkpt lat="44.7205797" lon="10.6172546"><ele>46.0</ele><time>2026-04-04T11:17:01.994Z</time></trkpt><trkpt lat="44.720535" lon="10.6170828"><ele>45.75</ele><time>2026-04-04T11:17:02.994Z</time></trkpt><trkpt lat="44.7204911" lon="10.6169094"><ele>45.5</ele><time>2026-04-04T11:17:03.994Z</time></trkpt><trkpt lat="44.7204389" lon="10.616738"><ele>45.25</ele><time>2026-04-04T11:17:04.994Z</time></trkpt><trkpt lat="44.7203912" lon="10.6165571"><ele>45.0</ele><time>2026-04-04T11:17:05.995Z</time></trkpt><trkpt lat="44.7203475" lon="10.6163771"><ele>45.0</ele><time>2026-04-04T11:17:06.994Z</time></trkpt><trkpt lat="44.7203033" lon="10.6162037"><ele>45.0</ele><time>2026-04-04T11:17:07.994Z</time></trkpt><trkpt lat="44.7202641" lon="10.6160428"><ele>45.0</ele><time>2026-04-04T11:17:08.994Z</time></trkpt><trkpt lat="44.7202258" lon="10.6158872"><ele>45.0</ele><time>2026-04-04T11:17:09.994Z</time></trkpt><trkpt lat="44.7201889" lon="10.6157413"><ele>45.4</ele><time>2026-04-04T11:17:10.994Z</time></trkpt><trkpt lat="44.720159" lon="10.6156054"><ele>45.8</ele><time>2026-04-04T11:17:11.995Z</time></trkpt><trkpt lat="44.7201336" lon="10.6154932"><ele>46.2</ele><time>2026-04-04T11:17:12.995Z</time></trkpt><trkpt lat="44.7201081" lon="10.6154005"><ele>46.6</ele><time>2026-04-04T11:17:13.994Z</time></trkpt><trkpt lat="44.7200568" lon="10.61523"><ele>47.0</ele><time>2026-04-04T11:17:15.995Z</time></trkpt><trkpt lat="44.7200343" lon="10.6151167"><ele>47.0</ele><time>2026-04-04T11:17:16.994Z</time></trkpt><trkpt lat="44.7200175" lon="10.6149842"><ele>47.0</ele><time>2026-04-04T11:17:17.995Z</time></trkpt><trkpt lat="44.7200104" lon="10.6148384"><ele>47.0</ele><time>2026-04-04T11:17:18.994Z</time></trkpt><trkpt lat="44.7200058" lon="10.6146881"><ele>47.0</ele><time>2026-04-04T11:17:19.995Z</time></trkpt><trkpt lat="44.7200169" lon="10.6145318"><ele>47.0</ele><time>2026-04-04T11:17:20.995Z</time></trkpt><trkpt lat="44.7200415" lon="10.6143775"><ele>46.5</ele><time>2026-04-04T11:17:21.994Z</time></trkpt><trkpt lat="44.7200872" lon="10.6142308"><ele>46.0</ele><time>2026-04-04T11:17:22.995Z</time></trkpt><trkpt lat="44.7201491" lon="10.6140861"><ele>45.5</ele><time>2026-04-04T11:17:23.995Z</time></trkpt><trkpt lat="44.7202234" lon="10.6139358"><ele>45.0</ele><time>2026-04-04T11:17:24.995Z</time></trkpt><trkpt lat="44.7203126" lon="10.6137795"><ele>45.0</ele><time>2026-04-04T11:17:25.994Z</time></trkpt><trkpt lat="44.72041" lon="10.6136332"><ele>45.0</ele><time>2026-04-04T11:17:26.995Z</time></trkpt><trkpt lat="44.7205064" lon="10.6134896"><ele>45.0</ele><time>2026-04-04T11:17:27.994Z</time></trkpt><trkpt lat="44.7206083" lon="10.6133518"><ele>45.0</ele><time>2026-04-04T11:17:28.994Z</time></trkpt><trkpt lat="44.7207063" lon="10.6132169"><ele>45.0</ele><time>2026-04-04T11:17:29.994Z</time></trkpt><trkpt lat="44.7207954" lon="10.6130843"><ele>45.0</ele><time>2026-04-04T11:17:30.994Z</time></trkpt><trkpt lat="44.7208791" lon="10.6129606"><ele>45.0</ele><time>2026-04-04T11:17:31.995Z</time></trkpt><trkpt lat="44.7209529" lon="10.6128485"><ele>45.0</ele><time>2026-04-04T11:17:32.994Z</time></trkpt><trkpt lat="44.7210242" lon="10.6127476"><ele>45.0</ele><time>2026-04-04T11:17:33.995Z</time></trkpt><trkpt lat="44.7210919" lon="10.6126613"><ele>45.0</ele><time>2026-04-04T11:17:34.993Z</time></trkpt><trkpt lat="44.7211552" lon="10.6125926"><ele>45.0</ele><time>2026-04-04T11:17:35.993Z</time></trkpt><trkpt lat="44.7212098" lon="10.6125351"><ele>45.0</ele><time>2026-04-04T11:17:36.993Z</time></trkpt><trkpt lat="44.721262" lon="10.6124848"><ele>45.0</ele><time>2026-04-04T11:17:37.993Z</time></trkpt><trkpt lat="44.7213652" lon="10.6123821"><ele>45.0</ele><time>2026-04-04T11:17:39.994Z</time></trkpt><trkpt lat="44.7214263" lon="10.6123207"><ele>45.0</ele><time>2026-04-04T11:17:40.994Z</time></trkpt><trkpt lat="44.721488" lon="10.6122596"><ele>45.0</ele><time>2026-04-04T11:17:41.993Z</time></trkpt><trkpt lat="44.7215423" lon="10.6121883"><ele>45.0</ele><time>2026-04-04T11:17:42.993Z</time></trkpt><trkpt lat="44.7216016" lon="10.6121169"><ele>45.0</ele><time>2026-04-04T11:17:43.994Z</time></trkpt><trkpt lat="44.7216591" lon="10.6120496"><ele>45.0</ele><time>2026-04-04T11:17:44.994Z</time></trkpt><trkpt lat="44.7217081" lon="10.611988"><ele>45.0</ele><time>2026-04-04T11:17:45.994Z</time></trkpt><trkpt lat="44.7218123" lon="10.6118775"><ele>45.0</ele><time>2026-04-04T11:17:47.994Z</time></trkpt><trkpt lat="44.7218723" lon="10.6118127"><ele>45.0</ele><time>2026-04-04T11:17:48.994Z</time></trkpt><trkpt lat="44.721918" lon="10.6117249"><ele>45.0</ele><time>2026-04-04T11:17:49.993Z</time></trkpt><trkpt lat="44.7219344" lon="10.6116341"><ele>45.0</ele><time>2026-04-04T11:17:50.993Z</time></trkpt><trkpt lat="44.7218594" lon="10.6114917"><ele>45.0</ele><time>2026-04-04T11:17:52.993Z</time></trkpt><trkpt lat="44.7217705" lon="10.6114546"><ele>45.0</ele><time>2026-04-04T11:17:53.993Z</time></trkpt><trkpt lat="44.7216573" lon="10.6114236"><ele>45.0</ele><time>2026-04-04T11:17:54.993Z</time></trkpt><trkpt lat="44.721537" lon="10.6113875"><ele>45.0</ele><time>2026-04-04T11:17:55.993Z</time></trkpt><trkpt lat="44.7214033" lon="10.6113464"><ele>45.0</ele><time>2026-04-04T11:17:56.993Z</time></trkpt><trkpt lat="44.7212557" lon="10.6112955"><ele>45.0</ele><time>2026-04-04T11:17:57.994Z</time></trkpt><trkpt lat="44.7210944" lon="10.6112351"><ele>44.75</ele><time>2026-04-04T11:17:58.994Z</time></trkpt><trkpt lat="44.7209438" lon="10.6111796"><ele>44.5</ele><time>2026-04-04T11:17:59.993Z</time></trkpt><trkpt lat="44.7208048" lon="10.6111283"><ele>44.25</ele><time>2026-04-04T11:18:00.993Z</time></trkpt><trkpt lat="44.7206845" lon="10.6110818"><ele>44.0</ele><time>2026-04-04T11:18:01.993Z</time></trkpt><trkpt lat="44.7205725" lon="10.6110348"><ele>43.800000000000004</ele><time>2026-04-04T11:18:02.993Z</time></trkpt><trkpt lat="44.7204626" lon="10.6109812"><ele>43.6</ele><time>2026-04-04T11:18:03.994Z</time></trkpt><trkpt lat="44.7203521" lon="10.6109302"><ele>43.4</ele><time>2026-04-04T11:18:04.994Z</time></trkpt><trkpt lat="44.7202493" lon="10.6108878"><ele>43.2</ele><time>2026-04-04T11:18:05.994Z</time></trkpt><trkpt lat="44.7201591" lon="10.6108321"><ele>43.0</ele><time>2026-04-04T11:18:06.994Z</time></trkpt><trkpt lat="44.7200778" lon="10.6107633"><ele>42.8</ele><time>2026-04-04T11:18:07.994Z</time></trkpt><trkpt lat="44.720009" lon="10.6106869"><ele>42.599999999999994</ele><time>2026-04-04T11:18:08.993Z</time></trkpt><trkpt lat="44.7199255" lon="10.6106351"><ele>42.400000000000006</ele><time>2026-04-04T11:18:09.993Z</time></trkpt><trkpt lat="44.7198178" lon="10.610614"><ele>42.2</ele><time>2026-04-04T11:18:10.993Z</time></trkpt><trkpt lat="44.7196849" lon="10.6106081"><ele>42.0</ele><time>2026-04-04T11:18:11.994Z</time></trkpt><trkpt lat="44.7195362" lon="10.6105679"><ele>41.666666666666664</ele><time>2026-04-04T11:18:12.994Z</time></trkpt><trkpt lat="44.7193789" lon="10.6105071"><ele>41.33333333333333</ele><time>2026-04-04T11:18:13.994Z</time></trkpt><trkpt lat="44.7192091" lon="10.6104357"><ele>41.0</ele><time>2026-04-04T11:18:14.993Z</time></trkpt><trkpt lat="44.7190328" lon="10.6103575"><ele>41.0</ele><time>2026-04-04T11:18:15.994Z</time></trkpt><trkpt lat="44.7188518" lon="10.6102805"><ele>41.0</ele><time>2026-04-04T11:18:16.993Z</time></trkpt><trkpt lat="44.718669" lon="10.6102007"><ele>41.0</ele><time>2026-04-04T11:18:17.993Z</time></trkpt><trkpt lat="44.7184835" lon="10.6101276"><ele>41.666666666666664</ele><time>2026-04-04T11:18:18.993Z</time></trkpt><trkpt lat="44.7182915" lon="10.6100517"><ele>42.333333333333336</ele><time>2026-04-04T11:18:19.993Z</time></trkpt><trkpt lat="44.7181001" lon="10.6099674"><ele>43.0</ele><time>2026-04-04T11:18:20.993Z</time></trkpt><trkpt lat="44.7179056" lon="10.6098839"><ele>43.333333333333336</ele><time>2026-04-04T11:18:21.993Z</time></trkpt><trkpt lat="44.7177127" lon="10.6098037"><ele>43.666666666666664</ele><time>2026-04-04T11:18:22.994Z</time></trkpt><trkpt lat="44.7175195" lon="10.6097238"><ele>44.0</ele><time>2026-04-04T11:18:23.994Z</time></trkpt><trkpt lat="44.7173307" lon="10.6096514"><ele>44.0</ele><time>2026-04-04T11:18:24.994Z</time></trkpt><trkpt lat="44.7171491" lon="10.6095816"><ele>44.0</ele><time>2026-04-04T11:18:25.994Z</time></trkpt><trkpt lat="44.7169811" lon="10.6095128"><ele>44.0</ele><time>2026-04-04T11:18:26.993Z</time></trkpt><trkpt lat="44.7168246" lon="10.6094507"><ele>43.5</ele><time>2026-04-04T11:18:27.993Z</time></trkpt><trkpt lat="44.7166864" lon="10.609386"><ele>43.0</ele><time>2026-04-04T11:18:28.993Z</time></trkpt><trkpt lat="44.7165673" lon="10.6093262"><ele>42.5</ele><time>2026-04-04T11:18:29.994Z</time></trkpt><trkpt lat="44.7164681" lon="10.6092585"><ele>42.0</ele><time>2026-04-04T11:18:30.994Z</time></trkpt><trkpt lat="44.7163875" lon="10.6091756"><ele>42.0</ele><time>2026-04-04T11:18:31.993Z</time></trkpt><trkpt lat="44.7163341" lon="10.6090529"><ele>42.0</ele><time>2026-04-04T11:18:32.993Z</time></trkpt><trkpt lat="44.7162894" lon="10.6089162"><ele>42.0</ele><time>2026-04-04T11:18:33.993Z</time></trkpt><trkpt lat="44.7162292" lon="10.6088032"><ele>42.0</ele><time>2026-04-04T11:18:34.993Z</time></trkpt><trkpt lat="44.7161468" lon="10.6087472"><ele>42.0</ele><time>2026-04-04T11:18:35.993Z</time></trkpt><trkpt lat="44.7160485" lon="10.608759"><ele>42.5</ele><time>2026-04-04T11:18:36.993Z</time></trkpt><trkpt lat="44.7159256" lon="10.6088176"><ele>43.0</ele><time>2026-04-04T11:18:37.994Z</time></trkpt><trkpt lat="44.7157847" lon="10.6088824"><ele>43.5</ele><time>2026-04-04T11:18:38.994Z</time></trkpt><trkpt lat="44.7156423" lon="10.6089249"><ele>44.0</ele><time>2026-04-04T11:18:39.993Z</time></trkpt><trkpt lat="44.7154841" lon="10.6089204"><ele>44.0</ele><time>2026-04-04T11:18:40.993Z</time></trkpt><trkpt lat="44.7153115" lon="10.6088834"><ele>44.0</ele><time>2026-04-04T11:18:41.993Z</time></trkpt><trkpt lat="44.7151374" lon="10.6088358"><ele>44.0</ele><time>2026-04-04T11:18:42.993Z</time></trkpt><trkpt lat="44.7149509" lon="10.6087873"><ele>44.0</ele><time>2026-04-04T11:18:43.993Z</time></trkpt><trkpt lat="44.71476" lon="10.6087401"><ele>44.0</ele><time>2026-04-04T11:18:44.993Z</time></trkpt><trkpt lat="44.7145701" lon="10.6086995"><ele>44.0</ele><time>2026-04-04T11:18:45.994Z</time></trkpt><trkpt lat="44.7143805" lon="10.6086578"><ele>44.0</ele><time>2026-04-04T11:18:46.994Z</time></trkpt><trkpt lat="44.7142032" lon="10.6086179"><ele>44.0</ele><time>2026-04-04T11:18:47.994Z</time></trkpt><trkpt lat="44.7140374" lon="10.608572"><ele>44.0</ele><time>2026-04-04T11:18:48.994Z</time></trkpt><trkpt lat="44.7138744" lon="10.6085288"><ele>44.0</ele><time>2026-04-04T11:18:49.993Z</time></trkpt><trkpt lat="44.7137249" lon="10.6084882"><ele>44.0</ele><time>2026-04-04T11:18:50.994Z</time></trkpt><trkpt lat="44.7135866" lon="10.6084459"><ele>44.0</ele><time>2026-04-04T11:18:51.993Z</time></trkpt><trkpt lat="44.7134626" lon="10.6083967"><ele>44.0</ele><time>2026-04-04T11:18:52.994Z</time></trkpt><trkpt lat="44.7133486" lon="10.6083292"><ele>44.166666666666664</ele><time>2026-04-04T11:18:53.993Z</time></trkpt><trkpt lat="44.7132542" lon="10.6082317"><ele>44.33333333333333</ele><time>2026-04-04T11:18:54.994Z</time></trkpt><trkpt lat="44.713181" lon="10.6081391"><ele>44.5</ele><time>2026-04-04T11:18:55.994Z</time></trkpt><trkpt lat="44.7131251" lon="10.6080592"><ele>44.666666666666664</ele><time>2026-04-04T11:18:56.993Z</time></trkpt><trkpt lat="44.7130676" lon="10.6080114"><ele>44.833333333333336</ele><time>2026-04-04T11:18:57.994Z</time></trkpt><trkpt lat="44.7130018" lon="10.6079991"><ele>45.0</ele><time>2026-04-04T11:18:58.993Z</time></trkpt><trkpt lat="44.7129242" lon="10.6080243"><ele>45.0</ele><time>2026-04-04T11:18:59.993Z</time></trkpt><trkpt lat="44.7128374" lon="10.6080767"><ele>45.0</ele><time>2026-04-04T11:19:00.993Z</time></trkpt><trkpt lat="44.7127298" lon="10.6081304"><ele>45.0</ele><time>2026-04-04T11:19:01.993Z</time></trkpt><trkpt lat="44.712585" lon="10.6081589"><ele>45.0</ele><time>2026-04-04T11:19:02.994Z</time></trkpt><trkpt lat="44.7124197" lon="10.6081727"><ele>45.333333333333336</ele><time>2026-04-04T11:19:03.994Z</time></trkpt><trkpt lat="44.7122495" lon="10.6081666"><ele>45.66666666666667</ele><time>2026-04-04T11:19:04.994Z</time></trkpt><trkpt lat="44.7120799" lon="10.6081439"><ele>46.0</ele><time>2026-04-04T11:19:05.993Z</time></trkpt><trkpt lat="44.7119028" lon="10.6081011"><ele>46.333333333333336</ele><time>2026-04-04T11:19:06.994Z</time></trkpt><trkpt lat="44.7117182" lon="10.6080565"><ele>46.666666666666664</ele><time>2026-04-04T11:19:07.994Z</time></trkpt><trkpt lat="44.7115384" lon="10.6080022"><ele>47.0</ele><time>2026-04-04T11:19:08.993Z</time></trkpt><trkpt lat="44.7113645" lon="10.6079551"><ele>47.0</ele><time>2026-04-04T11:19:09.993Z</time></trkpt><trkpt lat="44.7111951" lon="10.6078983"><ele>47.0</ele><time>2026-04-04T11:19:10.993Z</time></trkpt><trkpt lat="44.7110273" lon="10.6078447"><ele>47.0</ele><time>2026-04-04T11:19:11.993Z</time></trkpt><trkpt lat="44.7108731" lon="10.6077881"><ele>47.0</ele><time>2026-04-04T11:19:12.993Z</time></trkpt><trkpt lat="44.7107204" lon="10.6077429"><ele>47.0</ele><time>2026-04-04T11:19:13.994Z</time></trkpt><trkpt lat="44.7105783" lon="10.6077014"><ele>47.0</ele><time>2026-04-04T11:19:14.993Z</time></trkpt><trkpt lat="44.7104533" lon="10.6076681"><ele>47.0</ele><time>2026-04-04T11:19:15.993Z</time></trkpt><trkpt lat="44.7103465" lon="10.6076443"><ele>47.0</ele><time>2026-04-04T11:19:16.994Z</time></trkpt><trkpt lat="44.7102534" lon="10.6076211"><ele>47.0</ele><time>2026-04-04T11:19:17.993Z</time></trkpt><trkpt lat="44.7101737" lon="10.6076045"><ele>47.0</ele><time>2026-04-04T11:19:18.994Z</time></trkpt><trkpt lat="44.7101087" lon="10.607589"><ele>47.0</ele><time>2026-04-04T11:19:19.993Z</time></trkpt><trkpt lat="44.7100069" lon="10.6075669"><ele>47.0</ele><time>2026-04-04T11:19:21.993Z</time></trkpt><trkpt lat="44.7099152" lon="10.6075488"><ele>47.0</ele><time>2026-04-04T11:19:23.994Z</time></trkpt><trkpt lat="44.7098218" lon="10.6074822"><ele>47.0</ele><time>2026-04-04T11:19:25.993Z</time></trkpt><trkpt lat="44.7097762" lon="10.6074192"><ele>47.0</ele><time>2026-04-04T11:19:26.993Z</time></trkpt><trkpt lat="44.709736" lon="10.6073344"><ele>47.0</ele><time>2026-04-04T11:19:27.993Z</time></trkpt><trkpt lat="44.7096853" lon="10.6072637"><ele>47.0</ele><time>2026-04-04T11:19:28.993Z</time></trkpt><trkpt lat="44.709623" lon="10.6072278"><ele>47.0</ele><time>2026-04-04T11:19:29.993Z</time></trkpt><trkpt lat="44.7095566" lon="10.6072228"><ele>47.0</ele><time>2026-04-04T11:19:30.993Z</time></trkpt><trkpt lat="44.7094802" lon="10.6072494"><ele>47.0</ele><time>2026-04-04T11:19:31.993Z</time></trkpt><trkpt lat="44.7093873" lon="10.6072845"><ele>47.0</ele><time>2026-04-04T11:19:32.994Z</time></trkpt><trkpt lat="44.7092725" lon="10.6073053"><ele>47.0</ele><time>2026-04-04T11:19:33.993Z</time></trkpt><trkpt lat="44.7091337" lon="10.6072889"><ele>47.0</ele><time>2026-04-04T11:19:34.994Z</time></trkpt><trkpt lat="44.7089809" lon="10.6072433"><ele>47.0</ele><time>2026-04-04T11:19:35.993Z</time></trkpt><trkpt lat="44.7088213" lon="10.6071875"><ele>47.0</ele><time>2026-04-04T11:19:36.994Z</time></trkpt><trkpt lat="44.7086538" lon="10.6071315"><ele>47.0</ele><time>2026-04-04T11:19:37.993Z</time></trkpt><trkpt lat="44.7084849" lon="10.6070667"><ele>47.0</ele><time>2026-04-04T11:19:38.994Z</time></trkpt><trkpt lat="44.7083167" lon="10.6070073"><ele>46.666666666666664</ele><time>2026-04-04T11:19:39.993Z</time></trkpt><trkpt lat="44.7081551" lon="10.6069396"><ele>46.333333333333336</ele><time>2026-04-04T11:19:40.994Z</time></trkpt><trkpt lat="44.7080064" lon="10.6068722"><ele>46.0</ele><time>2026-04-04T11:19:41.993Z</time></trkpt><trkpt lat="44.7078716" lon="10.6068113"><ele>46.0</ele><time>2026-04-04T11:19:42.993Z</time></trkpt><trkpt lat="44.7077442" lon="10.6067504"><ele>46.0</ele><time>2026-04-04T11:19:43.994Z</time></trkpt><trkpt lat="44.7076262" lon="10.6066907"><ele>46.0</ele><time>2026-04-04T11:19:44.993Z</time></trkpt><trkpt lat="44.7075276" lon="10.6066293"><ele>46.0</ele><time>2026-04-04T11:19:45.994Z</time></trkpt><trkpt lat="44.7074453" lon="10.6065761"><ele>46.16666666666667</ele><time>2026-04-04T11:19:46.994Z</time></trkpt><trkpt lat="44.7073732" lon="10.6065211"><ele>46.333333333333336</ele><time>2026-04-04T11:19:47.993Z</time></trkpt><trkpt lat="44.7073136" lon="10.6064444"><ele>46.5</ele><time>2026-04-04T11:19:48.993Z</time></trkpt><trkpt lat="44.7072715" lon="10.6063401"><ele>46.666666666666664</ele><time>2026-04-04T11:19:49.993Z</time></trkpt><trkpt lat="44.7072344" lon="10.6062357"><ele>46.83333333333333</ele><time>2026-04-04T11:19:50.994Z</time></trkpt><trkpt lat="44.7071868" lon="10.6061514"><ele>47.0</ele><time>2026-04-04T11:19:51.993Z</time></trkpt><trkpt lat="44.7071247" lon="10.6060989"><ele>47.33333333333333</ele><time>2026-04-04T11:19:52.993Z</time></trkpt><trkpt lat="44.7070572" lon="10.6060726"><ele>47.666666666666664</ele><time>2026-04-04T11:19:53.993Z</time></trkpt><trkpt lat="44.7069809" lon="10.6060792"><ele>48.0</ele><time>2026-04-04T11:19:54.993Z</time></trkpt><trkpt lat="44.7069043" lon="10.6061048"><ele>48.33333333333333</ele><time>2026-04-04T11:19:55.993Z</time></trkpt><trkpt lat="44.7068377" lon="10.6061191"><ele>48.666666666666664</ele><time>2026-04-04T11:19:56.994Z</time></trkpt><trkpt lat="44.7067452" lon="10.6060884"><ele>49.0</ele><time>2026-04-04T11:19:58.993Z</time></trkpt><trkpt lat="44.7066778" lon="10.6060668"><ele>49.0</ele><time>2026-04-04T11:20:01.993Z</time></trkpt><trkpt lat="44.7065999" lon="10.6060224"><ele>49.0</ele><time>2026-04-04T11:20:15.994Z</time></trkpt><trkpt lat="44.7065051" lon="10.6059697"><ele>49.0</ele><time>2026-04-04T11:20:16.993Z</time></trkpt><trkpt lat="44.7063892" lon="10.6059104"><ele>49.0</ele><time>2026-04-04T11:20:17.993Z</time></trkpt><trkpt lat="44.7062659" lon="10.6058536"><ele>49.0</ele><time>2026-04-04T11:20:18.994Z</time></trkpt><trkpt lat="44.7061417" lon="10.6057997"><ele>48.666666666666664</ele><time>2026-04-04T11:20:19.994Z</time></trkpt><trkpt lat="44.7059999" lon="10.6057567"><ele>48.33333333333333</ele><time>2026-04-04T11:20:20.994Z</time></trkpt><trkpt lat="44.7058516" lon="10.6057162"><ele>48.0</ele><time>2026-04-04T11:20:21.994Z</time></trkpt><trkpt lat="44.7056973" lon="10.6056852"><ele>48.0</ele><time>2026-04-04T11:20:22.994Z</time></trkpt><trkpt lat="44.7055308" lon="10.605671"><ele>48.0</ele><time>2026-04-04T11:20:23.993Z</time></trkpt><trkpt lat="44.7053609" lon="10.6056535"><ele>48.0</ele><time>2026-04-04T11:20:24.993Z</time></trkpt><trkpt lat="44.705194" lon="10.6056266"><ele>48.66666666666667</ele><time>2026-04-04T11:20:25.993Z</time></trkpt><trkpt lat="44.7050263" lon="10.6055955"><ele>49.333333333333336</ele><time>2026-04-04T11:20:26.993Z</time></trkpt><trkpt lat="44.7048621" lon="10.6055689"><ele>50.0</ele><time>2026-04-04T11:20:27.993Z</time></trkpt><trkpt lat="44.7047053" lon="10.6055406"><ele>50.0</ele><time>2026-04-04T11:20:28.993Z</time></trkpt><trkpt lat="44.704566" lon="10.6055136"><ele>50.0</ele><time>2026-04-04T11:20:29.994Z</time></trkpt><trkpt lat="44.7044419" lon="10.6054878"><ele>50.0</ele><time>2026-04-04T11:20:30.994Z</time></trkpt><trkpt lat="44.7043346" lon="10.605436"><ele>50.0</ele><time>2026-04-04T11:20:31.993Z</time></trkpt><trkpt lat="44.7042426" lon="10.605357"><ele>50.2</ele><time>2026-04-04T11:20:32.993Z</time></trkpt><trkpt lat="44.7041603" lon="10.605271"><ele>50.4</ele><time>2026-04-04T11:20:33.993Z</time></trkpt><trkpt lat="44.7040705" lon="10.605225"><ele>50.599999999999994</ele><time>2026-04-04T11:20:34.994Z</time></trkpt><trkpt lat="44.703969" lon="10.6052389"><ele>50.8</ele><time>2026-04-04T11:20:35.993Z</time></trkpt><trkpt lat="44.7038477" lon="10.6052896"><ele>51.0</ele><time>2026-04-04T11:20:36.994Z</time></trkpt><trkpt lat="44.7037079" lon="10.6053282"><ele>50.66666666666667</ele><time>2026-04-04T11:20:37.994Z</time></trkpt><trkpt lat="44.7035537" lon="10.6053302"><ele>50.333333333333336</ele><time>2026-04-04T11:20:38.994Z</time></trkpt><trkpt lat="44.7034004" lon="10.6053123"><ele>50.0</ele><time>2026-04-04T11:20:39.994Z</time></trkpt><trkpt lat="44.7032392" lon="10.6052939"><ele>50.0</ele><time>2026-04-04T11:20:40.993Z</time></trkpt><trkpt lat="44.703071" lon="10.6052842"><ele>50.0</ele><time>2026-04-04T11:20:41.993Z</time></trkpt><trkpt lat="44.7029007" lon="10.6052886"><ele>50.0</ele><time>2026-04-04T11:20:42.993Z</time></trkpt><trkpt lat="44.70272" lon="10.6053054"><ele>50.66666666666667</ele><time>2026-04-04T11:20:43.993Z</time></trkpt><trkpt lat="44.7025327" lon="10.6053327"><ele>51.33333333333333</ele><time>2026-04-04T11:20:44.994Z</time></trkpt><trkpt lat="44.7023445" lon="10.6053862"><ele>52.0</ele><time>2026-04-04T11:20:45.994Z</time></trkpt><trkpt lat="44.7021559" lon="10.6054594"><ele>52.0</ele><time>2026-04-04T11:20:46.994Z</time></trkpt><trkpt lat="44.7019627" lon="10.6055507"><ele>52.0</ele><time>2026-04-04T11:20:47.993Z</time></trkpt><trkpt lat="44.7017732" lon="10.6056548"><ele>52.0</ele><time>2026-04-04T11:20:48.993Z</time></trkpt><trkpt lat="44.7015931" lon="10.6057736"><ele>52.0</ele><time>2026-04-04T11:20:49.993Z</time></trkpt><trkpt lat="44.7014148" lon="10.6059128"><ele>52.0</ele><time>2026-04-04T11:20:50.994Z</time></trkpt><trkpt lat="44.70124" lon="10.6060724"><ele>52.0</ele><time>2026-04-04T11:20:51.994Z</time></trkpt><trkpt lat="44.7010671" lon="10.606244"><ele>52.0</ele><time>2026-04-04T11:20:52.993Z</time></trkpt><trkpt lat="44.7009007" lon="10.6064273"><ele>52.0</ele><time>2026-04-04T11:20:53.994Z</time></trkpt><trkpt lat="44.7007309" lon="10.6066146"><ele>52.0</ele><time>2026-04-04T11:20:54.994Z</time></trkpt><trkpt lat="44.7005546" lon="10.6068043"><ele>52.33333333333333</ele><time>2026-04-04T11:20:55.993Z</time></trkpt><trkpt lat="44.7003795" lon="10.6069995"><ele>52.66666666666667</ele><time>2026-04-04T11:20:56.993Z</time></trkpt><trkpt lat="44.7002056" lon="10.6071985"><ele>53.0</ele><time>2026-04-04T11:20:57.994Z</time></trkpt><trkpt lat="44.7000305" lon="10.607396"><ele>53.66666666666667</ele><time>2026-04-04T11:20:58.994Z</time></trkpt><trkpt lat="44.6998601" lon="10.6075816"><ele>54.33333333333333</ele><time>2026-04-04T11:20:59.993Z</time></trkpt><trkpt lat="44.6996835" lon="10.6077629"><ele>55.0</ele><time>2026-04-04T11:21:00.993Z</time></trkpt><trkpt lat="44.6995025" lon="10.6079264"><ele>55.0</ele><time>2026-04-04T11:21:01.994Z</time></trkpt><trkpt lat="44.6993118" lon="10.6080855"><ele>55.0</ele><time>2026-04-04T11:21:02.993Z</time></trkpt><trkpt lat="44.6991198" lon="10.60823"><ele>55.0</ele><time>2026-04-04T11:21:03.993Z</time></trkpt><trkpt lat="44.6989297" lon="10.6083676"><ele>55.0</ele><time>2026-04-04T11:21:04.993Z</time></trkpt><trkpt lat="44.6987433" lon="10.6084981"><ele>55.0</ele><time>2026-04-04T11:21:05.993Z</time></trkpt><trkpt lat="44.6985536" lon="10.6086325"><ele>55.0</ele><time>2026-04-04T11:21:06.993Z</time></trkpt><trkpt lat="44.6983732" lon="10.6087606"><ele>54.666666666666664</ele><time>2026-04-04T11:21:07.993Z</time></trkpt><trkpt lat="44.6982073" lon="10.6088741"><ele>54.33333333333333</ele><time>2026-04-04T11:21:08.993Z</time></trkpt><trkpt lat="44.6980508" lon="10.6089801"><ele>54.0</ele><time>2026-04-04T11:21:09.993Z</time></trkpt><trkpt lat="44.697892" lon="10.6090652"><ele>54.5</ele><time>2026-04-04T11:21:10.993Z</time></trkpt><trkpt lat="44.697737" lon="10.609111"><ele>55.0</ele><time>2026-04-04T11:21:11.993Z</time></trkpt><trkpt lat="44.6975859" lon="10.6091383"><ele>55.5</ele><time>2026-04-04T11:21:12.993Z</time></trkpt><trkpt lat="44.6974475" lon="10.6091472"><ele>56.0</ele><time>2026-04-04T11:21:13.993Z</time></trkpt><trkpt lat="44.6973272" lon="10.6091546"><ele>56.0</ele><time>2026-04-04T11:21:14.993Z</time></trkpt><trkpt lat="44.69723" lon="10.6091723"><ele>55.99999999999999</ele><time>2026-04-04T11:21:15.993Z</time></trkpt><trkpt lat="44.6971483" lon="10.6091964"><ele>55.99999999999999</ele><time>2026-04-04T11:21:16.993Z</time></trkpt><trkpt lat="44.6970789" lon="10.6091949"><ele>56.0</ele><time>2026-04-04T11:21:17.993Z</time></trkpt><trkpt lat="44.6970004" lon="10.609061"><ele>56.0</ele><time>2026-04-04T11:21:19.994Z</time></trkpt><trkpt lat="44.696982" lon="10.6089246"><ele>56.0</ele><time>2026-04-04T11:21:20.993Z</time></trkpt><trkpt lat="44.6969598" lon="10.6087525"><ele>56.0</ele><time>2026-04-04T11:21:21.993Z</time></trkpt><trkpt lat="44.6969234" lon="10.6085804"><ele>56.0</ele><time>2026-04-04T11:21:22.994Z</time></trkpt><trkpt lat="44.6968692" lon="10.6084312"><ele>56.0</ele><time>2026-04-04T11:21:23.993Z</time></trkpt><trkpt lat="44.6967922" lon="10.6083063"><ele>56.25</ele><time>2026-04-04T11:21:24.993Z</time></trkpt><trkpt lat="44.6966974" lon="10.6082124"><ele>56.5</ele><time>2026-04-04T11:21:25.993Z</time></trkpt><trkpt lat="44.6965958" lon="10.6081364"><ele>56.75</ele><time>2026-04-04T11:21:26.993Z</time></trkpt><trkpt lat="44.6964903" lon="10.608076"><ele>57.0</ele><time>2026-04-04T11:21:27.993Z</time></trkpt><trkpt lat="44.6963929" lon="10.6080184"><ele>57.0</ele><time>2026-04-04T11:21:28.994Z</time></trkpt><trkpt lat="44.6963048" lon="10.607964"><ele>57.0</ele><time>2026-04-04T11:21:29.993Z</time></trkpt><trkpt lat="44.6962349" lon="10.6079177"><ele>57.0</ele><time>2026-04-04T11:21:30.993Z</time></trkpt><trkpt lat="44.6961533" lon="10.6077792"><ele>57.0</ele><time>2026-04-04T11:21:32.993Z</time></trkpt><trkpt lat="44.6961316" lon="10.6076535"><ele>57.0</ele><time>2026-04-04T11:21:33.993Z</time></trkpt><trkpt lat="44.6961165" lon="10.6074915"><ele>57.0</ele><time>2026-04-04T11:21:34.994Z</time></trkpt><trkpt lat="44.6960956" lon="10.6073204"><ele>57.0</ele><time>2026-04-04T11:21:35.993Z</time></trkpt><trkpt lat="44.6960731" lon="10.6071454"><ele>57.0</ele><time>2026-04-04T11:21:36.993Z</time></trkpt><trkpt lat="44.6960451" lon="10.6069675"><ele>57.0</ele><time>2026-04-04T11:21:37.994Z</time></trkpt><trkpt lat="44.6960249" lon="10.6067991"><ele>57.2</ele><time>2026-04-04T11:21:38.994Z</time></trkpt><trkpt lat="44.6960062" lon="10.6066409"><ele>57.400000000000006</ele><time>2026-04-04T11:21:39.993Z</time></trkpt><trkpt lat="44.695988" lon="10.6064868"><ele>57.599999999999994</ele><time>2026-04-04T11:21:40.993Z</time></trkpt><trkpt lat="44.6959764" lon="10.606338"><ele>57.8</ele><time>2026-04-04T11:21:41.993Z</time></trkpt><trkpt lat="44.6959638" lon="10.6062068"><ele>58.0</ele><time>2026-04-04T11:21:42.993Z</time></trkpt><trkpt lat="44.695964" lon="10.6060889"><ele>57.99999999999999</ele><time>2026-04-04T11:21:43.994Z</time></trkpt><trkpt lat="44.6959759" lon="10.6059832"><ele>58.0</ele><time>2026-04-04T11:21:44.993Z</time></trkpt><trkpt lat="44.6960013" lon="10.6058787"><ele>58.0</ele><time>2026-04-04T11:21:45.993Z</time></trkpt><trkpt lat="44.6960173" lon="10.6057696"><ele>58.0</ele><time>2026-04-04T11:21:46.993Z</time></trkpt><trkpt lat="44.6960174" lon="10.6056636"><ele>57.99999999999999</ele><time>2026-04-04T11:21:47.994Z</time></trkpt><trkpt lat="44.6959795" lon="10.6055634"><ele>58.0</ele><time>2026-04-04T11:21:48.994Z</time></trkpt><trkpt lat="44.6959237" lon="10.6054546"><ele>57.599999999999994</ele><time>2026-04-04T11:21:49.993Z</time></trkpt><trkpt lat="44.6958602" lon="10.6053284"><ele>57.199999999999996</ele><time>2026-04-04T11:21:50.993Z</time></trkpt><trkpt lat="44.6958133" lon="10.6051848"><ele>56.8</ele><time>2026-04-04T11:21:51.993Z</time></trkpt><trkpt lat="44.6957806" lon="10.6050384"><ele>56.4</ele><time>2026-04-04T11:21:52.993Z</time></trkpt><trkpt lat="44.6957457" lon="10.6048919"><ele>56.0</ele><time>2026-04-04T11:21:53.994Z</time></trkpt><trkpt lat="44.6957118" lon="10.6047365"><ele>56.0</ele><time>2026-04-04T11:21:54.993Z</time></trkpt><trkpt lat="44.6956814" lon="10.6045663"><ele>56.0</ele><time>2026-04-04T11:21:55.993Z</time></trkpt><trkpt lat="44.6956472" lon="10.604393"><ele>56.0</ele><time>2026-04-04T11:21:56.993Z</time></trkpt><trkpt lat="44.6956161" lon="10.6042075"><ele>56.0</ele><time>2026-04-04T11:21:57.994Z</time></trkpt><trkpt lat="44.6955912" lon="10.6040164"><ele>56.5</ele><time>2026-04-04T11:21:58.994Z</time></trkpt><trkpt lat="44.6955641" lon="10.6038305"><ele>57.0</ele><time>2026-04-04T11:21:59.993Z</time></trkpt><trkpt lat="44.695539" lon="10.6036382"><ele>57.5</ele><time>2026-04-04T11:22:00.993Z</time></trkpt><trkpt lat="44.6955104" lon="10.6034437"><ele>58.0</ele><time>2026-04-04T11:22:01.994Z</time></trkpt><trkpt lat="44.6954766" lon="10.6032508"><ele>58.25</ele><time>2026-04-04T11:22:02.993Z</time></trkpt><trkpt lat="44.6954378" lon="10.6030556"><ele>58.5</ele><time>2026-04-04T11:22:03.993Z</time></trkpt><trkpt lat="44.6954004" lon="10.6028565"><ele>58.75</ele><time>2026-04-04T11:22:04.993Z</time></trkpt><trkpt lat="44.6953657" lon="10.6026538"><ele>59.0</ele><time>2026-04-04T11:22:05.993Z</time></trkpt><trkpt lat="44.6953278" lon="10.6024519"><ele>59.0</ele><time>2026-04-04T11:22:06.993Z</time></trkpt><trkpt lat="44.6952869" lon="10.6022374"><ele>59.0</ele><time>2026-04-04T11:22:07.994Z</time></trkpt><trkpt lat="44.6952487" lon="10.6020092"><ele>59.0</ele><time>2026-04-04T11:22:08.993Z</time></trkpt><trkpt lat="44.6952083" lon="10.6017483"><ele>59.0</ele><time>2026-04-04T11:22:09.993Z</time></trkpt><trkpt lat="44.6951633" lon="10.6015"><ele>59.0</ele><time>2026-04-04T11:22:10.993Z</time></trkpt><trkpt lat="44.6951183" lon="10.6012317"><ele>59.0</ele><time>2026-04-04T11:22:11.994Z</time></trkpt><trkpt lat="44.695085" lon="10.6009583"><ele>59.0</ele><time>2026-04-04T11:22:12.993Z</time></trkpt><trkpt lat="44.6950483" lon="10.600715"><ele>59.0</ele><time>2026-04-04T11:22:13.993Z</time></trkpt><trkpt lat="44.6950283" lon="10.6004683"><ele>59.0</ele><time>2026-04-04T11:22:14.993Z</time></trkpt><trkpt lat="44.6950167" lon="10.600245"><ele>59.0</ele><time>2026-04-04T11:22:15.993Z</time></trkpt><trkpt lat="44.6950283" lon="10.6000433"><ele>59.0</ele><time>2026-04-04T11:22:16.993Z</time></trkpt><trkpt lat="44.6950467" lon="10.5998533"><ele>59.0</ele><time>2026-04-04T11:22:17.993Z</time></trkpt><trkpt lat="44.6950767" lon="10.5996667"><ele>59.0</ele><time>2026-04-04T11:22:18.994Z</time></trkpt><trkpt lat="44.6951083" lon="10.59949"><ele>59.25</ele><time>2026-04-04T11:22:19.994Z</time></trkpt><trkpt lat="44.695145" lon="10.5993333"><ele>59.5</ele><time>2026-04-04T11:22:20.993Z</time></trkpt><trkpt lat="44.69518" lon="10.5991867"><ele>59.75</ele><time>2026-04-04T11:22:21.993Z</time></trkpt><trkpt lat="44.69522" lon="10.5990517"><ele>60.0</ele><time>2026-04-04T11:22:22.994Z</time></trkpt><trkpt lat="44.69527" lon="10.5988933"><ele>59.5</ele><time>2026-04-04T11:22:23.993Z</time></trkpt><trkpt lat="44.69532" lon="10.59872"><ele>59.0</ele><time>2026-04-04T11:22:24.993Z</time></trkpt><trkpt lat="44.6953617" lon="10.59852"><ele>58.5</ele><time>2026-04-04T11:22:25.994Z</time></trkpt><trkpt lat="44.6954017" lon="10.5983167"><ele>58.0</ele><time>2026-04-04T11:22:26.994Z</time></trkpt><trkpt lat="44.6954367" lon="10.5981083"><ele>58.0</ele><time>2026-04-04T11:22:27.994Z</time></trkpt><trkpt lat="44.6954667" lon="10.5978883"><ele>58.0</ele><time>2026-04-04T11:22:28.993Z</time></trkpt><trkpt lat="44.6954767" lon="10.5976867"><ele>58.0</ele><time>2026-04-04T11:22:29.993Z</time></trkpt><trkpt lat="44.69549" lon="10.59749"><ele>58.0</ele><time>2026-04-04T11:22:30.993Z</time></trkpt><trkpt lat="44.6955" lon="10.5972933"><ele>57.75</ele><time>2026-04-04T11:22:31.993Z</time></trkpt><trkpt lat="44.6955067" lon="10.5970967"><ele>57.5</ele><time>2026-04-04T11:22:32.994Z</time></trkpt><trkpt lat="44.6955217" lon="10.59689"><ele>57.25</ele><time>2026-04-04T11:22:33.993Z</time></trkpt><trkpt lat="44.695525" lon="10.5966733"><ele>57.0</ele><time>2026-04-04T11:22:34.994Z</time></trkpt><trkpt lat="44.6955183" lon="10.5964567"><ele>57.66666666666667</ele><time>2026-04-04T11:22:35.994Z</time></trkpt><trkpt lat="44.6954933" lon="10.596225"><ele>58.333333333333336</ele><time>2026-04-04T11:22:36.993Z</time></trkpt><trkpt lat="44.6954833" lon="10.5959933"><ele>59.0</ele><time>2026-04-04T11:22:37.993Z</time></trkpt><trkpt lat="44.69547" lon="10.5957833"><ele>59.25</ele><time>2026-04-04T11:22:38.994Z</time></trkpt><trkpt lat="44.69546" lon="10.5955917"><ele>59.5</ele><time>2026-04-04T11:22:39.993Z</time></trkpt><trkpt lat="44.6954583" lon="10.5954067"><ele>59.75</ele><time>2026-04-04T11:22:40.993Z</time></trkpt><trkpt lat="44.6954667" lon="10.595235"><ele>60.0</ele><time>2026-04-04T11:22:41.993Z</time></trkpt><trkpt lat="44.69546" lon="10.59506"><ele>60.0</ele><time>2026-04-04T11:22:42.993Z</time></trkpt><trkpt lat="44.6954417" lon="10.5948767"><ele>60.0</ele><time>2026-04-04T11:22:43.994Z</time></trkpt><trkpt lat="44.6954117" lon="10.59469"><ele>60.0</ele><time>2026-04-04T11:22:44.993Z</time></trkpt><trkpt lat="44.6953767" lon="10.5945"><ele>60.0</ele><time>2026-04-04T11:22:45.993Z</time></trkpt><trkpt lat="44.6953617" lon="10.5942817"><ele>59.66666666666667</ele><time>2026-04-04T11:22:46.993Z</time></trkpt><trkpt lat="44.6953383" lon="10.59406"><ele>59.333333333333336</ele><time>2026-04-04T11:22:47.994Z</time></trkpt><trkpt lat="44.6953217" lon="10.5938333"><ele>59.0</ele><time>2026-04-04T11:22:48.993Z</time></trkpt><trkpt lat="44.6953033" lon="10.5936017"><ele>60.333333333333336</ele><time>2026-04-04T11:22:49.993Z</time></trkpt><trkpt lat="44.69529" lon="10.59336"><ele>61.66666666666667</ele><time>2026-04-04T11:22:50.993Z</time></trkpt><trkpt lat="44.6952783" lon="10.5931267"><ele>63.0</ele><time>2026-04-04T11:22:51.994Z</time></trkpt><trkpt lat="44.6952667" lon="10.5928933"><ele>62.66666666666667</ele><time>2026-04-04T11:22:52.993Z</time></trkpt><trkpt lat="44.6952633" lon="10.5926617"><ele>62.333333333333336</ele><time>2026-04-04T11:22:53.993Z</time></trkpt><trkpt lat="44.6952717" lon="10.5924333"><ele>62.0</ele><time>2026-04-04T11:22:54.994Z</time></trkpt><trkpt lat="44.69528" lon="10.5921967"><ele>60.66666666666667</ele><time>2026-04-04T11:22:55.994Z</time></trkpt><trkpt lat="44.6953017" lon="10.5919417"><ele>59.33333333333333</ele><time>2026-04-04T11:22:56.993Z</time></trkpt><trkpt lat="44.695315" lon="10.591705"><ele>58.0</ele><time>2026-04-04T11:22:57.994Z</time></trkpt><trkpt lat="44.6953283" lon="10.5914617"><ele>58.0</ele><time>2026-04-04T11:22:58.994Z</time></trkpt><trkpt lat="44.695325" lon="10.5912067"><ele>58.0</ele><time>2026-04-04T11:22:59.993Z</time></trkpt><trkpt lat="44.69531" lon="10.5909567"><ele>58.0</ele><time>2026-04-04T11:23:00.993Z</time></trkpt><trkpt lat="44.6952667" lon="10.5906883"><ele>58.33333333333333</ele><time>2026-04-04T11:23:01.994Z</time></trkpt><trkpt lat="44.6952167" lon="10.5904217"><ele>58.66666666666667</ele><time>2026-04-04T11:23:02.993Z</time></trkpt><trkpt lat="44.6951567" lon="10.590165"><ele>59.0</ele><time>2026-04-04T11:23:03.994Z</time></trkpt><trkpt lat="44.6950833" lon="10.5899117"><ele>59.333333333333336</ele><time>2026-04-04T11:23:04.993Z</time></trkpt><trkpt lat="44.695" lon="10.58966"><ele>59.66666666666667</ele><time>2026-04-04T11:23:05.993Z</time></trkpt><trkpt lat="44.694935" lon="10.5894033"><ele>60.0</ele><time>2026-04-04T11:23:06.994Z</time></trkpt><trkpt lat="44.69488" lon="10.5891467"><ele>60.33333333333333</ele><time>2026-04-04T11:23:07.994Z</time></trkpt><trkpt lat="44.6948333" lon="10.5888833"><ele>60.666666666666664</ele><time>2026-04-04T11:23:08.994Z</time></trkpt><trkpt lat="44.6948033" lon="10.58862"><ele>61.0</ele><time>2026-04-04T11:23:09.994Z</time></trkpt><trkpt lat="44.694775" lon="10.5883667"><ele>60.0</ele><time>2026-04-04T11:23:10.994Z</time></trkpt><trkpt lat="44.69475" lon="10.588115"><ele>59.0</ele><time>2026-04-04T11:23:11.993Z</time></trkpt><trkpt lat="44.6947233" lon="10.5878733"><ele>58.0</ele><time>2026-04-04T11:23:12.993Z</time></trkpt><trkpt lat="44.6947033" lon="10.587645"><ele>58.33333333333333</ele><time>2026-04-04T11:23:13.993Z</time></trkpt><trkpt lat="44.6946783" lon="10.587425"><ele>58.66666666666667</ele><time>2026-04-04T11:23:14.994Z</time></trkpt><trkpt lat="44.6946583" lon="10.5871917"><ele>59.0</ele><time>2026-04-04T11:23:15.993Z</time></trkpt><trkpt lat="44.69464" lon="10.5869633"><ele>59.0</ele><time>2026-04-04T11:23:16.993Z</time></trkpt><trkpt lat="44.6946183" lon="10.5867367"><ele>59.0</ele><time>2026-04-04T11:23:17.993Z</time></trkpt><trkpt lat="44.694595" lon="10.5865133"><ele>59.0</ele><time>2026-04-04T11:23:18.993Z</time></trkpt><trkpt lat="44.6945667" lon="10.5862967"><ele>59.333333333333336</ele><time>2026-04-04T11:23:19.993Z</time></trkpt><trkpt lat="44.694545" lon="10.5860733"><ele>59.66666666666667</ele><time>2026-04-04T11:23:20.993Z</time></trkpt><trkpt lat="44.694525" lon="10.5858467"><ele>60.0</ele><time>2026-04-04T11:23:21.993Z</time></trkpt><trkpt lat="44.6945" lon="10.58562"><ele>60.0</ele><time>2026-04-04T11:23:22.994Z</time></trkpt><trkpt lat="44.6944717" lon="10.5853983"><ele>60.0</ele><time>2026-04-04T11:23:23.993Z</time></trkpt><trkpt lat="44.6944517" lon="10.5851617"><ele>60.0</ele><time>2026-04-04T11:23:24.993Z</time></trkpt><trkpt lat="44.694435" lon="10.5849233"><ele>60.0</ele><time>2026-04-04T11:23:25.994Z</time></trkpt><trkpt lat="44.69441" lon="10.5846983"><ele>60.0</ele><time>2026-04-04T11:23:26.993Z</time></trkpt><trkpt lat="44.69439" lon="10.58447"><ele>60.0</ele><time>2026-04-04T11:23:27.993Z</time></trkpt><trkpt lat="44.6943667" lon="10.5842433"><ele>60.0</ele><time>2026-04-04T11:23:28.993Z</time></trkpt><trkpt lat="44.6943417" lon="10.5840133"><ele>60.0</ele><time>2026-04-04T11:23:29.993Z</time></trkpt><trkpt lat="44.6943183" lon="10.5837733"><ele>60.0</ele><time>2026-04-04T11:23:30.993Z</time></trkpt><trkpt lat="44.6942917" lon="10.5835367"><ele>59.66666666666667</ele><time>2026-04-04T11:23:31.993Z</time></trkpt><trkpt lat="44.6942617" lon="10.58331"><ele>59.333333333333336</ele><time>2026-04-04T11:23:32.994Z</time></trkpt><trkpt lat="44.694235" lon="10.5830817"><ele>59.0</ele><time>2026-04-04T11:23:33.993Z</time></trkpt><trkpt lat="44.69421" lon="10.5828517"><ele>59.66666666666667</ele><time>2026-04-04T11:23:34.993Z</time></trkpt><trkpt lat="44.6941833" lon="10.5826217"><ele>60.33333333333333</ele><time>2026-04-04T11:23:35.993Z</time></trkpt><trkpt lat="44.6941583" lon="10.5823933"><ele>61.0</ele><time>2026-04-04T11:23:36.993Z</time></trkpt><trkpt lat="44.694135" lon="10.5821617"><ele>61.0</ele><time>2026-04-04T11:23:37.994Z</time></trkpt><trkpt lat="44.6941117" lon="10.5819333"><ele>61.0</ele><time>2026-04-04T11:23:38.994Z</time></trkpt><trkpt lat="44.6940933" lon="10.5817033"><ele>61.0</ele><time>2026-04-04T11:23:39.993Z</time></trkpt><trkpt lat="44.6940683" lon="10.5814833"><ele>61.0</ele><time>2026-04-04T11:23:40.993Z</time></trkpt><trkpt lat="44.69404" lon="10.5812767"><ele>61.0</ele><time>2026-04-04T11:23:41.993Z</time></trkpt><trkpt lat="44.6940133" lon="10.5810567"><ele>61.0</ele><time>2026-04-04T11:23:42.993Z</time></trkpt><trkpt lat="44.6939883" lon="10.5808267"><ele>60.666666666666664</ele><time>2026-04-04T11:23:43.993Z</time></trkpt><trkpt lat="44.693965" lon="10.5805933"><ele>60.33333333333333</ele><time>2026-04-04T11:23:44.993Z</time></trkpt><trkpt lat="44.6939433" lon="10.58036"><ele>60.0</ele><time>2026-04-04T11:23:45.993Z</time></trkpt><trkpt lat="44.6939233" lon="10.5801233"><ele>59.66666666666667</ele><time>2026-04-04T11:23:46.993Z</time></trkpt><trkpt lat="44.693905" lon="10.5798933"><ele>59.333333333333336</ele><time>2026-04-04T11:23:47.993Z</time></trkpt><trkpt lat="44.6938783" lon="10.5796633"><ele>59.0</ele><time>2026-04-04T11:23:48.994Z</time></trkpt><trkpt lat="44.693855" lon="10.5794383"><ele>58.66666666666667</ele><time>2026-04-04T11:23:49.994Z</time></trkpt><trkpt lat="44.6938367" lon="10.5792017"><ele>58.33333333333333</ele><time>2026-04-04T11:23:50.994Z</time></trkpt><trkpt lat="44.6938233" lon="10.5789683"><ele>58.0</ele><time>2026-04-04T11:23:51.993Z</time></trkpt><trkpt lat="44.6938183" lon="10.5787383"><ele>58.33333333333333</ele><time>2026-04-04T11:23:52.993Z</time></trkpt><trkpt lat="44.6938083" lon="10.5785033"><ele>58.66666666666667</ele><time>2026-04-04T11:23:53.994Z</time></trkpt><trkpt lat="44.6937967" lon="10.5782783"><ele>59.0</ele><time>2026-04-04T11:23:54.993Z</time></trkpt><trkpt lat="44.6937883" lon="10.5780433"><ele>59.333333333333336</ele><time>2026-04-04T11:23:55.993Z</time></trkpt><trkpt lat="44.6937783" lon="10.5778067"><ele>59.66666666666667</ele><time>2026-04-04T11:23:56.993Z</time></trkpt><trkpt lat="44.6937767" lon="10.57757"><ele>60.0</ele><time>2026-04-04T11:23:57.993Z</time></trkpt><trkpt lat="44.6937733" lon="10.5773317"><ele>60.0</ele><time>2026-04-04T11:23:58.993Z</time></trkpt><trkpt lat="44.6937683" lon="10.57709"><ele>60.0</ele><time>2026-04-04T11:23:59.993Z</time></trkpt><trkpt lat="44.6937617" lon="10.5768567"><ele>60.0</ele><time>2026-04-04T11:24:00.993Z</time></trkpt><trkpt lat="44.6937517" lon="10.5766133"><ele>60.33333333333333</ele><time>2026-04-04T11:24:01.993Z</time></trkpt><trkpt lat="44.693745" lon="10.5763817"><ele>60.666666666666664</ele><time>2026-04-04T11:24:02.993Z</time></trkpt><trkpt lat="44.69374" lon="10.576155"><ele>61.0</ele><time>2026-04-04T11:24:03.993Z</time></trkpt><trkpt lat="44.69373" lon="10.5759283"><ele>61.0</ele><time>2026-04-04T11:24:04.993Z</time></trkpt><trkpt lat="44.69372" lon="10.5756883"><ele>61.0</ele><time>2026-04-04T11:24:05.993Z</time></trkpt><trkpt lat="44.6937133" lon="10.57546"><ele>61.0</ele><time>2026-04-04T11:24:06.993Z</time></trkpt><trkpt lat="44.69371" lon="10.5752217"><ele>60.666666666666664</ele><time>2026-04-04T11:24:07.993Z</time></trkpt><trkpt lat="44.6936983" lon="10.5749917"><ele>60.33333333333333</ele><time>2026-04-04T11:24:08.993Z</time></trkpt><trkpt lat="44.6936883" lon="10.57476"><ele>60.0</ele><time>2026-04-04T11:24:09.993Z</time></trkpt><trkpt lat="44.6936767" lon="10.5745233"><ele>60.66666666666667</ele><time>2026-04-04T11:24:10.993Z</time></trkpt><trkpt lat="44.6936667" lon="10.574285"><ele>61.333333333333336</ele><time>2026-04-04T11:24:11.993Z</time></trkpt><trkpt lat="44.69364" lon="10.57406"><ele>62.0</ele><time>2026-04-04T11:24:12.993Z</time></trkpt><trkpt lat="44.693615" lon="10.5738283"><ele>61.66666666666667</ele><time>2026-04-04T11:24:13.994Z</time></trkpt><trkpt lat="44.6935867" lon="10.5736033"><ele>61.33333333333333</ele><time>2026-04-04T11:24:14.993Z</time></trkpt><trkpt lat="44.6935583" lon="10.573375"><ele>61.0</ele><time>2026-04-04T11:24:15.993Z</time></trkpt><trkpt lat="44.6935317" lon="10.5731417"><ele>61.0</ele><time>2026-04-04T11:24:16.994Z</time></trkpt><trkpt lat="44.6935017" lon="10.5729133"><ele>61.0</ele><time>2026-04-04T11:24:17.993Z</time></trkpt><trkpt lat="44.6934717" lon="10.5726817"><ele>61.0</ele><time>2026-04-04T11:24:18.993Z</time></trkpt><trkpt lat="44.6934433" lon="10.57245"><ele>62.0</ele><time>2026-04-04T11:24:19.993Z</time></trkpt><trkpt lat="44.69341" lon="10.5722233"><ele>63.0</ele><time>2026-04-04T11:24:20.993Z</time></trkpt><trkpt lat="44.6933783" lon="10.5719883"><ele>64.0</ele><time>2026-04-04T11:24:21.994Z</time></trkpt><trkpt lat="44.6933467" lon="10.5717533"><ele>64.66666666666666</ele><time>2026-04-04T11:24:22.993Z</time></trkpt><trkpt lat="44.6933133" lon="10.57153"><ele>65.33333333333333</ele><time>2026-04-04T11:24:23.993Z</time></trkpt><trkpt lat="44.6932883" lon="10.5713067"><ele>66.0</ele><time>2026-04-04T11:24:24.993Z</time></trkpt><trkpt lat="44.6932617" lon="10.5710683"><ele>66.0</ele><time>2026-04-04T11:24:25.994Z</time></trkpt><trkpt lat="44.6932333" lon="10.57084"><ele>66.0</ele><time>2026-04-04T11:24:26.993Z</time></trkpt><trkpt lat="44.6932067" lon="10.5706133"><ele>66.0</ele><time>2026-04-04T11:24:27.993Z</time></trkpt><trkpt lat="44.693175" lon="10.5703717"><ele>65.66666666666667</ele><time>2026-04-04T11:24:28.993Z</time></trkpt><trkpt lat="44.6931417" lon="10.570135"><ele>65.33333333333334</ele><time>2026-04-04T11:24:29.993Z</time></trkpt><trkpt lat="44.6931033" lon="10.569905"><ele>65.0</ele><time>2026-04-04T11:24:30.993Z</time></trkpt><trkpt lat="44.693075" lon="10.56967"><ele>64.33333333333334</ele><time>2026-04-04T11:24:31.993Z</time></trkpt><trkpt lat="44.6930417" lon="10.56944"><ele>63.66666666666667</ele><time>2026-04-04T11:24:32.993Z</time></trkpt><trkpt lat="44.69301" lon="10.5692167"><ele>63.0</ele><time>2026-04-04T11:24:33.994Z</time></trkpt><trkpt lat="44.6929767" lon="10.5689867"><ele>63.0</ele><time>2026-04-04T11:24:34.993Z</time></trkpt><trkpt lat="44.6929567" lon="10.5687467"><ele>63.0</ele><time>2026-04-04T11:24:35.993Z</time></trkpt><trkpt lat="44.69292" lon="10.5685017"><ele>63.0</ele><time>2026-04-04T11:24:36.993Z</time></trkpt><trkpt lat="44.6928817" lon="10.5682683"><ele>62.66666666666667</ele><time>2026-04-04T11:24:37.993Z</time></trkpt><trkpt lat="44.6928383" lon="10.56803"><ele>62.333333333333336</ele><time>2026-04-04T11:24:38.993Z</time></trkpt><trkpt lat="44.6928033" lon="10.5677683"><ele>62.0</ele><time>2026-04-04T11:24:39.993Z</time></trkpt><trkpt lat="44.6927567" lon="10.5675133"><ele>61.66666666666667</ele><time>2026-04-04T11:24:40.993Z</time></trkpt><trkpt lat="44.6927167" lon="10.5672383"><ele>61.33333333333333</ele><time>2026-04-04T11:24:41.993Z</time></trkpt><trkpt lat="44.69267" lon="10.5669683"><ele>61.0</ele><time>2026-04-04T11:24:42.994Z</time></trkpt><trkpt lat="44.6926167" lon="10.56671"><ele>61.0</ele><time>2026-04-04T11:24:43.993Z</time></trkpt><trkpt lat="44.6925633" lon="10.5664383"><ele>61.0</ele><time>2026-04-04T11:24:44.993Z</time></trkpt><trkpt lat="44.6925083" lon="10.5661567"><ele>61.0</ele><time>2026-04-04T11:24:45.993Z</time></trkpt><trkpt lat="44.6924533" lon="10.56586"><ele>61.0</ele><time>2026-04-04T11:24:46.994Z</time></trkpt><trkpt lat="44.6923983" lon="10.5655767"><ele>61.0</ele><time>2026-04-04T11:24:47.993Z</time></trkpt><trkpt lat="44.69233" lon="10.56529"><ele>61.0</ele><time>2026-04-04T11:24:48.993Z</time></trkpt><trkpt lat="44.6922733" lon="10.5650083"><ele>60.666666666666664</ele><time>2026-04-04T11:24:49.993Z</time></trkpt><trkpt lat="44.6922033" lon="10.5647383"><ele>60.33333333333333</ele><time>2026-04-04T11:24:50.993Z</time></trkpt><trkpt lat="44.6921383" lon="10.56448"><ele>60.0</ele><time>2026-04-04T11:24:51.993Z</time></trkpt><trkpt lat="44.69207" lon="10.5642183"><ele>60.66666666666667</ele><time>2026-04-04T11:24:52.994Z</time></trkpt><trkpt lat="44.6920067" lon="10.563965"><ele>61.333333333333336</ele><time>2026-04-04T11:24:53.993Z</time></trkpt><trkpt lat="44.691935" lon="10.5637383"><ele>62.0</ele><time>2026-04-04T11:24:54.993Z</time></trkpt><trkpt lat="44.69188" lon="10.563505"><ele>63.333333333333336</ele><time>2026-04-04T11:24:55.993Z</time></trkpt><trkpt lat="44.691815" lon="10.563285"><ele>64.66666666666667</ele><time>2026-04-04T11:24:56.993Z</time></trkpt><trkpt lat="44.6917533" lon="10.5630717"><ele>66.0</ele><time>2026-04-04T11:24:57.993Z</time></trkpt><trkpt lat="44.6917" lon="10.56287"><ele>66.0</ele><time>2026-04-04T11:24:58.993Z</time></trkpt><trkpt lat="44.6916517" lon="10.5626783"><ele>66.0</ele><time>2026-04-04T11:24:59.993Z</time></trkpt><trkpt lat="44.69161" lon="10.56248"><ele>66.0</ele><time>2026-04-04T11:25:00.993Z</time></trkpt><trkpt lat="44.6915667" lon="10.5623"><ele>66.0</ele><time>2026-04-04T11:25:01.993Z</time></trkpt><trkpt lat="44.691525" lon="10.5621283"><ele>65.0</ele><time>2026-04-04T11:25:02.994Z</time></trkpt><trkpt lat="44.6914817" lon="10.5619567"><ele>64.0</ele><time>2026-04-04T11:25:03.993Z</time></trkpt><trkpt lat="44.6914367" lon="10.5617883"><ele>63.0</ele><time>2026-04-04T11:25:04.993Z</time></trkpt><trkpt lat="44.6913983" lon="10.561615"><ele>62.0</ele><time>2026-04-04T11:25:05.993Z</time></trkpt><trkpt lat="44.6913733" lon="10.56143"><ele>62.0</ele><time>2026-04-04T11:25:06.993Z</time></trkpt><trkpt lat="44.691335" lon="10.5612467"><ele>62.0</ele><time>2026-04-04T11:25:07.993Z</time></trkpt><trkpt lat="44.6913133" lon="10.56107"><ele>62.0</ele><time>2026-04-04T11:25:08.993Z</time></trkpt><trkpt lat="44.69129" lon="10.560905"><ele>62.0</ele><time>2026-04-04T11:25:09.993Z</time></trkpt><trkpt lat="44.6912617" lon="10.5607217"><ele>61.333333333333336</ele><time>2026-04-04T11:25:10.994Z</time></trkpt><trkpt lat="44.6912283" lon="10.560515"><ele>60.66666666666667</ele><time>2026-04-04T11:25:11.993Z</time></trkpt><trkpt lat="44.6911983" lon="10.5602733"><ele>60.0</ele><time>2026-04-04T11:25:12.994Z</time></trkpt><trkpt lat="44.6911717" lon="10.5600333"><ele>60.0</ele><time>2026-04-04T11:25:13.993Z</time></trkpt><trkpt lat="44.6911433" lon="10.5597783"><ele>60.0</ele><time>2026-04-04T11:25:14.994Z</time></trkpt><trkpt lat="44.691125" lon="10.5595083"><ele>60.0</ele><time>2026-04-04T11:25:15.994Z</time></trkpt><trkpt lat="44.691115" lon="10.55924"><ele>61.66666666666667</ele><time>2026-04-04T11:25:16.993Z</time></trkpt><trkpt lat="44.6911167" lon="10.558955"><ele>63.333333333333336</ele><time>2026-04-04T11:25:17.993Z</time></trkpt><trkpt lat="44.691115" lon="10.5586867"><ele>65.0</ele><time>2026-04-04T11:25:18.993Z</time></trkpt><trkpt lat="44.6911133" lon="10.5584267"><ele>65.33333333333334</ele><time>2026-04-04T11:25:19.993Z</time></trkpt><trkpt lat="44.6911067" lon="10.5581783"><ele>65.66666666666667</ele><time>2026-04-04T11:25:20.994Z</time></trkpt><trkpt lat="44.6911017" lon="10.557935"><ele>66.0</ele><time>2026-04-04T11:25:21.993Z</time></trkpt><trkpt lat="44.6910983" lon="10.5576883"><ele>64.33333333333333</ele><time>2026-04-04T11:25:22.993Z</time></trkpt><trkpt lat="44.6910967" lon="10.5574533"><ele>62.666666666666664</ele><time>2026-04-04T11:25:23.994Z</time></trkpt><trkpt lat="44.6910983" lon="10.5572233"><ele>61.0</ele><time>2026-04-04T11:25:24.993Z</time></trkpt><trkpt lat="44.69109" lon="10.5569967"><ele>61.0</ele><time>2026-04-04T11:25:25.994Z</time></trkpt><trkpt lat="44.6910767" lon="10.556785"><ele>61.0</ele><time>2026-04-04T11:25:26.993Z</time></trkpt><trkpt lat="44.6910667" lon="10.5565667"><ele>61.0</ele><time>2026-04-04T11:25:27.994Z</time></trkpt><trkpt lat="44.6910583" lon="10.5563583"><ele>60.75</ele><time>2026-04-04T11:25:28.993Z</time></trkpt><trkpt lat="44.6910433" lon="10.556155"><ele>60.5</ele><time>2026-04-04T11:25:29.994Z</time></trkpt><trkpt lat="44.6910283" lon="10.55597"><ele>60.25</ele><time>2026-04-04T11:25:30.994Z</time></trkpt><trkpt lat="44.6910117" lon="10.555795"><ele>60.0</ele><time>2026-04-04T11:25:31.994Z</time></trkpt><trkpt lat="44.691" lon="10.55563"><ele>60.0</ele><time>2026-04-04T11:25:32.993Z</time></trkpt><trkpt lat="44.69099" lon="10.5554767"><ele>60.0</ele><time>2026-04-04T11:25:33.993Z</time></trkpt><trkpt lat="44.69098" lon="10.5553267"><ele>60.0</ele><time>2026-04-04T11:25:34.994Z</time></trkpt><trkpt lat="44.690975" lon="10.5552117"><ele>60.0</ele><time>2026-04-04T11:25:35.993Z</time></trkpt><trkpt lat="44.69097" lon="10.5551217"><ele>60.0</ele><time>2026-04-04T11:25:36.993Z</time></trkpt><trkpt lat="44.690995" lon="10.554945"><ele>59.833333333333336</ele><time>2026-04-04T11:25:38.994Z</time></trkpt><trkpt lat="44.6910367" lon="10.5547817"><ele>59.66666666666667</ele><time>2026-04-04T11:25:40.993Z</time></trkpt><trkpt lat="44.6910267" lon="10.554685"><ele>59.5</ele><time>2026-04-04T11:25:41.993Z</time></trkpt><trkpt lat="44.690985" lon="10.554605"><ele>59.333333333333336</ele><time>2026-04-04T11:25:42.993Z</time></trkpt><trkpt lat="44.6909217" lon="10.55456"><ele>59.16666666666667</ele><time>2026-04-04T11:25:43.993Z</time></trkpt><trkpt lat="44.690825" lon="10.554545"><ele>59.0</ele><time>2026-04-04T11:25:44.994Z</time></trkpt><trkpt lat="44.6907167" lon="10.554535"><ele>59.0</ele><time>2026-04-04T11:25:45.994Z</time></trkpt><trkpt lat="44.6905833" lon="10.554495"><ele>59.0</ele><time>2026-04-04T11:25:46.993Z</time></trkpt><trkpt lat="44.6904333" lon="10.5544367"><ele>59.0</ele><time>2026-04-04T11:25:47.993Z</time></trkpt><trkpt lat="44.6902783" lon="10.5543517"><ele>59.333333333333336</ele><time>2026-04-04T11:25:48.993Z</time></trkpt><trkpt lat="44.6901183" lon="10.55427"><ele>59.66666666666667</ele><time>2026-04-04T11:25:49.993Z</time></trkpt><trkpt lat="44.689965" lon="10.5541667"><ele>60.0</ele><time>2026-04-04T11:25:50.993Z</time></trkpt><trkpt lat="44.6897983" lon="10.55408"><ele>60.0</ele><time>2026-04-04T11:25:51.993Z</time></trkpt><trkpt lat="44.6896383" lon="10.5539883"><ele>60.0</ele><time>2026-04-04T11:25:52.993Z</time></trkpt><trkpt lat="44.689485" lon="10.5538933"><ele>60.0</ele><time>2026-04-04T11:25:53.993Z</time></trkpt><trkpt lat="44.6893383" lon="10.5538133"><ele>60.66666666666667</ele><time>2026-04-04T11:25:54.994Z</time></trkpt><trkpt lat="44.689195" lon="10.5537333"><ele>61.333333333333336</ele><time>2026-04-04T11:25:55.993Z</time></trkpt><trkpt lat="44.6890483" lon="10.5536533"><ele>62.0</ele><time>2026-04-04T11:25:56.993Z</time></trkpt><trkpt lat="44.6889167" lon="10.5535717"><ele>62.333333333333336</ele><time>2026-04-04T11:25:57.994Z</time></trkpt><trkpt lat="44.6887717" lon="10.5534917"><ele>62.66666666666667</ele><time>2026-04-04T11:25:58.993Z</time></trkpt><trkpt lat="44.6886217" lon="10.5534067"><ele>63.0</ele><time>2026-04-04T11:25:59.993Z</time></trkpt><trkpt lat="44.6884733" lon="10.5533167"><ele>63.0</ele><time>2026-04-04T11:26:00.993Z</time></trkpt><trkpt lat="44.6883367" lon="10.55323"><ele>63.0</ele><time>2026-04-04T11:26:01.993Z</time></trkpt><trkpt lat="44.6882217" lon="10.5531517"><ele>63.0</ele><time>2026-04-04T11:26:02.993Z</time></trkpt><trkpt lat="44.6881167" lon="10.5530917"><ele>63.0</ele><time>2026-04-04T11:26:03.993Z</time></trkpt><trkpt lat="44.6880317" lon="10.553015"><ele>63.0</ele><time>2026-04-04T11:26:04.993Z</time></trkpt><trkpt lat="44.6879683" lon="10.5529267"><ele>63.0</ele><time>2026-04-04T11:26:05.993Z</time></trkpt><trkpt lat="44.6879267" lon="10.5528033"><ele>63.0</ele><time>2026-04-04T11:26:06.993Z</time></trkpt><trkpt lat="44.6879217" lon="10.55265"><ele>63.0</ele><time>2026-04-04T11:26:07.994Z</time></trkpt><trkpt lat="44.6879583" lon="10.5524717"><ele>63.0</ele><time>2026-04-04T11:26:08.994Z</time></trkpt><trkpt lat="44.688015" lon="10.5522517"><ele>63.33333333333333</ele><time>2026-04-04T11:26:09.993Z</time></trkpt><trkpt lat="44.6880667" lon="10.5520233"><ele>63.666666666666664</ele><time>2026-04-04T11:26:10.993Z</time></trkpt><trkpt lat="44.6881233" lon="10.5517933"><ele>64.0</ele><time>2026-04-04T11:26:11.994Z</time></trkpt><trkpt lat="44.688155" lon="10.5515483"><ele>64.0</ele><time>2026-04-04T11:26:12.994Z</time></trkpt><trkpt lat="44.6881883" lon="10.551305"><ele>64.0</ele><time>2026-04-04T11:26:13.994Z</time></trkpt><trkpt lat="44.6882333" lon="10.5510767"><ele>64.0</ele><time>2026-04-04T11:26:14.993Z</time></trkpt><trkpt lat="44.6883067" lon="10.5508633"><ele>63.666666666666664</ele><time>2026-04-04T11:26:15.993Z</time></trkpt><trkpt lat="44.6883967" lon="10.5506567"><ele>63.33333333333333</ele><time>2026-04-04T11:26:16.993Z</time></trkpt><trkpt lat="44.6885017" lon="10.5504533"><ele>63.0</ele><time>2026-04-04T11:26:17.993Z</time></trkpt><trkpt lat="44.6886133" lon="10.5502333"><ele>64.66666666666667</ele><time>2026-04-04T11:26:18.994Z</time></trkpt><trkpt lat="44.6887267" lon="10.5500067"><ele>66.33333333333334</ele><time>2026-04-04T11:26:19.994Z</time></trkpt><trkpt lat="44.688835" lon="10.549765"><ele>68.0</ele><time>2026-04-04T11:26:20.993Z</time></trkpt><trkpt lat="44.6889317" lon="10.5495117"><ele>69.0</ele><time>2026-04-04T11:26:21.993Z</time></trkpt><trkpt lat="44.6890133" lon="10.5492417"><ele>70.0</ele><time>2026-04-04T11:26:22.993Z</time></trkpt><trkpt lat="44.689075" lon="10.5489767"><ele>71.0</ele><time>2026-04-04T11:26:23.993Z</time></trkpt><trkpt lat="44.6891333" lon="10.5487317"><ele>71.66666666666667</ele><time>2026-04-04T11:26:24.993Z</time></trkpt><trkpt lat="44.6891833" lon="10.5485083"><ele>72.33333333333333</ele><time>2026-04-04T11:26:25.994Z</time></trkpt><trkpt lat="44.6892367" lon="10.5483067"><ele>73.0</ele><time>2026-04-04T11:26:26.994Z</time></trkpt><trkpt lat="44.6892733" lon="10.5481217"><ele>73.0</ele><time>2026-04-04T11:26:27.993Z</time></trkpt><trkpt lat="44.6893033" lon="10.5479567"><ele>73.0</ele><time>2026-04-04T11:26:28.993Z</time></trkpt><trkpt lat="44.6893267" lon="10.54781"><ele>73.0</ele><time>2026-04-04T11:26:29.993Z</time></trkpt><trkpt lat="44.689305" lon="10.5476533"><ele>73.0</ele><time>2026-04-04T11:26:30.994Z</time></trkpt><trkpt lat="44.689235" lon="10.5475067"><ele>74.66666666666666</ele><time>2026-04-04T11:26:31.994Z</time></trkpt><trkpt lat="44.6891133" lon="10.5473667"><ele>76.33333333333333</ele><time>2026-04-04T11:26:32.993Z</time></trkpt><trkpt lat="44.6889783" lon="10.547215"><ele>78.0</ele><time>2026-04-04T11:26:33.994Z</time></trkpt><trkpt lat="44.688835" lon="10.5470567"><ele>79.0</ele><time>2026-04-04T11:26:34.993Z</time></trkpt><trkpt lat="44.68869" lon="10.5468983"><ele>80.0</ele><time>2026-04-04T11:26:35.993Z</time></trkpt><trkpt lat="44.68853" lon="10.54675"><ele>81.0</ele><time>2026-04-04T11:26:36.993Z</time></trkpt><trkpt lat="44.6883917" lon="10.5465733"><ele>81.0</ele><time>2026-04-04T11:26:37.994Z</time></trkpt><trkpt lat="44.6882417" lon="10.5464"><ele>81.0</ele><time>2026-04-04T11:26:38.993Z</time></trkpt><trkpt lat="44.68809" lon="10.546225"><ele>81.0</ele><time>2026-04-04T11:26:39.993Z</time></trkpt><trkpt lat="44.68795" lon="10.546045"><ele>81.66666666666667</ele><time>2026-04-04T11:26:40.993Z</time></trkpt><trkpt lat="44.687815" lon="10.5458583"><ele>82.33333333333334</ele><time>2026-04-04T11:26:41.993Z</time></trkpt><trkpt lat="44.687675" lon="10.545665"><ele>83.0</ele><time>2026-04-04T11:26:42.994Z</time></trkpt><trkpt lat="44.6875433" lon="10.54546"><ele>84.33333333333334</ele><time>2026-04-04T11:26:43.993Z</time></trkpt><trkpt lat="44.6874133" lon="10.5452483"><ele>85.66666666666667</ele><time>2026-04-04T11:26:44.994Z</time></trkpt><trkpt lat="44.6873" lon="10.5450067"><ele>87.0</ele><time>2026-04-04T11:26:45.994Z</time></trkpt><trkpt lat="44.6872083" lon="10.5447217"><ele>87.33333333333333</ele><time>2026-04-04T11:26:46.993Z</time></trkpt><trkpt lat="44.6871083" lon="10.5444467"><ele>87.66666666666666</ele><time>2026-04-04T11:26:47.993Z</time></trkpt><trkpt lat="44.6870167" lon="10.5441633"><ele>88.0</ele><time>2026-04-04T11:26:48.994Z</time></trkpt><trkpt lat="44.686915" lon="10.543885"><ele>88.66666666666666</ele><time>2026-04-04T11:26:49.993Z</time></trkpt><trkpt lat="44.686815" lon="10.5436033"><ele>89.33333333333333</ele><time>2026-04-04T11:26:50.993Z</time></trkpt><trkpt lat="44.6867167" lon="10.5433183"><ele>90.0</ele><time>2026-04-04T11:26:51.993Z</time></trkpt><trkpt lat="44.686625" lon="10.54303"><ele>90.33333333333333</ele><time>2026-04-04T11:26:52.993Z</time></trkpt><trkpt lat="44.6865333" lon="10.54275"><ele>90.66666666666666</ele><time>2026-04-04T11:26:53.994Z</time></trkpt><trkpt lat="44.6864367" lon="10.5424683"><ele>91.0</ele><time>2026-04-04T11:26:54.993Z</time></trkpt><trkpt lat="44.6863383" lon="10.542185"><ele>91.33333333333333</ele><time>2026-04-04T11:26:55.993Z</time></trkpt><trkpt lat="44.6862317" lon="10.5419117"><ele>91.66666666666667</ele><time>2026-04-04T11:26:56.993Z</time></trkpt><trkpt lat="44.6861217" lon="10.5416533"><ele>92.0</ele><time>2026-04-04T11:26:57.993Z</time></trkpt><trkpt lat="44.6860017" lon="10.541405"><ele>94.0</ele><time>2026-04-04T11:26:58.993Z</time></trkpt><trkpt lat="44.68588" lon="10.54116"><ele>96.0</ele><time>2026-04-04T11:26:59.993Z</time></trkpt><trkpt lat="44.6857583" lon="10.54092"><ele>98.0</ele><time>2026-04-04T11:27:00.994Z</time></trkpt><trkpt lat="44.6856283" lon="10.5406817"><ele>98.0</ele><time>2026-04-04T11:27:01.993Z</time></trkpt><trkpt lat="44.685475" lon="10.5404483"><ele>98.0</ele><time>2026-04-04T11:27:02.994Z</time></trkpt><trkpt lat="44.685305" lon="10.5402567"><ele>98.0</ele><time>2026-04-04T11:27:03.994Z</time></trkpt><trkpt lat="44.6851417" lon="10.5400617"><ele>98.33333333333333</ele><time>2026-04-04T11:27:04.993Z</time></trkpt><trkpt lat="44.6849583" lon="10.5398733"><ele>98.66666666666666</ele><time>2026-04-04T11:27:05.993Z</time></trkpt><trkpt lat="44.6847867" lon="10.539695"><ele>99.0</ele><time>2026-04-04T11:27:06.994Z</time></trkpt><trkpt lat="44.68461" lon="10.539525"><ele>99.0</ele><time>2026-04-04T11:27:07.994Z</time></trkpt><trkpt lat="44.6844333" lon="10.539355"><ele>99.0</ele><time>2026-04-04T11:27:08.994Z</time></trkpt><trkpt lat="44.6842633" lon="10.5391783"><ele>99.0</ele><time>2026-04-04T11:27:09.993Z</time></trkpt><trkpt lat="44.6841083" lon="10.5389983"><ele>100.0</ele><time>2026-04-04T11:27:10.993Z</time></trkpt><trkpt lat="44.6839567" lon="10.5388283"><ele>101.0</ele><time>2026-04-04T11:27:11.993Z</time></trkpt><trkpt lat="44.6838133" lon="10.5386683"><ele>102.0</ele><time>2026-04-04T11:27:12.993Z</time></trkpt><trkpt lat="44.6836817" lon="10.5385133"><ele>102.66666666666666</ele><time>2026-04-04T11:27:13.994Z</time></trkpt><trkpt lat="44.6835567" lon="10.5383617"><ele>103.33333333333333</ele><time>2026-04-04T11:27:14.993Z</time></trkpt><trkpt lat="44.6834433" lon="10.538225"><ele>104.0</ele><time>2026-04-04T11:27:15.994Z</time></trkpt><trkpt lat="44.6833417" lon="10.5380983"><ele>104.0</ele><time>2026-04-04T11:27:16.993Z</time></trkpt><trkpt lat="44.6832567" lon="10.53797"><ele>104.0</ele><time>2026-04-04T11:27:17.994Z</time></trkpt><trkpt lat="44.6831833" lon="10.537845"><ele>104.0</ele><time>2026-04-04T11:27:18.993Z</time></trkpt><trkpt lat="44.6831383" lon="10.5376867"><ele>104.0</ele><time>2026-04-04T11:27:19.993Z</time></trkpt><trkpt lat="44.6831433" lon="10.5375317"><ele>104.66666666666666</ele><time>2026-04-04T11:27:20.993Z</time></trkpt><trkpt lat="44.6832083" lon="10.5373583"><ele>105.33333333333334</ele><time>2026-04-04T11:27:21.993Z</time></trkpt><trkpt lat="44.683325" lon="10.5371867"><ele>106.0</ele><time>2026-04-04T11:27:22.993Z</time></trkpt><trkpt lat="44.6834617" lon="10.5370133"><ele>106.0</ele><time>2026-04-04T11:27:23.993Z</time></trkpt><trkpt lat="44.6835833" lon="10.5368317"><ele>106.0</ele><time>2026-04-04T11:27:24.993Z</time></trkpt><trkpt lat="44.6837183" lon="10.53667"><ele>106.0</ele><time>2026-04-04T11:27:25.993Z</time></trkpt><trkpt lat="44.6838667" lon="10.5365467"><ele>105.5</ele><time>2026-04-04T11:27:26.994Z</time></trkpt><trkpt lat="44.6840083" lon="10.5364567"><ele>105.0</ele><time>2026-04-04T11:27:27.994Z</time></trkpt><trkpt lat="44.6841283" lon="10.5363533"><ele>104.5</ele><time>2026-04-04T11:27:28.993Z</time></trkpt><trkpt lat="44.6842433" lon="10.5362283"><ele>104.0</ele><time>2026-04-04T11:27:29.994Z</time></trkpt><trkpt lat="44.6843167" lon="10.5360733"><ele>104.0</ele><time>2026-04-04T11:27:30.993Z</time></trkpt><trkpt lat="44.6843483" lon="10.5359"><ele>104.0</ele><time>2026-04-04T11:27:31.993Z</time></trkpt><trkpt lat="44.684315" lon="10.5357167"><ele>104.0</ele><time>2026-04-04T11:27:32.994Z</time></trkpt><trkpt lat="44.684265" lon="10.535515"><ele>104.0</ele><time>2026-04-04T11:27:33.993Z</time></trkpt><trkpt lat="44.6841867" lon="10.5353067"><ele>104.66666666666666</ele><time>2026-04-04T11:27:34.993Z</time></trkpt><trkpt lat="44.6840917" lon="10.535075"><ele>105.33333333333334</ele><time>2026-04-04T11:27:35.993Z</time></trkpt><trkpt lat="44.6839917" lon="10.5348533"><ele>106.0</ele><time>2026-04-04T11:27:36.993Z</time></trkpt><trkpt lat="44.6839017" lon="10.53462"><ele>105.66666666666667</ele><time>2026-04-04T11:27:37.993Z</time></trkpt><trkpt lat="44.6838133" lon="10.53439"><ele>105.33333333333334</ele><time>2026-04-04T11:27:38.994Z</time></trkpt><trkpt lat="44.6837217" lon="10.5341333"><ele>105.0</ele><time>2026-04-04T11:27:39.993Z</time></trkpt><trkpt lat="44.6836633" lon="10.5338617"><ele>105.33333333333334</ele><time>2026-04-04T11:27:40.993Z</time></trkpt><trkpt lat="44.6836333" lon="10.53358"><ele>105.66666666666667</ele><time>2026-04-04T11:27:41.993Z</time></trkpt><trkpt lat="44.6836233" lon="10.53329"><ele>106.0</ele><time>2026-04-04T11:27:42.993Z</time></trkpt><trkpt lat="44.68361" lon="10.533015"><ele>107.33333333333334</ele><time>2026-04-04T11:27:43.993Z</time></trkpt><trkpt lat="44.6835883" lon="10.5327467"><ele>108.66666666666666</ele><time>2026-04-04T11:27:44.994Z</time></trkpt><trkpt lat="44.6835267" lon="10.5324983"><ele>110.0</ele><time>2026-04-04T11:27:45.993Z</time></trkpt><trkpt lat="44.6834483" lon="10.5322633"><ele>109.33333333333333</ele><time>2026-04-04T11:27:46.993Z</time></trkpt><trkpt lat="44.6833233" lon="10.5320333"><ele>108.66666666666666</ele><time>2026-04-04T11:27:47.993Z</time></trkpt><trkpt lat="44.6831717" lon="10.5318167"><ele>108.0</ele><time>2026-04-04T11:27:48.993Z</time></trkpt><trkpt lat="44.6830133" lon="10.531605"><ele>108.0</ele><time>2026-04-04T11:27:49.993Z</time></trkpt><trkpt lat="44.6828667" lon="10.5313833"><ele>108.0</ele><time>2026-04-04T11:27:50.993Z</time></trkpt><trkpt lat="44.68272" lon="10.531155"><ele>108.0</ele><time>2026-04-04T11:27:51.993Z</time></trkpt><trkpt lat="44.6825817" lon="10.5309217"><ele>109.0</ele><time>2026-04-04T11:27:52.993Z</time></trkpt><trkpt lat="44.68245" lon="10.5306717"><ele>110.0</ele><time>2026-04-04T11:27:53.993Z</time></trkpt><trkpt lat="44.6823283" lon="10.5304217"><ele>111.0</ele><time>2026-04-04T11:27:54.993Z</time></trkpt><trkpt lat="44.6822133" lon="10.5301783"><ele>111.66666666666666</ele><time>2026-04-04T11:27:55.993Z</time></trkpt><trkpt lat="44.6821017" lon="10.5299333"><ele>112.33333333333333</ele><time>2026-04-04T11:27:56.993Z</time></trkpt><trkpt lat="44.6819833" lon="10.5296917"><ele>113.0</ele><time>2026-04-04T11:27:57.993Z</time></trkpt><trkpt lat="44.681865" lon="10.5294383"><ele>113.66666666666666</ele><time>2026-04-04T11:27:58.994Z</time></trkpt><trkpt lat="44.6817483" lon="10.52918"><ele>114.33333333333334</ele><time>2026-04-04T11:27:59.993Z</time></trkpt><trkpt lat="44.6816317" lon="10.5289167"><ele>115.0</ele><time>2026-04-04T11:28:00.993Z</time></trkpt><trkpt lat="44.6815117" lon="10.528665"><ele>115.0</ele><time>2026-04-04T11:28:01.993Z</time></trkpt><trkpt lat="44.68139" lon="10.5284067"><ele>115.0</ele><time>2026-04-04T11:28:02.993Z</time></trkpt><trkpt lat="44.68127" lon="10.5281417"><ele>115.0</ele><time>2026-04-04T11:28:03.994Z</time></trkpt><trkpt lat="44.6811533" lon="10.5278833"><ele>115.0</ele><time>2026-04-04T11:28:04.993Z</time></trkpt><trkpt lat="44.6810367" lon="10.52762"><ele>115.0</ele><time>2026-04-04T11:28:05.993Z</time></trkpt><trkpt lat="44.6809183" lon="10.5273483"><ele>115.0</ele><time>2026-04-04T11:28:06.993Z</time></trkpt><trkpt lat="44.6808083" lon="10.5270833"><ele>115.0</ele><time>2026-04-04T11:28:07.993Z</time></trkpt><trkpt lat="44.6806933" lon="10.5268217"><ele>115.0</ele><time>2026-04-04T11:28:08.994Z</time></trkpt><trkpt lat="44.6805733" lon="10.5265533"><ele>115.0</ele><time>2026-04-04T11:28:09.994Z</time></trkpt><trkpt lat="44.6804467" lon="10.526295"><ele>115.0</ele><time>2026-04-04T11:28:10.994Z</time></trkpt><trkpt lat="44.6803217" lon="10.5260283"><ele>115.0</ele><time>2026-04-04T11:28:11.994Z</time></trkpt><trkpt lat="44.6801967" lon="10.5257717"><ele>115.0</ele><time>2026-04-04T11:28:12.993Z</time></trkpt><trkpt lat="44.6800767" lon="10.52551"><ele>115.33333333333334</ele><time>2026-04-04T11:28:13.993Z</time></trkpt><trkpt lat="44.679955" lon="10.52524"><ele>115.66666666666666</ele><time>2026-04-04T11:28:14.993Z</time></trkpt><trkpt lat="44.6798333" lon="10.5249817"><ele>116.0</ele><time>2026-04-04T11:28:15.994Z</time></trkpt><trkpt lat="44.6797083" lon="10.5247233"><ele>116.33333333333333</ele><time>2026-04-04T11:28:16.993Z</time></trkpt><trkpt lat="44.6795817" lon="10.5244617"><ele>116.66666666666666</ele><time>2026-04-04T11:28:17.993Z</time></trkpt><trkpt lat="44.6794567" lon="10.5242"><ele>117.0</ele><time>2026-04-04T11:28:18.993Z</time></trkpt><trkpt lat="44.6793333" lon="10.5239367"><ele>117.33333333333334</ele><time>2026-04-04T11:28:19.994Z</time></trkpt><trkpt lat="44.6792083" lon="10.523675"><ele>117.66666666666667</ele><time>2026-04-04T11:28:20.994Z</time></trkpt><trkpt lat="44.67909" lon="10.5234217"><ele>118.0</ele><time>2026-04-04T11:28:21.994Z</time></trkpt><trkpt lat="44.67897" lon="10.5231733"><ele>118.0</ele><time>2026-04-04T11:28:22.993Z</time></trkpt><trkpt lat="44.6788467" lon="10.5229217"><ele>118.0</ele><time>2026-04-04T11:28:23.994Z</time></trkpt><trkpt lat="44.6787233" lon="10.5226683"><ele>118.0</ele><time>2026-04-04T11:28:24.993Z</time></trkpt><trkpt lat="44.678605" lon="10.522415"><ele>119.33333333333334</ele><time>2026-04-04T11:28:25.994Z</time></trkpt><trkpt lat="44.6784817" lon="10.5221633"><ele>120.66666666666666</ele><time>2026-04-04T11:28:26.993Z</time></trkpt><trkpt lat="44.6783633" lon="10.521905"><ele>122.0</ele><time>2026-04-04T11:28:27.993Z</time></trkpt><trkpt lat="44.6782433" lon="10.5216417"><ele>122.0</ele><time>2026-04-04T11:28:28.993Z</time></trkpt><trkpt lat="44.678125" lon="10.5213783"><ele>122.0</ele><time>2026-04-04T11:28:29.994Z</time></trkpt><trkpt lat="44.678005" lon="10.5211233"><ele>122.0</ele><time>2026-04-04T11:28:30.994Z</time></trkpt><trkpt lat="44.6778833" lon="10.520865"><ele>121.33333333333333</ele><time>2026-04-04T11:28:31.993Z</time></trkpt><trkpt lat="44.67776" lon="10.5206083"><ele>120.66666666666666</ele><time>2026-04-04T11:28:32.993Z</time></trkpt><trkpt lat="44.6776383" lon="10.52035"><ele>120.0</ele><time>2026-04-04T11:28:33.993Z</time></trkpt><trkpt lat="44.6775167" lon="10.5200933"><ele>120.0</ele><time>2026-04-04T11:28:34.994Z</time></trkpt><trkpt lat="44.6773933" lon="10.5198417"><ele>120.0</ele><time>2026-04-04T11:28:35.994Z</time></trkpt><trkpt lat="44.6772617" lon="10.519585"><ele>120.0</ele><time>2026-04-04T11:28:36.994Z</time></trkpt><trkpt lat="44.677135" lon="10.519325"><ele>120.66666666666666</ele><time>2026-04-04T11:28:37.993Z</time></trkpt><trkpt lat="44.6770117" lon="10.5190683"><ele>121.33333333333333</ele><time>2026-04-04T11:28:38.993Z</time></trkpt><trkpt lat="44.6768917" lon="10.5188117"><ele>122.0</ele><time>2026-04-04T11:28:39.993Z</time></trkpt><trkpt lat="44.6767633" lon="10.518545"><ele>122.5</ele><time>2026-04-04T11:28:40.993Z</time></trkpt><trkpt lat="44.676635" lon="10.518275"><ele>123.0</ele><time>2026-04-04T11:28:41.993Z</time></trkpt><trkpt lat="44.6765167" lon="10.5180083"><ele>124.0</ele><time>2026-04-04T11:28:42.993Z</time></trkpt><trkpt lat="44.6763833" lon="10.51774"><ele>125.0</ele><time>2026-04-04T11:28:43.994Z</time></trkpt><trkpt lat="44.6762583" lon="10.5174717"><ele>125.0</ele><time>2026-04-04T11:28:44.993Z</time></trkpt><trkpt lat="44.6761317" lon="10.5172083"><ele>125.0</ele><time>2026-04-04T11:28:45.993Z</time></trkpt><trkpt lat="44.6760067" lon="10.5169483"><ele>125.0</ele><time>2026-04-04T11:28:46.993Z</time></trkpt><trkpt lat="44.675885" lon="10.516685"><ele>125.0</ele><time>2026-04-04T11:28:47.993Z</time></trkpt><trkpt lat="44.6757567" lon="10.5164317"><ele>125.0</ele><time>2026-04-04T11:28:48.994Z</time></trkpt><trkpt lat="44.6756317" lon="10.5161733"><ele>125.0</ele><time>2026-04-04T11:28:49.993Z</time></trkpt><trkpt lat="44.6755083" lon="10.515915"><ele>125.0</ele><time>2026-04-04T11:28:50.993Z</time></trkpt><trkpt lat="44.675375" lon="10.51566"><ele>125.0</ele><time>2026-04-04T11:28:51.993Z</time></trkpt><trkpt lat="44.675245" lon="10.5153933"><ele>124.66666666666666</ele><time>2026-04-04T11:28:52.993Z</time></trkpt><trkpt lat="44.67512" lon="10.5151367"><ele>124.33333333333334</ele><time>2026-04-04T11:28:53.993Z</time></trkpt><trkpt lat="44.675005" lon="10.5148633"><ele>124.0</ele><time>2026-04-04T11:28:54.993Z</time></trkpt><trkpt lat="44.6748867" lon="10.5146033"><ele>124.66666666666667</ele><time>2026-04-04T11:28:55.993Z</time></trkpt><trkpt lat="44.6747583" lon="10.5143433"><ele>125.33333333333334</ele><time>2026-04-04T11:28:56.993Z</time></trkpt><trkpt lat="44.67464" lon="10.514085"><ele>126.0</ele><time>2026-04-04T11:28:57.993Z</time></trkpt><trkpt lat="44.6745217" lon="10.51382"><ele>126.0</ele><time>2026-04-04T11:28:58.994Z</time></trkpt><trkpt lat="44.6744" lon="10.5135567"><ele>126.0</ele><time>2026-04-04T11:28:59.993Z</time></trkpt><trkpt lat="44.6742833" lon="10.5133"><ele>126.0</ele><time>2026-04-04T11:29:00.993Z</time></trkpt><trkpt lat="44.6741633" lon="10.513045"><ele>126.0</ele><time>2026-04-04T11:29:01.992Z</time></trkpt><trkpt lat="44.6740417" lon="10.5128"><ele>126.0</ele><time>2026-04-04T11:29:02.993Z</time></trkpt><trkpt lat="44.6739217" lon="10.5125417"><ele>126.0</ele><time>2026-04-04T11:29:03.992Z</time></trkpt><trkpt lat="44.6737967" lon="10.5122883"><ele>125.66666666666666</ele><time>2026-04-04T11:29:04.993Z</time></trkpt><trkpt lat="44.67368" lon="10.51204"><ele>125.33333333333333</ele><time>2026-04-04T11:29:05.992Z</time></trkpt><trkpt lat="44.673565" lon="10.5117917"><ele>125.0</ele><time>2026-04-04T11:29:06.992Z</time></trkpt><trkpt lat="44.6734417" lon="10.5115367"><ele>125.66666666666666</ele><time>2026-04-04T11:29:07.993Z</time></trkpt><trkpt lat="44.6733233" lon="10.5112833"><ele>126.33333333333334</ele><time>2026-04-04T11:29:08.993Z</time></trkpt><trkpt lat="44.6732" lon="10.511035"><ele>127.0</ele><time>2026-04-04T11:29:09.992Z</time></trkpt><trkpt lat="44.67308" lon="10.5107817"><ele>127.0</ele><time>2026-04-04T11:29:10.992Z</time></trkpt><trkpt lat="44.6729617" lon="10.51053"><ele>127.0</ele><time>2026-04-04T11:29:11.992Z</time></trkpt><trkpt lat="44.67285" lon="10.510275"><ele>127.0</ele><time>2026-04-04T11:29:12.992Z</time></trkpt><trkpt lat="44.67273" lon="10.51002"><ele>127.66666666666667</ele><time>2026-04-04T11:29:13.992Z</time></trkpt><trkpt lat="44.6726167" lon="10.5097667"><ele>128.33333333333334</ele><time>2026-04-04T11:29:14.993Z</time></trkpt><trkpt lat="44.6725" lon="10.5095267"><ele>129.0</ele><time>2026-04-04T11:29:15.992Z</time></trkpt><trkpt lat="44.6723583" lon="10.5092867"><ele>129.0</ele><time>2026-04-04T11:29:16.993Z</time></trkpt><trkpt lat="44.6722117" lon="10.5090783"><ele>129.0</ele><time>2026-04-04T11:29:17.992Z</time></trkpt><trkpt lat="44.6720533" lon="10.5088683"><ele>129.0</ele><time>2026-04-04T11:29:18.992Z</time></trkpt><trkpt lat="44.6718867" lon="10.5086733"><ele>128.66666666666666</ele><time>2026-04-04T11:29:19.993Z</time></trkpt><trkpt lat="44.6717183" lon="10.508475"><ele>128.33333333333331</ele><time>2026-04-04T11:29:20.992Z</time></trkpt><trkpt lat="44.671555" lon="10.508275"><ele>128.0</ele><time>2026-04-04T11:29:21.992Z</time></trkpt><trkpt lat="44.6714017" lon="10.5080717"><ele>127.66666666666666</ele><time>2026-04-04T11:29:22.993Z</time></trkpt><trkpt lat="44.6712383" lon="10.5078617"><ele>127.33333333333334</ele><time>2026-04-04T11:29:23.993Z</time></trkpt><trkpt lat="44.6710833" lon="10.5076567"><ele>127.0</ele><time>2026-04-04T11:29:24.993Z</time></trkpt><trkpt lat="44.6709283" lon="10.5074383"><ele>126.66666666666667</ele><time>2026-04-04T11:29:25.992Z</time></trkpt><trkpt lat="44.67077" lon="10.5072467"><ele>126.33333333333334</ele><time>2026-04-04T11:29:26.992Z</time></trkpt><trkpt lat="44.6706117" lon="10.507055"><ele>126.0</ele><time>2026-04-04T11:29:27.992Z</time></trkpt><trkpt lat="44.6704517" lon="10.50686"><ele>126.0</ele><time>2026-04-04T11:29:28.993Z</time></trkpt><trkpt lat="44.6702983" lon="10.5066683"><ele>126.0</ele><time>2026-04-04T11:29:29.992Z</time></trkpt><trkpt lat="44.6701583" lon="10.5064517"><ele>126.0</ele><time>2026-04-04T11:29:30.993Z</time></trkpt><trkpt lat="44.6700017" lon="10.506255"><ele>126.66666666666666</ele><time>2026-04-04T11:29:31.993Z</time></trkpt><trkpt lat="44.6698417" lon="10.5060567"><ele>127.33333333333333</ele><time>2026-04-04T11:29:32.992Z</time></trkpt><trkpt lat="44.6696867" lon="10.505855"><ele>128.0</ele><time>2026-04-04T11:29:33.992Z</time></trkpt><trkpt lat="44.6695333" lon="10.5056567"><ele>128.66666666666666</ele><time>2026-04-04T11:29:34.993Z</time></trkpt><trkpt lat="44.6693783" lon="10.5054483"><ele>129.33333333333334</ele><time>2026-04-04T11:29:35.992Z</time></trkpt><trkpt lat="44.6692233" lon="10.50525"><ele>130.0</ele><time>2026-04-04T11:29:36.993Z</time></trkpt><trkpt lat="44.66907" lon="10.5050517"><ele>130.0</ele><time>2026-04-04T11:29:37.993Z</time></trkpt><trkpt lat="44.6689067" lon="10.5048533"><ele>130.0</ele><time>2026-04-04T11:29:38.992Z</time></trkpt><trkpt lat="44.6687483" lon="10.5046533"><ele>130.0</ele><time>2026-04-04T11:29:39.993Z</time></trkpt><trkpt lat="44.6685867" lon="10.5044517"><ele>130.33333333333334</ele><time>2026-04-04T11:29:40.992Z</time></trkpt><trkpt lat="44.66843" lon="10.5042567"><ele>130.66666666666666</ele><time>2026-04-04T11:29:41.992Z</time></trkpt><trkpt lat="44.66827" lon="10.5040417"><ele>131.0</ele><time>2026-04-04T11:29:42.993Z</time></trkpt><trkpt lat="44.668115" lon="10.50383"><ele>131.33333333333331</ele><time>2026-04-04T11:29:43.993Z</time></trkpt><trkpt lat="44.6679583" lon="10.50363"><ele>131.66666666666666</ele><time>2026-04-04T11:29:44.992Z</time></trkpt><trkpt lat="44.667805" lon="10.5034383"><ele>132.0</ele><time>2026-04-04T11:29:45.993Z</time></trkpt><trkpt lat="44.667655" lon="10.50324"><ele>132.0</ele><time>2026-04-04T11:29:46.993Z</time></trkpt><trkpt lat="44.667505" lon="10.5030483"><ele>132.0</ele><time>2026-04-04T11:29:47.992Z</time></trkpt><trkpt lat="44.66735" lon="10.502855"><ele>132.0</ele><time>2026-04-04T11:29:48.993Z</time></trkpt><trkpt lat="44.6671983" lon="10.5026417"><ele>132.0</ele><time>2026-04-04T11:29:49.993Z</time></trkpt><trkpt lat="44.667035" lon="10.5024483"><ele>132.0</ele><time>2026-04-04T11:29:50.992Z</time></trkpt><trkpt lat="44.6668833" lon="10.5022417"><ele>132.0</ele><time>2026-04-04T11:29:51.992Z</time></trkpt><trkpt lat="44.6667217" lon="10.5020467"><ele>131.0</ele><time>2026-04-04T11:29:52.992Z</time></trkpt><trkpt lat="44.6665667" lon="10.5018483"><ele>130.0</ele><time>2026-04-04T11:29:53.992Z</time></trkpt><trkpt lat="44.6664083" lon="10.5016517"><ele>129.0</ele><time>2026-04-04T11:29:54.993Z</time></trkpt><trkpt lat="44.6662583" lon="10.5014483"><ele>129.66666666666666</ele><time>2026-04-04T11:29:55.992Z</time></trkpt><trkpt lat="44.6661183" lon="10.5012417"><ele>130.33333333333331</ele><time>2026-04-04T11:29:56.992Z</time></trkpt><trkpt lat="44.6659767" lon="10.5010383"><ele>131.0</ele><time>2026-04-04T11:29:57.993Z</time></trkpt><trkpt lat="44.6658467" lon="10.5008283"><ele>131.0</ele><time>2026-04-04T11:29:58.992Z</time></trkpt><trkpt lat="44.6657217" lon="10.50061"><ele>131.0</ele><time>2026-04-04T11:29:59.992Z</time></trkpt><trkpt lat="44.6655983" lon="10.5003883"><ele>131.0</ele><time>2026-04-04T11:30:00.992Z</time></trkpt><trkpt lat="44.6654617" lon="10.5001567"><ele>131.0</ele><time>2026-04-04T11:30:01.993Z</time></trkpt><trkpt lat="44.665345" lon="10.49993"><ele>131.0</ele><time>2026-04-04T11:30:02.992Z</time></trkpt><trkpt lat="44.6652083" lon="10.49971"><ele>131.0</ele><time>2026-04-04T11:30:03.992Z</time></trkpt><trkpt lat="44.6650733" lon="10.4994883"><ele>129.0</ele><time>2026-04-04T11:30:04.992Z</time></trkpt><trkpt lat="44.664935" lon="10.499265"><ele>127.0</ele><time>2026-04-04T11:30:05.993Z</time></trkpt><trkpt lat="44.6648083" lon="10.4990367"><ele>125.0</ele><time>2026-04-04T11:30:06.992Z</time></trkpt><trkpt lat="44.6646667" lon="10.4988"><ele>124.66666666666666</ele><time>2026-04-04T11:30:07.992Z</time></trkpt><trkpt lat="44.6645317" lon="10.498565"><ele>124.33333333333334</ele><time>2026-04-04T11:30:08.992Z</time></trkpt><trkpt lat="44.6643867" lon="10.49834"><ele>124.0</ele><time>2026-04-04T11:30:09.992Z</time></trkpt><trkpt lat="44.6642483" lon="10.4981067"><ele>122.33333333333334</ele><time>2026-04-04T11:30:10.993Z</time></trkpt><trkpt lat="44.664105" lon="10.4978817"><ele>120.66666666666666</ele><time>2026-04-04T11:30:11.993Z</time></trkpt><trkpt lat="44.6639733" lon="10.4976417"><ele>119.0</ele><time>2026-04-04T11:30:12.993Z</time></trkpt><trkpt lat="44.6638433" lon="10.4973967"><ele>119.0</ele><time>2026-04-04T11:30:13.992Z</time></trkpt><trkpt lat="44.6637333" lon="10.49713"><ele>119.0</ele><time>2026-04-04T11:30:14.992Z</time></trkpt><trkpt lat="44.66365" lon="10.4968517"><ele>119.0</ele><time>2026-04-04T11:30:15.993Z</time></trkpt><trkpt lat="44.6635933" lon="10.4965567"><ele>118.0</ele><time>2026-04-04T11:30:16.992Z</time></trkpt><trkpt lat="44.663555" lon="10.496265"><ele>117.0</ele><time>2026-04-04T11:30:17.993Z</time></trkpt><trkpt lat="44.6635217" lon="10.4959667"><ele>116.0</ele><time>2026-04-04T11:30:18.993Z</time></trkpt><trkpt lat="44.6635" lon="10.4956633"><ele>116.33333333333333</ele><time>2026-04-04T11:30:19.992Z</time></trkpt><trkpt lat="44.6634667" lon="10.4953733"><ele>116.66666666666666</ele><time>2026-04-04T11:30:20.992Z</time></trkpt><trkpt lat="44.663445" lon="10.4950767"><ele>117.0</ele><time>2026-04-04T11:30:21.993Z</time></trkpt><trkpt lat="44.6634167" lon="10.4947833"><ele>117.33333333333334</ele><time>2026-04-04T11:30:22.992Z</time></trkpt><trkpt lat="44.6633767" lon="10.4944967"><ele>117.66666666666667</ele><time>2026-04-04T11:30:23.992Z</time></trkpt><trkpt lat="44.6633317" lon="10.4942117"><ele>118.0</ele><time>2026-04-04T11:30:24.993Z</time></trkpt><trkpt lat="44.6632983" lon="10.4939283"><ele>118.33333333333334</ele><time>2026-04-04T11:30:25.993Z</time></trkpt><trkpt lat="44.6632767" lon="10.49364"><ele>118.66666666666666</ele><time>2026-04-04T11:30:26.993Z</time></trkpt><trkpt lat="44.66328" lon="10.49335"><ele>119.0</ele><time>2026-04-04T11:30:27.992Z</time></trkpt><trkpt lat="44.6632867" lon="10.49306"><ele>118.33333333333333</ele><time>2026-04-04T11:30:28.992Z</time></trkpt><trkpt lat="44.6633017" lon="10.492775"><ele>117.66666666666666</ele><time>2026-04-04T11:30:29.992Z</time></trkpt><trkpt lat="44.6633133" lon="10.49249"><ele>117.0</ele><time>2026-04-04T11:30:30.992Z</time></trkpt><trkpt lat="44.6633267" lon="10.492215"><ele>116.66666666666666</ele><time>2026-04-04T11:30:31.993Z</time></trkpt><trkpt lat="44.6633467" lon="10.4919467"><ele>116.33333333333333</ele><time>2026-04-04T11:30:32.992Z</time></trkpt><trkpt lat="44.663365" lon="10.4916883"><ele>116.0</ele><time>2026-04-04T11:30:33.992Z</time></trkpt><trkpt lat="44.6633933" lon="10.491415"><ele>116.66666666666666</ele><time>2026-04-04T11:30:34.993Z</time></trkpt><trkpt lat="44.6634283" lon="10.4911617"><ele>117.33333333333334</ele><time>2026-04-04T11:30:35.993Z</time></trkpt><trkpt lat="44.6634667" lon="10.4909"><ele>118.0</ele><time>2026-04-04T11:30:36.993Z</time></trkpt><trkpt lat="44.6634983" lon="10.4906317"><ele>118.33333333333334</ele><time>2026-04-04T11:30:37.992Z</time></trkpt><trkpt lat="44.6635333" lon="10.4903683"><ele>118.66666666666666</ele><time>2026-04-04T11:30:38.993Z</time></trkpt><trkpt lat="44.6635683" lon="10.49009"><ele>119.0</ele><time>2026-04-04T11:30:39.992Z</time></trkpt><trkpt lat="44.663605" lon="10.489825"><ele>118.66666666666666</ele><time>2026-04-04T11:30:40.992Z</time></trkpt><trkpt lat="44.6636367" lon="10.4895583"><ele>118.33333333333334</ele><time>2026-04-04T11:30:41.992Z</time></trkpt><trkpt lat="44.6636733" lon="10.4892883"><ele>118.0</ele><time>2026-04-04T11:30:42.992Z</time></trkpt><trkpt lat="44.6636967" lon="10.48902"><ele>118.66666666666667</ele><time>2026-04-04T11:30:43.992Z</time></trkpt><trkpt lat="44.663705" lon="10.4887517"><ele>119.33333333333334</ele><time>2026-04-04T11:30:44.992Z</time></trkpt><trkpt lat="44.6636983" lon="10.488485"><ele>120.0</ele><time>2026-04-04T11:30:45.992Z</time></trkpt><trkpt lat="44.663665" lon="10.48823"><ele>120.0</ele><time>2026-04-04T11:30:46.993Z</time></trkpt><trkpt lat="44.66362" lon="10.4879817"><ele>120.0</ele><time>2026-04-04T11:30:47.992Z</time></trkpt><trkpt lat="44.66356" lon="10.4877567"><ele>120.0</ele><time>2026-04-04T11:30:48.992Z</time></trkpt><trkpt lat="44.6634983" lon="10.48753"><ele>120.66666666666666</ele><time>2026-04-04T11:30:49.992Z</time></trkpt><trkpt lat="44.6634517" lon="10.4873033"><ele>121.33333333333333</ele><time>2026-04-04T11:30:50.992Z</time></trkpt><trkpt lat="44.6634367" lon="10.487055"><ele>122.0</ele><time>2026-04-04T11:30:51.993Z</time></trkpt><trkpt lat="44.6634533" lon="10.4868083"><ele>122.0</ele><time>2026-04-04T11:30:52.992Z</time></trkpt><trkpt lat="44.6635083" lon="10.4865483"><ele>122.0</ele><time>2026-04-04T11:30:53.993Z</time></trkpt><trkpt lat="44.66358" lon="10.48629"><ele>122.0</ele><time>2026-04-04T11:30:54.993Z</time></trkpt><trkpt lat="44.6636467" lon="10.486025"><ele>122.0</ele><time>2026-04-04T11:30:55.992Z</time></trkpt><trkpt lat="44.66372" lon="10.4857633"><ele>122.0</ele><time>2026-04-04T11:30:56.992Z</time></trkpt><trkpt lat="44.663795" lon="10.4854967"><ele>122.0</ele><time>2026-04-04T11:30:57.993Z</time></trkpt><trkpt lat="44.66385" lon="10.4852383"><ele>122.33333333333333</ele><time>2026-04-04T11:30:58.992Z</time></trkpt><trkpt lat="44.6639017" lon="10.484985"><ele>122.66666666666666</ele><time>2026-04-04T11:30:59.992Z</time></trkpt><trkpt lat="44.6639583" lon="10.484735"><ele>123.0</ele><time>2026-04-04T11:31:00.993Z</time></trkpt><trkpt lat="44.6640167" lon="10.4844817"><ele>123.0</ele><time>2026-04-04T11:31:01.992Z</time></trkpt><trkpt lat="44.6640767" lon="10.484235"><ele>123.0</ele><time>2026-04-04T11:31:02.992Z</time></trkpt><trkpt lat="44.6641333" lon="10.4839967"><ele>123.0</ele><time>2026-04-04T11:31:03.992Z</time></trkpt><trkpt lat="44.6641817" lon="10.4837883"><ele>123.0</ele><time>2026-04-04T11:31:04.992Z</time></trkpt><trkpt lat="44.6642167" lon="10.4835767"><ele>123.0</ele><time>2026-04-04T11:31:05.992Z</time></trkpt><trkpt lat="44.6642433" lon="10.4833733"><ele>123.0</ele><time>2026-04-04T11:31:06.993Z</time></trkpt><trkpt lat="44.66426" lon="10.48317"><ele>123.0</ele><time>2026-04-04T11:31:07.992Z</time></trkpt><trkpt lat="44.6642783" lon="10.482945"><ele>123.0</ele><time>2026-04-04T11:31:08.992Z</time></trkpt><trkpt lat="44.6643" lon="10.4827233"><ele>123.0</ele><time>2026-04-04T11:31:09.992Z</time></trkpt><trkpt lat="44.6643167" lon="10.4825133"><ele>123.0</ele><time>2026-04-04T11:31:10.992Z</time></trkpt><trkpt lat="44.6643317" lon="10.4822967"><ele>122.66666666666666</ele><time>2026-04-04T11:31:11.993Z</time></trkpt><trkpt lat="44.6643367" lon="10.4820683"><ele>122.33333333333333</ele><time>2026-04-04T11:31:12.993Z</time></trkpt><trkpt lat="44.6643467" lon="10.4818383"><ele>122.0</ele><time>2026-04-04T11:31:13.993Z</time></trkpt><trkpt lat="44.6643583" lon="10.4816183"><ele>122.0</ele><time>2026-04-04T11:31:14.993Z</time></trkpt><trkpt lat="44.6643533" lon="10.4814083"><ele>122.0</ele><time>2026-04-04T11:31:15.993Z</time></trkpt><trkpt lat="44.6643567" lon="10.4811883"><ele>122.0</ele><time>2026-04-04T11:31:16.992Z</time></trkpt><trkpt lat="44.66436" lon="10.4809667"><ele>122.25</ele><time>2026-04-04T11:31:17.992Z</time></trkpt><trkpt lat="44.6643717" lon="10.4807517"><ele>122.5</ele><time>2026-04-04T11:31:18.993Z</time></trkpt><trkpt lat="44.6643783" lon="10.480535"><ele>122.75</ele><time>2026-04-04T11:31:19.992Z</time></trkpt><trkpt lat="44.66439" lon="10.480345"><ele>123.0</ele><time>2026-04-04T11:31:20.993Z</time></trkpt><trkpt lat="44.6644017" lon="10.4801667"><ele>123.0</ele><time>2026-04-04T11:31:21.993Z</time></trkpt><trkpt lat="44.6644067" lon="10.4800117"><ele>123.0</ele><time>2026-04-04T11:31:22.992Z</time></trkpt><trkpt lat="44.66443" lon="10.4798783"><ele>123.0</ele><time>2026-04-04T11:31:23.992Z</time></trkpt><trkpt lat="44.66447" lon="10.4797717"><ele>123.0</ele><time>2026-04-04T11:31:24.993Z</time></trkpt><trkpt lat="44.6645133" lon="10.4796833"><ele>123.0</ele><time>2026-04-04T11:31:25.992Z</time></trkpt><trkpt lat="44.66454" lon="10.47959"><ele>123.0</ele><time>2026-04-04T11:31:26.992Z</time></trkpt><trkpt lat="44.6645333" lon="10.4794967"><ele>123.0</ele><time>2026-04-04T11:31:27.992Z</time></trkpt><trkpt lat="44.66448" lon="10.4793917"><ele>123.0</ele><time>2026-04-04T11:31:28.992Z</time></trkpt><trkpt lat="44.6643867" lon="10.47928"><ele>123.0</ele><time>2026-04-04T11:31:29.992Z</time></trkpt><trkpt lat="44.664245" lon="10.4791783"><ele>123.0</ele><time>2026-04-04T11:31:30.992Z</time></trkpt><trkpt lat="44.6640733" lon="10.4790967"><ele>123.0</ele><time>2026-04-04T11:31:31.992Z</time></trkpt><trkpt lat="44.6639067" lon="10.4790333"><ele>123.0</ele><time>2026-04-04T11:31:32.993Z</time></trkpt><trkpt lat="44.6637333" lon="10.4789533"><ele>123.0</ele><time>2026-04-04T11:31:33.992Z</time></trkpt><trkpt lat="44.6635567" lon="10.4788717"><ele>123.0</ele><time>2026-04-04T11:31:34.992Z</time></trkpt><trkpt lat="44.6633817" lon="10.47878"><ele>123.0</ele><time>2026-04-04T11:31:35.993Z</time></trkpt><trkpt lat="44.6631983" lon="10.4787"><ele>123.0</ele><time>2026-04-04T11:31:36.993Z</time></trkpt><trkpt lat="44.6630233" lon="10.478615"><ele>123.33333333333334</ele><time>2026-04-04T11:31:37.992Z</time></trkpt><trkpt lat="44.6628367" lon="10.4785333"><ele>123.66666666666667</ele><time>2026-04-04T11:31:38.992Z</time></trkpt><trkpt lat="44.6626517" lon="10.4784367"><ele>124.0</ele><time>2026-04-04T11:31:39.992Z</time></trkpt><trkpt lat="44.6624667" lon="10.47836"><ele>124.0</ele><time>2026-04-04T11:31:40.992Z</time></trkpt><trkpt lat="44.6622867" lon="10.4782733"><ele>124.0</ele><time>2026-04-04T11:31:41.992Z</time></trkpt><trkpt lat="44.6621117" lon="10.4781867"><ele>124.0</ele><time>2026-04-04T11:31:42.992Z</time></trkpt><trkpt lat="44.6619317" lon="10.4780983"><ele>124.0</ele><time>2026-04-04T11:31:43.992Z</time></trkpt><trkpt lat="44.66175" lon="10.478015"><ele>124.0</ele><time>2026-04-04T11:31:44.992Z</time></trkpt><trkpt lat="44.66157" lon="10.4779317"><ele>124.0</ele><time>2026-04-04T11:31:45.992Z</time></trkpt><trkpt lat="44.661385" lon="10.4778417"><ele>124.66666666666667</ele><time>2026-04-04T11:31:46.992Z</time></trkpt><trkpt lat="44.6612033" lon="10.47776"><ele>125.33333333333334</ele><time>2026-04-04T11:31:47.992Z</time></trkpt><trkpt lat="44.6610217" lon="10.47767"><ele>126.0</ele><time>2026-04-04T11:31:48.992Z</time></trkpt><trkpt lat="44.6608517" lon="10.4775767"><ele>126.0</ele><time>2026-04-04T11:31:49.993Z</time></trkpt><trkpt lat="44.6606933" lon="10.4774833"><ele>126.0</ele><time>2026-04-04T11:31:50.993Z</time></trkpt><trkpt lat="44.6605467" lon="10.4773917"><ele>126.0</ele><time>2026-04-04T11:31:51.992Z</time></trkpt><trkpt lat="44.6604083" lon="10.4772983"><ele>126.5</ele><time>2026-04-04T11:31:52.992Z</time></trkpt><trkpt lat="44.6602783" lon="10.4772117"><ele>127.0</ele><time>2026-04-04T11:31:53.993Z</time></trkpt><trkpt lat="44.6601533" lon="10.477115"><ele>127.5</ele><time>2026-04-04T11:31:54.993Z</time></trkpt><trkpt lat="44.6600233" lon="10.4770117"><ele>128.0</ele><time>2026-04-04T11:31:55.992Z</time></trkpt><trkpt lat="44.659885" lon="10.4769233"><ele>128.33333333333331</ele><time>2026-04-04T11:31:56.992Z</time></trkpt><trkpt lat="44.6597383" lon="10.4768483"><ele>128.66666666666666</ele><time>2026-04-04T11:31:57.993Z</time></trkpt><trkpt lat="44.6595817" lon="10.4767767"><ele>129.0</ele><time>2026-04-04T11:31:58.992Z</time></trkpt><trkpt lat="44.6594283" lon="10.4766717"><ele>129.0</ele><time>2026-04-04T11:31:59.992Z</time></trkpt><trkpt lat="44.6592717" lon="10.4765467"><ele>129.0</ele><time>2026-04-04T11:32:00.992Z</time></trkpt><trkpt lat="44.6591067" lon="10.4764283"><ele>129.0</ele><time>2026-04-04T11:32:01.993Z</time></trkpt><trkpt lat="44.6589333" lon="10.4763117"><ele>129.66666666666666</ele><time>2026-04-04T11:32:02.992Z</time></trkpt><trkpt lat="44.658765" lon="10.4761933"><ele>130.33333333333331</ele><time>2026-04-04T11:32:03.992Z</time></trkpt><trkpt lat="44.6586067" lon="10.476085"><ele>131.0</ele><time>2026-04-04T11:32:04.992Z</time></trkpt><trkpt lat="44.6584483" lon="10.47598"><ele>131.0</ele><time>2026-04-04T11:32:05.992Z</time></trkpt><trkpt lat="44.6582967" lon="10.4758817"><ele>131.0</ele><time>2026-04-04T11:32:06.992Z</time></trkpt><trkpt lat="44.6581567" lon="10.4758"><ele>131.0</ele><time>2026-04-04T11:32:07.992Z</time></trkpt><trkpt lat="44.6580167" lon="10.4757333"><ele>131.0</ele><time>2026-04-04T11:32:08.993Z</time></trkpt><trkpt lat="44.6578833" lon="10.4756733"><ele>131.0</ele><time>2026-04-04T11:32:09.992Z</time></trkpt><trkpt lat="44.6577633" lon="10.4756"><ele>131.0</ele><time>2026-04-04T11:32:10.992Z</time></trkpt><trkpt lat="44.65765" lon="10.4755267"><ele>131.0</ele><time>2026-04-04T11:32:11.992Z</time></trkpt><trkpt lat="44.657555" lon="10.47545"><ele>130.0</ele><time>2026-04-04T11:32:12.993Z</time></trkpt><trkpt lat="44.6574517" lon="10.4753867"><ele>129.0</ele><time>2026-04-04T11:32:13.993Z</time></trkpt><trkpt lat="44.6573483" lon="10.4753517"><ele>128.0</ele><time>2026-04-04T11:32:14.993Z</time></trkpt><trkpt lat="44.65721" lon="10.4753667"><ele>127.0</ele><time>2026-04-04T11:32:15.993Z</time></trkpt><trkpt lat="44.6570417" lon="10.47537"><ele>126.66666666666667</ele><time>2026-04-04T11:32:16.992Z</time></trkpt><trkpt lat="44.6568783" lon="10.4753383"><ele>126.33333333333334</ele><time>2026-04-04T11:32:17.993Z</time></trkpt><trkpt lat="44.6567083" lon="10.4752833"><ele>126.0</ele><time>2026-04-04T11:32:18.993Z</time></trkpt><trkpt lat="44.6565333" lon="10.475225"><ele>126.0</ele><time>2026-04-04T11:32:19.993Z</time></trkpt><trkpt lat="44.6563517" lon="10.4751633"><ele>126.0</ele><time>2026-04-04T11:32:20.993Z</time></trkpt><trkpt lat="44.6561667" lon="10.4751017"><ele>126.0</ele><time>2026-04-04T11:32:21.993Z</time></trkpt><trkpt lat="44.65598" lon="10.4750433"><ele>126.0</ele><time>2026-04-04T11:32:22.992Z</time></trkpt><trkpt lat="44.6557933" lon="10.474985"><ele>126.0</ele><time>2026-04-04T11:32:23.993Z</time></trkpt><trkpt lat="44.6555967" lon="10.474925"><ele>126.0</ele><time>2026-04-04T11:32:24.992Z</time></trkpt><trkpt lat="44.6554033" lon="10.4748633"><ele>126.33333333333334</ele><time>2026-04-04T11:32:25.992Z</time></trkpt><trkpt lat="44.65521" lon="10.4748017"><ele>126.66666666666667</ele><time>2026-04-04T11:32:26.992Z</time></trkpt><trkpt lat="44.655015" lon="10.47474"><ele>127.0</ele><time>2026-04-04T11:32:27.992Z</time></trkpt><trkpt lat="44.654825" lon="10.4746733"><ele>127.66666666666667</ele><time>2026-04-04T11:32:28.993Z</time></trkpt><trkpt lat="44.65464" lon="10.4745983"><ele>128.33333333333334</ele><time>2026-04-04T11:32:29.992Z</time></trkpt><trkpt lat="44.65445" lon="10.4745317"><ele>129.0</ele><time>2026-04-04T11:32:30.992Z</time></trkpt><trkpt lat="44.6542767" lon="10.4744633"><ele>129.0</ele><time>2026-04-04T11:32:31.992Z</time></trkpt><trkpt lat="44.6541133" lon="10.4743983"><ele>129.0</ele><time>2026-04-04T11:32:32.992Z</time></trkpt><trkpt lat="44.65396" lon="10.4743367"><ele>129.0</ele><time>2026-04-04T11:32:33.992Z</time></trkpt><trkpt lat="44.6538183" lon="10.47428"><ele>129.0</ele><time>2026-04-04T11:32:34.993Z</time></trkpt><trkpt lat="44.653685" lon="10.4742233"><ele>129.0</ele><time>2026-04-04T11:32:35.992Z</time></trkpt><trkpt lat="44.653565" lon="10.47417"><ele>129.0</ele><time>2026-04-04T11:32:36.992Z</time></trkpt><trkpt lat="44.6534517" lon="10.4741217"><ele>129.0</ele><time>2026-04-04T11:32:37.992Z</time></trkpt><trkpt lat="44.6533417" lon="10.4740733"><ele>129.6</ele><time>2026-04-04T11:32:38.992Z</time></trkpt><trkpt lat="44.65323" lon="10.4740217"><ele>130.2</ele><time>2026-04-04T11:32:39.992Z</time></trkpt><trkpt lat="44.6531217" lon="10.47397"><ele>130.79999999999998</ele><time>2026-04-04T11:32:40.993Z</time></trkpt><trkpt lat="44.6530217" lon="10.47392"><ele>131.4</ele><time>2026-04-04T11:32:41.992Z</time></trkpt><trkpt lat="44.6529367" lon="10.4738683"><ele>132.0</ele><time>2026-04-04T11:32:42.992Z</time></trkpt><trkpt lat="44.6528533" lon="10.4738183"><ele>132.14285714285714</ele><time>2026-04-04T11:32:43.992Z</time></trkpt><trkpt lat="44.6527833" lon="10.4737717"><ele>132.28571428571428</ele><time>2026-04-04T11:32:44.992Z</time></trkpt><trkpt lat="44.652735" lon="10.4737067"><ele>132.42857142857144</ele><time>2026-04-04T11:32:45.992Z</time></trkpt><trkpt lat="44.6527033" lon="10.4736217"><ele>132.57142857142856</ele><time>2026-04-04T11:32:46.992Z</time></trkpt><trkpt lat="44.652665" lon="10.473545"><ele>132.71428571428572</ele><time>2026-04-04T11:32:47.993Z</time></trkpt><trkpt lat="44.6526133" lon="10.4734917"><ele>132.85714285714286</ele><time>2026-04-04T11:32:48.993Z</time></trkpt><trkpt lat="44.65254" lon="10.4734717"><ele>133.0</ele><time>2026-04-04T11:32:49.993Z</time></trkpt><trkpt lat="44.6524433" lon="10.4734817"><ele>133.0</ele><time>2026-04-04T11:32:50.993Z</time></trkpt><trkpt lat="44.65233" lon="10.473475"><ele>133.0</ele><time>2026-04-04T11:32:51.992Z</time></trkpt><trkpt lat="44.6522117" lon="10.4734533"><ele>133.0</ele><time>2026-04-04T11:32:52.992Z</time></trkpt><trkpt lat="44.6520717" lon="10.47343"><ele>133.0</ele><time>2026-04-04T11:32:53.992Z</time></trkpt><trkpt lat="44.6519117" lon="10.47339"><ele>133.33333333333334</ele><time>2026-04-04T11:32:54.992Z</time></trkpt><trkpt lat="44.6517467" lon="10.4733617"><ele>133.66666666666666</ele><time>2026-04-04T11:32:55.992Z</time></trkpt><trkpt lat="44.65158" lon="10.4733433"><ele>134.0</ele><time>2026-04-04T11:32:56.992Z</time></trkpt><trkpt lat="44.6514217" lon="10.4733233"><ele>134.0</ele><time>2026-04-04T11:32:57.992Z</time></trkpt><trkpt lat="44.651285" lon="10.4732917"><ele>134.0</ele><time>2026-04-04T11:32:58.992Z</time></trkpt><trkpt lat="44.651145" lon="10.47327"><ele>134.0</ele><time>2026-04-04T11:32:59.993Z</time></trkpt><trkpt lat="44.651005" lon="10.4732533"><ele>134.0</ele><time>2026-04-04T11:33:00.992Z</time></trkpt><trkpt lat="44.6508617" lon="10.47324"><ele>134.33333333333331</ele><time>2026-04-04T11:33:01.992Z</time></trkpt><trkpt lat="44.650705" lon="10.47324"><ele>134.66666666666666</ele><time>2026-04-04T11:33:02.993Z</time></trkpt><trkpt lat="44.65053" lon="10.4732333"><ele>135.0</ele><time>2026-04-04T11:33:03.992Z</time></trkpt><trkpt lat="44.6503417" lon="10.473215"><ele>135.33333333333334</ele><time>2026-04-04T11:33:04.992Z</time></trkpt><trkpt lat="44.6501483" lon="10.473195"><ele>135.66666666666669</ele><time>2026-04-04T11:33:05.992Z</time></trkpt><trkpt lat="44.6499517" lon="10.4731733"><ele>136.0</ele><time>2026-04-04T11:33:06.992Z</time></trkpt><trkpt lat="44.64975" lon="10.4731533"><ele>136.0</ele><time>2026-04-04T11:33:07.993Z</time></trkpt><trkpt lat="44.6495483" lon="10.4731233"><ele>136.0</ele><time>2026-04-04T11:33:08.993Z</time></trkpt><trkpt lat="44.649345" lon="10.4731117"><ele>136.0</ele><time>2026-04-04T11:33:09.993Z</time></trkpt><trkpt lat="44.6491417" lon="10.473095"><ele>136.0</ele><time>2026-04-04T11:33:10.993Z</time></trkpt><trkpt lat="44.6489333" lon="10.4730733"><ele>136.0</ele><time>2026-04-04T11:33:11.992Z</time></trkpt><trkpt lat="44.64872" lon="10.4730433"><ele>136.0</ele><time>2026-04-04T11:33:12.992Z</time></trkpt><trkpt lat="44.64851" lon="10.473025"><ele>136.66666666666669</ele><time>2026-04-04T11:33:13.993Z</time></trkpt><trkpt lat="44.6482983" lon="10.4730067"><ele>137.33333333333334</ele><time>2026-04-04T11:33:14.993Z</time></trkpt><trkpt lat="44.6480883" lon="10.4729917"><ele>138.0</ele><time>2026-04-04T11:33:15.993Z</time></trkpt><trkpt lat="44.6478783" lon="10.4729683"><ele>138.33333333333334</ele><time>2026-04-04T11:33:16.992Z</time></trkpt><trkpt lat="44.6476667" lon="10.4729467"><ele>138.66666666666669</ele><time>2026-04-04T11:33:17.992Z</time></trkpt><trkpt lat="44.6474617" lon="10.4729217"><ele>139.0</ele><time>2026-04-04T11:33:18.993Z</time></trkpt><trkpt lat="44.6472517" lon="10.4729"><ele>139.0</ele><time>2026-04-04T11:33:19.992Z</time></trkpt><trkpt lat="44.6470417" lon="10.472875"><ele>139.0</ele><time>2026-04-04T11:33:20.992Z</time></trkpt><trkpt lat="44.6468333" lon="10.47285"><ele>139.0</ele><time>2026-04-04T11:33:21.992Z</time></trkpt><trkpt lat="44.64663" lon="10.472825"><ele>139.33333333333334</ele><time>2026-04-04T11:33:22.993Z</time></trkpt><trkpt lat="44.6464183" lon="10.47281"><ele>139.66666666666666</ele><time>2026-04-04T11:33:23.992Z</time></trkpt><trkpt lat="44.646205" lon="10.4727983"><ele>140.0</ele><time>2026-04-04T11:33:24.993Z</time></trkpt><trkpt lat="44.6459883" lon="10.472795"><ele>141.0</ele><time>2026-04-04T11:33:25.993Z</time></trkpt><trkpt lat="44.6457717" lon="10.472785"><ele>142.0</ele><time>2026-04-04T11:33:26.992Z</time></trkpt><trkpt lat="44.645555" lon="10.4727683"><ele>143.0</ele><time>2026-04-04T11:33:27.992Z</time></trkpt><trkpt lat="44.6453383" lon="10.4727483"><ele>144.0</ele><time>2026-04-04T11:33:28.992Z</time></trkpt><trkpt lat="44.6451283" lon="10.4727217"><ele>145.0</ele><time>2026-04-04T11:33:29.992Z</time></trkpt><trkpt lat="44.6449217" lon="10.4726967"><ele>146.0</ele><time>2026-04-04T11:33:30.993Z</time></trkpt><trkpt lat="44.644715" lon="10.4726617"><ele>146.0</ele><time>2026-04-04T11:33:31.993Z</time></trkpt><trkpt lat="44.6445033" lon="10.47264"><ele>146.0</ele><time>2026-04-04T11:33:32.993Z</time></trkpt><trkpt lat="44.6442967" lon="10.4726183"><ele>146.0</ele><time>2026-04-04T11:33:33.992Z</time></trkpt><trkpt lat="44.6440933" lon="10.4725983"><ele>146.33333333333331</ele><time>2026-04-04T11:33:34.992Z</time></trkpt><trkpt lat="44.64389" lon="10.4725833"><ele>146.66666666666666</ele><time>2026-04-04T11:33:35.992Z</time></trkpt><trkpt lat="44.643685" lon="10.4725667"><ele>147.0</ele><time>2026-04-04T11:33:36.992Z</time></trkpt><trkpt lat="44.6434783" lon="10.47257"><ele>146.0</ele><time>2026-04-04T11:33:37.992Z</time></trkpt><trkpt lat="44.6432667" lon="10.4725733"><ele>145.0</ele><time>2026-04-04T11:33:38.993Z</time></trkpt><trkpt lat="44.64306" lon="10.4725783"><ele>144.0</ele><time>2026-04-04T11:33:39.992Z</time></trkpt><trkpt lat="44.6428517" lon="10.4725867"><ele>144.66666666666666</ele><time>2026-04-04T11:33:40.992Z</time></trkpt><trkpt lat="44.6426417" lon="10.4726117"><ele>145.33333333333331</ele><time>2026-04-04T11:33:41.993Z</time></trkpt><trkpt lat="44.6424333" lon="10.4726333"><ele>146.0</ele><time>2026-04-04T11:33:42.992Z</time></trkpt><trkpt lat="44.6422233" lon="10.4726683"><ele>146.0</ele><time>2026-04-04T11:33:43.992Z</time></trkpt><trkpt lat="44.6420167" lon="10.4726967"><ele>146.0</ele><time>2026-04-04T11:33:44.993Z</time></trkpt><trkpt lat="44.6418117" lon="10.47271"><ele>146.0</ele><time>2026-04-04T11:33:45.992Z</time></trkpt><trkpt lat="44.6416167" lon="10.47274"><ele>146.66666666666666</ele><time>2026-04-04T11:33:46.992Z</time></trkpt><trkpt lat="44.641425" lon="10.4727683"><ele>147.33333333333334</ele><time>2026-04-04T11:33:47.992Z</time></trkpt><trkpt lat="44.64125" lon="10.4727833"><ele>148.0</ele><time>2026-04-04T11:33:48.992Z</time></trkpt><trkpt lat="44.64109" lon="10.4728067"><ele>148.25</ele><time>2026-04-04T11:33:49.993Z</time></trkpt><trkpt lat="44.64094" lon="10.4728383"><ele>148.5</ele><time>2026-04-04T11:33:50.992Z</time></trkpt><trkpt lat="44.64081" lon="10.4728867"><ele>148.75</ele><time>2026-04-04T11:33:51.993Z</time></trkpt><trkpt lat="44.6406983" lon="10.472955"><ele>149.0</ele><time>2026-04-04T11:33:52.992Z</time></trkpt><trkpt lat="44.6406067" lon="10.473045"><ele>149.0</ele><time>2026-04-04T11:33:53.992Z</time></trkpt><trkpt lat="44.6405283" lon="10.4731083"><ele>149.0</ele><time>2026-04-04T11:33:54.992Z</time></trkpt><trkpt lat="44.64044" lon="10.4731417"><ele>149.0</ele><time>2026-04-04T11:33:55.992Z</time></trkpt><trkpt lat="44.6403567" lon="10.4731467"><ele>149.0</ele><time>2026-04-04T11:33:56.993Z</time></trkpt><trkpt lat="44.6402817" lon="10.4730767"><ele>149.0</ele><time>2026-04-04T11:33:57.992Z</time></trkpt><trkpt lat="44.64022" lon="10.4729433"><ele>149.5</ele><time>2026-04-04T11:33:58.993Z</time></trkpt><trkpt lat="44.6401883" lon="10.4727717"><ele>150.0</ele><time>2026-04-04T11:33:59.992Z</time></trkpt><trkpt lat="44.640175" lon="10.4725783"><ele>150.5</ele><time>2026-04-04T11:34:00.992Z</time></trkpt><trkpt lat="44.6401767" lon="10.4723717"><ele>151.0</ele><time>2026-04-04T11:34:01.992Z</time></trkpt><trkpt lat="44.64021" lon="10.47215"><ele>150.66666666666669</ele><time>2026-04-04T11:34:02.993Z</time></trkpt><trkpt lat="44.6402617" lon="10.471925"><ele>150.33333333333334</ele><time>2026-04-04T11:34:03.992Z</time></trkpt><trkpt lat="44.6403267" lon="10.4716983"><ele>150.0</ele><time>2026-04-04T11:34:04.992Z</time></trkpt><trkpt lat="44.640405" lon="10.4714683"><ele>150.33333333333334</ele><time>2026-04-04T11:34:05.993Z</time></trkpt><trkpt lat="44.6404817" lon="10.4712283"><ele>150.66666666666669</ele><time>2026-04-04T11:34:06.992Z</time></trkpt><trkpt lat="44.64056" lon="10.4709783"><ele>151.0</ele><time>2026-04-04T11:34:07.993Z</time></trkpt><trkpt lat="44.640645" lon="10.47072"><ele>151.0</ele><time>2026-04-04T11:34:08.992Z</time></trkpt><trkpt lat="44.6407317" lon="10.4704717"><ele>151.0</ele><time>2026-04-04T11:34:09.992Z</time></trkpt><trkpt lat="44.6408167" lon="10.470215"><ele>151.0</ele><time>2026-04-04T11:34:10.993Z</time></trkpt><trkpt lat="44.6409033" lon="10.4699467"><ele>151.0</ele><time>2026-04-04T11:34:11.993Z</time></trkpt><trkpt lat="44.6409917" lon="10.4696883"><ele>151.0</ele><time>2026-04-04T11:34:12.992Z</time></trkpt><trkpt lat="44.64107" lon="10.4694233"><ele>151.0</ele><time>2026-04-04T11:34:13.993Z</time></trkpt><trkpt lat="44.641145" lon="10.469145"><ele>151.0</ele><time>2026-04-04T11:34:14.992Z</time></trkpt><trkpt lat="44.6412083" lon="10.468865"><ele>151.0</ele><time>2026-04-04T11:34:15.992Z</time></trkpt><trkpt lat="44.64125" lon="10.4685717"><ele>151.0</ele><time>2026-04-04T11:34:16.992Z</time></trkpt><trkpt lat="44.6412783" lon="10.46827"><ele>151.66666666666669</ele><time>2026-04-04T11:34:17.993Z</time></trkpt><trkpt lat="44.6412967" lon="10.4679817"><ele>152.33333333333334</ele><time>2026-04-04T11:34:18.992Z</time></trkpt><trkpt lat="44.64131" lon="10.4677"><ele>153.0</ele><time>2026-04-04T11:34:19.993Z</time></trkpt><trkpt lat="44.641315" lon="10.4674133"><ele>153.33333333333334</ele><time>2026-04-04T11:34:20.992Z</time></trkpt><trkpt lat="44.64131" lon="10.4671333"><ele>153.66666666666669</ele><time>2026-04-04T11:34:21.993Z</time></trkpt><trkpt lat="44.641285" lon="10.4668483"><ele>154.0</ele><time>2026-04-04T11:34:22.992Z</time></trkpt><trkpt lat="44.641245" lon="10.4665633"><ele>154.66666666666669</ele><time>2026-04-04T11:34:23.992Z</time></trkpt><trkpt lat="44.6412017" lon="10.4662867"><ele>155.33333333333334</ele><time>2026-04-04T11:34:24.993Z</time></trkpt><trkpt lat="44.6411467" lon="10.4660067"><ele>156.0</ele><time>2026-04-04T11:34:25.993Z</time></trkpt><trkpt lat="44.64108" lon="10.465725"><ele>156.0</ele><time>2026-04-04T11:34:26.992Z</time></trkpt><trkpt lat="44.640995" lon="10.4654517"><ele>156.0</ele><time>2026-04-04T11:34:27.992Z</time></trkpt><trkpt lat="44.6409" lon="10.4651883"><ele>156.0</ele><time>2026-04-04T11:34:28.992Z</time></trkpt><trkpt lat="44.6407917" lon="10.4649267"><ele>155.66666666666666</ele><time>2026-04-04T11:34:29.993Z</time></trkpt><trkpt lat="44.6406783" lon="10.4646667"><ele>155.33333333333331</ele><time>2026-04-04T11:34:30.993Z</time></trkpt><trkpt lat="44.6405583" lon="10.4644117"><ele>155.0</ele><time>2026-04-04T11:34:31.993Z</time></trkpt><trkpt lat="44.6404267" lon="10.4641583"><ele>155.0</ele><time>2026-04-04T11:34:32.992Z</time></trkpt><trkpt lat="44.6403017" lon="10.4639"><ele>155.0</ele><time>2026-04-04T11:34:33.992Z</time></trkpt><trkpt lat="44.64018" lon="10.4636267"><ele>156.0</ele><time>2026-04-04T11:34:34.992Z</time></trkpt><trkpt lat="44.6400517" lon="10.4633583"><ele>157.0</ele><time>2026-04-04T11:34:35.992Z</time></trkpt><trkpt lat="44.639925" lon="10.4630917"><ele>157.5</ele><time>2026-04-04T11:34:36.992Z</time></trkpt><trkpt lat="44.639795" lon="10.46283"><ele>158.0</ele><time>2026-04-04T11:34:37.992Z</time></trkpt><trkpt lat="44.6396717" lon="10.4625683"><ele>158.0</ele><time>2026-04-04T11:34:38.992Z</time></trkpt><trkpt lat="44.639545" lon="10.46231"><ele>158.0</ele><time>2026-04-04T11:34:39.993Z</time></trkpt><trkpt lat="44.6394167" lon="10.4620517"><ele>158.0</ele><time>2026-04-04T11:34:40.992Z</time></trkpt><trkpt lat="44.6392883" lon="10.46179"><ele>158.33333333333331</ele><time>2026-04-04T11:34:41.992Z</time></trkpt><trkpt lat="44.63916" lon="10.4615333"><ele>158.66666666666666</ele><time>2026-04-04T11:34:42.992Z</time></trkpt><trkpt lat="44.6390333" lon="10.4612817"><ele>159.0</ele><time>2026-04-04T11:34:43.992Z</time></trkpt><trkpt lat="44.6389117" lon="10.46103"><ele>159.66666666666666</ele><time>2026-04-04T11:34:44.992Z</time></trkpt><trkpt lat="44.6387933" lon="10.46078"><ele>160.33333333333331</ele><time>2026-04-04T11:34:45.992Z</time></trkpt><trkpt lat="44.6386733" lon="10.4605317"><ele>161.0</ele><time>2026-04-04T11:34:46.992Z</time></trkpt><trkpt lat="44.6385517" lon="10.460285"><ele>162.0</ele><time>2026-04-04T11:34:47.992Z</time></trkpt><trkpt lat="44.6384367" lon="10.4600467"><ele>163.0</ele><time>2026-04-04T11:34:48.992Z</time></trkpt><trkpt lat="44.6383333" lon="10.45983"><ele>164.0</ele><time>2026-04-04T11:34:49.992Z</time></trkpt><trkpt lat="44.6382433" lon="10.45963"><ele>164.0</ele><time>2026-04-04T11:34:50.992Z</time></trkpt><trkpt lat="44.6381617" lon="10.4594533"><ele>164.0</ele><time>2026-04-04T11:34:51.992Z</time></trkpt><trkpt lat="44.6380967" lon="10.459285"><ele>164.0</ele><time>2026-04-04T11:34:52.993Z</time></trkpt><trkpt lat="44.6380567" lon="10.4591217"><ele>164.0</ele><time>2026-04-04T11:34:53.993Z</time></trkpt><trkpt lat="44.6380417" lon="10.4589583"><ele>164.0</ele><time>2026-04-04T11:34:54.993Z</time></trkpt><trkpt lat="44.63803" lon="10.4588017"><ele>164.0</ele><time>2026-04-04T11:34:55.992Z</time></trkpt><trkpt lat="44.6380017" lon="10.4586483"><ele>164.0</ele><time>2026-04-04T11:34:56.992Z</time></trkpt><trkpt lat="44.6379467" lon="10.4584917"><ele>164.0</ele><time>2026-04-04T11:34:57.992Z</time></trkpt><trkpt lat="44.6378417" lon="10.4583367"><ele>164.66666666666666</ele><time>2026-04-04T11:34:58.992Z</time></trkpt><trkpt lat="44.6377167" lon="10.458215"><ele>165.33333333333334</ele><time>2026-04-04T11:34:59.993Z</time></trkpt><trkpt lat="44.6375967" lon="10.4580683"><ele>166.0</ele><time>2026-04-04T11:35:00.992Z</time></trkpt><trkpt lat="44.6375017" lon="10.45786"><ele>166.0</ele><time>2026-04-04T11:35:01.992Z</time></trkpt><trkpt lat="44.63742" lon="10.4576233"><ele>166.0</ele><time>2026-04-04T11:35:02.992Z</time></trkpt><trkpt lat="44.637345" lon="10.4573667"><ele>166.0</ele><time>2026-04-04T11:35:03.992Z</time></trkpt><trkpt lat="44.6372717" lon="10.4571183"><ele>166.0</ele><time>2026-04-04T11:35:04.993Z</time></trkpt><trkpt lat="44.6371917" lon="10.4568633"><ele>166.0</ele><time>2026-04-04T11:35:05.992Z</time></trkpt><trkpt lat="44.6371083" lon="10.4566"><ele>166.0</ele><time>2026-04-04T11:35:06.993Z</time></trkpt><trkpt lat="44.6370283" lon="10.4563267"><ele>166.66666666666669</ele><time>2026-04-04T11:35:07.993Z</time></trkpt><trkpt lat="44.636935" lon="10.456055"><ele>167.33333333333334</ele><time>2026-04-04T11:35:08.992Z</time></trkpt><trkpt lat="44.636845" lon="10.4557867"><ele>168.0</ele><time>2026-04-04T11:35:09.992Z</time></trkpt><trkpt lat="44.6367533" lon="10.45551"><ele>167.33333333333334</ele><time>2026-04-04T11:35:10.993Z</time></trkpt><trkpt lat="44.6366633" lon="10.455235"><ele>166.66666666666669</ele><time>2026-04-04T11:35:11.992Z</time></trkpt><trkpt lat="44.6365683" lon="10.4549533"><ele>166.0</ele><time>2026-04-04T11:35:12.992Z</time></trkpt><trkpt lat="44.6364783" lon="10.454675"><ele>165.33333333333334</ele><time>2026-04-04T11:35:13.992Z</time></trkpt><trkpt lat="44.6363883" lon="10.4544017"><ele>164.66666666666666</ele><time>2026-04-04T11:35:14.992Z</time></trkpt><trkpt lat="44.6363083" lon="10.45412"><ele>164.0</ele><time>2026-04-04T11:35:15.992Z</time></trkpt><trkpt lat="44.6362233" lon="10.453835"><ele>166.0</ele><time>2026-04-04T11:35:16.992Z</time></trkpt><trkpt lat="44.6361333" lon="10.45354"><ele>168.0</ele><time>2026-04-04T11:35:17.992Z</time></trkpt><trkpt lat="44.6360467" lon="10.4532483"><ele>168.0</ele><time>2026-04-04T11:35:18.992Z</time></trkpt><trkpt lat="44.6359617" lon="10.4529667"><ele>168.0</ele><time>2026-04-04T11:35:19.992Z</time></trkpt><trkpt lat="44.6358733" lon="10.4527017"><ele>168.0</ele><time>2026-04-04T11:35:20.992Z</time></trkpt><trkpt lat="44.635785" lon="10.4524317"><ele>167.66666666666666</ele><time>2026-04-04T11:35:21.992Z</time></trkpt><trkpt lat="44.6356933" lon="10.45216"><ele>167.33333333333331</ele><time>2026-04-04T11:35:22.992Z</time></trkpt><trkpt lat="44.6356133" lon="10.4518917"><ele>167.0</ele><time>2026-04-04T11:35:23.992Z</time></trkpt><trkpt lat="44.635525" lon="10.4516183"><ele>166.66666666666666</ele><time>2026-04-04T11:35:24.993Z</time></trkpt><trkpt lat="44.6354367" lon="10.451345"><ele>166.33333333333334</ele><time>2026-04-04T11:35:25.992Z</time></trkpt><trkpt lat="44.6353467" lon="10.4510767"><ele>166.0</ele><time>2026-04-04T11:35:26.992Z</time></trkpt><trkpt lat="44.6352583" lon="10.4508017"><ele>168.0</ele><time>2026-04-04T11:35:27.992Z</time></trkpt><trkpt lat="44.6351533" lon="10.45053"><ele>170.0</ele><time>2026-04-04T11:35:28.993Z</time></trkpt><trkpt lat="44.63505" lon="10.4502683"><ele>172.0</ele><time>2026-04-04T11:35:29.992Z</time></trkpt><trkpt lat="44.634945" lon="10.4500233"><ele>172.0</ele><time>2026-04-04T11:35:30.992Z</time></trkpt><trkpt lat="44.6348517" lon="10.4498033"><ele>172.0</ele><time>2026-04-04T11:35:31.992Z</time></trkpt><trkpt lat="44.6347717" lon="10.449605"><ele>172.0</ele><time>2026-04-04T11:35:32.992Z</time></trkpt><trkpt lat="44.6346983" lon="10.4494267"><ele>171.5</ele><time>2026-04-04T11:35:33.993Z</time></trkpt><trkpt lat="44.63463" lon="10.4492467"><ele>171.0</ele><time>2026-04-04T11:35:34.992Z</time></trkpt><trkpt lat="44.6345617" lon="10.4490783"><ele>170.5</ele><time>2026-04-04T11:35:35.992Z</time></trkpt><trkpt lat="44.6345033" lon="10.4489067"><ele>170.0</ele><time>2026-04-04T11:35:36.993Z</time></trkpt><trkpt lat="44.6344667" lon="10.4487383"><ele>170.0</ele><time>2026-04-04T11:35:37.992Z</time></trkpt><trkpt lat="44.6344433" lon="10.4485483"><ele>170.0</ele><time>2026-04-04T11:35:38.992Z</time></trkpt><trkpt lat="44.634435" lon="10.4483467"><ele>170.0</ele><time>2026-04-04T11:35:39.992Z</time></trkpt><trkpt lat="44.6344717" lon="10.4481383"><ele>170.0</ele><time>2026-04-04T11:35:40.993Z</time></trkpt><trkpt lat="44.634515" lon="10.44789"><ele>170.33333333333331</ele><time>2026-04-04T11:35:41.992Z</time></trkpt><trkpt lat="44.634585" lon="10.4476317"><ele>170.66666666666666</ele><time>2026-04-04T11:35:42.992Z</time></trkpt><trkpt lat="44.6346483" lon="10.44737"><ele>171.0</ele><time>2026-04-04T11:35:43.992Z</time></trkpt><trkpt lat="44.6347183" lon="10.447115"><ele>171.0</ele><time>2026-04-04T11:35:44.992Z</time></trkpt><trkpt lat="44.63478" lon="10.446845"><ele>171.0</ele><time>2026-04-04T11:35:45.993Z</time></trkpt><trkpt lat="44.634845" lon="10.4465783"><ele>171.0</ele><time>2026-04-04T11:35:46.993Z</time></trkpt><trkpt lat="44.634905" lon="10.44631"><ele>171.66666666666666</ele><time>2026-04-04T11:35:47.992Z</time></trkpt><trkpt lat="44.6349617" lon="10.44604"><ele>172.33333333333331</ele><time>2026-04-04T11:35:48.993Z</time></trkpt><trkpt lat="44.6350267" lon="10.4457583"><ele>173.0</ele><time>2026-04-04T11:35:49.992Z</time></trkpt><trkpt lat="44.635085" lon="10.44547"><ele>172.66666666666666</ele><time>2026-04-04T11:35:50.992Z</time></trkpt><trkpt lat="44.6351517" lon="10.4451983"><ele>172.33333333333334</ele><time>2026-04-04T11:35:51.993Z</time></trkpt><trkpt lat="44.6352133" lon="10.444915"><ele>172.0</ele><time>2026-04-04T11:35:52.992Z</time></trkpt><trkpt lat="44.6352783" lon="10.4446333"><ele>172.0</ele><time>2026-04-04T11:35:53.992Z</time></trkpt><trkpt lat="44.63534" lon="10.444345"><ele>172.0</ele><time>2026-04-04T11:35:54.992Z</time></trkpt><trkpt lat="44.6354017" lon="10.4440683"><ele>172.0</ele><time>2026-04-04T11:35:55.993Z</time></trkpt><trkpt lat="44.635465" lon="10.4437867"><ele>172.66666666666669</ele><time>2026-04-04T11:35:56.992Z</time></trkpt><trkpt lat="44.635525" lon="10.4435183"><ele>173.33333333333334</ele><time>2026-04-04T11:35:57.993Z</time></trkpt><trkpt lat="44.6355867" lon="10.4432483"><ele>174.0</ele><time>2026-04-04T11:35:58.992Z</time></trkpt><trkpt lat="44.63563" lon="10.4429817"><ele>173.66666666666666</ele><time>2026-04-04T11:35:59.992Z</time></trkpt><trkpt lat="44.63566" lon="10.442715"><ele>173.33333333333331</ele><time>2026-04-04T11:36:00.992Z</time></trkpt><trkpt lat="44.63564" lon="10.442465"><ele>173.0</ele><time>2026-04-04T11:36:01.992Z</time></trkpt><trkpt lat="44.6355867" lon="10.4422033"><ele>171.66666666666666</ele><time>2026-04-04T11:36:02.992Z</time></trkpt><trkpt lat="44.63552" lon="10.441945"><ele>170.33333333333334</ele><time>2026-04-04T11:36:03.992Z</time></trkpt><trkpt lat="44.6354383" lon="10.4416833"><ele>169.0</ele><time>2026-04-04T11:36:04.993Z</time></trkpt><trkpt lat="44.6353483" lon="10.4414333"><ele>169.66666666666669</ele><time>2026-04-04T11:36:05.992Z</time></trkpt><trkpt lat="44.6352617" lon="10.4411767"><ele>170.33333333333334</ele><time>2026-04-04T11:36:06.992Z</time></trkpt><trkpt lat="44.6351767" lon="10.4409183"><ele>171.0</ele><time>2026-04-04T11:36:07.993Z</time></trkpt><trkpt lat="44.6350933" lon="10.4406583"><ele>170.33333333333334</ele><time>2026-04-04T11:36:08.993Z</time></trkpt><trkpt lat="44.63501" lon="10.44038"><ele>169.66666666666669</ele><time>2026-04-04T11:36:09.993Z</time></trkpt><trkpt lat="44.63493" lon="10.4401167"><ele>169.0</ele><time>2026-04-04T11:36:10.992Z</time></trkpt><trkpt lat="44.634845" lon="10.4398567"><ele>168.66666666666669</ele><time>2026-04-04T11:36:11.992Z</time></trkpt><trkpt lat="44.6347633" lon="10.439595"><ele>168.33333333333334</ele><time>2026-04-04T11:36:12.992Z</time></trkpt><trkpt lat="44.6346783" lon="10.439335"><ele>168.0</ele><time>2026-04-04T11:36:13.993Z</time></trkpt><trkpt lat="44.6346017" lon="10.439075"><ele>168.0</ele><time>2026-04-04T11:36:14.993Z</time></trkpt><trkpt lat="44.6345267" lon="10.438825"><ele>168.0</ele><time>2026-04-04T11:36:15.992Z</time></trkpt><trkpt lat="44.63445" lon="10.4385817"><ele>168.0</ele><time>2026-04-04T11:36:16.993Z</time></trkpt><trkpt lat="44.634365" lon="10.43835"><ele>168.33333333333334</ele><time>2026-04-04T11:36:17.992Z</time></trkpt><trkpt lat="44.6342667" lon="10.438125"><ele>168.66666666666669</ele><time>2026-04-04T11:36:18.992Z</time></trkpt><trkpt lat="44.6341433" lon="10.437915"><ele>169.0</ele><time>2026-04-04T11:36:19.992Z</time></trkpt><trkpt lat="44.6340017" lon="10.437715"><ele>169.0</ele><time>2026-04-04T11:36:20.993Z</time></trkpt><trkpt lat="44.6338483" lon="10.4375283"><ele>169.0</ele><time>2026-04-04T11:36:21.992Z</time></trkpt><trkpt lat="44.6337" lon="10.4373517"><ele>169.0</ele><time>2026-04-04T11:36:22.993Z</time></trkpt><trkpt lat="44.633555" lon="10.4371533"><ele>169.33333333333334</ele><time>2026-04-04T11:36:23.993Z</time></trkpt><trkpt lat="44.63341" lon="10.43695"><ele>169.66666666666666</ele><time>2026-04-04T11:36:24.993Z</time></trkpt><trkpt lat="44.6332833" lon="10.43673"><ele>170.0</ele><time>2026-04-04T11:36:25.992Z</time></trkpt><trkpt lat="44.6331683" lon="10.436505"><ele>170.0</ele><time>2026-04-04T11:36:26.992Z</time></trkpt><trkpt lat="44.6330517" lon="10.436285"><ele>170.0</ele><time>2026-04-04T11:36:27.993Z</time></trkpt><trkpt lat="44.6329367" lon="10.4360833"><ele>170.0</ele><time>2026-04-04T11:36:28.992Z</time></trkpt><trkpt lat="44.6328083" lon="10.4359067"><ele>171.0</ele><time>2026-04-04T11:36:29.992Z</time></trkpt><trkpt lat="44.6326717" lon="10.4357733"><ele>172.0</ele><time>2026-04-04T11:36:30.992Z</time></trkpt><trkpt lat="44.6325383" lon="10.435655"><ele>173.0</ele><time>2026-04-04T11:36:31.992Z</time></trkpt><trkpt lat="44.63241" lon="10.435575"><ele>173.0</ele><time>2026-04-04T11:36:32.993Z</time></trkpt><trkpt lat="44.6322867" lon="10.435495"><ele>173.0</ele><time>2026-04-04T11:36:33.992Z</time></trkpt><trkpt lat="44.63218" lon="10.43541"><ele>173.0</ele><time>2026-04-04T11:36:34.992Z</time></trkpt><trkpt lat="44.63208" lon="10.4353367"><ele>173.0</ele><time>2026-04-04T11:36:35.992Z</time></trkpt><trkpt lat="44.6320083" lon="10.435275"><ele>173.2</ele><time>2026-04-04T11:36:36.992Z</time></trkpt><trkpt lat="44.6319267" lon="10.4351667"><ele>173.4</ele><time>2026-04-04T11:36:38.992Z</time></trkpt><trkpt lat="44.6318817" lon="10.435055"><ele>173.6</ele><time>2026-04-04T11:36:40.992Z</time></trkpt><trkpt lat="44.631855" lon="10.4349033"><ele>173.79999999999998</ele><time>2026-04-04T11:36:42.992Z</time></trkpt><trkpt lat="44.6318517" lon="10.43479"><ele>174.0</ele><time>2026-04-04T11:36:43.992Z</time></trkpt><trkpt lat="44.6318717" lon="10.4346633"><ele>173.79999999999998</ele><time>2026-04-04T11:36:44.992Z</time></trkpt><trkpt lat="44.6319217" lon="10.4345433"><ele>173.6</ele><time>2026-04-04T11:36:45.992Z</time></trkpt><trkpt lat="44.6319983" lon="10.4344467"><ele>173.4</ele><time>2026-04-04T11:36:46.992Z</time></trkpt><trkpt lat="44.6320833" lon="10.434355"><ele>173.2</ele><time>2026-04-04T11:36:47.992Z</time></trkpt><trkpt lat="44.6321817" lon="10.4342817"><ele>173.0</ele><time>2026-04-04T11:36:48.992Z</time></trkpt><trkpt lat="44.632295" lon="10.4342267"><ele>172.25</ele><time>2026-04-04T11:36:49.992Z</time></trkpt><trkpt lat="44.6324033" lon="10.4341833"><ele>171.5</ele><time>2026-04-04T11:36:50.992Z</time></trkpt><trkpt lat="44.6325083" lon="10.434125"><ele>170.75</ele><time>2026-04-04T11:36:51.993Z</time></trkpt><trkpt lat="44.6326183" lon="10.4340683"><ele>170.0</ele><time>2026-04-04T11:36:52.992Z</time></trkpt><trkpt lat="44.6327283" lon="10.4339983"><ele>169.25</ele><time>2026-04-04T11:36:53.993Z</time></trkpt><trkpt lat="44.6328383" lon="10.43392"><ele>168.5</ele><time>2026-04-04T11:36:54.992Z</time></trkpt><trkpt lat="44.6329483" lon="10.4338383"><ele>167.75</ele><time>2026-04-04T11:36:55.992Z</time></trkpt><trkpt lat="44.6330667" lon="10.433745"><ele>167.0</ele><time>2026-04-04T11:36:56.992Z</time></trkpt><trkpt lat="44.6331817" lon="10.4336533"><ele>167.0</ele><time>2026-04-04T11:36:57.992Z</time></trkpt><trkpt lat="44.633285" lon="10.4335517"><ele>167.0</ele><time>2026-04-04T11:36:58.992Z</time></trkpt><trkpt lat="44.6333867" lon="10.4334533"><ele>167.0</ele><time>2026-04-04T11:36:59.992Z</time></trkpt><trkpt lat="44.6334733" lon="10.43336"><ele>167.0</ele><time>2026-04-04T11:37:00.993Z</time></trkpt><trkpt lat="44.6335583" lon="10.4332667"><ele>167.0</ele><time>2026-04-04T11:37:01.992Z</time></trkpt><trkpt lat="44.633635" lon="10.43317"><ele>167.0</ele><time>2026-04-04T11:37:02.992Z</time></trkpt><trkpt lat="44.633705" lon="10.4330867"><ele>167.0</ele><time>2026-04-04T11:37:03.993Z</time></trkpt><trkpt lat="44.63377" lon="10.4330167"><ele>167.0</ele><time>2026-04-04T11:37:04.992Z</time></trkpt><trkpt lat="44.63383" lon="10.43295"><ele>167.0</ele><time>2026-04-04T11:37:05.993Z</time></trkpt><trkpt lat="44.6338783" lon="10.43289"><ele>167.0</ele><time>2026-04-04T11:37:06.992Z</time></trkpt><trkpt lat="44.63393" lon="10.43283"><ele>166.0</ele><time>2026-04-04T11:37:07.993Z</time></trkpt><trkpt lat="44.6339867" lon="10.4327633"><ele>165.0</ele><time>2026-04-04T11:37:08.992Z</time></trkpt><trkpt lat="44.634055" lon="10.4326833"><ele>164.0</ele><time>2026-04-04T11:37:09.992Z</time></trkpt><trkpt lat="44.6341383" lon="10.432585"><ele>163.0</ele><time>2026-04-04T11:37:10.992Z</time></trkpt><trkpt lat="44.6342333" lon="10.4324667"><ele>162.0</ele><time>2026-04-04T11:37:11.992Z</time></trkpt><trkpt lat="44.63435" lon="10.43232"><ele>162.33333333333334</ele><time>2026-04-04T11:37:12.992Z</time></trkpt><trkpt lat="44.634495" lon="10.4321617"><ele>162.66666666666669</ele><time>2026-04-04T11:37:13.992Z</time></trkpt><trkpt lat="44.6346433" lon="10.4319867"><ele>163.0</ele><time>2026-04-04T11:37:14.992Z</time></trkpt><trkpt lat="44.634795" lon="10.4318133"><ele>162.0</ele><time>2026-04-04T11:37:15.993Z</time></trkpt><trkpt lat="44.6349417" lon="10.431635"><ele>161.0</ele><time>2026-04-04T11:37:16.993Z</time></trkpt><trkpt lat="44.6350867" lon="10.4314517"><ele>160.0</ele><time>2026-04-04T11:37:17.992Z</time></trkpt><trkpt lat="44.6352283" lon="10.43124"><ele>159.33333333333334</ele><time>2026-04-04T11:37:18.992Z</time></trkpt><trkpt lat="44.6353567" lon="10.4310117"><ele>158.66666666666666</ele><time>2026-04-04T11:37:19.992Z</time></trkpt><trkpt lat="44.6354767" lon="10.4307767"><ele>158.0</ele><time>2026-04-04T11:37:20.992Z</time></trkpt><trkpt lat="44.6355833" lon="10.43053"><ele>157.66666666666666</ele><time>2026-04-04T11:37:21.992Z</time></trkpt><trkpt lat="44.6356733" lon="10.4302817"><ele>157.33333333333334</ele><time>2026-04-04T11:37:22.993Z</time></trkpt><trkpt lat="44.6357583" lon="10.43002"><ele>157.0</ele><time>2026-04-04T11:37:23.993Z</time></trkpt><trkpt lat="44.6358483" lon="10.4297633"><ele>157.33333333333334</ele><time>2026-04-04T11:37:24.992Z</time></trkpt><trkpt lat="44.6359333" lon="10.4295067"><ele>157.66666666666666</ele><time>2026-04-04T11:37:25.993Z</time></trkpt><trkpt lat="44.6360267" lon="10.4292517"><ele>158.0</ele><time>2026-04-04T11:37:26.993Z</time></trkpt><trkpt lat="44.6361233" lon="10.4290067"><ele>157.33333333333331</ele><time>2026-04-04T11:37:27.992Z</time></trkpt><trkpt lat="44.6362217" lon="10.4287633"><ele>156.66666666666666</ele><time>2026-04-04T11:37:28.992Z</time></trkpt><trkpt lat="44.636315" lon="10.4285217"><ele>156.0</ele><time>2026-04-04T11:37:29.993Z</time></trkpt><trkpt lat="44.6364117" lon="10.4282833"><ele>156.0</ele><time>2026-04-04T11:37:30.993Z</time></trkpt><trkpt lat="44.6365133" lon="10.4280417"><ele>156.0</ele><time>2026-04-04T11:37:31.992Z</time></trkpt><trkpt lat="44.6366133" lon="10.4278"><ele>156.0</ele><time>2026-04-04T11:37:32.992Z</time></trkpt><trkpt lat="44.6367133" lon="10.4275533"><ele>155.66666666666666</ele><time>2026-04-04T11:37:33.993Z</time></trkpt><trkpt lat="44.636815" lon="10.4273133"><ele>155.33333333333331</ele><time>2026-04-04T11:37:34.992Z</time></trkpt><trkpt lat="44.6369183" lon="10.427075"><ele>155.0</ele><time>2026-04-04T11:37:35.992Z</time></trkpt><trkpt lat="44.6370167" lon="10.42682"><ele>154.66666666666666</ele><time>2026-04-04T11:37:36.993Z</time></trkpt><trkpt lat="44.6371083" lon="10.426575"><ele>154.33333333333334</ele><time>2026-04-04T11:37:37.992Z</time></trkpt><trkpt lat="44.6371833" lon="10.426325"><ele>154.0</ele><time>2026-04-04T11:37:38.992Z</time></trkpt><trkpt lat="44.6372417" lon="10.4260717"><ele>154.0</ele><time>2026-04-04T11:37:39.992Z</time></trkpt><trkpt lat="44.63729" lon="10.42583"><ele>154.0</ele><time>2026-04-04T11:37:40.992Z</time></trkpt><trkpt lat="44.6373317" lon="10.4256067"><ele>154.0</ele><time>2026-04-04T11:37:41.992Z</time></trkpt><trkpt lat="44.6373733" lon="10.425385"><ele>154.0</ele><time>2026-04-04T11:37:42.992Z</time></trkpt><trkpt lat="44.63741" lon="10.4251717"><ele>154.0</ele><time>2026-04-04T11:37:43.992Z</time></trkpt><trkpt lat="44.6374517" lon="10.4249733"><ele>154.0</ele><time>2026-04-04T11:37:44.993Z</time></trkpt><trkpt lat="44.6374967" lon="10.4248033"><ele>154.0</ele><time>2026-04-04T11:37:45.992Z</time></trkpt><trkpt lat="44.6375467" lon="10.424655"><ele>153.8</ele><time>2026-04-04T11:37:46.992Z</time></trkpt><trkpt lat="44.637605" lon="10.4245317"><ele>153.60000000000002</ele><time>2026-04-04T11:37:47.993Z</time></trkpt><trkpt lat="44.6376617" lon="10.4244133"><ele>153.4</ele><time>2026-04-04T11:37:48.993Z</time></trkpt><trkpt lat="44.6376933" lon="10.4242917"><ele>153.20000000000002</ele><time>2026-04-04T11:37:49.993Z</time></trkpt><trkpt lat="44.637685" lon="10.4241483"><ele>153.0</ele><time>2026-04-04T11:37:50.992Z</time></trkpt><trkpt lat="44.637635" lon="10.4239967"><ele>153.0</ele><time>2026-04-04T11:37:51.992Z</time></trkpt><trkpt lat="44.63756" lon="10.4238367"><ele>153.0</ele><time>2026-04-04T11:37:52.993Z</time></trkpt><trkpt lat="44.6374983" lon="10.4236567"><ele>153.0</ele><time>2026-04-04T11:37:53.992Z</time></trkpt><trkpt lat="44.6374517" lon="10.4234483"><ele>153.0</ele><time>2026-04-04T11:37:54.992Z</time></trkpt><trkpt lat="44.6374033" lon="10.423225"><ele>153.0</ele><time>2026-04-04T11:37:55.993Z</time></trkpt><trkpt lat="44.63733" lon="10.4229983"><ele>153.0</ele><time>2026-04-04T11:37:56.992Z</time></trkpt><trkpt lat="44.6372367" lon="10.4227683"><ele>153.0</ele><time>2026-04-04T11:37:57.992Z</time></trkpt><trkpt lat="44.63713" lon="10.4225567"><ele>152.0</ele><time>2026-04-04T11:37:58.993Z</time></trkpt><trkpt lat="44.6369967" lon="10.422365"><ele>151.0</ele><time>2026-04-04T11:37:59.992Z</time></trkpt><trkpt lat="44.63685" lon="10.422195"><ele>150.0</ele><time>2026-04-04T11:38:00.993Z</time></trkpt><trkpt lat="44.6366917" lon="10.422035"><ele>149.33333333333334</ele><time>2026-04-04T11:38:01.992Z</time></trkpt><trkpt lat="44.63652" lon="10.4218983"><ele>148.66666666666669</ele><time>2026-04-04T11:38:02.992Z</time></trkpt><trkpt lat="44.6363417" lon="10.4217817"><ele>148.0</ele><time>2026-04-04T11:38:03.992Z</time></trkpt><trkpt lat="44.6361533" lon="10.4216817"><ele>147.66666666666669</ele><time>2026-04-04T11:38:04.992Z</time></trkpt><trkpt lat="44.6359633" lon="10.4215967"><ele>147.33333333333334</ele><time>2026-04-04T11:38:05.992Z</time></trkpt><trkpt lat="44.6357683" lon="10.4215367"><ele>147.0</ele><time>2026-04-04T11:38:06.993Z</time></trkpt><trkpt lat="44.6355617" lon="10.421505"><ele>147.0</ele><time>2026-04-04T11:38:07.992Z</time></trkpt><trkpt lat="44.635345" lon="10.4214983"><ele>147.0</ele><time>2026-04-04T11:38:08.992Z</time></trkpt><trkpt lat="44.63512" lon="10.4215"><ele>147.0</ele><time>2026-04-04T11:38:09.992Z</time></trkpt><trkpt lat="44.6348967" lon="10.4214967"><ele>147.0</ele><time>2026-04-04T11:38:10.993Z</time></trkpt><trkpt lat="44.6346767" lon="10.4214833"><ele>147.0</ele><time>2026-04-04T11:38:11.992Z</time></trkpt><trkpt lat="44.6344567" lon="10.4214717"><ele>147.0</ele><time>2026-04-04T11:38:12.992Z</time></trkpt><trkpt lat="44.6342417" lon="10.4214583"><ele>147.33333333333334</ele><time>2026-04-04T11:38:13.993Z</time></trkpt><trkpt lat="44.634025" lon="10.42145"><ele>147.66666666666669</ele><time>2026-04-04T11:38:14.993Z</time></trkpt><trkpt lat="44.6338067" lon="10.4214383"><ele>148.0</ele><time>2026-04-04T11:38:15.992Z</time></trkpt><trkpt lat="44.6335967" lon="10.4214233"><ele>148.0</ele><time>2026-04-04T11:38:16.993Z</time></trkpt><trkpt lat="44.6333833" lon="10.421405"><ele>148.0</ele><time>2026-04-04T11:38:17.993Z</time></trkpt><trkpt lat="44.6331767" lon="10.4213883"><ele>148.0</ele><time>2026-04-04T11:38:18.993Z</time></trkpt><trkpt lat="44.63296" lon="10.42139"><ele>148.66666666666669</ele><time>2026-04-04T11:38:19.992Z</time></trkpt><trkpt lat="44.6327467" lon="10.42138"><ele>149.33333333333334</ele><time>2026-04-04T11:38:20.993Z</time></trkpt><trkpt lat="44.6325267" lon="10.4213733"><ele>150.0</ele><time>2026-04-04T11:38:21.992Z</time></trkpt><trkpt lat="44.632305" lon="10.4213633"><ele>150.0</ele><time>2026-04-04T11:38:22.992Z</time></trkpt><trkpt lat="44.632085" lon="10.42135"><ele>150.0</ele><time>2026-04-04T11:38:23.992Z</time></trkpt><trkpt lat="44.63186" lon="10.4213433"><ele>150.0</ele><time>2026-04-04T11:38:24.993Z</time></trkpt><trkpt lat="44.6316333" lon="10.4213367"><ele>149.66666666666666</ele><time>2026-04-04T11:38:25.992Z</time></trkpt><trkpt lat="44.6314117" lon="10.4213217"><ele>149.33333333333331</ele><time>2026-04-04T11:38:26.992Z</time></trkpt><trkpt lat="44.6311883" lon="10.4213067"><ele>149.0</ele><time>2026-04-04T11:38:27.992Z</time></trkpt><trkpt lat="44.6309633" lon="10.4212967"><ele>149.0</ele><time>2026-04-04T11:38:28.992Z</time></trkpt><trkpt lat="44.6307317" lon="10.4212867"><ele>149.0</ele><time>2026-04-04T11:38:29.992Z</time></trkpt><trkpt lat="44.6305083" lon="10.421275"><ele>149.33333333333331</ele><time>2026-04-04T11:38:30.992Z</time></trkpt><trkpt lat="44.6302867" lon="10.4212567"><ele>149.66666666666666</ele><time>2026-04-04T11:38:31.993Z</time></trkpt><trkpt lat="44.6300617" lon="10.4212233"><ele>150.0</ele><time>2026-04-04T11:38:32.992Z</time></trkpt><trkpt lat="44.6298417" lon="10.42119"><ele>150.0</ele><time>2026-04-04T11:38:33.993Z</time></trkpt><trkpt lat="44.629615" lon="10.42115"><ele>150.0</ele><time>2026-04-04T11:38:34.993Z</time></trkpt><trkpt lat="44.6293983" lon="10.4211033"><ele>150.0</ele><time>2026-04-04T11:38:35.993Z</time></trkpt><trkpt lat="44.6291833" lon="10.4210567"><ele>150.33333333333334</ele><time>2026-04-04T11:38:36.993Z</time></trkpt><trkpt lat="44.6289717" lon="10.4210017"><ele>150.66666666666669</ele><time>2026-04-04T11:38:37.992Z</time></trkpt><trkpt lat="44.6287717" lon="10.4209533"><ele>151.0</ele><time>2026-04-04T11:38:38.992Z</time></trkpt><trkpt lat="44.6285833" lon="10.4209"><ele>152.0</ele><time>2026-04-04T11:38:39.992Z</time></trkpt><trkpt lat="44.6284" lon="10.4208567"><ele>153.0</ele><time>2026-04-04T11:38:40.992Z</time></trkpt><trkpt lat="44.6282367" lon="10.4208117"><ele>154.0</ele><time>2026-04-04T11:38:41.993Z</time></trkpt><trkpt lat="44.6280933" lon="10.4207567"><ele>154.0</ele><time>2026-04-04T11:38:42.992Z</time></trkpt><trkpt lat="44.6279667" lon="10.4206917"><ele>154.0</ele><time>2026-04-04T11:38:43.992Z</time></trkpt><trkpt lat="44.62786" lon="10.4206267"><ele>154.0</ele><time>2026-04-04T11:38:44.992Z</time></trkpt><trkpt lat="44.6277783" lon="10.420505"><ele>154.0</ele><time>2026-04-04T11:38:45.992Z</time></trkpt><trkpt lat="44.6277" lon="10.42036"><ele>154.75</ele><time>2026-04-04T11:38:46.992Z</time></trkpt><trkpt lat="44.6276283" lon="10.4202117"><ele>155.5</ele><time>2026-04-04T11:38:47.993Z</time></trkpt><trkpt lat="44.6275817" lon="10.4200217"><ele>156.25</ele><time>2026-04-04T11:38:48.993Z</time></trkpt><trkpt lat="44.62755" lon="10.4198133"><ele>157.0</ele><time>2026-04-04T11:38:49.992Z</time></trkpt><trkpt lat="44.6275317" lon="10.4195933"><ele>157.33333333333334</ele><time>2026-04-04T11:38:50.993Z</time></trkpt><trkpt lat="44.6275267" lon="10.41937"><ele>157.66666666666666</ele><time>2026-04-04T11:38:51.992Z</time></trkpt><trkpt lat="44.6275383" lon="10.4191333"><ele>158.0</ele><time>2026-04-04T11:38:52.992Z</time></trkpt><trkpt lat="44.6275867" lon="10.4188933"><ele>157.66666666666666</ele><time>2026-04-04T11:38:53.992Z</time></trkpt><trkpt lat="44.6276533" lon="10.41865"><ele>157.33333333333334</ele><time>2026-04-04T11:38:54.993Z</time></trkpt><trkpt lat="44.6277117" lon="10.4183967"><ele>157.0</ele><time>2026-04-04T11:38:55.992Z</time></trkpt><trkpt lat="44.62779" lon="10.4181533"><ele>156.66666666666669</ele><time>2026-04-04T11:38:56.992Z</time></trkpt><trkpt lat="44.6278633" lon="10.4179017"><ele>156.33333333333334</ele><time>2026-04-04T11:38:57.992Z</time></trkpt><trkpt lat="44.62794" lon="10.4176517"><ele>156.0</ele><time>2026-04-04T11:38:58.992Z</time></trkpt><trkpt lat="44.628025" lon="10.4174"><ele>156.0</ele><time>2026-04-04T11:38:59.993Z</time></trkpt><trkpt lat="44.6281083" lon="10.417165"><ele>156.0</ele><time>2026-04-04T11:39:00.992Z</time></trkpt><trkpt lat="44.62819" lon="10.4169333"><ele>156.0</ele><time>2026-04-04T11:39:01.992Z</time></trkpt><trkpt lat="44.6282633" lon="10.41667"><ele>156.0</ele><time>2026-04-04T11:39:02.992Z</time></trkpt><trkpt lat="44.6283433" lon="10.4164367"><ele>156.0</ele><time>2026-04-04T11:39:03.992Z</time></trkpt><trkpt lat="44.6284217" lon="10.416195"><ele>156.0</ele><time>2026-04-04T11:39:04.992Z</time></trkpt><trkpt lat="44.628495" lon="10.4159683"><ele>155.33333333333334</ele><time>2026-04-04T11:39:05.992Z</time></trkpt><trkpt lat="44.6285733" lon="10.415725"><ele>154.66666666666669</ele><time>2026-04-04T11:39:06.992Z</time></trkpt><trkpt lat="44.628645" lon="10.41549"><ele>154.0</ele><time>2026-04-04T11:39:07.992Z</time></trkpt><trkpt lat="44.62872" lon="10.4152567"><ele>152.0</ele><time>2026-04-04T11:39:08.992Z</time></trkpt><trkpt lat="44.628795" lon="10.4150267"><ele>150.0</ele><time>2026-04-04T11:39:09.993Z</time></trkpt><trkpt lat="44.6288767" lon="10.4148017"><ele>148.0</ele><time>2026-04-04T11:39:10.993Z</time></trkpt><trkpt lat="44.628945" lon="10.4145667"><ele>148.0</ele><time>2026-04-04T11:39:11.992Z</time></trkpt><trkpt lat="44.6290133" lon="10.41435"><ele>148.0</ele><time>2026-04-04T11:39:12.992Z</time></trkpt><trkpt lat="44.6290833" lon="10.4141267"><ele>148.0</ele><time>2026-04-04T11:39:13.992Z</time></trkpt><trkpt lat="44.6291483" lon="10.413905"><ele>148.66666666666669</ele><time>2026-04-04T11:39:14.993Z</time></trkpt><trkpt lat="44.6292133" lon="10.41368"><ele>149.33333333333334</ele><time>2026-04-04T11:39:15.992Z</time></trkpt><trkpt lat="44.6292833" lon="10.4134467"><ele>150.0</ele><time>2026-04-04T11:39:16.992Z</time></trkpt><trkpt lat="44.629355" lon="10.413215"><ele>150.0</ele><time>2026-04-04T11:39:17.993Z</time></trkpt><trkpt lat="44.6294267" lon="10.4129917"><ele>150.0</ele><time>2026-04-04T11:39:18.993Z</time></trkpt><trkpt lat="44.6295033" lon="10.412755"><ele>150.0</ele><time>2026-04-04T11:39:19.992Z</time></trkpt><trkpt lat="44.6295867" lon="10.4125183"><ele>151.0</ele><time>2026-04-04T11:39:20.992Z</time></trkpt><trkpt lat="44.6296683" lon="10.4122767"><ele>152.0</ele><time>2026-04-04T11:39:21.992Z</time></trkpt><trkpt lat="44.6297467" lon="10.4120317"><ele>153.0</ele><time>2026-04-04T11:39:22.992Z</time></trkpt><trkpt lat="44.6298267" lon="10.411795"><ele>153.66666666666666</ele><time>2026-04-04T11:39:23.992Z</time></trkpt><trkpt lat="44.629895" lon="10.4115567"><ele>154.33333333333331</ele><time>2026-04-04T11:39:24.992Z</time></trkpt><trkpt lat="44.6299633" lon="10.4113217"><ele>155.0</ele><time>2026-04-04T11:39:25.992Z</time></trkpt><trkpt lat="44.6300267" lon="10.411085"><ele>155.0</ele><time>2026-04-04T11:39:26.992Z</time></trkpt><trkpt lat="44.6301" lon="10.41086"><ele>155.0</ele><time>2026-04-04T11:39:27.992Z</time></trkpt><trkpt lat="44.630175" lon="10.41062"><ele>155.0</ele><time>2026-04-04T11:39:28.993Z</time></trkpt><trkpt lat="44.6302533" lon="10.41039"><ele>154.0</ele><time>2026-04-04T11:39:29.992Z</time></trkpt><trkpt lat="44.630325" lon="10.4101617"><ele>153.0</ele><time>2026-04-04T11:39:30.992Z</time></trkpt><trkpt lat="44.6303983" lon="10.4099217"><ele>152.0</ele><time>2026-04-04T11:39:31.992Z</time></trkpt><trkpt lat="44.6304717" lon="10.4096917"><ele>152.0</ele><time>2026-04-04T11:39:32.993Z</time></trkpt><trkpt lat="44.6305533" lon="10.4094533"><ele>152.0</ele><time>2026-04-04T11:39:33.992Z</time></trkpt><trkpt lat="44.6306383" lon="10.409215"><ele>152.0</ele><time>2026-04-04T11:39:34.992Z</time></trkpt><trkpt lat="44.63073" lon="10.4089917"><ele>152.66666666666666</ele><time>2026-04-04T11:39:35.992Z</time></trkpt><trkpt lat="44.63083" lon="10.40877"><ele>153.33333333333334</ele><time>2026-04-04T11:39:36.993Z</time></trkpt><trkpt lat="44.63094" lon="10.4085683"><ele>154.0</ele><time>2026-04-04T11:39:37.993Z</time></trkpt><trkpt lat="44.6310667" lon="10.4083683"><ele>154.33333333333334</ele><time>2026-04-04T11:39:38.992Z</time></trkpt><trkpt lat="44.6312083" lon="10.408185"><ele>154.66666666666666</ele><time>2026-04-04T11:39:39.992Z</time></trkpt><trkpt lat="44.6313583" lon="10.408015"><ele>155.0</ele><time>2026-04-04T11:39:40.992Z</time></trkpt><trkpt lat="44.6315217" lon="10.4078617"><ele>155.0</ele><time>2026-04-04T11:39:41.992Z</time></trkpt><trkpt lat="44.631695" lon="10.4077317"><ele>155.0</ele><time>2026-04-04T11:39:42.992Z</time></trkpt><trkpt lat="44.6318717" lon="10.4076233"><ele>155.0</ele><time>2026-04-04T11:39:43.993Z</time></trkpt><trkpt lat="44.6320533" lon="10.4075283"><ele>155.66666666666666</ele><time>2026-04-04T11:39:44.992Z</time></trkpt><trkpt lat="44.6322317" lon="10.4074583"><ele>156.33333333333334</ele><time>2026-04-04T11:39:45.992Z</time></trkpt><trkpt lat="44.6324133" lon="10.4074133"><ele>157.0</ele><time>2026-04-04T11:39:46.992Z</time></trkpt><trkpt lat="44.632605" lon="10.40738"><ele>157.0</ele><time>2026-04-04T11:39:47.992Z</time></trkpt><trkpt lat="44.6328033" lon="10.407355"><ele>157.0</ele><time>2026-04-04T11:39:48.993Z</time></trkpt><trkpt lat="44.633" lon="10.40732"><ele>157.0</ele><time>2026-04-04T11:39:49.993Z</time></trkpt><trkpt lat="44.6331917" lon="10.4072733"><ele>157.33333333333334</ele><time>2026-04-04T11:39:50.992Z</time></trkpt><trkpt lat="44.6333817" lon="10.4072333"><ele>157.66666666666666</ele><time>2026-04-04T11:39:51.992Z</time></trkpt><trkpt lat="44.63358" lon="10.40719"><ele>158.0</ele><time>2026-04-04T11:39:52.992Z</time></trkpt><trkpt lat="44.63378" lon="10.4071533"><ele>162.0</ele><time>2026-04-04T11:39:53.993Z</time></trkpt><trkpt lat="44.6339767" lon="10.4071167"><ele>166.0</ele><time>2026-04-04T11:39:54.992Z</time></trkpt><trkpt lat="44.6341767" lon="10.4070783"><ele>170.0</ele><time>2026-04-04T11:39:55.992Z</time></trkpt><trkpt lat="44.634385" lon="10.407045"><ele>171.33333333333331</ele><time>2026-04-04T11:39:56.993Z</time></trkpt><trkpt lat="44.6345817" lon="10.4070033"><ele>172.66666666666666</ele><time>2026-04-04T11:39:57.993Z</time></trkpt><trkpt lat="44.6347783" lon="10.40697"><ele>174.0</ele><time>2026-04-04T11:39:58.992Z</time></trkpt><trkpt lat="44.6349683" lon="10.4069267"><ele>174.0</ele><time>2026-04-04T11:39:59.993Z</time></trkpt><trkpt lat="44.6351467" lon="10.4068833"><ele>174.0</ele><time>2026-04-04T11:40:00.993Z</time></trkpt><trkpt lat="44.6353333" lon="10.4068417"><ele>174.0</ele><time>2026-04-04T11:40:01.992Z</time></trkpt><trkpt lat="44.6355167" lon="10.4068067"><ele>174.33333333333334</ele><time>2026-04-04T11:40:02.992Z</time></trkpt><trkpt lat="44.6357" lon="10.4067683"><ele>174.66666666666669</ele><time>2026-04-04T11:40:03.993Z</time></trkpt><trkpt lat="44.6358633" lon="10.406745"><ele>175.0</ele><time>2026-04-04T11:40:04.993Z</time></trkpt><trkpt lat="44.6360317" lon="10.4067217"><ele>174.0</ele><time>2026-04-04T11:40:05.992Z</time></trkpt><trkpt lat="44.636195" lon="10.406685"><ele>173.0</ele><time>2026-04-04T11:40:06.993Z</time></trkpt><trkpt lat="44.6363583" lon="10.406655"><ele>172.0</ele><time>2026-04-04T11:40:07.992Z</time></trkpt><trkpt lat="44.6365317" lon="10.4066233"><ele>172.0</ele><time>2026-04-04T11:40:08.993Z</time></trkpt><trkpt lat="44.636695" lon="10.4066167"><ele>172.0</ele><time>2026-04-04T11:40:09.993Z</time></trkpt><trkpt lat="44.63686" lon="10.40664"><ele>172.0</ele><time>2026-04-04T11:40:10.993Z</time></trkpt><trkpt lat="44.6370233" lon="10.4066733"><ele>174.0</ele><time>2026-04-04T11:40:11.992Z</time></trkpt><trkpt lat="44.6371983" lon="10.4067183"><ele>176.0</ele><time>2026-04-04T11:40:12.992Z</time></trkpt><trkpt lat="44.637365" lon="10.4067917"><ele>178.0</ele><time>2026-04-04T11:40:13.993Z</time></trkpt><trkpt lat="44.6375217" lon="10.4068517"><ele>178.0</ele><time>2026-04-04T11:40:14.992Z</time></trkpt><trkpt lat="44.637665" lon="10.4069"><ele>178.0</ele><time>2026-04-04T11:40:15.993Z</time></trkpt><trkpt lat="44.6378" lon="10.4069517"><ele>178.0</ele><time>2026-04-04T11:40:16.992Z</time></trkpt><trkpt lat="44.63793" lon="10.4069817"><ele>178.0</ele><time>2026-04-04T11:40:17.992Z</time></trkpt><trkpt lat="44.6380567" lon="10.407025"><ele>178.5</ele><time>2026-04-04T11:40:18.992Z</time></trkpt><trkpt lat="44.6381717" lon="10.407065"><ele>179.0</ele><time>2026-04-04T11:40:19.992Z</time></trkpt><trkpt lat="44.63829" lon="10.4070733"><ele>179.5</ele><time>2026-04-04T11:40:20.993Z</time></trkpt><trkpt lat="44.6384117" lon="10.407035"><ele>180.0</ele><time>2026-04-04T11:40:21.992Z</time></trkpt><trkpt lat="44.6385267" lon="10.406965"><ele>180.0</ele><time>2026-04-04T11:40:22.992Z</time></trkpt><trkpt lat="44.638625" lon="10.4068583"><ele>180.0</ele><time>2026-04-04T11:40:23.992Z</time></trkpt><trkpt lat="44.6387017" lon="10.4067233"><ele>180.0</ele><time>2026-04-04T11:40:24.992Z</time></trkpt><trkpt lat="44.6387467" lon="10.4065633"><ele>180.0</ele><time>2026-04-04T11:40:25.992Z</time></trkpt><trkpt lat="44.638775" lon="10.406385"><ele>179.75</ele><time>2026-04-04T11:40:26.992Z</time></trkpt><trkpt lat="44.63878" lon="10.406215"><ele>179.5</ele><time>2026-04-04T11:40:27.993Z</time></trkpt><trkpt lat="44.63879" lon="10.4060467"><ele>179.25</ele><time>2026-04-04T11:40:28.992Z</time></trkpt><trkpt lat="44.63879" lon="10.40588"><ele>179.0</ele><time>2026-04-04T11:40:29.992Z</time></trkpt><trkpt lat="44.6387867" lon="10.40572"><ele>179.0</ele><time>2026-04-04T11:40:30.992Z</time></trkpt><trkpt lat="44.638785" lon="10.4055517"><ele>179.0</ele><time>2026-04-04T11:40:31.992Z</time></trkpt><trkpt lat="44.6387933" lon="10.4053867"><ele>179.0</ele><time>2026-04-04T11:40:32.992Z</time></trkpt><trkpt lat="44.6387933" lon="10.405225"><ele>179.0</ele><time>2026-04-04T11:40:33.992Z</time></trkpt><trkpt lat="44.6387917" lon="10.4050617"><ele>179.25</ele><time>2026-04-04T11:40:34.993Z</time></trkpt><trkpt lat="44.63879" lon="10.40488"><ele>179.5</ele><time>2026-04-04T11:40:35.992Z</time></trkpt><trkpt lat="44.63879" lon="10.4046983"><ele>179.75</ele><time>2026-04-04T11:40:36.992Z</time></trkpt><trkpt lat="44.6387933" lon="10.40451"><ele>180.0</ele><time>2026-04-04T11:40:37.993Z</time></trkpt><trkpt lat="44.6387967" lon="10.4043183"><ele>180.0</ele><time>2026-04-04T11:40:38.993Z</time></trkpt><trkpt lat="44.6388033" lon="10.404125"><ele>180.0</ele><time>2026-04-04T11:40:39.993Z</time></trkpt><trkpt lat="44.6387983" lon="10.403925"><ele>180.0</ele><time>2026-04-04T11:40:40.992Z</time></trkpt><trkpt lat="44.6388067" lon="10.4037117"><ele>180.0</ele><time>2026-04-04T11:40:41.993Z</time></trkpt><trkpt lat="44.6388083" lon="10.4035167"><ele>180.0</ele><time>2026-04-04T11:40:42.993Z</time></trkpt><trkpt lat="44.63881" lon="10.4033117"><ele>180.0</ele><time>2026-04-04T11:40:43.992Z</time></trkpt><trkpt lat="44.638815" lon="10.4031"><ele>180.0</ele><time>2026-04-04T11:40:44.992Z</time></trkpt><trkpt lat="44.6388183" lon="10.4028717"><ele>179.66666666666666</ele><time>2026-04-04T11:40:45.992Z</time></trkpt><trkpt lat="44.6388217" lon="10.4026383"><ele>179.33333333333331</ele><time>2026-04-04T11:40:46.992Z</time></trkpt><trkpt lat="44.63882" lon="10.402385"><ele>179.0</ele><time>2026-04-04T11:40:47.992Z</time></trkpt><trkpt lat="44.6388167" lon="10.402125"><ele>179.0</ele><time>2026-04-04T11:40:48.992Z</time></trkpt><trkpt lat="44.6388233" lon="10.40185"><ele>179.0</ele><time>2026-04-04T11:40:49.992Z</time></trkpt><trkpt lat="44.638825" lon="10.40157"><ele>179.0</ele><time>2026-04-04T11:40:50.992Z</time></trkpt><trkpt lat="44.6388333" lon="10.4012917"><ele>179.66666666666666</ele><time>2026-04-04T11:40:51.992Z</time></trkpt><trkpt lat="44.638845" lon="10.401005"><ele>180.33333333333334</ele><time>2026-04-04T11:40:52.992Z</time></trkpt><trkpt lat="44.638855" lon="10.400715"><ele>181.0</ele><time>2026-04-04T11:40:53.992Z</time></trkpt><trkpt lat="44.6388633" lon="10.400415"><ele>181.0</ele><time>2026-04-04T11:40:54.992Z</time></trkpt><trkpt lat="44.63886" lon="10.4001233"><ele>181.0</ele><time>2026-04-04T11:40:55.993Z</time></trkpt><trkpt lat="44.638865" lon="10.3998267"><ele>181.0</ele><time>2026-04-04T11:40:56.992Z</time></trkpt><trkpt lat="44.638875" lon="10.3995383"><ele>181.0</ele><time>2026-04-04T11:40:57.992Z</time></trkpt><trkpt lat="44.6388767" lon="10.3992617"><ele>181.0</ele><time>2026-04-04T11:40:58.992Z</time></trkpt><trkpt lat="44.6388817" lon="10.3989917"><ele>181.0</ele><time>2026-04-04T11:40:59.993Z</time></trkpt><trkpt lat="44.638895" lon="10.3987233"><ele>180.66666666666669</ele><time>2026-04-04T11:41:00.992Z</time></trkpt><trkpt lat="44.6389017" lon="10.39846"><ele>180.33333333333334</ele><time>2026-04-04T11:41:01.993Z</time></trkpt><trkpt lat="44.638905" lon="10.398205"><ele>180.0</ele><time>2026-04-04T11:41:02.993Z</time></trkpt><trkpt lat="44.6389067" lon="10.3979533"><ele>181.33333333333334</ele><time>2026-04-04T11:41:03.992Z</time></trkpt><trkpt lat="44.6389017" lon="10.3977167"><ele>182.66666666666669</ele><time>2026-04-04T11:41:04.992Z</time></trkpt><trkpt lat="44.6388983" lon="10.3974833"><ele>184.0</ele><time>2026-04-04T11:41:05.993Z</time></trkpt><trkpt lat="44.6388983" lon="10.3972433"><ele>184.33333333333334</ele><time>2026-04-04T11:41:06.993Z</time></trkpt><trkpt lat="44.6388883" lon="10.39702"><ele>184.66666666666666</ele><time>2026-04-04T11:41:07.992Z</time></trkpt><trkpt lat="44.6388733" lon="10.3968083"><ele>185.0</ele><time>2026-04-04T11:41:08.992Z</time></trkpt><trkpt lat="44.63885" lon="10.39661"><ele>185.0</ele><time>2026-04-04T11:41:09.992Z</time></trkpt><trkpt lat="44.6388017" lon="10.3964067"><ele>185.0</ele><time>2026-04-04T11:41:10.992Z</time></trkpt><trkpt lat="44.638745" lon="10.3961983"><ele>185.0</ele><time>2026-04-04T11:41:11.992Z</time></trkpt><trkpt lat="44.6386783" lon="10.3959933"><ele>184.66666666666666</ele><time>2026-04-04T11:41:12.992Z</time></trkpt><trkpt lat="44.6386" lon="10.3957833"><ele>184.33333333333334</ele><time>2026-04-04T11:41:13.992Z</time></trkpt><trkpt lat="44.6385133" lon="10.39558"><ele>184.0</ele><time>2026-04-04T11:41:14.992Z</time></trkpt><trkpt lat="44.6384217" lon="10.3953917"><ele>181.0</ele><time>2026-04-04T11:41:15.993Z</time></trkpt><trkpt lat="44.6383317" lon="10.3952"><ele>178.0</ele><time>2026-04-04T11:41:16.993Z</time></trkpt><trkpt lat="44.6382467" lon="10.395015"><ele>175.0</ele><time>2026-04-04T11:41:17.993Z</time></trkpt><trkpt lat="44.6381583" lon="10.3948317"><ele>174.33333333333334</ele><time>2026-04-04T11:41:18.993Z</time></trkpt><trkpt lat="44.6380717" lon="10.3946383"><ele>173.66666666666666</ele><time>2026-04-04T11:41:19.992Z</time></trkpt><trkpt lat="44.6379833" lon="10.3944433"><ele>173.0</ele><time>2026-04-04T11:41:20.993Z</time></trkpt><trkpt lat="44.6378883" lon="10.3942633"><ele>173.0</ele><time>2026-04-04T11:41:21.992Z</time></trkpt><trkpt lat="44.6378067" lon="10.394085"><ele>173.0</ele><time>2026-04-04T11:41:22.992Z</time></trkpt><trkpt lat="44.6377217" lon="10.3939033"><ele>173.0</ele><time>2026-04-04T11:41:23.993Z</time></trkpt><trkpt lat="44.6376467" lon="10.3937167"><ele>172.25</ele><time>2026-04-04T11:41:24.992Z</time></trkpt><trkpt lat="44.637565" lon="10.3935467"><ele>171.5</ele><time>2026-04-04T11:41:25.992Z</time></trkpt><trkpt lat="44.6374933" lon="10.39339"><ele>170.75</ele><time>2026-04-04T11:41:26.993Z</time></trkpt><trkpt lat="44.6374367" lon="10.393235"><ele>170.0</ele><time>2026-04-04T11:41:27.992Z</time></trkpt><trkpt lat="44.637395" lon="10.393085"><ele>169.25</ele><time>2026-04-04T11:41:28.992Z</time></trkpt><trkpt lat="44.6373883" lon="10.39292"><ele>168.5</ele><time>2026-04-04T11:41:29.992Z</time></trkpt><trkpt lat="44.6374183" lon="10.3927483"><ele>167.75</ele><time>2026-04-04T11:41:30.992Z</time></trkpt><trkpt lat="44.6374917" lon="10.3925817"><ele>167.0</ele><time>2026-04-04T11:41:31.992Z</time></trkpt><trkpt lat="44.6375967" lon="10.3924267"><ele>167.0</ele><time>2026-04-04T11:41:32.993Z</time></trkpt><trkpt lat="44.6377267" lon="10.392285"><ele>167.0</ele><time>2026-04-04T11:41:33.992Z</time></trkpt><trkpt lat="44.637875" lon="10.3921417"><ele>167.0</ele><time>2026-04-04T11:41:34.992Z</time></trkpt><trkpt lat="44.6380283" lon="10.392"><ele>164.66666666666666</ele><time>2026-04-04T11:41:35.993Z</time></trkpt><trkpt lat="44.6381883" lon="10.391865"><ele>162.33333333333334</ele><time>2026-04-04T11:41:36.993Z</time></trkpt><trkpt lat="44.63836" lon="10.39173"><ele>160.0</ele><time>2026-04-04T11:41:37.992Z</time></trkpt><trkpt lat="44.6385417" lon="10.3915933"><ele>158.33333333333334</ele><time>2026-04-04T11:41:38.993Z</time></trkpt><trkpt lat="44.638735" lon="10.3914683"><ele>156.66666666666666</ele><time>2026-04-04T11:41:39.992Z</time></trkpt><trkpt lat="44.638935" lon="10.3913567"><ele>155.0</ele><time>2026-04-04T11:41:40.992Z</time></trkpt><trkpt lat="44.6391383" lon="10.39125"><ele>154.33333333333331</ele><time>2026-04-04T11:41:41.993Z</time></trkpt><trkpt lat="44.6393433" lon="10.3911617"><ele>153.66666666666666</ele><time>2026-04-04T11:41:42.992Z</time></trkpt><trkpt lat="44.6395467" lon="10.391085"><ele>153.0</ele><time>2026-04-04T11:41:43.992Z</time></trkpt><trkpt lat="44.6397617" lon="10.391015"><ele>152.33333333333334</ele><time>2026-04-04T11:41:44.992Z</time></trkpt><trkpt lat="44.6399767" lon="10.390955"><ele>151.66666666666669</ele><time>2026-04-04T11:41:45.992Z</time></trkpt><trkpt lat="44.6402" lon="10.3908883"><ele>151.0</ele><time>2026-04-04T11:41:46.992Z</time></trkpt><trkpt lat="44.6404167" lon="10.390825"><ele>152.66666666666669</ele><time>2026-04-04T11:41:47.992Z</time></trkpt><trkpt lat="44.640635" lon="10.39076"><ele>154.33333333333334</ele><time>2026-04-04T11:41:48.992Z</time></trkpt><trkpt lat="44.6408433" lon="10.3906983"><ele>156.0</ele><time>2026-04-04T11:41:49.993Z</time></trkpt><trkpt lat="44.6410533" lon="10.39063"><ele>155.66666666666666</ele><time>2026-04-04T11:41:50.993Z</time></trkpt><trkpt lat="44.6412567" lon="10.3905433"><ele>155.33333333333331</ele><time>2026-04-04T11:41:51.992Z</time></trkpt><trkpt lat="44.641455" lon="10.390435"><ele>155.0</ele><time>2026-04-04T11:41:52.992Z</time></trkpt><trkpt lat="44.6416433" lon="10.39031"><ele>155.0</ele><time>2026-04-04T11:41:53.992Z</time></trkpt><trkpt lat="44.641825" lon="10.390165"><ele>155.0</ele><time>2026-04-04T11:41:54.993Z</time></trkpt><trkpt lat="44.642" lon="10.3900017"><ele>155.0</ele><time>2026-04-04T11:41:55.993Z</time></trkpt><trkpt lat="44.6421667" lon="10.3898133"><ele>155.33333333333331</ele><time>2026-04-04T11:41:56.993Z</time></trkpt><trkpt lat="44.642325" lon="10.3896067"><ele>155.66666666666666</ele><time>2026-04-04T11:41:57.992Z</time></trkpt><trkpt lat="44.6424767" lon="10.38938"><ele>156.0</ele><time>2026-04-04T11:41:58.993Z</time></trkpt><trkpt lat="44.6426117" lon="10.3891467"><ele>156.0</ele><time>2026-04-04T11:41:59.993Z</time></trkpt><trkpt lat="44.6427367" lon="10.3888983"><ele>156.0</ele><time>2026-04-04T11:42:00.992Z</time></trkpt><trkpt lat="44.6428433" lon="10.3886467"><ele>156.0</ele><time>2026-04-04T11:42:01.993Z</time></trkpt><trkpt lat="44.642935" lon="10.3884033"><ele>155.66666666666666</ele><time>2026-04-04T11:42:02.992Z</time></trkpt><trkpt lat="44.6430217" lon="10.3881783"><ele>155.33333333333331</ele><time>2026-04-04T11:42:03.992Z</time></trkpt><trkpt lat="44.6430983" lon="10.3879567"><ele>155.0</ele><time>2026-04-04T11:42:04.992Z</time></trkpt><trkpt lat="44.6431717" lon="10.387755"><ele>155.75</ele><time>2026-04-04T11:42:05.993Z</time></trkpt><trkpt lat="44.6432417" lon="10.3875633"><ele>156.5</ele><time>2026-04-04T11:42:06.993Z</time></trkpt><trkpt lat="44.6433133" lon="10.3873867"><ele>157.25</ele><time>2026-04-04T11:42:07.992Z</time></trkpt><trkpt lat="44.6433767" lon="10.3872283"><ele>158.0</ele><time>2026-04-04T11:42:08.993Z</time></trkpt><trkpt lat="44.64345" lon="10.3870833"><ele>158.0</ele><time>2026-04-04T11:42:09.992Z</time></trkpt><trkpt lat="44.6435333" lon="10.3869667"><ele>158.0</ele><time>2026-04-04T11:42:10.992Z</time></trkpt><trkpt lat="44.643615" lon="10.3868567"><ele>158.0</ele><time>2026-04-04T11:42:11.993Z</time></trkpt><trkpt lat="44.6436733" lon="10.3867233"><ele>158.0</ele><time>2026-04-04T11:42:12.992Z</time></trkpt><trkpt lat="44.6437083" lon="10.3865567"><ele>158.0</ele><time>2026-04-04T11:42:13.992Z</time></trkpt><trkpt lat="44.643735" lon="10.3863617"><ele>158.0</ele><time>2026-04-04T11:42:14.992Z</time></trkpt><trkpt lat="44.64379" lon="10.3861633"><ele>158.0</ele><time>2026-04-04T11:42:15.993Z</time></trkpt><trkpt lat="44.6438783" lon="10.3859733"><ele>158.33333333333331</ele><time>2026-04-04T11:42:16.992Z</time></trkpt><trkpt lat="44.64398" lon="10.3857783"><ele>158.66666666666666</ele><time>2026-04-04T11:42:17.992Z</time></trkpt><trkpt lat="44.644075" lon="10.3855733"><ele>159.0</ele><time>2026-04-04T11:42:18.992Z</time></trkpt><trkpt lat="44.6441633" lon="10.3853683"><ele>159.25</ele><time>2026-04-04T11:42:19.993Z</time></trkpt><trkpt lat="44.6442417" lon="10.3851667"><ele>159.5</ele><time>2026-04-04T11:42:20.992Z</time></trkpt><trkpt lat="44.644305" lon="10.3849817"><ele>159.75</ele><time>2026-04-04T11:42:21.992Z</time></trkpt><trkpt lat="44.644365" lon="10.384815"><ele>160.0</ele><time>2026-04-04T11:42:22.992Z</time></trkpt><trkpt lat="44.6444283" lon="10.38465"><ele>160.2</ele><time>2026-04-04T11:42:23.992Z</time></trkpt><trkpt lat="44.6444867" lon="10.3845217"><ele>160.4</ele><time>2026-04-04T11:42:24.992Z</time></trkpt><trkpt lat="44.6445583" lon="10.3844083"><ele>160.60000000000002</ele><time>2026-04-04T11:42:25.993Z</time></trkpt><trkpt lat="44.6446283" lon="10.3843067"><ele>160.8</ele><time>2026-04-04T11:42:26.992Z</time></trkpt><trkpt lat="44.644685" lon="10.3841717"><ele>161.0</ele><time>2026-04-04T11:42:27.992Z</time></trkpt><trkpt lat="44.6447" lon="10.3839933"><ele>161.75</ele><time>2026-04-04T11:42:28.992Z</time></trkpt><trkpt lat="44.644715" lon="10.3837983"><ele>162.5</ele><time>2026-04-04T11:42:29.992Z</time></trkpt><trkpt lat="44.6447417" lon="10.3835867"><ele>163.25</ele><time>2026-04-04T11:42:30.993Z</time></trkpt><trkpt lat="44.6447733" lon="10.3833883"><ele>164.0</ele><time>2026-04-04T11:42:31.993Z</time></trkpt><trkpt lat="44.644815" lon="10.383185"><ele>164.0</ele><time>2026-04-04T11:42:32.992Z</time></trkpt><trkpt lat="44.6448683" lon="10.3829733"><ele>164.0</ele><time>2026-04-04T11:42:33.993Z</time></trkpt><trkpt lat="44.644925" lon="10.38278"><ele>164.0</ele><time>2026-04-04T11:42:34.992Z</time></trkpt><trkpt lat="44.6449817" lon="10.3825983"><ele>164.0</ele><time>2026-04-04T11:42:35.992Z</time></trkpt><trkpt lat="44.6450167" lon="10.3824467"><ele>164.0</ele><time>2026-04-04T11:42:36.993Z</time></trkpt><trkpt lat="44.6450467" lon="10.3823383"><ele>164.0</ele><time>2026-04-04T11:42:37.993Z</time></trkpt><trkpt lat="44.6450683" lon="10.3822183"><ele>164.0</ele><time>2026-04-04T11:42:39.992Z</time></trkpt><trkpt lat="44.6450667" lon="10.382085"><ele>164.0</ele><time>2026-04-04T11:42:42.992Z</time></trkpt><trkpt lat="44.6450783" lon="10.3819383"><ele>164.0</ele><time>2026-04-04T11:42:45.993Z</time></trkpt><trkpt lat="44.6451017" lon="10.3817383"><ele>164.0</ele><time>2026-04-04T11:42:47.993Z</time></trkpt><trkpt lat="44.64511" lon="10.3816"><ele>164.0</ele><time>2026-04-04T11:42:48.993Z</time></trkpt><trkpt lat="44.6451283" lon="10.3814533"><ele>164.0</ele><time>2026-04-04T11:42:49.992Z</time></trkpt><trkpt lat="44.64516" lon="10.38131"><ele>164.25</ele><time>2026-04-04T11:42:50.992Z</time></trkpt><trkpt lat="44.64521" lon="10.3811517"><ele>164.5</ele><time>2026-04-04T11:42:51.993Z</time></trkpt><trkpt lat="44.6452667" lon="10.3810067"><ele>164.75</ele><time>2026-04-04T11:42:52.992Z</time></trkpt><trkpt lat="44.6453167" lon="10.3808583"><ele>165.0</ele><time>2026-04-04T11:42:53.993Z</time></trkpt><trkpt lat="44.6453633" lon="10.3807033"><ele>165.25</ele><time>2026-04-04T11:42:54.992Z</time></trkpt><trkpt lat="44.6454167" lon="10.3805483"><ele>165.5</ele><time>2026-04-04T11:42:55.992Z</time></trkpt><trkpt lat="44.645475" lon="10.3803767"><ele>165.75</ele><time>2026-04-04T11:42:56.993Z</time></trkpt><trkpt lat="44.64554" lon="10.3802067"><ele>166.0</ele><time>2026-04-04T11:42:57.992Z</time></trkpt><trkpt lat="44.6456067" lon="10.38001"><ele>166.0</ele><time>2026-04-04T11:42:58.993Z</time></trkpt><trkpt lat="44.6456733" lon="10.3798"><ele>166.0</ele><time>2026-04-04T11:42:59.993Z</time></trkpt><trkpt lat="44.6457467" lon="10.3795783"><ele>166.0</ele><time>2026-04-04T11:43:00.993Z</time></trkpt><trkpt lat="44.6458183" lon="10.37936"><ele>167.0</ele><time>2026-04-04T11:43:01.993Z</time></trkpt><trkpt lat="44.64589" lon="10.3791433"><ele>168.0</ele><time>2026-04-04T11:43:02.993Z</time></trkpt><trkpt lat="44.6459617" lon="10.3789283"><ele>169.0</ele><time>2026-04-04T11:43:03.992Z</time></trkpt><trkpt lat="44.6460383" lon="10.3786983"><ele>169.66666666666669</ele><time>2026-04-04T11:43:04.992Z</time></trkpt><trkpt lat="44.6461217" lon="10.378475"><ele>170.33333333333334</ele><time>2026-04-04T11:43:05.992Z</time></trkpt><trkpt lat="44.6461917" lon="10.378265"><ele>171.0</ele><time>2026-04-04T11:43:06.992Z</time></trkpt><trkpt lat="44.6462517" lon="10.378075"><ele>172.33333333333334</ele><time>2026-04-04T11:43:07.992Z</time></trkpt><trkpt lat="44.6463133" lon="10.3778767"><ele>173.66666666666669</ele><time>2026-04-04T11:43:08.992Z</time></trkpt><trkpt lat="44.646395" lon="10.3776533"><ele>175.0</ele><time>2026-04-04T11:43:09.992Z</time></trkpt><trkpt lat="44.6464683" lon="10.3774333"><ele>175.0</ele><time>2026-04-04T11:43:10.992Z</time></trkpt><trkpt lat="44.6465383" lon="10.3772183"><ele>175.0</ele><time>2026-04-04T11:43:11.993Z</time></trkpt><trkpt lat="44.6466083" lon="10.376995"><ele>175.0</ele><time>2026-04-04T11:43:12.992Z</time></trkpt><trkpt lat="44.6466783" lon="10.3767767"><ele>175.0</ele><time>2026-04-04T11:43:13.992Z</time></trkpt><trkpt lat="44.6467483" lon="10.376565"><ele>175.0</ele><time>2026-04-04T11:43:14.993Z</time></trkpt><trkpt lat="44.6468067" lon="10.3763783"><ele>175.0</ele><time>2026-04-04T11:43:15.992Z</time></trkpt><trkpt lat="44.646865" lon="10.3762017"><ele>175.0</ele><time>2026-04-04T11:43:16.993Z</time></trkpt><trkpt lat="44.6469183" lon="10.3760433"><ele>175.0</ele><time>2026-04-04T11:43:17.993Z</time></trkpt><trkpt lat="44.6469733" lon="10.3759167"><ele>175.0</ele><time>2026-04-04T11:43:18.992Z</time></trkpt><trkpt lat="44.647035" lon="10.3758217"><ele>175.0</ele><time>2026-04-04T11:43:19.992Z</time></trkpt><trkpt lat="44.647095" lon="10.37574"><ele>175.0</ele><time>2026-04-04T11:43:20.993Z</time></trkpt><trkpt lat="44.6471683" lon="10.3756767"><ele>174.6</ele><time>2026-04-04T11:43:21.992Z</time></trkpt><trkpt lat="44.64724" lon="10.3755767"><ele>174.2</ele><time>2026-04-04T11:43:22.992Z</time></trkpt><trkpt lat="44.6473017" lon="10.3754733"><ele>173.8</ele><time>2026-04-04T11:43:23.992Z</time></trkpt><trkpt lat="44.6473817" lon="10.3753717"><ele>173.4</ele><time>2026-04-04T11:43:24.993Z</time></trkpt><trkpt lat="44.6474733" lon="10.3752917"><ele>173.0</ele><time>2026-04-04T11:43:25.992Z</time></trkpt><trkpt lat="44.6475767" lon="10.3752267"><ele>172.5</ele><time>2026-04-04T11:43:26.993Z</time></trkpt><trkpt lat="44.6476983" lon="10.37516"><ele>172.0</ele><time>2026-04-04T11:43:27.992Z</time></trkpt><trkpt lat="44.6478233" lon="10.37509"><ele>171.5</ele><time>2026-04-04T11:43:28.993Z</time></trkpt><trkpt lat="44.647945" lon="10.3750117"><ele>171.0</ele><time>2026-04-04T11:43:29.993Z</time></trkpt><trkpt lat="44.6480683" lon="10.3749283"><ele>170.0</ele><time>2026-04-04T11:43:30.992Z</time></trkpt><trkpt lat="44.6481867" lon="10.37483"><ele>169.0</ele><time>2026-04-04T11:43:31.992Z</time></trkpt><trkpt lat="44.648305" lon="10.3747217"><ele>168.0</ele><time>2026-04-04T11:43:32.992Z</time></trkpt><trkpt lat="44.6484267" lon="10.3746067"><ele>167.0</ele><time>2026-04-04T11:43:33.992Z</time></trkpt><trkpt lat="44.6485417" lon="10.3744767"><ele>165.33333333333331</ele><time>2026-04-04T11:43:34.992Z</time></trkpt><trkpt lat="44.64866" lon="10.3743467"><ele>163.66666666666666</ele><time>2026-04-04T11:43:35.993Z</time></trkpt><trkpt lat="44.6487783" lon="10.37421"><ele>162.0</ele><time>2026-04-04T11:43:36.992Z</time></trkpt><trkpt lat="44.648895" lon="10.374075"><ele>162.0</ele><time>2026-04-04T11:43:37.992Z</time></trkpt><trkpt lat="44.64902" lon="10.3739333"><ele>162.0</ele><time>2026-04-04T11:43:38.993Z</time></trkpt><trkpt lat="44.6491483" lon="10.3737933"><ele>162.0</ele><time>2026-04-04T11:43:39.993Z</time></trkpt><trkpt lat="44.6492717" lon="10.3736567"><ele>162.0</ele><time>2026-04-04T11:43:40.992Z</time></trkpt><trkpt lat="44.649415" lon="10.3735133"><ele>162.0</ele><time>2026-04-04T11:43:41.993Z</time></trkpt><trkpt lat="44.6495533" lon="10.3733817"><ele>162.0</ele><time>2026-04-04T11:43:42.993Z</time></trkpt><trkpt lat="44.6497" lon="10.3732667"><ele>162.0</ele><time>2026-04-04T11:43:43.992Z</time></trkpt><trkpt lat="44.6498467" lon="10.3731583"><ele>162.0</ele><time>2026-04-04T11:43:44.992Z</time></trkpt><trkpt lat="44.649995" lon="10.3730583"><ele>162.0</ele><time>2026-04-04T11:43:45.992Z</time></trkpt><trkpt lat="44.65014" lon="10.372945"><ele>163.0</ele><time>2026-04-04T11:43:46.992Z</time></trkpt><trkpt lat="44.650295" lon="10.3728333"><ele>164.0</ele><time>2026-04-04T11:43:47.992Z</time></trkpt><trkpt lat="44.65045" lon="10.3727217"><ele>165.0</ele><time>2026-04-04T11:43:48.993Z</time></trkpt><trkpt lat="44.6505967" lon="10.3726183"><ele>165.0</ele><time>2026-04-04T11:43:49.992Z</time></trkpt><trkpt lat="44.650755" lon="10.3725"><ele>165.0</ele><time>2026-04-04T11:43:50.992Z</time></trkpt><trkpt lat="44.6509133" lon="10.37239"><ele>165.0</ele><time>2026-04-04T11:43:51.993Z</time></trkpt><trkpt lat="44.6510683" lon="10.3722817"><ele>165.33333333333334</ele><time>2026-04-04T11:43:52.992Z</time></trkpt><trkpt lat="44.6512183" lon="10.37218"><ele>165.66666666666669</ele><time>2026-04-04T11:43:53.992Z</time></trkpt><trkpt lat="44.6513667" lon="10.372105"><ele>166.0</ele><time>2026-04-04T11:43:54.992Z</time></trkpt><trkpt lat="44.6515267" lon="10.37203"><ele>166.0</ele><time>2026-04-04T11:43:55.992Z</time></trkpt><trkpt lat="44.6516867" lon="10.3719683"><ele>166.0</ele><time>2026-04-04T11:43:56.993Z</time></trkpt><trkpt lat="44.651855" lon="10.371915"><ele>166.0</ele><time>2026-04-04T11:43:57.993Z</time></trkpt><trkpt lat="44.6520233" lon="10.3718767"><ele>165.66666666666669</ele><time>2026-04-04T11:43:58.993Z</time></trkpt><trkpt lat="44.65219" lon="10.37183"><ele>165.33333333333334</ele><time>2026-04-04T11:43:59.993Z</time></trkpt><trkpt lat="44.6523383" lon="10.3717583"><ele>165.0</ele><time>2026-04-04T11:44:00.992Z</time></trkpt><trkpt lat="44.6524767" lon="10.3716717"><ele>165.0</ele><time>2026-04-04T11:44:01.992Z</time></trkpt><trkpt lat="44.6526017" lon="10.371545"><ele>165.0</ele><time>2026-04-04T11:44:02.993Z</time></trkpt><trkpt lat="44.6527167" lon="10.371415"><ele>165.0</ele><time>2026-04-04T11:44:03.993Z</time></trkpt><trkpt lat="44.6528267" lon="10.3712967"><ele>165.0</ele><time>2026-04-04T11:44:04.993Z</time></trkpt><trkpt lat="44.6529383" lon="10.3711683"><ele>165.0</ele><time>2026-04-04T11:44:05.992Z</time></trkpt><trkpt lat="44.653055" lon="10.371035"><ele>165.0</ele><time>2026-04-04T11:44:06.992Z</time></trkpt><trkpt lat="44.6531717" lon="10.370895"><ele>165.0</ele><time>2026-04-04T11:44:07.992Z</time></trkpt><trkpt lat="44.6532817" lon="10.37076"><ele>165.0</ele><time>2026-04-04T11:44:08.992Z</time></trkpt><trkpt lat="44.6534033" lon="10.3706167"><ele>165.0</ele><time>2026-04-04T11:44:09.992Z</time></trkpt><trkpt lat="44.6535167" lon="10.370485"><ele>165.0</ele><time>2026-04-04T11:44:10.992Z</time></trkpt><trkpt lat="44.6536333" lon="10.3703583"><ele>166.0</ele><time>2026-04-04T11:44:11.992Z</time></trkpt><trkpt lat="44.6537483" lon="10.3702233"><ele>167.0</ele><time>2026-04-04T11:44:12.991Z</time></trkpt><trkpt lat="44.6538617" lon="10.3700933"><ele>168.0</ele><time>2026-04-04T11:44:13.991Z</time></trkpt><trkpt lat="44.65397" lon="10.36996"><ele>169.0</ele><time>2026-04-04T11:44:14.992Z</time></trkpt><trkpt lat="44.6540733" lon="10.36983"><ele>169.0</ele><time>2026-04-04T11:44:15.991Z</time></trkpt><trkpt lat="44.6541683" lon="10.3697"><ele>169.0</ele><time>2026-04-04T11:44:16.991Z</time></trkpt><trkpt lat="44.6542617" lon="10.3695483"><ele>169.0</ele><time>2026-04-04T11:44:17.992Z</time></trkpt><trkpt lat="44.6543517" lon="10.3693783"><ele>169.0</ele><time>2026-04-04T11:44:18.991Z</time></trkpt><trkpt lat="44.654435" lon="10.3691933"><ele>168.0</ele><time>2026-04-04T11:44:19.992Z</time></trkpt><trkpt lat="44.6545183" lon="10.368975"><ele>167.0</ele><time>2026-04-04T11:44:20.991Z</time></trkpt><trkpt lat="44.6546117" lon="10.3687367"><ele>166.0</ele><time>2026-04-04T11:44:21.992Z</time></trkpt><trkpt lat="44.6547017" lon="10.3684833"><ele>165.66666666666669</ele><time>2026-04-04T11:44:22.991Z</time></trkpt><trkpt lat="44.6547883" lon="10.3682383"><ele>165.33333333333334</ele><time>2026-04-04T11:44:23.992Z</time></trkpt><trkpt lat="44.6548783" lon="10.3679933"><ele>165.0</ele><time>2026-04-04T11:44:24.991Z</time></trkpt><trkpt lat="44.65496" lon="10.3677667"><ele>165.0</ele><time>2026-04-04T11:44:25.991Z</time></trkpt><trkpt lat="44.655045" lon="10.3675417"><ele>165.0</ele><time>2026-04-04T11:44:26.991Z</time></trkpt><trkpt lat="44.6551183" lon="10.3673233"><ele>165.0</ele><time>2026-04-04T11:44:27.992Z</time></trkpt><trkpt lat="44.6551967" lon="10.3671283"><ele>164.75</ele><time>2026-04-04T11:44:28.992Z</time></trkpt><trkpt lat="44.6552633" lon="10.3669417"><ele>164.5</ele><time>2026-04-04T11:44:29.992Z</time></trkpt><trkpt lat="44.65532" lon="10.3667683"><ele>164.25</ele><time>2026-04-04T11:44:30.991Z</time></trkpt><trkpt lat="44.655375" lon="10.36661"><ele>164.0</ele><time>2026-04-04T11:44:31.991Z</time></trkpt><trkpt lat="44.6554233" lon="10.3664633"><ele>163.66666666666666</ele><time>2026-04-04T11:44:32.991Z</time></trkpt><trkpt lat="44.6554717" lon="10.366335"><ele>163.33333333333331</ele><time>2026-04-04T11:44:33.992Z</time></trkpt><trkpt lat="44.65551" lon="10.366225"><ele>163.0</ele><time>2026-04-04T11:44:34.991Z</time></trkpt><trkpt lat="44.6555433" lon="10.3661283"><ele>162.66666666666666</ele><time>2026-04-04T11:44:35.991Z</time></trkpt><trkpt lat="44.6555917" lon="10.3660367"><ele>162.33333333333334</ele><time>2026-04-04T11:44:36.991Z</time></trkpt><trkpt lat="44.6556517" lon="10.3659533"><ele>162.0</ele><time>2026-04-04T11:44:37.991Z</time></trkpt><trkpt lat="44.6557283" lon="10.36586"><ele>162.0</ele><time>2026-04-04T11:44:38.991Z</time></trkpt><trkpt lat="44.6558217" lon="10.3657717"><ele>162.0</ele><time>2026-04-04T11:44:39.991Z</time></trkpt><trkpt lat="44.6559317" lon="10.3656767"><ele>162.0</ele><time>2026-04-04T11:44:40.991Z</time></trkpt><trkpt lat="44.6560633" lon="10.3655783"><ele>162.0</ele><time>2026-04-04T11:44:41.991Z</time></trkpt><trkpt lat="44.6562033" lon="10.3654667"><ele>161.33333333333334</ele><time>2026-04-04T11:44:42.991Z</time></trkpt><trkpt lat="44.6563533" lon="10.3653467"><ele>160.66666666666669</ele><time>2026-04-04T11:44:43.991Z</time></trkpt><trkpt lat="44.656515" lon="10.3652183"><ele>160.0</ele><time>2026-04-04T11:44:44.991Z</time></trkpt><trkpt lat="44.65668" lon="10.3650833"><ele>160.0</ele><time>2026-04-04T11:44:45.992Z</time></trkpt><trkpt lat="44.656845" lon="10.3649533"><ele>160.0</ele><time>2026-04-04T11:44:46.991Z</time></trkpt><trkpt lat="44.6570167" lon="10.3648083"><ele>160.0</ele><time>2026-04-04T11:44:47.991Z</time></trkpt><trkpt lat="44.6571883" lon="10.3646717"><ele>160.66666666666669</ele><time>2026-04-04T11:44:48.992Z</time></trkpt><trkpt lat="44.657365" lon="10.3645217"><ele>161.33333333333334</ele><time>2026-04-04T11:44:49.991Z</time></trkpt><trkpt lat="44.6575383" lon="10.3643833"><ele>162.0</ele><time>2026-04-04T11:44:50.992Z</time></trkpt><trkpt lat="44.6577133" lon="10.3642383"><ele>162.33333333333334</ele><time>2026-04-04T11:44:51.991Z</time></trkpt><trkpt lat="44.6578867" lon="10.3640917"><ele>162.66666666666669</ele><time>2026-04-04T11:44:52.991Z</time></trkpt><trkpt lat="44.6580467" lon="10.36396"><ele>163.0</ele><time>2026-04-04T11:44:53.991Z</time></trkpt><trkpt lat="44.658195" lon="10.3638317"><ele>163.66666666666669</ele><time>2026-04-04T11:44:54.992Z</time></trkpt><trkpt lat="44.6583383" lon="10.363705"><ele>164.33333333333334</ele><time>2026-04-04T11:44:55.991Z</time></trkpt><trkpt lat="44.658485" lon="10.36358"><ele>165.0</ele><time>2026-04-04T11:44:56.991Z</time></trkpt><trkpt lat="44.658625" lon="10.3634633"><ele>166.0</ele><time>2026-04-04T11:44:57.992Z</time></trkpt><trkpt lat="44.6587533" lon="10.363355"><ele>167.0</ele><time>2026-04-04T11:44:58.992Z</time></trkpt><trkpt lat="44.65887" lon="10.3632417"><ele>168.0</ele><time>2026-04-04T11:44:59.992Z</time></trkpt><trkpt lat="44.6589933" lon="10.3631533"><ele>169.0</ele><time>2026-04-04T11:45:00.991Z</time></trkpt><trkpt lat="44.6591183" lon="10.3630583"><ele>169.75</ele><time>2026-04-04T11:45:01.991Z</time></trkpt><trkpt lat="44.6592383" lon="10.3629533"><ele>170.5</ele><time>2026-04-04T11:45:02.991Z</time></trkpt><trkpt lat="44.6593617" lon="10.36286"><ele>171.25</ele><time>2026-04-04T11:45:03.992Z</time></trkpt><trkpt lat="44.659485" lon="10.36276"><ele>172.0</ele><time>2026-04-04T11:45:04.991Z</time></trkpt><trkpt lat="44.6596083" lon="10.3626583"><ele>172.5</ele><time>2026-04-04T11:45:05.991Z</time></trkpt><trkpt lat="44.6597183" lon="10.362565"><ele>173.0</ele><time>2026-04-04T11:45:06.991Z</time></trkpt><trkpt lat="44.6598233" lon="10.3624733"><ele>173.5</ele><time>2026-04-04T11:45:07.992Z</time></trkpt><trkpt lat="44.6599167" lon="10.362395"><ele>174.0</ele><time>2026-04-04T11:45:08.991Z</time></trkpt><trkpt lat="44.66001" lon="10.362325"><ele>174.0</ele><time>2026-04-04T11:45:09.991Z</time></trkpt><trkpt lat="44.6600933" lon="10.3622667"><ele>174.0</ele><time>2026-04-04T11:45:10.992Z</time></trkpt><trkpt lat="44.6601783" lon="10.3621983"><ele>174.0</ele><time>2026-04-04T11:45:11.992Z</time></trkpt><trkpt lat="44.6602617" lon="10.3621217"><ele>174.0</ele><time>2026-04-04T11:45:12.991Z</time></trkpt><trkpt lat="44.6603533" lon="10.3620383"><ele>174.0</ele><time>2026-04-04T11:45:13.992Z</time></trkpt><trkpt lat="44.660435" lon="10.3619733"><ele>173.83333333333334</ele><time>2026-04-04T11:45:14.991Z</time></trkpt><trkpt lat="44.660495" lon="10.3619217"><ele>173.66666666666666</ele><time>2026-04-04T11:45:15.991Z</time></trkpt><trkpt lat="44.6605667" lon="10.3618633"><ele>173.5</ele><time>2026-04-04T11:45:17.992Z</time></trkpt><trkpt lat="44.6606283" lon="10.3618133"><ele>173.33333333333331</ele><time>2026-04-04T11:45:40.992Z</time></trkpt><trkpt lat="44.66069" lon="10.3617717"><ele>173.16666666666666</ele><time>2026-04-04T11:45:41.992Z</time></trkpt><trkpt lat="44.660775" lon="10.361725"><ele>173.0</ele><time>2026-04-04T11:45:42.992Z</time></trkpt><trkpt lat="44.6608767" lon="10.3616567"><ele>173.0</ele><time>2026-04-04T11:45:43.991Z</time></trkpt><trkpt lat="44.6609967" lon="10.361575"><ele>173.0</ele><time>2026-04-04T11:45:44.992Z</time></trkpt><trkpt lat="44.6611267" lon="10.3614883"><ele>173.0</ele><time>2026-04-04T11:45:45.991Z</time></trkpt><trkpt lat="44.6612733" lon="10.3614017"><ele>173.0</ele><time>2026-04-04T11:45:46.991Z</time></trkpt><trkpt lat="44.6614233" lon="10.3613083"><ele>170.33333333333331</ele><time>2026-04-04T11:45:47.992Z</time></trkpt><trkpt lat="44.6615783" lon="10.3612133"><ele>167.66666666666666</ele><time>2026-04-04T11:45:48.991Z</time></trkpt><trkpt lat="44.6617383" lon="10.3611117"><ele>165.0</ele><time>2026-04-04T11:45:49.992Z</time></trkpt><trkpt lat="44.6618933" lon="10.3610067"><ele>164.66666666666666</ele><time>2026-04-04T11:45:50.991Z</time></trkpt><trkpt lat="44.662035" lon="10.3609017"><ele>164.33333333333331</ele><time>2026-04-04T11:45:51.991Z</time></trkpt><trkpt lat="44.6621767" lon="10.3607817"><ele>164.0</ele><time>2026-04-04T11:45:52.991Z</time></trkpt><trkpt lat="44.66229" lon="10.3606433"><ele>164.0</ele><time>2026-04-04T11:45:53.992Z</time></trkpt><trkpt lat="44.6623633" lon="10.3604583"><ele>164.0</ele><time>2026-04-04T11:45:54.992Z</time></trkpt><trkpt lat="44.6624083" lon="10.3602283"><ele>164.0</ele><time>2026-04-04T11:45:55.991Z</time></trkpt><trkpt lat="44.662415" lon="10.3599617"><ele>164.0</ele><time>2026-04-04T11:45:56.991Z</time></trkpt><trkpt lat="44.6623883" lon="10.3596933"><ele>164.0</ele><time>2026-04-04T11:45:57.992Z</time></trkpt><trkpt lat="44.6623683" lon="10.3593967"><ele>164.0</ele><time>2026-04-04T11:45:58.991Z</time></trkpt><trkpt lat="44.6623483" lon="10.3591217"><ele>164.33333333333331</ele><time>2026-04-04T11:45:59.992Z</time></trkpt><trkpt lat="44.66233" lon="10.3588367"><ele>164.66666666666666</ele><time>2026-04-04T11:46:00.991Z</time></trkpt><trkpt lat="44.6623217" lon="10.358545"><ele>165.0</ele><time>2026-04-04T11:46:01.991Z</time></trkpt><trkpt lat="44.6623267" lon="10.3582633"><ele>165.66666666666666</ele><time>2026-04-04T11:46:02.991Z</time></trkpt><trkpt lat="44.66235" lon="10.3579867"><ele>166.33333333333331</ele><time>2026-04-04T11:46:03.992Z</time></trkpt><trkpt lat="44.6624083" lon="10.3577167"><ele>167.0</ele><time>2026-04-04T11:46:04.991Z</time></trkpt><trkpt lat="44.662515" lon="10.3574467"><ele>166.0</ele><time>2026-04-04T11:46:05.992Z</time></trkpt><trkpt lat="44.6626317" lon="10.3571783"><ele>165.0</ele><time>2026-04-04T11:46:06.992Z</time></trkpt><trkpt lat="44.6627467" lon="10.3569083"><ele>164.0</ele><time>2026-04-04T11:46:07.992Z</time></trkpt><trkpt lat="44.6628583" lon="10.3566333"><ele>165.0</ele><time>2026-04-04T11:46:08.991Z</time></trkpt><trkpt lat="44.6629717" lon="10.3563567"><ele>166.0</ele><time>2026-04-04T11:46:09.991Z</time></trkpt><trkpt lat="44.6630817" lon="10.3560733"><ele>166.0</ele><time>2026-04-04T11:46:10.991Z</time></trkpt><trkpt lat="44.6631817" lon="10.355785"><ele>166.0</ele><time>2026-04-04T11:46:11.991Z</time></trkpt><trkpt lat="44.66326" lon="10.35548"><ele>166.5</ele><time>2026-04-04T11:46:12.992Z</time></trkpt><trkpt lat="44.663315" lon="10.3551617"><ele>167.0</ele><time>2026-04-04T11:46:13.991Z</time></trkpt><trkpt lat="44.6633467" lon="10.354835"><ele>167.5</ele><time>2026-04-04T11:46:14.991Z</time></trkpt><trkpt lat="44.6633767" lon="10.354505"><ele>168.0</ele><time>2026-04-04T11:46:15.992Z</time></trkpt><trkpt lat="44.6634067" lon="10.3541733"><ele>167.5</ele><time>2026-04-04T11:46:16.991Z</time></trkpt><trkpt lat="44.6634367" lon="10.3538483"><ele>167.0</ele><time>2026-04-04T11:46:17.992Z</time></trkpt><trkpt lat="44.6634733" lon="10.3535283"><ele>167.0</ele><time>2026-04-04T11:46:18.991Z</time></trkpt><trkpt lat="44.6635133" lon="10.3532083"><ele>167.0</ele><time>2026-04-04T11:46:19.992Z</time></trkpt><trkpt lat="44.6635533" lon="10.3528883"><ele>167.0</ele><time>2026-04-04T11:46:20.992Z</time></trkpt><trkpt lat="44.6635967" lon="10.3525667"><ele>167.0</ele><time>2026-04-04T11:46:21.992Z</time></trkpt><trkpt lat="44.6636583" lon="10.3522567"><ele>167.5</ele><time>2026-04-04T11:46:22.992Z</time></trkpt><trkpt lat="44.6637483" lon="10.3519567"><ele>168.0</ele><time>2026-04-04T11:46:23.992Z</time></trkpt><trkpt lat="44.66387" lon="10.3516733"><ele>168.0</ele><time>2026-04-04T11:46:24.992Z</time></trkpt><trkpt lat="44.6640083" lon="10.3513967"><ele>168.0</ele><time>2026-04-04T11:46:25.992Z</time></trkpt><trkpt lat="44.6641333" lon="10.35112"><ele>168.0</ele><time>2026-04-04T11:46:26.992Z</time></trkpt><trkpt lat="44.6642517" lon="10.3508267"><ele>168.0</ele><time>2026-04-04T11:46:27.991Z</time></trkpt><trkpt lat="44.6643517" lon="10.35052"><ele>169.5</ele><time>2026-04-04T11:46:28.992Z</time></trkpt><trkpt lat="44.6644333" lon="10.3502083"><ele>171.0</ele><time>2026-04-04T11:46:29.991Z</time></trkpt><trkpt lat="44.6644983" lon="10.3499067"><ele>172.0</ele><time>2026-04-04T11:46:30.991Z</time></trkpt><trkpt lat="44.66456" lon="10.3496017"><ele>173.0</ele><time>2026-04-04T11:46:31.992Z</time></trkpt><trkpt lat="44.6646233" lon="10.34929"><ele>173.0</ele><time>2026-04-04T11:46:32.991Z</time></trkpt><trkpt lat="44.6646817" lon="10.348975"><ele>173.0</ele><time>2026-04-04T11:46:33.991Z</time></trkpt><trkpt lat="44.6647483" lon="10.348655"><ele>173.0</ele><time>2026-04-04T11:46:34.991Z</time></trkpt><trkpt lat="44.66481" lon="10.3483417"><ele>173.0</ele><time>2026-04-04T11:46:35.992Z</time></trkpt><trkpt lat="44.6648767" lon="10.348045"><ele>173.0</ele><time>2026-04-04T11:46:36.992Z</time></trkpt><trkpt lat="44.6649383" lon="10.3477467"><ele>173.0</ele><time>2026-04-04T11:46:37.991Z</time></trkpt><trkpt lat="44.6650017" lon="10.3474383"><ele>173.0</ele><time>2026-04-04T11:46:38.991Z</time></trkpt><trkpt lat="44.6650733" lon="10.3471383"><ele>172.0</ele><time>2026-04-04T11:46:39.992Z</time></trkpt><trkpt lat="44.6651483" lon="10.3468333"><ele>171.0</ele><time>2026-04-04T11:46:40.991Z</time></trkpt><trkpt lat="44.665215" lon="10.346525"><ele>170.5</ele><time>2026-04-04T11:46:41.991Z</time></trkpt><trkpt lat="44.6652833" lon="10.3462217"><ele>170.0</ele><time>2026-04-04T11:46:42.991Z</time></trkpt><trkpt lat="44.66535" lon="10.3459117"><ele>170.0</ele><time>2026-04-04T11:46:43.991Z</time></trkpt><trkpt lat="44.6654067" lon="10.34561"><ele>170.0</ele><time>2026-04-04T11:46:44.991Z</time></trkpt><trkpt lat="44.6654667" lon="10.3453167"><ele>170.0</ele><time>2026-04-04T11:46:45.992Z</time></trkpt><trkpt lat="44.6655217" lon="10.3450367"><ele>170.33333333333331</ele><time>2026-04-04T11:46:46.992Z</time></trkpt><trkpt lat="44.6655683" lon="10.3447733"><ele>170.66666666666666</ele><time>2026-04-04T11:46:47.991Z</time></trkpt><trkpt lat="44.6656183" lon="10.3445067"><ele>171.0</ele><time>2026-04-04T11:46:48.992Z</time></trkpt><trkpt lat="44.665665" lon="10.3442367"><ele>171.33333333333334</ele><time>2026-04-04T11:46:49.991Z</time></trkpt><trkpt lat="44.665705" lon="10.3439733"><ele>171.66666666666669</ele><time>2026-04-04T11:46:50.991Z</time></trkpt><trkpt lat="44.6657433" lon="10.343725"><ele>172.0</ele><time>2026-04-04T11:46:51.991Z</time></trkpt><trkpt lat="44.6657817" lon="10.34349"><ele>172.66666666666669</ele><time>2026-04-04T11:46:52.991Z</time></trkpt><trkpt lat="44.6658183" lon="10.3432683"><ele>173.33333333333334</ele><time>2026-04-04T11:46:53.992Z</time></trkpt><trkpt lat="44.6658567" lon="10.3430633"><ele>174.0</ele><time>2026-04-04T11:46:54.992Z</time></trkpt><trkpt lat="44.665905" lon="10.3428633"><ele>174.0</ele><time>2026-04-04T11:46:55.991Z</time></trkpt><trkpt lat="44.6659683" lon="10.34267"><ele>174.0</ele><time>2026-04-04T11:46:56.991Z</time></trkpt><trkpt lat="44.6660417" lon="10.34248"><ele>174.0</ele><time>2026-04-04T11:46:57.991Z</time></trkpt><trkpt lat="44.666125" lon="10.3422983"><ele>173.33333333333334</ele><time>2026-04-04T11:46:58.992Z</time></trkpt><trkpt lat="44.6662233" lon="10.3421083"><ele>172.66666666666669</ele><time>2026-04-04T11:46:59.991Z</time></trkpt><trkpt lat="44.66631" lon="10.34192"><ele>172.0</ele><time>2026-04-04T11:47:00.991Z</time></trkpt><trkpt lat="44.6663967" lon="10.34174"><ele>172.0</ele><time>2026-04-04T11:47:01.991Z</time></trkpt><trkpt lat="44.666475" lon="10.34157"><ele>172.0</ele><time>2026-04-04T11:47:02.992Z</time></trkpt><trkpt lat="44.6665533" lon="10.3414083"><ele>172.0</ele><time>2026-04-04T11:47:03.991Z</time></trkpt><trkpt lat="44.6666183" lon="10.3412467"><ele>172.0</ele><time>2026-04-04T11:47:04.992Z</time></trkpt><trkpt lat="44.6667033" lon="10.3410717"><ele>172.0</ele><time>2026-04-04T11:47:05.991Z</time></trkpt><trkpt lat="44.66679" lon="10.3408983"><ele>172.0</ele><time>2026-04-04T11:47:06.991Z</time></trkpt><trkpt lat="44.6668817" lon="10.34072"><ele>172.0</ele><time>2026-04-04T11:47:07.992Z</time></trkpt><trkpt lat="44.6669967" lon="10.34053"><ele>171.66666666666669</ele><time>2026-04-04T11:47:08.992Z</time></trkpt><trkpt lat="44.6671233" lon="10.34033"><ele>171.33333333333334</ele><time>2026-04-04T11:47:09.991Z</time></trkpt><trkpt lat="44.6672583" lon="10.34011"><ele>171.0</ele><time>2026-04-04T11:47:10.992Z</time></trkpt><trkpt lat="44.6674067" lon="10.3398767"><ele>170.0</ele><time>2026-04-04T11:47:11.991Z</time></trkpt><trkpt lat="44.6675683" lon="10.3396317"><ele>169.0</ele><time>2026-04-04T11:47:12.992Z</time></trkpt><trkpt lat="44.66773" lon="10.339365"><ele>169.0</ele><time>2026-04-04T11:47:13.991Z</time></trkpt><trkpt lat="44.667885" lon="10.33909"><ele>169.0</ele><time>2026-04-04T11:47:14.991Z</time></trkpt><trkpt lat="44.6680367" lon="10.33882"><ele>169.0</ele><time>2026-04-04T11:47:15.991Z</time></trkpt><trkpt lat="44.66818" lon="10.33854"><ele>169.0</ele><time>2026-04-04T11:47:16.991Z</time></trkpt><trkpt lat="44.668325" lon="10.338275"><ele>169.0</ele><time>2026-04-04T11:47:17.992Z</time></trkpt><trkpt lat="44.6684617" lon="10.3380267"><ele>169.0</ele><time>2026-04-04T11:47:18.992Z</time></trkpt><trkpt lat="44.6685833" lon="10.337795"><ele>169.0</ele><time>2026-04-04T11:47:19.991Z</time></trkpt><trkpt lat="44.6686917" lon="10.3375667"><ele>168.66666666666669</ele><time>2026-04-04T11:47:20.991Z</time></trkpt><trkpt lat="44.6687933" lon="10.337355"><ele>168.33333333333334</ele><time>2026-04-04T11:47:21.991Z</time></trkpt><trkpt lat="44.6688883" lon="10.3371567"><ele>168.0</ele><time>2026-04-04T11:47:22.992Z</time></trkpt><trkpt lat="44.6689733" lon="10.3369733"><ele>168.0</ele><time>2026-04-04T11:47:23.991Z</time></trkpt><trkpt lat="44.6690483" lon="10.3368217"><ele>168.0</ele><time>2026-04-04T11:47:24.991Z</time></trkpt><trkpt lat="44.66911" lon="10.3366867"><ele>168.0</ele><time>2026-04-04T11:47:25.992Z</time></trkpt><trkpt lat="44.6691733" lon="10.3365533"><ele>168.0</ele><time>2026-04-04T11:47:26.991Z</time></trkpt><trkpt lat="44.6692417" lon="10.3364217"><ele>168.2</ele><time>2026-04-04T11:47:27.991Z</time></trkpt><trkpt lat="44.669315" lon="10.3362967"><ele>168.4</ele><time>2026-04-04T11:47:28.992Z</time></trkpt><trkpt lat="44.669385" lon="10.336175"><ele>168.6</ele><time>2026-04-04T11:47:29.991Z</time></trkpt><trkpt lat="44.669445" lon="10.336075"><ele>168.79999999999998</ele><time>2026-04-04T11:47:30.991Z</time></trkpt><trkpt lat="44.6694967" lon="10.3359967"><ele>169.0</ele><time>2026-04-04T11:47:31.992Z</time></trkpt><trkpt lat="44.6695383" lon="10.3359217"><ele>168.2</ele><time>2026-04-04T11:47:32.991Z</time></trkpt><trkpt lat="44.6696267" lon="10.3358167"><ele>167.39999999999998</ele><time>2026-04-04T11:47:34.991Z</time></trkpt><trkpt lat="44.6697383" lon="10.3357133"><ele>166.6</ele><time>2026-04-04T11:47:36.991Z</time></trkpt><trkpt lat="44.6698133" lon="10.335675"><ele>165.8</ele><time>2026-04-04T11:47:37.992Z</time></trkpt><trkpt lat="44.66989" lon="10.3356217"><ele>165.0</ele><time>2026-04-04T11:47:38.991Z</time></trkpt><trkpt lat="44.6699567" lon="10.335535"><ele>165.0</ele><time>2026-04-04T11:47:39.991Z</time></trkpt><trkpt lat="44.66999" lon="10.335415"><ele>165.0</ele><time>2026-04-04T11:47:40.991Z</time></trkpt><trkpt lat="44.6699817" lon="10.335265"><ele>165.0</ele><time>2026-04-04T11:47:41.991Z</time></trkpt><trkpt lat="44.6699817" lon="10.33511"><ele>165.0</ele><time>2026-04-04T11:47:42.992Z</time></trkpt><trkpt lat="44.67" lon="10.3349283"><ele>165.0</ele><time>2026-04-04T11:47:43.991Z</time></trkpt><trkpt lat="44.6700467" lon="10.33473"><ele>165.66666666666666</ele><time>2026-04-04T11:47:44.992Z</time></trkpt><trkpt lat="44.670105" lon="10.3345367"><ele>166.33333333333331</ele><time>2026-04-04T11:47:45.992Z</time></trkpt><trkpt lat="44.6701767" lon="10.3343433"><ele>167.0</ele><time>2026-04-04T11:47:46.991Z</time></trkpt><trkpt lat="44.67026" lon="10.33416"><ele>166.33333333333331</ele><time>2026-04-04T11:47:47.991Z</time></trkpt><trkpt lat="44.670355" lon="10.33398"><ele>165.66666666666666</ele><time>2026-04-04T11:47:48.992Z</time></trkpt><trkpt lat="44.6704517" lon="10.33381"><ele>165.0</ele><time>2026-04-04T11:47:49.991Z</time></trkpt><trkpt lat="44.6705333" lon="10.3336417"><ele>165.0</ele><time>2026-04-04T11:47:50.991Z</time></trkpt><trkpt lat="44.670615" lon="10.3334817"><ele>165.0</ele><time>2026-04-04T11:47:51.991Z</time></trkpt><trkpt lat="44.6706983" lon="10.3333117"><ele>165.0</ele><time>2026-04-04T11:47:52.991Z</time></trkpt><trkpt lat="44.6707717" lon="10.3331267"><ele>165.0</ele><time>2026-04-04T11:47:53.992Z</time></trkpt><trkpt lat="44.6708283" lon="10.3329233"><ele>165.0</ele><time>2026-04-04T11:47:54.992Z</time></trkpt><trkpt lat="44.6708733" lon="10.3327233"><ele>165.0</ele><time>2026-04-04T11:47:55.991Z</time></trkpt><trkpt lat="44.6709167" lon="10.3325"><ele>165.0</ele><time>2026-04-04T11:47:56.992Z</time></trkpt><trkpt lat="44.6709567" lon="10.3322767"><ele>165.33333333333334</ele><time>2026-04-04T11:47:57.991Z</time></trkpt><trkpt lat="44.67101" lon="10.3320467"><ele>165.66666666666669</ele><time>2026-04-04T11:47:58.992Z</time></trkpt><trkpt lat="44.6710633" lon="10.3318267"><ele>166.0</ele><time>2026-04-04T11:47:59.991Z</time></trkpt><trkpt lat="44.671115" lon="10.3316"><ele>166.0</ele><time>2026-04-04T11:48:00.991Z</time></trkpt><trkpt lat="44.671165" lon="10.3313783"><ele>166.0</ele><time>2026-04-04T11:48:01.991Z</time></trkpt><trkpt lat="44.6712183" lon="10.3311567"><ele>166.0</ele><time>2026-04-04T11:48:02.991Z</time></trkpt><trkpt lat="44.6712717" lon="10.3309317"><ele>166.0</ele><time>2026-04-04T11:48:03.991Z</time></trkpt><trkpt lat="44.6713283" lon="10.3307033"><ele>166.0</ele><time>2026-04-04T11:48:04.992Z</time></trkpt><trkpt lat="44.671385" lon="10.3304783"><ele>166.0</ele><time>2026-04-04T11:48:05.992Z</time></trkpt><trkpt lat="44.6714567" lon="10.3302483"><ele>166.0</ele><time>2026-04-04T11:48:06.992Z</time></trkpt><trkpt lat="44.6715417" lon="10.330025"><ele>166.0</ele><time>2026-04-04T11:48:07.991Z</time></trkpt><trkpt lat="44.671635" lon="10.3297967"><ele>166.0</ele><time>2026-04-04T11:48:08.992Z</time></trkpt><trkpt lat="44.67174" lon="10.32955"><ele>165.33333333333334</ele><time>2026-04-04T11:48:09.991Z</time></trkpt><trkpt lat="44.671845" lon="10.3292833"><ele>164.66666666666666</ele><time>2026-04-04T11:48:10.991Z</time></trkpt><trkpt lat="44.6719517" lon="10.3290067"><ele>164.0</ele><time>2026-04-04T11:48:11.991Z</time></trkpt><trkpt lat="44.6720683" lon="10.3287283"><ele>164.0</ele><time>2026-04-04T11:48:12.992Z</time></trkpt><trkpt lat="44.6721867" lon="10.328445"><ele>164.0</ele><time>2026-04-04T11:48:13.991Z</time></trkpt><trkpt lat="44.6723033" lon="10.3281683"><ele>164.5</ele><time>2026-04-04T11:48:14.991Z</time></trkpt><trkpt lat="44.672415" lon="10.32788"><ele>165.0</ele><time>2026-04-04T11:48:15.991Z</time></trkpt><trkpt lat="44.67253" lon="10.3276033"><ele>165.0</ele><time>2026-04-04T11:48:16.991Z</time></trkpt><trkpt lat="44.6726517" lon="10.3273333"><ele>165.0</ele><time>2026-04-04T11:48:17.992Z</time></trkpt><trkpt lat="44.6727617" lon="10.3270617"><ele>164.33333333333334</ele><time>2026-04-04T11:48:18.991Z</time></trkpt><trkpt lat="44.67286" lon="10.3268067"><ele>163.66666666666669</ele><time>2026-04-04T11:48:19.992Z</time></trkpt><trkpt lat="44.6729667" lon="10.3265667"><ele>163.0</ele><time>2026-04-04T11:48:20.991Z</time></trkpt><trkpt lat="44.6730583" lon="10.3263433"><ele>162.66666666666669</ele><time>2026-04-04T11:48:21.992Z</time></trkpt><trkpt lat="44.6731567" lon="10.3261333"><ele>162.33333333333334</ele><time>2026-04-04T11:48:22.991Z</time></trkpt><trkpt lat="44.6732483" lon="10.3259133"><ele>162.0</ele><time>2026-04-04T11:48:23.991Z</time></trkpt><trkpt lat="44.6733433" lon="10.32568"><ele>162.33333333333334</ele><time>2026-04-04T11:48:24.991Z</time></trkpt><trkpt lat="44.6734333" lon="10.3254533"><ele>162.66666666666669</ele><time>2026-04-04T11:48:25.992Z</time></trkpt><trkpt lat="44.6735367" lon="10.3252217"><ele>163.0</ele><time>2026-04-04T11:48:26.992Z</time></trkpt><trkpt lat="44.6736267" lon="10.32499"><ele>162.33333333333334</ele><time>2026-04-04T11:48:27.991Z</time></trkpt><trkpt lat="44.6737233" lon="10.3247517"><ele>161.66666666666666</ele><time>2026-04-04T11:48:28.991Z</time></trkpt><trkpt lat="44.6738217" lon="10.3245017"><ele>161.0</ele><time>2026-04-04T11:48:29.992Z</time></trkpt><trkpt lat="44.6739067" lon="10.3242367"><ele>161.0</ele><time>2026-04-04T11:48:30.991Z</time></trkpt><trkpt lat="44.67401" lon="10.3239917"><ele>161.0</ele><time>2026-04-04T11:48:31.991Z</time></trkpt><trkpt lat="44.67411" lon="10.3237683"><ele>161.0</ele><time>2026-04-04T11:48:32.992Z</time></trkpt><trkpt lat="44.6741983" lon="10.323565"><ele>161.0</ele><time>2026-04-04T11:48:33.991Z</time></trkpt><trkpt lat="44.6742833" lon="10.323375"><ele>161.0</ele><time>2026-04-04T11:48:34.991Z</time></trkpt><trkpt lat="44.67436" lon="10.3231883"><ele>161.0</ele><time>2026-04-04T11:48:35.991Z</time></trkpt><trkpt lat="44.6744317" lon="10.3229817"><ele>161.66666666666666</ele><time>2026-04-04T11:48:36.992Z</time></trkpt><trkpt lat="44.6745217" lon="10.3227583"><ele>162.33333333333334</ele><time>2026-04-04T11:48:37.991Z</time></trkpt><trkpt lat="44.6746283" lon="10.322525"><ele>163.0</ele><time>2026-04-04T11:48:38.992Z</time></trkpt><trkpt lat="44.6747333" lon="10.3222867"><ele>164.0</ele><time>2026-04-04T11:48:39.991Z</time></trkpt><trkpt lat="44.67484" lon="10.32204"><ele>165.0</ele><time>2026-04-04T11:48:40.992Z</time></trkpt><trkpt lat="44.674945" lon="10.3217967"><ele>166.0</ele><time>2026-04-04T11:48:41.992Z</time></trkpt><trkpt lat="44.6750533" lon="10.32154"><ele>165.33333333333334</ele><time>2026-04-04T11:48:42.991Z</time></trkpt><trkpt lat="44.67517" lon="10.3212817"><ele>164.66666666666666</ele><time>2026-04-04T11:48:43.991Z</time></trkpt><trkpt lat="44.6752817" lon="10.3210167"><ele>164.0</ele><time>2026-04-04T11:48:44.991Z</time></trkpt><trkpt lat="44.675395" lon="10.3207517"><ele>164.33333333333331</ele><time>2026-04-04T11:48:45.991Z</time></trkpt><trkpt lat="44.6755017" lon="10.320495"><ele>164.66666666666666</ele><time>2026-04-04T11:48:46.991Z</time></trkpt><trkpt lat="44.675605" lon="10.3202317"><ele>165.0</ele><time>2026-04-04T11:48:47.991Z</time></trkpt><trkpt lat="44.6757033" lon="10.3199633"><ele>165.0</ele><time>2026-04-04T11:48:48.992Z</time></trkpt><trkpt lat="44.6757867" lon="10.3196833"><ele>165.0</ele><time>2026-04-04T11:48:49.991Z</time></trkpt><trkpt lat="44.675855" lon="10.31939"><ele>165.0</ele><time>2026-04-04T11:48:50.991Z</time></trkpt><trkpt lat="44.6759217" lon="10.3190983"><ele>165.33333333333334</ele><time>2026-04-04T11:48:51.992Z</time></trkpt><trkpt lat="44.6759783" lon="10.3188017"><ele>165.66666666666669</ele><time>2026-04-04T11:48:52.991Z</time></trkpt><trkpt lat="44.6760167" lon="10.3185083"><ele>166.0</ele><time>2026-04-04T11:48:53.991Z</time></trkpt><trkpt lat="44.6760567" lon="10.3181983"><ele>165.33333333333334</ele><time>2026-04-04T11:48:54.992Z</time></trkpt><trkpt lat="44.6761217" lon="10.3178967"><ele>164.66666666666666</ele><time>2026-04-04T11:48:55.991Z</time></trkpt><trkpt lat="44.676165" lon="10.317615"><ele>164.0</ele><time>2026-04-04T11:48:56.992Z</time></trkpt><trkpt lat="44.6762183" lon="10.3173183"><ele>164.33333333333331</ele><time>2026-04-04T11:48:57.991Z</time></trkpt><trkpt lat="44.6762667" lon="10.3170267"><ele>164.66666666666666</ele><time>2026-04-04T11:48:58.991Z</time></trkpt><trkpt lat="44.6763217" lon="10.3167283"><ele>165.0</ele><time>2026-04-04T11:48:59.992Z</time></trkpt><trkpt lat="44.676375" lon="10.3164417"><ele>165.33333333333334</ele><time>2026-04-04T11:49:00.992Z</time></trkpt><trkpt lat="44.6764267" lon="10.31616"><ele>165.66666666666669</ele><time>2026-04-04T11:49:01.991Z</time></trkpt><trkpt lat="44.6764817" lon="10.3158717"><ele>166.0</ele><time>2026-04-04T11:49:02.991Z</time></trkpt><trkpt lat="44.676535" lon="10.315585"><ele>165.66666666666669</ele><time>2026-04-04T11:49:03.992Z</time></trkpt><trkpt lat="44.6765817" lon="10.3153033"><ele>165.33333333333334</ele><time>2026-04-04T11:49:04.991Z</time></trkpt><trkpt lat="44.6766333" lon="10.3150233"><ele>165.0</ele><time>2026-04-04T11:49:05.991Z</time></trkpt><trkpt lat="44.67668" lon="10.3147383"><ele>165.0</ele><time>2026-04-04T11:49:06.991Z</time></trkpt><trkpt lat="44.6767267" lon="10.3144567"><ele>165.0</ele><time>2026-04-04T11:49:07.991Z</time></trkpt><trkpt lat="44.6767783" lon="10.31418"><ele>165.0</ele><time>2026-04-04T11:49:08.991Z</time></trkpt><trkpt lat="44.6768317" lon="10.3139067"><ele>165.33333333333334</ele><time>2026-04-04T11:49:09.992Z</time></trkpt><trkpt lat="44.6768767" lon="10.31363"><ele>165.66666666666669</ele><time>2026-04-04T11:49:10.991Z</time></trkpt><trkpt lat="44.676925" lon="10.313355"><ele>166.0</ele><time>2026-04-04T11:49:11.991Z</time></trkpt><trkpt lat="44.676975" lon="10.3130883"><ele>166.0</ele><time>2026-04-04T11:49:12.991Z</time></trkpt><trkpt lat="44.6770233" lon="10.31281"><ele>166.0</ele><time>2026-04-04T11:49:13.991Z</time></trkpt><trkpt lat="44.677065" lon="10.31255"><ele>166.0</ele><time>2026-04-04T11:49:14.992Z</time></trkpt><trkpt lat="44.6771133" lon="10.31229"><ele>166.66666666666669</ele><time>2026-04-04T11:49:15.991Z</time></trkpt><trkpt lat="44.6771617" lon="10.3120383"><ele>167.33333333333334</ele><time>2026-04-04T11:49:16.992Z</time></trkpt><trkpt lat="44.67721" lon="10.3117833"><ele>168.0</ele><time>2026-04-04T11:49:17.991Z</time></trkpt><trkpt lat="44.67724" lon="10.3115433"><ele>168.33333333333334</ele><time>2026-04-04T11:49:18.992Z</time></trkpt><trkpt lat="44.6772717" lon="10.311315"><ele>168.66666666666669</ele><time>2026-04-04T11:49:19.991Z</time></trkpt><trkpt lat="44.6773067" lon="10.3111017"><ele>169.0</ele><time>2026-04-04T11:49:20.991Z</time></trkpt><trkpt lat="44.677335" lon="10.3108967"><ele>169.0</ele><time>2026-04-04T11:49:21.991Z</time></trkpt><trkpt lat="44.6773683" lon="10.3107133"><ele>169.0</ele><time>2026-04-04T11:49:22.991Z</time></trkpt><trkpt lat="44.677395" lon="10.3105333"><ele>169.0</ele><time>2026-04-04T11:49:23.991Z</time></trkpt><trkpt lat="44.6774267" lon="10.3103667"><ele>169.0</ele><time>2026-04-04T11:49:24.991Z</time></trkpt><trkpt lat="44.6774667" lon="10.3102017"><ele>169.25</ele><time>2026-04-04T11:49:25.991Z</time></trkpt><trkpt lat="44.6774983" lon="10.310015"><ele>169.5</ele><time>2026-04-04T11:49:26.991Z</time></trkpt><trkpt lat="44.6775317" lon="10.30983"><ele>169.75</ele><time>2026-04-04T11:49:27.992Z</time></trkpt><trkpt lat="44.6775733" lon="10.3096433"><ele>170.0</ele><time>2026-04-04T11:49:28.991Z</time></trkpt><trkpt lat="44.6776117" lon="10.3094583"><ele>170.5</ele><time>2026-04-04T11:49:29.991Z</time></trkpt><trkpt lat="44.6776483" lon="10.309275"><ele>171.0</ele><time>2026-04-04T11:49:30.991Z</time></trkpt><trkpt lat="44.6776817" lon="10.3090817"><ele>171.5</ele><time>2026-04-04T11:49:31.991Z</time></trkpt><trkpt lat="44.6777133" lon="10.30889"><ele>172.0</ele><time>2026-04-04T11:49:32.991Z</time></trkpt><trkpt lat="44.6777483" lon="10.3086767"><ele>171.33333333333334</ele><time>2026-04-04T11:49:33.992Z</time></trkpt><trkpt lat="44.6777883" lon="10.3084633"><ele>170.66666666666666</ele><time>2026-04-04T11:49:34.991Z</time></trkpt><trkpt lat="44.67783" lon="10.3082417"><ele>170.0</ele><time>2026-04-04T11:49:35.991Z</time></trkpt><trkpt lat="44.6778767" lon="10.308025"><ele>170.0</ele><time>2026-04-04T11:49:36.991Z</time></trkpt><trkpt lat="44.6779217" lon="10.3078083"><ele>170.0</ele><time>2026-04-04T11:49:37.991Z</time></trkpt><trkpt lat="44.6779767" lon="10.30759"><ele>170.0</ele><time>2026-04-04T11:49:38.991Z</time></trkpt><trkpt lat="44.67803" lon="10.3073567"><ele>170.0</ele><time>2026-04-04T11:49:39.991Z</time></trkpt><trkpt lat="44.6780733" lon="10.307115"><ele>170.0</ele><time>2026-04-04T11:49:40.992Z</time></trkpt><trkpt lat="44.6781183" lon="10.3068633"><ele>170.0</ele><time>2026-04-04T11:49:41.991Z</time></trkpt><trkpt lat="44.678155" lon="10.3066117"><ele>169.66666666666666</ele><time>2026-04-04T11:49:42.992Z</time></trkpt><trkpt lat="44.6782017" lon="10.306345"><ele>169.33333333333334</ele><time>2026-04-04T11:49:43.991Z</time></trkpt><trkpt lat="44.6782517" lon="10.3060717"><ele>169.0</ele><time>2026-04-04T11:49:44.992Z</time></trkpt><trkpt lat="44.678305" lon="10.3057933"><ele>169.0</ele><time>2026-04-04T11:49:45.991Z</time></trkpt><trkpt lat="44.6783617" lon="10.305515"><ele>169.0</ele><time>2026-04-04T11:49:46.991Z</time></trkpt><trkpt lat="44.6784167" lon="10.3052267"><ele>169.0</ele><time>2026-04-04T11:49:47.991Z</time></trkpt><trkpt lat="44.6784667" lon="10.3049367"><ele>168.66666666666669</ele><time>2026-04-04T11:49:48.992Z</time></trkpt><trkpt lat="44.6785167" lon="10.304645"><ele>168.33333333333334</ele><time>2026-04-04T11:49:49.991Z</time></trkpt><trkpt lat="44.67857" lon="10.3043583"><ele>168.0</ele><time>2026-04-04T11:49:50.992Z</time></trkpt><trkpt lat="44.678625" lon="10.3040733"><ele>169.33333333333334</ele><time>2026-04-04T11:49:51.991Z</time></trkpt><trkpt lat="44.6786733" lon="10.3037767"><ele>170.66666666666669</ele><time>2026-04-04T11:49:52.992Z</time></trkpt><trkpt lat="44.67873" lon="10.3034617"><ele>172.0</ele><time>2026-04-04T11:49:53.992Z</time></trkpt><trkpt lat="44.6787767" lon="10.3031433"><ele>171.5</ele><time>2026-04-04T11:49:54.991Z</time></trkpt><trkpt lat="44.678835" lon="10.30281"><ele>171.0</ele><time>2026-04-04T11:49:55.991Z</time></trkpt><trkpt lat="44.6789017" lon="10.3024767"><ele>172.0</ele><time>2026-04-04T11:49:56.991Z</time></trkpt><trkpt lat="44.67897" lon="10.3021467"><ele>173.0</ele><time>2026-04-04T11:49:57.991Z</time></trkpt><trkpt lat="44.67904" lon="10.3018217"><ele>173.0</ele><time>2026-04-04T11:49:58.991Z</time></trkpt><trkpt lat="44.6790967" lon="10.3015117"><ele>173.0</ele><time>2026-04-04T11:49:59.991Z</time></trkpt><trkpt lat="44.6791533" lon="10.3012167"><ele>173.0</ele><time>2026-04-04T11:50:00.992Z</time></trkpt><trkpt lat="44.6792083" lon="10.300945"><ele>172.66666666666666</ele><time>2026-04-04T11:50:01.991Z</time></trkpt><trkpt lat="44.6792567" lon="10.30069"><ele>172.33333333333334</ele><time>2026-04-04T11:50:02.992Z</time></trkpt><trkpt lat="44.679305" lon="10.30044"><ele>172.0</ele><time>2026-04-04T11:50:03.991Z</time></trkpt><trkpt lat="44.6793483" lon="10.3001933"><ele>172.33333333333334</ele><time>2026-04-04T11:50:04.991Z</time></trkpt><trkpt lat="44.6793833" lon="10.29993"><ele>172.66666666666666</ele><time>2026-04-04T11:50:05.992Z</time></trkpt><trkpt lat="44.67943" lon="10.2996617"><ele>173.0</ele><time>2026-04-04T11:50:06.992Z</time></trkpt><trkpt lat="44.6794883" lon="10.2993767"><ele>173.0</ele><time>2026-04-04T11:50:07.992Z</time></trkpt><trkpt lat="44.6795517" lon="10.2990733"><ele>173.0</ele><time>2026-04-04T11:50:08.991Z</time></trkpt><trkpt lat="44.679605" lon="10.298765"><ele>172.5</ele><time>2026-04-04T11:50:09.992Z</time></trkpt><trkpt lat="44.6796667" lon="10.29845"><ele>172.0</ele><time>2026-04-04T11:50:10.991Z</time></trkpt><trkpt lat="44.67973" lon="10.2981317"><ele>172.0</ele><time>2026-04-04T11:50:11.991Z</time></trkpt><trkpt lat="44.67979" lon="10.2978167"><ele>172.0</ele><time>2026-04-04T11:50:12.992Z</time></trkpt><trkpt lat="44.679855" lon="10.2974983"><ele>172.0</ele><time>2026-04-04T11:50:13.992Z</time></trkpt><trkpt lat="44.679925" lon="10.2971833"><ele>172.0</ele><time>2026-04-04T11:50:14.991Z</time></trkpt><trkpt lat="44.6799917" lon="10.2968633"><ele>172.0</ele><time>2026-04-04T11:50:15.992Z</time></trkpt><trkpt lat="44.6800617" lon="10.29655"><ele>172.0</ele><time>2026-04-04T11:50:16.991Z</time></trkpt><trkpt lat="44.6801233" lon="10.2962417"><ele>172.0</ele><time>2026-04-04T11:50:17.991Z</time></trkpt><trkpt lat="44.680185" lon="10.2959467"><ele>172.0</ele><time>2026-04-04T11:50:18.991Z</time></trkpt><trkpt lat="44.6802417" lon="10.2956583"><ele>172.0</ele><time>2026-04-04T11:50:19.991Z</time></trkpt><trkpt lat="44.68029" lon="10.2953833"><ele>171.66666666666669</ele><time>2026-04-04T11:50:20.991Z</time></trkpt><trkpt lat="44.6803383" lon="10.2951383"><ele>171.33333333333334</ele><time>2026-04-04T11:50:21.991Z</time></trkpt><trkpt lat="44.6803817" lon="10.2949333"><ele>171.0</ele><time>2026-04-04T11:50:22.991Z</time></trkpt><trkpt lat="44.6804233" lon="10.2947567"><ele>171.4</ele><time>2026-04-04T11:50:23.991Z</time></trkpt><trkpt lat="44.6804517" lon="10.294605"><ele>171.8</ele><time>2026-04-04T11:50:24.991Z</time></trkpt><trkpt lat="44.68048" lon="10.2944767"><ele>172.20000000000002</ele><time>2026-04-04T11:50:25.992Z</time></trkpt><trkpt lat="44.680535" lon="10.2943583"><ele>172.60000000000002</ele><time>2026-04-04T11:50:26.992Z</time></trkpt><trkpt lat="44.6806017" lon="10.2942567"><ele>173.0</ele><time>2026-04-04T11:50:27.991Z</time></trkpt><trkpt lat="44.6806817" lon="10.2941833"><ele>173.0</ele><time>2026-04-04T11:50:28.991Z</time></trkpt><trkpt lat="44.6807617" lon="10.294115"><ele>173.0</ele><time>2026-04-04T11:50:29.991Z</time></trkpt><trkpt lat="44.6808533" lon="10.2940633"><ele>173.0</ele><time>2026-04-04T11:50:30.991Z</time></trkpt><trkpt lat="44.680965" lon="10.2940417"><ele>173.0</ele><time>2026-04-04T11:50:31.992Z</time></trkpt><trkpt lat="44.6810883" lon="10.2940333"><ele>173.0</ele><time>2026-04-04T11:50:32.991Z</time></trkpt><trkpt lat="44.6812217" lon="10.294035"><ele>172.5</ele><time>2026-04-04T11:50:33.992Z</time></trkpt><trkpt lat="44.6813567" lon="10.2940383"><ele>172.0</ele><time>2026-04-04T11:50:34.991Z</time></trkpt><trkpt lat="44.6815033" lon="10.2940333"><ele>171.5</ele><time>2026-04-04T11:50:35.992Z</time></trkpt><trkpt lat="44.6816567" lon="10.2940267"><ele>171.0</ele><time>2026-04-04T11:50:36.991Z</time></trkpt><trkpt lat="44.68182" lon="10.2940133"><ele>170.0</ele><time>2026-04-04T11:50:37.991Z</time></trkpt><trkpt lat="44.681995" lon="10.2940033"><ele>169.0</ele><time>2026-04-04T11:50:38.991Z</time></trkpt><trkpt lat="44.6821767" lon="10.2940067"><ele>168.0</ele><time>2026-04-04T11:50:39.992Z</time></trkpt><trkpt lat="44.682375" lon="10.29402"><ele>168.0</ele><time>2026-04-04T11:50:40.991Z</time></trkpt><trkpt lat="44.6825817" lon="10.294035"><ele>168.0</ele><time>2026-04-04T11:50:41.991Z</time></trkpt><trkpt lat="44.6827867" lon="10.2940617"><ele>168.0</ele><time>2026-04-04T11:50:42.991Z</time></trkpt><trkpt lat="44.6829983" lon="10.2940967"><ele>168.0</ele><time>2026-04-04T11:50:43.991Z</time></trkpt><trkpt lat="44.6832133" lon="10.2941533"><ele>168.0</ele><time>2026-04-04T11:50:44.991Z</time></trkpt><trkpt lat="44.68343" lon="10.2942267"><ele>168.0</ele><time>2026-04-04T11:50:45.992Z</time></trkpt><trkpt lat="44.6836533" lon="10.2943167"><ele>168.0</ele><time>2026-04-04T11:50:46.991Z</time></trkpt><trkpt lat="44.683875" lon="10.29441"><ele>168.0</ele><time>2026-04-04T11:50:47.991Z</time></trkpt><trkpt lat="44.684095" lon="10.2945"><ele>168.0</ele><time>2026-04-04T11:50:48.992Z</time></trkpt><trkpt lat="44.68431" lon="10.2945983"><ele>168.0</ele><time>2026-04-04T11:50:49.991Z</time></trkpt><trkpt lat="44.684525" lon="10.2947"><ele>166.5</ele><time>2026-04-04T11:50:50.991Z</time></trkpt><trkpt lat="44.6847533" lon="10.2947967"><ele>165.0</ele><time>2026-04-04T11:50:51.991Z</time></trkpt><trkpt lat="44.684975" lon="10.2948983"><ele>165.0</ele><time>2026-04-04T11:50:52.991Z</time></trkpt><trkpt lat="44.6851933" lon="10.2949967"><ele>165.0</ele><time>2026-04-04T11:50:53.992Z</time></trkpt><trkpt lat="44.6854067" lon="10.295095"><ele>164.66666666666666</ele><time>2026-04-04T11:50:54.991Z</time></trkpt><trkpt lat="44.685625" lon="10.2951917"><ele>164.33333333333331</ele><time>2026-04-04T11:50:55.991Z</time></trkpt><trkpt lat="44.6858317" lon="10.2952967"><ele>164.0</ele><time>2026-04-04T11:50:56.991Z</time></trkpt><trkpt lat="44.6860383" lon="10.2954017"><ele>164.0</ele><time>2026-04-04T11:50:57.991Z</time></trkpt><trkpt lat="44.6862467" lon="10.2954983"><ele>164.0</ele><time>2026-04-04T11:50:58.991Z</time></trkpt><trkpt lat="44.6864517" lon="10.2955917"><ele>164.0</ele><time>2026-04-04T11:50:59.992Z</time></trkpt><trkpt lat="44.6866617" lon="10.29569"><ele>163.66666666666666</ele><time>2026-04-04T11:51:00.991Z</time></trkpt><trkpt lat="44.686865" lon="10.2957883"><ele>163.33333333333334</ele><time>2026-04-04T11:51:01.991Z</time></trkpt><trkpt lat="44.6870767" lon="10.2958717"><ele>163.0</ele><time>2026-04-04T11:51:02.991Z</time></trkpt><trkpt lat="44.6872933" lon="10.2959317"><ele>163.0</ele><time>2026-04-04T11:51:03.991Z</time></trkpt><trkpt lat="44.6875033" lon="10.295975"><ele>163.0</ele><time>2026-04-04T11:51:04.992Z</time></trkpt><trkpt lat="44.6877167" lon="10.29599"><ele>163.0</ele><time>2026-04-04T11:51:05.991Z</time></trkpt><trkpt lat="44.6879233" lon="10.29598"><ele>162.33333333333334</ele><time>2026-04-04T11:51:06.991Z</time></trkpt><trkpt lat="44.6881217" lon="10.2959417"><ele>161.66666666666666</ele><time>2026-04-04T11:51:07.991Z</time></trkpt><trkpt lat="44.6883067" lon="10.295875"><ele>161.0</ele><time>2026-04-04T11:51:08.992Z</time></trkpt><trkpt lat="44.6884833" lon="10.295785"><ele>161.0</ele><time>2026-04-04T11:51:09.992Z</time></trkpt><trkpt lat="44.688655" lon="10.295685"><ele>161.0</ele><time>2026-04-04T11:51:10.991Z</time></trkpt><trkpt lat="44.688815" lon="10.2955783"><ele>161.0</ele><time>2026-04-04T11:51:11.991Z</time></trkpt><trkpt lat="44.6889667" lon="10.2954383"><ele>160.66666666666666</ele><time>2026-04-04T11:51:12.991Z</time></trkpt><trkpt lat="44.6891117" lon="10.2952833"><ele>160.33333333333334</ele><time>2026-04-04T11:51:13.991Z</time></trkpt><trkpt lat="44.68925" lon="10.2951267"><ele>160.0</ele><time>2026-04-04T11:51:14.992Z</time></trkpt><trkpt lat="44.6893733" lon="10.294955"><ele>160.0</ele><time>2026-04-04T11:51:15.991Z</time></trkpt><trkpt lat="44.6894783" lon="10.2947783"><ele>160.0</ele><time>2026-04-04T11:51:16.991Z</time></trkpt><trkpt lat="44.6895733" lon="10.29459"><ele>160.0</ele><time>2026-04-04T11:51:17.991Z</time></trkpt><trkpt lat="44.6896583" lon="10.2943933"><ele>160.0</ele><time>2026-04-04T11:51:18.991Z</time></trkpt><trkpt lat="44.6897383" lon="10.2942017"><ele>160.0</ele><time>2026-04-04T11:51:19.991Z</time></trkpt><trkpt lat="44.68981" lon="10.2940183"><ele>160.0</ele><time>2026-04-04T11:51:20.991Z</time></trkpt><trkpt lat="44.68987" lon="10.2938367"><ele>160.0</ele><time>2026-04-04T11:51:21.991Z</time></trkpt><trkpt lat="44.6899267" lon="10.2936617"><ele>160.25</ele><time>2026-04-04T11:51:22.992Z</time></trkpt><trkpt lat="44.6899833" lon="10.293495"><ele>160.5</ele><time>2026-04-04T11:51:23.991Z</time></trkpt><trkpt lat="44.690035" lon="10.293335"><ele>160.75</ele><time>2026-04-04T11:51:24.992Z</time></trkpt><trkpt lat="44.6900817" lon="10.2932033"><ele>161.0</ele><time>2026-04-04T11:51:25.992Z</time></trkpt><trkpt lat="44.6901233" lon="10.2930817"><ele>160.60000000000002</ele><time>2026-04-04T11:51:26.992Z</time></trkpt><trkpt lat="44.690175" lon="10.2929767"><ele>160.20000000000002</ele><time>2026-04-04T11:51:27.991Z</time></trkpt><trkpt lat="44.6902383" lon="10.2929"><ele>159.8</ele><time>2026-04-04T11:51:28.992Z</time></trkpt><trkpt lat="44.6903117" lon="10.29285"><ele>159.4</ele><time>2026-04-04T11:51:29.991Z</time></trkpt><trkpt lat="44.6904067" lon="10.2928117"><ele>159.0</ele><time>2026-04-04T11:51:30.991Z</time></trkpt><trkpt lat="44.6905033" lon="10.2927667"><ele>159.0</ele><time>2026-04-04T11:51:31.991Z</time></trkpt><trkpt lat="44.69058" lon="10.292685"><ele>159.0</ele><time>2026-04-04T11:51:32.991Z</time></trkpt><trkpt lat="44.6906217" lon="10.2925667"><ele>159.0</ele><time>2026-04-04T11:51:33.991Z</time></trkpt><trkpt lat="44.6906117" lon="10.2924333"><ele>159.0</ele><time>2026-04-04T11:51:34.991Z</time></trkpt><trkpt lat="44.690575" lon="10.29228"><ele>159.0</ele><time>2026-04-04T11:51:35.991Z</time></trkpt><trkpt lat="44.690535" lon="10.2921067"><ele>159.25</ele><time>2026-04-04T11:51:36.991Z</time></trkpt><trkpt lat="44.6905233" lon="10.291925"><ele>159.5</ele><time>2026-04-04T11:51:37.991Z</time></trkpt><trkpt lat="44.6905517" lon="10.2917133"><ele>159.75</ele><time>2026-04-04T11:51:38.991Z</time></trkpt><trkpt lat="44.690605" lon="10.2915"><ele>160.0</ele><time>2026-04-04T11:51:39.992Z</time></trkpt><trkpt lat="44.6906833" lon="10.2912833"><ele>159.33333333333334</ele><time>2026-04-04T11:51:40.991Z</time></trkpt><trkpt lat="44.69076" lon="10.291035"><ele>158.66666666666666</ele><time>2026-04-04T11:51:41.991Z</time></trkpt><trkpt lat="44.69083" lon="10.29078"><ele>158.0</ele><time>2026-04-04T11:51:42.991Z</time></trkpt><trkpt lat="44.6909033" lon="10.29053"><ele>158.0</ele><time>2026-04-04T11:51:43.991Z</time></trkpt><trkpt lat="44.6909733" lon="10.2902717"><ele>158.0</ele><time>2026-04-04T11:51:44.991Z</time></trkpt><trkpt lat="44.6910417" lon="10.2900017"><ele>158.0</ele><time>2026-04-04T11:51:45.991Z</time></trkpt><trkpt lat="44.691115" lon="10.28973"><ele>158.0</ele><time>2026-04-04T11:51:46.991Z</time></trkpt><trkpt lat="44.6911917" lon="10.2894533"><ele>158.0</ele><time>2026-04-04T11:51:47.991Z</time></trkpt><trkpt lat="44.6912733" lon="10.2891733"><ele>158.0</ele><time>2026-04-04T11:51:48.991Z</time></trkpt><trkpt lat="44.6913533" lon="10.2888967"><ele>157.66666666666666</ele><time>2026-04-04T11:51:49.992Z</time></trkpt><trkpt lat="44.6914317" lon="10.2886183"><ele>157.33333333333334</ele><time>2026-04-04T11:51:50.991Z</time></trkpt><trkpt lat="44.6915033" lon="10.28834"><ele>157.0</ele><time>2026-04-04T11:51:51.992Z</time></trkpt><trkpt lat="44.691585" lon="10.2880533"><ele>156.5</ele><time>2026-04-04T11:51:52.991Z</time></trkpt><trkpt lat="44.6916717" lon="10.2877667"><ele>156.0</ele><time>2026-04-04T11:51:53.991Z</time></trkpt><trkpt lat="44.6917567" lon="10.287465"><ele>157.0</ele><time>2026-04-04T11:51:54.992Z</time></trkpt><trkpt lat="44.6918367" lon="10.2871667"><ele>158.0</ele><time>2026-04-04T11:51:55.992Z</time></trkpt><trkpt lat="44.69191" lon="10.286855"><ele>157.0</ele><time>2026-04-04T11:51:56.991Z</time></trkpt><trkpt lat="44.691985" lon="10.2865467"><ele>156.0</ele><time>2026-04-04T11:51:57.992Z</time></trkpt><trkpt lat="44.6920533" lon="10.2862317"><ele>155.5</ele><time>2026-04-04T11:51:58.992Z</time></trkpt><trkpt lat="44.6921167" lon="10.2859183"><ele>155.0</ele><time>2026-04-04T11:51:59.992Z</time></trkpt><trkpt lat="44.6921717" lon="10.285605"><ele>155.0</ele><time>2026-04-04T11:52:00.991Z</time></trkpt><trkpt lat="44.6922233" lon="10.2852867"><ele>155.0</ele><time>2026-04-04T11:52:01.991Z</time></trkpt><trkpt lat="44.6922667" lon="10.2849767"><ele>155.5</ele><time>2026-04-04T11:52:02.991Z</time></trkpt><trkpt lat="44.6923017" lon="10.2846667"><ele>156.0</ele><time>2026-04-04T11:52:03.991Z</time></trkpt><trkpt lat="44.69234" lon="10.2843483"><ele>156.0</ele><time>2026-04-04T11:52:04.992Z</time></trkpt><trkpt lat="44.6923733" lon="10.2840367"><ele>156.0</ele><time>2026-04-04T11:52:05.991Z</time></trkpt><trkpt lat="44.6924067" lon="10.2837267"><ele>156.0</ele><time>2026-04-04T11:52:06.992Z</time></trkpt><trkpt lat="44.69244" lon="10.2834117"><ele>156.0</ele><time>2026-04-04T11:52:07.991Z</time></trkpt><trkpt lat="44.6924817" lon="10.2831117"><ele>156.0</ele><time>2026-04-04T11:52:08.991Z</time></trkpt><trkpt lat="44.6925133" lon="10.282805"><ele>156.0</ele><time>2026-04-04T11:52:09.991Z</time></trkpt><trkpt lat="44.692545" lon="10.2825"><ele>155.66666666666666</ele><time>2026-04-04T11:52:10.992Z</time></trkpt><trkpt lat="44.6925783" lon="10.282195"><ele>155.33333333333331</ele><time>2026-04-04T11:52:11.992Z</time></trkpt><trkpt lat="44.692605" lon="10.2818867"><ele>155.0</ele><time>2026-04-04T11:52:12.991Z</time></trkpt><trkpt lat="44.6926417" lon="10.2815767"><ele>156.0</ele><time>2026-04-04T11:52:13.991Z</time></trkpt><trkpt lat="44.6926783" lon="10.2812667"><ele>157.0</ele><time>2026-04-04T11:52:14.991Z</time></trkpt><trkpt lat="44.6927133" lon="10.2809583"><ele>158.0</ele><time>2026-04-04T11:52:15.991Z</time></trkpt><trkpt lat="44.692745" lon="10.280655"><ele>158.0</ele><time>2026-04-04T11:52:16.992Z</time></trkpt><trkpt lat="44.6927767" lon="10.28035"><ele>158.0</ele><time>2026-04-04T11:52:17.992Z</time></trkpt><trkpt lat="44.692815" lon="10.28005"><ele>158.0</ele><time>2026-04-04T11:52:18.991Z</time></trkpt><trkpt lat="44.692855" lon="10.2797583"><ele>158.0</ele><time>2026-04-04T11:52:19.991Z</time></trkpt><trkpt lat="44.6928917" lon="10.2794767"><ele>158.0</ele><time>2026-04-04T11:52:20.992Z</time></trkpt><trkpt lat="44.6929167" lon="10.2792183"><ele>158.0</ele><time>2026-04-04T11:52:21.991Z</time></trkpt><trkpt lat="44.6929383" lon="10.2789667"><ele>158.0</ele><time>2026-04-04T11:52:22.991Z</time></trkpt><trkpt lat="44.6929667" lon="10.2787433"><ele>158.0</ele><time>2026-04-04T11:52:23.992Z</time></trkpt><trkpt lat="44.69299" lon="10.2785467"><ele>158.0</ele><time>2026-04-04T11:52:24.991Z</time></trkpt><trkpt lat="44.6930233" lon="10.2783783"><ele>158.0</ele><time>2026-04-04T11:52:25.991Z</time></trkpt><trkpt lat="44.6930767" lon="10.2782233"><ele>158.25</ele><time>2026-04-04T11:52:26.991Z</time></trkpt><trkpt lat="44.6931483" lon="10.2780833"><ele>158.5</ele><time>2026-04-04T11:52:27.991Z</time></trkpt><trkpt lat="44.693195" lon="10.2779217"><ele>158.75</ele><time>2026-04-04T11:52:28.992Z</time></trkpt><trkpt lat="44.6931867" lon="10.277755"><ele>159.0</ele><time>2026-04-04T11:52:29.992Z</time></trkpt><trkpt lat="44.693135" lon="10.2775767"><ele>159.0</ele><time>2026-04-04T11:52:30.992Z</time></trkpt><trkpt lat="44.6931017" lon="10.2773767"><ele>159.0</ele><time>2026-04-04T11:52:31.991Z</time></trkpt><trkpt lat="44.6930933" lon="10.2771517"><ele>159.0</ele><time>2026-04-04T11:52:32.991Z</time></trkpt><trkpt lat="44.69311" lon="10.2769067"><ele>159.33333333333334</ele><time>2026-04-04T11:52:33.992Z</time></trkpt><trkpt lat="44.69313" lon="10.276645"><ele>159.66666666666669</ele><time>2026-04-04T11:52:34.991Z</time></trkpt><trkpt lat="44.6931517" lon="10.2763867"><ele>160.0</ele><time>2026-04-04T11:52:35.992Z</time></trkpt><trkpt lat="44.693175" lon="10.2761117"><ele>160.0</ele><time>2026-04-04T11:52:36.991Z</time></trkpt><trkpt lat="44.6932067" lon="10.2758333"><ele>160.0</ele><time>2026-04-04T11:52:37.991Z</time></trkpt><trkpt lat="44.6932367" lon="10.2755517"><ele>160.0</ele><time>2026-04-04T11:52:38.992Z</time></trkpt><trkpt lat="44.6932683" lon="10.2752583"><ele>159.33333333333334</ele><time>2026-04-04T11:52:39.992Z</time></trkpt><trkpt lat="44.6932917" lon="10.2749583"><ele>158.66666666666666</ele><time>2026-04-04T11:52:40.991Z</time></trkpt><trkpt lat="44.693315" lon="10.2746467"><ele>158.0</ele><time>2026-04-04T11:52:41.992Z</time></trkpt><trkpt lat="44.6933417" lon="10.2743267"><ele>158.0</ele><time>2026-04-04T11:52:42.991Z</time></trkpt><trkpt lat="44.6933767" lon="10.2740133"><ele>158.0</ele><time>2026-04-04T11:52:43.991Z</time></trkpt><trkpt lat="44.693405" lon="10.273695"><ele>159.5</ele><time>2026-04-04T11:52:44.991Z</time></trkpt><trkpt lat="44.6934283" lon="10.2733733"><ele>161.0</ele><time>2026-04-04T11:52:45.992Z</time></trkpt><trkpt lat="44.6934583" lon="10.273055"><ele>161.0</ele><time>2026-04-04T11:52:46.992Z</time></trkpt><trkpt lat="44.693485" lon="10.2727283"><ele>161.0</ele><time>2026-04-04T11:52:47.991Z</time></trkpt><trkpt lat="44.6935067" lon="10.2724017"><ele>162.0</ele><time>2026-04-04T11:52:48.992Z</time></trkpt><trkpt lat="44.69353" lon="10.2720783"><ele>163.0</ele><time>2026-04-04T11:52:49.992Z</time></trkpt><trkpt lat="44.693555" lon="10.271755"><ele>163.0</ele><time>2026-04-04T11:52:50.991Z</time></trkpt><trkpt lat="44.6935783" lon="10.271435"><ele>163.0</ele><time>2026-04-04T11:52:51.991Z</time></trkpt><trkpt lat="44.693605" lon="10.2711133"><ele>162.5</ele><time>2026-04-04T11:52:52.992Z</time></trkpt><trkpt lat="44.6936283" lon="10.270795"><ele>162.0</ele><time>2026-04-04T11:52:53.991Z</time></trkpt><trkpt lat="44.69365" lon="10.270475"><ele>162.0</ele><time>2026-04-04T11:52:54.991Z</time></trkpt><trkpt lat="44.6936783" lon="10.2701633"><ele>162.0</ele><time>2026-04-04T11:52:55.991Z</time></trkpt><trkpt lat="44.6937067" lon="10.26984"><ele>162.0</ele><time>2026-04-04T11:52:56.991Z</time></trkpt><trkpt lat="44.6937367" lon="10.2695333"><ele>162.0</ele><time>2026-04-04T11:52:57.991Z</time></trkpt><trkpt lat="44.6937667" lon="10.2692183"><ele>162.0</ele><time>2026-04-04T11:52:58.991Z</time></trkpt><trkpt lat="44.6937933" lon="10.268905"><ele>162.0</ele><time>2026-04-04T11:52:59.991Z</time></trkpt><trkpt lat="44.693815" lon="10.2685917"><ele>162.0</ele><time>2026-04-04T11:53:00.991Z</time></trkpt><trkpt lat="44.6938483" lon="10.268275"><ele>163.0</ele><time>2026-04-04T11:53:01.991Z</time></trkpt><trkpt lat="44.6938717" lon="10.2679567"><ele>164.0</ele><time>2026-04-04T11:53:02.991Z</time></trkpt><trkpt lat="44.6939" lon="10.2676367"><ele>164.0</ele><time>2026-04-04T11:53:03.991Z</time></trkpt><trkpt lat="44.693925" lon="10.267315"><ele>164.0</ele><time>2026-04-04T11:53:04.991Z</time></trkpt><trkpt lat="44.6939483" lon="10.2669917"><ele>164.33333333333331</ele><time>2026-04-04T11:53:05.992Z</time></trkpt><trkpt lat="44.6939667" lon="10.266685"><ele>164.66666666666666</ele><time>2026-04-04T11:53:06.991Z</time></trkpt><trkpt lat="44.693985" lon="10.2663983"><ele>165.0</ele><time>2026-04-04T11:53:07.991Z</time></trkpt><trkpt lat="44.6939983" lon="10.2661217"><ele>165.0</ele><time>2026-04-04T11:53:08.991Z</time></trkpt><trkpt lat="44.69402" lon="10.2658683"><ele>165.0</ele><time>2026-04-04T11:53:09.991Z</time></trkpt><trkpt lat="44.6940367" lon="10.2656483"><ele>165.0</ele><time>2026-04-04T11:53:10.991Z</time></trkpt><trkpt lat="44.6940533" lon="10.2654617"><ele>165.0</ele><time>2026-04-04T11:53:11.991Z</time></trkpt><trkpt lat="44.69408" lon="10.2653033"><ele>165.0</ele><time>2026-04-04T11:53:12.992Z</time></trkpt><trkpt lat="44.69413" lon="10.2651667"><ele>165.0</ele><time>2026-04-04T11:53:13.992Z</time></trkpt><trkpt lat="44.6941883" lon="10.26503"><ele>165.0</ele><time>2026-04-04T11:53:14.992Z</time></trkpt><trkpt lat="44.6942383" lon="10.2649017"><ele>165.0</ele><time>2026-04-04T11:53:15.991Z</time></trkpt><trkpt lat="44.6942617" lon="10.2647617"><ele>165.0</ele><time>2026-04-04T11:53:16.991Z</time></trkpt><trkpt lat="44.69424" lon="10.2646183"><ele>165.0</ele><time>2026-04-04T11:53:17.992Z</time></trkpt><trkpt lat="44.694225" lon="10.26447"><ele>165.0</ele><time>2026-04-04T11:53:18.991Z</time></trkpt><trkpt lat="44.6942283" lon="10.2643117"><ele>165.0</ele><time>2026-04-04T11:53:19.991Z</time></trkpt><trkpt lat="44.6942533" lon="10.26414"><ele>165.0</ele><time>2026-04-04T11:53:20.991Z</time></trkpt><trkpt lat="44.6943017" lon="10.2639533"><ele>165.0</ele><time>2026-04-04T11:53:21.991Z</time></trkpt><trkpt lat="44.6943417" lon="10.2637433"><ele>165.0</ele><time>2026-04-04T11:53:22.991Z</time></trkpt><trkpt lat="44.6943917" lon="10.2635167"><ele>165.0</ele><time>2026-04-04T11:53:23.991Z</time></trkpt><trkpt lat="44.6944483" lon="10.2632917"><ele>165.0</ele><time>2026-04-04T11:53:24.992Z</time></trkpt><trkpt lat="44.694515" lon="10.2630517"><ele>165.0</ele><time>2026-04-04T11:53:25.991Z</time></trkpt><trkpt lat="44.6945767" lon="10.2627983"><ele>165.0</ele><time>2026-04-04T11:53:26.991Z</time></trkpt><trkpt lat="44.6946417" lon="10.26254"><ele>165.0</ele><time>2026-04-04T11:53:27.991Z</time></trkpt><trkpt lat="44.6947033" lon="10.2622833"><ele>165.0</ele><time>2026-04-04T11:53:28.991Z</time></trkpt><trkpt lat="44.694765" lon="10.2620217"><ele>165.0</ele><time>2026-04-04T11:53:29.991Z</time></trkpt><trkpt lat="44.6948383" lon="10.2617667"><ele>165.33333333333334</ele><time>2026-04-04T11:53:30.992Z</time></trkpt><trkpt lat="44.6949167" lon="10.2615083"><ele>165.66666666666669</ele><time>2026-04-04T11:53:31.991Z</time></trkpt><trkpt lat="44.6949933" lon="10.26125"><ele>166.0</ele><time>2026-04-04T11:53:32.992Z</time></trkpt><trkpt lat="44.69509" lon="10.261"><ele>166.0</ele><time>2026-04-04T11:53:33.991Z</time></trkpt><trkpt lat="44.6951983" lon="10.26075"><ele>166.0</ele><time>2026-04-04T11:53:34.991Z</time></trkpt><trkpt lat="44.69532" lon="10.2605117"><ele>166.0</ele><time>2026-04-04T11:53:35.991Z</time></trkpt><trkpt lat="44.6954517" lon="10.2602683"><ele>166.33333333333334</ele><time>2026-04-04T11:53:36.992Z</time></trkpt><trkpt lat="44.6955933" lon="10.2600383"><ele>166.66666666666666</ele><time>2026-04-04T11:53:37.991Z</time></trkpt><trkpt lat="44.695755" lon="10.2598267"><ele>167.0</ele><time>2026-04-04T11:53:38.991Z</time></trkpt><trkpt lat="44.6959183" lon="10.259635"><ele>167.0</ele><time>2026-04-04T11:53:39.991Z</time></trkpt><trkpt lat="44.69608" lon="10.2594417"><ele>167.0</ele><time>2026-04-04T11:53:40.991Z</time></trkpt><trkpt lat="44.69624" lon="10.2592433"><ele>167.0</ele><time>2026-04-04T11:53:41.991Z</time></trkpt><trkpt lat="44.696395" lon="10.2590517"><ele>166.66666666666666</ele><time>2026-04-04T11:53:42.991Z</time></trkpt><trkpt lat="44.696545" lon="10.2588767"><ele>166.33333333333334</ele><time>2026-04-04T11:53:43.991Z</time></trkpt><trkpt lat="44.6966917" lon="10.2587017"><ele>166.0</ele><time>2026-04-04T11:53:44.992Z</time></trkpt><trkpt lat="44.696825" lon="10.2585367"><ele>166.25</ele><time>2026-04-04T11:53:45.991Z</time></trkpt><trkpt lat="44.6969483" lon="10.2583783"><ele>166.5</ele><time>2026-04-04T11:53:46.991Z</time></trkpt><trkpt lat="44.6970617" lon="10.2582467"><ele>166.75</ele><time>2026-04-04T11:53:47.991Z</time></trkpt><trkpt lat="44.6971633" lon="10.258135"><ele>167.0</ele><time>2026-04-04T11:53:48.991Z</time></trkpt><trkpt lat="44.6972667" lon="10.2580633"><ele>167.2</ele><time>2026-04-04T11:53:49.992Z</time></trkpt><trkpt lat="44.6973717" lon="10.2580117"><ele>167.39999999999998</ele><time>2026-04-04T11:53:50.991Z</time></trkpt><trkpt lat="44.697475" lon="10.2579733"><ele>167.60000000000002</ele><time>2026-04-04T11:53:51.991Z</time></trkpt><trkpt lat="44.697575" lon="10.2579333"><ele>167.8</ele><time>2026-04-04T11:53:52.991Z</time></trkpt><trkpt lat="44.6976883" lon="10.2578867"><ele>168.0</ele><time>2026-04-04T11:53:53.991Z</time></trkpt><trkpt lat="44.69783" lon="10.2578833"><ele>168.0</ele><time>2026-04-04T11:53:54.992Z</time></trkpt><trkpt lat="44.6979833" lon="10.2578967"><ele>168.0</ele><time>2026-04-04T11:53:55.991Z</time></trkpt><trkpt lat="44.6981517" lon="10.2579467"><ele>168.0</ele><time>2026-04-04T11:53:56.991Z</time></trkpt><trkpt lat="44.698335" lon="10.2580083"><ele>168.0</ele><time>2026-04-04T11:53:57.991Z</time></trkpt><trkpt lat="44.6985183" lon="10.258075"><ele>168.0</ele><time>2026-04-04T11:53:58.991Z</time></trkpt><trkpt lat="44.69871" lon="10.258135"><ele>168.0</ele><time>2026-04-04T11:53:59.991Z</time></trkpt><trkpt lat="44.69891" lon="10.258195"><ele>167.33333333333334</ele><time>2026-04-04T11:54:00.992Z</time></trkpt><trkpt lat="44.69911" lon="10.2582683"><ele>166.66666666666669</ele><time>2026-04-04T11:54:01.992Z</time></trkpt><trkpt lat="44.6993183" lon="10.25834"><ele>166.0</ele><time>2026-04-04T11:54:02.991Z</time></trkpt><trkpt lat="44.6995283" lon="10.2584117"><ele>165.0</ele><time>2026-04-04T11:54:03.991Z</time></trkpt><trkpt lat="44.69974" lon="10.258485"><ele>164.0</ele><time>2026-04-04T11:54:04.992Z</time></trkpt><trkpt lat="44.6999533" lon="10.258555"><ele>163.0</ele><time>2026-04-04T11:54:05.991Z</time></trkpt><trkpt lat="44.7001633" lon="10.2586333"><ele>162.0</ele><time>2026-04-04T11:54:06.992Z</time></trkpt><trkpt lat="44.7003767" lon="10.2587167"><ele>161.0</ele><time>2026-04-04T11:54:07.991Z</time></trkpt><trkpt lat="44.70059" lon="10.258805"><ele>160.0</ele><time>2026-04-04T11:54:08.992Z</time></trkpt><trkpt lat="44.7007967" lon="10.2589033"><ele>160.0</ele><time>2026-04-04T11:54:09.991Z</time></trkpt><trkpt lat="44.701" lon="10.2590117"><ele>160.0</ele><time>2026-04-04T11:54:10.991Z</time></trkpt><trkpt lat="44.7012133" lon="10.2591283"><ele>160.0</ele><time>2026-04-04T11:54:11.992Z</time></trkpt><trkpt lat="44.7014167" lon="10.259245"><ele>160.0</ele><time>2026-04-04T11:54:12.991Z</time></trkpt><trkpt lat="44.7016283" lon="10.2593667"><ele>160.0</ele><time>2026-04-04T11:54:13.992Z</time></trkpt><trkpt lat="44.7018383" lon="10.2594883"><ele>159.66666666666669</ele><time>2026-04-04T11:54:14.992Z</time></trkpt><trkpt lat="44.7020483" lon="10.2596083"><ele>159.33333333333334</ele><time>2026-04-04T11:54:15.991Z</time></trkpt><trkpt lat="44.7022517" lon="10.259735"><ele>159.0</ele><time>2026-04-04T11:54:16.991Z</time></trkpt><trkpt lat="44.7024533" lon="10.2598683"><ele>159.0</ele><time>2026-04-04T11:54:17.991Z</time></trkpt><trkpt lat="44.7026583" lon="10.259995"><ele>159.0</ele><time>2026-04-04T11:54:18.991Z</time></trkpt><trkpt lat="44.70286" lon="10.2601183"><ele>159.0</ele><time>2026-04-04T11:54:19.992Z</time></trkpt><trkpt lat="44.7030567" lon="10.2602483"><ele>159.0</ele><time>2026-04-04T11:54:20.992Z</time></trkpt><trkpt lat="44.70326" lon="10.260375"><ele>159.0</ele><time>2026-04-04T11:54:21.991Z</time></trkpt><trkpt lat="44.7034683" lon="10.2604967"><ele>159.0</ele><time>2026-04-04T11:54:22.992Z</time></trkpt><trkpt lat="44.70367" lon="10.2606217"><ele>158.66666666666666</ele><time>2026-04-04T11:54:23.991Z</time></trkpt><trkpt lat="44.7038667" lon="10.26075"><ele>158.33333333333331</ele><time>2026-04-04T11:54:24.991Z</time></trkpt><trkpt lat="44.7040667" lon="10.2608583"><ele>158.0</ele><time>2026-04-04T11:54:25.991Z</time></trkpt><trkpt lat="44.704275" lon="10.2609617"><ele>157.66666666666666</ele><time>2026-04-04T11:54:26.991Z</time></trkpt><trkpt lat="44.7044917" lon="10.2610383"><ele>157.33333333333334</ele><time>2026-04-04T11:54:27.992Z</time></trkpt><trkpt lat="44.7047067" lon="10.2610967"><ele>157.0</ele><time>2026-04-04T11:54:28.991Z</time></trkpt><trkpt lat="44.70492" lon="10.2611317"><ele>157.0</ele><time>2026-04-04T11:54:29.991Z</time></trkpt><trkpt lat="44.7051417" lon="10.26114"><ele>157.0</ele><time>2026-04-04T11:54:30.991Z</time></trkpt><trkpt lat="44.7053617" lon="10.26112"><ele>157.0</ele><time>2026-04-04T11:54:31.991Z</time></trkpt><trkpt lat="44.705585" lon="10.2610583"><ele>156.0</ele><time>2026-04-04T11:54:32.991Z</time></trkpt><trkpt lat="44.7058033" lon="10.26097"><ele>155.0</ele><time>2026-04-04T11:54:33.992Z</time></trkpt><trkpt lat="44.7060133" lon="10.26086"><ele>154.0</ele><time>2026-04-04T11:54:34.991Z</time></trkpt><trkpt lat="44.706195" lon="10.2607267"><ele>153.0</ele><time>2026-04-04T11:54:35.991Z</time></trkpt><trkpt lat="44.7063633" lon="10.2605817"><ele>152.0</ele><time>2026-04-04T11:54:36.992Z</time></trkpt><trkpt lat="44.70651" lon="10.260425"><ele>152.0</ele><time>2026-04-04T11:54:37.991Z</time></trkpt><trkpt lat="44.7066417" lon="10.2602583"><ele>152.0</ele><time>2026-04-04T11:54:38.991Z</time></trkpt><trkpt lat="44.70676" lon="10.2601033"><ele>152.0</ele><time>2026-04-04T11:54:39.991Z</time></trkpt><trkpt lat="44.7068717" lon="10.2599667"><ele>152.0</ele><time>2026-04-04T11:54:40.991Z</time></trkpt><trkpt lat="44.70699" lon="10.25987"><ele>152.0</ele><time>2026-04-04T11:54:41.991Z</time></trkpt><trkpt lat="44.7070933" lon="10.2598117"><ele>152.0</ele><time>2026-04-04T11:54:42.991Z</time></trkpt><trkpt lat="44.7071983" lon="10.2597633"><ele>152.0</ele><time>2026-04-04T11:54:43.991Z</time></trkpt><trkpt lat="44.70729" lon="10.2596967"><ele>152.4</ele><time>2026-04-04T11:54:44.991Z</time></trkpt><trkpt lat="44.7073567" lon="10.2595967"><ele>152.79999999999998</ele><time>2026-04-04T11:54:45.992Z</time></trkpt><trkpt lat="44.70739" lon="10.2594533"><ele>153.2</ele><time>2026-04-04T11:54:46.992Z</time></trkpt><trkpt lat="44.7073783" lon="10.2592967"><ele>153.6</ele><time>2026-04-04T11:54:47.991Z</time></trkpt><trkpt lat="44.70737" lon="10.2591233"><ele>154.0</ele><time>2026-04-04T11:54:48.992Z</time></trkpt><trkpt lat="44.7073933" lon="10.258915"><ele>154.0</ele><time>2026-04-04T11:54:49.991Z</time></trkpt><trkpt lat="44.7074417" lon="10.2587033"><ele>154.0</ele><time>2026-04-04T11:54:50.991Z</time></trkpt><trkpt lat="44.7075133" lon="10.2584917"><ele>154.0</ele><time>2026-04-04T11:54:51.992Z</time></trkpt><trkpt lat="44.7075817" lon="10.2582617"><ele>153.66666666666669</ele><time>2026-04-04T11:54:52.991Z</time></trkpt><trkpt lat="44.7076533" lon="10.2580133"><ele>153.33333333333334</ele><time>2026-04-04T11:54:53.991Z</time></trkpt><trkpt lat="44.7077233" lon="10.2577667"><ele>153.0</ele><time>2026-04-04T11:54:54.991Z</time></trkpt><trkpt lat="44.7078017" lon="10.2575183"><ele>153.0</ele><time>2026-04-04T11:54:55.991Z</time></trkpt><trkpt lat="44.707875" lon="10.2572567"><ele>153.0</ele><time>2026-04-04T11:54:56.992Z</time></trkpt><trkpt lat="44.70795" lon="10.2569983"><ele>153.0</ele><time>2026-04-04T11:54:57.992Z</time></trkpt><trkpt lat="44.7080233" lon="10.2567367"><ele>153.0</ele><time>2026-04-04T11:54:58.991Z</time></trkpt><trkpt lat="44.708095" lon="10.25648"><ele>153.0</ele><time>2026-04-04T11:54:59.992Z</time></trkpt><trkpt lat="44.70817" lon="10.2562117"><ele>153.0</ele><time>2026-04-04T11:55:00.991Z</time></trkpt><trkpt lat="44.7082483" lon="10.2559467"><ele>154.0</ele><time>2026-04-04T11:55:01.991Z</time></trkpt><trkpt lat="44.7083267" lon="10.2556833"><ele>155.0</ele><time>2026-04-04T11:55:02.991Z</time></trkpt><trkpt lat="44.7084017" lon="10.2554217"><ele>156.0</ele><time>2026-04-04T11:55:03.991Z</time></trkpt><trkpt lat="44.7084767" lon="10.255155"><ele>156.66666666666666</ele><time>2026-04-04T11:55:04.992Z</time></trkpt><trkpt lat="44.7085567" lon="10.2548833"><ele>157.33333333333331</ele><time>2026-04-04T11:55:05.991Z</time></trkpt><trkpt lat="44.70863" lon="10.2546083"><ele>158.0</ele><time>2026-04-04T11:55:06.992Z</time></trkpt><trkpt lat="44.70871" lon="10.2543333"><ele>158.0</ele><time>2026-04-04T11:55:07.991Z</time></trkpt><trkpt lat="44.708785" lon="10.254055"><ele>158.0</ele><time>2026-04-04T11:55:08.991Z</time></trkpt><trkpt lat="44.708855" lon="10.253785"><ele>158.0</ele><time>2026-04-04T11:55:09.991Z</time></trkpt><trkpt lat="44.708935" lon="10.2535167"><ele>158.0</ele><time>2026-04-04T11:55:10.992Z</time></trkpt><trkpt lat="44.7090133" lon="10.2532383"><ele>158.0</ele><time>2026-04-04T11:55:11.991Z</time></trkpt><trkpt lat="44.709085" lon="10.2529583"><ele>158.0</ele><time>2026-04-04T11:55:12.991Z</time></trkpt><trkpt lat="44.7091467" lon="10.2526767"><ele>158.0</ele><time>2026-04-04T11:55:13.991Z</time></trkpt><trkpt lat="44.7092" lon="10.2523933"><ele>158.0</ele><time>2026-04-04T11:55:14.991Z</time></trkpt><trkpt lat="44.7092417" lon="10.2521067"><ele>158.0</ele><time>2026-04-04T11:55:15.992Z</time></trkpt><trkpt lat="44.7092767" lon="10.2518133"><ele>157.33333333333331</ele><time>2026-04-04T11:55:16.991Z</time></trkpt><trkpt lat="44.7092967" lon="10.2515217"><ele>156.66666666666666</ele><time>2026-04-04T11:55:17.991Z</time></trkpt><trkpt lat="44.7093067" lon="10.2512267"><ele>156.0</ele><time>2026-04-04T11:55:18.991Z</time></trkpt><trkpt lat="44.709315" lon="10.250935"><ele>156.0</ele><time>2026-04-04T11:55:19.991Z</time></trkpt><trkpt lat="44.7093233" lon="10.2506417"><ele>156.0</ele><time>2026-04-04T11:55:20.991Z</time></trkpt><trkpt lat="44.709315" lon="10.250345"><ele>156.0</ele><time>2026-04-04T11:55:21.991Z</time></trkpt><trkpt lat="44.709295" lon="10.2500433"><ele>157.66666666666666</ele><time>2026-04-04T11:55:22.991Z</time></trkpt><trkpt lat="44.709265" lon="10.2497367"><ele>159.33333333333331</ele><time>2026-04-04T11:55:23.991Z</time></trkpt><trkpt lat="44.7092217" lon="10.2494283"><ele>161.0</ele><time>2026-04-04T11:55:24.991Z</time></trkpt><trkpt lat="44.7091667" lon="10.249125"><ele>160.66666666666666</ele><time>2026-04-04T11:55:25.992Z</time></trkpt><trkpt lat="44.7091033" lon="10.2488183"><ele>160.33333333333334</ele><time>2026-04-04T11:55:26.991Z</time></trkpt><trkpt lat="44.7090267" lon="10.248525"><ele>160.0</ele><time>2026-04-04T11:55:27.992Z</time></trkpt><trkpt lat="44.708945" lon="10.2482317"><ele>159.0</ele><time>2026-04-04T11:55:28.992Z</time></trkpt><trkpt lat="44.7088617" lon="10.2479367"><ele>158.0</ele><time>2026-04-04T11:55:29.991Z</time></trkpt><trkpt lat="44.7087717" lon="10.2476433"><ele>158.0</ele><time>2026-04-04T11:55:30.991Z</time></trkpt><trkpt lat="44.7086867" lon="10.2473533"><ele>158.0</ele><time>2026-04-04T11:55:31.991Z</time></trkpt><trkpt lat="44.7086017" lon="10.2470567"><ele>159.33333333333331</ele><time>2026-04-04T11:55:32.991Z</time></trkpt><trkpt lat="44.708515" lon="10.2467633"><ele>160.66666666666666</ele><time>2026-04-04T11:55:33.992Z</time></trkpt><trkpt lat="44.70844" lon="10.2464683"><ele>162.0</ele><time>2026-04-04T11:55:34.991Z</time></trkpt><trkpt lat="44.708375" lon="10.2461683"><ele>162.0</ele><time>2026-04-04T11:55:35.991Z</time></trkpt><trkpt lat="44.7083217" lon="10.2458733"><ele>162.0</ele><time>2026-04-04T11:55:36.991Z</time></trkpt><trkpt lat="44.7082717" lon="10.2455717"><ele>162.0</ele><time>2026-04-04T11:55:37.991Z</time></trkpt><trkpt lat="44.7082317" lon="10.2452717"><ele>162.33333333333334</ele><time>2026-04-04T11:55:38.991Z</time></trkpt><trkpt lat="44.7081967" lon="10.2449667"><ele>162.66666666666669</ele><time>2026-04-04T11:55:39.992Z</time></trkpt><trkpt lat="44.7081717" lon="10.2446617"><ele>163.0</ele><time>2026-04-04T11:55:40.991Z</time></trkpt><trkpt lat="44.7081633" lon="10.2443533"><ele>163.5</ele><time>2026-04-04T11:55:41.991Z</time></trkpt><trkpt lat="44.7081617" lon="10.24404"><ele>164.0</ele><time>2026-04-04T11:55:42.992Z</time></trkpt><trkpt lat="44.7081717" lon="10.24372"><ele>164.66666666666666</ele><time>2026-04-04T11:55:43.991Z</time></trkpt><trkpt lat="44.7082033" lon="10.2434117"><ele>165.33333333333334</ele><time>2026-04-04T11:55:44.992Z</time></trkpt><trkpt lat="44.7082433" lon="10.24311"><ele>166.0</ele><time>2026-04-04T11:55:45.992Z</time></trkpt><trkpt lat="44.708285" lon="10.2428167"><ele>166.0</ele><time>2026-04-04T11:55:46.991Z</time></trkpt><trkpt lat="44.70833" lon="10.2425433"><ele>166.0</ele><time>2026-04-04T11:55:47.992Z</time></trkpt><trkpt lat="44.708375" lon="10.242275"><ele>166.0</ele><time>2026-04-04T11:55:48.992Z</time></trkpt><trkpt lat="44.7084217" lon="10.2420233"><ele>166.33333333333334</ele><time>2026-04-04T11:55:49.991Z</time></trkpt><trkpt lat="44.7084617" lon="10.2417833"><ele>166.66666666666666</ele><time>2026-04-04T11:55:50.991Z</time></trkpt><trkpt lat="44.7084917" lon="10.24157"><ele>167.0</ele><time>2026-04-04T11:55:51.991Z</time></trkpt><trkpt lat="44.7085283" lon="10.2413583"><ele>167.25</ele><time>2026-04-04T11:55:52.991Z</time></trkpt><trkpt lat="44.7085617" lon="10.2411667"><ele>167.5</ele><time>2026-04-04T11:55:53.992Z</time></trkpt><trkpt lat="44.7085917" lon="10.2409783"><ele>167.75</ele><time>2026-04-04T11:55:54.992Z</time></trkpt><trkpt lat="44.7086167" lon="10.2408067"><ele>168.0</ele><time>2026-04-04T11:55:55.991Z</time></trkpt><trkpt lat="44.7086433" lon="10.2406567"><ele>168.16666666666666</ele><time>2026-04-04T11:55:56.991Z</time></trkpt><trkpt lat="44.7086733" lon="10.2405467"><ele>168.33333333333334</ele><time>2026-04-04T11:55:57.991Z</time></trkpt><trkpt lat="44.7086983" lon="10.240465"><ele>168.5</ele><time>2026-04-04T11:55:58.991Z</time></trkpt><trkpt lat="44.7087683" lon="10.2403483"><ele>168.66666666666669</ele><time>2026-04-04T11:56:00.991Z</time></trkpt><trkpt lat="44.70883" lon="10.2402867"><ele>168.83333333333334</ele><time>2026-04-04T11:56:01.991Z</time></trkpt><trkpt lat="44.70888" lon="10.240215"><ele>169.0</ele><time>2026-04-04T11:56:02.992Z</time></trkpt><trkpt lat="44.70893" lon="10.2401217"><ele>169.0</ele><time>2026-04-04T11:56:03.992Z</time></trkpt><trkpt lat="44.7089533" lon="10.240005"><ele>169.0</ele><time>2026-04-04T11:56:04.991Z</time></trkpt><trkpt lat="44.7089583" lon="10.2398833"><ele>169.0</ele><time>2026-04-04T11:56:05.991Z</time></trkpt><trkpt lat="44.708965" lon="10.2397483"><ele>169.0</ele><time>2026-04-04T11:56:06.992Z</time></trkpt><trkpt lat="44.708995" lon="10.23961"><ele>169.0</ele><time>2026-04-04T11:56:07.991Z</time></trkpt><trkpt lat="44.7090533" lon="10.2394717"><ele>169.0</ele><time>2026-04-04T11:56:08.991Z</time></trkpt><trkpt lat="44.7091283" lon="10.239325"><ele>169.0</ele><time>2026-04-04T11:56:09.991Z</time></trkpt><trkpt lat="44.70921" lon="10.23916"><ele>169.0</ele><time>2026-04-04T11:56:10.991Z</time></trkpt><trkpt lat="44.7093" lon="10.2389783"><ele>169.0</ele><time>2026-04-04T11:56:11.991Z</time></trkpt><trkpt lat="44.7093883" lon="10.2387717"><ele>168.33333333333334</ele><time>2026-04-04T11:56:12.991Z</time></trkpt><trkpt lat="44.7094767" lon="10.2385633"><ele>167.66666666666666</ele><time>2026-04-04T11:56:13.991Z</time></trkpt><trkpt lat="44.7095717" lon="10.2383467"><ele>167.0</ele><time>2026-04-04T11:56:14.992Z</time></trkpt><trkpt lat="44.70967" lon="10.2381217"><ele>166.66666666666666</ele><time>2026-04-04T11:56:15.991Z</time></trkpt><trkpt lat="44.70978" lon="10.2378783"><ele>166.33333333333334</ele><time>2026-04-04T11:56:16.991Z</time></trkpt><trkpt lat="44.7098833" lon="10.23764"><ele>166.0</ele><time>2026-04-04T11:56:17.991Z</time></trkpt><trkpt lat="44.7099883" lon="10.2374"><ele>165.0</ele><time>2026-04-04T11:56:18.991Z</time></trkpt><trkpt lat="44.7100933" lon="10.237155"><ele>164.0</ele><time>2026-04-04T11:56:19.992Z</time></trkpt><trkpt lat="44.7101933" lon="10.2369083"><ele>163.0</ele><time>2026-04-04T11:56:20.991Z</time></trkpt><trkpt lat="44.7102983" lon="10.23667"><ele>163.0</ele><time>2026-04-04T11:56:21.992Z</time></trkpt><trkpt lat="44.7104083" lon="10.2364233"><ele>163.0</ele><time>2026-04-04T11:56:22.992Z</time></trkpt><trkpt lat="44.71051" lon="10.2361817"><ele>163.0</ele><time>2026-04-04T11:56:23.991Z</time></trkpt><trkpt lat="44.71061" lon="10.2359317"><ele>163.0</ele><time>2026-04-04T11:56:24.991Z</time></trkpt><trkpt lat="44.710715" lon="10.2356917"><ele>163.0</ele><time>2026-04-04T11:56:25.991Z</time></trkpt><trkpt lat="44.7108233" lon="10.2354567"><ele>163.0</ele><time>2026-04-04T11:56:26.991Z</time></trkpt><trkpt lat="44.710935" lon="10.2352183"><ele>163.33333333333334</ele><time>2026-04-04T11:56:27.992Z</time></trkpt><trkpt lat="44.71103" lon="10.2349883"><ele>163.66666666666666</ele><time>2026-04-04T11:56:28.992Z</time></trkpt><trkpt lat="44.7111317" lon="10.2347567"><ele>164.0</ele><time>2026-04-04T11:56:29.991Z</time></trkpt><trkpt lat="44.7112283" lon="10.2345333"><ele>164.0</ele><time>2026-04-04T11:56:30.991Z</time></trkpt><trkpt lat="44.7113317" lon="10.2343033"><ele>164.0</ele><time>2026-04-04T11:56:31.992Z</time></trkpt><trkpt lat="44.7114333" lon="10.2340717"><ele>164.0</ele><time>2026-04-04T11:56:32.992Z</time></trkpt><trkpt lat="44.7115333" lon="10.2338467"><ele>165.0</ele><time>2026-04-04T11:56:33.991Z</time></trkpt><trkpt lat="44.7116333" lon="10.2336317"><ele>166.0</ele><time>2026-04-04T11:56:34.992Z</time></trkpt><trkpt lat="44.7117267" lon="10.233415"><ele>167.0</ele><time>2026-04-04T11:56:35.992Z</time></trkpt><trkpt lat="44.7118117" lon="10.2332017"><ele>167.0</ele><time>2026-04-04T11:56:36.992Z</time></trkpt><trkpt lat="44.7119017" lon="10.233"><ele>167.0</ele><time>2026-04-04T11:56:37.991Z</time></trkpt><trkpt lat="44.7119917" lon="10.23281"><ele>167.0</ele><time>2026-04-04T11:56:38.991Z</time></trkpt><trkpt lat="44.71207" lon="10.2326267"><ele>167.0</ele><time>2026-04-04T11:56:39.991Z</time></trkpt><trkpt lat="44.7121417" lon="10.2324633"><ele>167.0</ele><time>2026-04-04T11:56:40.991Z</time></trkpt><trkpt lat="44.7122133" lon="10.2323117"><ele>167.0</ele><time>2026-04-04T11:56:41.991Z</time></trkpt><trkpt lat="44.7122867" lon="10.232165"><ele>167.0</ele><time>2026-04-04T11:56:42.991Z</time></trkpt><trkpt lat="44.712365" lon="10.232015"><ele>166.75</ele><time>2026-04-04T11:56:43.992Z</time></trkpt><trkpt lat="44.7124717" lon="10.2318883"><ele>166.5</ele><time>2026-04-04T11:56:44.992Z</time></trkpt><trkpt lat="44.712595" lon="10.2317783"><ele>166.25</ele><time>2026-04-04T11:56:45.991Z</time></trkpt><trkpt lat="44.7127267" lon="10.2316917"><ele>166.0</ele><time>2026-04-04T11:56:46.991Z</time></trkpt><trkpt lat="44.712865" lon="10.23162"><ele>166.66666666666669</ele><time>2026-04-04T11:56:47.991Z</time></trkpt><trkpt lat="44.7130083" lon="10.23156"><ele>167.33333333333334</ele><time>2026-04-04T11:56:48.991Z</time></trkpt><trkpt lat="44.7131567" lon="10.231495"><ele>168.0</ele><time>2026-04-04T11:56:49.992Z</time></trkpt><trkpt lat="44.7133067" lon="10.231435"><ele>168.0</ele><time>2026-04-04T11:56:50.991Z</time></trkpt><trkpt lat="44.71346" lon="10.2313733"><ele>168.0</ele><time>2026-04-04T11:56:51.991Z</time></trkpt><trkpt lat="44.7136117" lon="10.2313083"><ele>168.0</ele><time>2026-04-04T11:56:52.992Z</time></trkpt><trkpt lat="44.713765" lon="10.2312567"><ele>167.5</ele><time>2026-04-04T11:56:53.991Z</time></trkpt><trkpt lat="44.71392" lon="10.2312133"><ele>167.0</ele><time>2026-04-04T11:56:54.991Z</time></trkpt><trkpt lat="44.714065" lon="10.2312"><ele>166.5</ele><time>2026-04-04T11:56:55.991Z</time></trkpt><trkpt lat="44.7142067" lon="10.23122"><ele>166.0</ele><time>2026-04-04T11:56:56.991Z</time></trkpt><trkpt lat="44.7143467" lon="10.231255"><ele>165.0</ele><time>2026-04-04T11:56:57.991Z</time></trkpt><trkpt lat="44.7144917" lon="10.2313117"><ele>164.0</ele><time>2026-04-04T11:56:58.991Z</time></trkpt><trkpt lat="44.7146367" lon="10.231355"><ele>163.0</ele><time>2026-04-04T11:56:59.992Z</time></trkpt><trkpt lat="44.7147817" lon="10.2314133"><ele>163.0</ele><time>2026-04-04T11:57:00.992Z</time></trkpt><trkpt lat="44.7149333" lon="10.231465"><ele>163.0</ele><time>2026-04-04T11:57:01.991Z</time></trkpt><trkpt lat="44.7150917" lon="10.2315133"><ele>163.0</ele><time>2026-04-04T11:57:02.991Z</time></trkpt><trkpt lat="44.7152483" lon="10.2315733"><ele>163.0</ele><time>2026-04-04T11:57:03.991Z</time></trkpt><trkpt lat="44.715395" lon="10.2316267"><ele>163.0</ele><time>2026-04-04T11:57:04.991Z</time></trkpt><trkpt lat="44.7155283" lon="10.2316717"><ele>163.0</ele><time>2026-04-04T11:57:05.991Z</time></trkpt><trkpt lat="44.7156533" lon="10.231725"><ele>163.0</ele><time>2026-04-04T11:57:06.992Z</time></trkpt><trkpt lat="44.7157867" lon="10.231765"><ele>163.0</ele><time>2026-04-04T11:57:07.992Z</time></trkpt><trkpt lat="44.7159183" lon="10.2318033"><ele>163.0</ele><time>2026-04-04T11:57:08.992Z</time></trkpt><trkpt lat="44.7160533" lon="10.2318517"><ele>163.0</ele><time>2026-04-04T11:57:09.991Z</time></trkpt><trkpt lat="44.716185" lon="10.231895"><ele>163.0</ele><time>2026-04-04T11:57:10.991Z</time></trkpt><trkpt lat="44.7163117" lon="10.2319333"><ele>162.75</ele><time>2026-04-04T11:57:11.992Z</time></trkpt><trkpt lat="44.7164383" lon="10.23196"><ele>162.5</ele><time>2026-04-04T11:57:12.991Z</time></trkpt><trkpt lat="44.7165717" lon="10.2319917"><ele>162.25</ele><time>2026-04-04T11:57:13.991Z</time></trkpt><trkpt lat="44.7167083" lon="10.232035"><ele>162.0</ele><time>2026-04-04T11:57:14.991Z</time></trkpt><trkpt lat="44.7168483" lon="10.2320733"><ele>161.25</ele><time>2026-04-04T11:57:15.991Z</time></trkpt><trkpt lat="44.7169883" lon="10.2321233"><ele>160.5</ele><time>2026-04-04T11:57:16.991Z</time></trkpt><trkpt lat="44.7171383" lon="10.2321617"><ele>159.75</ele><time>2026-04-04T11:57:17.991Z</time></trkpt><trkpt lat="44.7172667" lon="10.2322133"><ele>159.0</ele><time>2026-04-04T11:57:18.991Z</time></trkpt><trkpt lat="44.71741" lon="10.2322533"><ele>159.0</ele><time>2026-04-04T11:57:19.991Z</time></trkpt><trkpt lat="44.71755" lon="10.2323033"><ele>159.0</ele><time>2026-04-04T11:57:20.991Z</time></trkpt><trkpt lat="44.7176983" lon="10.2323483"><ele>159.0</ele><time>2026-04-04T11:57:21.992Z</time></trkpt><trkpt lat="44.71785" lon="10.2323917"><ele>158.66666666666666</ele><time>2026-04-04T11:57:22.992Z</time></trkpt><trkpt lat="44.7179967" lon="10.2324317"><ele>158.33333333333331</ele><time>2026-04-04T11:57:23.991Z</time></trkpt><trkpt lat="44.7181483" lon="10.2324817"><ele>158.0</ele><time>2026-04-04T11:57:24.992Z</time></trkpt><trkpt lat="44.7182983" lon="10.2325267"><ele>158.0</ele><time>2026-04-04T11:57:25.991Z</time></trkpt><trkpt lat="44.7184417" lon="10.2325667"><ele>158.0</ele><time>2026-04-04T11:57:26.991Z</time></trkpt><trkpt lat="44.71858" lon="10.23262"><ele>158.0</ele><time>2026-04-04T11:57:27.991Z</time></trkpt><trkpt lat="44.7187017" lon="10.2326567"><ele>158.0</ele><time>2026-04-04T11:57:28.992Z</time></trkpt><trkpt lat="44.7188167" lon="10.2326917"><ele>157.75</ele><time>2026-04-04T11:57:29.991Z</time></trkpt><trkpt lat="44.7189283" lon="10.2327267"><ele>157.5</ele><time>2026-04-04T11:57:30.992Z</time></trkpt><trkpt lat="44.7190417" lon="10.2327667"><ele>157.25</ele><time>2026-04-04T11:57:31.991Z</time></trkpt><trkpt lat="44.7191567" lon="10.2328033"><ele>157.0</ele><time>2026-04-04T11:57:32.992Z</time></trkpt><trkpt lat="44.7192717" lon="10.2328267"><ele>157.0</ele><time>2026-04-04T11:57:33.991Z</time></trkpt><trkpt lat="44.71938" lon="10.232855"><ele>157.0</ele><time>2026-04-04T11:57:34.991Z</time></trkpt><trkpt lat="44.7194967" lon="10.23288"><ele>157.0</ele><time>2026-04-04T11:57:35.991Z</time></trkpt><trkpt lat="44.7196117" lon="10.23291"><ele>157.0</ele><time>2026-04-04T11:57:36.991Z</time></trkpt><trkpt lat="44.7197183" lon="10.2329467"><ele>157.0</ele><time>2026-04-04T11:57:37.991Z</time></trkpt><trkpt lat="44.71984" lon="10.2329867"><ele>157.0</ele><time>2026-04-04T11:57:38.991Z</time></trkpt><trkpt lat="44.719955" lon="10.233035"><ele>157.0</ele><time>2026-04-04T11:57:39.991Z</time></trkpt><trkpt lat="44.7200817" lon="10.233085"><ele>157.0</ele><time>2026-04-04T11:57:40.991Z</time></trkpt><trkpt lat="44.720215" lon="10.2331267"><ele>156.75</ele><time>2026-04-04T11:57:41.991Z</time></trkpt><trkpt lat="44.720355" lon="10.233165"><ele>156.5</ele><time>2026-04-04T11:57:42.992Z</time></trkpt><trkpt lat="44.720495" lon="10.2332133"><ele>156.25</ele><time>2026-04-04T11:57:43.991Z</time></trkpt><trkpt lat="44.72065" lon="10.2332683"><ele>156.0</ele><time>2026-04-04T11:57:44.992Z</time></trkpt><trkpt lat="44.720805" lon="10.2333167"><ele>156.0</ele><time>2026-04-04T11:57:45.992Z</time></trkpt><trkpt lat="44.7209633" lon="10.2333683"><ele>156.0</ele><time>2026-04-04T11:57:46.991Z</time></trkpt><trkpt lat="44.7211217" lon="10.2334167"><ele>156.0</ele><time>2026-04-04T11:57:47.991Z</time></trkpt><trkpt lat="44.7212733" lon="10.2334617"><ele>155.25</ele><time>2026-04-04T11:57:48.991Z</time></trkpt><trkpt lat="44.7214033" lon="10.2335017"><ele>154.5</ele><time>2026-04-04T11:57:49.992Z</time></trkpt><trkpt lat="44.72152" lon="10.2335233"><ele>153.75</ele><time>2026-04-04T11:57:50.991Z</time></trkpt><trkpt lat="44.721625" lon="10.2335583"><ele>153.0</ele><time>2026-04-04T11:57:51.992Z</time></trkpt><trkpt lat="44.7217317" lon="10.2335817"><ele>153.0</ele><time>2026-04-04T11:57:52.991Z</time></trkpt><trkpt lat="44.72182" lon="10.2335933"><ele>153.0</ele><time>2026-04-04T11:57:53.991Z</time></trkpt><trkpt lat="44.7218933" lon="10.233575"><ele>153.0</ele><time>2026-04-04T11:57:54.992Z</time></trkpt><trkpt lat="44.7219517" lon="10.2335033"><ele>153.0</ele><time>2026-04-04T11:57:55.991Z</time></trkpt><trkpt lat="44.7219833" lon="10.2333933"><ele>153.0</ele><time>2026-04-04T11:57:56.991Z</time></trkpt><trkpt lat="44.7219783" lon="10.2332483"><ele>153.0</ele><time>2026-04-04T11:57:57.992Z</time></trkpt><trkpt lat="44.721965" lon="10.2330767"><ele>152.66666666666666</ele><time>2026-04-04T11:57:58.992Z</time></trkpt><trkpt lat="44.721955" lon="10.2328733"><ele>152.33333333333331</ele><time>2026-04-04T11:57:59.991Z</time></trkpt><trkpt lat="44.7219667" lon="10.2326633"><ele>152.0</ele><time>2026-04-04T11:58:00.992Z</time></trkpt><trkpt lat="44.7219833" lon="10.2324433"><ele>151.66666666666666</ele><time>2026-04-04T11:58:01.992Z</time></trkpt><trkpt lat="44.7220017" lon="10.232225"><ele>151.33333333333334</ele><time>2026-04-04T11:58:02.992Z</time></trkpt><trkpt lat="44.7220233" lon="10.231995"><ele>151.0</ele><time>2026-04-04T11:58:03.991Z</time></trkpt><trkpt lat="44.722045" lon="10.2317633"><ele>151.0</ele><time>2026-04-04T11:58:04.991Z</time></trkpt><trkpt lat="44.7220667" lon="10.2315283"><ele>151.0</ele><time>2026-04-04T11:58:05.991Z</time></trkpt><trkpt lat="44.722085" lon="10.231285"><ele>151.0</ele><time>2026-04-04T11:58:06.992Z</time></trkpt><trkpt lat="44.72211" lon="10.2310383"><ele>151.0</ele><time>2026-04-04T11:58:07.992Z</time></trkpt><trkpt lat="44.72214" lon="10.2307933"><ele>151.0</ele><time>2026-04-04T11:58:08.991Z</time></trkpt><trkpt lat="44.7221633" lon="10.2305467"><ele>151.0</ele><time>2026-04-04T11:58:09.991Z</time></trkpt><trkpt lat="44.7221833" lon="10.230305"><ele>151.33333333333334</ele><time>2026-04-04T11:58:10.991Z</time></trkpt><trkpt lat="44.7222067" lon="10.2300617"><ele>151.66666666666666</ele><time>2026-04-04T11:58:11.992Z</time></trkpt><trkpt lat="44.7222383" lon="10.2298133"><ele>152.0</ele><time>2026-04-04T11:58:12.991Z</time></trkpt><trkpt lat="44.7222633" lon="10.229575"><ele>152.75</ele><time>2026-04-04T11:58:13.991Z</time></trkpt><trkpt lat="44.7222883" lon="10.2293533"><ele>153.5</ele><time>2026-04-04T11:58:14.992Z</time></trkpt><trkpt lat="44.7223117" lon="10.229155"><ele>154.25</ele><time>2026-04-04T11:58:15.992Z</time></trkpt><trkpt lat="44.722325" lon="10.228975"><ele>155.0</ele><time>2026-04-04T11:58:16.991Z</time></trkpt><trkpt lat="44.7223433" lon="10.2288083"><ele>155.2</ele><time>2026-04-04T11:58:17.992Z</time></trkpt><trkpt lat="44.7223667" lon="10.2286567"><ele>155.4</ele><time>2026-04-04T11:58:18.991Z</time></trkpt><trkpt lat="44.7223967" lon="10.2285183"><ele>155.6</ele><time>2026-04-04T11:58:19.991Z</time></trkpt><trkpt lat="44.72245" lon="10.2283983"><ele>155.8</ele><time>2026-04-04T11:58:20.991Z</time></trkpt><trkpt lat="44.7225367" lon="10.228285"><ele>156.0</ele><time>2026-04-04T11:58:21.991Z</time></trkpt><trkpt lat="44.72264" lon="10.228195"><ele>155.5</ele><time>2026-04-04T11:58:22.991Z</time></trkpt><trkpt lat="44.7227583" lon="10.2281267"><ele>155.0</ele><time>2026-04-04T11:58:23.991Z</time></trkpt><trkpt lat="44.7228817" lon="10.228075"><ele>154.5</ele><time>2026-04-04T11:58:24.991Z</time></trkpt><trkpt lat="44.7230133" lon="10.22804"><ele>154.0</ele><time>2026-04-04T11:58:25.991Z</time></trkpt><trkpt lat="44.7231617" lon="10.228005"><ele>154.0</ele><time>2026-04-04T11:58:26.991Z</time></trkpt><trkpt lat="44.72331" lon="10.2279717"><ele>154.0</ele><time>2026-04-04T11:58:27.99Z</time></trkpt><trkpt lat="44.7234583" lon="10.2279283"><ele>154.0</ele><time>2026-04-04T11:58:28.991Z</time></trkpt><trkpt lat="44.7236017" lon="10.2278867"><ele>154.0</ele><time>2026-04-04T11:58:29.99Z</time></trkpt><trkpt lat="44.7237533" lon="10.2278517"><ele>154.0</ele><time>2026-04-04T11:58:30.991Z</time></trkpt><trkpt lat="44.7239" lon="10.2278217"><ele>154.0</ele><time>2026-04-04T11:58:31.99Z</time></trkpt><trkpt lat="44.724045" lon="10.2277867"><ele>154.0</ele><time>2026-04-04T11:58:32.991Z</time></trkpt><trkpt lat="44.7241967" lon="10.2277483"><ele>154.0</ele><time>2026-04-04T11:58:33.99Z</time></trkpt><trkpt lat="44.7243583" lon="10.2277083"><ele>153.33333333333334</ele><time>2026-04-04T11:58:34.99Z</time></trkpt><trkpt lat="44.7245083" lon="10.2276667"><ele>152.66666666666666</ele><time>2026-04-04T11:58:35.99Z</time></trkpt><trkpt lat="44.7246717" lon="10.2276267"><ele>152.0</ele><time>2026-04-04T11:58:36.99Z</time></trkpt><trkpt lat="44.7248317" lon="10.22759"><ele>152.0</ele><time>2026-04-04T11:58:37.99Z</time></trkpt><trkpt lat="44.7249983" lon="10.2275517"><ele>152.0</ele><time>2026-04-04T11:58:38.99Z</time></trkpt><trkpt lat="44.7251533" lon="10.227515"><ele>152.0</ele><time>2026-04-04T11:58:39.99Z</time></trkpt><trkpt lat="44.7253017" lon="10.227475"><ele>152.0</ele><time>2026-04-04T11:58:40.99Z</time></trkpt><trkpt lat="44.72544" lon="10.22744"><ele>152.0</ele><time>2026-04-04T11:58:41.99Z</time></trkpt><trkpt lat="44.7255633" lon="10.2274067"><ele>152.0</ele><time>2026-04-04T11:58:42.99Z</time></trkpt><trkpt lat="44.7256767" lon="10.2273817"><ele>152.0</ele><time>2026-04-04T11:58:43.991Z</time></trkpt><trkpt lat="44.72578" lon="10.227355"><ele>152.0</ele><time>2026-04-04T11:58:44.991Z</time></trkpt><trkpt lat="44.7258933" lon="10.2273217"><ele>152.0</ele><time>2026-04-04T11:58:45.99Z</time></trkpt><trkpt lat="44.726035" lon="10.2272833"><ele>152.0</ele><time>2026-04-04T11:58:46.99Z</time></trkpt><trkpt lat="44.726195" lon="10.22725"><ele>152.0</ele><time>2026-04-04T11:58:47.99Z</time></trkpt><trkpt lat="44.7263683" lon="10.227195"><ele>151.0</ele><time>2026-04-04T11:58:48.991Z</time></trkpt><trkpt lat="44.7265533" lon="10.2271517"><ele>150.0</ele><time>2026-04-04T11:58:49.991Z</time></trkpt><trkpt lat="44.726745" lon="10.22711"><ele>149.0</ele><time>2026-04-04T11:58:50.99Z</time></trkpt><trkpt lat="44.726915" lon="10.2270783"><ele>149.0</ele><time>2026-04-04T11:58:51.991Z</time></trkpt><trkpt lat="44.72708" lon="10.2270383"><ele>149.0</ele><time>2026-04-04T11:58:52.991Z</time></trkpt><trkpt lat="44.727245" lon="10.2269967"><ele>149.0</ele><time>2026-04-04T11:58:53.991Z</time></trkpt><trkpt lat="44.727405" lon="10.226955"><ele>149.0</ele><time>2026-04-04T11:58:54.99Z</time></trkpt><trkpt lat="44.7275617" lon="10.2269183"><ele>149.0</ele><time>2026-04-04T11:58:55.99Z</time></trkpt><trkpt lat="44.7277133" lon="10.22688"><ele>149.0</ele><time>2026-04-04T11:58:56.99Z</time></trkpt><trkpt lat="44.7278683" lon="10.22684"><ele>149.33333333333331</ele><time>2026-04-04T11:58:57.991Z</time></trkpt><trkpt lat="44.7280267" lon="10.2267967"><ele>149.66666666666666</ele><time>2026-04-04T11:58:58.99Z</time></trkpt><trkpt lat="44.7281783" lon="10.2267583"><ele>150.0</ele><time>2026-04-04T11:58:59.99Z</time></trkpt><trkpt lat="44.72833" lon="10.2267283"><ele>150.0</ele><time>2026-04-04T11:59:00.99Z</time></trkpt><trkpt lat="44.7284917" lon="10.2266983"><ele>150.0</ele><time>2026-04-04T11:59:01.991Z</time></trkpt><trkpt lat="44.7286533" lon="10.226655"><ele>150.0</ele><time>2026-04-04T11:59:02.991Z</time></trkpt><trkpt lat="44.72881" lon="10.226625"><ele>148.0</ele><time>2026-04-04T11:59:03.99Z</time></trkpt><trkpt lat="44.7289733" lon="10.226595"><ele>146.0</ele><time>2026-04-04T11:59:04.991Z</time></trkpt><trkpt lat="44.7291317" lon="10.2265633"><ele>144.0</ele><time>2026-04-04T11:59:05.99Z</time></trkpt><trkpt lat="44.7292867" lon="10.226535"><ele>143.0</ele><time>2026-04-04T11:59:06.991Z</time></trkpt><trkpt lat="44.7294467" lon="10.2265"><ele>142.0</ele><time>2026-04-04T11:59:07.991Z</time></trkpt><trkpt lat="44.7296117" lon="10.2264733"><ele>141.0</ele><time>2026-04-04T11:59:08.991Z</time></trkpt><trkpt lat="44.72978" lon="10.2264483"><ele>140.66666666666666</ele><time>2026-04-04T11:59:09.99Z</time></trkpt><trkpt lat="44.7299533" lon="10.22642"><ele>140.33333333333331</ele><time>2026-04-04T11:59:10.99Z</time></trkpt><trkpt lat="44.7301267" lon="10.22639"><ele>140.0</ele><time>2026-04-04T11:59:11.99Z</time></trkpt><trkpt lat="44.730295" lon="10.2263517"><ele>141.33333333333331</ele><time>2026-04-04T11:59:12.99Z</time></trkpt><trkpt lat="44.7304617" lon="10.2263067"><ele>142.66666666666666</ele><time>2026-04-04T11:59:13.99Z</time></trkpt><trkpt lat="44.7306233" lon="10.2262633"><ele>144.0</ele><time>2026-04-04T11:59:14.991Z</time></trkpt><trkpt lat="44.7307783" lon="10.2262067"><ele>144.0</ele><time>2026-04-04T11:59:15.991Z</time></trkpt><trkpt lat="44.7309267" lon="10.2261317"><ele>144.0</ele><time>2026-04-04T11:59:16.991Z</time></trkpt><trkpt lat="44.7310817" lon="10.2260583"><ele>144.0</ele><time>2026-04-04T11:59:17.99Z</time></trkpt><trkpt lat="44.7312317" lon="10.2259633"><ele>144.33333333333334</ele><time>2026-04-04T11:59:18.99Z</time></trkpt><trkpt lat="44.73139" lon="10.2258717"><ele>144.66666666666669</ele><time>2026-04-04T11:59:19.991Z</time></trkpt><trkpt lat="44.731555" lon="10.2257933"><ele>145.0</ele><time>2026-04-04T11:59:20.991Z</time></trkpt><trkpt lat="44.731715" lon="10.2257233"><ele>145.0</ele><time>2026-04-04T11:59:21.99Z</time></trkpt><trkpt lat="44.7318817" lon="10.2256717"><ele>145.0</ele><time>2026-04-04T11:59:22.991Z</time></trkpt><trkpt lat="44.7320517" lon="10.2256417"><ele>145.0</ele><time>2026-04-04T11:59:23.99Z</time></trkpt><trkpt lat="44.732225" lon="10.2256183"><ele>143.0</ele><time>2026-04-04T11:59:24.991Z</time></trkpt><trkpt lat="44.7324017" lon="10.2255933"><ele>141.0</ele><time>2026-04-04T11:59:25.991Z</time></trkpt><trkpt lat="44.7325783" lon="10.2255783"><ele>139.0</ele><time>2026-04-04T11:59:26.99Z</time></trkpt><trkpt lat="44.7327417" lon="10.2255683"><ele>138.33333333333334</ele><time>2026-04-04T11:59:27.99Z</time></trkpt><trkpt lat="44.7329033" lon="10.2255583"><ele>137.66666666666666</ele><time>2026-04-04T11:59:28.99Z</time></trkpt><trkpt lat="44.733065" lon="10.2255417"><ele>137.0</ele><time>2026-04-04T11:59:29.991Z</time></trkpt><trkpt lat="44.733225" lon="10.2255267"><ele>137.0</ele><time>2026-04-04T11:59:30.991Z</time></trkpt><trkpt lat="44.7333983" lon="10.2255033"><ele>137.0</ele><time>2026-04-04T11:59:31.99Z</time></trkpt><trkpt lat="44.73359" lon="10.2254883"><ele>137.0</ele><time>2026-04-04T11:59:32.991Z</time></trkpt><trkpt lat="44.7338017" lon="10.2254667"><ele>136.0</ele><time>2026-04-04T11:59:33.991Z</time></trkpt><trkpt lat="44.734025" lon="10.2254483"><ele>135.0</ele><time>2026-04-04T11:59:34.99Z</time></trkpt><trkpt lat="44.7342417" lon="10.225425"><ele>134.0</ele><time>2026-04-04T11:59:35.991Z</time></trkpt><trkpt lat="44.734455" lon="10.2254217"><ele>134.0</ele><time>2026-04-04T11:59:36.99Z</time></trkpt><trkpt lat="44.7346617" lon="10.2254233"><ele>134.0</ele><time>2026-04-04T11:59:37.99Z</time></trkpt><trkpt lat="44.7348567" lon="10.2254183"><ele>134.0</ele><time>2026-04-04T11:59:38.99Z</time></trkpt><trkpt lat="44.7350433" lon="10.2254183"><ele>133.66666666666666</ele><time>2026-04-04T11:59:39.99Z</time></trkpt><trkpt lat="44.735235" lon="10.2254067"><ele>133.33333333333334</ele><time>2026-04-04T11:59:40.99Z</time></trkpt><trkpt lat="44.7354217" lon="10.2253933"><ele>133.0</ele><time>2026-04-04T11:59:41.99Z</time></trkpt><trkpt lat="44.7356067" lon="10.22538"><ele>133.0</ele><time>2026-04-04T11:59:42.99Z</time></trkpt><trkpt lat="44.735785" lon="10.225365"><ele>133.0</ele><time>2026-04-04T11:59:43.99Z</time></trkpt><trkpt lat="44.7359733" lon="10.22536"><ele>133.0</ele><time>2026-04-04T11:59:44.99Z</time></trkpt><trkpt lat="44.7361567" lon="10.2253467"><ele>132.66666666666669</ele><time>2026-04-04T11:59:45.99Z</time></trkpt><trkpt lat="44.7363417" lon="10.22533"><ele>132.33333333333334</ele><time>2026-04-04T11:59:46.99Z</time></trkpt><trkpt lat="44.7365183" lon="10.2253083"><ele>132.0</ele><time>2026-04-04T11:59:47.991Z</time></trkpt><trkpt lat="44.7367067" lon="10.2253033"><ele>131.66666666666666</ele><time>2026-04-04T11:59:48.99Z</time></trkpt><trkpt lat="44.736905" lon="10.2252967"><ele>131.33333333333331</ele><time>2026-04-04T11:59:49.99Z</time></trkpt><trkpt lat="44.737115" lon="10.2252867"><ele>131.0</ele><time>2026-04-04T11:59:50.991Z</time></trkpt><trkpt lat="44.73733" lon="10.2252683"><ele>131.0</ele><time>2026-04-04T11:59:51.991Z</time></trkpt><trkpt lat="44.737545" lon="10.2252517"><ele>131.0</ele><time>2026-04-04T11:59:52.99Z</time></trkpt><trkpt lat="44.7377667" lon="10.2252433"><ele>131.0</ele><time>2026-04-04T11:59:53.99Z</time></trkpt><trkpt lat="44.7379933" lon="10.2252283"><ele>130.0</ele><time>2026-04-04T11:59:54.991Z</time></trkpt><trkpt lat="44.7382183" lon="10.2252117"><ele>129.0</ele><time>2026-04-04T11:59:55.991Z</time></trkpt><trkpt lat="44.7384367" lon="10.2252033"><ele>128.0</ele><time>2026-04-04T11:59:56.991Z</time></trkpt><trkpt lat="44.7386533" lon="10.2251933"><ele>127.66666666666666</ele><time>2026-04-04T11:59:57.99Z</time></trkpt><trkpt lat="44.738865" lon="10.2251883"><ele>127.33333333333334</ele><time>2026-04-04T11:59:58.99Z</time></trkpt><trkpt lat="44.739075" lon="10.22518"><ele>127.0</ele><time>2026-04-04T11:59:59.99Z</time></trkpt><trkpt lat="44.7392933" lon="10.2251667"><ele>127.33333333333334</ele><time>2026-04-04T12:00:00.991Z</time></trkpt><trkpt lat="44.7395117" lon="10.2251567"><ele>127.66666666666666</ele><time>2026-04-04T12:00:01.99Z</time></trkpt><trkpt lat="44.7397283" lon="10.2251417"><ele>128.0</ele><time>2026-04-04T12:00:02.99Z</time></trkpt><trkpt lat="44.7399467" lon="10.2251233"><ele>128.0</ele><time>2026-04-04T12:00:03.99Z</time></trkpt><trkpt lat="44.74016" lon="10.2251067"><ele>128.0</ele><time>2026-04-04T12:00:04.99Z</time></trkpt><trkpt lat="44.74037" lon="10.2251"><ele>128.0</ele><time>2026-04-04T12:00:05.99Z</time></trkpt><trkpt lat="44.74058" lon="10.2250817"><ele>128.0</ele><time>2026-04-04T12:00:06.99Z</time></trkpt><trkpt lat="44.7407917" lon="10.22507"><ele>128.0</ele><time>2026-04-04T12:00:07.991Z</time></trkpt><trkpt lat="44.7409983" lon="10.2250533"><ele>128.0</ele><time>2026-04-04T12:00:08.991Z</time></trkpt><trkpt lat="44.7412117" lon="10.2250333"><ele>127.66666666666666</ele><time>2026-04-04T12:00:09.991Z</time></trkpt><trkpt lat="44.741425" lon="10.2250217"><ele>127.33333333333334</ele><time>2026-04-04T12:00:10.991Z</time></trkpt><trkpt lat="44.7416333" lon="10.2250033"><ele>127.0</ele><time>2026-04-04T12:00:11.99Z</time></trkpt><trkpt lat="44.741835" lon="10.2249833"><ele>126.66666666666667</ele><time>2026-04-04T12:00:12.99Z</time></trkpt><trkpt lat="44.7420317" lon="10.2249683"><ele>126.33333333333334</ele><time>2026-04-04T12:00:13.991Z</time></trkpt><trkpt lat="44.742225" lon="10.2249617"><ele>126.0</ele><time>2026-04-04T12:00:14.99Z</time></trkpt><trkpt lat="44.7424083" lon="10.2249567"><ele>126.0</ele><time>2026-04-04T12:00:15.99Z</time></trkpt><trkpt lat="44.742575" lon="10.2249483"><ele>126.0</ele><time>2026-04-04T12:00:16.991Z</time></trkpt><trkpt lat="44.7427217" lon="10.22494"><ele>126.0</ele><time>2026-04-04T12:00:17.99Z</time></trkpt><trkpt lat="44.7428583" lon="10.2249333"><ele>125.5</ele><time>2026-04-04T12:00:18.99Z</time></trkpt><trkpt lat="44.7429983" lon="10.2249367"><ele>125.0</ele><time>2026-04-04T12:00:19.991Z</time></trkpt><trkpt lat="44.7431483" lon="10.2249283"><ele>124.5</ele><time>2026-04-04T12:00:20.991Z</time></trkpt><trkpt lat="44.7433017" lon="10.2249167"><ele>124.0</ele><time>2026-04-04T12:00:21.99Z</time></trkpt><trkpt lat="44.74346" lon="10.2249083"><ele>124.0</ele><time>2026-04-04T12:00:22.99Z</time></trkpt><trkpt lat="44.7436133" lon="10.2249083"><ele>124.0</ele><time>2026-04-04T12:00:23.99Z</time></trkpt><trkpt lat="44.74375" lon="10.224895"><ele>124.0</ele><time>2026-04-04T12:00:24.99Z</time></trkpt><trkpt lat="44.743875" lon="10.22489"><ele>124.0</ele><time>2026-04-04T12:00:25.99Z</time></trkpt><trkpt lat="44.7439883" lon="10.2249133"><ele>124.0</ele><time>2026-04-04T12:00:26.991Z</time></trkpt><trkpt lat="44.74409" lon="10.2249383"><ele>124.0</ele><time>2026-04-04T12:00:27.991Z</time></trkpt><trkpt lat="44.7441817" lon="10.2249617"><ele>124.0</ele><time>2026-04-04T12:00:28.99Z</time></trkpt><trkpt lat="44.7442667" lon="10.2249483"><ele>124.0</ele><time>2026-04-04T12:00:29.99Z</time></trkpt><trkpt lat="44.7443517" lon="10.2248667"><ele>124.0</ele><time>2026-04-04T12:00:30.99Z</time></trkpt><trkpt lat="44.7444417" lon="10.224735"><ele>123.66666666666667</ele><time>2026-04-04T12:00:31.99Z</time></trkpt><trkpt lat="44.7445617" lon="10.2246117"><ele>123.33333333333334</ele><time>2026-04-04T12:00:32.99Z</time></trkpt><trkpt lat="44.7446967" lon="10.2244933"><ele>123.0</ele><time>2026-04-04T12:00:33.99Z</time></trkpt><trkpt lat="44.7448433" lon="10.2243833"><ele>123.0</ele><time>2026-04-04T12:00:34.99Z</time></trkpt><trkpt lat="44.7449933" lon="10.2242717"><ele>123.0</ele><time>2026-04-04T12:00:35.99Z</time></trkpt><trkpt lat="44.745155" lon="10.224155"><ele>123.0</ele><time>2026-04-04T12:00:36.99Z</time></trkpt><trkpt lat="44.745315" lon="10.224035"><ele>122.66666666666666</ele><time>2026-04-04T12:00:37.991Z</time></trkpt><trkpt lat="44.74548" lon="10.22392"><ele>122.33333333333333</ele><time>2026-04-04T12:00:38.991Z</time></trkpt><trkpt lat="44.7456483" lon="10.2238267"><ele>122.0</ele><time>2026-04-04T12:00:39.991Z</time></trkpt><trkpt lat="44.7458233" lon="10.2237533"><ele>122.0</ele><time>2026-04-04T12:00:40.99Z</time></trkpt><trkpt lat="44.7460017" lon="10.2237017"><ele>122.0</ele><time>2026-04-04T12:00:41.99Z</time></trkpt><trkpt lat="44.7461917" lon="10.2236767"><ele>122.0</ele><time>2026-04-04T12:00:42.991Z</time></trkpt><trkpt lat="44.746385" lon="10.22366"><ele>121.66666666666666</ele><time>2026-04-04T12:00:43.991Z</time></trkpt><trkpt lat="44.7465767" lon="10.2236667"><ele>121.33333333333334</ele><time>2026-04-04T12:00:44.99Z</time></trkpt><trkpt lat="44.7467617" lon="10.2236917"><ele>121.0</ele><time>2026-04-04T12:00:45.991Z</time></trkpt><trkpt lat="44.7469583" lon="10.2237117"><ele>121.0</ele><time>2026-04-04T12:00:46.99Z</time></trkpt><trkpt lat="44.747155" lon="10.2237417"><ele>121.0</ele><time>2026-04-04T12:00:47.99Z</time></trkpt><trkpt lat="44.7473417" lon="10.2237633"><ele>121.0</ele><time>2026-04-04T12:00:48.99Z</time></trkpt><trkpt lat="44.7475183" lon="10.2237883"><ele>121.0</ele><time>2026-04-04T12:00:49.991Z</time></trkpt><trkpt lat="44.74767" lon="10.2238"><ele>121.0</ele><time>2026-04-04T12:00:50.99Z</time></trkpt><trkpt lat="44.7478017" lon="10.2238217"><ele>121.0</ele><time>2026-04-04T12:00:51.991Z</time></trkpt><trkpt lat="44.7479333" lon="10.2238383"><ele>121.0</ele><time>2026-04-04T12:00:52.99Z</time></trkpt><trkpt lat="44.748065" lon="10.2238517"><ele>120.33333333333334</ele><time>2026-04-04T12:00:53.991Z</time></trkpt><trkpt lat="44.7482117" lon="10.223875"><ele>119.66666666666666</ele><time>2026-04-04T12:00:54.991Z</time></trkpt><trkpt lat="44.748365" lon="10.2238967"><ele>119.0</ele><time>2026-04-04T12:00:55.991Z</time></trkpt><trkpt lat="44.7485317" lon="10.2239117"><ele>118.66666666666666</ele><time>2026-04-04T12:00:56.991Z</time></trkpt><trkpt lat="44.7487083" lon="10.2239367"><ele>118.33333333333334</ele><time>2026-04-04T12:00:57.99Z</time></trkpt><trkpt lat="44.748885" lon="10.2239583"><ele>118.0</ele><time>2026-04-04T12:00:58.99Z</time></trkpt><trkpt lat="44.7490667" lon="10.2239767"><ele>118.33333333333334</ele><time>2026-04-04T12:00:59.991Z</time></trkpt><trkpt lat="44.749245" lon="10.2239967"><ele>118.66666666666666</ele><time>2026-04-04T12:01:00.99Z</time></trkpt><trkpt lat="44.74943" lon="10.224025"><ele>119.0</ele><time>2026-04-04T12:01:01.99Z</time></trkpt><trkpt lat="44.7496233" lon="10.2240567"><ele>118.33333333333333</ele><time>2026-04-04T12:01:02.991Z</time></trkpt><trkpt lat="44.7498167" lon="10.2240783"><ele>117.66666666666666</ele><time>2026-04-04T12:01:03.991Z</time></trkpt><trkpt lat="44.75001" lon="10.2241017"><ele>117.0</ele><time>2026-04-04T12:01:04.99Z</time></trkpt><trkpt lat="44.7502067" lon="10.2241267"><ele>117.0</ele><time>2026-04-04T12:01:05.99Z</time></trkpt><trkpt lat="44.7504" lon="10.22415"><ele>117.0</ele><time>2026-04-04T12:01:06.99Z</time></trkpt><trkpt lat="44.7505883" lon="10.2241783"><ele>117.0</ele><time>2026-04-04T12:01:07.99Z</time></trkpt><trkpt lat="44.7507783" lon="10.224205"><ele>117.0</ele><time>2026-04-04T12:01:08.991Z</time></trkpt><trkpt lat="44.7509683" lon="10.2242267"><ele>117.0</ele><time>2026-04-04T12:01:09.99Z</time></trkpt><trkpt lat="44.7511567" lon="10.2242467"><ele>117.0</ele><time>2026-04-04T12:01:10.99Z</time></trkpt><trkpt lat="44.7513367" lon="10.2242717"><ele>117.0</ele><time>2026-04-04T12:01:11.99Z</time></trkpt><trkpt lat="44.7514983" lon="10.2242917"><ele>117.0</ele><time>2026-04-04T12:01:12.991Z</time></trkpt><trkpt lat="44.7516567" lon="10.2243033"><ele>117.0</ele><time>2026-04-04T12:01:13.991Z</time></trkpt><trkpt lat="44.751805" lon="10.2243183"><ele>116.75</ele><time>2026-04-04T12:01:14.99Z</time></trkpt><trkpt lat="44.7519417" lon="10.2243467"><ele>116.5</ele><time>2026-04-04T12:01:15.99Z</time></trkpt><trkpt lat="44.7520717" lon="10.224365"><ele>116.25</ele><time>2026-04-04T12:01:16.991Z</time></trkpt><trkpt lat="44.7521833" lon="10.2244033"><ele>116.0</ele><time>2026-04-04T12:01:17.99Z</time></trkpt><trkpt lat="44.7522783" lon="10.2244433"><ele>116.0</ele><time>2026-04-04T12:01:18.99Z</time></trkpt><trkpt lat="44.752375" lon="10.22452"><ele>116.0</ele><time>2026-04-04T12:01:19.99Z</time></trkpt><trkpt lat="44.752475" lon="10.224615"><ele>116.0</ele><time>2026-04-04T12:01:20.99Z</time></trkpt><trkpt lat="44.7525717" lon="10.2247"><ele>116.0</ele><time>2026-04-04T12:01:21.99Z</time></trkpt><trkpt lat="44.7526633" lon="10.2248083"><ele>116.0</ele><time>2026-04-04T12:01:22.991Z</time></trkpt><trkpt lat="44.75276" lon="10.2249383"><ele>116.0</ele><time>2026-04-04T12:01:23.99Z</time></trkpt><trkpt lat="44.7528517" lon="10.2251017"><ele>116.0</ele><time>2026-04-04T12:01:24.991Z</time></trkpt><trkpt lat="44.7529383" lon="10.2252767"><ele>116.0</ele><time>2026-04-04T12:01:25.99Z</time></trkpt><trkpt lat="44.75303" lon="10.2254617"><ele>116.33333333333333</ele><time>2026-04-04T12:01:26.991Z</time></trkpt><trkpt lat="44.7531233" lon="10.22566"><ele>116.66666666666666</ele><time>2026-04-04T12:01:27.991Z</time></trkpt><trkpt lat="44.7532183" lon="10.225865"><ele>117.0</ele><time>2026-04-04T12:01:28.99Z</time></trkpt><trkpt lat="44.7533183" lon="10.2260817"><ele>117.0</ele><time>2026-04-04T12:01:29.99Z</time></trkpt><trkpt lat="44.75342" lon="10.2262883"><ele>117.0</ele><time>2026-04-04T12:01:30.99Z</time></trkpt><trkpt lat="44.7535117" lon="10.2264767"><ele>117.0</ele><time>2026-04-04T12:01:31.991Z</time></trkpt><trkpt lat="44.7535883" lon="10.2266617"><ele>116.5</ele><time>2026-04-04T12:01:32.99Z</time></trkpt><trkpt lat="44.7536683" lon="10.226825"><ele>116.0</ele><time>2026-04-04T12:01:33.99Z</time></trkpt><trkpt lat="44.7537433" lon="10.22697"><ele>115.5</ele><time>2026-04-04T12:01:34.99Z</time></trkpt><trkpt lat="44.7538267" lon="10.2271233"><ele>115.0</ele><time>2026-04-04T12:01:35.99Z</time></trkpt><trkpt lat="44.7539183" lon="10.2273083"><ele>114.66666666666667</ele><time>2026-04-04T12:01:36.99Z</time></trkpt><trkpt lat="44.7540117" lon="10.2275033"><ele>114.33333333333334</ele><time>2026-04-04T12:01:37.99Z</time></trkpt><trkpt lat="44.754105" lon="10.227725"><ele>114.0</ele><time>2026-04-04T12:01:38.99Z</time></trkpt><trkpt lat="44.7541933" lon="10.22796"><ele>113.66666666666666</ele><time>2026-04-04T12:01:39.99Z</time></trkpt><trkpt lat="44.7542933" lon="10.2281867"><ele>113.33333333333333</ele><time>2026-04-04T12:01:40.99Z</time></trkpt><trkpt lat="44.7543933" lon="10.228415"><ele>113.0</ele><time>2026-04-04T12:01:41.99Z</time></trkpt><trkpt lat="44.7545017" lon="10.2286433"><ele>113.0</ele><time>2026-04-04T12:01:42.99Z</time></trkpt><trkpt lat="44.7546083" lon="10.22888"><ele>113.0</ele><time>2026-04-04T12:01:43.99Z</time></trkpt><trkpt lat="44.7547133" lon="10.22912"><ele>113.0</ele><time>2026-04-04T12:01:44.991Z</time></trkpt><trkpt lat="44.754825" lon="10.229355"><ele>112.66666666666666</ele><time>2026-04-04T12:01:45.991Z</time></trkpt><trkpt lat="44.7549367" lon="10.2295783"><ele>112.33333333333334</ele><time>2026-04-04T12:01:46.99Z</time></trkpt><trkpt lat="44.7550333" lon="10.2297833"><ele>112.0</ele><time>2026-04-04T12:01:47.99Z</time></trkpt><trkpt lat="44.75513" lon="10.229985"><ele>112.0</ele><time>2026-04-04T12:01:48.99Z</time></trkpt><trkpt lat="44.7552267" lon="10.23017"><ele>112.0</ele><time>2026-04-04T12:01:49.991Z</time></trkpt><trkpt lat="44.7553133" lon="10.230335"><ele>112.0</ele><time>2026-04-04T12:01:50.99Z</time></trkpt><trkpt lat="44.75539" lon="10.2304817"><ele>112.0</ele><time>2026-04-04T12:01:51.99Z</time></trkpt><trkpt lat="44.75546" lon="10.2306233"><ele>112.0</ele><time>2026-04-04T12:01:52.99Z</time></trkpt><trkpt lat="44.7555233" lon="10.2307733"><ele>112.0</ele><time>2026-04-04T12:01:53.991Z</time></trkpt><trkpt lat="44.75557" lon="10.2309267"><ele>112.0</ele><time>2026-04-04T12:01:54.99Z</time></trkpt><trkpt lat="44.7556083" lon="10.2310767"><ele>112.0</ele><time>2026-04-04T12:01:55.99Z</time></trkpt><trkpt lat="44.7556483" lon="10.231215"><ele>112.0</ele><time>2026-04-04T12:01:56.99Z</time></trkpt><trkpt lat="44.7557133" lon="10.2313383"><ele>111.99999999999999</ele><time>2026-04-04T12:01:57.991Z</time></trkpt><trkpt lat="44.7557967" lon="10.2314167"><ele>111.99999999999999</ele><time>2026-04-04T12:01:58.991Z</time></trkpt><trkpt lat="44.7559033" lon="10.23144"><ele>112.0</ele><time>2026-04-04T12:01:59.99Z</time></trkpt><trkpt lat="44.7560083" lon="10.231395"><ele>112.0</ele><time>2026-04-04T12:02:00.99Z</time></trkpt><trkpt lat="44.7560933" lon="10.2313017"><ele>111.5</ele><time>2026-04-04T12:02:01.99Z</time></trkpt><trkpt lat="44.7561467" lon="10.2311583"><ele>111.0</ele><time>2026-04-04T12:02:02.991Z</time></trkpt><trkpt lat="44.7561633" lon="10.2309833"><ele>110.5</ele><time>2026-04-04T12:02:03.99Z</time></trkpt><trkpt lat="44.7561633" lon="10.23079"><ele>110.0</ele><time>2026-04-04T12:02:04.991Z</time></trkpt><trkpt lat="44.7561883" lon="10.2305883"><ele>111.0</ele><time>2026-04-04T12:02:05.991Z</time></trkpt><trkpt lat="44.7562417" lon="10.2303917"><ele>112.0</ele><time>2026-04-04T12:02:06.99Z</time></trkpt><trkpt lat="44.7563133" lon="10.2302117"><ele>113.0</ele><time>2026-04-04T12:02:07.99Z</time></trkpt><trkpt lat="44.756385" lon="10.2300383"><ele>114.0</ele><time>2026-04-04T12:02:08.99Z</time></trkpt><trkpt lat="44.7564783" lon="10.2298633"><ele>113.66666666666666</ele><time>2026-04-04T12:02:09.99Z</time></trkpt><trkpt lat="44.756595" lon="10.229685"><ele>113.33333333333333</ele><time>2026-04-04T12:02:10.99Z</time></trkpt><trkpt lat="44.7567267" lon="10.2295117"><ele>113.0</ele><time>2026-04-04T12:02:11.991Z</time></trkpt><trkpt lat="44.7568583" lon="10.22934"><ele>112.0</ele><time>2026-04-04T12:02:12.99Z</time></trkpt><trkpt lat="44.756985" lon="10.2291567"><ele>111.0</ele><time>2026-04-04T12:02:13.99Z</time></trkpt><trkpt lat="44.757105" lon="10.22896"><ele>110.0</ele><time>2026-04-04T12:02:14.991Z</time></trkpt><trkpt lat="44.7572183" lon="10.22876"><ele>110.0</ele><time>2026-04-04T12:02:15.99Z</time></trkpt><trkpt lat="44.7573183" lon="10.2285483"><ele>110.0</ele><time>2026-04-04T12:02:16.991Z</time></trkpt><trkpt lat="44.7574167" lon="10.2283167"><ele>110.0</ele><time>2026-04-04T12:02:17.991Z</time></trkpt><trkpt lat="44.7575233" lon="10.22807"><ele>110.0</ele><time>2026-04-04T12:02:18.991Z</time></trkpt><trkpt lat="44.7576233" lon="10.2278133"><ele>110.0</ele><time>2026-04-04T12:02:19.99Z</time></trkpt><trkpt lat="44.7577267" lon="10.227555"><ele>110.0</ele><time>2026-04-04T12:02:20.99Z</time></trkpt><trkpt lat="44.75782" lon="10.2272783"><ele>110.0</ele><time>2026-04-04T12:02:21.99Z</time></trkpt><trkpt lat="44.7579033" lon="10.2269917"><ele>110.0</ele><time>2026-04-04T12:02:22.99Z</time></trkpt><trkpt lat="44.75798" lon="10.2267083"><ele>110.0</ele><time>2026-04-04T12:02:23.99Z</time></trkpt><trkpt lat="44.7580433" lon="10.226405"><ele>110.0</ele><time>2026-04-04T12:02:24.99Z</time></trkpt><trkpt lat="44.758095" lon="10.2261033"><ele>110.0</ele><time>2026-04-04T12:02:25.991Z</time></trkpt><trkpt lat="44.7581367" lon="10.2258017"><ele>110.0</ele><time>2026-04-04T12:02:26.991Z</time></trkpt><trkpt lat="44.7581767" lon="10.2255"><ele>110.33333333333333</ele><time>2026-04-04T12:02:27.991Z</time></trkpt><trkpt lat="44.7582017" lon="10.225195"><ele>110.66666666666666</ele><time>2026-04-04T12:02:28.991Z</time></trkpt><trkpt lat="44.75822" lon="10.2248783"><ele>111.0</ele><time>2026-04-04T12:02:29.991Z</time></trkpt><trkpt lat="44.7582233" lon="10.2245583"><ele>110.33333333333334</ele><time>2026-04-04T12:02:30.991Z</time></trkpt><trkpt lat="44.7582117" lon="10.2242433"><ele>109.66666666666667</ele><time>2026-04-04T12:02:31.99Z</time></trkpt><trkpt lat="44.758195" lon="10.2239333"><ele>109.0</ele><time>2026-04-04T12:02:32.99Z</time></trkpt><trkpt lat="44.758175" lon="10.2236217"><ele>109.0</ele><time>2026-04-04T12:02:33.99Z</time></trkpt><trkpt lat="44.7581433" lon="10.2233083"><ele>109.0</ele><time>2026-04-04T12:02:34.99Z</time></trkpt><trkpt lat="44.7580967" lon="10.223"><ele>109.0</ele><time>2026-04-04T12:02:35.99Z</time></trkpt><trkpt lat="44.7580483" lon="10.22269"><ele>109.0</ele><time>2026-04-04T12:02:36.99Z</time></trkpt><trkpt lat="44.7579967" lon="10.2223783"><ele>109.0</ele><time>2026-04-04T12:02:37.99Z</time></trkpt><trkpt lat="44.75794" lon="10.2220717"><ele>109.0</ele><time>2026-04-04T12:02:38.99Z</time></trkpt><trkpt lat="44.7578867" lon="10.221765"><ele>109.0</ele><time>2026-04-04T12:02:39.991Z</time></trkpt><trkpt lat="44.7578383" lon="10.2214533"><ele>109.0</ele><time>2026-04-04T12:02:40.99Z</time></trkpt><trkpt lat="44.757785" lon="10.2211433"><ele>109.0</ele><time>2026-04-04T12:02:41.99Z</time></trkpt><trkpt lat="44.7577383" lon="10.22083"><ele>108.5</ele><time>2026-04-04T12:02:42.99Z</time></trkpt><trkpt lat="44.757685" lon="10.22052"><ele>108.0</ele><time>2026-04-04T12:02:43.991Z</time></trkpt><trkpt lat="44.7576367" lon="10.2202133"><ele>108.0</ele><time>2026-04-04T12:02:44.99Z</time></trkpt><trkpt lat="44.7575883" lon="10.2199"><ele>108.0</ele><time>2026-04-04T12:02:45.99Z</time></trkpt><trkpt lat="44.7575417" lon="10.2195767"><ele>108.5</ele><time>2026-04-04T12:02:46.991Z</time></trkpt><trkpt lat="44.7574917" lon="10.2192633"><ele>109.0</ele><time>2026-04-04T12:02:47.99Z</time></trkpt><trkpt lat="44.7574383" lon="10.218955"><ele>109.0</ele><time>2026-04-04T12:02:48.991Z</time></trkpt><trkpt lat="44.7573833" lon="10.2186467"><ele>109.0</ele><time>2026-04-04T12:02:49.99Z</time></trkpt><trkpt lat="44.757335" lon="10.2183333"><ele>107.5</ele><time>2026-04-04T12:02:50.99Z</time></trkpt><trkpt lat="44.7572983" lon="10.2180167"><ele>106.0</ele><time>2026-04-04T12:02:51.99Z</time></trkpt><trkpt lat="44.75727" lon="10.2177067"><ele>106.0</ele><time>2026-04-04T12:02:52.99Z</time></trkpt><trkpt lat="44.757255" lon="10.2173867"><ele>106.0</ele><time>2026-04-04T12:02:53.99Z</time></trkpt><trkpt lat="44.7572517" lon="10.2170667"><ele>106.0</ele><time>2026-04-04T12:02:54.991Z</time></trkpt><trkpt lat="44.7572517" lon="10.2167517"><ele>106.0</ele><time>2026-04-04T12:02:55.99Z</time></trkpt><trkpt lat="44.7572483" lon="10.2164367"><ele>106.0</ele><time>2026-04-04T12:02:56.991Z</time></trkpt><trkpt lat="44.7572583" lon="10.2161183"><ele>106.33333333333334</ele><time>2026-04-04T12:02:57.99Z</time></trkpt><trkpt lat="44.7572717" lon="10.2158083"><ele>106.66666666666666</ele><time>2026-04-04T12:02:58.991Z</time></trkpt><trkpt lat="44.757295" lon="10.215505"><ele>107.0</ele><time>2026-04-04T12:02:59.99Z</time></trkpt><trkpt lat="44.75731" lon="10.2152117"><ele>107.0</ele><time>2026-04-04T12:03:00.99Z</time></trkpt><trkpt lat="44.7573467" lon="10.2149117"><ele>107.0</ele><time>2026-04-04T12:03:01.991Z</time></trkpt><trkpt lat="44.75737" lon="10.2146233"><ele>107.0</ele><time>2026-04-04T12:03:02.99Z</time></trkpt><trkpt lat="44.7573967" lon="10.2143483"><ele>107.0</ele><time>2026-04-04T12:03:03.99Z</time></trkpt><trkpt lat="44.7574333" lon="10.214075"><ele>107.0</ele><time>2026-04-04T12:03:04.991Z</time></trkpt><trkpt lat="44.7574817" lon="10.2138083"><ele>107.0</ele><time>2026-04-04T12:03:05.99Z</time></trkpt><trkpt lat="44.7575167" lon="10.2135467"><ele>106.33333333333333</ele><time>2026-04-04T12:03:06.99Z</time></trkpt><trkpt lat="44.7575867" lon="10.2132817"><ele>105.66666666666666</ele><time>2026-04-04T12:03:07.99Z</time></trkpt><trkpt lat="44.757655" lon="10.2130033"><ele>105.0</ele><time>2026-04-04T12:03:08.991Z</time></trkpt><trkpt lat="44.757725" lon="10.2127317"><ele>104.66666666666666</ele><time>2026-04-04T12:03:09.99Z</time></trkpt><trkpt lat="44.757805" lon="10.2124483"><ele>104.33333333333333</ele><time>2026-04-04T12:03:10.99Z</time></trkpt><trkpt lat="44.7578983" lon="10.21218"><ele>104.0</ele><time>2026-04-04T12:03:11.991Z</time></trkpt><trkpt lat="44.7579967" lon="10.211905"><ele>104.0</ele><time>2026-04-04T12:03:12.991Z</time></trkpt><trkpt lat="44.7581" lon="10.2116233"><ele>104.0</ele><time>2026-04-04T12:03:13.991Z</time></trkpt><trkpt lat="44.7582067" lon="10.2113433"><ele>105.0</ele><time>2026-04-04T12:03:14.99Z</time></trkpt><trkpt lat="44.75832" lon="10.21106"><ele>106.0</ele><time>2026-04-04T12:03:15.99Z</time></trkpt><trkpt lat="44.7584383" lon="10.210775"><ele>103.5</ele><time>2026-04-04T12:03:16.991Z</time></trkpt><trkpt lat="44.7585483" lon="10.2104883"><ele>101.0</ele><time>2026-04-04T12:03:17.99Z</time></trkpt><trkpt lat="44.75866" lon="10.2102"><ele>101.0</ele><time>2026-04-04T12:03:18.99Z</time></trkpt><trkpt lat="44.7587733" lon="10.2099183"><ele>101.0</ele><time>2026-04-04T12:03:19.99Z</time></trkpt><trkpt lat="44.7588833" lon="10.2096367"><ele>101.33333333333333</ele><time>2026-04-04T12:03:20.991Z</time></trkpt><trkpt lat="44.7589883" lon="10.2093633"><ele>101.66666666666666</ele><time>2026-04-04T12:03:21.99Z</time></trkpt><trkpt lat="44.75909" lon="10.209095"><ele>102.0</ele><time>2026-04-04T12:03:22.99Z</time></trkpt><trkpt lat="44.7591883" lon="10.2088367"><ele>101.33333333333334</ele><time>2026-04-04T12:03:23.99Z</time></trkpt><trkpt lat="44.75928" lon="10.2085917"><ele>100.66666666666667</ele><time>2026-04-04T12:03:24.99Z</time></trkpt><trkpt lat="44.75936" lon="10.2083567"><ele>100.0</ele><time>2026-04-04T12:03:25.991Z</time></trkpt><trkpt lat="44.7594283" lon="10.2081217"><ele>100.0</ele><time>2026-04-04T12:03:26.99Z</time></trkpt><trkpt lat="44.7594833" lon="10.20788"><ele>100.0</ele><time>2026-04-04T12:03:27.99Z</time></trkpt><trkpt lat="44.7595283" lon="10.2076333"><ele>100.0</ele><time>2026-04-04T12:03:28.99Z</time></trkpt><trkpt lat="44.7595567" lon="10.2073917"><ele>98.66666666666667</ele><time>2026-04-04T12:03:29.99Z</time></trkpt><trkpt lat="44.7595783" lon="10.20716"><ele>97.33333333333334</ele><time>2026-04-04T12:03:30.991Z</time></trkpt><trkpt lat="44.7595933" lon="10.2069283"><ele>96.0</ele><time>2026-04-04T12:03:31.991Z</time></trkpt><trkpt lat="44.7595983" lon="10.2067067"><ele>96.0</ele><time>2026-04-04T12:03:32.99Z</time></trkpt><trkpt lat="44.7595917" lon="10.2064817"><ele>96.0</ele><time>2026-04-04T12:03:33.99Z</time></trkpt><trkpt lat="44.7595717" lon="10.2062567"><ele>96.0</ele><time>2026-04-04T12:03:34.99Z</time></trkpt><trkpt lat="44.7595367" lon="10.2060033"><ele>96.0</ele><time>2026-04-04T12:03:35.99Z</time></trkpt><trkpt lat="44.75949" lon="10.2057483"><ele>96.0</ele><time>2026-04-04T12:03:36.991Z</time></trkpt><trkpt lat="44.75944" lon="10.2054833"><ele>96.0</ele><time>2026-04-04T12:03:37.99Z</time></trkpt><trkpt lat="44.7593917" lon="10.2052333"><ele>97.33333333333334</ele><time>2026-04-04T12:03:38.99Z</time></trkpt><trkpt lat="44.7593383" lon="10.204995"><ele>98.66666666666667</ele><time>2026-04-04T12:03:39.99Z</time></trkpt><trkpt lat="44.7592867" lon="10.204775"><ele>100.0</ele><time>2026-04-04T12:03:40.99Z</time></trkpt><trkpt lat="44.7592533" lon="10.2045767"><ele>100.0</ele><time>2026-04-04T12:03:41.99Z</time></trkpt><trkpt lat="44.7592317" lon="10.204395"><ele>100.0</ele><time>2026-04-04T12:03:42.99Z</time></trkpt><trkpt lat="44.7592317" lon="10.2042067"><ele>100.0</ele><time>2026-04-04T12:03:43.99Z</time></trkpt><trkpt lat="44.7592667" lon="10.204035"><ele>100.0</ele><time>2026-04-04T12:03:44.99Z</time></trkpt><trkpt lat="44.7593267" lon="10.2038683"><ele>99.75</ele><time>2026-04-04T12:03:45.991Z</time></trkpt><trkpt lat="44.75937" lon="10.2036867"><ele>99.5</ele><time>2026-04-04T12:03:46.99Z</time></trkpt><trkpt lat="44.7593733" lon="10.203495"><ele>99.25</ele><time>2026-04-04T12:03:47.991Z</time></trkpt><trkpt lat="44.7593433" lon="10.2033017"><ele>99.0</ele><time>2026-04-04T12:03:48.99Z</time></trkpt><trkpt lat="44.7592933" lon="10.203095"><ele>99.0</ele><time>2026-04-04T12:03:49.991Z</time></trkpt><trkpt lat="44.7592533" lon="10.2028833"><ele>99.0</ele><time>2026-04-04T12:03:50.99Z</time></trkpt><trkpt lat="44.7592533" lon="10.2026483"><ele>99.0</ele><time>2026-04-04T12:03:51.99Z</time></trkpt><trkpt lat="44.7593" lon="10.202395"><ele>98.33333333333334</ele><time>2026-04-04T12:03:52.99Z</time></trkpt><trkpt lat="44.7593783" lon="10.202125"><ele>97.66666666666667</ele><time>2026-04-04T12:03:53.99Z</time></trkpt><trkpt lat="44.7594567" lon="10.20185"><ele>97.0</ele><time>2026-04-04T12:03:54.99Z</time></trkpt><trkpt lat="44.7595283" lon="10.2015767"><ele>97.33333333333334</ele><time>2026-04-04T12:03:55.99Z</time></trkpt><trkpt lat="44.75959" lon="10.201305"><ele>97.66666666666666</ele><time>2026-04-04T12:03:56.99Z</time></trkpt><trkpt lat="44.75966" lon="10.2010317"><ele>98.0</ele><time>2026-04-04T12:03:57.99Z</time></trkpt><trkpt lat="44.7597283" lon="10.200765"><ele>97.33333333333333</ele><time>2026-04-04T12:03:58.99Z</time></trkpt><trkpt lat="44.7597967" lon="10.2004967"><ele>96.66666666666666</ele><time>2026-04-04T12:03:59.99Z</time></trkpt><trkpt lat="44.7598617" lon="10.2002167"><ele>96.0</ele><time>2026-04-04T12:04:00.99Z</time></trkpt><trkpt lat="44.75993" lon="10.1999217"><ele>96.0</ele><time>2026-04-04T12:04:01.99Z</time></trkpt><trkpt lat="44.7600033" lon="10.199625"><ele>96.0</ele><time>2026-04-04T12:04:02.99Z</time></trkpt><trkpt lat="44.7600817" lon="10.1993267"><ele>96.0</ele><time>2026-04-04T12:04:03.99Z</time></trkpt><trkpt lat="44.760155" lon="10.1990317"><ele>97.0</ele><time>2026-04-04T12:04:04.99Z</time></trkpt><trkpt lat="44.7602367" lon="10.19873"><ele>98.0</ele><time>2026-04-04T12:04:05.99Z</time></trkpt><trkpt lat="44.76032" lon="10.1984317"><ele>97.5</ele><time>2026-04-04T12:04:06.99Z</time></trkpt><trkpt lat="44.7603983" lon="10.1981333"><ele>97.0</ele><time>2026-04-04T12:04:07.991Z</time></trkpt><trkpt lat="44.7604783" lon="10.19783"><ele>97.0</ele><time>2026-04-04T12:04:08.99Z</time></trkpt><trkpt lat="44.7605633" lon="10.197525"><ele>97.0</ele><time>2026-04-04T12:04:09.99Z</time></trkpt><trkpt lat="44.76065" lon="10.1972267"><ele>96.0</ele><time>2026-04-04T12:04:10.99Z</time></trkpt><trkpt lat="44.7607383" lon="10.1969267"><ele>95.0</ele><time>2026-04-04T12:04:11.99Z</time></trkpt><trkpt lat="44.7608267" lon="10.1966217"><ele>94.0</ele><time>2026-04-04T12:04:12.99Z</time></trkpt><trkpt lat="44.760915" lon="10.19632"><ele>93.0</ele><time>2026-04-04T12:04:13.991Z</time></trkpt><trkpt lat="44.7609983" lon="10.196015"><ele>93.5</ele><time>2026-04-04T12:04:14.99Z</time></trkpt><trkpt lat="44.7610883" lon="10.195715"><ele>94.0</ele><time>2026-04-04T12:04:15.991Z</time></trkpt><trkpt lat="44.7611767" lon="10.1954117"><ele>93.0</ele><time>2026-04-04T12:04:16.99Z</time></trkpt><trkpt lat="44.7612767" lon="10.195105"><ele>92.0</ele><time>2026-04-04T12:04:17.99Z</time></trkpt><trkpt lat="44.7613733" lon="10.1948083"><ele>92.0</ele><time>2026-04-04T12:04:18.99Z</time></trkpt><trkpt lat="44.7614783" lon="10.1945117"><ele>92.0</ele><time>2026-04-04T12:04:19.99Z</time></trkpt><trkpt lat="44.76158" lon="10.19421"><ele>92.5</ele><time>2026-04-04T12:04:20.99Z</time></trkpt><trkpt lat="44.7616783" lon="10.19391"><ele>93.0</ele><time>2026-04-04T12:04:21.99Z</time></trkpt><trkpt lat="44.7617767" lon="10.19361"><ele>92.5</ele><time>2026-04-04T12:04:22.99Z</time></trkpt><trkpt lat="44.76187" lon="10.1933117"><ele>92.0</ele><time>2026-04-04T12:04:23.99Z</time></trkpt><trkpt lat="44.7619583" lon="10.192995"><ele>91.0</ele><time>2026-04-04T12:04:24.99Z</time></trkpt><trkpt lat="44.76205" lon="10.192695"><ele>90.0</ele><time>2026-04-04T12:04:25.991Z</time></trkpt><trkpt lat="44.7621483" lon="10.1924017"><ele>90.5</ele><time>2026-04-04T12:04:26.99Z</time></trkpt><trkpt lat="44.7622417" lon="10.1921083"><ele>91.0</ele><time>2026-04-04T12:04:27.991Z</time></trkpt><trkpt lat="44.762335" lon="10.1918117"><ele>91.0</ele><time>2026-04-04T12:04:28.99Z</time></trkpt><trkpt lat="44.7624367" lon="10.1915217"><ele>91.0</ele><time>2026-04-04T12:04:29.99Z</time></trkpt><trkpt lat="44.76253" lon="10.1912333"><ele>91.0</ele><time>2026-04-04T12:04:30.99Z</time></trkpt><trkpt lat="44.7626267" lon="10.1909417"><ele>91.0</ele><time>2026-04-04T12:04:31.99Z</time></trkpt><trkpt lat="44.762725" lon="10.1906583"><ele>89.66666666666666</ele><time>2026-04-04T12:04:32.991Z</time></trkpt><trkpt lat="44.7628167" lon="10.19037"><ele>88.33333333333333</ele><time>2026-04-04T12:04:33.99Z</time></trkpt><trkpt lat="44.76291" lon="10.1900833"><ele>87.0</ele><time>2026-04-04T12:04:34.99Z</time></trkpt><trkpt lat="44.763005" lon="10.1897983"><ele>87.0</ele><time>2026-04-04T12:04:35.99Z</time></trkpt><trkpt lat="44.7630917" lon="10.18952"><ele>87.0</ele><time>2026-04-04T12:04:36.99Z</time></trkpt><trkpt lat="44.7631833" lon="10.18923"><ele>87.0</ele><time>2026-04-04T12:04:37.99Z</time></trkpt><trkpt lat="44.76328" lon="10.1889483"><ele>87.66666666666667</ele><time>2026-04-04T12:04:38.99Z</time></trkpt><trkpt lat="44.7633767" lon="10.18867"><ele>88.33333333333334</ele><time>2026-04-04T12:04:39.991Z</time></trkpt><trkpt lat="44.763465" lon="10.1883867"><ele>89.0</ele><time>2026-04-04T12:04:40.991Z</time></trkpt><trkpt lat="44.7635533" lon="10.1881083"><ele>89.66666666666667</ele><time>2026-04-04T12:04:41.991Z</time></trkpt><trkpt lat="44.763645" lon="10.1878283"><ele>90.33333333333333</ele><time>2026-04-04T12:04:42.99Z</time></trkpt><trkpt lat="44.7637383" lon="10.18755"><ele>91.0</ele><time>2026-04-04T12:04:43.99Z</time></trkpt><trkpt lat="44.7638267" lon="10.1872683"><ele>91.33333333333333</ele><time>2026-04-04T12:04:44.991Z</time></trkpt><trkpt lat="44.7639183" lon="10.1869867"><ele>91.66666666666667</ele><time>2026-04-04T12:04:45.991Z</time></trkpt><trkpt lat="44.7640117" lon="10.186705"><ele>92.0</ele><time>2026-04-04T12:04:46.99Z</time></trkpt><trkpt lat="44.764105" lon="10.18642"><ele>92.0</ele><time>2026-04-04T12:04:47.991Z</time></trkpt><trkpt lat="44.7641983" lon="10.1861383"><ele>92.0</ele><time>2026-04-04T12:04:48.99Z</time></trkpt><trkpt lat="44.7642883" lon="10.1858533"><ele>92.0</ele><time>2026-04-04T12:04:49.99Z</time></trkpt><trkpt lat="44.7643783" lon="10.1855667"><ele>90.33333333333334</ele><time>2026-04-04T12:04:50.991Z</time></trkpt><trkpt lat="44.7644683" lon="10.1852783"><ele>88.66666666666667</ele><time>2026-04-04T12:04:51.991Z</time></trkpt><trkpt lat="44.76456" lon="10.1849933"><ele>87.0</ele><time>2026-04-04T12:04:52.99Z</time></trkpt><trkpt lat="44.764655" lon="10.1847133"><ele>85.5</ele><time>2026-04-04T12:04:53.991Z</time></trkpt><trkpt lat="44.7647533" lon="10.1844283"><ele>84.0</ele><time>2026-04-04T12:04:54.99Z</time></trkpt><trkpt lat="44.7648483" lon="10.184135"><ele>83.33333333333333</ele><time>2026-04-04T12:04:55.99Z</time></trkpt><trkpt lat="44.7649367" lon="10.183845"><ele>82.66666666666666</ele><time>2026-04-04T12:04:56.99Z</time></trkpt><trkpt lat="44.7650267" lon="10.1835583"><ele>82.0</ele><time>2026-04-04T12:04:57.99Z</time></trkpt><trkpt lat="44.7651167" lon="10.18327"><ele>82.0</ele><time>2026-04-04T12:04:58.991Z</time></trkpt><trkpt lat="44.76521" lon="10.1829883"><ele>82.0</ele><time>2026-04-04T12:04:59.991Z</time></trkpt><trkpt lat="44.7653083" lon="10.1827"><ele>82.0</ele><time>2026-04-04T12:05:00.99Z</time></trkpt><trkpt lat="44.7654" lon="10.1824117"><ele>81.5</ele><time>2026-04-04T12:05:01.99Z</time></trkpt><trkpt lat="44.7654933" lon="10.18212"><ele>81.0</ele><time>2026-04-04T12:05:02.99Z</time></trkpt><trkpt lat="44.7655833" lon="10.1818233"><ele>81.0</ele><time>2026-04-04T12:05:03.991Z</time></trkpt><trkpt lat="44.7656767" lon="10.181525"><ele>81.0</ele><time>2026-04-04T12:05:04.991Z</time></trkpt><trkpt lat="44.76577" lon="10.181235"><ele>81.0</ele><time>2026-04-04T12:05:05.991Z</time></trkpt><trkpt lat="44.7658667" lon="10.1809417"><ele>81.0</ele><time>2026-04-04T12:05:06.99Z</time></trkpt><trkpt lat="44.7659617" lon="10.18065"><ele>81.5</ele><time>2026-04-04T12:05:07.991Z</time></trkpt><trkpt lat="44.7660533" lon="10.180355"><ele>82.0</ele><time>2026-04-04T12:05:08.99Z</time></trkpt><trkpt lat="44.7661517" lon="10.180065"><ele>82.5</ele><time>2026-04-04T12:05:09.99Z</time></trkpt><trkpt lat="44.76625" lon="10.17977"><ele>83.0</ele><time>2026-04-04T12:05:10.991Z</time></trkpt><trkpt lat="44.766345" lon="10.1794767"><ele>83.0</ele><time>2026-04-04T12:05:11.991Z</time></trkpt><trkpt lat="44.7664433" lon="10.179185"><ele>83.0</ele><time>2026-04-04T12:05:12.99Z</time></trkpt><trkpt lat="44.766535" lon="10.178885"><ele>84.5</ele><time>2026-04-04T12:05:13.991Z</time></trkpt><trkpt lat="44.7666317" lon="10.1785933"><ele>86.0</ele><time>2026-04-04T12:05:14.991Z</time></trkpt><trkpt lat="44.7667217" lon="10.1783017"><ele>85.5</ele><time>2026-04-04T12:05:15.99Z</time></trkpt><trkpt lat="44.7668217" lon="10.1780117"><ele>85.0</ele><time>2026-04-04T12:05:16.99Z</time></trkpt><trkpt lat="44.7669167" lon="10.177715"><ele>85.0</ele><time>2026-04-04T12:05:17.99Z</time></trkpt><trkpt lat="44.76701" lon="10.1774233"><ele>85.0</ele><time>2026-04-04T12:05:18.99Z</time></trkpt><trkpt lat="44.7671067" lon="10.1771367"><ele>85.5</ele><time>2026-04-04T12:05:19.991Z</time></trkpt><trkpt lat="44.7671983" lon="10.1768433"><ele>86.0</ele><time>2026-04-04T12:05:20.991Z</time></trkpt><trkpt lat="44.7672967" lon="10.17655"><ele>85.5</ele><time>2026-04-04T12:05:21.991Z</time></trkpt><trkpt lat="44.7673883" lon="10.17626"><ele>85.0</ele><time>2026-04-04T12:05:22.99Z</time></trkpt><trkpt lat="44.767495" lon="10.17597"><ele>85.5</ele><time>2026-04-04T12:05:23.991Z</time></trkpt><trkpt lat="44.7675917" lon="10.1756833"><ele>86.0</ele><time>2026-04-04T12:05:24.99Z</time></trkpt><trkpt lat="44.7676867" lon="10.1753917"><ele>85.0</ele><time>2026-04-04T12:05:25.99Z</time></trkpt><trkpt lat="44.7677883" lon="10.1751083"><ele>84.0</ele><time>2026-04-04T12:05:26.99Z</time></trkpt><trkpt lat="44.7678883" lon="10.1748217"><ele>83.0</ele><time>2026-04-04T12:05:27.99Z</time></trkpt><trkpt lat="44.7679967" lon="10.1745383"><ele>82.0</ele><time>2026-04-04T12:05:28.99Z</time></trkpt><trkpt lat="44.7681083" lon="10.1742583"><ele>82.0</ele><time>2026-04-04T12:05:29.99Z</time></trkpt><trkpt lat="44.7682217" lon="10.173975"><ele>82.0</ele><time>2026-04-04T12:05:30.99Z</time></trkpt><trkpt lat="44.7683417" lon="10.17369"><ele>82.0</ele><time>2026-04-04T12:05:31.99Z</time></trkpt><trkpt lat="44.76846" lon="10.17341"><ele>82.0</ele><time>2026-04-04T12:05:32.99Z</time></trkpt><trkpt lat="44.76858" lon="10.1731283"><ele>83.5</ele><time>2026-04-04T12:05:33.991Z</time></trkpt><trkpt lat="44.7687083" lon="10.172845"><ele>85.0</ele><time>2026-04-04T12:05:34.99Z</time></trkpt><trkpt lat="44.7688433" lon="10.17257"><ele>85.0</ele><time>2026-04-04T12:05:35.991Z</time></trkpt><trkpt lat="44.7689767" lon="10.1723"><ele>85.0</ele><time>2026-04-04T12:05:36.99Z</time></trkpt><trkpt lat="44.7691117" lon="10.1720317"><ele>85.0</ele><time>2026-04-04T12:05:37.991Z</time></trkpt><trkpt lat="44.7692517" lon="10.1717783"><ele>85.0</ele><time>2026-04-04T12:05:38.991Z</time></trkpt><trkpt lat="44.7693833" lon="10.1715383"><ele>85.0</ele><time>2026-04-04T12:05:39.99Z</time></trkpt><trkpt lat="44.76951" lon="10.17131"><ele>85.66666666666666</ele><time>2026-04-04T12:05:40.991Z</time></trkpt><trkpt lat="44.76963" lon="10.1711017"><ele>86.33333333333333</ele><time>2026-04-04T12:05:41.99Z</time></trkpt><trkpt lat="44.769735" lon="10.170905"><ele>87.0</ele><time>2026-04-04T12:05:42.99Z</time></trkpt><trkpt lat="44.769835" lon="10.1707333"><ele>86.75</ele><time>2026-04-04T12:05:43.99Z</time></trkpt><trkpt lat="44.7699283" lon="10.1705817"><ele>86.5</ele><time>2026-04-04T12:05:44.99Z</time></trkpt><trkpt lat="44.77001" lon="10.17045"><ele>86.25</ele><time>2026-04-04T12:05:45.99Z</time></trkpt><trkpt lat="44.7700783" lon="10.1703417"><ele>86.0</ele><time>2026-04-04T12:05:46.99Z</time></trkpt><trkpt lat="44.77014" lon="10.17025"><ele>86.19999999999999</ele><time>2026-04-04T12:05:47.99Z</time></trkpt><trkpt lat="44.7701917" lon="10.1701683"><ele>86.39999999999999</ele><time>2026-04-04T12:05:48.99Z</time></trkpt><trkpt lat="44.7702383" lon="10.1701033"><ele>86.6</ele><time>2026-04-04T12:05:49.99Z</time></trkpt><trkpt lat="44.7703283" lon="10.1700017"><ele>86.8</ele><time>2026-04-04T12:05:51.991Z</time></trkpt><trkpt lat="44.7704533" lon="10.1699417"><ele>87.0</ele><time>2026-04-04T12:05:53.99Z</time></trkpt><trkpt lat="44.7705283" lon="10.1699167"><ele>87.0</ele><time>2026-04-04T12:05:54.99Z</time></trkpt><trkpt lat="44.7706067" lon="10.1698867"><ele>87.0</ele><time>2026-04-04T12:05:55.99Z</time></trkpt><trkpt lat="44.7706883" lon="10.1698467"><ele>87.0</ele><time>2026-04-04T12:05:56.99Z</time></trkpt><trkpt lat="44.77075" lon="10.1697683"><ele>87.0</ele><time>2026-04-04T12:05:57.99Z</time></trkpt><trkpt lat="44.7708" lon="10.1696583"><ele>87.0</ele><time>2026-04-04T12:05:58.99Z</time></trkpt><trkpt lat="44.7708183" lon="10.1695383"><ele>87.0</ele><time>2026-04-04T12:05:59.99Z</time></trkpt><trkpt lat="44.77079" lon="10.169425"><ele>86.39999999999999</ele><time>2026-04-04T12:06:00.99Z</time></trkpt><trkpt lat="44.7707283" lon="10.16932"><ele>85.8</ele><time>2026-04-04T12:06:01.99Z</time></trkpt><trkpt lat="44.7706367" lon="10.16926"><ele>85.2</ele><time>2026-04-04T12:06:02.99Z</time></trkpt><trkpt lat="44.7705217" lon="10.1692533"><ele>84.6</ele><time>2026-04-04T12:06:03.991Z</time></trkpt><trkpt lat="44.770405" lon="10.1693117"><ele>84.0</ele><time>2026-04-04T12:06:04.991Z</time></trkpt><trkpt lat="44.770295" lon="10.169365"><ele>84.0</ele><time>2026-04-04T12:06:05.99Z</time></trkpt><trkpt lat="44.77017" lon="10.1693833"><ele>84.0</ele><time>2026-04-04T12:06:06.991Z</time></trkpt><trkpt lat="44.7700367" lon="10.16934"><ele>84.0</ele><time>2026-04-04T12:06:07.99Z</time></trkpt><trkpt lat="44.7698833" lon="10.1692817"><ele>84.0</ele><time>2026-04-04T12:06:08.99Z</time></trkpt><trkpt lat="44.7697267" lon="10.1692033"><ele>84.0</ele><time>2026-04-04T12:06:09.99Z</time></trkpt><trkpt lat="44.7695683" lon="10.169095"><ele>84.0</ele><time>2026-04-04T12:06:10.99Z</time></trkpt><trkpt lat="44.7694217" lon="10.1689533"><ele>84.0</ele><time>2026-04-04T12:06:11.991Z</time></trkpt><trkpt lat="44.7692767" lon="10.1687817"><ele>85.0</ele><time>2026-04-04T12:06:12.99Z</time></trkpt><trkpt lat="44.769125" lon="10.1686067"><ele>86.0</ele><time>2026-04-04T12:06:13.991Z</time></trkpt><trkpt lat="44.7689633" lon="10.1684333"><ele>87.0</ele><time>2026-04-04T12:06:14.99Z</time></trkpt><trkpt lat="44.7688017" lon="10.1682533"><ele>86.66666666666667</ele><time>2026-04-04T12:06:15.99Z</time></trkpt><trkpt lat="44.7686433" lon="10.1680783"><ele>86.33333333333334</ele><time>2026-04-04T12:06:16.99Z</time></trkpt><trkpt lat="44.7684833" lon="10.167895"><ele>86.0</ele><time>2026-04-04T12:06:17.991Z</time></trkpt><trkpt lat="44.7683283" lon="10.1677133"><ele>86.66666666666667</ele><time>2026-04-04T12:06:18.99Z</time></trkpt><trkpt lat="44.76817" lon="10.1675133"><ele>87.33333333333333</ele><time>2026-04-04T12:06:19.99Z</time></trkpt><trkpt lat="44.76802" lon="10.1673033"><ele>88.0</ele><time>2026-04-04T12:06:20.99Z</time></trkpt><trkpt lat="44.76787" lon="10.1670883"><ele>88.0</ele><time>2026-04-04T12:06:21.99Z</time></trkpt><trkpt lat="44.7677267" lon="10.1668617"><ele>88.0</ele><time>2026-04-04T12:06:22.99Z</time></trkpt><trkpt lat="44.7675767" lon="10.1666383"><ele>88.0</ele><time>2026-04-04T12:06:23.991Z</time></trkpt><trkpt lat="44.767425" lon="10.1664167"><ele>88.0</ele><time>2026-04-04T12:06:24.99Z</time></trkpt><trkpt lat="44.767275" lon="10.1661967"><ele>88.0</ele><time>2026-04-04T12:06:25.991Z</time></trkpt><trkpt lat="44.7671267" lon="10.1659717"><ele>88.0</ele><time>2026-04-04T12:06:26.991Z</time></trkpt><trkpt lat="44.76698" lon="10.16576"><ele>88.33333333333333</ele><time>2026-04-04T12:06:27.99Z</time></trkpt><trkpt lat="44.76683" lon="10.165545"><ele>88.66666666666667</ele><time>2026-04-04T12:06:28.991Z</time></trkpt><trkpt lat="44.76668" lon="10.16532"><ele>89.0</ele><time>2026-04-04T12:06:29.991Z</time></trkpt><trkpt lat="44.766535" lon="10.165095"><ele>89.0</ele><time>2026-04-04T12:06:30.99Z</time></trkpt><trkpt lat="44.766385" lon="10.16487"><ele>89.0</ele><time>2026-04-04T12:06:31.99Z</time></trkpt><trkpt lat="44.7662367" lon="10.1646483"><ele>89.0</ele><time>2026-04-04T12:06:32.991Z</time></trkpt><trkpt lat="44.7660883" lon="10.1644267"><ele>89.0</ele><time>2026-04-04T12:06:33.991Z</time></trkpt><trkpt lat="44.7659333" lon="10.1642033"><ele>89.0</ele><time>2026-04-04T12:06:34.99Z</time></trkpt><trkpt lat="44.7657833" lon="10.1639867"><ele>89.0</ele><time>2026-04-04T12:06:35.99Z</time></trkpt><trkpt lat="44.765635" lon="10.1637717"><ele>88.33333333333334</ele><time>2026-04-04T12:06:36.99Z</time></trkpt><trkpt lat="44.76549" lon="10.163545"><ele>87.66666666666667</ele><time>2026-04-04T12:06:37.991Z</time></trkpt><trkpt lat="44.7653433" lon="10.1633367"><ele>87.0</ele><time>2026-04-04T12:06:38.99Z</time></trkpt><trkpt lat="44.7652067" lon="10.163135"><ele>87.33333333333333</ele><time>2026-04-04T12:06:39.99Z</time></trkpt><trkpt lat="44.76508" lon="10.1629567"><ele>87.66666666666666</ele><time>2026-04-04T12:06:40.99Z</time></trkpt><trkpt lat="44.7649633" lon="10.1627933"><ele>88.0</ele><time>2026-04-04T12:06:41.991Z</time></trkpt><trkpt lat="44.76486" lon="10.1626567"><ele>88.0</ele><time>2026-04-04T12:06:42.991Z</time></trkpt><trkpt lat="44.7647667" lon="10.1625217"><ele>88.0</ele><time>2026-04-04T12:06:43.99Z</time></trkpt><trkpt lat="44.7646883" lon="10.162395"><ele>88.0</ele><time>2026-04-04T12:06:44.991Z</time></trkpt><trkpt lat="44.7646033" lon="10.1622583"><ele>88.0</ele><time>2026-04-04T12:06:45.99Z</time></trkpt><trkpt lat="44.7645117" lon="10.162115"><ele>88.5</ele><time>2026-04-04T12:06:46.99Z</time></trkpt><trkpt lat="44.7644133" lon="10.1619583"><ele>89.0</ele><time>2026-04-04T12:06:47.991Z</time></trkpt><trkpt lat="44.7643133" lon="10.161805"><ele>89.5</ele><time>2026-04-04T12:06:48.991Z</time></trkpt><trkpt lat="44.76421" lon="10.1616467"><ele>90.0</ele><time>2026-04-04T12:06:49.99Z</time></trkpt><trkpt lat="44.764105" lon="10.16148"><ele>91.33333333333333</ele><time>2026-04-04T12:06:50.99Z</time></trkpt><trkpt lat="44.7639983" lon="10.16131"><ele>92.66666666666666</ele><time>2026-04-04T12:06:51.991Z</time></trkpt><trkpt lat="44.763905" lon="10.1611183"><ele>94.0</ele><time>2026-04-04T12:06:52.99Z</time></trkpt><trkpt lat="44.7638333" lon="10.1609167"><ele>94.0</ele><time>2026-04-04T12:06:53.99Z</time></trkpt><trkpt lat="44.76377" lon="10.160705"><ele>94.0</ele><time>2026-04-04T12:06:54.99Z</time></trkpt><trkpt lat="44.7637217" lon="10.1604817"><ele>94.0</ele><time>2026-04-04T12:06:55.991Z</time></trkpt><trkpt lat="44.763685" lon="10.1602533"><ele>94.33333333333333</ele><time>2026-04-04T12:06:56.991Z</time></trkpt><trkpt lat="44.7636467" lon="10.1600283"><ele>94.66666666666667</ele><time>2026-04-04T12:06:57.99Z</time></trkpt><trkpt lat="44.7636217" lon="10.1597933"><ele>95.0</ele><time>2026-04-04T12:06:58.99Z</time></trkpt><trkpt lat="44.7635867" lon="10.1595517"><ele>94.0</ele><time>2026-04-04T12:06:59.99Z</time></trkpt><trkpt lat="44.7635633" lon="10.1593133"><ele>93.0</ele><time>2026-04-04T12:07:00.99Z</time></trkpt><trkpt lat="44.76354" lon="10.1590683"><ele>92.0</ele><time>2026-04-04T12:07:01.99Z</time></trkpt><trkpt lat="44.7635117" lon="10.1588233"><ele>92.0</ele><time>2026-04-04T12:07:02.991Z</time></trkpt><trkpt lat="44.7634783" lon="10.1585867"><ele>92.0</ele><time>2026-04-04T12:07:03.99Z</time></trkpt><trkpt lat="44.76345" lon="10.15835"><ele>92.0</ele><time>2026-04-04T12:07:04.99Z</time></trkpt><trkpt lat="44.7634167" lon="10.1581083"><ele>92.33333333333334</ele><time>2026-04-04T12:07:05.991Z</time></trkpt><trkpt lat="44.7633867" lon="10.1578667"><ele>92.66666666666667</ele><time>2026-04-04T12:07:06.99Z</time></trkpt><trkpt lat="44.76336" lon="10.1576333"><ele>93.0</ele><time>2026-04-04T12:07:07.991Z</time></trkpt><trkpt lat="44.7633317" lon="10.1574033"><ele>93.33333333333333</ele><time>2026-04-04T12:07:08.991Z</time></trkpt><trkpt lat="44.7633" lon="10.1571817"><ele>93.66666666666666</ele><time>2026-04-04T12:07:09.99Z</time></trkpt><trkpt lat="44.763255" lon="10.1569533"><ele>94.0</ele><time>2026-04-04T12:07:10.99Z</time></trkpt><trkpt lat="44.7631833" lon="10.1567367"><ele>95.0</ele><time>2026-04-04T12:07:11.99Z</time></trkpt><trkpt lat="44.7630833" lon="10.1565333"><ele>96.0</ele><time>2026-04-04T12:07:12.99Z</time></trkpt><trkpt lat="44.7629617" lon="10.156345"><ele>97.0</ele><time>2026-04-04T12:07:13.991Z</time></trkpt><trkpt lat="44.7628167" lon="10.15618"><ele>97.0</ele><time>2026-04-04T12:07:14.99Z</time></trkpt><trkpt lat="44.7626883" lon="10.1560217"><ele>97.0</ele><time>2026-04-04T12:07:15.99Z</time></trkpt><trkpt lat="44.7625667" lon="10.15588"><ele>97.0</ele><time>2026-04-04T12:07:16.991Z</time></trkpt><trkpt lat="44.7624483" lon="10.1557517"><ele>97.0</ele><time>2026-04-04T12:07:17.99Z</time></trkpt><trkpt lat="44.762345" lon="10.15563"><ele>97.0</ele><time>2026-04-04T12:07:18.991Z</time></trkpt><trkpt lat="44.7622367" lon="10.155505"><ele>97.0</ele><time>2026-04-04T12:07:19.99Z</time></trkpt><trkpt lat="44.7621167" lon="10.1553767"><ele>97.0</ele><time>2026-04-04T12:07:20.99Z</time></trkpt><trkpt lat="44.7619867" lon="10.1552333"><ele>96.66666666666667</ele><time>2026-04-04T12:07:21.99Z</time></trkpt><trkpt lat="44.761855" lon="10.15508"><ele>96.33333333333334</ele><time>2026-04-04T12:07:22.99Z</time></trkpt><trkpt lat="44.7617133" lon="10.1549117"><ele>96.0</ele><time>2026-04-04T12:07:23.99Z</time></trkpt><trkpt lat="44.76156" lon="10.1547233"><ele>96.0</ele><time>2026-04-04T12:07:24.99Z</time></trkpt><trkpt lat="44.7613967" lon="10.1545333"><ele>96.0</ele><time>2026-04-04T12:07:25.991Z</time></trkpt><trkpt lat="44.761235" lon="10.1543417"><ele>96.0</ele><time>2026-04-04T12:07:26.99Z</time></trkpt><trkpt lat="44.76107" lon="10.1541483"><ele>95.33333333333333</ele><time>2026-04-04T12:07:27.99Z</time></trkpt><trkpt lat="44.7609017" lon="10.15395"><ele>94.66666666666666</ele><time>2026-04-04T12:07:28.99Z</time></trkpt><trkpt lat="44.7607283" lon="10.1537467"><ele>94.0</ele><time>2026-04-04T12:07:29.991Z</time></trkpt><trkpt lat="44.7605633" lon="10.1535417"><ele>94.0</ele><time>2026-04-04T12:07:30.991Z</time></trkpt><trkpt lat="44.7603933" lon="10.1533417"><ele>94.0</ele><time>2026-04-04T12:07:31.99Z</time></trkpt><trkpt lat="44.7602167" lon="10.1531517"><ele>94.0</ele><time>2026-04-04T12:07:32.99Z</time></trkpt><trkpt lat="44.7600433" lon="10.1529733"><ele>95.33333333333333</ele><time>2026-04-04T12:07:33.99Z</time></trkpt><trkpt lat="44.7598617" lon="10.1528283"><ele>96.66666666666666</ele><time>2026-04-04T12:07:34.99Z</time></trkpt><trkpt lat="44.759675" lon="10.1527033"><ele>98.0</ele><time>2026-04-04T12:07:35.99Z</time></trkpt><trkpt lat="44.7594833" lon="10.1525917"><ele>98.33333333333333</ele><time>2026-04-04T12:07:36.99Z</time></trkpt><trkpt lat="44.7592917" lon="10.1524767"><ele>98.66666666666666</ele><time>2026-04-04T12:07:37.99Z</time></trkpt><trkpt lat="44.7591033" lon="10.1523583"><ele>99.0</ele><time>2026-04-04T12:07:38.99Z</time></trkpt><trkpt lat="44.758925" lon="10.152245"><ele>99.0</ele><time>2026-04-04T12:07:39.99Z</time></trkpt><trkpt lat="44.7587633" lon="10.15212"><ele>99.0</ele><time>2026-04-04T12:07:40.99Z</time></trkpt><trkpt lat="44.75862" lon="10.1519717"><ele>99.0</ele><time>2026-04-04T12:07:41.991Z</time></trkpt><trkpt lat="44.758485" lon="10.1518017"><ele>99.33333333333334</ele><time>2026-04-04T12:07:42.991Z</time></trkpt><trkpt lat="44.7583483" lon="10.1516033"><ele>99.66666666666667</ele><time>2026-04-04T12:07:43.99Z</time></trkpt><trkpt lat="44.7581983" lon="10.1514333"><ele>100.0</ele><time>2026-04-04T12:07:44.99Z</time></trkpt><trkpt lat="44.7580233" lon="10.151305"><ele>100.33333333333334</ele><time>2026-04-04T12:07:45.99Z</time></trkpt><trkpt lat="44.7578317" lon="10.1511917"><ele>100.66666666666666</ele><time>2026-04-04T12:07:46.99Z</time></trkpt><trkpt lat="44.7576317" lon="10.1511033"><ele>101.0</ele><time>2026-04-04T12:07:47.99Z</time></trkpt><trkpt lat="44.757425" lon="10.15102"><ele>101.0</ele><time>2026-04-04T12:07:48.991Z</time></trkpt><trkpt lat="44.7572133" lon="10.1509433"><ele>101.0</ele><time>2026-04-04T12:07:49.99Z</time></trkpt><trkpt lat="44.757005" lon="10.1508717"><ele>101.0</ele><time>2026-04-04T12:07:50.991Z</time></trkpt><trkpt lat="44.7567967" lon="10.1508"><ele>101.33333333333333</ele><time>2026-04-04T12:07:51.99Z</time></trkpt><trkpt lat="44.7565867" lon="10.150715"><ele>101.66666666666666</ele><time>2026-04-04T12:07:52.99Z</time></trkpt><trkpt lat="44.7563867" lon="10.1506517"><ele>102.0</ele><time>2026-04-04T12:07:53.991Z</time></trkpt><trkpt lat="44.7562083" lon="10.1505967"><ele>102.0</ele><time>2026-04-04T12:07:54.991Z</time></trkpt><trkpt lat="44.7560517" lon="10.15055"><ele>102.0</ele><time>2026-04-04T12:07:55.991Z</time></trkpt><trkpt lat="44.75592" lon="10.1505067"><ele>102.0</ele><time>2026-04-04T12:07:56.99Z</time></trkpt><trkpt lat="44.755815" lon="10.1504567"><ele>102.0</ele><time>2026-04-04T12:07:57.99Z</time></trkpt><trkpt lat="44.75573" lon="10.1503917"><ele>102.0</ele><time>2026-04-04T12:07:58.99Z</time></trkpt><trkpt lat="44.75566" lon="10.1502767"><ele>102.0</ele><time>2026-04-04T12:07:59.991Z</time></trkpt><trkpt lat="44.75561" lon="10.1501167"><ele>102.0</ele><time>2026-04-04T12:08:00.99Z</time></trkpt><trkpt lat="44.7555683" lon="10.1499167"><ele>102.0</ele><time>2026-04-04T12:08:01.991Z</time></trkpt><trkpt lat="44.7555017" lon="10.149715"><ele>102.0</ele><time>2026-04-04T12:08:02.99Z</time></trkpt><trkpt lat="44.75541" lon="10.149525"><ele>102.0</ele><time>2026-04-04T12:08:03.991Z</time></trkpt><trkpt lat="44.7553" lon="10.1493417"><ele>102.0</ele><time>2026-04-04T12:08:04.99Z</time></trkpt><trkpt lat="44.7551933" lon="10.1491417"><ele>102.0</ele><time>2026-04-04T12:08:05.991Z</time></trkpt><trkpt lat="44.7551067" lon="10.1489267"><ele>102.0</ele><time>2026-04-04T12:08:06.99Z</time></trkpt><trkpt lat="44.7550517" lon="10.148695"><ele>102.0</ele><time>2026-04-04T12:08:07.99Z</time></trkpt><trkpt lat="44.7550183" lon="10.148465"><ele>102.0</ele><time>2026-04-04T12:08:08.991Z</time></trkpt><trkpt lat="44.755005" lon="10.1482183"><ele>102.0</ele><time>2026-04-04T12:08:09.991Z</time></trkpt><trkpt lat="44.7550383" lon="10.14796"><ele>102.0</ele><time>2026-04-04T12:08:10.99Z</time></trkpt><trkpt lat="44.7550933" lon="10.1477117"><ele>103.0</ele><time>2026-04-04T12:08:11.991Z</time></trkpt><trkpt lat="44.75512" lon="10.1474667"><ele>104.0</ele><time>2026-04-04T12:08:12.99Z</time></trkpt><trkpt lat="44.755105" lon="10.14723"><ele>105.0</ele><time>2026-04-04T12:08:13.991Z</time></trkpt><trkpt lat="44.75508" lon="10.14703"><ele>105.75</ele><time>2026-04-04T12:08:14.991Z</time></trkpt><trkpt lat="44.755065" lon="10.1468317"><ele>106.5</ele><time>2026-04-04T12:08:15.991Z</time></trkpt><trkpt lat="44.7550783" lon="10.14664"><ele>107.25</ele><time>2026-04-04T12:08:16.99Z</time></trkpt><trkpt lat="44.75512" lon="10.1464667"><ele>108.0</ele><time>2026-04-04T12:08:17.991Z</time></trkpt><trkpt lat="44.755175" lon="10.1463233"><ele>108.2</ele><time>2026-04-04T12:08:18.99Z</time></trkpt><trkpt lat="44.755225" lon="10.146215"><ele>108.4</ele><time>2026-04-04T12:08:19.99Z</time></trkpt><trkpt lat="44.7552467" lon="10.1461233"><ele>108.60000000000001</ele><time>2026-04-04T12:08:20.991Z</time></trkpt><trkpt lat="44.7552267" lon="10.146025"><ele>108.80000000000001</ele><time>2026-04-04T12:08:21.99Z</time></trkpt><trkpt lat="44.75517" lon="10.14592"><ele>109.0</ele><time>2026-04-04T12:08:22.991Z</time></trkpt><trkpt lat="44.7550683" lon="10.14581"><ele>109.75</ele><time>2026-04-04T12:08:23.99Z</time></trkpt><trkpt lat="44.7549483" lon="10.145675"><ele>110.5</ele><time>2026-04-04T12:08:24.991Z</time></trkpt><trkpt lat="44.75485" lon="10.145525"><ele>111.25</ele><time>2026-04-04T12:08:25.991Z</time></trkpt><trkpt lat="44.7547817" lon="10.1453667"><ele>112.0</ele><time>2026-04-04T12:08:26.991Z</time></trkpt><trkpt lat="44.75474" lon="10.1452083"><ele>112.00000000000001</ele><time>2026-04-04T12:08:27.99Z</time></trkpt><trkpt lat="44.7547083" lon="10.1450633"><ele>112.0</ele><time>2026-04-04T12:08:28.991Z</time></trkpt><trkpt lat="44.754705" lon="10.14493"><ele>112.0</ele><time>2026-04-04T12:08:29.99Z</time></trkpt><trkpt lat="44.75471" lon="10.144815"><ele>112.0</ele><time>2026-04-04T12:08:30.991Z</time></trkpt><trkpt lat="44.7547267" lon="10.1447083"><ele>112.00000000000001</ele><time>2026-04-04T12:08:31.99Z</time></trkpt><trkpt lat="44.7547267" lon="10.14459"><ele>112.0</ele><time>2026-04-04T12:08:32.99Z</time></trkpt><trkpt lat="44.7547" lon="10.1444733"><ele>112.75</ele><time>2026-04-04T12:08:33.99Z</time></trkpt><trkpt lat="44.7546433" lon="10.1443567"><ele>113.5</ele><time>2026-04-04T12:08:34.99Z</time></trkpt><trkpt lat="44.7545567" lon="10.1442517"><ele>114.25</ele><time>2026-04-04T12:08:35.991Z</time></trkpt><trkpt lat="44.7544567" lon="10.1441383"><ele>115.0</ele><time>2026-04-04T12:08:36.99Z</time></trkpt><trkpt lat="44.75435" lon="10.1440217"><ele>115.0</ele><time>2026-04-04T12:08:37.991Z</time></trkpt><trkpt lat="44.75425" lon="10.143895"><ele>115.0</ele><time>2026-04-04T12:08:38.99Z</time></trkpt><trkpt lat="44.7541517" lon="10.143775"><ele>115.0</ele><time>2026-04-04T12:08:39.99Z</time></trkpt><trkpt lat="44.754065" lon="10.1436633"><ele>115.0</ele><time>2026-04-04T12:08:40.991Z</time></trkpt><trkpt lat="44.7539817" lon="10.14355"><ele>115.0</ele><time>2026-04-04T12:08:41.99Z</time></trkpt><trkpt lat="44.7538917" lon="10.1434367"><ele>115.0</ele><time>2026-04-04T12:08:42.991Z</time></trkpt><trkpt lat="44.7537983" lon="10.1433017"><ele>115.0</ele><time>2026-04-04T12:08:43.991Z</time></trkpt><trkpt lat="44.7536917" lon="10.1431583"><ele>115.0</ele><time>2026-04-04T12:08:44.991Z</time></trkpt><trkpt lat="44.7535717" lon="10.1430133"><ele>115.33333333333334</ele><time>2026-04-04T12:08:45.99Z</time></trkpt><trkpt lat="44.7534483" lon="10.1428633"><ele>115.66666666666666</ele><time>2026-04-04T12:08:46.991Z</time></trkpt><trkpt lat="44.7533233" lon="10.142715"><ele>116.0</ele><time>2026-04-04T12:08:47.991Z</time></trkpt><trkpt lat="44.7531883" lon="10.14256"><ele>116.0</ele><time>2026-04-04T12:08:48.99Z</time></trkpt><trkpt lat="44.7530533" lon="10.14242"><ele>116.0</ele><time>2026-04-04T12:08:49.99Z</time></trkpt><trkpt lat="44.7529083" lon="10.14229"><ele>116.0</ele><time>2026-04-04T12:08:50.99Z</time></trkpt><trkpt lat="44.7527617" lon="10.1421583"><ele>115.0</ele><time>2026-04-04T12:08:51.99Z</time></trkpt><trkpt lat="44.7526133" lon="10.142025"><ele>114.0</ele><time>2026-04-04T12:08:52.99Z</time></trkpt><trkpt lat="44.75246" lon="10.1418967"><ele>113.0</ele><time>2026-04-04T12:08:53.991Z</time></trkpt><trkpt lat="44.7523183" lon="10.14177"><ele>113.0</ele><time>2026-04-04T12:08:54.99Z</time></trkpt><trkpt lat="44.7521883" lon="10.1416483"><ele>113.0</ele><time>2026-04-04T12:08:55.99Z</time></trkpt><trkpt lat="44.75206" lon="10.141535"><ele>113.0</ele><time>2026-04-04T12:08:56.99Z</time></trkpt><trkpt lat="44.75194" lon="10.1414383"><ele>113.0</ele><time>2026-04-04T12:08:57.99Z</time></trkpt><trkpt lat="44.75183" lon="10.1413567"><ele>114.80000000000001</ele><time>2026-04-04T12:08:58.991Z</time></trkpt><trkpt lat="44.75173" lon="10.141265"><ele>116.60000000000001</ele><time>2026-04-04T12:08:59.99Z</time></trkpt><trkpt lat="44.75163" lon="10.1411933"><ele>118.39999999999999</ele><time>2026-04-04T12:09:00.99Z</time></trkpt><trkpt lat="44.7515367" lon="10.141125"><ele>120.19999999999999</ele><time>2026-04-04T12:09:01.99Z</time></trkpt><trkpt lat="44.75144" lon="10.1410767"><ele>122.0</ele><time>2026-04-04T12:09:02.99Z</time></trkpt><trkpt lat="44.75134" lon="10.14103"><ele>121.99999999999999</ele><time>2026-04-04T12:09:03.99Z</time></trkpt><trkpt lat="44.7512467" lon="10.1409733"><ele>122.0</ele><time>2026-04-04T12:09:04.99Z</time></trkpt><trkpt lat="44.7511667" lon="10.140915"><ele>122.0</ele><time>2026-04-04T12:09:05.99Z</time></trkpt><trkpt lat="44.7511067" lon="10.1408633"><ele>122.0</ele><time>2026-04-04T12:09:06.991Z</time></trkpt><trkpt lat="44.7510417" lon="10.1408033"><ele>121.99999999999999</ele><time>2026-04-04T12:09:08.99Z</time></trkpt><trkpt lat="44.7509883" lon="10.1407317"><ele>122.0</ele><time>2026-04-04T12:09:13.991Z</time></trkpt><trkpt lat="44.7509167" lon="10.1406233"><ele>122.75</ele><time>2026-04-04T12:09:15.991Z</time></trkpt><trkpt lat="44.7508433" lon="10.1405483"><ele>123.5</ele><time>2026-04-04T12:09:16.99Z</time></trkpt><trkpt lat="44.750755" lon="10.1404617"><ele>124.25</ele><time>2026-04-04T12:09:17.99Z</time></trkpt><trkpt lat="44.7506483" lon="10.1403667"><ele>125.0</ele><time>2026-04-04T12:09:18.99Z</time></trkpt><trkpt lat="44.75054" lon="10.1402683"><ele>125.0</ele><time>2026-04-04T12:09:19.991Z</time></trkpt><trkpt lat="44.750435" lon="10.14016"><ele>125.0</ele><time>2026-04-04T12:09:20.99Z</time></trkpt><trkpt lat="44.7503233" lon="10.1400383"><ele>125.0</ele><time>2026-04-04T12:09:21.99Z</time></trkpt><trkpt lat="44.7502033" lon="10.1399"><ele>125.0</ele><time>2026-04-04T12:09:22.991Z</time></trkpt><trkpt lat="44.7500867" lon="10.1397567"><ele>123.66666666666666</ele><time>2026-04-04T12:09:23.991Z</time></trkpt><trkpt lat="44.7499567" lon="10.1396017"><ele>122.33333333333334</ele><time>2026-04-04T12:09:24.99Z</time></trkpt><trkpt lat="44.7498267" lon="10.1394267"><ele>121.0</ele><time>2026-04-04T12:09:25.991Z</time></trkpt><trkpt lat="44.74969" lon="10.139255"><ele>121.0</ele><time>2026-04-04T12:09:26.99Z</time></trkpt><trkpt lat="44.74955" lon="10.1390883"><ele>121.0</ele><time>2026-04-04T12:09:27.99Z</time></trkpt><trkpt lat="44.749415" lon="10.1389167"><ele>121.0</ele><time>2026-04-04T12:09:28.991Z</time></trkpt><trkpt lat="44.7492767" lon="10.1387517"><ele>120.33333333333334</ele><time>2026-04-04T12:09:29.99Z</time></trkpt><trkpt lat="44.7491383" lon="10.138585"><ele>119.66666666666666</ele><time>2026-04-04T12:09:30.99Z</time></trkpt><trkpt lat="44.7490033" lon="10.138415"><ele>119.0</ele><time>2026-04-04T12:09:31.99Z</time></trkpt><trkpt lat="44.74887" lon="10.1382483"><ele>118.66666666666666</ele><time>2026-04-04T12:09:32.99Z</time></trkpt><trkpt lat="44.7487317" lon="10.13807"><ele>118.33333333333334</ele><time>2026-04-04T12:09:33.991Z</time></trkpt><trkpt lat="44.7485867" lon="10.1378883"><ele>118.0</ele><time>2026-04-04T12:09:34.991Z</time></trkpt><trkpt lat="44.7484383" lon="10.1377"><ele>118.0</ele><time>2026-04-04T12:09:35.99Z</time></trkpt><trkpt lat="44.7482867" lon="10.137505"><ele>118.0</ele><time>2026-04-04T12:09:36.99Z</time></trkpt><trkpt lat="44.7481317" lon="10.1373133"><ele>118.0</ele><time>2026-04-04T12:09:37.99Z</time></trkpt><trkpt lat="44.7479733" lon="10.13711"><ele>117.66666666666667</ele><time>2026-04-04T12:09:38.99Z</time></trkpt><trkpt lat="44.7478117" lon="10.13692"><ele>117.33333333333334</ele><time>2026-04-04T12:09:39.99Z</time></trkpt><trkpt lat="44.7476483" lon="10.136715"><ele>117.0</ele><time>2026-04-04T12:09:40.991Z</time></trkpt><trkpt lat="44.747485" lon="10.136515"><ele>120.0</ele><time>2026-04-04T12:09:41.99Z</time></trkpt><trkpt lat="44.7473217" lon="10.136315"><ele>123.0</ele><time>2026-04-04T12:09:42.99Z</time></trkpt><trkpt lat="44.7471583" lon="10.1361167"><ele>126.0</ele><time>2026-04-04T12:09:43.99Z</time></trkpt><trkpt lat="44.7469983" lon="10.1359183"><ele>125.0</ele><time>2026-04-04T12:09:44.99Z</time></trkpt><trkpt lat="44.7468333" lon="10.13571"><ele>124.0</ele><time>2026-04-04T12:09:45.991Z</time></trkpt><trkpt lat="44.7466733" lon="10.1355"><ele>123.0</ele><time>2026-04-04T12:09:46.99Z</time></trkpt><trkpt lat="44.7465117" lon="10.135295"><ele>123.0</ele><time>2026-04-04T12:09:47.99Z</time></trkpt><trkpt lat="44.746355" lon="10.1350933"><ele>123.0</ele><time>2026-04-04T12:09:48.99Z</time></trkpt><trkpt lat="44.7461933" lon="10.1348817"><ele>123.0</ele><time>2026-04-04T12:09:49.991Z</time></trkpt><trkpt lat="44.7460283" lon="10.1346783"><ele>123.0</ele><time>2026-04-04T12:09:50.99Z</time></trkpt><trkpt lat="44.74587" lon="10.1344867"><ele>123.0</ele><time>2026-04-04T12:09:51.991Z</time></trkpt><trkpt lat="44.7456983" lon="10.1343033"><ele>123.0</ele><time>2026-04-04T12:09:52.99Z</time></trkpt><trkpt lat="44.7455367" lon="10.13412"><ele>122.33333333333334</ele><time>2026-04-04T12:09:53.991Z</time></trkpt><trkpt lat="44.7453683" lon="10.133945"><ele>121.66666666666667</ele><time>2026-04-04T12:09:54.991Z</time></trkpt><trkpt lat="44.7451967" lon="10.1337783"><ele>121.0</ele><time>2026-04-04T12:09:55.99Z</time></trkpt><trkpt lat="44.7450267" lon="10.1336067"><ele>121.0</ele><time>2026-04-04T12:09:56.99Z</time></trkpt><trkpt lat="44.744865" lon="10.1334517"><ele>121.0</ele><time>2026-04-04T12:09:57.991Z</time></trkpt><trkpt lat="44.7447033" lon="10.1333083"><ele>121.0</ele><time>2026-04-04T12:09:58.99Z</time></trkpt><trkpt lat="44.7445433" lon="10.1331683"><ele>120.66666666666667</ele><time>2026-04-04T12:09:59.991Z</time></trkpt><trkpt lat="44.7443833" lon="10.1330267"><ele>120.33333333333334</ele><time>2026-04-04T12:10:00.99Z</time></trkpt><trkpt lat="44.7442333" lon="10.1328967"><ele>120.0</ele><time>2026-04-04T12:10:01.99Z</time></trkpt><trkpt lat="44.7440967" lon="10.1327767"><ele>120.0</ele><time>2026-04-04T12:10:02.99Z</time></trkpt><trkpt lat="44.74397" lon="10.132675"><ele>120.0</ele><time>2026-04-04T12:10:03.99Z</time></trkpt><trkpt lat="44.74385" lon="10.13258"><ele>120.0</ele><time>2026-04-04T12:10:04.991Z</time></trkpt><trkpt lat="44.74373" lon="10.1324867"><ele>120.0</ele><time>2026-04-04T12:10:05.99Z</time></trkpt><trkpt lat="44.7436117" lon="10.132385"><ele>120.0</ele><time>2026-04-04T12:10:06.99Z</time></trkpt><trkpt lat="44.7434967" lon="10.1322883"><ele>120.0</ele><time>2026-04-04T12:10:07.991Z</time></trkpt><trkpt lat="44.74339" lon="10.1322033"><ele>120.0</ele><time>2026-04-04T12:10:08.991Z</time></trkpt><trkpt lat="44.7432867" lon="10.1321217"><ele>120.0</ele><time>2026-04-04T12:10:09.991Z</time></trkpt><trkpt lat="44.7431817" lon="10.1320367"><ele>120.0</ele><time>2026-04-04T12:10:10.99Z</time></trkpt><trkpt lat="44.743075" lon="10.1319483"><ele>120.0</ele><time>2026-04-04T12:10:11.99Z</time></trkpt><trkpt lat="44.7429617" lon="10.1318633"><ele>120.0</ele><time>2026-04-04T12:10:12.99Z</time></trkpt><trkpt lat="44.7428467" lon="10.1317717"><ele>120.0</ele><time>2026-04-04T12:10:13.99Z</time></trkpt><trkpt lat="44.7427267" lon="10.1316767"><ele>119.5</ele><time>2026-04-04T12:10:14.99Z</time></trkpt><trkpt lat="44.7426017" lon="10.1315733"><ele>119.0</ele><time>2026-04-04T12:10:15.99Z</time></trkpt><trkpt lat="44.7424817" lon="10.13147"><ele>118.5</ele><time>2026-04-04T12:10:16.99Z</time></trkpt><trkpt lat="44.742365" lon="10.1313767"><ele>118.0</ele><time>2026-04-04T12:10:17.99Z</time></trkpt><trkpt lat="44.74226" lon="10.131295"><ele>118.0</ele><time>2026-04-04T12:10:18.991Z</time></trkpt><trkpt lat="44.74216" lon="10.1312117"><ele>118.0</ele><time>2026-04-04T12:10:19.99Z</time></trkpt><trkpt lat="44.742055" lon="10.1311283"><ele>118.0</ele><time>2026-04-04T12:10:20.991Z</time></trkpt><trkpt lat="44.7419367" lon="10.1310483"><ele>118.0</ele><time>2026-04-04T12:10:21.99Z</time></trkpt><trkpt lat="44.7418017" lon="10.1309467"><ele>118.33333333333334</ele><time>2026-04-04T12:10:22.991Z</time></trkpt><trkpt lat="44.741655" lon="10.1308317"><ele>118.66666666666666</ele><time>2026-04-04T12:10:23.991Z</time></trkpt><trkpt lat="44.7415" lon="10.13071"><ele>119.0</ele><time>2026-04-04T12:10:24.991Z</time></trkpt><trkpt lat="44.741335" lon="10.130575"><ele>119.0</ele><time>2026-04-04T12:10:25.99Z</time></trkpt><trkpt lat="44.7411717" lon="10.1304617"><ele>119.0</ele><time>2026-04-04T12:10:26.99Z</time></trkpt><trkpt lat="44.7410133" lon="10.13035"><ele>119.0</ele><time>2026-04-04T12:10:27.99Z</time></trkpt><trkpt lat="44.7408667" lon="10.13024"><ele>118.0</ele><time>2026-04-04T12:10:28.99Z</time></trkpt><trkpt lat="44.740725" lon="10.1301317"><ele>117.0</ele><time>2026-04-04T12:10:29.991Z</time></trkpt><trkpt lat="44.7405933" lon="10.1300367"><ele>116.0</ele><time>2026-04-04T12:10:30.99Z</time></trkpt><trkpt lat="44.7404683" lon="10.129945"><ele>116.33333333333333</ele><time>2026-04-04T12:10:31.99Z</time></trkpt><trkpt lat="44.7403383" lon="10.1298333"><ele>116.66666666666666</ele><time>2026-04-04T12:10:32.99Z</time></trkpt><trkpt lat="44.7402017" lon="10.1297217"><ele>117.0</ele><time>2026-04-04T12:10:33.99Z</time></trkpt><trkpt lat="44.7400567" lon="10.1296117"><ele>117.0</ele><time>2026-04-04T12:10:34.99Z</time></trkpt><trkpt lat="44.7399067" lon="10.1295033"><ele>117.0</ele><time>2026-04-04T12:10:35.991Z</time></trkpt><trkpt lat="44.7397617" lon="10.1293917"><ele>117.0</ele><time>2026-04-04T12:10:36.99Z</time></trkpt><trkpt lat="44.7396183" lon="10.1292583"><ele>117.0</ele><time>2026-04-04T12:10:37.991Z</time></trkpt><trkpt lat="44.7394717" lon="10.1291017"><ele>117.0</ele><time>2026-04-04T12:10:38.991Z</time></trkpt><trkpt lat="44.7393317" lon="10.12893"><ele>117.0</ele><time>2026-04-04T12:10:39.99Z</time></trkpt><trkpt lat="44.7391867" lon="10.1287483"><ele>118.66666666666666</ele><time>2026-04-04T12:10:40.99Z</time></trkpt><trkpt lat="44.7390467" lon="10.1285467"><ele>120.33333333333333</ele><time>2026-04-04T12:10:41.99Z</time></trkpt><trkpt lat="44.73891" lon="10.1283383"><ele>122.0</ele><time>2026-04-04T12:10:42.99Z</time></trkpt><trkpt lat="44.7387717" lon="10.1281267"><ele>123.0</ele><time>2026-04-04T12:10:43.99Z</time></trkpt><trkpt lat="44.7386317" lon="10.1279167"><ele>124.0</ele><time>2026-04-04T12:10:44.99Z</time></trkpt><trkpt lat="44.7384867" lon="10.1277133"><ele>125.0</ele><time>2026-04-04T12:10:45.991Z</time></trkpt><trkpt lat="44.738345" lon="10.1275133"><ele>124.66666666666666</ele><time>2026-04-04T12:10:46.99Z</time></trkpt><trkpt lat="44.7382067" lon="10.127305"><ele>124.33333333333334</ele><time>2026-04-04T12:10:47.991Z</time></trkpt><trkpt lat="44.7380683" lon="10.1271"><ele>124.0</ele><time>2026-04-04T12:10:48.991Z</time></trkpt><trkpt lat="44.737925" lon="10.126895"><ele>124.0</ele><time>2026-04-04T12:10:49.99Z</time></trkpt><trkpt lat="44.737775" lon="10.126705"><ele>124.0</ele><time>2026-04-04T12:10:50.99Z</time></trkpt><trkpt lat="44.7376183" lon="10.1265333"><ele>124.0</ele><time>2026-04-04T12:10:51.99Z</time></trkpt><trkpt lat="44.7374533" lon="10.1263633"><ele>124.33333333333334</ele><time>2026-04-04T12:10:52.99Z</time></trkpt><trkpt lat="44.737285" lon="10.12619"><ele>124.66666666666666</ele><time>2026-04-04T12:10:53.991Z</time></trkpt><trkpt lat="44.7371067" lon="10.1260133"><ele>125.0</ele><time>2026-04-04T12:10:54.99Z</time></trkpt><trkpt lat="44.7369233" lon="10.12585"><ele>125.66666666666666</ele><time>2026-04-04T12:10:55.99Z</time></trkpt><trkpt lat="44.7367333" lon="10.1256883"><ele>126.33333333333334</ele><time>2026-04-04T12:10:56.991Z</time></trkpt><trkpt lat="44.7365467" lon="10.12553"><ele>127.0</ele><time>2026-04-04T12:10:57.99Z</time></trkpt><trkpt lat="44.73636" lon="10.125375"><ele>127.0</ele><time>2026-04-04T12:10:58.991Z</time></trkpt><trkpt lat="44.7361733" lon="10.1252133"><ele>127.0</ele><time>2026-04-04T12:10:59.991Z</time></trkpt><trkpt lat="44.7359867" lon="10.12506"><ele>127.0</ele><time>2026-04-04T12:11:00.991Z</time></trkpt><trkpt lat="44.7357967" lon="10.1248983"><ele>126.33333333333334</ele><time>2026-04-04T12:11:01.99Z</time></trkpt><trkpt lat="44.7356083" lon="10.12474"><ele>125.66666666666666</ele><time>2026-04-04T12:11:02.99Z</time></trkpt><trkpt lat="44.7354183" lon="10.1245867"><ele>125.0</ele><time>2026-04-04T12:11:03.991Z</time></trkpt><trkpt lat="44.7352333" lon="10.124425"><ele>125.33333333333333</ele><time>2026-04-04T12:11:04.99Z</time></trkpt><trkpt lat="44.7350467" lon="10.1242567"><ele>125.66666666666666</ele><time>2026-04-04T12:11:05.99Z</time></trkpt><trkpt lat="44.7348567" lon="10.124095"><ele>126.0</ele><time>2026-04-04T12:11:06.991Z</time></trkpt><trkpt lat="44.7346583" lon="10.12395"><ele>126.0</ele><time>2026-04-04T12:11:07.99Z</time></trkpt><trkpt lat="44.734465" lon="10.1237983"><ele>126.0</ele><time>2026-04-04T12:11:08.99Z</time></trkpt><trkpt lat="44.734265" lon="10.12367"><ele>126.0</ele><time>2026-04-04T12:11:09.99Z</time></trkpt><trkpt lat="44.7340617" lon="10.1235333"><ele>127.0</ele><time>2026-04-04T12:11:10.99Z</time></trkpt><trkpt lat="44.7338667" lon="10.1234017"><ele>128.0</ele><time>2026-04-04T12:11:11.99Z</time></trkpt><trkpt lat="44.733665" lon="10.12327"><ele>129.0</ele><time>2026-04-04T12:11:12.99Z</time></trkpt><trkpt lat="44.733465" lon="10.1231283"><ele>129.0</ele><time>2026-04-04T12:11:13.991Z</time></trkpt><trkpt lat="44.73327" lon="10.1230017"><ele>129.0</ele><time>2026-04-04T12:11:14.99Z</time></trkpt><trkpt lat="44.7330667" lon="10.1228683"><ele>129.0</ele><time>2026-04-04T12:11:15.991Z</time></trkpt><trkpt lat="44.73288" lon="10.12273"><ele>127.66666666666666</ele><time>2026-04-04T12:11:16.99Z</time></trkpt><trkpt lat="44.732695" lon="10.1225733"><ele>126.33333333333333</ele><time>2026-04-04T12:11:17.99Z</time></trkpt><trkpt lat="44.73253" lon="10.1223967"><ele>125.0</ele><time>2026-04-04T12:11:18.99Z</time></trkpt><trkpt lat="44.73237" lon="10.1222"><ele>127.66666666666666</ele><time>2026-04-04T12:11:19.991Z</time></trkpt><trkpt lat="44.7322133" lon="10.1219967"><ele>130.33333333333334</ele><time>2026-04-04T12:11:20.99Z</time></trkpt><trkpt lat="44.7320517" lon="10.1218017"><ele>133.0</ele><time>2026-04-04T12:11:21.991Z</time></trkpt><trkpt lat="44.7318983" lon="10.121605"><ele>132.66666666666669</ele><time>2026-04-04T12:11:22.991Z</time></trkpt><trkpt lat="44.73174" lon="10.1214083"><ele>132.33333333333334</ele><time>2026-04-04T12:11:23.99Z</time></trkpt><trkpt lat="44.7315767" lon="10.121225"><ele>132.0</ele><time>2026-04-04T12:11:24.99Z</time></trkpt><trkpt lat="44.7314083" lon="10.1210433"><ele>132.0</ele><time>2026-04-04T12:11:25.99Z</time></trkpt><trkpt lat="44.7312367" lon="10.120865"><ele>132.0</ele><time>2026-04-04T12:11:26.991Z</time></trkpt><trkpt lat="44.7310583" lon="10.1206833"><ele>132.0</ele><time>2026-04-04T12:11:27.99Z</time></trkpt><trkpt lat="44.730885" lon="10.120505"><ele>131.33333333333334</ele><time>2026-04-04T12:11:28.991Z</time></trkpt><trkpt lat="44.7307167" lon="10.1203233"><ele>130.66666666666669</ele><time>2026-04-04T12:11:29.99Z</time></trkpt><trkpt lat="44.730545" lon="10.1201417"><ele>130.0</ele><time>2026-04-04T12:11:30.991Z</time></trkpt><trkpt lat="44.730375" lon="10.1199667"><ele>131.33333333333334</ele><time>2026-04-04T12:11:31.99Z</time></trkpt><trkpt lat="44.7302033" lon="10.1197867"><ele>132.66666666666666</ele><time>2026-04-04T12:11:32.991Z</time></trkpt><trkpt lat="44.730035" lon="10.1196067"><ele>134.0</ele><time>2026-04-04T12:11:33.991Z</time></trkpt><trkpt lat="44.7298717" lon="10.1194133"><ele>134.0</ele><time>2026-04-04T12:11:34.991Z</time></trkpt><trkpt lat="44.72972" lon="10.1192033"><ele>134.0</ele><time>2026-04-04T12:11:35.991Z</time></trkpt><trkpt lat="44.7295733" lon="10.118985"><ele>134.0</ele><time>2026-04-04T12:11:36.99Z</time></trkpt><trkpt lat="44.7294283" lon="10.1187617"><ele>134.0</ele><time>2026-04-04T12:11:37.991Z</time></trkpt><trkpt lat="44.7292783" lon="10.1185483"><ele>134.0</ele><time>2026-04-04T12:11:38.991Z</time></trkpt><trkpt lat="44.7291367" lon="10.1183433"><ele>134.0</ele><time>2026-04-04T12:11:39.991Z</time></trkpt><trkpt lat="44.7289967" lon="10.1181317"><ele>135.0</ele><time>2026-04-04T12:11:40.99Z</time></trkpt><trkpt lat="44.72886" lon="10.1179233"><ele>136.0</ele><time>2026-04-04T12:11:41.99Z</time></trkpt><trkpt lat="44.72872" lon="10.1177317"><ele>137.0</ele><time>2026-04-04T12:11:42.99Z</time></trkpt><trkpt lat="44.7285833" lon="10.11754"><ele>135.33333333333331</ele><time>2026-04-04T12:11:43.99Z</time></trkpt><trkpt lat="44.728455" lon="10.1173517"><ele>133.66666666666666</ele><time>2026-04-04T12:11:44.99Z</time></trkpt><trkpt lat="44.728325" lon="10.1171583"><ele>132.0</ele><time>2026-04-04T12:11:45.99Z</time></trkpt><trkpt lat="44.7281883" lon="10.1169617"><ele>132.0</ele><time>2026-04-04T12:11:46.99Z</time></trkpt><trkpt lat="44.728055" lon="10.11677"><ele>132.0</ele><time>2026-04-04T12:11:47.991Z</time></trkpt><trkpt lat="44.7279267" lon="10.1165833"><ele>132.0</ele><time>2026-04-04T12:11:48.991Z</time></trkpt><trkpt lat="44.7277917" lon="10.1163933"><ele>132.0</ele><time>2026-04-04T12:11:49.99Z</time></trkpt><trkpt lat="44.72767" lon="10.1161983"><ele>132.0</ele><time>2026-04-04T12:11:50.99Z</time></trkpt><trkpt lat="44.7275367" lon="10.116"><ele>132.0</ele><time>2026-04-04T12:11:51.991Z</time></trkpt><trkpt lat="44.7274083" lon="10.1158033"><ele>133.33333333333334</ele><time>2026-04-04T12:11:52.99Z</time></trkpt><trkpt lat="44.72728" lon="10.1156217"><ele>134.66666666666669</ele><time>2026-04-04T12:11:53.991Z</time></trkpt><trkpt lat="44.7271517" lon="10.1154333"><ele>136.0</ele><time>2026-04-04T12:11:54.991Z</time></trkpt><trkpt lat="44.7270233" lon="10.1152533"><ele>136.0</ele><time>2026-04-04T12:11:55.991Z</time></trkpt><trkpt lat="44.7269" lon="10.1150817"><ele>136.0</ele><time>2026-04-04T12:11:56.99Z</time></trkpt><trkpt lat="44.7267767" lon="10.11491"><ele>136.0</ele><time>2026-04-04T12:11:57.99Z</time></trkpt><trkpt lat="44.7266583" lon="10.1147283"><ele>135.66666666666669</ele><time>2026-04-04T12:11:58.99Z</time></trkpt><trkpt lat="44.7265433" lon="10.114575"><ele>135.33333333333334</ele><time>2026-04-04T12:11:59.991Z</time></trkpt><trkpt lat="44.7264333" lon="10.1144"><ele>135.0</ele><time>2026-04-04T12:12:00.991Z</time></trkpt><trkpt lat="44.7263167" lon="10.1142383"><ele>135.0</ele><time>2026-04-04T12:12:01.99Z</time></trkpt><trkpt lat="44.726195" lon="10.1140833"><ele>135.0</ele><time>2026-04-04T12:12:02.991Z</time></trkpt><trkpt lat="44.7260767" lon="10.11394"><ele>135.0</ele><time>2026-04-04T12:12:03.99Z</time></trkpt><trkpt lat="44.72598" lon="10.1137967"><ele>134.5</ele><time>2026-04-04T12:12:04.99Z</time></trkpt><trkpt lat="44.7258817" lon="10.113675"><ele>134.0</ele><time>2026-04-04T12:12:05.99Z</time></trkpt><trkpt lat="44.7257883" lon="10.1135467"><ele>133.5</ele><time>2026-04-04T12:12:06.991Z</time></trkpt><trkpt lat="44.7257117" lon="10.1134217"><ele>133.0</ele><time>2026-04-04T12:12:07.99Z</time></trkpt><trkpt lat="44.7256367" lon="10.1132983"><ele>133.16666666666669</ele><time>2026-04-04T12:12:08.991Z</time></trkpt><trkpt lat="44.7255667" lon="10.113195"><ele>133.33333333333334</ele><time>2026-04-04T12:12:09.99Z</time></trkpt><trkpt lat="44.7255017" lon="10.1130983"><ele>133.5</ele><time>2026-04-04T12:12:10.99Z</time></trkpt><trkpt lat="44.7254433" lon="10.1130133"><ele>133.66666666666666</ele><time>2026-04-04T12:12:11.99Z</time></trkpt><trkpt lat="44.7253883" lon="10.1129217"><ele>133.83333333333331</ele><time>2026-04-04T12:12:12.99Z</time></trkpt><trkpt lat="44.725345" lon="10.1128283"><ele>134.0</ele><time>2026-04-04T12:12:13.991Z</time></trkpt><trkpt lat="44.725295" lon="10.1127483"><ele>134.0</ele><time>2026-04-04T12:12:14.99Z</time></trkpt><trkpt lat="44.7252483" lon="10.1126717"><ele>134.0</ele><time>2026-04-04T12:12:15.99Z</time></trkpt><trkpt lat="44.72521" lon="10.1126"><ele>134.0</ele><time>2026-04-04T12:12:16.99Z</time></trkpt><trkpt lat="44.72519" lon="10.1125133"><ele>134.0</ele><time>2026-04-04T12:12:17.99Z</time></trkpt><trkpt lat="44.7251967" lon="10.1124067"><ele>134.0</ele><time>2026-04-04T12:12:18.99Z</time></trkpt><trkpt lat="44.72523" lon="10.1122933"><ele>134.0</ele><time>2026-04-04T12:12:19.99Z</time></trkpt><trkpt lat="44.725285" lon="10.1121667"><ele>134.75</ele><time>2026-04-04T12:12:20.99Z</time></trkpt><trkpt lat="44.7253717" lon="10.1120367"><ele>135.5</ele><time>2026-04-04T12:12:21.99Z</time></trkpt><trkpt lat="44.72547" lon="10.1119133"><ele>136.25</ele><time>2026-04-04T12:12:22.99Z</time></trkpt><trkpt lat="44.725575" lon="10.1117883"><ele>137.0</ele><time>2026-04-04T12:12:23.991Z</time></trkpt><trkpt lat="44.725675" lon="10.1116633"><ele>137.5</ele><time>2026-04-04T12:12:24.991Z</time></trkpt><trkpt lat="44.7257583" lon="10.1115433"><ele>138.0</ele><time>2026-04-04T12:12:25.991Z</time></trkpt><trkpt lat="44.725825" lon="10.1113967"><ele>138.5</ele><time>2026-04-04T12:12:26.99Z</time></trkpt><trkpt lat="44.7258583" lon="10.111225"><ele>139.0</ele><time>2026-04-04T12:12:27.99Z</time></trkpt><trkpt lat="44.7258533" lon="10.1110367"><ele>139.0</ele><time>2026-04-04T12:12:28.99Z</time></trkpt><trkpt lat="44.7258083" lon="10.110835"><ele>139.0</ele><time>2026-04-04T12:12:29.99Z</time></trkpt><trkpt lat="44.7257483" lon="10.11063"><ele>139.0</ele><time>2026-04-04T12:12:30.99Z</time></trkpt><trkpt lat="44.725685" lon="10.1104333"><ele>141.66666666666669</ele><time>2026-04-04T12:12:31.991Z</time></trkpt><trkpt lat="44.7256217" lon="10.1102283"><ele>144.33333333333334</ele><time>2026-04-04T12:12:32.991Z</time></trkpt><trkpt lat="44.725555" lon="10.1100167"><ele>147.0</ele><time>2026-04-04T12:12:33.99Z</time></trkpt><trkpt lat="44.725485" lon="10.1098033"><ele>149.66666666666666</ele><time>2026-04-04T12:12:34.99Z</time></trkpt><trkpt lat="44.725415" lon="10.1095817"><ele>152.33333333333331</ele><time>2026-04-04T12:12:35.991Z</time></trkpt><trkpt lat="44.72535" lon="10.1093567"><ele>155.0</ele><time>2026-04-04T12:12:36.99Z</time></trkpt><trkpt lat="44.7252733" lon="10.1091267"><ele>151.33333333333331</ele><time>2026-04-04T12:12:37.99Z</time></trkpt><trkpt lat="44.7252067" lon="10.1088967"><ele>147.66666666666666</ele><time>2026-04-04T12:12:38.99Z</time></trkpt><trkpt lat="44.725135" lon="10.1086667"><ele>144.0</ele><time>2026-04-04T12:12:39.99Z</time></trkpt><trkpt lat="44.7250583" lon="10.108445"><ele>144.66666666666666</ele><time>2026-04-04T12:12:40.99Z</time></trkpt><trkpt lat="44.7249933" lon="10.1082217"><ele>145.33333333333331</ele><time>2026-04-04T12:12:41.99Z</time></trkpt><trkpt lat="44.7249517" lon="10.1079833"><ele>146.0</ele><time>2026-04-04T12:12:42.99Z</time></trkpt><trkpt lat="44.72493" lon="10.1077283"><ele>146.0</ele><time>2026-04-04T12:12:43.99Z</time></trkpt><trkpt lat="44.72495" lon="10.1074567"><ele>146.0</ele><time>2026-04-04T12:12:44.991Z</time></trkpt><trkpt lat="44.7250017" lon="10.10718"><ele>146.0</ele><time>2026-04-04T12:12:45.991Z</time></trkpt><trkpt lat="44.7250667" lon="10.106905"><ele>145.0</ele><time>2026-04-04T12:12:46.99Z</time></trkpt><trkpt lat="44.7251333" lon="10.1066317"><ele>144.0</ele><time>2026-04-04T12:12:47.99Z</time></trkpt><trkpt lat="44.7252133" lon="10.1063567"><ele>143.0</ele><time>2026-04-04T12:12:48.99Z</time></trkpt><trkpt lat="44.7252983" lon="10.1060933"><ele>147.66666666666666</ele><time>2026-04-04T12:12:49.991Z</time></trkpt><trkpt lat="44.7253883" lon="10.10583"><ele>152.33333333333334</ele><time>2026-04-04T12:12:50.99Z</time></trkpt><trkpt lat="44.725475" lon="10.1055683"><ele>157.0</ele><time>2026-04-04T12:12:51.991Z</time></trkpt><trkpt lat="44.725545" lon="10.1053017"><ele>157.0</ele><time>2026-04-04T12:12:52.991Z</time></trkpt><trkpt lat="44.7255917" lon="10.105015"><ele>157.0</ele><time>2026-04-04T12:12:53.99Z</time></trkpt><trkpt lat="44.725605" lon="10.1047217"><ele>157.0</ele><time>2026-04-04T12:12:54.99Z</time></trkpt><trkpt lat="44.7256183" lon="10.1044317"><ele>156.0</ele><time>2026-04-04T12:12:55.991Z</time></trkpt><trkpt lat="44.7256367" lon="10.1041383"><ele>155.0</ele><time>2026-04-04T12:12:56.99Z</time></trkpt><trkpt lat="44.7256533" lon="10.10384"><ele>154.0</ele><time>2026-04-04T12:12:57.991Z</time></trkpt><trkpt lat="44.7256667" lon="10.1035567"><ele>153.0</ele><time>2026-04-04T12:12:58.99Z</time></trkpt><trkpt lat="44.7256783" lon="10.10327"><ele>152.0</ele><time>2026-04-04T12:12:59.99Z</time></trkpt><trkpt lat="44.7256933" lon="10.10298"><ele>151.0</ele><time>2026-04-04T12:13:00.99Z</time></trkpt><trkpt lat="44.7257083" lon="10.1026883"><ele>150.33333333333334</ele><time>2026-04-04T12:13:01.991Z</time></trkpt><trkpt lat="44.7257133" lon="10.1023967"><ele>149.66666666666666</ele><time>2026-04-04T12:13:02.991Z</time></trkpt><trkpt lat="44.7257267" lon="10.10211"><ele>149.0</ele><time>2026-04-04T12:13:03.991Z</time></trkpt><trkpt lat="44.72575" lon="10.10183"><ele>150.33333333333331</ele><time>2026-04-04T12:13:04.99Z</time></trkpt><trkpt lat="44.72576" lon="10.10155"><ele>151.66666666666666</ele><time>2026-04-04T12:13:05.99Z</time></trkpt><trkpt lat="44.7257567" lon="10.1012683"><ele>153.0</ele><time>2026-04-04T12:13:06.99Z</time></trkpt><trkpt lat="44.7257267" lon="10.1009867"><ele>155.33333333333334</ele><time>2026-04-04T12:13:07.99Z</time></trkpt><trkpt lat="44.7256633" lon="10.100695"><ele>157.66666666666669</ele><time>2026-04-04T12:13:08.99Z</time></trkpt><trkpt lat="44.7255783" lon="10.10042"><ele>160.0</ele><time>2026-04-04T12:13:09.99Z</time></trkpt><trkpt lat="44.7254933" lon="10.1001367"><ele>162.33333333333334</ele><time>2026-04-04T12:13:10.991Z</time></trkpt><trkpt lat="44.725405" lon="10.0998567"><ele>164.66666666666666</ele><time>2026-04-04T12:13:11.99Z</time></trkpt><trkpt lat="44.7253167" lon="10.0995833"><ele>167.0</ele><time>2026-04-04T12:13:12.99Z</time></trkpt><trkpt lat="44.7252283" lon="10.0993117"><ele>161.0</ele><time>2026-04-04T12:13:13.991Z</time></trkpt><trkpt lat="44.7251433" lon="10.0990367"><ele>155.0</ele><time>2026-04-04T12:13:14.99Z</time></trkpt><trkpt lat="44.7250617" lon="10.09876"><ele>149.0</ele><time>2026-04-04T12:13:15.991Z</time></trkpt><trkpt lat="44.72498" lon="10.098485"><ele>149.66666666666666</ele><time>2026-04-04T12:13:16.991Z</time></trkpt><trkpt lat="44.7249" lon="10.098215"><ele>150.33333333333334</ele><time>2026-04-04T12:13:17.99Z</time></trkpt><trkpt lat="44.7248167" lon="10.0979483"><ele>151.0</ele><time>2026-04-04T12:13:18.99Z</time></trkpt><trkpt lat="44.7247333" lon="10.09768"><ele>151.0</ele><time>2026-04-04T12:13:19.99Z</time></trkpt><trkpt lat="44.72465" lon="10.097425"><ele>151.0</ele><time>2026-04-04T12:13:20.99Z</time></trkpt><trkpt lat="44.7245667" lon="10.0971817"><ele>151.0</ele><time>2026-04-04T12:13:21.99Z</time></trkpt><trkpt lat="44.724475" lon="10.0969633"><ele>151.0</ele><time>2026-04-04T12:13:22.99Z</time></trkpt><trkpt lat="44.72437" lon="10.0967733"><ele>151.0</ele><time>2026-04-04T12:13:23.991Z</time></trkpt><trkpt lat="44.7242417" lon="10.0966167"><ele>151.0</ele><time>2026-04-04T12:13:24.991Z</time></trkpt><trkpt lat="44.7241017" lon="10.0964817"><ele>156.33333333333334</ele><time>2026-04-04T12:13:25.99Z</time></trkpt><trkpt lat="44.72397" lon="10.09635"><ele>161.66666666666666</ele><time>2026-04-04T12:13:26.991Z</time></trkpt><trkpt lat="44.7238567" lon="10.0961883"><ele>167.0</ele><time>2026-04-04T12:13:27.99Z</time></trkpt><trkpt lat="44.723755" lon="10.09602"><ele>167.0</ele><time>2026-04-04T12:13:28.991Z</time></trkpt><trkpt lat="44.7236783" lon="10.0958167"><ele>167.0</ele><time>2026-04-04T12:13:29.99Z</time></trkpt><trkpt lat="44.7236233" lon="10.0956083"><ele>167.0</ele><time>2026-04-04T12:13:30.99Z</time></trkpt><trkpt lat="44.723605" lon="10.0953867"><ele>168.0</ele><time>2026-04-04T12:13:31.99Z</time></trkpt><trkpt lat="44.7236017" lon="10.095155"><ele>169.0</ele><time>2026-04-04T12:13:32.991Z</time></trkpt><trkpt lat="44.7235933" lon="10.09495"><ele>170.0</ele><time>2026-04-04T12:13:33.99Z</time></trkpt><trkpt lat="44.72357" lon="10.0947567"><ele>165.5</ele><time>2026-04-04T12:13:34.991Z</time></trkpt><trkpt lat="44.7235333" lon="10.09457"><ele>161.0</ele><time>2026-04-04T12:13:35.99Z</time></trkpt><trkpt lat="44.7234783" lon="10.09441"><ele>156.5</ele><time>2026-04-04T12:13:36.991Z</time></trkpt><trkpt lat="44.7234267" lon="10.0942683"><ele>152.0</ele><time>2026-04-04T12:13:37.991Z</time></trkpt><trkpt lat="44.72338" lon="10.0941317"><ele>152.2</ele><time>2026-04-04T12:13:38.991Z</time></trkpt><trkpt lat="44.7233417" lon="10.0940067"><ele>152.39999999999998</ele><time>2026-04-04T12:13:39.99Z</time></trkpt><trkpt lat="44.7233217" lon="10.0938833"><ele>152.60000000000002</ele><time>2026-04-04T12:13:40.991Z</time></trkpt><trkpt lat="44.723325" lon="10.0937383"><ele>152.8</ele><time>2026-04-04T12:13:41.99Z</time></trkpt><trkpt lat="44.7233317" lon="10.0935767"><ele>153.0</ele><time>2026-04-04T12:13:42.99Z</time></trkpt><trkpt lat="44.7233367" lon="10.0934067"><ele>153.8</ele><time>2026-04-04T12:13:43.99Z</time></trkpt><trkpt lat="44.7233383" lon="10.0932417"><ele>154.60000000000002</ele><time>2026-04-04T12:13:44.991Z</time></trkpt><trkpt lat="44.7233367" lon="10.0930883"><ele>155.39999999999998</ele><time>2026-04-04T12:13:45.99Z</time></trkpt><trkpt lat="44.723335" lon="10.09294"><ele>156.2</ele><time>2026-04-04T12:13:46.99Z</time></trkpt><trkpt lat="44.72334" lon="10.092805"><ele>157.0</ele><time>2026-04-04T12:13:47.991Z</time></trkpt><trkpt lat="44.72336" lon="10.092675"><ele>157.0</ele><time>2026-04-04T12:13:48.99Z</time></trkpt><trkpt lat="44.723395" lon="10.0925433"><ele>157.0</ele><time>2026-04-04T12:13:49.99Z</time></trkpt><trkpt lat="44.723445" lon="10.09242"><ele>157.0</ele><time>2026-04-04T12:13:50.991Z</time></trkpt><trkpt lat="44.72351" lon="10.0922983"><ele>157.0</ele><time>2026-04-04T12:13:51.991Z</time></trkpt><trkpt lat="44.7235867" lon="10.0921783"><ele>157.0</ele><time>2026-04-04T12:13:52.99Z</time></trkpt><trkpt lat="44.7236617" lon="10.09206"><ele>159.6</ele><time>2026-04-04T12:13:53.99Z</time></trkpt><trkpt lat="44.723725" lon="10.091945"><ele>162.2</ele><time>2026-04-04T12:13:54.991Z</time></trkpt><trkpt lat="44.7237817" lon="10.0918433"><ele>164.8</ele><time>2026-04-04T12:13:55.99Z</time></trkpt><trkpt lat="44.72385" lon="10.0917617"><ele>167.4</ele><time>2026-04-04T12:13:56.99Z</time></trkpt><trkpt lat="44.7239183" lon="10.0916883"><ele>170.0</ele><time>2026-04-04T12:13:57.99Z</time></trkpt><trkpt lat="44.7239883" lon="10.0916233"><ele>169.66666666666666</ele><time>2026-04-04T12:13:58.99Z</time></trkpt><trkpt lat="44.7240467" lon="10.0915733"><ele>169.33333333333331</ele><time>2026-04-04T12:13:59.991Z</time></trkpt><trkpt lat="44.7241083" lon="10.0914817"><ele>169.0</ele><time>2026-04-04T12:14:01.99Z</time></trkpt><trkpt lat="44.7241717" lon="10.0914917"><ele>168.66666666666666</ele><time>2026-04-04T12:17:39.989Z</time></trkpt><trkpt lat="44.7241167" lon="10.0915717"><ele>168.33333333333334</ele><time>2026-04-04T12:17:41.989Z</time></trkpt><trkpt lat="44.7240317" lon="10.0915833"><ele>168.0</ele><time>2026-04-04T12:17:43.99Z</time></trkpt><trkpt lat="44.72402" lon="10.09147"><ele>168.0</ele><time>2026-04-04T12:17:46.99Z</time></trkpt><trkpt lat="44.7241067" lon="10.0913617"><ele>168.0</ele><time>2026-04-04T12:17:48.989Z</time></trkpt><trkpt lat="44.7241517" lon="10.0912983"><ele>168.0</ele><time>2026-04-04T12:17:49.989Z</time></trkpt><trkpt lat="44.7241983" lon="10.091225"><ele>168.0</ele><time>2026-04-04T12:17:50.989Z</time></trkpt><trkpt lat="44.72424" lon="10.0911367"><ele>168.0</ele><time>2026-04-04T12:17:51.99Z</time></trkpt><trkpt lat="44.7242783" lon="10.0910517"><ele>168.0</ele><time>2026-04-04T12:17:52.99Z</time></trkpt><trkpt lat="44.7243283" lon="10.0909633"><ele>168.0</ele><time>2026-04-04T12:17:53.989Z</time></trkpt><trkpt lat="44.724385" lon="10.090875"><ele>168.0</ele><time>2026-04-04T12:17:54.989Z</time></trkpt><trkpt lat="44.7244317" lon="10.0907817"><ele>168.0</ele><time>2026-04-04T12:17:55.989Z</time></trkpt><trkpt lat="44.7244867" lon="10.0906867"><ele>168.0</ele><time>2026-04-04T12:17:56.989Z</time></trkpt><trkpt lat="44.7245383" lon="10.0905917"><ele>168.0</ele><time>2026-04-04T12:17:57.989Z</time></trkpt><trkpt lat="44.7245983" lon="10.09051"><ele>168.0</ele><time>2026-04-04T12:17:58.989Z</time></trkpt><trkpt lat="44.7246433" lon="10.0904233"><ele>168.0</ele><time>2026-04-04T12:17:59.989Z</time></trkpt><trkpt lat="44.72469" lon="10.0903483"><ele>168.0</ele><time>2026-04-04T12:18:00.989Z</time></trkpt><trkpt lat="44.7247617" lon="10.0902217"><ele>168.0</ele><time>2026-04-04T12:18:02.989Z</time></trkpt><trkpt lat="44.7248017" lon="10.090075"><ele>168.0</ele><time>2026-04-04T12:18:04.989Z</time></trkpt><trkpt lat="44.7248067" lon="10.0898983"><ele>168.0</ele><time>2026-04-04T12:18:06.989Z</time></trkpt><trkpt lat="44.7247933" lon="10.0897333"><ele>168.0</ele><time>2026-04-04T12:18:08.989Z</time></trkpt><trkpt lat="44.72478" lon="10.0896367"><ele>168.0</ele><time>2026-04-04T12:18:09.989Z</time></trkpt><trkpt lat="44.7247717" lon="10.089545"><ele>168.0</ele><time>2026-04-04T12:18:10.99Z</time></trkpt><trkpt lat="44.7247633" lon="10.0894567"><ele>168.0</ele><time>2026-04-04T12:18:11.99Z</time></trkpt><trkpt lat="44.724755" lon="10.0893633"><ele>168.0</ele><time>2026-04-04T12:18:12.989Z</time></trkpt><trkpt lat="44.7247533" lon="10.089265"><ele>168.0</ele><time>2026-04-04T12:18:13.989Z</time></trkpt><trkpt lat="44.72475" lon="10.0890883"><ele>168.8</ele><time>2026-04-04T12:18:15.989Z</time></trkpt><trkpt lat="44.724755" lon="10.0889667"><ele>169.60000000000002</ele><time>2026-04-04T12:18:17.99Z</time></trkpt><trkpt lat="44.7247067" lon="10.0888717"><ele>170.39999999999998</ele><time>2026-04-04T12:18:21.989Z</time></trkpt><trkpt lat="44.72459" lon="10.08884"><ele>171.2</ele><time>2026-04-04T12:18:23.989Z</time></trkpt><trkpt lat="44.7245" lon="10.08883"><ele>172.0</ele><time>2026-04-04T12:18:24.989Z</time></trkpt><trkpt lat="44.7243917" lon="10.0888267"><ele>172.0</ele><time>2026-04-04T12:18:25.989Z</time></trkpt><trkpt lat="44.72428" lon="10.088815"><ele>172.0</ele><time>2026-04-04T12:18:26.989Z</time></trkpt><trkpt lat="44.72417" lon="10.08881"><ele>172.0</ele><time>2026-04-04T12:18:27.989Z</time></trkpt><trkpt lat="44.7240533" lon="10.0888233"><ele>172.0</ele><time>2026-04-04T12:18:28.99Z</time></trkpt><trkpt lat="44.72394" lon="10.0888283"><ele>172.0</ele><time>2026-04-04T12:18:29.989Z</time></trkpt><trkpt lat="44.7238383" lon="10.0888333"><ele>172.0</ele><time>2026-04-04T12:18:30.99Z</time></trkpt><trkpt lat="44.7237367" lon="10.0888367"><ele>172.0</ele><time>2026-04-04T12:18:31.989Z</time></trkpt><trkpt lat="44.7236467" lon="10.0888383"><ele>172.0</ele><time>2026-04-04T12:18:32.99Z</time></trkpt><trkpt lat="44.7235517" lon="10.0888417"><ele>172.0</ele><time>2026-04-04T12:18:33.989Z</time></trkpt><trkpt lat="44.72346" lon="10.0888517"><ele>171.14285714285717</ele><time>2026-04-04T12:18:34.99Z</time></trkpt><trkpt lat="44.72338" lon="10.0888617"><ele>170.28571428571428</ele><time>2026-04-04T12:18:35.989Z</time></trkpt><trkpt lat="44.7233033" lon="10.088865"><ele>169.42857142857144</ele><time>2026-04-04T12:18:36.989Z</time></trkpt><trkpt lat="44.7232233" lon="10.0888733"><ele>168.57142857142858</ele><time>2026-04-04T12:18:37.989Z</time></trkpt><trkpt lat="44.7231483" lon="10.0888883"><ele>167.71428571428572</ele><time>2026-04-04T12:18:38.989Z</time></trkpt><trkpt lat="44.7230817" lon="10.0889"><ele>166.85714285714286</ele><time>2026-04-04T12:18:39.989Z</time></trkpt><trkpt lat="44.7230183" lon="10.088905"><ele>166.0</ele><time>2026-04-04T12:18:40.99Z</time></trkpt><trkpt lat="44.7229333" lon="10.0888817"><ele>166.0</ele><time>2026-04-04T12:18:42.99Z</time></trkpt><trkpt lat="44.722975" lon="10.0887817"><ele>166.0</ele><time>2026-04-04T12:18:46.99Z</time></trkpt><trkpt lat="44.72307" lon="10.0887567"><ele>166.0</ele><time>2026-04-04T12:18:47.989Z</time></trkpt><trkpt lat="44.7231783" lon="10.0887167"><ele>166.0</ele><time>2026-04-04T12:18:48.989Z</time></trkpt><trkpt lat="44.7232917" lon="10.088685"><ele>166.0</ele><time>2026-04-04T12:18:49.989Z</time></trkpt><trkpt lat="44.723405" lon="10.0886617"><ele>166.0</ele><time>2026-04-04T12:18:50.99Z</time></trkpt><trkpt lat="44.7235117" lon="10.0886233"><ele>166.0</ele><time>2026-04-04T12:18:51.989Z</time></trkpt><trkpt lat="44.7236183" lon="10.0885817"><ele>166.0</ele><time>2026-04-04T12:18:52.99Z</time></trkpt><trkpt lat="44.7237267" lon="10.088545"><ele>166.0</ele><time>2026-04-04T12:18:53.99Z</time></trkpt><trkpt lat="44.723835" lon="10.0885067"><ele>166.0</ele><time>2026-04-04T12:18:54.989Z</time></trkpt><trkpt lat="44.7239467" lon="10.088445"><ele>167.5</ele><time>2026-04-04T12:18:55.99Z</time></trkpt><trkpt lat="44.7240667" lon="10.088395"><ele>169.0</ele><time>2026-04-04T12:18:56.99Z</time></trkpt><trkpt lat="44.72419" lon="10.0883433"><ele>170.5</ele><time>2026-04-04T12:18:57.99Z</time></trkpt><trkpt lat="44.7243067" lon="10.0883133"><ele>172.0</ele><time>2026-04-04T12:18:58.989Z</time></trkpt><trkpt lat="44.7244317" lon="10.088275"><ele>178.25</ele><time>2026-04-04T12:18:59.989Z</time></trkpt><trkpt lat="44.7245633" lon="10.0882417"><ele>184.5</ele><time>2026-04-04T12:19:00.99Z</time></trkpt><trkpt lat="44.724695" lon="10.08821"><ele>190.75</ele><time>2026-04-04T12:19:01.989Z</time></trkpt><trkpt lat="44.7248133" lon="10.088185"><ele>197.0</ele><time>2026-04-04T12:19:02.989Z</time></trkpt><trkpt lat="44.7249267" lon="10.0881633"><ele>197.00000000000003</ele><time>2026-04-04T12:19:03.989Z</time></trkpt><trkpt lat="44.7250217" lon="10.0881483"><ele>197.0</ele><time>2026-04-04T12:19:04.989Z</time></trkpt><trkpt lat="44.7250933" lon="10.0881383"><ele>197.0</ele><time>2026-04-04T12:19:05.99Z</time></trkpt><trkpt lat="44.7251883" lon="10.0880617"><ele>197.0</ele><time>2026-04-04T12:19:07.99Z</time></trkpt><trkpt lat="44.7251683" lon="10.08793"><ele>197.00000000000003</ele><time>2026-04-04T12:19:09.989Z</time></trkpt><trkpt lat="44.7251133" lon="10.087875"><ele>197.0</ele><time>2026-04-04T12:19:10.989Z</time></trkpt><trkpt lat="44.7250183" lon="10.087825"><ele>197.0</ele><time>2026-04-04T12:19:11.989Z</time></trkpt><trkpt lat="44.72491" lon="10.087765"><ele>197.0</ele><time>2026-04-04T12:19:12.99Z</time></trkpt><trkpt lat="44.7248167" lon="10.0876867"><ele>197.0</ele><time>2026-04-04T12:19:13.99Z</time></trkpt><trkpt lat="44.7247417" lon="10.0875867"><ele>197.0</ele><time>2026-04-04T12:19:14.99Z</time></trkpt><trkpt lat="44.7246833" lon="10.087475"><ele>197.0</ele><time>2026-04-04T12:19:15.989Z</time></trkpt><trkpt lat="44.7246383" lon="10.087325"><ele>198.6</ele><time>2026-04-04T12:19:16.99Z</time></trkpt><trkpt lat="44.7246017" lon="10.0871767"><ele>200.2</ele><time>2026-04-04T12:19:17.989Z</time></trkpt><trkpt lat="44.72456" lon="10.0870383"><ele>201.8</ele><time>2026-04-04T12:19:18.99Z</time></trkpt><trkpt lat="44.7245233" lon="10.086895"><ele>203.4</ele><time>2026-04-04T12:19:19.989Z</time></trkpt><trkpt lat="44.7244817" lon="10.0867533"><ele>205.0</ele><time>2026-04-04T12:19:20.99Z</time></trkpt><trkpt lat="44.7244533" lon="10.0866067"><ele>205.6</ele><time>2026-04-04T12:19:21.989Z</time></trkpt><trkpt lat="44.724435" lon="10.0864467"><ele>206.2</ele><time>2026-04-04T12:19:22.989Z</time></trkpt><trkpt lat="44.7244167" lon="10.0862833"><ele>206.8</ele><time>2026-04-04T12:19:23.99Z</time></trkpt><trkpt lat="44.7244067" lon="10.0861317"><ele>207.4</ele><time>2026-04-04T12:19:24.989Z</time></trkpt><trkpt lat="44.7243933" lon="10.086"><ele>208.0</ele><time>2026-04-04T12:19:25.99Z</time></trkpt><trkpt lat="44.7243733" lon="10.085865"><ele>207.0</ele><time>2026-04-04T12:19:26.99Z</time></trkpt><trkpt lat="44.7243383" lon="10.0857217"><ele>206.0</ele><time>2026-04-04T12:19:27.99Z</time></trkpt><trkpt lat="44.7242817" lon="10.0855783"><ele>205.0</ele><time>2026-04-04T12:19:28.989Z</time></trkpt><trkpt lat="44.7242083" lon="10.0854483"><ele>204.0</ele><time>2026-04-04T12:19:29.989Z</time></trkpt><trkpt lat="44.7241283" lon="10.0853267"><ele>204.0</ele><time>2026-04-04T12:19:30.99Z</time></trkpt><trkpt lat="44.7240583" lon="10.0851983"><ele>204.0</ele><time>2026-04-04T12:19:31.99Z</time></trkpt><trkpt lat="44.7240067" lon="10.0850617"><ele>204.0</ele><time>2026-04-04T12:19:32.989Z</time></trkpt><trkpt lat="44.7239817" lon="10.0849"><ele>204.0</ele><time>2026-04-04T12:19:33.989Z</time></trkpt><trkpt lat="44.7239867" lon="10.0847333"><ele>206.0</ele><time>2026-04-04T12:19:34.989Z</time></trkpt><trkpt lat="44.724005" lon="10.0845717"><ele>208.0</ele><time>2026-04-04T12:19:35.989Z</time></trkpt><trkpt lat="44.7240367" lon="10.0844083"><ele>209.99999999999997</ele><time>2026-04-04T12:19:36.99Z</time></trkpt><trkpt lat="44.72406" lon="10.0842517"><ele>212.0</ele><time>2026-04-04T12:19:37.989Z</time></trkpt><trkpt lat="44.72408" lon="10.084125"><ele>214.0</ele><time>2026-04-04T12:19:38.989Z</time></trkpt><trkpt lat="44.724095" lon="10.0840167"><ele>214.6</ele><time>2026-04-04T12:19:39.989Z</time></trkpt><trkpt lat="44.724105" lon="10.0839217"><ele>215.2</ele><time>2026-04-04T12:19:40.989Z</time></trkpt><trkpt lat="44.7241217" lon="10.08375"><ele>215.79999999999998</ele><time>2026-04-04T12:19:42.989Z</time></trkpt><trkpt lat="44.7241533" lon="10.0836067"><ele>216.39999999999998</ele><time>2026-04-04T12:19:44.989Z</time></trkpt><trkpt lat="44.72423" lon="10.0835017"><ele>217.0</ele><time>2026-04-04T12:19:46.989Z</time></trkpt><trkpt lat="44.724305" lon="10.0834783"><ele>216.99999999999997</ele><time>2026-04-04T12:19:47.99Z</time></trkpt><trkpt lat="44.7243883" lon="10.0834667"><ele>217.0</ele><time>2026-04-04T12:19:48.989Z</time></trkpt><trkpt lat="44.7244717" lon="10.083465"><ele>217.0</ele><time>2026-04-04T12:19:49.989Z</time></trkpt><trkpt lat="44.724565" lon="10.0834633"><ele>217.0</ele><time>2026-04-04T12:19:50.989Z</time></trkpt><trkpt lat="44.7246583" lon="10.0834467"><ele>216.99999999999997</ele><time>2026-04-04T12:19:51.99Z</time></trkpt><trkpt lat="44.7247467" lon="10.08343"><ele>217.0</ele><time>2026-04-04T12:19:52.989Z</time></trkpt><trkpt lat="44.7248283" lon="10.08341"><ele>219.33333333333331</ele><time>2026-04-04T12:19:53.99Z</time></trkpt><trkpt lat="44.724915" lon="10.0833933"><ele>221.66666666666666</ele><time>2026-04-04T12:19:54.99Z</time></trkpt><trkpt lat="44.7249967" lon="10.083375"><ele>224.0</ele><time>2026-04-04T12:19:55.989Z</time></trkpt><trkpt lat="44.725075" lon="10.083355"><ele>226.33333333333331</ele><time>2026-04-04T12:19:56.989Z</time></trkpt><trkpt lat="44.72516" lon="10.083345"><ele>228.66666666666666</ele><time>2026-04-04T12:19:57.989Z</time></trkpt><trkpt lat="44.7252417" lon="10.0833333"><ele>231.0</ele><time>2026-04-04T12:19:58.99Z</time></trkpt><trkpt lat="44.7253317" lon="10.0833267"><ele>233.5</ele><time>2026-04-04T12:19:59.989Z</time></trkpt><trkpt lat="44.7254133" lon="10.0833167"><ele>236.0</ele><time>2026-04-04T12:20:00.989Z</time></trkpt><trkpt lat="44.7254933" lon="10.08331"><ele>238.5</ele><time>2026-04-04T12:20:01.989Z</time></trkpt><trkpt lat="44.7255683" lon="10.0833033"><ele>241.0</ele><time>2026-04-04T12:20:02.989Z</time></trkpt><trkpt lat="44.7256417" lon="10.0832933"><ele>243.5</ele><time>2026-04-04T12:20:03.99Z</time></trkpt><trkpt lat="44.725715" lon="10.0832933"><ele>246.0</ele><time>2026-04-04T12:20:04.99Z</time></trkpt><trkpt lat="44.7257833" lon="10.0832833"><ele>246.0</ele><time>2026-04-04T12:20:05.989Z</time></trkpt><trkpt lat="44.7258467" lon="10.0832667"><ele>246.0</ele><time>2026-04-04T12:20:06.99Z</time></trkpt><trkpt lat="44.725945" lon="10.0831767"><ele>246.0</ele><time>2026-04-04T12:20:08.99Z</time></trkpt><trkpt lat="44.725985" lon="10.0831"><ele>246.0</ele><time>2026-04-04T12:20:09.99Z</time></trkpt><trkpt lat="44.7260167" lon="10.08301"><ele>246.0</ele><time>2026-04-04T12:20:10.99Z</time></trkpt><trkpt lat="44.7260467" lon="10.082905"><ele>246.0</ele><time>2026-04-04T12:20:11.989Z</time></trkpt><trkpt lat="44.726065" lon="10.08279"><ele>246.14285714285717</ele><time>2026-04-04T12:20:12.989Z</time></trkpt><trkpt lat="44.7260867" lon="10.082675"><ele>246.28571428571428</ele><time>2026-04-04T12:20:13.989Z</time></trkpt><trkpt lat="44.7261033" lon="10.0825733"><ele>246.42857142857144</ele><time>2026-04-04T12:20:14.989Z</time></trkpt><trkpt lat="44.7261" lon="10.0824817"><ele>246.57142857142858</ele><time>2026-04-04T12:20:15.989Z</time></trkpt><trkpt lat="44.72609" lon="10.0823933"><ele>246.71428571428572</ele><time>2026-04-04T12:20:16.99Z</time></trkpt><trkpt lat="44.7260817" lon="10.0823033"><ele>246.85714285714286</ele><time>2026-04-04T12:20:17.989Z</time></trkpt><trkpt lat="44.726095" lon="10.0822133"><ele>247.0</ele><time>2026-04-04T12:20:18.989Z</time></trkpt><trkpt lat="44.726115" lon="10.0821167"><ele>246.99999999999997</ele><time>2026-04-04T12:20:19.989Z</time></trkpt><trkpt lat="44.7261333" lon="10.0820217"><ele>247.0</ele><time>2026-04-04T12:20:20.989Z</time></trkpt><trkpt lat="44.7261433" lon="10.0819267"><ele>247.0</ele><time>2026-04-04T12:20:21.989Z</time></trkpt><trkpt lat="44.72614" lon="10.0817783"><ele>247.0</ele><time>2026-04-04T12:20:23.989Z</time></trkpt><trkpt lat="44.7261567" lon="10.081635"><ele>246.99999999999997</ele><time>2026-04-04T12:20:33.989Z</time></trkpt><trkpt lat="44.7262133" lon="10.0815167"><ele>247.0</ele><time>2026-04-04T12:20:35.989Z</time></trkpt><trkpt lat="44.72626" lon="10.0814417"><ele>248.99999999999997</ele><time>2026-04-04T12:20:36.989Z</time></trkpt><trkpt lat="44.7263067" lon="10.0813617"><ele>251.0</ele><time>2026-04-04T12:20:37.989Z</time></trkpt><trkpt lat="44.7263533" lon="10.0812883"><ele>253.0</ele><time>2026-04-04T12:20:38.989Z</time></trkpt><trkpt lat="44.72641" lon="10.0811367"><ele>255.0</ele><time>2026-04-04T12:20:40.989Z</time></trkpt><trkpt lat="44.7264233" lon="10.0810417"><ele>257.0</ele><time>2026-04-04T12:20:41.99Z</time></trkpt><trkpt lat="44.7264217" lon="10.0809417"><ele>259.0</ele><time>2026-04-04T12:20:42.989Z</time></trkpt><trkpt lat="44.72641" lon="10.0808517"><ele>261.0</ele><time>2026-04-04T12:20:43.989Z</time></trkpt><trkpt lat="44.72639" lon="10.080675"><ele>263.0</ele><time>2026-04-04T12:20:45.989Z</time></trkpt><trkpt lat="44.7264067" lon="10.0805683"><ele>265.0</ele><time>2026-04-04T12:20:46.989Z</time></trkpt><trkpt lat="44.72643" lon="10.0804567"><ele>267.0</ele><time>2026-04-04T12:20:47.989Z</time></trkpt><trkpt lat="44.7264667" lon="10.0803483"><ele>269.0</ele><time>2026-04-04T12:20:48.99Z</time></trkpt><trkpt lat="44.726505" lon="10.0802483"><ele>269.0</ele><time>2026-04-04T12:20:49.989Z</time></trkpt><trkpt lat="44.7265417" lon="10.08014"><ele>269.0</ele><time>2026-04-04T12:20:50.989Z</time></trkpt><trkpt lat="44.7265817" lon="10.08003"><ele>269.0</ele><time>2026-04-04T12:20:51.989Z</time></trkpt><trkpt lat="44.7266133" lon="10.079925"><ele>269.0</ele><time>2026-04-04T12:20:52.989Z</time></trkpt><trkpt lat="44.7266367" lon="10.0798167"><ele>269.0</ele><time>2026-04-04T12:20:53.989Z</time></trkpt><trkpt lat="44.72666" lon="10.0797017"><ele>269.0</ele><time>2026-04-04T12:20:54.99Z</time></trkpt><trkpt lat="44.726695" lon="10.079585"><ele>269.33333333333337</ele><time>2026-04-04T12:20:55.989Z</time></trkpt><trkpt lat="44.726725" lon="10.079475"><ele>269.6666666666667</ele><time>2026-04-04T12:20:56.99Z</time></trkpt><trkpt lat="44.7267517" lon="10.079365"><ele>270.0</ele><time>2026-04-04T12:20:57.989Z</time></trkpt><trkpt lat="44.7267917" lon="10.0792617"><ele>270.3333333333333</ele><time>2026-04-04T12:20:58.989Z</time></trkpt><trkpt lat="44.7268417" lon="10.0791467"><ele>270.66666666666663</ele><time>2026-04-04T12:20:59.989Z</time></trkpt><trkpt lat="44.7268817" lon="10.07902"><ele>271.0</ele><time>2026-04-04T12:21:00.989Z</time></trkpt><trkpt lat="44.726915" lon="10.0788833"><ele>271.0</ele><time>2026-04-04T12:21:01.989Z</time></trkpt><trkpt lat="44.7269333" lon="10.0787433"><ele>271.0</ele><time>2026-04-04T12:21:02.989Z</time></trkpt><trkpt lat="44.726955" lon="10.0786133"><ele>271.0</ele><time>2026-04-04T12:21:03.99Z</time></trkpt><trkpt lat="44.726975" lon="10.0784817"><ele>271.0</ele><time>2026-04-04T12:21:04.989Z</time></trkpt><trkpt lat="44.72701" lon="10.0783683"><ele>271.0</ele><time>2026-04-04T12:21:05.99Z</time></trkpt><trkpt lat="44.7270483" lon="10.078275"><ele>273.3333333333333</ele><time>2026-04-04T12:21:06.99Z</time></trkpt><trkpt lat="44.7270983" lon="10.078185"><ele>275.66666666666663</ele><time>2026-04-04T12:21:07.99Z</time></trkpt><trkpt lat="44.7271483" lon="10.078105"><ele>278.0</ele><time>2026-04-04T12:21:08.99Z</time></trkpt><trkpt lat="44.7271983" lon="10.078035"><ele>280.3333333333333</ele><time>2026-04-04T12:21:09.989Z</time></trkpt><trkpt lat="44.727255" lon="10.077955"><ele>282.6666666666667</ele><time>2026-04-04T12:21:10.989Z</time></trkpt><trkpt lat="44.7273017" lon="10.0778633"><ele>285.0</ele><time>2026-04-04T12:21:11.99Z</time></trkpt><trkpt lat="44.7273333" lon="10.0777667"><ele>285.0</ele><time>2026-04-04T12:21:12.989Z</time></trkpt><trkpt lat="44.72735" lon="10.0776567"><ele>285.0</ele><time>2026-04-04T12:21:13.989Z</time></trkpt><trkpt lat="44.72736" lon="10.0775433"><ele>285.0</ele><time>2026-04-04T12:21:14.99Z</time></trkpt><trkpt lat="44.7273583" lon="10.07741"><ele>285.0</ele><time>2026-04-04T12:21:15.99Z</time></trkpt><trkpt lat="44.7273617" lon="10.077275"><ele>285.0</ele><time>2026-04-04T12:21:16.989Z</time></trkpt><trkpt lat="44.7273667" lon="10.0771467"><ele>285.0</ele><time>2026-04-04T12:21:17.989Z</time></trkpt><trkpt lat="44.72738" lon="10.0770283"><ele>286.1428571428571</ele><time>2026-04-04T12:21:18.99Z</time></trkpt><trkpt lat="44.727395" lon="10.0769183"><ele>287.2857142857143</ele><time>2026-04-04T12:21:19.989Z</time></trkpt><trkpt lat="44.7274" lon="10.076805"><ele>288.42857142857144</ele><time>2026-04-04T12:21:20.99Z</time></trkpt><trkpt lat="44.727405" lon="10.0767033"><ele>289.57142857142856</ele><time>2026-04-04T12:21:21.989Z</time></trkpt><trkpt lat="44.727405" lon="10.0766017"><ele>290.7142857142857</ele><time>2026-04-04T12:21:22.989Z</time></trkpt><trkpt lat="44.7274033" lon="10.0765033"><ele>291.85714285714283</ele><time>2026-04-04T12:21:23.989Z</time></trkpt><trkpt lat="44.72741" lon="10.0764083"><ele>293.0</ele><time>2026-04-04T12:21:24.989Z</time></trkpt><trkpt lat="44.727415" lon="10.076315"><ele>294.2</ele><time>2026-04-04T12:21:25.989Z</time></trkpt><trkpt lat="44.72746" lon="10.07616"><ele>295.4</ele><time>2026-04-04T12:21:27.989Z</time></trkpt><trkpt lat="44.7275333" lon="10.0760233"><ele>296.59999999999997</ele><time>2026-04-04T12:21:29.989Z</time></trkpt><trkpt lat="44.7276117" lon="10.07589"><ele>297.8</ele><time>2026-04-04T12:21:31.99Z</time></trkpt><trkpt lat="44.7276533" lon="10.0758217"><ele>299.0</ele><time>2026-04-04T12:21:32.989Z</time></trkpt><trkpt lat="44.7277183" lon="10.075665"><ele>299.0</ele><time>2026-04-04T12:21:34.989Z</time></trkpt><trkpt lat="44.7277467" lon="10.0755717"><ele>299.0</ele><time>2026-04-04T12:21:35.99Z</time></trkpt><trkpt lat="44.7277733" lon="10.0754683"><ele>299.0</ele><time>2026-04-04T12:21:36.989Z</time></trkpt><trkpt lat="44.7278033" lon="10.0753617"><ele>299.0</ele><time>2026-04-04T12:21:37.99Z</time></trkpt><trkpt lat="44.7278417" lon="10.0752683"><ele>299.0</ele><time>2026-04-04T12:21:38.99Z</time></trkpt><trkpt lat="44.727885" lon="10.075175"><ele>299.0</ele><time>2026-04-04T12:21:39.989Z</time></trkpt><trkpt lat="44.727935" lon="10.0750867"><ele>299.0</ele><time>2026-04-04T12:21:40.989Z</time></trkpt><trkpt lat="44.7279817" lon="10.0750033"><ele>299.0</ele><time>2026-04-04T12:21:41.99Z</time></trkpt><trkpt lat="44.72803" lon="10.0749183"><ele>299.0</ele><time>2026-04-04T12:21:42.99Z</time></trkpt><trkpt lat="44.728085" lon="10.0748283"><ele>299.0</ele><time>2026-04-04T12:21:43.99Z</time></trkpt><trkpt lat="44.72814" lon="10.0747367"><ele>299.0</ele><time>2026-04-04T12:21:44.989Z</time></trkpt><trkpt lat="44.7281867" lon="10.07465"><ele>299.0</ele><time>2026-04-04T12:21:45.989Z</time></trkpt><trkpt lat="44.7282267" lon="10.07455"><ele>302.0</ele><time>2026-04-04T12:21:46.99Z</time></trkpt><trkpt lat="44.7282617" lon="10.0744417"><ele>305.0</ele><time>2026-04-04T12:21:47.99Z</time></trkpt><trkpt lat="44.7282883" lon="10.0743317"><ele>308.0</ele><time>2026-04-04T12:21:48.989Z</time></trkpt><trkpt lat="44.7283067" lon="10.074215"><ele>311.0</ele><time>2026-04-04T12:21:49.99Z</time></trkpt><trkpt lat="44.7283283" lon="10.0740983"><ele>314.0</ele><time>2026-04-04T12:21:50.99Z</time></trkpt><trkpt lat="44.7283517" lon="10.0739883"><ele>317.0</ele><time>2026-04-04T12:21:51.99Z</time></trkpt><trkpt lat="44.728375" lon="10.0738867"><ele>317.5</ele><time>2026-04-04T12:21:52.989Z</time></trkpt><trkpt lat="44.728415" lon="10.0737983"><ele>318.0</ele><time>2026-04-04T12:21:53.99Z</time></trkpt><trkpt lat="44.7284533" lon="10.0737117"><ele>318.5</ele><time>2026-04-04T12:21:54.99Z</time></trkpt><trkpt lat="44.728495" lon="10.0736267"><ele>319.0</ele><time>2026-04-04T12:21:55.99Z</time></trkpt><trkpt lat="44.728555" lon="10.0735"><ele>319.5</ele><time>2026-04-04T12:21:57.989Z</time></trkpt><trkpt lat="44.7286233" lon="10.0733733"><ele>320.0</ele><time>2026-04-04T12:21:59.989Z</time></trkpt><trkpt lat="44.72867" lon="10.0733067"><ele>322.2857142857143</ele><time>2026-04-04T12:22:00.99Z</time></trkpt><trkpt lat="44.7287233" lon="10.0732483"><ele>324.57142857142856</ele><time>2026-04-04T12:22:01.989Z</time></trkpt><trkpt lat="44.7287767" lon="10.0731833"><ele>326.8571428571429</ele><time>2026-04-04T12:22:02.989Z</time></trkpt><trkpt lat="44.728825" lon="10.07311"><ele>329.1428571428571</ele><time>2026-04-04T12:22:03.989Z</time></trkpt><trkpt lat="44.7288717" lon="10.0730317"><ele>331.42857142857144</ele><time>2026-04-04T12:22:04.99Z</time></trkpt><trkpt lat="44.7289033" lon="10.072955"><ele>333.7142857142857</ele><time>2026-04-04T12:22:05.989Z</time></trkpt><trkpt lat="44.7289367" lon="10.0728167"><ele>336.0</ele><time>2026-04-04T12:22:07.989Z</time></trkpt><trkpt lat="44.7289467" lon="10.0726633"><ele>336.0</ele><time>2026-04-04T12:22:09.989Z</time></trkpt><trkpt lat="44.7289717" lon="10.0725083"><ele>336.0</ele><time>2026-04-04T12:22:11.989Z</time></trkpt><trkpt lat="44.72901" lon="10.07236"><ele>336.0</ele><time>2026-04-04T12:22:13.99Z</time></trkpt><trkpt lat="44.72902" lon="10.0722133"><ele>336.0</ele><time>2026-04-04T12:22:15.99Z</time></trkpt><trkpt lat="44.7289917" lon="10.0720633"><ele>336.0</ele><time>2026-04-04T12:22:17.989Z</time></trkpt><trkpt lat="44.72898" lon="10.0719267"><ele>336.4</ele><time>2026-04-04T12:22:19.99Z</time></trkpt><trkpt lat="44.7289933" lon="10.071775"><ele>336.8</ele><time>2026-04-04T12:22:21.99Z</time></trkpt><trkpt lat="44.72901" lon="10.0716367"><ele>337.2</ele><time>2026-04-04T12:22:23.99Z</time></trkpt><trkpt lat="44.7290333" lon="10.0714983"><ele>337.59999999999997</ele><time>2026-04-04T12:22:25.989Z</time></trkpt><trkpt lat="44.72904" lon="10.0713683"><ele>338.0</ele><time>2026-04-04T12:22:35.99Z</time></trkpt><trkpt lat="44.7290467" lon="10.0712367"><ele>338.0</ele><time>2026-04-04T12:22:38.989Z</time></trkpt><trkpt lat="44.729035" lon="10.0711433"><ele>338.0</ele><time>2026-04-04T12:22:40.989Z</time></trkpt><trkpt lat="44.7290217" lon="10.0710417"><ele>338.0</ele><time>2026-04-04T12:22:43.99Z</time></trkpt><trkpt lat="44.7290317" lon="10.0709267"><ele>338.0</ele><time>2026-04-04T12:22:46.989Z</time></trkpt><trkpt lat="44.7290583" lon="10.0708083"><ele>338.0</ele><time>2026-04-04T12:22:48.989Z</time></trkpt><trkpt lat="44.729075" lon="10.0706933"><ele>338.0</ele><time>2026-04-04T12:22:50.99Z</time></trkpt><trkpt lat="44.7290967" lon="10.07059"><ele>336.0</ele><time>2026-04-04T12:22:52.99Z</time></trkpt><trkpt lat="44.7291217" lon="10.0704933"><ele>334.0</ele><time>2026-04-04T12:22:54.989Z</time></trkpt><trkpt lat="44.729165" lon="10.0704117"><ele>332.0</ele><time>2026-04-04T12:22:56.99Z</time></trkpt><trkpt lat="44.72922" lon="10.070305"><ele>330.0</ele><time>2026-04-04T12:22:58.989Z</time></trkpt><trkpt lat="44.7292683" lon="10.070185"><ele>328.0</ele><time>2026-04-04T12:23:00.989Z</time></trkpt><trkpt lat="44.729315" lon="10.0700933"><ele>326.0</ele><time>2026-04-04T12:23:02.989Z</time></trkpt><trkpt lat="44.7293417" lon="10.0699833"><ele>324.40000000000003</ele><time>2026-04-04T12:23:04.989Z</time></trkpt><trkpt lat="44.72935" lon="10.0698833"><ele>322.8</ele><time>2026-04-04T12:23:06.99Z</time></trkpt><trkpt lat="44.7293383" lon="10.0697483"><ele>321.20000000000005</ele><time>2026-04-04T12:23:09.989Z</time></trkpt><trkpt lat="44.729305" lon="10.0696283"><ele>319.6</ele><time>2026-04-04T12:23:11.989Z</time></trkpt><trkpt lat="44.72926" lon="10.0695033"><ele>318.0</ele><time>2026-04-04T12:23:13.99Z</time></trkpt><trkpt lat="44.7292067" lon="10.0693467"><ele>318.0</ele><time>2026-04-04T12:23:15.989Z</time></trkpt><trkpt lat="44.7291417" lon="10.0692183"><ele>318.0</ele><time>2026-04-04T12:23:17.989Z</time></trkpt><trkpt lat="44.72908" lon="10.069105"><ele>318.0</ele><time>2026-04-04T12:23:19.989Z</time></trkpt><trkpt lat="44.7290217" lon="10.068995"><ele>318.0</ele><time>2026-04-04T12:23:21.989Z</time></trkpt><trkpt lat="44.7289667" lon="10.06888"><ele>318.0</ele><time>2026-04-04T12:23:23.99Z</time></trkpt><trkpt lat="44.7288983" lon="10.0687583"><ele>317.4</ele><time>2026-04-04T12:23:25.989Z</time></trkpt><trkpt lat="44.7288233" lon="10.0686233"><ele>316.8</ele><time>2026-04-04T12:23:27.99Z</time></trkpt><trkpt lat="44.7287767" lon="10.0685433"><ele>316.2</ele><time>2026-04-04T12:23:28.989Z</time></trkpt><trkpt lat="44.7287383" lon="10.06847"><ele>315.6</ele><time>2026-04-04T12:23:29.989Z</time></trkpt><trkpt lat="44.7286767" lon="10.0683333"><ele>315.0</ele><time>2026-04-04T12:23:31.989Z</time></trkpt><trkpt lat="44.728635" lon="10.0682167"><ele>315.0</ele><time>2026-04-04T12:23:33.989Z</time></trkpt><trkpt lat="44.728625" lon="10.0681233"><ele>315.0</ele><time>2026-04-04T12:23:35.989Z</time></trkpt><trkpt lat="44.7286283" lon="10.0680267"><ele>315.0</ele><time>2026-04-04T12:23:37.989Z</time></trkpt><trkpt lat="44.7286717" lon="10.0679233"><ele>315.0</ele><time>2026-04-04T12:23:39.989Z</time></trkpt><trkpt lat="44.7287183" lon="10.0678533"><ele>315.0</ele><time>2026-04-04T12:23:41.989Z</time></trkpt><trkpt lat="44.72877" lon="10.0677317"><ele>315.0</ele><time>2026-04-04T12:23:44.989Z</time></trkpt><trkpt lat="44.7288317" lon="10.06759"><ele>315.0</ele><time>2026-04-04T12:23:46.989Z</time></trkpt><trkpt lat="44.7288683" lon="10.0675"><ele>315.0</ele><time>2026-04-04T12:23:47.989Z</time></trkpt><trkpt lat="44.7289083" lon="10.0673983"><ele>315.0</ele><time>2026-04-04T12:23:48.989Z</time></trkpt><trkpt lat="44.7289533" lon="10.067295"><ele>315.0</ele><time>2026-04-04T12:23:49.989Z</time></trkpt><trkpt lat="44.7290083" lon="10.0671933"><ele>315.0</ele><time>2026-04-04T12:23:50.989Z</time></trkpt><trkpt lat="44.7290533" lon="10.067085"><ele>315.0</ele><time>2026-04-04T12:23:51.99Z</time></trkpt><trkpt lat="44.7291" lon="10.0669917"><ele>315.5</ele><time>2026-04-04T12:23:52.99Z</time></trkpt><trkpt lat="44.7291483" lon="10.0668933"><ele>316.0</ele><time>2026-04-04T12:23:53.989Z</time></trkpt><trkpt lat="44.7291917" lon="10.066795"><ele>316.5</ele><time>2026-04-04T12:23:54.989Z</time></trkpt><trkpt lat="44.7292383" lon="10.0666967"><ele>317.0</ele><time>2026-04-04T12:23:55.99Z</time></trkpt><trkpt lat="44.7292867" lon="10.0665983"><ele>317.5</ele><time>2026-04-04T12:23:56.989Z</time></trkpt><trkpt lat="44.729335" lon="10.0664883"><ele>318.0</ele><time>2026-04-04T12:23:57.989Z</time></trkpt><trkpt lat="44.7293833" lon="10.0663867"><ele>320.2</ele><time>2026-04-04T12:23:58.989Z</time></trkpt><trkpt lat="44.7294317" lon="10.0662867"><ele>322.4</ele><time>2026-04-04T12:23:59.989Z</time></trkpt><trkpt lat="44.7294833" lon="10.0661817"><ele>324.59999999999997</ele><time>2026-04-04T12:24:00.989Z</time></trkpt><trkpt lat="44.729535" lon="10.0660717"><ele>326.8</ele><time>2026-04-04T12:24:01.989Z</time></trkpt><trkpt lat="44.7295883" lon="10.065955"><ele>329.0</ele><time>2026-04-04T12:24:02.99Z</time></trkpt><trkpt lat="44.7296417" lon="10.0658367"><ele>328.79999999999995</ele><time>2026-04-04T12:24:03.99Z</time></trkpt><trkpt lat="44.7296983" lon="10.065715"><ele>328.59999999999997</ele><time>2026-04-04T12:24:04.989Z</time></trkpt><trkpt lat="44.7297483" lon="10.065585"><ele>328.4</ele><time>2026-04-04T12:24:05.989Z</time></trkpt><trkpt lat="44.729795" lon="10.065445"><ele>328.2</ele><time>2026-04-04T12:24:06.989Z</time></trkpt><trkpt lat="44.7298467" lon="10.065305"><ele>328.0</ele><time>2026-04-04T12:24:07.989Z</time></trkpt><trkpt lat="44.7298867" lon="10.0651567"><ele>328.0</ele><time>2026-04-04T12:24:08.99Z</time></trkpt><trkpt lat="44.72992" lon="10.06501"><ele>328.0</ele><time>2026-04-04T12:24:09.99Z</time></trkpt><trkpt lat="44.7299283" lon="10.0648583"><ele>328.0</ele><time>2026-04-04T12:24:10.989Z</time></trkpt><trkpt lat="44.729915" lon="10.0647"><ele>328.0</ele><time>2026-04-04T12:24:11.99Z</time></trkpt><trkpt lat="44.729905" lon="10.06455"><ele>328.0</ele><time>2026-04-04T12:24:12.989Z</time></trkpt><trkpt lat="44.7298967" lon="10.0644083"><ele>328.59999999999997</ele><time>2026-04-04T12:24:13.989Z</time></trkpt><trkpt lat="44.7299033" lon="10.0642733"><ele>329.2</ele><time>2026-04-04T12:24:14.99Z</time></trkpt><trkpt lat="44.7299217" lon="10.0641417"><ele>329.8</ele><time>2026-04-04T12:24:15.989Z</time></trkpt><trkpt lat="44.7299583" lon="10.0640067"><ele>330.4</ele><time>2026-04-04T12:24:16.99Z</time></trkpt><trkpt lat="44.729985" lon="10.0638633"><ele>331.0</ele><time>2026-04-04T12:24:17.99Z</time></trkpt><trkpt lat="44.7300017" lon="10.0637217"><ele>331.8</ele><time>2026-04-04T12:24:18.99Z</time></trkpt><trkpt lat="44.7300167" lon="10.0635733"><ele>332.6</ele><time>2026-04-04T12:24:19.99Z</time></trkpt><trkpt lat="44.7300217" lon="10.0634233"><ele>333.4</ele><time>2026-04-04T12:24:20.99Z</time></trkpt><trkpt lat="44.730025" lon="10.06328"><ele>334.2</ele><time>2026-04-04T12:24:21.989Z</time></trkpt><trkpt lat="44.7300317" lon="10.0631533"><ele>335.0</ele><time>2026-04-04T12:24:22.989Z</time></trkpt><trkpt lat="44.7300367" lon="10.0630433"><ele>336.6666666666667</ele><time>2026-04-04T12:24:23.989Z</time></trkpt><trkpt lat="44.7300367" lon="10.062945"><ele>338.33333333333337</ele><time>2026-04-04T12:24:24.99Z</time></trkpt><trkpt lat="44.730015" lon="10.0628583"><ele>340.0</ele><time>2026-04-04T12:24:25.989Z</time></trkpt><trkpt lat="44.7299717" lon="10.06277"><ele>341.6666666666667</ele><time>2026-04-04T12:24:26.989Z</time></trkpt><trkpt lat="44.7299083" lon="10.0626833"><ele>343.3333333333333</ele><time>2026-04-04T12:24:27.989Z</time></trkpt><trkpt lat="44.7298383" lon="10.0626117"><ele>345.0</ele><time>2026-04-04T12:24:28.99Z</time></trkpt><trkpt lat="44.7297567" lon="10.062565"><ele>345.0</ele><time>2026-04-04T12:24:29.989Z</time></trkpt><trkpt lat="44.729665" lon="10.0625333"><ele>345.0</ele><time>2026-04-04T12:24:30.989Z</time></trkpt><trkpt lat="44.72955" lon="10.0625217"><ele>345.0</ele><time>2026-04-04T12:24:31.989Z</time></trkpt><trkpt lat="44.729445" lon="10.0625167"><ele>345.0</ele><time>2026-04-04T12:24:32.989Z</time></trkpt><trkpt lat="44.72933" lon="10.062525"><ele>345.0</ele><time>2026-04-04T12:24:33.989Z</time></trkpt><trkpt lat="44.7292267" lon="10.0625217"><ele>344.0</ele><time>2026-04-04T12:24:34.989Z</time></trkpt><trkpt lat="44.7291283" lon="10.062495"><ele>343.0</ele><time>2026-04-04T12:24:35.989Z</time></trkpt><trkpt lat="44.729045" lon="10.0624483"><ele>342.0</ele><time>2026-04-04T12:24:36.989Z</time></trkpt><trkpt lat="44.728975" lon="10.0623717"><ele>341.0</ele><time>2026-04-04T12:24:37.989Z</time></trkpt><trkpt lat="44.7289267" lon="10.06227"><ele>340.0</ele><time>2026-04-04T12:24:38.989Z</time></trkpt><trkpt lat="44.7289067" lon="10.0621617"><ele>339.0</ele><time>2026-04-04T12:24:39.989Z</time></trkpt><trkpt lat="44.7288933" lon="10.0620467"><ele>339.0</ele><time>2026-04-04T12:24:40.99Z</time></trkpt><trkpt lat="44.72888" lon="10.0619467"><ele>339.0</ele><time>2026-04-04T12:24:41.989Z</time></trkpt><trkpt lat="44.7288367" lon="10.0618567"><ele>339.0</ele><time>2026-04-04T12:24:42.99Z</time></trkpt><trkpt lat="44.7287817" lon="10.0617967"><ele>339.0</ele><time>2026-04-04T12:24:43.989Z</time></trkpt><trkpt lat="44.728715" lon="10.061735"><ele>339.0</ele><time>2026-04-04T12:24:44.99Z</time></trkpt><trkpt lat="44.7286617" lon="10.0616533"><ele>339.0</ele><time>2026-04-04T12:24:45.989Z</time></trkpt><trkpt lat="44.7286283" lon="10.0615467"><ele>340.0</ele><time>2026-04-04T12:24:46.989Z</time></trkpt><trkpt lat="44.7286183" lon="10.0614367"><ele>341.0</ele><time>2026-04-04T12:24:47.99Z</time></trkpt><trkpt lat="44.728615" lon="10.061325"><ele>342.0</ele><time>2026-04-04T12:24:48.989Z</time></trkpt><trkpt lat="44.7285817" lon="10.0612183"><ele>343.0</ele><time>2026-04-04T12:24:49.989Z</time></trkpt><trkpt lat="44.7285183" lon="10.0611283"><ele>344.0</ele><time>2026-04-04T12:24:50.989Z</time></trkpt><trkpt lat="44.7284233" lon="10.06106"><ele>345.0</ele><time>2026-04-04T12:24:51.989Z</time></trkpt><trkpt lat="44.72832" lon="10.0610083"><ele>346.2</ele><time>2026-04-04T12:24:52.99Z</time></trkpt><trkpt lat="44.7282167" lon="10.06098"><ele>347.4</ele><time>2026-04-04T12:24:53.989Z</time></trkpt><trkpt lat="44.72811" lon="10.060965"><ele>348.6</ele><time>2026-04-04T12:24:54.989Z</time></trkpt><trkpt lat="44.72801" lon="10.0609683"><ele>349.8</ele><time>2026-04-04T12:24:55.99Z</time></trkpt><trkpt lat="44.727925" lon="10.0609783"><ele>351.0</ele><time>2026-04-04T12:24:56.99Z</time></trkpt><trkpt lat="44.727845" lon="10.060995"><ele>351.0</ele><time>2026-04-04T12:24:57.989Z</time></trkpt><trkpt lat="44.7277717" lon="10.0610183"><ele>351.0</ele><time>2026-04-04T12:24:58.99Z</time></trkpt><trkpt lat="44.727695" lon="10.06102"><ele>351.0</ele><time>2026-04-04T12:24:59.989Z</time></trkpt><trkpt lat="44.727625" lon="10.0609933"><ele>351.0</ele><time>2026-04-04T12:25:00.99Z</time></trkpt><trkpt lat="44.727555" lon="10.0609367"><ele>351.0</ele><time>2026-04-04T12:25:01.989Z</time></trkpt><trkpt lat="44.7275" lon="10.06084"><ele>351.0</ele><time>2026-04-04T12:25:02.989Z</time></trkpt><trkpt lat="44.7274683" lon="10.06073"><ele>350.4</ele><time>2026-04-04T12:25:03.989Z</time></trkpt><trkpt lat="44.7274583" lon="10.0606017"><ele>349.8</ele><time>2026-04-04T12:25:04.99Z</time></trkpt><trkpt lat="44.72745" lon="10.0604667"><ele>349.2</ele><time>2026-04-04T12:25:05.99Z</time></trkpt><trkpt lat="44.727435" lon="10.0603367"><ele>348.59999999999997</ele><time>2026-04-04T12:25:06.99Z</time></trkpt><trkpt lat="44.7274217" lon="10.0602083"><ele>348.0</ele><time>2026-04-04T12:25:07.989Z</time></trkpt><trkpt lat="44.7274183" lon="10.0600783"><ele>348.0</ele><time>2026-04-04T12:25:08.989Z</time></trkpt><trkpt lat="44.7274133" lon="10.0599583"><ele>348.0</ele><time>2026-04-04T12:25:09.989Z</time></trkpt><trkpt lat="44.72741" lon="10.0598417"><ele>348.0</ele><time>2026-04-04T12:25:10.989Z</time></trkpt><trkpt lat="44.72741" lon="10.0597233"><ele>348.0</ele><time>2026-04-04T12:25:11.988Z</time></trkpt><trkpt lat="44.7274117" lon="10.0596017"><ele>348.0</ele><time>2026-04-04T12:25:12.988Z</time></trkpt><trkpt lat="44.7274217" lon="10.0594833"><ele>348.0</ele><time>2026-04-04T12:25:13.988Z</time></trkpt><trkpt lat="44.7274417" lon="10.0593717"><ele>347.6666666666667</ele><time>2026-04-04T12:25:14.989Z</time></trkpt><trkpt lat="44.7274683" lon="10.059275"><ele>347.3333333333333</ele><time>2026-04-04T12:25:15.988Z</time></trkpt><trkpt lat="44.7275017" lon="10.0591733"><ele>347.0</ele><time>2026-04-04T12:25:16.988Z</time></trkpt><trkpt lat="44.72754" lon="10.0590567"><ele>346.66666666666663</ele><time>2026-04-04T12:25:17.988Z</time></trkpt><trkpt lat="44.727575" lon="10.05893"><ele>346.3333333333333</ele><time>2026-04-04T12:25:18.989Z</time></trkpt><trkpt lat="44.7276033" lon="10.05879"><ele>346.0</ele><time>2026-04-04T12:25:19.988Z</time></trkpt><trkpt lat="44.7276117" lon="10.0586333"><ele>346.0</ele><time>2026-04-04T12:25:20.988Z</time></trkpt><trkpt lat="44.7276" lon="10.0584733"><ele>346.0</ele><time>2026-04-04T12:25:21.988Z</time></trkpt><trkpt lat="44.72757" lon="10.0583033"><ele>346.0</ele><time>2026-04-04T12:25:22.988Z</time></trkpt><trkpt lat="44.7275417" lon="10.058125"><ele>346.0</ele><time>2026-04-04T12:25:23.988Z</time></trkpt><trkpt lat="44.72753" lon="10.0579383"><ele>346.5</ele><time>2026-04-04T12:25:24.988Z</time></trkpt><trkpt lat="44.727515" lon="10.05775"><ele>347.0</ele><time>2026-04-04T12:25:25.988Z</time></trkpt><trkpt lat="44.7274933" lon="10.0575533"><ele>347.5</ele><time>2026-04-04T12:25:26.989Z</time></trkpt><trkpt lat="44.727465" lon="10.0573683"><ele>348.0</ele><time>2026-04-04T12:25:27.988Z</time></trkpt><trkpt lat="44.7274233" lon="10.0571967"><ele>349.5</ele><time>2026-04-04T12:25:28.988Z</time></trkpt><trkpt lat="44.727365" lon="10.05703"><ele>351.0</ele><time>2026-04-04T12:25:29.989Z</time></trkpt><trkpt lat="44.727305" lon="10.056885"><ele>352.5</ele><time>2026-04-04T12:25:30.988Z</time></trkpt><trkpt lat="44.7272583" lon="10.0567567"><ele>354.0</ele><time>2026-04-04T12:25:31.988Z</time></trkpt><trkpt lat="44.72722" lon="10.0566267"><ele>354.0</ele><time>2026-04-04T12:25:32.988Z</time></trkpt><trkpt lat="44.7272117" lon="10.05649"><ele>354.0</ele><time>2026-04-04T12:25:33.988Z</time></trkpt><trkpt lat="44.72724" lon="10.0563617"><ele>354.0</ele><time>2026-04-04T12:25:34.988Z</time></trkpt><trkpt lat="44.7273017" lon="10.0562533"><ele>354.0</ele><time>2026-04-04T12:25:35.989Z</time></trkpt><trkpt lat="44.7273833" lon="10.056175"><ele>354.0</ele><time>2026-04-04T12:25:36.989Z</time></trkpt><trkpt lat="44.7274667" lon="10.0560967"><ele>354.0</ele><time>2026-04-04T12:25:37.988Z</time></trkpt><trkpt lat="44.727545" lon="10.056005"><ele>354.0</ele><time>2026-04-04T12:25:38.988Z</time></trkpt><trkpt lat="44.7276183" lon="10.0558983"><ele>354.0</ele><time>2026-04-04T12:25:39.988Z</time></trkpt><trkpt lat="44.7276833" lon="10.05577"><ele>354.0</ele><time>2026-04-04T12:25:40.988Z</time></trkpt><trkpt lat="44.7277367" lon="10.05562"><ele>354.0</ele><time>2026-04-04T12:25:41.988Z</time></trkpt><trkpt lat="44.7277833" lon="10.0554567"><ele>356.25</ele><time>2026-04-04T12:25:42.989Z</time></trkpt><trkpt lat="44.72783" lon="10.0552983"><ele>358.5</ele><time>2026-04-04T12:25:43.988Z</time></trkpt><trkpt lat="44.7278733" lon="10.0551333"><ele>360.75</ele><time>2026-04-04T12:25:44.988Z</time></trkpt><trkpt lat="44.7279217" lon="10.054975"><ele>363.0</ele><time>2026-04-04T12:25:45.988Z</time></trkpt><trkpt lat="44.72797" lon="10.054815"><ele>363.25</ele><time>2026-04-04T12:25:46.988Z</time></trkpt><trkpt lat="44.728" lon="10.0546583"><ele>363.5</ele><time>2026-04-04T12:25:47.989Z</time></trkpt><trkpt lat="44.7280267" lon="10.0544917"><ele>363.75</ele><time>2026-04-04T12:25:48.989Z</time></trkpt><trkpt lat="44.7280517" lon="10.0543217"><ele>364.0</ele><time>2026-04-04T12:25:49.988Z</time></trkpt><trkpt lat="44.7280733" lon="10.0541467"><ele>364.75</ele><time>2026-04-04T12:25:50.989Z</time></trkpt><trkpt lat="44.728095" lon="10.053975"><ele>365.5</ele><time>2026-04-04T12:25:51.989Z</time></trkpt><trkpt lat="44.72812" lon="10.0538117"><ele>366.25</ele><time>2026-04-04T12:25:52.989Z</time></trkpt><trkpt lat="44.7281483" lon="10.0536583"><ele>367.0</ele><time>2026-04-04T12:25:53.988Z</time></trkpt><trkpt lat="44.728175" lon="10.0535217"><ele>367.0</ele><time>2026-04-04T12:25:54.988Z</time></trkpt><trkpt lat="44.7282083" lon="10.053395"><ele>367.0</ele><time>2026-04-04T12:25:55.988Z</time></trkpt><trkpt lat="44.72827" lon="10.053265"><ele>367.0</ele><time>2026-04-04T12:25:56.988Z</time></trkpt><trkpt lat="44.7283417" lon="10.05312"><ele>367.0</ele><time>2026-04-04T12:25:57.989Z</time></trkpt><trkpt lat="44.728415" lon="10.0529567"><ele>368.0</ele><time>2026-04-04T12:25:58.988Z</time></trkpt><trkpt lat="44.7284783" lon="10.05276"><ele>369.0</ele><time>2026-04-04T12:25:59.989Z</time></trkpt><trkpt lat="44.72854" lon="10.052555"><ele>370.0</ele><time>2026-04-04T12:26:00.989Z</time></trkpt><trkpt lat="44.72858" lon="10.052345"><ele>370.0</ele><time>2026-04-04T12:26:01.988Z</time></trkpt><trkpt lat="44.7286183" lon="10.0521517"><ele>370.0</ele><time>2026-04-04T12:26:02.988Z</time></trkpt><trkpt lat="44.7286533" lon="10.0519833"><ele>370.0</ele><time>2026-04-04T12:26:03.988Z</time></trkpt><trkpt lat="44.72871" lon="10.05183"><ele>370.0</ele><time>2026-04-04T12:26:04.989Z</time></trkpt><trkpt lat="44.728795" lon="10.05168"><ele>367.66666666666663</ele><time>2026-04-04T12:26:05.988Z</time></trkpt><trkpt lat="44.7289033" lon="10.051525"><ele>365.3333333333333</ele><time>2026-04-04T12:26:06.988Z</time></trkpt><trkpt lat="44.7290233" lon="10.05138"><ele>363.0</ele><time>2026-04-04T12:26:07.988Z</time></trkpt><trkpt lat="44.7291367" lon="10.0512133"><ele>363.0</ele><time>2026-04-04T12:26:08.988Z</time></trkpt><trkpt lat="44.7292317" lon="10.0510317"><ele>363.0</ele><time>2026-04-04T12:26:09.988Z</time></trkpt><trkpt lat="44.729325" lon="10.0508517"><ele>363.0</ele><time>2026-04-04T12:26:10.988Z</time></trkpt><trkpt lat="44.7294267" lon="10.05071"><ele>362.75</ele><time>2026-04-04T12:26:11.988Z</time></trkpt><trkpt lat="44.7295267" lon="10.050595"><ele>362.5</ele><time>2026-04-04T12:26:12.989Z</time></trkpt><trkpt lat="44.7296433" lon="10.05049"><ele>362.25</ele><time>2026-04-04T12:26:13.988Z</time></trkpt><trkpt lat="44.729765" lon="10.0504017"><ele>362.0</ele><time>2026-04-04T12:26:14.989Z</time></trkpt><trkpt lat="44.7299033" lon="10.0503283"><ele>362.0</ele><time>2026-04-04T12:26:15.988Z</time></trkpt><trkpt lat="44.7300383" lon="10.0502533"><ele>362.0</ele><time>2026-04-04T12:26:16.989Z</time></trkpt><trkpt lat="44.730165" lon="10.05017"><ele>362.0</ele><time>2026-04-04T12:26:17.989Z</time></trkpt><trkpt lat="44.7302917" lon="10.05007"><ele>362.0</ele><time>2026-04-04T12:26:18.988Z</time></trkpt><trkpt lat="44.7304117" lon="10.0499383"><ele>361.25</ele><time>2026-04-04T12:26:19.988Z</time></trkpt><trkpt lat="44.73052" lon="10.0497933"><ele>360.5</ele><time>2026-04-04T12:26:20.988Z</time></trkpt><trkpt lat="44.73062" lon="10.0496683"><ele>359.75</ele><time>2026-04-04T12:26:21.988Z</time></trkpt><trkpt lat="44.73071" lon="10.04954"><ele>359.0</ele><time>2026-04-04T12:26:22.989Z</time></trkpt><trkpt lat="44.7308" lon="10.04942"><ele>359.0</ele><time>2026-04-04T12:26:23.988Z</time></trkpt><trkpt lat="44.730885" lon="10.049305"><ele>359.0</ele><time>2026-04-04T12:26:24.989Z</time></trkpt><trkpt lat="44.7309617" lon="10.0491967"><ele>359.0</ele><time>2026-04-04T12:26:25.989Z</time></trkpt><trkpt lat="44.731025" lon="10.049095"><ele>359.0</ele><time>2026-04-04T12:26:26.988Z</time></trkpt><trkpt lat="44.731075" lon="10.0490317"><ele>359.0</ele><time>2026-04-04T12:26:27.988Z</time></trkpt><trkpt lat="44.7311567" lon="10.0489967"><ele>358.79999999999995</ele><time>2026-04-04T12:26:29.988Z</time></trkpt><trkpt lat="44.7312267" lon="10.0491017"><ele>358.59999999999997</ele><time>2026-04-04T12:26:31.988Z</time></trkpt><trkpt lat="44.73126" lon="10.0491967"><ele>358.4</ele><time>2026-04-04T12:26:32.988Z</time></trkpt><trkpt lat="44.7312933" lon="10.0493133"><ele>358.2</ele><time>2026-04-04T12:26:33.988Z</time></trkpt><trkpt lat="44.73133" lon="10.0494417"><ele>358.0</ele><time>2026-04-04T12:26:34.988Z</time></trkpt><trkpt lat="44.73137" lon="10.0495733"><ele>358.0</ele><time>2026-04-04T12:26:35.988Z</time></trkpt><trkpt lat="44.7314033" lon="10.0496983"><ele>358.0</ele><time>2026-04-04T12:26:36.988Z</time></trkpt><trkpt lat="44.7314333" lon="10.0498217"><ele>358.0</ele><time>2026-04-04T12:26:37.988Z</time></trkpt><trkpt lat="44.7314667" lon="10.04994"><ele>358.0</ele><time>2026-04-04T12:26:38.988Z</time></trkpt><trkpt lat="44.7315017" lon="10.0500483"><ele>358.0</ele><time>2026-04-04T12:26:39.988Z</time></trkpt><trkpt lat="44.73153" lon="10.0501533"><ele>358.0</ele><time>2026-04-04T12:26:40.988Z</time></trkpt><trkpt lat="44.7315617" lon="10.050255"><ele>357.42857142857144</ele><time>2026-04-04T12:26:41.989Z</time></trkpt><trkpt lat="44.7315867" lon="10.0503383"><ele>356.8571428571429</ele><time>2026-04-04T12:26:42.988Z</time></trkpt><trkpt lat="44.7316217" lon="10.0504233"><ele>356.28571428571433</ele><time>2026-04-04T12:26:44.989Z</time></trkpt><trkpt lat="44.7316517" lon="10.05051"><ele>355.7142857142857</ele><time>2026-04-04T12:26:48.988Z</time></trkpt><trkpt lat="44.7316333" lon="10.05042"><ele>355.1428571428571</ele><time>2026-04-04T12:26:54.988Z</time></trkpt><trkpt lat="44.731595" lon="10.0503083"><ele>354.5714285714286</ele><time>2026-04-04T12:26:57.988Z</time></trkpt><trkpt lat="44.7315633" lon="10.05022"><ele>354.0</ele><time>2026-04-04T12:26:59.988Z</time></trkpt><trkpt lat="44.731535" lon="10.0501383"><ele>354.0</ele><time>2026-04-04T12:27:01.988Z</time></trkpt><trkpt lat="44.7314917" lon="10.0499933"><ele>354.0</ele><time>2026-04-04T12:27:03.988Z</time></trkpt><trkpt lat="44.7314617" lon="10.049895"><ele>354.0</ele><time>2026-04-04T12:27:04.989Z</time></trkpt><trkpt lat="44.7314233" lon="10.0497883"><ele>354.0</ele><time>2026-04-04T12:27:05.988Z</time></trkpt><trkpt lat="44.7313817" lon="10.04967"><ele>354.0</ele><time>2026-04-04T12:27:06.989Z</time></trkpt><trkpt lat="44.7313367" lon="10.0495317"><ele>354.79999999999995</ele><time>2026-04-04T12:27:07.988Z</time></trkpt><trkpt lat="44.7312967" lon="10.0493767"><ele>355.59999999999997</ele><time>2026-04-04T12:27:08.988Z</time></trkpt><trkpt lat="44.731255" lon="10.04925"><ele>356.4</ele><time>2026-04-04T12:27:09.988Z</time></trkpt><trkpt lat="44.7312183" lon="10.0491517"><ele>357.2</ele><time>2026-04-04T12:27:10.988Z</time></trkpt><trkpt lat="44.7311883" lon="10.04906"><ele>358.0</ele><time>2026-04-04T12:27:11.988Z</time></trkpt><trkpt lat="44.731165" lon="10.0489417"><ele>359.0</ele><time>2026-04-04T12:27:13.988Z</time></trkpt><trkpt lat="44.731215" lon="10.0488017"><ele>360.0</ele><time>2026-04-04T12:27:15.988Z</time></trkpt><trkpt lat="44.7312717" lon="10.0487167"><ele>361.0</ele><time>2026-04-04T12:27:16.988Z</time></trkpt><trkpt lat="44.7313383" lon="10.0486133"><ele>362.0</ele><time>2026-04-04T12:27:17.988Z</time></trkpt><trkpt lat="44.7314017" lon="10.048505"><ele>363.0</ele><time>2026-04-04T12:27:18.989Z</time></trkpt><trkpt lat="44.7314633" lon="10.04838"><ele>364.2</ele><time>2026-04-04T12:27:19.988Z</time></trkpt><trkpt lat="44.7315217" lon="10.0482433"><ele>365.4</ele><time>2026-04-04T12:27:20.988Z</time></trkpt><trkpt lat="44.73157" lon="10.0480933"><ele>366.59999999999997</ele><time>2026-04-04T12:27:21.988Z</time></trkpt><trkpt lat="44.7316133" lon="10.0479417"><ele>367.79999999999995</ele><time>2026-04-04T12:27:22.988Z</time></trkpt><trkpt lat="44.7316483" lon="10.0478183"><ele>369.0</ele><time>2026-04-04T12:27:23.988Z</time></trkpt><trkpt lat="44.7316917" lon="10.0477083"><ele>369.0</ele><time>2026-04-04T12:27:24.989Z</time></trkpt><trkpt lat="44.7317567" lon="10.0476433"><ele>369.0</ele><time>2026-04-04T12:27:25.988Z</time></trkpt><trkpt lat="44.731835" lon="10.0476283"><ele>369.0</ele><time>2026-04-04T12:27:26.988Z</time></trkpt><trkpt lat="44.7319183" lon="10.0476617"><ele>369.0</ele><time>2026-04-04T12:27:27.989Z</time></trkpt><trkpt lat="44.7320033" lon="10.0477083"><ele>369.0</ele><time>2026-04-04T12:27:28.988Z</time></trkpt><trkpt lat="44.7320767" lon="10.047715"><ele>369.0</ele><time>2026-04-04T12:27:29.988Z</time></trkpt><trkpt lat="44.7321433" lon="10.0476633"><ele>370.75</ele><time>2026-04-04T12:27:30.988Z</time></trkpt><trkpt lat="44.7322" lon="10.0475517"><ele>372.5</ele><time>2026-04-04T12:27:31.988Z</time></trkpt><trkpt lat="44.7322467" lon="10.047395"><ele>374.25</ele><time>2026-04-04T12:27:32.988Z</time></trkpt><trkpt lat="44.7322983" lon="10.04722"><ele>376.0</ele><time>2026-04-04T12:27:33.989Z</time></trkpt><trkpt lat="44.7323683" lon="10.047065"><ele>376.75</ele><time>2026-04-04T12:27:34.989Z</time></trkpt><trkpt lat="44.7324467" lon="10.0469367"><ele>377.5</ele><time>2026-04-04T12:27:35.988Z</time></trkpt><trkpt lat="44.7325267" lon="10.0468167"><ele>378.25</ele><time>2026-04-04T12:27:36.989Z</time></trkpt><trkpt lat="44.7326067" lon="10.046705"><ele>379.0</ele><time>2026-04-04T12:27:37.989Z</time></trkpt><trkpt lat="44.73268" lon="10.046605"><ele>382.8333333333333</ele><time>2026-04-04T12:27:38.988Z</time></trkpt><trkpt lat="44.732755" lon="10.046525"><ele>386.66666666666663</ele><time>2026-04-04T12:27:39.988Z</time></trkpt><trkpt lat="44.732835" lon="10.0464683"><ele>390.5</ele><time>2026-04-04T12:27:40.989Z</time></trkpt><trkpt lat="44.7329217" lon="10.046435"><ele>394.3333333333333</ele><time>2026-04-04T12:27:41.988Z</time></trkpt><trkpt lat="44.7330033" lon="10.04645"><ele>398.1666666666667</ele><time>2026-04-04T12:27:42.988Z</time></trkpt><trkpt lat="44.733085" lon="10.0465033"><ele>402.0</ele><time>2026-04-04T12:27:43.988Z</time></trkpt><trkpt lat="44.733165" lon="10.0465517"><ele>402.0</ele><time>2026-04-04T12:27:44.988Z</time></trkpt><trkpt lat="44.7332483" lon="10.0465783"><ele>402.0</ele><time>2026-04-04T12:27:45.989Z</time></trkpt><trkpt lat="44.7333333" lon="10.0465683"><ele>402.0</ele><time>2026-04-04T12:27:46.988Z</time></trkpt><trkpt lat="44.73343" lon="10.046515"><ele>402.0</ele><time>2026-04-04T12:27:47.989Z</time></trkpt><trkpt lat="44.7335267" lon="10.0464467"><ele>402.0</ele><time>2026-04-04T12:27:48.988Z</time></trkpt><trkpt lat="44.733625" lon="10.04637"><ele>402.0</ele><time>2026-04-04T12:27:49.988Z</time></trkpt><trkpt lat="44.7337317" lon="10.0462917"><ele>402.0</ele><time>2026-04-04T12:27:50.988Z</time></trkpt><trkpt lat="44.733845" lon="10.0462183"><ele>402.0</ele><time>2026-04-04T12:27:51.988Z</time></trkpt><trkpt lat="44.7339567" lon="10.0461667"><ele>402.0</ele><time>2026-04-04T12:27:52.989Z</time></trkpt><trkpt lat="44.73408" lon="10.04612"><ele>402.0</ele><time>2026-04-04T12:27:53.988Z</time></trkpt><trkpt lat="44.7341983" lon="10.04609"><ele>402.0</ele><time>2026-04-04T12:27:54.989Z</time></trkpt><trkpt lat="44.73432" lon="10.0460767"><ele>402.0</ele><time>2026-04-04T12:27:55.988Z</time></trkpt><trkpt lat="44.7344383" lon="10.0460833"><ele>402.0</ele><time>2026-04-04T12:27:56.988Z</time></trkpt><trkpt lat="44.7345517" lon="10.046105"><ele>402.20000000000005</ele><time>2026-04-04T12:27:57.988Z</time></trkpt><trkpt lat="44.7346683" lon="10.0461383"><ele>402.4</ele><time>2026-04-04T12:27:58.989Z</time></trkpt><trkpt lat="44.734775" lon="10.0461533"><ele>402.6</ele><time>2026-04-04T12:27:59.988Z</time></trkpt><trkpt lat="44.7348667" lon="10.046165"><ele>402.79999999999995</ele><time>2026-04-04T12:28:00.988Z</time></trkpt><trkpt lat="44.734945" lon="10.046165"><ele>403.0</ele><time>2026-04-04T12:28:01.989Z</time></trkpt><trkpt lat="44.7350083" lon="10.0461483"><ele>403.0</ele><time>2026-04-04T12:28:02.988Z</time></trkpt><trkpt lat="44.7351117" lon="10.0460583"><ele>403.0</ele><time>2026-04-04T12:28:04.988Z</time></trkpt><trkpt lat="44.7351617" lon="10.045985"><ele>403.0</ele><time>2026-04-04T12:28:05.988Z</time></trkpt><trkpt lat="44.7352217" lon="10.0459033"><ele>403.0</ele><time>2026-04-04T12:28:06.988Z</time></trkpt><trkpt lat="44.7352883" lon="10.0458317"><ele>403.0</ele><time>2026-04-04T12:28:07.988Z</time></trkpt><trkpt lat="44.73537" lon="10.04577"><ele>404.4</ele><time>2026-04-04T12:28:08.988Z</time></trkpt><trkpt lat="44.735465" lon="10.045745"><ele>405.79999999999995</ele><time>2026-04-04T12:28:09.989Z</time></trkpt><trkpt lat="44.73557" lon="10.0457667"><ele>407.2</ele><time>2026-04-04T12:28:10.989Z</time></trkpt><trkpt lat="44.7356633" lon="10.0458267"><ele>408.6</ele><time>2026-04-04T12:28:11.989Z</time></trkpt><trkpt lat="44.735755" lon="10.0459183"><ele>410.0</ele><time>2026-04-04T12:28:12.989Z</time></trkpt><trkpt lat="44.7358433" lon="10.0460033"><ele>410.0</ele><time>2026-04-04T12:28:13.988Z</time></trkpt><trkpt lat="44.7359267" lon="10.046065"><ele>410.0</ele><time>2026-04-04T12:28:14.988Z</time></trkpt><trkpt lat="44.736025" lon="10.046075"><ele>410.0</ele><time>2026-04-04T12:28:15.989Z</time></trkpt><trkpt lat="44.73613" lon="10.0460483"><ele>410.0</ele><time>2026-04-04T12:28:16.989Z</time></trkpt><trkpt lat="44.7362267" lon="10.04596"><ele>410.0</ele><time>2026-04-04T12:28:17.988Z</time></trkpt><trkpt lat="44.73631" lon="10.0458383"><ele>412.25</ele><time>2026-04-04T12:28:18.988Z</time></trkpt><trkpt lat="44.7364017" lon="10.04571"><ele>414.5</ele><time>2026-04-04T12:28:19.988Z</time></trkpt><trkpt lat="44.7365" lon="10.045575"><ele>416.75</ele><time>2026-04-04T12:28:20.988Z</time></trkpt><trkpt lat="44.736605" lon="10.045455"><ele>419.0</ele><time>2026-04-04T12:28:21.989Z</time></trkpt><trkpt lat="44.73672" lon="10.0453433"><ele>419.0</ele><time>2026-04-04T12:28:22.988Z</time></trkpt><trkpt lat="44.7368467" lon="10.0452433"><ele>419.0</ele><time>2026-04-04T12:28:23.989Z</time></trkpt><trkpt lat="44.736985" lon="10.0451533"><ele>419.0</ele><time>2026-04-04T12:28:24.988Z</time></trkpt><trkpt lat="44.7371183" lon="10.0450783"><ele>419.0</ele><time>2026-04-04T12:28:25.988Z</time></trkpt><trkpt lat="44.73725" lon="10.0450133"><ele>419.25</ele><time>2026-04-04T12:28:26.989Z</time></trkpt><trkpt lat="44.73738" lon="10.0449533"><ele>419.5</ele><time>2026-04-04T12:28:27.988Z</time></trkpt><trkpt lat="44.737505" lon="10.0448883"><ele>419.75</ele><time>2026-04-04T12:28:28.988Z</time></trkpt><trkpt lat="44.7376017" lon="10.0448167"><ele>420.0</ele><time>2026-04-04T12:28:29.988Z</time></trkpt><trkpt lat="44.73768" lon="10.0447233"><ele>418.4</ele><time>2026-04-04T12:28:30.989Z</time></trkpt><trkpt lat="44.7377367" lon="10.0446233"><ele>416.8</ele><time>2026-04-04T12:28:31.988Z</time></trkpt><trkpt lat="44.7377767" lon="10.0445017"><ele>415.20000000000005</ele><time>2026-04-04T12:28:32.988Z</time></trkpt><trkpt lat="44.7377917" lon="10.0443733"><ele>413.6</ele><time>2026-04-04T12:28:33.989Z</time></trkpt><trkpt lat="44.7378067" lon="10.0442233"><ele>412.0</ele><time>2026-04-04T12:28:34.989Z</time></trkpt><trkpt lat="44.73783" lon="10.0440483"><ele>412.0</ele><time>2026-04-04T12:28:35.988Z</time></trkpt><trkpt lat="44.73785" lon="10.043845"><ele>412.0</ele><time>2026-04-04T12:28:36.988Z</time></trkpt><trkpt lat="44.7378433" lon="10.0436433"><ele>412.0</ele><time>2026-04-04T12:28:37.988Z</time></trkpt><trkpt lat="44.7378217" lon="10.043445"><ele>412.0</ele><time>2026-04-04T12:28:38.988Z</time></trkpt><trkpt lat="44.73781" lon="10.043275"><ele>413.0</ele><time>2026-04-04T12:28:39.988Z</time></trkpt><trkpt lat="44.7378283" lon="10.043105"><ele>414.0</ele><time>2026-04-04T12:28:40.989Z</time></trkpt><trkpt lat="44.7378783" lon="10.0429467"><ele>415.0</ele><time>2026-04-04T12:28:41.989Z</time></trkpt><trkpt lat="44.73796" lon="10.0427967"><ele>416.0</ele><time>2026-04-04T12:28:42.989Z</time></trkpt><trkpt lat="44.738035" lon="10.042655"><ele>416.0</ele><time>2026-04-04T12:28:43.989Z</time></trkpt><trkpt lat="44.738095" lon="10.0424933"><ele>416.0</ele><time>2026-04-04T12:28:44.989Z</time></trkpt><trkpt lat="44.73812" lon="10.04231"><ele>416.0</ele><time>2026-04-04T12:28:45.988Z</time></trkpt><trkpt lat="44.7381167" lon="10.042125"><ele>416.0</ele><time>2026-04-04T12:28:46.988Z</time></trkpt><trkpt lat="44.7381233" lon="10.04195"><ele>417.5</ele><time>2026-04-04T12:28:47.989Z</time></trkpt><trkpt lat="44.7381567" lon="10.0417767"><ele>419.0</ele><time>2026-04-04T12:28:48.988Z</time></trkpt><trkpt lat="44.7382183" lon="10.0416217"><ele>420.5</ele><time>2026-04-04T12:28:49.988Z</time></trkpt><trkpt lat="44.7383117" lon="10.0414817"><ele>422.0</ele><time>2026-04-04T12:28:50.989Z</time></trkpt><trkpt lat="44.73841" lon="10.0413417"><ele>420.75</ele><time>2026-04-04T12:28:51.989Z</time></trkpt><trkpt lat="44.7385133" lon="10.0412"><ele>419.5</ele><time>2026-04-04T12:28:52.989Z</time></trkpt><trkpt lat="44.7385917" lon="10.041045"><ele>418.25</ele><time>2026-04-04T12:28:53.988Z</time></trkpt><trkpt lat="44.7386533" lon="10.0408917"><ele>417.0</ele><time>2026-04-04T12:28:54.989Z</time></trkpt><trkpt lat="44.7387233" lon="10.0407383"><ele>419.6</ele><time>2026-04-04T12:28:55.989Z</time></trkpt><trkpt lat="44.7387817" lon="10.0406"><ele>422.20000000000005</ele><time>2026-04-04T12:28:56.988Z</time></trkpt><trkpt lat="44.7388417" lon="10.0404783"><ele>424.8</ele><time>2026-04-04T12:28:57.988Z</time></trkpt><trkpt lat="44.7389" lon="10.0403883"><ele>427.4</ele><time>2026-04-04T12:28:58.988Z</time></trkpt><trkpt lat="44.7389783" lon="10.0403217"><ele>430.0</ele><time>2026-04-04T12:28:59.988Z</time></trkpt><trkpt lat="44.7390817" lon="10.0402883"><ele>430.0</ele><time>2026-04-04T12:29:00.989Z</time></trkpt><trkpt lat="44.7391983" lon="10.0402967"><ele>430.0</ele><time>2026-04-04T12:29:01.988Z</time></trkpt><trkpt lat="44.73933" lon="10.04035"><ele>430.0</ele><time>2026-04-04T12:29:02.989Z</time></trkpt><trkpt lat="44.73946" lon="10.0404317"><ele>430.0</ele><time>2026-04-04T12:29:03.988Z</time></trkpt><trkpt lat="44.7395717" lon="10.0405283"><ele>428.8</ele><time>2026-04-04T12:29:04.989Z</time></trkpt><trkpt lat="44.739665" lon="10.0406167"><ele>427.6</ele><time>2026-04-04T12:29:05.989Z</time></trkpt><trkpt lat="44.7397667" lon="10.0406717"><ele>426.4</ele><time>2026-04-04T12:29:06.989Z</time></trkpt><trkpt lat="44.7398683" lon="10.040675"><ele>425.2</ele><time>2026-04-04T12:29:07.988Z</time></trkpt><trkpt lat="44.739975" lon="10.0406383"><ele>424.0</ele><time>2026-04-04T12:29:08.988Z</time></trkpt><trkpt lat="44.7400783" lon="10.0405533"><ele>424.0</ele><time>2026-04-04T12:29:09.988Z</time></trkpt><trkpt lat="44.7401833" lon="10.0404717"><ele>424.0</ele><time>2026-04-04T12:29:10.988Z</time></trkpt><trkpt lat="44.74029" lon="10.0404167"><ele>424.0</ele><time>2026-04-04T12:29:11.989Z</time></trkpt><trkpt lat="44.740395" lon="10.0404083"><ele>424.0</ele><time>2026-04-04T12:29:12.988Z</time></trkpt><trkpt lat="44.7404983" lon="10.040455"><ele>424.0</ele><time>2026-04-04T12:29:13.988Z</time></trkpt><trkpt lat="44.7405933" lon="10.0405467"><ele>420.5</ele><time>2026-04-04T12:29:14.988Z</time></trkpt><trkpt lat="44.7406933" lon="10.0406667"><ele>417.0</ele><time>2026-04-04T12:29:15.989Z</time></trkpt><trkpt lat="44.7407983" lon="10.0407867"><ele>413.5</ele><time>2026-04-04T12:29:16.988Z</time></trkpt><trkpt lat="44.740915" lon="10.040915"><ele>410.0</ele><time>2026-04-04T12:29:17.988Z</time></trkpt><trkpt lat="44.7410333" lon="10.0410433"><ele>407.5</ele><time>2026-04-04T12:29:18.988Z</time></trkpt><trkpt lat="44.7411417" lon="10.0411767"><ele>405.0</ele><time>2026-04-04T12:29:19.988Z</time></trkpt><trkpt lat="44.7412483" lon="10.0412967"><ele>402.5</ele><time>2026-04-04T12:29:20.988Z</time></trkpt><trkpt lat="44.7413683" lon="10.041375"><ele>400.0</ele><time>2026-04-04T12:29:21.988Z</time></trkpt><trkpt lat="44.7414967" lon="10.041415"><ele>400.0</ele><time>2026-04-04T12:29:22.989Z</time></trkpt><trkpt lat="44.7416333" lon="10.0414367"><ele>400.0</ele><time>2026-04-04T12:29:23.988Z</time></trkpt><trkpt lat="44.74177" lon="10.041455"><ele>400.0</ele><time>2026-04-04T12:29:24.988Z</time></trkpt><trkpt lat="44.7419033" lon="10.04147"><ele>400.0</ele><time>2026-04-04T12:29:25.988Z</time></trkpt><trkpt lat="44.74204" lon="10.041495"><ele>399.5</ele><time>2026-04-04T12:29:26.988Z</time></trkpt><trkpt lat="44.7421817" lon="10.0415033"><ele>399.0</ele><time>2026-04-04T12:29:27.989Z</time></trkpt><trkpt lat="44.7423183" lon="10.0415033"><ele>398.5</ele><time>2026-04-04T12:29:28.988Z</time></trkpt><trkpt lat="44.7424683" lon="10.04149"><ele>398.0</ele><time>2026-04-04T12:29:29.989Z</time></trkpt><trkpt lat="44.742615" lon="10.04147"><ele>396.0</ele><time>2026-04-04T12:29:30.989Z</time></trkpt><trkpt lat="44.74276" lon="10.0414583"><ele>394.0</ele><time>2026-04-04T12:29:31.989Z</time></trkpt><trkpt lat="44.742905" lon="10.0414583"><ele>392.0</ele><time>2026-04-04T12:29:32.988Z</time></trkpt><trkpt lat="44.743045" lon="10.0414983"><ele>390.0</ele><time>2026-04-04T12:29:33.988Z</time></trkpt><trkpt lat="44.7431817" lon="10.0415633"><ele>390.0</ele><time>2026-04-04T12:29:34.988Z</time></trkpt><trkpt lat="44.74332" lon="10.0416317"><ele>390.0</ele><time>2026-04-04T12:29:35.988Z</time></trkpt><trkpt lat="44.743455" lon="10.0417"><ele>390.0</ele><time>2026-04-04T12:29:36.988Z</time></trkpt><trkpt lat="44.7435917" lon="10.0417683"><ele>390.0</ele><time>2026-04-04T12:29:37.988Z</time></trkpt><trkpt lat="44.7437267" lon="10.0418333"><ele>390.75</ele><time>2026-04-04T12:29:38.988Z</time></trkpt><trkpt lat="44.7438533" lon="10.0418983"><ele>391.5</ele><time>2026-04-04T12:29:39.989Z</time></trkpt><trkpt lat="44.7439733" lon="10.04196"><ele>392.25</ele><time>2026-04-04T12:29:40.988Z</time></trkpt><trkpt lat="44.744085" lon="10.0420233"><ele>393.0</ele><time>2026-04-04T12:29:41.988Z</time></trkpt><trkpt lat="44.7441883" lon="10.0420717"><ele>393.0</ele><time>2026-04-04T12:29:42.988Z</time></trkpt><trkpt lat="44.7442883" lon="10.0421217"><ele>393.0</ele><time>2026-04-04T12:29:43.988Z</time></trkpt><trkpt lat="44.74438" lon="10.04217"><ele>393.0</ele><time>2026-04-04T12:29:44.989Z</time></trkpt><trkpt lat="44.7444633" lon="10.0422133"><ele>393.0</ele><time>2026-04-04T12:29:45.988Z</time></trkpt><trkpt lat="44.7445467" lon="10.0422567"><ele>393.0</ele><time>2026-04-04T12:29:46.988Z</time></trkpt><trkpt lat="44.7446133" lon="10.0422967"><ele>393.0</ele><time>2026-04-04T12:29:47.988Z</time></trkpt><trkpt lat="44.7446733" lon="10.042325"><ele>393.0</ele><time>2026-04-04T12:29:48.989Z</time></trkpt><trkpt lat="44.744755" lon="10.04235"><ele>393.0</ele><time>2026-04-04T12:29:50.989Z</time></trkpt><trkpt lat="44.74484" lon="10.0422933"><ele>393.0</ele><time>2026-04-04T12:29:52.988Z</time></trkpt><trkpt lat="44.7448983" lon="10.0422217"><ele>393.0</ele><time>2026-04-04T12:29:53.988Z</time></trkpt><trkpt lat="44.7449567" lon="10.042135"><ele>393.0</ele><time>2026-04-04T12:29:54.989Z</time></trkpt><trkpt lat="44.7450217" lon="10.0420517"><ele>393.0</ele><time>2026-04-04T12:29:55.989Z</time></trkpt><trkpt lat="44.7450883" lon="10.04195"><ele>393.0</ele><time>2026-04-04T12:29:56.989Z</time></trkpt><trkpt lat="44.7451567" lon="10.0418433"><ele>393.0</ele><time>2026-04-04T12:29:57.989Z</time></trkpt><trkpt lat="44.7452333" lon="10.04175"><ele>393.0</ele><time>2026-04-04T12:29:58.988Z</time></trkpt><trkpt lat="44.745315" lon="10.0416533"><ele>393.0</ele><time>2026-04-04T12:29:59.988Z</time></trkpt><trkpt lat="44.74539" lon="10.0415583"><ele>392.2</ele><time>2026-04-04T12:30:00.988Z</time></trkpt><trkpt lat="44.74546" lon="10.0414633"><ele>391.4</ele><time>2026-04-04T12:30:01.988Z</time></trkpt><trkpt lat="44.7455283" lon="10.0413667"><ele>390.59999999999997</ele><time>2026-04-04T12:30:02.988Z</time></trkpt><trkpt lat="44.7455933" lon="10.0412733"><ele>389.79999999999995</ele><time>2026-04-04T12:30:03.989Z</time></trkpt><trkpt lat="44.7456533" lon="10.0411717"><ele>389.0</ele><time>2026-04-04T12:30:04.988Z</time></trkpt><trkpt lat="44.7457083" lon="10.0410733"><ele>389.0</ele><time>2026-04-04T12:30:05.988Z</time></trkpt><trkpt lat="44.7457667" lon="10.0409767"><ele>389.0</ele><time>2026-04-04T12:30:06.989Z</time></trkpt><trkpt lat="44.74582" lon="10.0408767"><ele>389.0</ele><time>2026-04-04T12:30:07.989Z</time></trkpt><trkpt lat="44.74587" lon="10.0407467"><ele>389.0</ele><time>2026-04-04T12:30:08.988Z</time></trkpt><trkpt lat="44.745925" lon="10.04061"><ele>389.0</ele><time>2026-04-04T12:30:09.989Z</time></trkpt><trkpt lat="44.7459883" lon="10.0404617"><ele>387.2</ele><time>2026-04-04T12:30:10.988Z</time></trkpt><trkpt lat="44.746045" lon="10.0403183"><ele>385.4</ele><time>2026-04-04T12:30:11.988Z</time></trkpt><trkpt lat="44.7460967" lon="10.0401767"><ele>383.6</ele><time>2026-04-04T12:30:12.988Z</time></trkpt><trkpt lat="44.746145" lon="10.0400433"><ele>381.8</ele><time>2026-04-04T12:30:13.988Z</time></trkpt><trkpt lat="44.7461967" lon="10.03992"><ele>380.0</ele><time>2026-04-04T12:30:14.988Z</time></trkpt><trkpt lat="44.7462367" lon="10.0398217"><ele>380.0</ele><time>2026-04-04T12:30:15.989Z</time></trkpt><trkpt lat="44.74627" lon="10.0397017"><ele>380.0</ele><time>2026-04-04T12:30:17.988Z</time></trkpt><trkpt lat="44.746175" lon="10.0396233"><ele>380.0</ele><time>2026-04-04T12:30:28.988Z</time></trkpt><trkpt lat="44.746115" lon="10.0395517"><ele>380.0</ele><time>2026-04-04T12:30:29.988Z</time></trkpt><trkpt lat="44.7460433" lon="10.0394633"><ele>380.0</ele><time>2026-04-04T12:30:30.989Z</time></trkpt><trkpt lat="44.7459767" lon="10.039375"><ele>378.5</ele><time>2026-04-04T12:30:31.988Z</time></trkpt><trkpt lat="44.74591" lon="10.03929"><ele>377.0</ele><time>2026-04-04T12:30:32.989Z</time></trkpt><trkpt lat="44.7458517" lon="10.039205"><ele>375.5</ele><time>2026-04-04T12:30:33.989Z</time></trkpt><trkpt lat="44.745795" lon="10.0391183"><ele>374.0</ele><time>2026-04-04T12:30:34.989Z</time></trkpt><trkpt lat="44.7457383" lon="10.03903"><ele>372.5</ele><time>2026-04-04T12:30:35.989Z</time></trkpt><trkpt lat="44.7456817" lon="10.0389517"><ele>371.0</ele><time>2026-04-04T12:30:36.988Z</time></trkpt><trkpt lat="44.7456217" lon="10.0388833"><ele>370.57142857142856</ele><time>2026-04-04T12:30:37.988Z</time></trkpt><trkpt lat="44.7455683" lon="10.03881"><ele>370.1428571428571</ele><time>2026-04-04T12:30:38.988Z</time></trkpt><trkpt lat="44.7455133" lon="10.038735"><ele>369.7142857142857</ele><time>2026-04-04T12:30:39.988Z</time></trkpt><trkpt lat="44.7454583" lon="10.0386617"><ele>369.2857142857143</ele><time>2026-04-04T12:30:40.989Z</time></trkpt><trkpt lat="44.7454167" lon="10.03859"><ele>368.85714285714283</ele><time>2026-04-04T12:30:41.989Z</time></trkpt><trkpt lat="44.7453567" lon="10.038515"><ele>368.42857142857144</ele><time>2026-04-04T12:30:42.988Z</time></trkpt><trkpt lat="44.7453067" lon="10.0384467"><ele>368.0</ele><time>2026-04-04T12:30:43.988Z</time></trkpt><trkpt lat="44.74525" lon="10.03838"><ele>367.1666666666667</ele><time>2026-04-04T12:30:44.988Z</time></trkpt><trkpt lat="44.7451883" lon="10.0383217"><ele>366.33333333333337</ele><time>2026-04-04T12:30:45.989Z</time></trkpt><trkpt lat="44.7451383" lon="10.0382633"><ele>365.5</ele><time>2026-04-04T12:30:46.988Z</time></trkpt><trkpt lat="44.74504" lon="10.0381467"><ele>364.6666666666667</ele><time>2026-04-04T12:30:48.988Z</time></trkpt><trkpt lat="44.7449967" lon="10.0380817"><ele>363.8333333333333</ele><time>2026-04-04T12:30:49.989Z</time></trkpt><trkpt lat="44.7449533" lon="10.0380133"><ele>363.0</ele><time>2026-04-04T12:30:50.989Z</time></trkpt><trkpt lat="44.7449117" lon="10.03794"><ele>361.6666666666667</ele><time>2026-04-04T12:30:51.989Z</time></trkpt><trkpt lat="44.7448583" lon="10.0378833"><ele>360.3333333333333</ele><time>2026-04-04T12:30:52.988Z</time></trkpt><trkpt lat="44.7447917" lon="10.0378267"><ele>359.0</ele><time>2026-04-04T12:30:53.988Z</time></trkpt><trkpt lat="44.74472" lon="10.0377817"><ele>357.66666666666663</ele><time>2026-04-04T12:30:54.988Z</time></trkpt><trkpt lat="44.7446467" lon="10.03774"><ele>356.3333333333333</ele><time>2026-04-04T12:30:55.989Z</time></trkpt><trkpt lat="44.74457" lon="10.0376983"><ele>355.0</ele><time>2026-04-04T12:30:56.988Z</time></trkpt><trkpt lat="44.74449" lon="10.03766"><ele>355.0</ele><time>2026-04-04T12:30:57.988Z</time></trkpt><trkpt lat="44.744415" lon="10.0376117"><ele>355.0</ele><time>2026-04-04T12:30:58.988Z</time></trkpt><trkpt lat="44.7443533" lon="10.037555"><ele>355.0</ele><time>2026-04-04T12:30:59.988Z</time></trkpt><trkpt lat="44.744315" lon="10.0374833"><ele>355.0</ele><time>2026-04-04T12:31:00.989Z</time></trkpt><trkpt lat="44.7442933" lon="10.0374"><ele>355.0</ele><time>2026-04-04T12:31:01.988Z</time></trkpt><trkpt lat="44.74429" lon="10.0373017"><ele>355.0</ele><time>2026-04-04T12:31:02.989Z</time></trkpt><trkpt lat="44.7443017" lon="10.0371933"><ele>355.0</ele><time>2026-04-04T12:31:03.988Z</time></trkpt><trkpt lat="44.74433" lon="10.0370833"><ele>352.0</ele><time>2026-04-04T12:31:04.988Z</time></trkpt><trkpt lat="44.7443667" lon="10.0369467"><ele>349.0</ele><time>2026-04-04T12:31:05.988Z</time></trkpt><trkpt lat="44.7444017" lon="10.0368033"><ele>346.0</ele><time>2026-04-04T12:31:06.988Z</time></trkpt><trkpt lat="44.74443" lon="10.0366483"><ele>343.0</ele><time>2026-04-04T12:31:07.988Z</time></trkpt><trkpt lat="44.7444567" lon="10.0364867"><ele>340.0</ele><time>2026-04-04T12:31:08.989Z</time></trkpt><trkpt lat="44.744485" lon="10.0363317"><ele>337.25</ele><time>2026-04-04T12:31:09.988Z</time></trkpt><trkpt lat="44.744515" lon="10.036175"><ele>334.5</ele><time>2026-04-04T12:31:10.988Z</time></trkpt><trkpt lat="44.7445367" lon="10.036005"><ele>331.75</ele><time>2026-04-04T12:31:11.988Z</time></trkpt><trkpt lat="44.7445667" lon="10.0358467"><ele>329.0</ele><time>2026-04-04T12:31:12.988Z</time></trkpt><trkpt lat="44.7446183" lon="10.0357033"><ele>326.5</ele><time>2026-04-04T12:31:13.988Z</time></trkpt><trkpt lat="44.7446883" lon="10.0355733"><ele>324.0</ele><time>2026-04-04T12:31:14.988Z</time></trkpt><trkpt lat="44.7447583" lon="10.03545"><ele>321.5</ele><time>2026-04-04T12:31:15.989Z</time></trkpt><trkpt lat="44.7448367" lon="10.0353217"><ele>319.0</ele><time>2026-04-04T12:31:16.989Z</time></trkpt><trkpt lat="44.7449133" lon="10.0351917"><ele>319.0</ele><time>2026-04-04T12:31:17.988Z</time></trkpt><trkpt lat="44.7449767" lon="10.0350583"><ele>319.0</ele><time>2026-04-04T12:31:18.988Z</time></trkpt><trkpt lat="44.7450367" lon="10.0349283"><ele>319.0</ele><time>2026-04-04T12:31:19.988Z</time></trkpt><trkpt lat="44.745095" lon="10.0348017"><ele>319.0</ele><time>2026-04-04T12:31:20.989Z</time></trkpt><trkpt lat="44.7451467" lon="10.0346967"><ele>319.0</ele><time>2026-04-04T12:31:21.989Z</time></trkpt><trkpt lat="44.7451933" lon="10.0346"><ele>318.3333333333333</ele><time>2026-04-04T12:31:22.988Z</time></trkpt><trkpt lat="44.7452417" lon="10.0344983"><ele>317.66666666666663</ele><time>2026-04-04T12:31:23.988Z</time></trkpt><trkpt lat="44.7452883" lon="10.0343767"><ele>317.0</ele><time>2026-04-04T12:31:24.988Z</time></trkpt><trkpt lat="44.745335" lon="10.0342633"><ele>316.3333333333333</ele><time>2026-04-04T12:31:25.988Z</time></trkpt><trkpt lat="44.745385" lon="10.0341717"><ele>315.6666666666667</ele><time>2026-04-04T12:31:26.988Z</time></trkpt><trkpt lat="44.7454583" lon="10.0341117"><ele>315.0</ele><time>2026-04-04T12:31:27.989Z</time></trkpt><trkpt lat="44.7455267" lon="10.034075"><ele>313.0</ele><time>2026-04-04T12:31:28.988Z</time></trkpt><trkpt lat="44.7455933" lon="10.03404"><ele>311.0</ele><time>2026-04-04T12:31:29.989Z</time></trkpt><trkpt lat="44.7456467" lon="10.033985"><ele>309.0</ele><time>2026-04-04T12:31:30.989Z</time></trkpt><trkpt lat="44.7456683" lon="10.0338567"><ele>307.0</ele><time>2026-04-04T12:31:32.989Z</time></trkpt><trkpt lat="44.7456183" lon="10.0337783"><ele>305.0</ele><time>2026-04-04T12:31:33.989Z</time></trkpt><trkpt lat="44.745525" lon="10.0337117"><ele>303.0</ele><time>2026-04-04T12:31:34.988Z</time></trkpt><trkpt lat="44.745395" lon="10.0336767"><ele>303.0</ele><time>2026-04-04T12:31:35.988Z</time></trkpt><trkpt lat="44.7452583" lon="10.0336733"><ele>303.0</ele><time>2026-04-04T12:31:36.989Z</time></trkpt><trkpt lat="44.7451433" lon="10.0336983"><ele>303.0</ele><time>2026-04-04T12:31:37.988Z</time></trkpt><trkpt lat="44.7450467" lon="10.0337267"><ele>303.0</ele><time>2026-04-04T12:31:38.988Z</time></trkpt><trkpt lat="44.7449533" lon="10.03375"><ele>303.0</ele><time>2026-04-04T12:31:39.988Z</time></trkpt><trkpt lat="44.7448633" lon="10.0337517"><ele>302.6</ele><time>2026-04-04T12:31:40.988Z</time></trkpt><trkpt lat="44.7447783" lon="10.03371"><ele>302.20000000000005</ele><time>2026-04-04T12:31:41.989Z</time></trkpt><trkpt lat="44.74473" lon="10.0336133"><ele>301.8</ele><time>2026-04-04T12:31:42.988Z</time></trkpt><trkpt lat="44.7447067" lon="10.033485"><ele>301.40000000000003</ele><time>2026-04-04T12:31:43.989Z</time></trkpt><trkpt lat="44.7447433" lon="10.0333417"><ele>301.0</ele><time>2026-04-04T12:31:44.988Z</time></trkpt><trkpt lat="44.7448117" lon="10.033185"><ele>298.25</ele><time>2026-04-04T12:31:45.989Z</time></trkpt><trkpt lat="44.7448867" lon="10.0330317"><ele>295.5</ele><time>2026-04-04T12:31:46.989Z</time></trkpt><trkpt lat="44.74496" lon="10.0328783"><ele>292.75</ele><time>2026-04-04T12:31:47.989Z</time></trkpt><trkpt lat="44.7450583" lon="10.0327533"><ele>290.0</ele><time>2026-04-04T12:31:48.988Z</time></trkpt><trkpt lat="44.7451733" lon="10.0326817"><ele>290.0</ele><time>2026-04-04T12:31:49.989Z</time></trkpt><trkpt lat="44.745275" lon="10.0326333"><ele>290.0</ele><time>2026-04-04T12:31:50.988Z</time></trkpt><trkpt lat="44.7453667" lon="10.0325767"><ele>290.0</ele><time>2026-04-04T12:31:51.988Z</time></trkpt><trkpt lat="44.7454567" lon="10.0325083"><ele>290.0</ele><time>2026-04-04T12:31:52.989Z</time></trkpt><trkpt lat="44.745545" lon="10.03244"><ele>290.0</ele><time>2026-04-04T12:31:53.988Z</time></trkpt><trkpt lat="44.745645" lon="10.0323733"><ele>289.0</ele><time>2026-04-04T12:31:54.988Z</time></trkpt><trkpt lat="44.7457567" lon="10.0323233"><ele>288.0</ele><time>2026-04-04T12:31:55.988Z</time></trkpt><trkpt lat="44.745865" lon="10.0323017"><ele>287.0</ele><time>2026-04-04T12:31:56.988Z</time></trkpt><trkpt lat="44.74598" lon="10.032285"><ele>286.0</ele><time>2026-04-04T12:31:57.989Z</time></trkpt><trkpt lat="44.7460867" lon="10.0322417"><ele>286.0</ele><time>2026-04-04T12:31:58.988Z</time></trkpt><trkpt lat="44.74619" lon="10.0321533"><ele>286.0</ele><time>2026-04-04T12:31:59.988Z</time></trkpt><trkpt lat="44.746285" lon="10.03202"><ele>286.0</ele><time>2026-04-04T12:32:00.988Z</time></trkpt><trkpt lat="44.7463567" lon="10.0318667"><ele>286.0</ele><time>2026-04-04T12:32:01.988Z</time></trkpt><trkpt lat="44.7464233" lon="10.0317017"><ele>286.40000000000003</ele><time>2026-04-04T12:32:02.988Z</time></trkpt><trkpt lat="44.7464983" lon="10.0315633"><ele>286.8</ele><time>2026-04-04T12:32:03.988Z</time></trkpt><trkpt lat="44.7465833" lon="10.0314533"><ele>287.20000000000005</ele><time>2026-04-04T12:32:04.989Z</time></trkpt><trkpt lat="44.746675" lon="10.0313817"><ele>287.6</ele><time>2026-04-04T12:32:05.988Z</time></trkpt><trkpt lat="44.746775" lon="10.03136"><ele>288.0</ele><time>2026-04-04T12:32:06.989Z</time></trkpt><trkpt lat="44.746885" lon="10.031335"><ele>288.0</ele><time>2026-04-04T12:32:07.988Z</time></trkpt><trkpt lat="44.746985" lon="10.0312767"><ele>288.0</ele><time>2026-04-04T12:32:08.988Z</time></trkpt><trkpt lat="44.7470783" lon="10.0311917"><ele>288.0</ele><time>2026-04-04T12:32:09.988Z</time></trkpt><trkpt lat="44.7471483" lon="10.031065"><ele>288.0</ele><time>2026-04-04T12:32:10.988Z</time></trkpt><trkpt lat="44.7471933" lon="10.0308917"><ele>284.0</ele><time>2026-04-04T12:32:11.989Z</time></trkpt><trkpt lat="44.747235" lon="10.0307067"><ele>280.0</ele><time>2026-04-04T12:32:12.988Z</time></trkpt><trkpt lat="44.7472767" lon="10.0305417"><ele>276.0</ele><time>2026-04-04T12:32:13.988Z</time></trkpt><trkpt lat="44.7473317" lon="10.0304017"><ele>272.0</ele><time>2026-04-04T12:32:14.988Z</time></trkpt><trkpt lat="44.74739" lon="10.03029"><ele>272.0</ele><time>2026-04-04T12:32:15.988Z</time></trkpt><trkpt lat="44.7474333" lon="10.0302067"><ele>272.0</ele><time>2026-04-04T12:32:16.988Z</time></trkpt><trkpt lat="44.747455" lon="10.0300683"><ele>272.0</ele><time>2026-04-04T12:32:18.988Z</time></trkpt><trkpt lat="44.7473533" lon="10.0300667"><ele>272.0</ele><time>2026-04-04T12:32:20.989Z</time></trkpt><trkpt lat="44.7472917" lon="10.0301617"><ele>272.0</ele><time>2026-04-04T12:32:21.988Z</time></trkpt><trkpt lat="44.7472267" lon="10.0303"><ele>272.0</ele><time>2026-04-04T12:32:22.988Z</time></trkpt><trkpt lat="44.7471683" lon="10.0303917"><ele>272.0</ele><time>2026-04-04T12:32:23.989Z</time></trkpt><trkpt lat="44.7470617" lon="10.0304117"><ele>272.0</ele><time>2026-04-04T12:32:25.988Z</time></trkpt><trkpt lat="44.74702" lon="10.0302183"><ele>272.0</ele><time>2026-04-04T12:32:27.988Z</time></trkpt><trkpt lat="44.747045" lon="10.0300617"><ele>269.0</ele><time>2026-04-04T12:32:28.989Z</time></trkpt><trkpt lat="44.7470833" lon="10.0298983"><ele>266.0</ele><time>2026-04-04T12:32:29.989Z</time></trkpt><trkpt lat="44.747135" lon="10.02972"><ele>263.0</ele><time>2026-04-04T12:32:30.989Z</time></trkpt><trkpt lat="44.747185" lon="10.0295283"><ele>260.0</ele><time>2026-04-04T12:32:31.988Z</time></trkpt><trkpt lat="44.74724" lon="10.0293417"><ele>258.25</ele><time>2026-04-04T12:32:32.988Z</time></trkpt><trkpt lat="44.7472817" lon="10.0291417"><ele>256.5</ele><time>2026-04-04T12:32:33.988Z</time></trkpt><trkpt lat="44.74733" lon="10.02894"><ele>254.75</ele><time>2026-04-04T12:32:34.988Z</time></trkpt><trkpt lat="44.7473783" lon="10.0287417"><ele>253.0</ele><time>2026-04-04T12:32:35.988Z</time></trkpt><trkpt lat="44.747415" lon="10.0285383"><ele>253.0</ele><time>2026-04-04T12:32:36.989Z</time></trkpt><trkpt lat="44.7474583" lon="10.0283367"><ele>253.0</ele><time>2026-04-04T12:32:37.988Z</time></trkpt><trkpt lat="44.7474883" lon="10.028135"><ele>253.0</ele><time>2026-04-04T12:32:38.989Z</time></trkpt><trkpt lat="44.7475183" lon="10.0279333"><ele>253.0</ele><time>2026-04-04T12:32:39.988Z</time></trkpt><trkpt lat="44.7475333" lon="10.0277383"><ele>251.0</ele><time>2026-04-04T12:32:40.988Z</time></trkpt><trkpt lat="44.74755" lon="10.02756"><ele>249.0</ele><time>2026-04-04T12:32:41.989Z</time></trkpt><trkpt lat="44.7475517" lon="10.0273883"><ele>247.0</ele><time>2026-04-04T12:32:42.989Z</time></trkpt><trkpt lat="44.7475283" lon="10.02724"><ele>245.0</ele><time>2026-04-04T12:32:43.989Z</time></trkpt><trkpt lat="44.7474783" lon="10.027125"><ele>243.8</ele><time>2026-04-04T12:32:44.988Z</time></trkpt><trkpt lat="44.7474" lon="10.0270567"><ele>242.6</ele><time>2026-04-04T12:32:45.988Z</time></trkpt><trkpt lat="44.7473083" lon="10.0270367"><ele>241.39999999999998</ele><time>2026-04-04T12:32:46.988Z</time></trkpt><trkpt lat="44.747205" lon="10.0270667"><ele>240.2</ele><time>2026-04-04T12:32:47.988Z</time></trkpt><trkpt lat="44.7470883" lon="10.02713"><ele>239.0</ele><time>2026-04-04T12:32:48.989Z</time></trkpt><trkpt lat="44.74699" lon="10.027155"><ele>239.00000000000003</ele><time>2026-04-04T12:32:49.988Z</time></trkpt><trkpt lat="44.746905" lon="10.0271317"><ele>239.0</ele><time>2026-04-04T12:32:50.988Z</time></trkpt><trkpt lat="44.7468467" lon="10.0270633"><ele>239.0</ele><time>2026-04-04T12:32:51.989Z</time></trkpt><trkpt lat="44.746825" lon="10.026965"><ele>239.0</ele><time>2026-04-04T12:32:52.988Z</time></trkpt><trkpt lat="44.7468433" lon="10.02686"><ele>239.00000000000003</ele><time>2026-04-04T12:32:53.989Z</time></trkpt><trkpt lat="44.7468933" lon="10.0267467"><ele>239.0</ele><time>2026-04-04T12:32:54.989Z</time></trkpt><trkpt lat="44.7469717" lon="10.0266433"><ele>238.39999999999998</ele><time>2026-04-04T12:32:55.988Z</time></trkpt><trkpt lat="44.7470617" lon="10.0265583"><ele>237.79999999999998</ele><time>2026-04-04T12:32:56.988Z</time></trkpt><trkpt lat="44.74716" lon="10.0264933"><ele>237.20000000000002</ele><time>2026-04-04T12:32:57.988Z</time></trkpt><trkpt lat="44.7472567" lon="10.0264383"><ele>236.60000000000002</ele><time>2026-04-04T12:32:58.989Z</time></trkpt><trkpt lat="44.747355" lon="10.02639"><ele>236.0</ele><time>2026-04-04T12:32:59.988Z</time></trkpt><trkpt lat="44.74746" lon="10.0263533"><ele>236.0</ele><time>2026-04-04T12:33:00.989Z</time></trkpt><trkpt lat="44.747565" lon="10.0263217"><ele>236.00000000000003</ele><time>2026-04-04T12:33:01.989Z</time></trkpt><trkpt lat="44.747675" lon="10.0263033"><ele>236.00000000000003</ele><time>2026-04-04T12:33:02.988Z</time></trkpt><trkpt lat="44.7477783" lon="10.0262933"><ele>236.0</ele><time>2026-04-04T12:33:03.989Z</time></trkpt><trkpt lat="44.7478817" lon="10.0262933"><ele>236.0</ele><time>2026-04-04T12:33:04.989Z</time></trkpt><trkpt lat="44.7479867" lon="10.0263"><ele>235.60000000000002</ele><time>2026-04-04T12:33:05.988Z</time></trkpt><trkpt lat="44.748085" lon="10.0263067"><ele>235.20000000000002</ele><time>2026-04-04T12:33:06.988Z</time></trkpt><trkpt lat="44.7481933" lon="10.0263083"><ele>234.79999999999998</ele><time>2026-04-04T12:33:07.988Z</time></trkpt><trkpt lat="44.7482967" lon="10.026305"><ele>234.39999999999998</ele><time>2026-04-04T12:33:08.989Z</time></trkpt><trkpt lat="44.7483967" lon="10.0263017"><ele>234.0</ele><time>2026-04-04T12:33:09.988Z</time></trkpt><trkpt lat="44.7484967" lon="10.0262983"><ele>235.33333333333334</ele><time>2026-04-04T12:33:10.988Z</time></trkpt><trkpt lat="44.7485817" lon="10.026305"><ele>236.66666666666669</ele><time>2026-04-04T12:33:11.988Z</time></trkpt><trkpt lat="44.74866" lon="10.0262967"><ele>238.0</ele><time>2026-04-04T12:33:12.989Z</time></trkpt><trkpt lat="44.74873" lon="10.0262967"><ele>239.33333333333334</ele><time>2026-04-04T12:33:13.988Z</time></trkpt><trkpt lat="44.748835" lon="10.0262933"><ele>240.66666666666669</ele><time>2026-04-04T12:33:15.989Z</time></trkpt><trkpt lat="44.7488783" lon="10.0262217"><ele>242.0</ele><time>2026-04-04T12:33:17.988Z</time></trkpt><trkpt lat="44.74883" lon="10.0260733"><ele>242.0</ele><time>2026-04-04T12:33:19.988Z</time></trkpt><trkpt lat="44.7487783" lon="10.0259617"><ele>242.0</ele><time>2026-04-04T12:33:20.989Z</time></trkpt><trkpt lat="44.748725" lon="10.025825"><ele>242.0</ele><time>2026-04-04T12:33:21.988Z</time></trkpt><trkpt lat="44.7486633" lon="10.0256767"><ele>242.0</ele><time>2026-04-04T12:33:22.988Z</time></trkpt><trkpt lat="44.748595" lon="10.02554"><ele>242.0</ele><time>2026-04-04T12:33:23.988Z</time></trkpt><trkpt lat="44.74851" lon="10.0254133"><ele>240.75</ele><time>2026-04-04T12:33:24.989Z</time></trkpt><trkpt lat="44.7484067" lon="10.0253117"><ele>239.5</ele><time>2026-04-04T12:33:25.988Z</time></trkpt><trkpt lat="44.7482833" lon="10.025255"><ele>238.25</ele><time>2026-04-04T12:33:26.989Z</time></trkpt><trkpt lat="44.7481533" lon="10.0252433"><ele>237.0</ele><time>2026-04-04T12:33:27.988Z</time></trkpt><trkpt lat="44.7480267" lon="10.0252983"><ele>237.0</ele><time>2026-04-04T12:33:28.988Z</time></trkpt><trkpt lat="44.7479083" lon="10.0253917"><ele>237.0</ele><time>2026-04-04T12:33:29.989Z</time></trkpt><trkpt lat="44.7477783" lon="10.0255117"><ele>237.0</ele><time>2026-04-04T12:33:30.988Z</time></trkpt><trkpt lat="44.7476517" lon="10.0256333"><ele>237.0</ele><time>2026-04-04T12:33:31.988Z</time></trkpt><trkpt lat="44.747515" lon="10.025745"><ele>236.66666666666669</ele><time>2026-04-04T12:33:32.989Z</time></trkpt><trkpt lat="44.74738" lon="10.0258417"><ele>236.33333333333334</ele><time>2026-04-04T12:33:33.988Z</time></trkpt><trkpt lat="44.7472317" lon="10.0259017"><ele>236.0</ele><time>2026-04-04T12:33:34.989Z</time></trkpt><trkpt lat="44.74708" lon="10.0259283"><ele>236.0</ele><time>2026-04-04T12:33:35.988Z</time></trkpt><trkpt lat="44.7469283" lon="10.0259383"><ele>236.0</ele><time>2026-04-04T12:33:36.989Z</time></trkpt><trkpt lat="44.746775" lon="10.02593"><ele>236.0</ele><time>2026-04-04T12:33:37.988Z</time></trkpt><trkpt lat="44.7466317" lon="10.0259033"><ele>235.66666666666669</ele><time>2026-04-04T12:33:38.988Z</time></trkpt><trkpt lat="44.7464917" lon="10.0258583"><ele>235.33333333333331</ele><time>2026-04-04T12:33:39.988Z</time></trkpt><trkpt lat="44.7463417" lon="10.025795"><ele>235.0</ele><time>2026-04-04T12:33:40.988Z</time></trkpt><trkpt lat="44.7461983" lon="10.0257333"><ele>236.0</ele><time>2026-04-04T12:33:41.989Z</time></trkpt><trkpt lat="44.7460517" lon="10.0256567"><ele>237.0</ele><time>2026-04-04T12:33:42.988Z</time></trkpt><trkpt lat="44.7459033" lon="10.0255683"><ele>238.0</ele><time>2026-04-04T12:33:43.988Z</time></trkpt><trkpt lat="44.7457517" lon="10.025475"><ele>238.0</ele><time>2026-04-04T12:33:44.988Z</time></trkpt><trkpt lat="44.7456" lon="10.025375"><ele>238.0</ele><time>2026-04-04T12:33:45.988Z</time></trkpt><trkpt lat="44.7454517" lon="10.0252567"><ele>238.0</ele><time>2026-04-04T12:33:46.988Z</time></trkpt><trkpt lat="44.7452983" lon="10.02513"><ele>239.33333333333331</ele><time>2026-04-04T12:33:47.988Z</time></trkpt><trkpt lat="44.745155" lon="10.0249983"><ele>240.66666666666669</ele><time>2026-04-04T12:33:48.988Z</time></trkpt><trkpt lat="44.7450033" lon="10.0248617"><ele>242.0</ele><time>2026-04-04T12:33:49.988Z</time></trkpt><trkpt lat="44.7448583" lon="10.0247183"><ele>242.0</ele><time>2026-04-04T12:33:50.989Z</time></trkpt><trkpt lat="44.7447117" lon="10.0245733"><ele>242.0</ele><time>2026-04-04T12:33:51.989Z</time></trkpt><trkpt lat="44.7445683" lon="10.024435"><ele>242.0</ele><time>2026-04-04T12:33:52.988Z</time></trkpt><trkpt lat="44.744425" lon="10.0242967"><ele>241.66666666666669</ele><time>2026-04-04T12:33:53.988Z</time></trkpt><trkpt lat="44.7442833" lon="10.0241533"><ele>241.33333333333331</ele><time>2026-04-04T12:33:54.988Z</time></trkpt><trkpt lat="44.7441333" lon="10.024005"><ele>241.0</ele><time>2026-04-04T12:33:55.989Z</time></trkpt><trkpt lat="44.7439817" lon="10.0238533"><ele>242.0</ele><time>2026-04-04T12:33:56.988Z</time></trkpt><trkpt lat="44.743825" lon="10.0237083"><ele>243.0</ele><time>2026-04-04T12:33:57.988Z</time></trkpt><trkpt lat="44.74367" lon="10.0235583"><ele>244.0</ele><time>2026-04-04T12:33:58.988Z</time></trkpt><trkpt lat="44.7435133" lon="10.0234033"><ele>247.33333333333331</ele><time>2026-04-04T12:33:59.988Z</time></trkpt><trkpt lat="44.7433583" lon="10.0232433"><ele>250.66666666666669</ele><time>2026-04-04T12:34:00.988Z</time></trkpt><trkpt lat="44.7432033" lon="10.0230933"><ele>254.0</ele><time>2026-04-04T12:34:01.988Z</time></trkpt><trkpt lat="44.7430467" lon="10.0229417"><ele>254.0</ele><time>2026-04-04T12:34:02.988Z</time></trkpt><trkpt lat="44.7428867" lon="10.0228083"><ele>254.0</ele><time>2026-04-04T12:34:03.989Z</time></trkpt><trkpt lat="44.74275" lon="10.0226967"><ele>254.0</ele><time>2026-04-04T12:34:04.988Z</time></trkpt><trkpt lat="44.7426117" lon="10.0226033"><ele>254.0</ele><time>2026-04-04T12:34:05.988Z</time></trkpt><trkpt lat="44.74246" lon="10.0225233"><ele>254.0</ele><time>2026-04-04T12:34:06.988Z</time></trkpt><trkpt lat="44.7423183" lon="10.0224533"><ele>254.0</ele><time>2026-04-04T12:34:07.989Z</time></trkpt><trkpt lat="44.7421683" lon="10.0223817"><ele>263.6666666666667</ele><time>2026-04-04T12:34:08.989Z</time></trkpt><trkpt lat="44.74202" lon="10.0223233"><ele>273.3333333333333</ele><time>2026-04-04T12:34:09.988Z</time></trkpt><trkpt lat="44.7418717" lon="10.02226"><ele>283.0</ele><time>2026-04-04T12:34:10.989Z</time></trkpt><trkpt lat="44.7417333" lon="10.0221967"><ele>285.75</ele><time>2026-04-04T12:34:11.989Z</time></trkpt><trkpt lat="44.7415883" lon="10.0221267"><ele>288.5</ele><time>2026-04-04T12:34:12.988Z</time></trkpt><trkpt lat="44.7414583" lon="10.0220583"><ele>291.25</ele><time>2026-04-04T12:34:13.988Z</time></trkpt><trkpt lat="44.7413267" lon="10.0220133"><ele>294.0</ele><time>2026-04-04T12:34:14.988Z</time></trkpt><trkpt lat="44.7412083" lon="10.02197"><ele>294.0</ele><time>2026-04-04T12:34:15.989Z</time></trkpt><trkpt lat="44.7410933" lon="10.021915"><ele>294.0</ele><time>2026-04-04T12:34:16.988Z</time></trkpt><trkpt lat="44.740975" lon="10.02183"><ele>294.0</ele><time>2026-04-04T12:34:17.988Z</time></trkpt><trkpt lat="44.7408533" lon="10.0217633"><ele>294.0</ele><time>2026-04-04T12:34:18.989Z</time></trkpt><trkpt lat="44.7407383" lon="10.0216867"><ele>299.75</ele><time>2026-04-04T12:34:19.988Z</time></trkpt><trkpt lat="44.7406283" lon="10.021615"><ele>305.5</ele><time>2026-04-04T12:34:20.988Z</time></trkpt><trkpt lat="44.7405217" lon="10.02155"><ele>311.25</ele><time>2026-04-04T12:34:21.989Z</time></trkpt><trkpt lat="44.7404167" lon="10.0214967"><ele>317.0</ele><time>2026-04-04T12:34:22.989Z</time></trkpt><trkpt lat="44.740305" lon="10.0214567"><ele>311.2</ele><time>2026-04-04T12:34:23.988Z</time></trkpt><trkpt lat="44.7402083" lon="10.0214033"><ele>305.4</ele><time>2026-04-04T12:34:24.988Z</time></trkpt><trkpt lat="44.74012" lon="10.02133"><ele>299.6</ele><time>2026-04-04T12:34:25.988Z</time></trkpt><trkpt lat="44.7400467" lon="10.021225"><ele>293.8</ele><time>2026-04-04T12:34:26.988Z</time></trkpt><trkpt lat="44.7400017" lon="10.0210917"><ele>288.0</ele><time>2026-04-04T12:34:27.989Z</time></trkpt><trkpt lat="44.73998" lon="10.0209467"><ele>288.0</ele><time>2026-04-04T12:34:28.988Z</time></trkpt><trkpt lat="44.7399733" lon="10.0208183"><ele>288.0</ele><time>2026-04-04T12:34:29.988Z</time></trkpt><trkpt lat="44.739965" lon="10.0207083"><ele>288.0</ele><time>2026-04-04T12:34:30.988Z</time></trkpt><trkpt lat="44.7399467" lon="10.020615"><ele>288.0</ele><time>2026-04-04T12:34:31.988Z</time></trkpt><trkpt lat="44.739915" lon="10.0205317"><ele>288.0</ele><time>2026-04-04T12:34:32.988Z</time></trkpt><trkpt lat="44.7398617" lon="10.020455"><ele>288.0</ele><time>2026-04-04T12:34:33.988Z</time></trkpt><trkpt lat="44.7397967" lon="10.0203883"><ele>289.0</ele><time>2026-04-04T12:34:34.988Z</time></trkpt><trkpt lat="44.7397383" lon="10.020325"><ele>290.0</ele><time>2026-04-04T12:34:35.988Z</time></trkpt><trkpt lat="44.739675" lon="10.0202467"><ele>291.0</ele><time>2026-04-04T12:34:36.988Z</time></trkpt><trkpt lat="44.7396167" lon="10.0201617"><ele>292.0</ele><time>2026-04-04T12:34:37.989Z</time></trkpt><trkpt lat="44.7395567" lon="10.0200667"><ele>293.0</ele><time>2026-04-04T12:34:38.988Z</time></trkpt><trkpt lat="44.7394917" lon="10.019965"><ele>294.0</ele><time>2026-04-04T12:34:39.988Z</time></trkpt><trkpt lat="44.7394433" lon="10.0198617"><ele>294.1666666666667</ele><time>2026-04-04T12:34:40.988Z</time></trkpt><trkpt lat="44.7394017" lon="10.019755"><ele>294.3333333333333</ele><time>2026-04-04T12:34:41.989Z</time></trkpt><trkpt lat="44.7393483" lon="10.019665"><ele>294.5</ele><time>2026-04-04T12:34:42.988Z</time></trkpt><trkpt lat="44.73928" lon="10.0195933"><ele>294.66666666666663</ele><time>2026-04-04T12:34:43.988Z</time></trkpt><trkpt lat="44.7392017" lon="10.0195333"><ele>294.8333333333333</ele><time>2026-04-04T12:34:44.988Z</time></trkpt><trkpt lat="44.7391317" lon="10.0194833"><ele>295.0</ele><time>2026-04-04T12:34:45.988Z</time></trkpt><trkpt lat="44.7390533" lon="10.0194183"><ele>293.4</ele><time>2026-04-04T12:34:46.988Z</time></trkpt><trkpt lat="44.7389717" lon="10.0193417"><ele>291.8</ele><time>2026-04-04T12:34:47.988Z</time></trkpt><trkpt lat="44.7388867" lon="10.0192517"><ele>290.2</ele><time>2026-04-04T12:34:48.989Z</time></trkpt><trkpt lat="44.7388117" lon="10.01917"><ele>288.6</ele><time>2026-04-04T12:34:49.988Z</time></trkpt><trkpt lat="44.7387383" lon="10.01909"><ele>287.0</ele><time>2026-04-04T12:34:50.988Z</time></trkpt><trkpt lat="44.7386733" lon="10.0190167"><ele>287.0</ele><time>2026-04-04T12:34:51.988Z</time></trkpt><trkpt lat="44.738615" lon="10.01894"><ele>287.0</ele><time>2026-04-04T12:34:52.988Z</time></trkpt><trkpt lat="44.7385617" lon="10.01885"><ele>287.0</ele><time>2026-04-04T12:34:53.988Z</time></trkpt><trkpt lat="44.73851" lon="10.0187517"><ele>287.0</ele><time>2026-04-04T12:34:54.988Z</time></trkpt><trkpt lat="44.7384617" lon="10.0186467"><ele>287.0</ele><time>2026-04-04T12:34:55.988Z</time></trkpt><trkpt lat="44.7384083" lon="10.018545"><ele>287.0</ele><time>2026-04-04T12:34:56.989Z</time></trkpt><trkpt lat="44.7383433" lon="10.01845"><ele>286.0</ele><time>2026-04-04T12:34:57.988Z</time></trkpt><trkpt lat="44.738285" lon="10.0183617"><ele>285.0</ele><time>2026-04-04T12:34:58.989Z</time></trkpt><trkpt lat="44.7382333" lon="10.0182733"><ele>284.0</ele><time>2026-04-04T12:34:59.988Z</time></trkpt><trkpt lat="44.7381983" lon="10.018175"><ele>283.0</ele><time>2026-04-04T12:35:00.989Z</time></trkpt><trkpt lat="44.7381667" lon="10.0180533"><ele>282.0</ele><time>2026-04-04T12:35:01.988Z</time></trkpt><trkpt lat="44.7381417" lon="10.017905"><ele>281.0</ele><time>2026-04-04T12:35:02.988Z</time></trkpt><trkpt lat="44.738135" lon="10.01776"><ele>281.40000000000003</ele><time>2026-04-04T12:35:03.988Z</time></trkpt><trkpt lat="44.7381417" lon="10.0176233"><ele>281.8</ele><time>2026-04-04T12:35:04.988Z</time></trkpt><trkpt lat="44.73814" lon="10.017475"><ele>282.20000000000005</ele><time>2026-04-04T12:35:05.988Z</time></trkpt><trkpt lat="44.73812" lon="10.017325"><ele>282.6</ele><time>2026-04-04T12:35:06.989Z</time></trkpt><trkpt lat="44.7380667" lon="10.0171867"><ele>283.0</ele><time>2026-04-04T12:35:07.988Z</time></trkpt><trkpt lat="44.7379917" lon="10.017055"><ele>283.0</ele><time>2026-04-04T12:35:08.989Z</time></trkpt><trkpt lat="44.7379033" lon="10.0169217"><ele>283.0</ele><time>2026-04-04T12:35:09.988Z</time></trkpt><trkpt lat="44.73783" lon="10.0167867"><ele>283.0</ele><time>2026-04-04T12:35:10.988Z</time></trkpt><trkpt lat="44.7377633" lon="10.016635"><ele>283.0</ele><time>2026-04-04T12:35:11.988Z</time></trkpt><trkpt lat="44.7377033" lon="10.016465"><ele>281.75</ele><time>2026-04-04T12:35:12.988Z</time></trkpt><trkpt lat="44.7376317" lon="10.0162883"><ele>280.5</ele><time>2026-04-04T12:35:13.988Z</time></trkpt><trkpt lat="44.7375667" lon="10.0161083"><ele>279.25</ele><time>2026-04-04T12:35:14.989Z</time></trkpt><trkpt lat="44.7374967" lon="10.0159233"><ele>278.0</ele><time>2026-04-04T12:35:15.988Z</time></trkpt><trkpt lat="44.7374283" lon="10.0157433"><ele>278.0</ele><time>2026-04-04T12:35:16.988Z</time></trkpt><trkpt lat="44.7373517" lon="10.0155617"><ele>278.0</ele><time>2026-04-04T12:35:17.988Z</time></trkpt><trkpt lat="44.737285" lon="10.0153967"><ele>278.0</ele><time>2026-04-04T12:35:18.988Z</time></trkpt><trkpt lat="44.737225" lon="10.0152367"><ele>278.0</ele><time>2026-04-04T12:35:19.989Z</time></trkpt><trkpt lat="44.7371667" lon="10.0150667"><ele>277.75</ele><time>2026-04-04T12:35:20.988Z</time></trkpt><trkpt lat="44.7371167" lon="10.0148917"><ele>277.5</ele><time>2026-04-04T12:35:21.988Z</time></trkpt><trkpt lat="44.7370767" lon="10.0147117"><ele>277.25</ele><time>2026-04-04T12:35:22.989Z</time></trkpt><trkpt lat="44.7370467" lon="10.0145483"><ele>277.0</ele><time>2026-04-04T12:35:23.989Z</time></trkpt><trkpt lat="44.737015" lon="10.0143833"><ele>277.0</ele><time>2026-04-04T12:35:24.988Z</time></trkpt><trkpt lat="44.7369883" lon="10.0142317"><ele>277.0</ele><time>2026-04-04T12:35:25.989Z</time></trkpt><trkpt lat="44.7369633" lon="10.0140933"><ele>277.0</ele><time>2026-04-04T12:35:26.988Z</time></trkpt><trkpt lat="44.73694" lon="10.0139617"><ele>277.0</ele><time>2026-04-04T12:35:27.988Z</time></trkpt><trkpt lat="44.7369117" lon="10.0138483"><ele>277.0</ele><time>2026-04-04T12:35:28.989Z</time></trkpt><trkpt lat="44.7368783" lon="10.0137483"><ele>277.8333333333333</ele><time>2026-04-04T12:35:29.988Z</time></trkpt><trkpt lat="44.7368333" lon="10.013645"><ele>278.66666666666663</ele><time>2026-04-04T12:35:30.988Z</time></trkpt><trkpt lat="44.7367833" lon="10.013545"><ele>279.5</ele><time>2026-04-04T12:35:31.989Z</time></trkpt><trkpt lat="44.73674" lon="10.0134467"><ele>280.3333333333333</ele><time>2026-04-04T12:35:32.988Z</time></trkpt><trkpt lat="44.7366967" lon="10.01335"><ele>281.1666666666667</ele><time>2026-04-04T12:35:33.988Z</time></trkpt><trkpt lat="44.736655" lon="10.0132467"><ele>282.0</ele><time>2026-04-04T12:35:34.988Z</time></trkpt><trkpt lat="44.7366133" lon="10.0131467"><ele>282.8333333333333</ele><time>2026-04-04T12:35:35.988Z</time></trkpt><trkpt lat="44.7365767" lon="10.0130483"><ele>283.6666666666667</ele><time>2026-04-04T12:35:36.988Z</time></trkpt><trkpt lat="44.736555" lon="10.0129217"><ele>284.5</ele><time>2026-04-04T12:35:37.988Z</time></trkpt><trkpt lat="44.7365283" lon="10.0128067"><ele>285.33333333333337</ele><time>2026-04-04T12:35:38.989Z</time></trkpt><trkpt lat="44.7365167" lon="10.0126967"><ele>286.1666666666667</ele><time>2026-04-04T12:35:39.988Z</time></trkpt><trkpt lat="44.7365167" lon="10.012585"><ele>287.0</ele><time>2026-04-04T12:35:40.988Z</time></trkpt><trkpt lat="44.7365317" lon="10.0124767"><ele>289.1666666666667</ele><time>2026-04-04T12:35:41.988Z</time></trkpt><trkpt lat="44.7365533" lon="10.0123583"><ele>291.33333333333337</ele><time>2026-04-04T12:35:42.989Z</time></trkpt><trkpt lat="44.73657" lon="10.012245"><ele>293.5</ele><time>2026-04-04T12:35:43.988Z</time></trkpt><trkpt lat="44.73657" lon="10.01213"><ele>295.6666666666667</ele><time>2026-04-04T12:35:44.989Z</time></trkpt><trkpt lat="44.7365633" lon="10.0120167"><ele>297.8333333333333</ele><time>2026-04-04T12:35:45.988Z</time></trkpt><trkpt lat="44.7365483" lon="10.011905"><ele>300.0</ele><time>2026-04-04T12:35:46.989Z</time></trkpt><trkpt lat="44.7365167" lon="10.011785"><ele>303.8</ele><time>2026-04-04T12:35:47.988Z</time></trkpt><trkpt lat="44.736475" lon="10.0116533"><ele>307.6</ele><time>2026-04-04T12:35:48.988Z</time></trkpt><trkpt lat="44.736425" lon="10.011525"><ele>311.4</ele><time>2026-04-04T12:35:49.989Z</time></trkpt><trkpt lat="44.73638" lon="10.0114"><ele>315.2</ele><time>2026-04-04T12:35:50.988Z</time></trkpt><trkpt lat="44.736335" lon="10.0112667"><ele>319.0</ele><time>2026-04-04T12:35:51.988Z</time></trkpt><trkpt lat="44.736295" lon="10.0111467"><ele>319.0</ele><time>2026-04-04T12:35:52.989Z</time></trkpt><trkpt lat="44.73626" lon="10.01103"><ele>319.0</ele><time>2026-04-04T12:35:53.989Z</time></trkpt><trkpt lat="44.73624" lon="10.0109083"><ele>319.0</ele><time>2026-04-04T12:35:54.989Z</time></trkpt><trkpt lat="44.7362233" lon="10.0108033"><ele>319.0</ele><time>2026-04-04T12:35:55.988Z</time></trkpt><trkpt lat="44.736195" lon="10.0106967"><ele>319.0</ele><time>2026-04-04T12:35:56.989Z</time></trkpt><trkpt lat="44.736165" lon="10.0105883"><ele>319.0</ele><time>2026-04-04T12:35:57.988Z</time></trkpt><trkpt lat="44.73613" lon="10.0104883"><ele>319.0</ele><time>2026-04-04T12:35:58.989Z</time></trkpt><trkpt lat="44.736075" lon="10.0103867"><ele>319.0</ele><time>2026-04-04T12:35:59.989Z</time></trkpt><trkpt lat="44.7360217" lon="10.0103"><ele>319.0</ele><time>2026-04-04T12:36:00.988Z</time></trkpt><trkpt lat="44.7359617" lon="10.010215"><ele>319.0</ele><time>2026-04-04T12:36:01.988Z</time></trkpt><trkpt lat="44.735895" lon="10.0101267"><ele>319.0</ele><time>2026-04-04T12:36:02.989Z</time></trkpt><trkpt lat="44.7358283" lon="10.0100433"><ele>319.0</ele><time>2026-04-04T12:36:03.988Z</time></trkpt><trkpt lat="44.7357667" lon="10.0099617"><ele>319.0</ele><time>2026-04-04T12:36:04.988Z</time></trkpt><trkpt lat="44.7357183" lon="10.0098833"><ele>319.0</ele><time>2026-04-04T12:36:05.988Z</time></trkpt><trkpt lat="44.735675" lon="10.0098083"><ele>319.0</ele><time>2026-04-04T12:36:06.988Z</time></trkpt><trkpt lat="44.73559" lon="10.009675"><ele>319.0</ele><time>2026-04-04T12:36:08.988Z</time></trkpt><trkpt lat="44.7355483" lon="10.0095967"><ele>319.0</ele><time>2026-04-04T12:36:09.988Z</time></trkpt><trkpt lat="44.7355133" lon="10.0095083"><ele>319.0</ele><time>2026-04-04T12:36:10.988Z</time></trkpt><trkpt lat="44.7354917" lon="10.0094183"><ele>319.0</ele><time>2026-04-04T12:36:11.989Z</time></trkpt><trkpt lat="44.73548" lon="10.0093217"><ele>319.0</ele><time>2026-04-04T12:36:12.988Z</time></trkpt><trkpt lat="44.7354867" lon="10.0091417"><ele>319.0</ele><time>2026-04-04T12:36:14.988Z</time></trkpt><trkpt lat="44.7354967" lon="10.00905"><ele>319.0</ele><time>2026-04-04T12:36:15.988Z</time></trkpt><trkpt lat="44.7355133" lon="10.008955"><ele>319.0</ele><time>2026-04-04T12:36:16.989Z</time></trkpt><trkpt lat="44.735525" lon="10.008865"><ele>319.0</ele><time>2026-04-04T12:36:17.989Z</time></trkpt><trkpt lat="44.73554" lon="10.0087783"><ele>319.16666666666663</ele><time>2026-04-04T12:36:18.989Z</time></trkpt><trkpt lat="44.7355517" lon="10.0086867"><ele>319.3333333333333</ele><time>2026-04-04T12:36:19.989Z</time></trkpt><trkpt lat="44.735575" lon="10.0085217"><ele>319.5</ele><time>2026-04-04T12:36:21.989Z</time></trkpt><trkpt lat="44.7355867" lon="10.0084233"><ele>319.6666666666667</ele><time>2026-04-04T12:36:22.988Z</time></trkpt><trkpt lat="44.73559" lon="10.008315"><ele>319.83333333333337</ele><time>2026-04-04T12:36:23.988Z</time></trkpt><trkpt lat="44.7356" lon="10.0082217"><ele>320.0</ele><time>2026-04-04T12:36:24.989Z</time></trkpt><trkpt lat="44.7356117" lon="10.008125"><ele>321.1666666666667</ele><time>2026-04-04T12:36:25.988Z</time></trkpt><trkpt lat="44.7356217" lon="10.0080333"><ele>322.33333333333337</ele><time>2026-04-04T12:36:26.988Z</time></trkpt><trkpt lat="44.7356317" lon="10.0079367"><ele>323.5</ele><time>2026-04-04T12:36:27.988Z</time></trkpt><trkpt lat="44.7356433" lon="10.0078383"><ele>324.6666666666667</ele><time>2026-04-04T12:36:28.989Z</time></trkpt><trkpt lat="44.7356533" lon="10.0077467"><ele>325.8333333333333</ele><time>2026-04-04T12:36:29.988Z</time></trkpt><trkpt lat="44.73567" lon="10.00766"><ele>327.0</ele><time>2026-04-04T12:36:30.988Z</time></trkpt><trkpt lat="44.7357067" lon="10.007505"><ele>327.5</ele><time>2026-04-04T12:36:32.989Z</time></trkpt><trkpt lat="44.7357583" lon="10.0073483"><ele>328.0</ele><time>2026-04-04T12:36:34.988Z</time></trkpt><trkpt lat="44.7357867" lon="10.0072683"><ele>328.5</ele><time>2026-04-04T12:36:35.988Z</time></trkpt><trkpt lat="44.7357983" lon="10.0071733"><ele>329.0</ele><time>2026-04-04T12:36:36.988Z</time></trkpt><trkpt lat="44.7358067" lon="10.007075"><ele>329.5</ele><time>2026-04-04T12:36:37.988Z</time></trkpt><trkpt lat="44.7358133" lon="10.0069817"><ele>330.0</ele><time>2026-04-04T12:36:38.989Z</time></trkpt><trkpt lat="44.735825" lon="10.0068883"><ele>330.0</ele><time>2026-04-04T12:36:39.989Z</time></trkpt><trkpt lat="44.7358417" lon="10.0067967"><ele>330.0</ele><time>2026-04-04T12:36:40.988Z</time></trkpt><trkpt lat="44.7358867" lon="10.0066433"><ele>330.0</ele><time>2026-04-04T12:36:42.988Z</time></trkpt><trkpt lat="44.7359433" lon="10.0064933"><ele>330.0</ele><time>2026-04-04T12:36:44.988Z</time></trkpt><trkpt lat="44.736" lon="10.0063767"><ele>330.0</ele><time>2026-04-04T12:36:46.988Z</time></trkpt><trkpt lat="44.73605" lon="10.0062683"><ele>333.2</ele><time>2026-04-04T12:37:13.989Z</time></trkpt><trkpt lat="44.7361167" lon="10.0061517"><ele>336.4</ele><time>2026-04-04T12:37:15.988Z</time></trkpt><trkpt lat="44.7362217" lon="10.0060633"><ele>339.6</ele><time>2026-04-04T12:37:17.989Z</time></trkpt><trkpt lat="44.736285" lon="10.0060067"><ele>342.8</ele><time>2026-04-04T12:37:18.988Z</time></trkpt><trkpt lat="44.7363467" lon="10.005955"><ele>346.0</ele><time>2026-04-04T12:37:19.988Z</time></trkpt><trkpt lat="44.73642" lon="10.0059033"><ele>346.0</ele><time>2026-04-04T12:37:20.989Z</time></trkpt><trkpt lat="44.7364917" lon="10.005855"><ele>346.0</ele><time>2026-04-04T12:37:21.988Z</time></trkpt><trkpt lat="44.7365667" lon="10.0057983"><ele>346.0</ele><time>2026-04-04T12:37:22.988Z</time></trkpt><trkpt lat="44.7366417" lon="10.0057317"><ele>346.0</ele><time>2026-04-04T12:37:23.988Z</time></trkpt><trkpt lat="44.7367117" lon="10.0056683"><ele>346.0</ele><time>2026-04-04T12:37:24.988Z</time></trkpt><trkpt lat="44.736785" lon="10.0056"><ele>346.0</ele><time>2026-04-04T12:37:25.988Z</time></trkpt><trkpt lat="44.7368533" lon="10.0055283"><ele>346.5</ele><time>2026-04-04T12:37:26.989Z</time></trkpt><trkpt lat="44.7369183" lon="10.005455"><ele>347.0</ele><time>2026-04-04T12:37:27.988Z</time></trkpt><trkpt lat="44.73698" lon="10.005385"><ele>347.5</ele><time>2026-04-04T12:37:28.989Z</time></trkpt><trkpt lat="44.73704" lon="10.0053083"><ele>348.0</ele><time>2026-04-04T12:37:29.988Z</time></trkpt><trkpt lat="44.737095" lon="10.0052317"><ele>348.5</ele><time>2026-04-04T12:37:30.989Z</time></trkpt><trkpt lat="44.73715" lon="10.0051683"><ele>349.0</ele><time>2026-04-04T12:37:31.988Z</time></trkpt><trkpt lat="44.7371933" lon="10.005095"><ele>349.0</ele><time>2026-04-04T12:37:32.988Z</time></trkpt><trkpt lat="44.73722" lon="10.0050117"><ele>349.0</ele><time>2026-04-04T12:37:33.988Z</time></trkpt><trkpt lat="44.7372067" lon="10.0048367"><ele>349.0</ele><time>2026-04-04T12:37:35.988Z</time></trkpt><trkpt lat="44.7371783" lon="10.004725"><ele>349.0</ele><time>2026-04-04T12:37:36.988Z</time></trkpt><trkpt lat="44.7371383" lon="10.00461"><ele>349.0</ele><time>2026-04-04T12:37:37.988Z</time></trkpt><trkpt lat="44.7370917" lon="10.004495"><ele>349.16666666666663</ele><time>2026-04-04T12:37:38.988Z</time></trkpt><trkpt lat="44.7370483" lon="10.00439"><ele>349.3333333333333</ele><time>2026-04-04T12:37:39.989Z</time></trkpt><trkpt lat="44.737005" lon="10.0042933"><ele>349.5</ele><time>2026-04-04T12:37:40.988Z</time></trkpt><trkpt lat="44.73696" lon="10.00419"><ele>349.6666666666667</ele><time>2026-04-04T12:37:41.988Z</time></trkpt><trkpt lat="44.73692" lon="10.00408"><ele>349.83333333333337</ele><time>2026-04-04T12:37:42.988Z</time></trkpt><trkpt lat="44.7368867" lon="10.00397"><ele>350.0</ele><time>2026-04-04T12:37:43.989Z</time></trkpt><trkpt lat="44.73686" lon="10.0038667"><ele>352.0</ele><time>2026-04-04T12:37:44.988Z</time></trkpt><trkpt lat="44.7368367" lon="10.0037583"><ele>354.0</ele><time>2026-04-04T12:37:45.988Z</time></trkpt><trkpt lat="44.7368167" lon="10.003645"><ele>356.0</ele><time>2026-04-04T12:37:46.988Z</time></trkpt><trkpt lat="44.7368" lon="10.0035367"><ele>358.0</ele><time>2026-04-04T12:37:47.988Z</time></trkpt><trkpt lat="44.7367817" lon="10.0034233"><ele>360.0</ele><time>2026-04-04T12:37:48.988Z</time></trkpt><trkpt lat="44.7367517" lon="10.0033017"><ele>362.0</ele><time>2026-04-04T12:37:49.987Z</time></trkpt><trkpt lat="44.736725" lon="10.00319"><ele>363.0</ele><time>2026-04-04T12:37:50.987Z</time></trkpt><trkpt lat="44.7367" lon="10.0030817"><ele>364.0</ele><time>2026-04-04T12:37:51.987Z</time></trkpt><trkpt lat="44.7366833" lon="10.0029817"><ele>365.0</ele><time>2026-04-04T12:37:52.987Z</time></trkpt><trkpt lat="44.736665" lon="10.0028733"><ele>366.0</ele><time>2026-04-04T12:37:53.987Z</time></trkpt><trkpt lat="44.7366467" lon="10.00275"><ele>367.0</ele><time>2026-04-04T12:37:54.987Z</time></trkpt><trkpt lat="44.7366383" lon="10.0026333"><ele>368.0</ele><time>2026-04-04T12:37:55.988Z</time></trkpt><trkpt lat="44.7366283" lon="10.0025167"><ele>367.6666666666667</ele><time>2026-04-04T12:37:56.987Z</time></trkpt><trkpt lat="44.7366067" lon="10.0024083"><ele>367.33333333333337</ele><time>2026-04-04T12:37:57.987Z</time></trkpt><trkpt lat="44.736575" lon="10.0023017"><ele>367.0</ele><time>2026-04-04T12:37:58.988Z</time></trkpt><trkpt lat="44.7365333" lon="10.0021933"><ele>366.6666666666667</ele><time>2026-04-04T12:37:59.987Z</time></trkpt><trkpt lat="44.736475" lon="10.0021067"><ele>366.3333333333333</ele><time>2026-04-04T12:38:00.988Z</time></trkpt><trkpt lat="44.73641" lon="10.0020467"><ele>366.0</ele><time>2026-04-04T12:38:01.988Z</time></trkpt><trkpt lat="44.7363317" lon="10.0019983"><ele>366.0</ele><time>2026-04-04T12:38:02.987Z</time></trkpt><trkpt lat="44.7362533" lon="10.0019667"><ele>366.0</ele><time>2026-04-04T12:38:03.987Z</time></trkpt><trkpt lat="44.7361667" lon="10.0019383"><ele>366.0</ele><time>2026-04-04T12:38:04.987Z</time></trkpt><trkpt lat="44.73608" lon="10.0019117"><ele>366.0</ele><time>2026-04-04T12:38:05.987Z</time></trkpt><trkpt lat="44.73601" lon="10.001865"><ele>366.0</ele><time>2026-04-04T12:38:06.987Z</time></trkpt><trkpt lat="44.7359383" lon="10.0018083"><ele>366.0</ele><time>2026-04-04T12:38:07.988Z</time></trkpt><trkpt lat="44.7358817" lon="10.0017317"><ele>367.3333333333333</ele><time>2026-04-04T12:38:08.987Z</time></trkpt><trkpt lat="44.7358433" lon="10.001635"><ele>368.6666666666667</ele><time>2026-04-04T12:38:09.988Z</time></trkpt><trkpt lat="44.735815" lon="10.0015317"><ele>370.0</ele><time>2026-04-04T12:38:10.988Z</time></trkpt><trkpt lat="44.735785" lon="10.0014267"><ele>371.33333333333337</ele><time>2026-04-04T12:38:11.987Z</time></trkpt><trkpt lat="44.735755" lon="10.0013233"><ele>372.6666666666667</ele><time>2026-04-04T12:38:12.987Z</time></trkpt><trkpt lat="44.7357267" lon="10.0012133"><ele>374.0</ele><time>2026-04-04T12:38:13.988Z</time></trkpt><trkpt lat="44.7356933" lon="10.0011067"><ele>374.0</ele><time>2026-04-04T12:38:14.987Z</time></trkpt><trkpt lat="44.7356633" lon="10.0010083"><ele>374.0</ele><time>2026-04-04T12:38:15.988Z</time></trkpt><trkpt lat="44.735645" lon="10.0009167"><ele>374.0</ele><time>2026-04-04T12:38:16.988Z</time></trkpt><trkpt lat="44.7356333" lon="10.0008183"><ele>374.0</ele><time>2026-04-04T12:38:17.988Z</time></trkpt><trkpt lat="44.7356233" lon="10.0007233"><ele>374.0</ele><time>2026-04-04T12:38:18.987Z</time></trkpt><trkpt lat="44.7356183" lon="10.0006333"><ele>374.0</ele><time>2026-04-04T12:38:19.987Z</time></trkpt><trkpt lat="44.7356133" lon="10.0004633"><ele>376.0</ele><time>2026-04-04T12:38:21.987Z</time></trkpt><trkpt lat="44.7356017" lon="10.0002967"><ele>378.0</ele><time>2026-04-04T12:38:23.987Z</time></trkpt><trkpt lat="44.7355983" lon="10.0001417"><ele>380.0</ele><time>2026-04-04T12:38:25.987Z</time></trkpt><trkpt lat="44.7355717" lon="9.999985"><ele>382.0</ele><time>2026-04-04T12:38:27.987Z</time></trkpt><trkpt lat="44.7355233" lon="9.9998233"><ele>382.0</ele><time>2026-04-04T12:38:29.987Z</time></trkpt><trkpt lat="44.7354967" lon="9.9997367"><ele>382.0</ele><time>2026-04-04T12:38:30.987Z</time></trkpt><trkpt lat="44.7354633" lon="9.999655"><ele>382.0</ele><time>2026-04-04T12:38:31.988Z</time></trkpt><trkpt lat="44.7354183" lon="9.9995767"><ele>382.0</ele><time>2026-04-04T12:38:32.987Z</time></trkpt><trkpt lat="44.735365" lon="9.999515"><ele>382.0</ele><time>2026-04-04T12:38:33.987Z</time></trkpt><trkpt lat="44.735295" lon="9.9994533"><ele>382.0</ele><time>2026-04-04T12:38:34.987Z</time></trkpt><trkpt lat="44.7352133" lon="9.9994"><ele>382.0</ele><time>2026-04-04T12:38:35.987Z</time></trkpt><trkpt lat="44.7351333" lon="9.9993567"><ele>382.5</ele><time>2026-04-04T12:38:36.987Z</time></trkpt><trkpt lat="44.7350517" lon="9.9993133"><ele>383.0</ele><time>2026-04-04T12:38:37.987Z</time></trkpt><trkpt lat="44.7349817" lon="9.9992733"><ele>383.5</ele><time>2026-04-04T12:38:38.987Z</time></trkpt><trkpt lat="44.7349117" lon="9.9992383"><ele>384.0</ele><time>2026-04-04T12:38:39.988Z</time></trkpt><trkpt lat="44.73484" lon="9.9991917"><ele>384.50000000000006</ele><time>2026-04-04T12:38:40.987Z</time></trkpt><trkpt lat="44.7347633" lon="9.999135"><ele>385.0</ele><time>2026-04-04T12:38:41.987Z</time></trkpt><trkpt lat="44.7346783" lon="9.9990833"><ele>385.0</ele><time>2026-04-04T12:38:42.988Z</time></trkpt><trkpt lat="44.7345883" lon="9.999025"><ele>385.0</ele><time>2026-04-04T12:38:43.988Z</time></trkpt><trkpt lat="44.7344867" lon="9.9989633"><ele>385.0</ele><time>2026-04-04T12:38:44.987Z</time></trkpt><trkpt lat="44.7343833" lon="9.9989017"><ele>385.0</ele><time>2026-04-04T12:38:45.987Z</time></trkpt><trkpt lat="44.734275" lon="9.9988317"><ele>385.0</ele><time>2026-04-04T12:38:46.987Z</time></trkpt><trkpt lat="44.7341617" lon="9.9987517"><ele>385.4</ele><time>2026-04-04T12:38:47.987Z</time></trkpt><trkpt lat="44.7340583" lon="9.998675"><ele>385.8</ele><time>2026-04-04T12:38:48.988Z</time></trkpt><trkpt lat="44.7339667" lon="9.99859"><ele>386.20000000000005</ele><time>2026-04-04T12:38:49.987Z</time></trkpt><trkpt lat="44.7338783" lon="9.9984983"><ele>386.6</ele><time>2026-04-04T12:38:50.988Z</time></trkpt><trkpt lat="44.733805" lon="9.9983983"><ele>387.0</ele><time>2026-04-04T12:38:51.987Z</time></trkpt><trkpt lat="44.7337333" lon="9.998315"><ele>387.0</ele><time>2026-04-04T12:38:52.987Z</time></trkpt><trkpt lat="44.7336683" lon="9.9982283"><ele>387.0</ele><time>2026-04-04T12:38:53.987Z</time></trkpt><trkpt lat="44.7336017" lon="9.99814"><ele>387.0</ele><time>2026-04-04T12:38:54.987Z</time></trkpt><trkpt lat="44.73355" lon="9.9980633"><ele>387.0</ele><time>2026-04-04T12:38:55.987Z</time></trkpt><trkpt lat="44.7334483" lon="9.998015"><ele>387.0</ele><time>2026-04-04T12:38:57.987Z</time></trkpt><trkpt lat="44.7333683" lon="9.9981133"><ele>388.1666666666667</ele><time>2026-04-04T12:38:59.987Z</time></trkpt><trkpt lat="44.7333833" lon="9.9982033"><ele>389.33333333333337</ele><time>2026-04-04T12:39:00.987Z</time></trkpt><trkpt lat="44.7334083" lon="9.998315"><ele>390.5</ele><time>2026-04-04T12:39:01.987Z</time></trkpt><trkpt lat="44.7334217" lon="9.9984083"><ele>391.6666666666667</ele><time>2026-04-04T12:39:02.987Z</time></trkpt><trkpt lat="44.733385" lon="9.99853"><ele>392.83333333333337</ele><time>2026-04-04T12:39:04.988Z</time></trkpt><trkpt lat="44.7332867" lon="9.9985483"><ele>394.0</ele><time>2026-04-04T12:39:06.987Z</time></trkpt><trkpt lat="44.7332167" lon="9.99844"><ele>396.0</ele><time>2026-04-04T12:39:08.988Z</time></trkpt><trkpt lat="44.733185" lon="9.99828"><ele>398.0</ele><time>2026-04-04T12:39:10.987Z</time></trkpt><trkpt lat="44.7331133" lon="9.9982067"><ele>400.0</ele><time>2026-04-04T12:39:13.987Z</time></trkpt><trkpt lat="44.7330067" lon="9.9981967"><ele>402.0</ele><time>2026-04-04T12:39:15.987Z</time></trkpt><trkpt lat="44.7328917" lon="9.998165"><ele>404.0</ele><time>2026-04-04T12:39:17.987Z</time></trkpt><trkpt lat="44.7327817" lon="9.9981667"><ele>406.4</ele><time>2026-04-04T12:39:19.988Z</time></trkpt><trkpt lat="44.73268" lon="9.9982283"><ele>408.79999999999995</ele><time>2026-04-04T12:39:21.987Z</time></trkpt><trkpt lat="44.7325717" lon="9.99825"><ele>411.20000000000005</ele><time>2026-04-04T12:39:23.987Z</time></trkpt><trkpt lat="44.7325033" lon="9.9982533"><ele>413.6</ele><time>2026-04-04T12:39:24.987Z</time></trkpt><trkpt lat="44.7324317" lon="9.99825"><ele>416.0</ele><time>2026-04-04T12:39:25.987Z</time></trkpt><trkpt lat="44.7323367" lon="9.9982533"><ele>416.0</ele><time>2026-04-04T12:39:27.988Z</time></trkpt><trkpt lat="44.732235" lon="9.99825"><ele>416.0</ele><time>2026-04-04T12:39:29.987Z</time></trkpt><trkpt lat="44.732135" lon="9.9982383"><ele>416.0</ele><time>2026-04-04T12:40:13.987Z</time></trkpt><trkpt lat="44.7320417" lon="9.9981967"><ele>416.0</ele><time>2026-04-04T12:40:15.988Z</time></trkpt><trkpt lat="44.73194" lon="9.9981617"><ele>416.0</ele><time>2026-04-04T12:40:17.988Z</time></trkpt><trkpt lat="44.731835" lon="9.9981267"><ele>417.3333333333333</ele><time>2026-04-04T12:40:19.988Z</time></trkpt><trkpt lat="44.73177" lon="9.99811"><ele>418.66666666666663</ele><time>2026-04-04T12:40:20.988Z</time></trkpt><trkpt lat="44.731695" lon="9.9981"><ele>420.0</ele><time>2026-04-04T12:40:21.988Z</time></trkpt><trkpt lat="44.7316083" lon="9.998105"><ele>421.33333333333337</ele><time>2026-04-04T12:40:22.987Z</time></trkpt><trkpt lat="44.7315233" lon="9.9981217"><ele>422.6666666666667</ele><time>2026-04-04T12:40:23.987Z</time></trkpt><trkpt lat="44.7314467" lon="9.9981533"><ele>424.0</ele><time>2026-04-04T12:40:24.988Z</time></trkpt><trkpt lat="44.73136" lon="9.998195"><ele>424.0</ele><time>2026-04-04T12:40:25.988Z</time></trkpt><trkpt lat="44.73127" lon="9.9982417"><ele>424.0</ele><time>2026-04-04T12:40:26.987Z</time></trkpt><trkpt lat="44.73119" lon="9.998295"><ele>424.0</ele><time>2026-04-04T12:40:27.987Z</time></trkpt><trkpt lat="44.7311117" lon="9.998365"><ele>424.0</ele><time>2026-04-04T12:40:28.987Z</time></trkpt><trkpt lat="44.7310283" lon="9.9984283"><ele>424.0</ele><time>2026-04-04T12:40:29.987Z</time></trkpt><trkpt lat="44.7309567" lon="9.99849"><ele>425.6666666666667</ele><time>2026-04-04T12:40:30.988Z</time></trkpt><trkpt lat="44.73088" lon="9.998545"><ele>427.33333333333337</ele><time>2026-04-04T12:40:31.988Z</time></trkpt><trkpt lat="44.7307967" lon="9.9986033"><ele>429.0</ele><time>2026-04-04T12:40:32.988Z</time></trkpt><trkpt lat="44.7307217" lon="9.9986417"><ele>430.66666666666663</ele><time>2026-04-04T12:40:33.987Z</time></trkpt><trkpt lat="44.7306483" lon="9.9986867"><ele>432.3333333333333</ele><time>2026-04-04T12:40:34.988Z</time></trkpt><trkpt lat="44.7305717" lon="9.9987233"><ele>434.0</ele><time>2026-04-04T12:40:35.987Z</time></trkpt><trkpt lat="44.73051" lon="9.998745"><ele>433.99999999999994</ele><time>2026-04-04T12:40:36.987Z</time></trkpt><trkpt lat="44.7304417" lon="9.9987733"><ele>434.0</ele><time>2026-04-04T12:40:37.988Z</time></trkpt><trkpt lat="44.7303733" lon="9.998815"><ele>434.0</ele><time>2026-04-04T12:40:38.988Z</time></trkpt><trkpt lat="44.730305" lon="9.998855"><ele>434.0</ele><time>2026-04-04T12:40:39.987Z</time></trkpt><trkpt lat="44.7302333" lon="9.9989"><ele>433.99999999999994</ele><time>2026-04-04T12:40:40.987Z</time></trkpt><trkpt lat="44.730165" lon="9.9989533"><ele>434.0</ele><time>2026-04-04T12:40:41.987Z</time></trkpt><trkpt lat="44.73011" lon="9.9990217"><ele>434.7142857142857</ele><time>2026-04-04T12:40:42.987Z</time></trkpt><trkpt lat="44.7300733" lon="9.9991"><ele>435.42857142857144</ele><time>2026-04-04T12:40:43.987Z</time></trkpt><trkpt lat="44.7300467" lon="9.9991983"><ele>436.1428571428571</ele><time>2026-04-04T12:40:44.987Z</time></trkpt><trkpt lat="44.7300267" lon="9.999305"><ele>436.8571428571429</ele><time>2026-04-04T12:40:45.987Z</time></trkpt><trkpt lat="44.7300067" lon="9.9994"><ele>437.57142857142856</ele><time>2026-04-04T12:40:46.987Z</time></trkpt><trkpt lat="44.729985" lon="9.9994917"><ele>438.2857142857143</ele><time>2026-04-04T12:40:47.987Z</time></trkpt><trkpt lat="44.7299533" lon="9.9995717"><ele>439.0</ele><time>2026-04-04T12:40:48.987Z</time></trkpt><trkpt lat="44.7298633" lon="9.9996617"><ele>439.00000000000006</ele><time>2026-04-04T12:40:50.988Z</time></trkpt><trkpt lat="44.7297633" lon="9.99968"><ele>439.0</ele><time>2026-04-04T12:40:52.987Z</time></trkpt><trkpt lat="44.7296983" lon="9.9996767"><ele>439.0</ele><time>2026-04-04T12:40:54.988Z</time></trkpt><trkpt lat="44.7296117" lon="9.9996917"><ele>439.0</ele><time>2026-04-04T12:40:58.987Z</time></trkpt><trkpt lat="44.7295333" lon="9.9997317"><ele>439.00000000000006</ele><time>2026-04-04T12:41:00.988Z</time></trkpt><trkpt lat="44.7294483" lon="9.9997233"><ele>439.0</ele><time>2026-04-04T12:41:02.988Z</time></trkpt><trkpt lat="44.7293583" lon="9.9996617"><ele>439.1666666666667</ele><time>2026-04-04T12:41:04.988Z</time></trkpt><trkpt lat="44.72927" lon="9.9995667"><ele>439.33333333333337</ele><time>2026-04-04T12:41:06.988Z</time></trkpt><trkpt lat="44.7292117" lon="9.99949"><ele>439.5</ele><time>2026-04-04T12:41:08.987Z</time></trkpt><trkpt lat="44.7291633" lon="9.99943"><ele>439.66666666666663</ele><time>2026-04-04T12:41:26.987Z</time></trkpt><trkpt lat="44.729085" lon="9.999345"><ele>439.8333333333333</ele><time>2026-04-04T12:41:28.987Z</time></trkpt><trkpt lat="44.7290283" lon="9.999305"><ele>440.0</ele><time>2026-04-04T12:41:29.987Z</time></trkpt><trkpt lat="44.72891" lon="9.99927"><ele>440.0</ele><time>2026-04-04T12:41:31.987Z</time></trkpt><trkpt lat="44.7288017" lon="9.999215"><ele>440.0</ele><time>2026-04-04T12:41:33.987Z</time></trkpt><trkpt lat="44.7287167" lon="9.9991267"><ele>440.0</ele><time>2026-04-04T12:41:35.987Z</time></trkpt><trkpt lat="44.7286317" lon="9.9990617"><ele>440.0</ele><time>2026-04-04T12:41:37.987Z</time></trkpt><trkpt lat="44.7285467" lon="9.9990133"><ele>440.0</ele><time>2026-04-04T12:41:39.988Z</time></trkpt><trkpt lat="44.7284483" lon="9.998985"><ele>444.5</ele><time>2026-04-04T12:41:48.987Z</time></trkpt><trkpt lat="44.7283383" lon="9.998965"><ele>449.0</ele><time>2026-04-04T12:41:50.987Z</time></trkpt><trkpt lat="44.728225" lon="9.9989433"><ele>453.5</ele><time>2026-04-04T12:41:52.988Z</time></trkpt><trkpt lat="44.7281233" lon="9.9988983"><ele>458.0</ele><time>2026-04-04T12:41:54.987Z</time></trkpt><trkpt lat="44.7279983" lon="9.9988683"><ele>458.0</ele><time>2026-04-04T12:41:56.987Z</time></trkpt><trkpt lat="44.7279233" lon="9.9988567"><ele>457.99999999999994</ele><time>2026-04-04T12:41:57.987Z</time></trkpt><trkpt lat="44.727855" lon="9.998865"><ele>457.99999999999994</ele><time>2026-04-04T12:41:58.987Z</time></trkpt><trkpt lat="44.7277367" lon="9.9988867"><ele>458.0</ele><time>2026-04-04T12:42:00.987Z</time></trkpt><trkpt lat="44.7276383" lon="9.998975"><ele>458.0</ele><time>2026-04-04T12:42:02.988Z</time></trkpt><trkpt lat="44.7275533" lon="9.9990867"><ele>459.8333333333333</ele><time>2026-04-04T12:42:04.988Z</time></trkpt><trkpt lat="44.7274883" lon="9.9991067"><ele>461.66666666666663</ele><time>2026-04-04T12:42:05.988Z</time></trkpt><trkpt lat="44.727415" lon="9.999125"><ele>463.5</ele><time>2026-04-04T12:42:06.988Z</time></trkpt><trkpt lat="44.7273517" lon="9.9991483"><ele>465.33333333333337</ele><time>2026-04-04T12:42:07.987Z</time></trkpt><trkpt lat="44.7272467" lon="9.999165"><ele>467.1666666666667</ele><time>2026-04-04T12:42:09.987Z</time></trkpt><trkpt lat="44.727145" lon="9.9991167"><ele>469.0</ele><time>2026-04-04T12:42:11.988Z</time></trkpt><trkpt lat="44.7270917" lon="9.9990567"><ele>469.0</ele><time>2026-04-04T12:42:12.988Z</time></trkpt><trkpt lat="44.72704" lon="9.998985"><ele>469.0</ele><time>2026-04-04T12:42:13.988Z</time></trkpt><trkpt lat="44.7269967" lon="9.9988967"><ele>469.0</ele><time>2026-04-04T12:42:14.988Z</time></trkpt><trkpt lat="44.7269517" lon="9.99881"><ele>469.0</ele><time>2026-04-04T12:42:15.987Z</time></trkpt><trkpt lat="44.726905" lon="9.9987317"><ele>469.0</ele><time>2026-04-04T12:42:16.987Z</time></trkpt><trkpt lat="44.7268483" lon="9.998665"><ele>469.0</ele><time>2026-04-04T12:42:17.988Z</time></trkpt><trkpt lat="44.7267917" lon="9.9985967"><ele>469.0</ele><time>2026-04-04T12:42:18.987Z</time></trkpt><trkpt lat="44.7267367" lon="9.998535"><ele>469.4</ele><time>2026-04-04T12:42:19.987Z</time></trkpt><trkpt lat="44.7266583" lon="9.998455"><ele>469.79999999999995</ele><time>2026-04-04T12:42:21.987Z</time></trkpt><trkpt lat="44.726565" lon="9.9984283"><ele>470.20000000000005</ele><time>2026-04-04T12:42:23.987Z</time></trkpt><trkpt lat="44.7264617" lon="9.9984483"><ele>470.6</ele><time>2026-04-04T12:42:25.988Z</time></trkpt><trkpt lat="44.7263667" lon="9.998505"><ele>471.0</ele><time>2026-04-04T12:42:27.987Z</time></trkpt><trkpt lat="44.7263033" lon="9.9986017"><ele>471.0</ele><time>2026-04-04T12:42:29.988Z</time></trkpt><trkpt lat="44.7262283" lon="9.9987033"><ele>471.0</ele><time>2026-04-04T12:42:31.987Z</time></trkpt><trkpt lat="44.72615" lon="9.9987883"><ele>471.0</ele><time>2026-04-04T12:42:33.987Z</time></trkpt><trkpt lat="44.7260883" lon="9.998855"><ele>471.0</ele><time>2026-04-04T12:42:35.987Z</time></trkpt><trkpt lat="44.7260017" lon="9.9989483"><ele>471.0</ele><time>2026-04-04T12:42:37.988Z</time></trkpt><trkpt lat="44.725925" lon="9.9990383"><ele>472.5</ele><time>2026-04-04T12:42:39.987Z</time></trkpt><trkpt lat="44.725845" lon="9.999155"><ele>474.0</ele><time>2026-04-04T12:42:41.987Z</time></trkpt><trkpt lat="44.7258117" lon="9.999235"><ele>475.5</ele><time>2026-04-04T12:42:42.988Z</time></trkpt><trkpt lat="44.7257783" lon="9.9993133"><ele>477.0</ele><time>2026-04-04T12:42:43.987Z</time></trkpt><trkpt lat="44.7257433" lon="9.9994183"><ele>478.5</ele><time>2026-04-04T12:42:44.987Z</time></trkpt><trkpt lat="44.7257133" lon="9.9995267"><ele>480.0</ele><time>2026-04-04T12:42:45.988Z</time></trkpt><trkpt lat="44.72569" lon="9.9996433"><ele>480.0</ele><time>2026-04-04T12:42:46.987Z</time></trkpt><trkpt lat="44.7256617" lon="9.9997583"><ele>480.0</ele><time>2026-04-04T12:42:47.988Z</time></trkpt><trkpt lat="44.7256317" lon="9.9998533"><ele>480.0</ele><time>2026-04-04T12:42:48.987Z</time></trkpt><trkpt lat="44.7256033" lon="9.9999483"><ele>480.0</ele><time>2026-04-04T12:42:49.987Z</time></trkpt><trkpt lat="44.7255617" lon="10.0000317"><ele>480.0</ele><time>2026-04-04T12:42:50.988Z</time></trkpt><trkpt lat="44.72548" lon="10.0001517"><ele>480.0</ele><time>2026-04-04T12:42:52.987Z</time></trkpt><trkpt lat="44.7254" lon="10.0002333"><ele>480.0</ele><time>2026-04-04T12:42:54.987Z</time></trkpt><trkpt lat="44.7253317" lon="10.000285"><ele>480.0</ele><time>2026-04-04T12:42:56.987Z</time></trkpt><trkpt lat="44.725325" lon="10.000185"><ele>480.0</ele><time>2026-04-04T12:43:43.988Z</time></trkpt><trkpt lat="44.725355" lon="10.0000533"><ele>480.0</ele><time>2026-04-04T12:43:45.987Z</time></trkpt><trkpt lat="44.7253683" lon="9.99988"><ele>480.0</ele><time>2026-04-04T12:43:47.988Z</time></trkpt><trkpt lat="44.72537" lon="9.99979"><ele>480.0</ele><time>2026-04-04T12:43:48.987Z</time></trkpt><trkpt lat="44.7253683" lon="9.9996267"><ele>480.0</ele><time>2026-04-04T12:43:50.988Z</time></trkpt><trkpt lat="44.72536" lon="9.9995367"><ele>480.0</ele><time>2026-04-04T12:43:51.988Z</time></trkpt><trkpt lat="44.7253467" lon="9.9994483"><ele>480.0</ele><time>2026-04-04T12:43:52.988Z</time></trkpt><trkpt lat="44.7253417" lon="9.9993533"><ele>480.0</ele><time>2026-04-04T12:43:53.987Z</time></trkpt><trkpt lat="44.725345" lon="9.9992483"><ele>480.0</ele><time>2026-04-04T12:43:54.988Z</time></trkpt><trkpt lat="44.7253483" lon="9.999145"><ele>480.0</ele><time>2026-04-04T12:43:55.987Z</time></trkpt><trkpt lat="44.725355" lon="9.9989817"><ele>480.6666666666667</ele><time>2026-04-04T12:43:57.988Z</time></trkpt><trkpt lat="44.7253967" lon="9.9988517"><ele>481.33333333333337</ele><time>2026-04-04T12:43:59.987Z</time></trkpt><trkpt lat="44.7254833" lon="9.9987233"><ele>482.0</ele><time>2026-04-04T12:44:01.987Z</time></trkpt><trkpt lat="44.7255283" lon="9.998645"><ele>482.6666666666667</ele><time>2026-04-04T12:44:02.988Z</time></trkpt><trkpt lat="44.725575" lon="9.9985733"><ele>483.33333333333337</ele><time>2026-04-04T12:44:03.988Z</time></trkpt><trkpt lat="44.7256333" lon="9.9985067"><ele>484.0</ele><time>2026-04-04T12:44:04.987Z</time></trkpt><trkpt lat="44.7257067" lon="9.9984267"><ele>484.00000000000006</ele><time>2026-04-04T12:44:05.988Z</time></trkpt><trkpt lat="44.7257883" lon="9.99835"><ele>484.0</ele><time>2026-04-04T12:44:06.987Z</time></trkpt><trkpt lat="44.72586" lon="9.9982617"><ele>484.0</ele><time>2026-04-04T12:44:07.988Z</time></trkpt><trkpt lat="44.725925" lon="9.998175"><ele>484.0</ele><time>2026-04-04T12:44:08.987Z</time></trkpt><trkpt lat="44.7259833" lon="9.99809"><ele>484.00000000000006</ele><time>2026-04-04T12:44:09.987Z</time></trkpt><trkpt lat="44.7260267" lon="9.9980117"><ele>484.0</ele><time>2026-04-04T12:44:10.987Z</time></trkpt><trkpt lat="44.7260733" lon="9.997945"><ele>484.57142857142856</ele><time>2026-04-04T12:44:11.987Z</time></trkpt><trkpt lat="44.7261183" lon="9.9978733"><ele>485.1428571428571</ele><time>2026-04-04T12:44:12.987Z</time></trkpt><trkpt lat="44.7261667" lon="9.9977983"><ele>485.71428571428567</ele><time>2026-04-04T12:44:13.987Z</time></trkpt><trkpt lat="44.7262183" lon="9.9977317"><ele>486.2857142857142</ele><time>2026-04-04T12:44:14.987Z</time></trkpt><trkpt lat="44.7262783" lon="9.9976667"><ele>486.85714285714283</ele><time>2026-04-04T12:44:16.988Z</time></trkpt><trkpt lat="44.7263317" lon="9.9976117"><ele>487.42857142857133</ele><time>2026-04-04T12:44:35.988Z</time></trkpt><trkpt lat="44.7263867" lon="9.9975433"><ele>487.99999999999994</ele><time>2026-04-04T12:44:36.987Z</time></trkpt><trkpt lat="44.7264517" lon="9.99746"><ele>490.2</ele><time>2026-04-04T12:44:37.987Z</time></trkpt><trkpt lat="44.72652" lon="9.9973783"><ele>492.4</ele><time>2026-04-04T12:44:38.987Z</time></trkpt><trkpt lat="44.72659" lon="9.9972933"><ele>494.59999999999997</ele><time>2026-04-04T12:44:39.987Z</time></trkpt><trkpt lat="44.7266517" lon="9.9972067"><ele>496.79999999999995</ele><time>2026-04-04T12:44:40.987Z</time></trkpt><trkpt lat="44.726715" lon="9.9971083"><ele>499.0</ele><time>2026-04-04T12:44:41.987Z</time></trkpt><trkpt lat="44.7267567" lon="9.997"><ele>499.00000000000006</ele><time>2026-04-04T12:44:42.987Z</time></trkpt><trkpt lat="44.7267983" lon="9.9968983"><ele>499.0</ele><time>2026-04-04T12:44:43.988Z</time></trkpt><trkpt lat="44.7268367" lon="9.9968167"><ele>499.0</ele><time>2026-04-04T12:44:44.988Z</time></trkpt><trkpt lat="44.726885" lon="9.9967417"><ele>499.0</ele><time>2026-04-04T12:44:45.987Z</time></trkpt><trkpt lat="44.726935" lon="9.9966617"><ele>499.00000000000006</ele><time>2026-04-04T12:44:46.988Z</time></trkpt><trkpt lat="44.7269833" lon="9.9965817"><ele>499.0</ele><time>2026-04-04T12:44:47.988Z</time></trkpt><trkpt lat="44.7270283" lon="9.9964917"><ele>499.00000000000006</ele><time>2026-04-04T12:44:48.987Z</time></trkpt><trkpt lat="44.7270583" lon="9.996405"><ele>499.0</ele><time>2026-04-04T12:44:49.988Z</time></trkpt><trkpt lat="44.727085" lon="9.9963167"><ele>499.00000000000006</ele><time>2026-04-04T12:44:50.987Z</time></trkpt><trkpt lat="44.7271233" lon="9.99622"><ele>499.00000000000006</ele><time>2026-04-04T12:44:51.987Z</time></trkpt><trkpt lat="44.7271567" lon="9.9961183"><ele>499.0</ele><time>2026-04-04T12:44:52.987Z</time></trkpt><trkpt lat="44.727185" lon="9.9960167"><ele>499.00000000000006</ele><time>2026-04-04T12:44:53.987Z</time></trkpt><trkpt lat="44.7271967" lon="9.995925"><ele>499.00000000000006</ele><time>2026-04-04T12:44:54.987Z</time></trkpt><trkpt lat="44.72723" lon="9.9957667"><ele>499.0</ele><time>2026-04-04T12:44:56.988Z</time></trkpt><trkpt lat="44.7272583" lon="9.9956033"><ele>499.0</ele><time>2026-04-04T12:44:58.988Z</time></trkpt><trkpt lat="44.7272567" lon="9.9954533"><ele>499.0</ele><time>2026-04-04T12:45:00.987Z</time></trkpt><trkpt lat="44.727215" lon="9.9953083"><ele>499.0</ele><time>2026-04-04T12:45:02.988Z</time></trkpt><trkpt lat="44.72718" lon="9.9952283"><ele>499.0</ele><time>2026-04-04T12:45:03.987Z</time></trkpt><trkpt lat="44.7271233" lon="9.9950933"><ele>496.0</ele><time>2026-04-04T12:45:05.987Z</time></trkpt><trkpt lat="44.7271033" lon="9.99497"><ele>493.0</ele><time>2026-04-04T12:45:07.987Z</time></trkpt><trkpt lat="44.7271167" lon="9.994845"><ele>490.0</ele><time>2026-04-04T12:45:09.987Z</time></trkpt><trkpt lat="44.7271633" lon="9.9947183"><ele>487.0</ele><time>2026-04-04T12:45:11.987Z</time></trkpt><trkpt lat="44.7272" lon="9.9945733"><ele>484.0</ele><time>2026-04-04T12:45:13.987Z</time></trkpt><trkpt lat="44.7272167" lon="9.9943967"><ele>484.00000000000006</ele><time>2026-04-04T12:45:15.987Z</time></trkpt><trkpt lat="44.7272133" lon="9.99428"><ele>484.0</ele><time>2026-04-04T12:45:16.987Z</time></trkpt><trkpt lat="44.7272183" lon="9.9941533"><ele>484.0</ele><time>2026-04-04T12:45:17.987Z</time></trkpt><trkpt lat="44.727225" lon="9.9940433"><ele>484.0</ele><time>2026-04-04T12:45:18.987Z</time></trkpt><trkpt lat="44.7272333" lon="9.9939233"><ele>484.00000000000006</ele><time>2026-04-04T12:45:19.988Z</time></trkpt><trkpt lat="44.72724" lon="9.99381"><ele>484.0</ele><time>2026-04-04T12:45:20.987Z</time></trkpt><trkpt lat="44.7272417" lon="9.9937083"><ele>483.50000000000006</ele><time>2026-04-04T12:45:21.988Z</time></trkpt><trkpt lat="44.72723" lon="9.9936117"><ele>483.0</ele><time>2026-04-04T12:45:22.987Z</time></trkpt><trkpt lat="44.7272233" lon="9.9935"><ele>482.5</ele><time>2026-04-04T12:45:23.987Z</time></trkpt><trkpt lat="44.7272033" lon="9.9933933"><ele>482.0</ele><time>2026-04-04T12:45:24.987Z</time></trkpt><trkpt lat="44.727175" lon="9.9932883"><ele>481.50000000000006</ele><time>2026-04-04T12:45:25.987Z</time></trkpt><trkpt lat="44.7271367" lon="9.9931783"><ele>481.0</ele><time>2026-04-04T12:45:26.988Z</time></trkpt><trkpt lat="44.7270983" lon="9.9930683"><ele>479.50000000000006</ele><time>2026-04-04T12:45:27.987Z</time></trkpt><trkpt lat="44.727055" lon="9.9929567"><ele>478.0</ele><time>2026-04-04T12:45:28.987Z</time></trkpt><trkpt lat="44.7270133" lon="9.9928583"><ele>476.5</ele><time>2026-04-04T12:45:29.987Z</time></trkpt><trkpt lat="44.7269717" lon="9.9927583"><ele>475.0</ele><time>2026-04-04T12:45:30.988Z</time></trkpt><trkpt lat="44.7269333" lon="9.9926783"><ele>473.50000000000006</ele><time>2026-04-04T12:45:31.988Z</time></trkpt><trkpt lat="44.726885" lon="9.992585"><ele>472.0</ele><time>2026-04-04T12:45:32.987Z</time></trkpt><trkpt lat="44.7268417" lon="9.9925083"><ele>470.83333333333337</ele><time>2026-04-04T12:45:33.987Z</time></trkpt><trkpt lat="44.726785" lon="9.992425"><ele>469.6666666666667</ele><time>2026-04-04T12:45:35.987Z</time></trkpt><trkpt lat="44.7267583" lon="9.9923383"><ele>468.5</ele><time>2026-04-04T12:45:37.988Z</time></trkpt><trkpt lat="44.7267483" lon="9.9922467"><ele>467.33333333333337</ele><time>2026-04-04T12:45:39.987Z</time></trkpt><trkpt lat="44.7267383" lon="9.99213"><ele>466.1666666666667</ele><time>2026-04-04T12:45:53.988Z</time></trkpt><trkpt lat="44.7267483" lon="9.9920167"><ele>465.0</ele><time>2026-04-04T12:45:55.987Z</time></trkpt><trkpt lat="44.7267733" lon="9.991905"><ele>465.0</ele><time>2026-04-04T12:45:57.988Z</time></trkpt><trkpt lat="44.7267867" lon="9.991805"><ele>465.0</ele><time>2026-04-04T12:45:59.987Z</time></trkpt><trkpt lat="44.7268033" lon="9.9917117"><ele>465.0</ele><time>2026-04-04T12:46:02.987Z</time></trkpt><trkpt lat="44.726835" lon="9.9915917"><ele>465.0</ele><time>2026-04-04T12:49:57.987Z</time></trkpt><trkpt lat="44.72685" lon="9.9914517"><ele>465.0</ele><time>2026-04-04T12:49:59.988Z</time></trkpt><trkpt lat="44.726805" lon="9.9912967"><ele>464.3333333333333</ele><time>2026-04-04T12:50:01.988Z</time></trkpt><trkpt lat="44.7267633" lon="9.991205"><ele>463.66666666666663</ele><time>2026-04-04T12:50:02.987Z</time></trkpt><trkpt lat="44.726715" lon="9.9911017"><ele>463.0</ele><time>2026-04-04T12:50:03.987Z</time></trkpt><trkpt lat="44.72667" lon="9.9910117"><ele>462.3333333333333</ele><time>2026-04-04T12:50:04.988Z</time></trkpt><trkpt lat="44.7266317" lon="9.990925"><ele>461.66666666666663</ele><time>2026-04-04T12:50:05.988Z</time></trkpt><trkpt lat="44.7266" lon="9.9908467"><ele>461.0</ele><time>2026-04-04T12:50:06.986Z</time></trkpt><trkpt lat="44.726565" lon="9.990685"><ele>461.0</ele><time>2026-04-04T12:50:08.987Z</time></trkpt><trkpt lat="44.72656" lon="9.99052"><ele>461.0</ele><time>2026-04-04T12:50:10.987Z</time></trkpt><trkpt lat="44.726515" lon="9.9903517"><ele>461.0</ele><time>2026-04-04T12:50:12.987Z</time></trkpt><trkpt lat="44.7264617" lon="9.9902533"><ele>461.0</ele><time>2026-04-04T12:50:13.987Z</time></trkpt><trkpt lat="44.7264017" lon="9.9901683"><ele>461.0</ele><time>2026-04-04T12:50:14.986Z</time></trkpt><trkpt lat="44.7263417" lon="9.99008"><ele>460.3333333333333</ele><time>2026-04-04T12:50:15.987Z</time></trkpt><trkpt lat="44.7262933" lon="9.9899917"><ele>459.66666666666663</ele><time>2026-04-04T12:50:16.986Z</time></trkpt><trkpt lat="44.7262433" lon="9.9899067"><ele>459.0</ele><time>2026-04-04T12:50:17.987Z</time></trkpt><trkpt lat="44.7262083" lon="9.9898133"><ele>458.33333333333337</ele><time>2026-04-04T12:50:18.986Z</time></trkpt><trkpt lat="44.7261533" lon="9.98972"><ele>457.6666666666667</ele><time>2026-04-04T12:50:19.987Z</time></trkpt><trkpt lat="44.726085" lon="9.9896217"><ele>457.0</ele><time>2026-04-04T12:50:20.986Z</time></trkpt><trkpt lat="44.726015" lon="9.98954"><ele>456.50000000000006</ele><time>2026-04-04T12:50:21.987Z</time></trkpt><trkpt lat="44.7259517" lon="9.9894783"><ele>456.0</ele><time>2026-04-04T12:50:22.987Z</time></trkpt><trkpt lat="44.725895" lon="9.989415"><ele>455.5</ele><time>2026-04-04T12:50:23.986Z</time></trkpt><trkpt lat="44.72584" lon="9.989295"><ele>455.0</ele><time>2026-04-04T12:50:25.987Z</time></trkpt><trkpt lat="44.7258067" lon="9.9891883"><ele>454.50000000000006</ele><time>2026-04-04T12:50:27.987Z</time></trkpt><trkpt lat="44.725775" lon="9.9890817"><ele>454.0</ele><time>2026-04-04T12:50:37.986Z</time></trkpt><trkpt lat="44.7257467" lon="9.988975"><ele>454.0</ele><time>2026-04-04T12:50:38.986Z</time></trkpt><trkpt lat="44.7257067" lon="9.9888617"><ele>454.0</ele><time>2026-04-04T12:50:39.986Z</time></trkpt><trkpt lat="44.7256883" lon="9.9887617"><ele>454.0</ele><time>2026-04-04T12:50:40.986Z</time></trkpt><trkpt lat="44.7256683" lon="9.9885983"><ele>454.0</ele><time>2026-04-04T12:50:42.986Z</time></trkpt><trkpt lat="44.7256183" lon="9.98841"><ele>454.0</ele><time>2026-04-04T12:50:44.987Z</time></trkpt><trkpt lat="44.7255683" lon="9.9883117"><ele>453.83333333333337</ele><time>2026-04-04T12:50:45.986Z</time></trkpt><trkpt lat="44.7255133" lon="9.9882167"><ele>453.6666666666667</ele><time>2026-04-04T12:50:46.986Z</time></trkpt><trkpt lat="44.725465" lon="9.9881317"><ele>453.5</ele><time>2026-04-04T12:50:47.987Z</time></trkpt><trkpt lat="44.7254133" lon="9.9880417"><ele>453.33333333333337</ele><time>2026-04-04T12:50:48.986Z</time></trkpt><trkpt lat="44.725375" lon="9.9879417"><ele>453.1666666666667</ele><time>2026-04-04T12:50:49.987Z</time></trkpt><trkpt lat="44.72534" lon="9.9878333"><ele>453.0</ele><time>2026-04-04T12:50:50.986Z</time></trkpt><trkpt lat="44.7253117" lon="9.987725"><ele>453.0</ele><time>2026-04-04T12:50:51.986Z</time></trkpt><trkpt lat="44.7252967" lon="9.9876167"><ele>453.0</ele><time>2026-04-04T12:50:52.987Z</time></trkpt><trkpt lat="44.725285" lon="9.9874983"><ele>453.0</ele><time>2026-04-04T12:50:53.987Z</time></trkpt><trkpt lat="44.7252683" lon="9.9873633"><ele>453.0</ele><time>2026-04-04T12:50:54.986Z</time></trkpt><trkpt lat="44.7252467" lon="9.9872317"><ele>453.0</ele><time>2026-04-04T12:50:55.986Z</time></trkpt><trkpt lat="44.7252367" lon="9.9871267"><ele>453.0</ele><time>2026-04-04T12:50:56.986Z</time></trkpt><trkpt lat="44.7252317" lon="9.9870267"><ele>453.1666666666667</ele><time>2026-04-04T12:50:57.986Z</time></trkpt><trkpt lat="44.725255" lon="9.98685"><ele>453.33333333333337</ele><time>2026-04-04T12:50:59.986Z</time></trkpt><trkpt lat="44.725265" lon="9.9867317"><ele>453.5</ele><time>2026-04-04T12:51:01.987Z</time></trkpt><trkpt lat="44.7252433" lon="9.9866483"><ele>453.6666666666667</ele><time>2026-04-04T12:51:04.986Z</time></trkpt><trkpt lat="44.72527" lon="9.986545"><ele>453.83333333333337</ele><time>2026-04-04T12:51:07.986Z</time></trkpt><trkpt lat="44.7252817" lon="9.98643"><ele>454.0</ele><time>2026-04-04T12:51:10.986Z</time></trkpt><trkpt lat="44.725255" lon="9.986335"><ele>454.4</ele><time>2026-04-04T12:51:14.986Z</time></trkpt><trkpt lat="44.7252167" lon="9.986225"><ele>454.79999999999995</ele><time>2026-04-04T12:51:19.986Z</time></trkpt><trkpt lat="44.7252067" lon="9.9861017"><ele>455.20000000000005</ele><time>2026-04-04T12:51:21.986Z</time></trkpt><trkpt lat="44.725205" lon="9.9859783"><ele>455.6</ele><time>2026-04-04T12:51:23.986Z</time></trkpt><trkpt lat="44.7251983" lon="9.9858467"><ele>456.0</ele><time>2026-04-04T12:51:25.986Z</time></trkpt><trkpt lat="44.7251983" lon="9.985705"><ele>456.0</ele><time>2026-04-04T12:51:27.986Z</time></trkpt><trkpt lat="44.72521" lon="9.9855333"><ele>456.0</ele><time>2026-04-04T12:51:29.987Z</time></trkpt><trkpt lat="44.7252217" lon="9.9854367"><ele>456.0</ele><time>2026-04-04T12:51:30.987Z</time></trkpt><trkpt lat="44.72523" lon="9.98534"><ele>456.0</ele><time>2026-04-04T12:51:31.987Z</time></trkpt><trkpt lat="44.7252333" lon="9.9851867"><ele>456.0</ele><time>2026-04-04T12:51:33.986Z</time></trkpt><trkpt lat="44.7252417" lon="9.9850733"><ele>455.0</ele><time>2026-04-04T12:51:35.986Z</time></trkpt><trkpt lat="44.7252567" lon="9.9849717"><ele>454.0</ele><time>2026-04-04T12:51:38.986Z</time></trkpt><trkpt lat="44.725245" lon="9.9848517"><ele>453.0</ele><time>2026-04-04T12:54:43.986Z</time></trkpt><trkpt lat="44.7252617" lon="9.9847633"><ele>452.0</ele><time>2026-04-04T12:54:45.987Z</time></trkpt><trkpt lat="44.7252983" lon="9.9846783"><ele>451.0</ele><time>2026-04-04T12:54:47.986Z</time></trkpt><trkpt lat="44.7253483" lon="9.9845767"><ele>450.0</ele><time>2026-04-04T12:54:49.986Z</time></trkpt><trkpt lat="44.725395" lon="9.9844633"><ele>450.0</ele><time>2026-04-04T12:54:51.986Z</time></trkpt><trkpt lat="44.7254283" lon="9.984335"><ele>450.0</ele><time>2026-04-04T12:54:55.987Z</time></trkpt><trkpt lat="44.7254033" lon="9.9842167"><ele>450.0</ele><time>2026-04-04T12:54:57.987Z</time></trkpt><trkpt lat="44.7253733" lon="9.9841383"><ele>450.0</ele><time>2026-04-04T12:54:58.986Z</time></trkpt><trkpt lat="44.7253367" lon="9.9840617"><ele>450.0</ele><time>2026-04-04T12:54:59.987Z</time></trkpt><trkpt lat="44.7253017" lon="9.98397"><ele>450.0</ele><time>2026-04-04T12:55:00.987Z</time></trkpt><trkpt lat="44.7252667" lon="9.9838817"><ele>450.00000000000006</ele><time>2026-04-04T12:55:01.987Z</time></trkpt><trkpt lat="44.7252283" lon="9.9838033"><ele>450.0</ele><time>2026-04-04T12:55:02.987Z</time></trkpt><trkpt lat="44.7251783" lon="9.9837317"><ele>450.00000000000006</ele><time>2026-04-04T12:55:03.987Z</time></trkpt><trkpt lat="44.725125" lon="9.9836633"><ele>450.00000000000006</ele><time>2026-04-04T12:55:04.986Z</time></trkpt><trkpt lat="44.7250683" lon="9.9835967"><ele>450.0</ele><time>2026-04-04T12:55:05.986Z</time></trkpt><trkpt lat="44.7250217" lon="9.9835283"><ele>450.00000000000006</ele><time>2026-04-04T12:55:06.986Z</time></trkpt><trkpt lat="44.7249767" lon="9.983465"><ele>450.00000000000006</ele><time>2026-04-04T12:55:08.986Z</time></trkpt><trkpt lat="44.7249533" lon="9.9833"><ele>451.0</ele><time>2026-04-04T12:55:16.987Z</time></trkpt><trkpt lat="44.7249367" lon="9.9831417"><ele>452.0</ele><time>2026-04-04T12:55:17.987Z</time></trkpt><trkpt lat="44.724915" lon="9.9829833"><ele>453.0</ele><time>2026-04-04T12:55:18.987Z</time></trkpt><trkpt lat="44.7249" lon="9.9828267"><ele>454.0</ele><time>2026-04-04T12:55:19.986Z</time></trkpt><trkpt lat="44.7249017" lon="9.982695"><ele>455.0</ele><time>2026-04-04T12:55:20.986Z</time></trkpt><trkpt lat="44.7249017" lon="9.9825833"><ele>455.8</ele><time>2026-04-04T12:55:21.986Z</time></trkpt><trkpt lat="44.7249183" lon="9.9824783"><ele>456.6</ele><time>2026-04-04T12:55:22.986Z</time></trkpt><trkpt lat="44.7249467" lon="9.98235"><ele>457.4</ele><time>2026-04-04T12:55:23.986Z</time></trkpt><trkpt lat="44.7249733" lon="9.9822183"><ele>458.2</ele><time>2026-04-04T12:55:24.987Z</time></trkpt><trkpt lat="44.725005" lon="9.9820867"><ele>459.0</ele><time>2026-04-04T12:55:25.987Z</time></trkpt><trkpt lat="44.72503" lon="9.98196"><ele>459.0</ele><time>2026-04-04T12:55:26.987Z</time></trkpt><trkpt lat="44.7250617" lon="9.98184"><ele>459.0</ele><time>2026-04-04T12:55:27.986Z</time></trkpt><trkpt lat="44.7250767" lon="9.9817417"><ele>459.0</ele><time>2026-04-04T12:55:28.986Z</time></trkpt><trkpt lat="44.72507" lon="9.9815717"><ele>459.0</ele><time>2026-04-04T12:55:30.986Z</time></trkpt><trkpt lat="44.72503" lon="9.98148"><ele>459.0</ele><time>2026-04-04T12:55:31.987Z</time></trkpt><trkpt lat="44.724975" lon="9.9813617"><ele>460.0</ele><time>2026-04-04T12:55:32.987Z</time></trkpt><trkpt lat="44.7249067" lon="9.98123"><ele>461.0</ele><time>2026-04-04T12:55:33.986Z</time></trkpt><trkpt lat="44.7248333" lon="9.9811183"><ele>462.0</ele><time>2026-04-04T12:55:34.986Z</time></trkpt><trkpt lat="44.7247617" lon="9.9810117"><ele>463.0</ele><time>2026-04-04T12:55:35.986Z</time></trkpt><trkpt lat="44.7246883" lon="9.9808883"><ele>464.0</ele><time>2026-04-04T12:55:36.986Z</time></trkpt><trkpt lat="44.7246083" lon="9.9807317"><ele>464.25</ele><time>2026-04-04T12:55:37.986Z</time></trkpt><trkpt lat="44.7245133" lon="9.980575"><ele>464.5</ele><time>2026-04-04T12:55:38.987Z</time></trkpt><trkpt lat="44.7244333" lon="9.9804283"><ele>464.75</ele><time>2026-04-04T12:55:39.986Z</time></trkpt><trkpt lat="44.7243683" lon="9.9803017"><ele>465.0</ele><time>2026-04-04T12:55:40.986Z</time></trkpt><trkpt lat="44.7243033" lon="9.9801933"><ele>465.0</ele><time>2026-04-04T12:55:41.986Z</time></trkpt><trkpt lat="44.7242483" lon="9.9800733"><ele>465.0</ele><time>2026-04-04T12:55:42.987Z</time></trkpt><trkpt lat="44.7241817" lon="9.9799383"><ele>465.0</ele><time>2026-04-04T12:55:43.986Z</time></trkpt><trkpt lat="44.72411" lon="9.9797983"><ele>465.0</ele><time>2026-04-04T12:55:44.987Z</time></trkpt><trkpt lat="44.72405" lon="9.97968"><ele>465.0</ele><time>2026-04-04T12:55:45.987Z</time></trkpt><trkpt lat="44.7240017" lon="9.97959"><ele>466.1666666666667</ele><time>2026-04-04T12:55:46.986Z</time></trkpt><trkpt lat="44.7239367" lon="9.979475"><ele>467.33333333333337</ele><time>2026-04-04T12:55:48.987Z</time></trkpt><trkpt lat="44.7238883" lon="9.9793817"><ele>468.5</ele><time>2026-04-04T12:55:50.986Z</time></trkpt><trkpt lat="44.7239067" lon="9.97928"><ele>469.6666666666667</ele><time>2026-04-04T12:55:52.986Z</time></trkpt><trkpt lat="44.723945" lon="9.9792083"><ele>470.83333333333337</ele><time>2026-04-04T12:55:53.987Z</time></trkpt><trkpt lat="44.7240033" lon="9.9791283"><ele>472.0</ele><time>2026-04-04T12:55:54.986Z</time></trkpt><trkpt lat="44.72407" lon="9.97904"><ele>473.0</ele><time>2026-04-04T12:55:55.987Z</time></trkpt><trkpt lat="44.7241367" lon="9.9789467"><ele>474.00000000000006</ele><time>2026-04-04T12:55:56.986Z</time></trkpt><trkpt lat="44.7242167" lon="9.9788367"><ele>475.00000000000006</ele><time>2026-04-04T12:55:57.987Z</time></trkpt><trkpt lat="44.7243" lon="9.978725"><ele>476.0</ele><time>2026-04-04T12:55:58.987Z</time></trkpt><trkpt lat="44.7243933" lon="9.9786233"><ele>477.0</ele><time>2026-04-04T12:55:59.986Z</time></trkpt><trkpt lat="44.7244933" lon="9.978515"><ele>478.25</ele><time>2026-04-04T12:56:00.987Z</time></trkpt><trkpt lat="44.724585" lon="9.978405"><ele>479.5</ele><time>2026-04-04T12:56:01.986Z</time></trkpt><trkpt lat="44.7246783" lon="9.978295"><ele>480.75</ele><time>2026-04-04T12:56:02.987Z</time></trkpt><trkpt lat="44.7247633" lon="9.9781633"><ele>482.0</ele><time>2026-04-04T12:56:03.986Z</time></trkpt><trkpt lat="44.724835" lon="9.9780233"><ele>483.0</ele><time>2026-04-04T12:56:04.986Z</time></trkpt><trkpt lat="44.7248933" lon="9.9778717"><ele>484.0</ele><time>2026-04-04T12:56:05.986Z</time></trkpt><trkpt lat="44.72494" lon="9.9776967"><ele>485.0</ele><time>2026-04-04T12:56:06.986Z</time></trkpt><trkpt lat="44.724975" lon="9.9775033"><ele>486.0</ele><time>2026-04-04T12:56:07.986Z</time></trkpt><trkpt lat="44.7250067" lon="9.9773133"><ele>486.4</ele><time>2026-04-04T12:56:08.986Z</time></trkpt><trkpt lat="44.7250333" lon="9.9771367"><ele>486.8</ele><time>2026-04-04T12:56:09.987Z</time></trkpt><trkpt lat="44.7250617" lon="9.9769867"><ele>487.19999999999993</ele><time>2026-04-04T12:56:10.986Z</time></trkpt><trkpt lat="44.7251" lon="9.9768567"><ele>487.59999999999997</ele><time>2026-04-04T12:56:11.987Z</time></trkpt><trkpt lat="44.7251267" lon="9.9767483"><ele>488.0</ele><time>2026-04-04T12:56:12.986Z</time></trkpt><trkpt lat="44.7251717" lon="9.9766733"><ele>488.2</ele><time>2026-04-04T12:56:13.986Z</time></trkpt><trkpt lat="44.7252267" lon="9.9766133"><ele>488.4</ele><time>2026-04-04T12:56:14.986Z</time></trkpt><trkpt lat="44.725305" lon="9.9765733"><ele>488.59999999999997</ele><time>2026-04-04T12:56:15.987Z</time></trkpt><trkpt lat="44.725395" lon="9.9765883"><ele>488.79999999999995</ele><time>2026-04-04T12:56:16.987Z</time></trkpt><trkpt lat="44.725495" lon="9.9766633"><ele>489.0</ele><time>2026-04-04T12:56:17.986Z</time></trkpt><trkpt lat="44.7255967" lon="9.9767783"><ele>490.5</ele><time>2026-04-04T12:56:18.986Z</time></trkpt><trkpt lat="44.725705" lon="9.9769167"><ele>492.0</ele><time>2026-04-04T12:56:19.986Z</time></trkpt><trkpt lat="44.72582" lon="9.9770417"><ele>493.5</ele><time>2026-04-04T12:56:20.986Z</time></trkpt><trkpt lat="44.725935" lon="9.9771383"><ele>495.0</ele><time>2026-04-04T12:56:21.986Z</time></trkpt><trkpt lat="44.7260467" lon="9.9772033"><ele>497.33333333333337</ele><time>2026-04-04T12:56:22.986Z</time></trkpt><trkpt lat="44.7261833" lon="9.977225"><ele>499.6666666666667</ele><time>2026-04-04T12:56:23.987Z</time></trkpt><trkpt lat="44.726335" lon="9.977205"><ele>502.0</ele><time>2026-04-04T12:56:24.987Z</time></trkpt><trkpt lat="44.7264983" lon="9.9771833"><ele>502.0</ele><time>2026-04-04T12:56:25.987Z</time></trkpt><trkpt lat="44.726675" lon="9.9771833"><ele>502.0</ele><time>2026-04-04T12:56:26.986Z</time></trkpt><trkpt lat="44.7268483" lon="9.9772033"><ele>502.0</ele><time>2026-04-04T12:56:27.986Z</time></trkpt><trkpt lat="44.727" lon="9.9772433"><ele>501.0</ele><time>2026-04-04T12:56:28.986Z</time></trkpt><trkpt lat="44.7271567" lon="9.9772967"><ele>500.0</ele><time>2026-04-04T12:56:29.987Z</time></trkpt><trkpt lat="44.72729" lon="9.97738"><ele>499.0</ele><time>2026-04-04T12:56:30.986Z</time></trkpt><trkpt lat="44.727405" lon="9.977475"><ele>498.0</ele><time>2026-04-04T12:56:31.986Z</time></trkpt><trkpt lat="44.72751" lon="9.977565"><ele>498.0</ele><time>2026-04-04T12:56:32.986Z</time></trkpt><trkpt lat="44.7276217" lon="9.9776267"><ele>498.0</ele><time>2026-04-04T12:56:33.986Z</time></trkpt><trkpt lat="44.7277433" lon="9.9776317"><ele>498.0</ele><time>2026-04-04T12:56:34.986Z</time></trkpt><trkpt lat="44.7278833" lon="9.9775733"><ele>498.0</ele><time>2026-04-04T12:56:35.986Z</time></trkpt><trkpt lat="44.7280317" lon="9.9774717"><ele>502.25</ele><time>2026-04-04T12:56:36.986Z</time></trkpt><trkpt lat="44.7281583" lon="9.97738"><ele>506.5</ele><time>2026-04-04T12:56:37.986Z</time></trkpt><trkpt lat="44.7282717" lon="9.9772933"><ele>510.75</ele><time>2026-04-04T12:56:38.987Z</time></trkpt><trkpt lat="44.7283467" lon="9.9771867"><ele>515.0</ele><time>2026-04-04T12:56:39.986Z</time></trkpt><trkpt lat="44.7283967" lon="9.9770367"><ele>515.0</ele><time>2026-04-04T12:56:40.986Z</time></trkpt><trkpt lat="44.7284017" lon="9.9768867"><ele>515.0</ele><time>2026-04-04T12:56:41.986Z</time></trkpt><trkpt lat="44.72837" lon="9.9767283"><ele>515.0</ele><time>2026-04-04T12:56:42.987Z</time></trkpt><trkpt lat="44.7283283" lon="9.9765533"><ele>515.0</ele><time>2026-04-04T12:56:43.986Z</time></trkpt><trkpt lat="44.7282817" lon="9.9763617"><ele>517.3333333333333</ele><time>2026-04-04T12:56:44.987Z</time></trkpt><trkpt lat="44.72827" lon="9.976145"><ele>519.6666666666666</ele><time>2026-04-04T12:56:45.987Z</time></trkpt><trkpt lat="44.7282833" lon="9.97593"><ele>522.0</ele><time>2026-04-04T12:56:46.987Z</time></trkpt><trkpt lat="44.7283133" lon="9.9757133"><ele>523.6666666666666</ele><time>2026-04-04T12:56:47.986Z</time></trkpt><trkpt lat="44.7283667" lon="9.9754983"><ele>525.3333333333333</ele><time>2026-04-04T12:56:48.986Z</time></trkpt><trkpt lat="44.7284267" lon="9.97528"><ele>527.0</ele><time>2026-04-04T12:56:49.986Z</time></trkpt><trkpt lat="44.7284967" lon="9.9750817"><ele>525.75</ele><time>2026-04-04T12:56:50.987Z</time></trkpt><trkpt lat="44.7285867" lon="9.9749"><ele>524.5</ele><time>2026-04-04T12:56:51.986Z</time></trkpt><trkpt lat="44.72868" lon="9.9747317"><ele>523.25</ele><time>2026-04-04T12:56:52.986Z</time></trkpt><trkpt lat="44.7287767" lon="9.9745933"><ele>522.0</ele><time>2026-04-04T12:56:53.987Z</time></trkpt><trkpt lat="44.7288683" lon="9.974465"><ele>522.0</ele><time>2026-04-04T12:56:54.987Z</time></trkpt><trkpt lat="44.72894" lon="9.9743267"><ele>522.0</ele><time>2026-04-04T12:56:55.987Z</time></trkpt><trkpt lat="44.7289767" lon="9.97416"><ele>522.0</ele><time>2026-04-04T12:56:56.986Z</time></trkpt><trkpt lat="44.72898" lon="9.97397"><ele>522.0</ele><time>2026-04-04T12:56:57.987Z</time></trkpt><trkpt lat="44.7289933" lon="9.9737883"><ele>523.75</ele><time>2026-04-04T12:56:58.986Z</time></trkpt><trkpt lat="44.7290317" lon="9.97363"><ele>525.5</ele><time>2026-04-04T12:56:59.986Z</time></trkpt><trkpt lat="44.7291067" lon="9.9734983"><ele>527.25</ele><time>2026-04-04T12:57:00.986Z</time></trkpt><trkpt lat="44.7292183" lon="9.9733833"><ele>529.0</ele><time>2026-04-04T12:57:01.986Z</time></trkpt><trkpt lat="44.7293217" lon="9.9732567"><ele>525.3333333333334</ele><time>2026-04-04T12:57:02.987Z</time></trkpt><trkpt lat="44.729405" lon="9.9730767"><ele>521.6666666666666</ele><time>2026-04-04T12:57:03.986Z</time></trkpt><trkpt lat="44.72948" lon="9.97286"><ele>518.0</ele><time>2026-04-04T12:57:04.987Z</time></trkpt><trkpt lat="44.7295533" lon="9.9726317"><ele>522.3333333333333</ele><time>2026-04-04T12:57:05.986Z</time></trkpt><trkpt lat="44.729615" lon="9.9724067"><ele>526.6666666666666</ele><time>2026-04-04T12:57:06.986Z</time></trkpt><trkpt lat="44.72966" lon="9.9721833"><ele>531.0</ele><time>2026-04-04T12:57:07.986Z</time></trkpt><trkpt lat="44.72969" lon="9.9719733"><ele>531.0</ele><time>2026-04-04T12:57:08.986Z</time></trkpt><trkpt lat="44.7296967" lon="9.9717767"><ele>531.0</ele><time>2026-04-04T12:57:09.986Z</time></trkpt><trkpt lat="44.72971" lon="9.971595"><ele>531.0</ele><time>2026-04-04T12:57:10.986Z</time></trkpt><trkpt lat="44.7297117" lon="9.9714433"><ele>531.0</ele><time>2026-04-04T12:57:11.987Z</time></trkpt><trkpt lat="44.7296733" lon="9.9712983"><ele>531.25</ele><time>2026-04-04T12:57:12.986Z</time></trkpt><trkpt lat="44.7295867" lon="9.9711733"><ele>531.5</ele><time>2026-04-04T12:57:13.986Z</time></trkpt><trkpt lat="44.7294683" lon="9.9710833"><ele>531.75</ele><time>2026-04-04T12:57:14.987Z</time></trkpt><trkpt lat="44.7293483" lon="9.971"><ele>532.0</ele><time>2026-04-04T12:57:15.986Z</time></trkpt><trkpt lat="44.729225" lon="9.97092"><ele>535.25</ele><time>2026-04-04T12:57:16.986Z</time></trkpt><trkpt lat="44.7291133" lon="9.9708367"><ele>538.5</ele><time>2026-04-04T12:57:17.986Z</time></trkpt><trkpt lat="44.729015" lon="9.9707367"><ele>541.75</ele><time>2026-04-04T12:57:18.986Z</time></trkpt><trkpt lat="44.728945" lon="9.970595"><ele>545.0</ele><time>2026-04-04T12:57:19.986Z</time></trkpt><trkpt lat="44.7289133" lon="9.97041"><ele>545.0</ele><time>2026-04-04T12:57:20.986Z</time></trkpt><trkpt lat="44.72885" lon="9.9702217"><ele>545.0</ele><time>2026-04-04T12:57:21.986Z</time></trkpt><trkpt lat="44.728745" lon="9.97006"><ele>545.0</ele><time>2026-04-04T12:57:22.986Z</time></trkpt><trkpt lat="44.7286367" lon="9.9699267"><ele>545.0</ele><time>2026-04-04T12:57:23.986Z</time></trkpt><trkpt lat="44.7285333" lon="9.9698067"><ele>542.75</ele><time>2026-04-04T12:57:24.986Z</time></trkpt><trkpt lat="44.7284483" lon="9.9696917"><ele>540.5</ele><time>2026-04-04T12:57:25.986Z</time></trkpt><trkpt lat="44.7283783" lon="9.9695617"><ele>538.25</ele><time>2026-04-04T12:57:26.986Z</time></trkpt><trkpt lat="44.72833" lon="9.969405"><ele>536.0</ele><time>2026-04-04T12:57:27.986Z</time></trkpt><trkpt lat="44.728345" lon="9.9692433"><ele>536.25</ele><time>2026-04-04T12:57:28.986Z</time></trkpt><trkpt lat="44.7283983" lon="9.9690767"><ele>536.5</ele><time>2026-04-04T12:57:29.986Z</time></trkpt><trkpt lat="44.7284717" lon="9.9688967"><ele>536.75</ele><time>2026-04-04T12:57:30.986Z</time></trkpt><trkpt lat="44.728535" lon="9.9687133"><ele>537.0</ele><time>2026-04-04T12:57:31.986Z</time></trkpt><trkpt lat="44.728585" lon="9.9685233"><ele>540.25</ele><time>2026-04-04T12:57:32.986Z</time></trkpt><trkpt lat="44.7286183" lon="9.9683367"><ele>543.5</ele><time>2026-04-04T12:57:33.986Z</time></trkpt><trkpt lat="44.7286233" lon="9.9681483"><ele>546.75</ele><time>2026-04-04T12:57:34.987Z</time></trkpt><trkpt lat="44.7286" lon="9.9679567"><ele>550.0</ele><time>2026-04-04T12:57:35.987Z</time></trkpt><trkpt lat="44.7285733" lon="9.9677667"><ele>545.0</ele><time>2026-04-04T12:57:36.987Z</time></trkpt><trkpt lat="44.7285367" lon="9.9675817"><ele>540.0</ele><time>2026-04-04T12:57:37.986Z</time></trkpt><trkpt lat="44.72849" lon="9.967405"><ele>535.0</ele><time>2026-04-04T12:57:38.987Z</time></trkpt><trkpt lat="44.728425" lon="9.9672367"><ele>530.0</ele><time>2026-04-04T12:57:39.986Z</time></trkpt><trkpt lat="44.728345" lon="9.96707"><ele>530.0</ele><time>2026-04-04T12:57:40.987Z</time></trkpt><trkpt lat="44.7282633" lon="9.966905"><ele>530.0</ele><time>2026-04-04T12:57:41.986Z</time></trkpt><trkpt lat="44.72818" lon="9.96673"><ele>530.0</ele><time>2026-04-04T12:57:42.987Z</time></trkpt><trkpt lat="44.7280933" lon="9.966555"><ele>530.0</ele><time>2026-04-04T12:57:43.986Z</time></trkpt><trkpt lat="44.7280083" lon="9.966375"><ele>531.25</ele><time>2026-04-04T12:57:44.986Z</time></trkpt><trkpt lat="44.72793" lon="9.9662017"><ele>532.5</ele><time>2026-04-04T12:57:45.987Z</time></trkpt><trkpt lat="44.7278383" lon="9.96604"><ele>533.75</ele><time>2026-04-04T12:57:46.987Z</time></trkpt><trkpt lat="44.7277333" lon="9.9658883"><ele>535.0</ele><time>2026-04-04T12:57:47.986Z</time></trkpt><trkpt lat="44.7276067" lon="9.96576"><ele>532.5</ele><time>2026-04-04T12:57:48.987Z</time></trkpt><trkpt lat="44.7274683" lon="9.9656667"><ele>530.0</ele><time>2026-04-04T12:57:49.987Z</time></trkpt><trkpt lat="44.7273433" lon="9.9655667"><ele>527.5</ele><time>2026-04-04T12:57:50.987Z</time></trkpt><trkpt lat="44.72722" lon="9.96547"><ele>525.0</ele><time>2026-04-04T12:57:51.987Z</time></trkpt><trkpt lat="44.7271067" lon="9.9653683"><ele>525.0</ele><time>2026-04-04T12:57:52.986Z</time></trkpt><trkpt lat="44.7270183" lon="9.965245"><ele>525.0</ele><time>2026-04-04T12:57:53.986Z</time></trkpt><trkpt lat="44.72696" lon="9.9650917"><ele>525.0</ele><time>2026-04-04T12:57:54.986Z</time></trkpt><trkpt lat="44.7269283" lon="9.964915"><ele>525.0</ele><time>2026-04-04T12:57:55.986Z</time></trkpt><trkpt lat="44.7269167" lon="9.9647233"><ele>527.3333333333334</ele><time>2026-04-04T12:57:56.986Z</time></trkpt><trkpt lat="44.726905" lon="9.9644983"><ele>529.6666666666667</ele><time>2026-04-04T12:57:57.986Z</time></trkpt><trkpt lat="44.7268833" lon="9.96425"><ele>532.0</ele><time>2026-04-04T12:57:58.986Z</time></trkpt><trkpt lat="44.7268583" lon="9.9640033"><ele>525.6666666666667</ele><time>2026-04-04T12:57:59.987Z</time></trkpt><trkpt lat="44.7268317" lon="9.9637783"><ele>519.3333333333334</ele><time>2026-04-04T12:58:00.987Z</time></trkpt><trkpt lat="44.7268" lon="9.9635567"><ele>513.0</ele><time>2026-04-04T12:58:01.987Z</time></trkpt><trkpt lat="44.726795" lon="9.9633483"><ele>513.0</ele><time>2026-04-04T12:58:02.986Z</time></trkpt><trkpt lat="44.7268117" lon="9.9631433"><ele>513.0</ele><time>2026-04-04T12:58:03.986Z</time></trkpt><trkpt lat="44.7268567" lon="9.962945"><ele>513.0</ele><time>2026-04-04T12:58:04.986Z</time></trkpt><trkpt lat="44.726915" lon="9.9627583"><ele>513.0</ele><time>2026-04-04T12:58:05.986Z</time></trkpt><trkpt lat="44.7269633" lon="9.96258"><ele>512.5</ele><time>2026-04-04T12:58:06.986Z</time></trkpt><trkpt lat="44.7269833" lon="9.9623967"><ele>512.0</ele><time>2026-04-04T12:58:07.986Z</time></trkpt><trkpt lat="44.726965" lon="9.9622"><ele>511.5</ele><time>2026-04-04T12:58:08.986Z</time></trkpt><trkpt lat="44.726875" lon="9.9620133"><ele>511.0</ele><time>2026-04-04T12:58:09.986Z</time></trkpt><trkpt lat="44.7267567" lon="9.961835"><ele>511.6666666666667</ele><time>2026-04-04T12:58:10.986Z</time></trkpt><trkpt lat="44.7266483" lon="9.9616633"><ele>512.3333333333334</ele><time>2026-04-04T12:58:11.987Z</time></trkpt><trkpt lat="44.72655" lon="9.9615017"><ele>513.0</ele><time>2026-04-04T12:58:12.987Z</time></trkpt><trkpt lat="44.7264567" lon="9.96132"><ele>513.0</ele><time>2026-04-04T12:58:13.986Z</time></trkpt><trkpt lat="44.726415" lon="9.9611217"><ele>513.0</ele><time>2026-04-04T12:58:14.986Z</time></trkpt><trkpt lat="44.7264083" lon="9.9609017"><ele>513.0</ele><time>2026-04-04T12:58:15.986Z</time></trkpt><trkpt lat="44.72642" lon="9.9606533"><ele>514.0</ele><time>2026-04-04T12:58:16.986Z</time></trkpt><trkpt lat="44.7264283" lon="9.96041"><ele>515.0</ele><time>2026-04-04T12:58:17.986Z</time></trkpt><trkpt lat="44.72643" lon="9.960165"><ele>516.0</ele><time>2026-04-04T12:58:18.986Z</time></trkpt><trkpt lat="44.7264217" lon="9.9599167"><ele>516.0</ele><time>2026-04-04T12:58:19.986Z</time></trkpt><trkpt lat="44.7263617" lon="9.95968"><ele>516.0</ele><time>2026-04-04T12:58:20.986Z</time></trkpt><trkpt lat="44.7262633" lon="9.959445"><ele>516.0</ele><time>2026-04-04T12:58:21.986Z</time></trkpt><trkpt lat="44.7261617" lon="9.9592133"><ele>510.33333333333337</ele><time>2026-04-04T12:58:22.987Z</time></trkpt><trkpt lat="44.7260517" lon="9.9589833"><ele>504.6666666666667</ele><time>2026-04-04T12:58:23.986Z</time></trkpt><trkpt lat="44.72595" lon="9.9587683"><ele>499.0</ele><time>2026-04-04T12:58:24.986Z</time></trkpt><trkpt lat="44.72585" lon="9.9585583"><ele>499.0</ele><time>2026-04-04T12:58:25.986Z</time></trkpt><trkpt lat="44.725755" lon="9.9583683"><ele>499.0</ele><time>2026-04-04T12:58:26.986Z</time></trkpt><trkpt lat="44.72566" lon="9.9581917"><ele>499.0</ele><time>2026-04-04T12:58:27.986Z</time></trkpt><trkpt lat="44.7255883" lon="9.958045"><ele>499.0</ele><time>2026-04-04T12:58:28.986Z</time></trkpt><trkpt lat="44.7255317" lon="9.9579133"><ele>500.4</ele><time>2026-04-04T12:58:29.986Z</time></trkpt><trkpt lat="44.7254883" lon="9.9577817"><ele>501.79999999999995</ele><time>2026-04-04T12:58:30.986Z</time></trkpt><trkpt lat="44.7254733" lon="9.9576517"><ele>503.20000000000005</ele><time>2026-04-04T12:58:31.986Z</time></trkpt><trkpt lat="44.7255033" lon="9.95751"><ele>504.6</ele><time>2026-04-04T12:58:32.986Z</time></trkpt><trkpt lat="44.7255667" lon="9.957385"><ele>506.0</ele><time>2026-04-04T12:58:33.986Z</time></trkpt><trkpt lat="44.7256683" lon="9.95729"><ele>506.66666666666663</ele><time>2026-04-04T12:58:34.986Z</time></trkpt><trkpt lat="44.7258017" lon="9.9571967"><ele>507.33333333333337</ele><time>2026-04-04T12:58:35.987Z</time></trkpt><trkpt lat="44.72596" lon="9.9571117"><ele>508.0</ele><time>2026-04-04T12:58:36.986Z</time></trkpt><trkpt lat="44.7261133" lon="9.9570167"><ele>508.75</ele><time>2026-04-04T12:58:37.986Z</time></trkpt><trkpt lat="44.72625" lon="9.95692"><ele>509.5</ele><time>2026-04-04T12:58:38.986Z</time></trkpt><trkpt lat="44.72636" lon="9.9568067"><ele>510.25</ele><time>2026-04-04T12:58:39.987Z</time></trkpt><trkpt lat="44.7264183" lon="9.95666"><ele>511.0</ele><time>2026-04-04T12:58:40.986Z</time></trkpt><trkpt lat="44.7264317" lon="9.956485"><ele>511.0</ele><time>2026-04-04T12:58:41.987Z</time></trkpt><trkpt lat="44.7263967" lon="9.9563367"><ele>511.0</ele><time>2026-04-04T12:58:42.987Z</time></trkpt><trkpt lat="44.726345" lon="9.95621"><ele>511.0</ele><time>2026-04-04T12:58:43.986Z</time></trkpt><trkpt lat="44.7263117" lon="9.9560733"><ele>511.0</ele><time>2026-04-04T12:58:44.986Z</time></trkpt><trkpt lat="44.726305" lon="9.9559183"><ele>511.0</ele><time>2026-04-04T12:58:45.986Z</time></trkpt><trkpt lat="44.7263417" lon="9.95575"><ele>510.75</ele><time>2026-04-04T12:58:46.986Z</time></trkpt><trkpt lat="44.7264067" lon="9.9555733"><ele>510.5</ele><time>2026-04-04T12:58:47.987Z</time></trkpt><trkpt lat="44.7264917" lon="9.9554233"><ele>510.25</ele><time>2026-04-04T12:58:48.986Z</time></trkpt><trkpt lat="44.72658" lon="9.9552933"><ele>510.0</ele><time>2026-04-04T12:58:49.986Z</time></trkpt><trkpt lat="44.7266767" lon="9.9551817"><ele>510.0</ele><time>2026-04-04T12:58:50.986Z</time></trkpt><trkpt lat="44.7267867" lon="9.9551017"><ele>510.0</ele><time>2026-04-04T12:58:51.987Z</time></trkpt><trkpt lat="44.7268883" lon="9.9550117"><ele>510.0</ele><time>2026-04-04T12:58:52.986Z</time></trkpt><trkpt lat="44.7269617" lon="9.9548833"><ele>510.0</ele><time>2026-04-04T12:58:53.987Z</time></trkpt><trkpt lat="44.7269967" lon="9.9547283"><ele>511.5</ele><time>2026-04-04T12:58:54.987Z</time></trkpt><trkpt lat="44.7269867" lon="9.9545417"><ele>513.0</ele><time>2026-04-04T12:58:55.987Z</time></trkpt><trkpt lat="44.72695" lon="9.95434"><ele>514.5</ele><time>2026-04-04T12:58:56.987Z</time></trkpt><trkpt lat="44.7269067" lon="9.9541317"><ele>516.0</ele><time>2026-04-04T12:58:57.987Z</time></trkpt><trkpt lat="44.72685" lon="9.9539417"><ele>513.0</ele><time>2026-04-04T12:58:58.986Z</time></trkpt><trkpt lat="44.726785" lon="9.9537567"><ele>510.0</ele><time>2026-04-04T12:58:59.986Z</time></trkpt><trkpt lat="44.7266833" lon="9.9536"><ele>507.0</ele><time>2026-04-04T12:59:00.987Z</time></trkpt><trkpt lat="44.726555" lon="9.95349"><ele>504.0</ele><time>2026-04-04T12:59:01.986Z</time></trkpt><trkpt lat="44.7264067" lon="9.9534217"><ele>504.0</ele><time>2026-04-04T12:59:02.987Z</time></trkpt><trkpt lat="44.7262483" lon="9.9533867"><ele>504.0</ele><time>2026-04-04T12:59:03.986Z</time></trkpt><trkpt lat="44.7260767" lon="9.9533967"><ele>504.0</ele><time>2026-04-04T12:59:04.986Z</time></trkpt><trkpt lat="44.7259083" lon="9.953455"><ele>500.33333333333337</ele><time>2026-04-04T12:59:05.986Z</time></trkpt><trkpt lat="44.7257217" lon="9.95354"><ele>496.6666666666667</ele><time>2026-04-04T12:59:06.986Z</time></trkpt><trkpt lat="44.7255367" lon="9.9536283"><ele>493.0</ele><time>2026-04-04T12:59:07.987Z</time></trkpt><trkpt lat="44.7253517" lon="9.9537267"><ele>493.0</ele><time>2026-04-04T12:59:08.986Z</time></trkpt><trkpt lat="44.7251683" lon="9.95382"><ele>493.0</ele><time>2026-04-04T12:59:09.987Z</time></trkpt><trkpt lat="44.7249867" lon="9.9538983"><ele>493.0</ele><time>2026-04-04T12:59:10.987Z</time></trkpt><trkpt lat="44.724815" lon="9.9539667"><ele>493.0</ele><time>2026-04-04T12:59:11.987Z</time></trkpt><trkpt lat="44.724655" lon="9.9540117"><ele>493.0</ele><time>2026-04-04T12:59:12.986Z</time></trkpt><trkpt lat="44.724515" lon="9.95404"><ele>493.0</ele><time>2026-04-04T12:59:13.986Z</time></trkpt><trkpt lat="44.7243667" lon="9.9540467"><ele>494.33333333333337</ele><time>2026-04-04T12:59:14.986Z</time></trkpt><trkpt lat="44.72423" lon="9.9540167"><ele>495.66666666666663</ele><time>2026-04-04T12:59:15.986Z</time></trkpt><trkpt lat="44.7240867" lon="9.953945"><ele>497.0</ele><time>2026-04-04T12:59:16.986Z</time></trkpt><trkpt lat="44.7239267" lon="9.9538567"><ele>497.0</ele><time>2026-04-04T12:59:17.986Z</time></trkpt><trkpt lat="44.7237667" lon="9.9537967"><ele>497.0</ele><time>2026-04-04T12:59:18.987Z</time></trkpt><trkpt lat="44.72361" lon="9.95375"><ele>497.0</ele><time>2026-04-04T12:59:19.986Z</time></trkpt><trkpt lat="44.7234583" lon="9.9537"><ele>499.66666666666663</ele><time>2026-04-04T12:59:20.986Z</time></trkpt><trkpt lat="44.7233183" lon="9.95363"><ele>502.33333333333337</ele><time>2026-04-04T12:59:21.986Z</time></trkpt><trkpt lat="44.7231967" lon="9.9535117"><ele>505.0</ele><time>2026-04-04T12:59:22.986Z</time></trkpt><trkpt lat="44.7230933" lon="9.9533317"><ele>505.0</ele><time>2026-04-04T12:59:23.986Z</time></trkpt><trkpt lat="44.7229917" lon="9.9531417"><ele>505.0</ele><time>2026-04-04T12:59:24.987Z</time></trkpt><trkpt lat="44.7228933" lon="9.95295"><ele>505.0</ele><time>2026-04-04T12:59:25.986Z</time></trkpt><trkpt lat="44.7227883" lon="9.9528"><ele>498.5</ele><time>2026-04-04T12:59:26.987Z</time></trkpt><trkpt lat="44.7226517" lon="9.9526967"><ele>492.0</ele><time>2026-04-04T12:59:27.987Z</time></trkpt><trkpt lat="44.72251" lon="9.9526433"><ele>485.5</ele><time>2026-04-04T12:59:28.987Z</time></trkpt><trkpt lat="44.722365" lon="9.95263"><ele>479.0</ele><time>2026-04-04T12:59:29.986Z</time></trkpt><trkpt lat="44.7222333" lon="9.9526433"><ele>479.0</ele><time>2026-04-04T12:59:30.987Z</time></trkpt><trkpt lat="44.7221183" lon="9.9526467"><ele>479.0</ele><time>2026-04-04T12:59:31.986Z</time></trkpt><trkpt lat="44.722015" lon="9.9525967"><ele>479.0</ele><time>2026-04-04T12:59:32.986Z</time></trkpt><trkpt lat="44.7219067" lon="9.952495"><ele>479.0</ele><time>2026-04-04T12:59:33.986Z</time></trkpt><trkpt lat="44.7218117" lon="9.9523333"><ele>481.0</ele><time>2026-04-04T12:59:34.986Z</time></trkpt><trkpt lat="44.7217217" lon="9.95214"><ele>483.0</ele><time>2026-04-04T12:59:35.986Z</time></trkpt><trkpt lat="44.7216483" lon="9.9519267"><ele>485.0</ele><time>2026-04-04T12:59:36.987Z</time></trkpt><trkpt lat="44.7216033" lon="9.951695"><ele>487.25</ele><time>2026-04-04T12:59:37.987Z</time></trkpt><trkpt lat="44.7215717" lon="9.9514683"><ele>489.5</ele><time>2026-04-04T12:59:38.986Z</time></trkpt><trkpt lat="44.721545" lon="9.951265"><ele>491.75</ele><time>2026-04-04T12:59:39.986Z</time></trkpt><trkpt lat="44.72155" lon="9.9510783"><ele>494.0</ele><time>2026-04-04T12:59:40.986Z</time></trkpt><trkpt lat="44.72161" lon="9.9508917"><ele>493.66666666666663</ele><time>2026-04-04T12:59:41.986Z</time></trkpt><trkpt lat="44.7217033" lon="9.9506917"><ele>493.33333333333337</ele><time>2026-04-04T12:59:42.986Z</time></trkpt><trkpt lat="44.7218017" lon="9.9504933"><ele>493.0</ele><time>2026-04-04T12:59:43.987Z</time></trkpt><trkpt lat="44.7219" lon="9.9502967"><ele>496.6666666666667</ele><time>2026-04-04T12:59:44.987Z</time></trkpt><trkpt lat="44.7219867" lon="9.950095"><ele>500.33333333333337</ele><time>2026-04-04T12:59:45.987Z</time></trkpt><trkpt lat="44.7220717" lon="9.949875"><ele>504.0</ele><time>2026-04-04T12:59:46.986Z</time></trkpt><trkpt lat="44.722135" lon="9.9496733"><ele>504.0</ele><time>2026-04-04T12:59:47.987Z</time></trkpt><trkpt lat="44.7221717" lon="9.9494617"><ele>504.0</ele><time>2026-04-04T12:59:48.986Z</time></trkpt><trkpt lat="44.7221817" lon="9.9492667"><ele>504.0</ele><time>2026-04-04T12:59:49.986Z</time></trkpt><trkpt lat="44.7221667" lon="9.9490717"><ele>504.0</ele><time>2026-04-04T12:59:50.986Z</time></trkpt><trkpt lat="44.722115" lon="9.948895"><ele>504.25</ele><time>2026-04-04T12:59:51.986Z</time></trkpt><trkpt lat="44.7220267" lon="9.9487433"><ele>504.5</ele><time>2026-04-04T12:59:52.986Z</time></trkpt><trkpt lat="44.7219333" lon="9.9486083"><ele>504.75</ele><time>2026-04-04T12:59:53.986Z</time></trkpt><trkpt lat="44.721855" lon="9.9484683"><ele>505.0</ele><time>2026-04-04T12:59:54.987Z</time></trkpt><trkpt lat="44.7217967" lon="9.9483133"><ele>500.75</ele><time>2026-04-04T12:59:55.986Z</time></trkpt><trkpt lat="44.721755" lon="9.94814"><ele>496.5</ele><time>2026-04-04T12:59:56.987Z</time></trkpt><trkpt lat="44.7217383" lon="9.94795"><ele>492.25</ele><time>2026-04-04T12:59:57.986Z</time></trkpt><trkpt lat="44.7217317" lon="9.94774"><ele>488.0</ele><time>2026-04-04T12:59:58.986Z</time></trkpt><trkpt lat="44.7217183" lon="9.9475183"><ele>488.0</ele><time>2026-04-04T12:59:59.986Z</time></trkpt><trkpt lat="44.72171" lon="9.9472867"><ele>488.0</ele><time>2026-04-04T13:00:00.986Z</time></trkpt><trkpt lat="44.721685" lon="9.947065"><ele>488.0</ele><time>2026-04-04T13:00:01.986Z</time></trkpt><trkpt lat="44.7216433" lon="9.9468517"><ele>489.5</ele><time>2026-04-04T13:00:02.986Z</time></trkpt><trkpt lat="44.721565" lon="9.9466667"><ele>491.0</ele><time>2026-04-04T13:00:03.986Z</time></trkpt><trkpt lat="44.7214817" lon="9.9465067"><ele>492.5</ele><time>2026-04-04T13:00:04.986Z</time></trkpt><trkpt lat="44.721415" lon="9.946325"><ele>494.0</ele><time>2026-04-04T13:00:05.987Z</time></trkpt><trkpt lat="44.72138" lon="9.9461267"><ele>494.0</ele><time>2026-04-04T13:00:06.986Z</time></trkpt><trkpt lat="44.7213567" lon="9.945945"><ele>494.0</ele><time>2026-04-04T13:00:07.985Z</time></trkpt><trkpt lat="44.7213433" lon="9.94578"><ele>494.0</ele><time>2026-04-04T13:00:08.985Z</time></trkpt><trkpt lat="44.7213683" lon="9.945635"><ele>494.0</ele><time>2026-04-04T13:00:09.986Z</time></trkpt><trkpt lat="44.72143" lon="9.9455067"><ele>494.0</ele><time>2026-04-04T13:00:10.985Z</time></trkpt><trkpt lat="44.7215383" lon="9.9453867"><ele>494.0</ele><time>2026-04-04T13:00:11.985Z</time></trkpt><trkpt lat="44.7216567" lon="9.945285"><ele>494.0</ele><time>2026-04-04T13:00:12.985Z</time></trkpt><trkpt lat="44.7217867" lon="9.9452033"><ele>494.0</ele><time>2026-04-04T13:00:13.985Z</time></trkpt><trkpt lat="44.7219133" lon="9.9451033"><ele>494.0</ele><time>2026-04-04T13:00:14.985Z</time></trkpt><trkpt lat="44.7220417" lon="9.945"><ele>494.0</ele><time>2026-04-04T13:00:15.985Z</time></trkpt><trkpt lat="44.7221617" lon="9.9448767"><ele>494.0</ele><time>2026-04-04T13:00:16.985Z</time></trkpt><trkpt lat="44.7222667" lon="9.9447183"><ele>494.0</ele><time>2026-04-04T13:00:17.986Z</time></trkpt><trkpt lat="44.722335" lon="9.944525"><ele>494.0</ele><time>2026-04-04T13:00:18.985Z</time></trkpt><trkpt lat="44.7223767" lon="9.9442967"><ele>494.0</ele><time>2026-04-04T13:00:19.985Z</time></trkpt><trkpt lat="44.7224083" lon="9.944055"><ele>493.0</ele><time>2026-04-04T13:00:20.985Z</time></trkpt><trkpt lat="44.7224517" lon="9.94381"><ele>492.0</ele><time>2026-04-04T13:00:21.986Z</time></trkpt><trkpt lat="44.722505" lon="9.9435633"><ele>491.0</ele><time>2026-04-04T13:00:22.985Z</time></trkpt><trkpt lat="44.7225633" lon="9.9433267"><ele>491.0</ele><time>2026-04-04T13:00:23.985Z</time></trkpt><trkpt lat="44.7226183" lon="9.943085"><ele>491.0</ele><time>2026-04-04T13:00:24.986Z</time></trkpt><trkpt lat="44.7226867" lon="9.942845"><ele>491.0</ele><time>2026-04-04T13:00:25.985Z</time></trkpt><trkpt lat="44.7227533" lon="9.9425983"><ele>484.0</ele><time>2026-04-04T13:00:26.986Z</time></trkpt><trkpt lat="44.72281" lon="9.9423467"><ele>477.0</ele><time>2026-04-04T13:00:27.986Z</time></trkpt><trkpt lat="44.7228567" lon="9.9420983"><ele>470.0</ele><time>2026-04-04T13:00:28.985Z</time></trkpt><trkpt lat="44.7229083" lon="9.9418517"><ele>469.0</ele><time>2026-04-04T13:00:29.986Z</time></trkpt><trkpt lat="44.722955" lon="9.941625"><ele>468.0</ele><time>2026-04-04T13:00:30.985Z</time></trkpt><trkpt lat="44.7229917" lon="9.9414"><ele>467.0</ele><time>2026-04-04T13:00:31.986Z</time></trkpt><trkpt lat="44.72303" lon="9.9411833"><ele>467.0</ele><time>2026-04-04T13:00:32.986Z</time></trkpt><trkpt lat="44.7230817" lon="9.9409867"><ele>467.0</ele><time>2026-04-04T13:00:33.985Z</time></trkpt><trkpt lat="44.72316" lon="9.9408117"><ele>467.0</ele><time>2026-04-04T13:00:34.985Z</time></trkpt><trkpt lat="44.723265" lon="9.9406583"><ele>467.0</ele><time>2026-04-04T13:00:35.986Z</time></trkpt><trkpt lat="44.7233667" lon="9.9405217"><ele>467.25</ele><time>2026-04-04T13:00:36.985Z</time></trkpt><trkpt lat="44.723465" lon="9.940385"><ele>467.5</ele><time>2026-04-04T13:00:37.985Z</time></trkpt><trkpt lat="44.7235367" lon="9.94025"><ele>467.75</ele><time>2026-04-04T13:00:38.985Z</time></trkpt><trkpt lat="44.7235833" lon="9.9400933"><ele>468.0</ele><time>2026-04-04T13:00:39.985Z</time></trkpt><trkpt lat="44.7235767" lon="9.939925"><ele>468.0</ele><time>2026-04-04T13:00:40.986Z</time></trkpt><trkpt lat="44.723525" lon="9.93976"><ele>468.0</ele><time>2026-04-04T13:00:41.985Z</time></trkpt><trkpt lat="44.7234167" lon="9.9395933"><ele>468.0</ele><time>2026-04-04T13:00:42.985Z</time></trkpt><trkpt lat="44.72329" lon="9.9394333"><ele>468.0</ele><time>2026-04-04T13:00:43.986Z</time></trkpt><trkpt lat="44.723165" lon="9.93927"><ele>468.0</ele><time>2026-04-04T13:00:44.985Z</time></trkpt><trkpt lat="44.7230467" lon="9.9391033"><ele>468.0</ele><time>2026-04-04T13:00:45.985Z</time></trkpt><trkpt lat="44.72293" lon="9.9389467"><ele>467.0</ele><time>2026-04-04T13:00:46.985Z</time></trkpt><trkpt lat="44.7228267" lon="9.9388083"><ele>466.0</ele><time>2026-04-04T13:00:47.985Z</time></trkpt><trkpt lat="44.722745" lon="9.93869"><ele>465.0</ele><time>2026-04-04T13:00:48.985Z</time></trkpt><trkpt lat="44.72268" lon="9.93859"><ele>464.0</ele><time>2026-04-04T13:00:49.986Z</time></trkpt><trkpt lat="44.7226133" lon="9.9384967"><ele>464.0</ele><time>2026-04-04T13:00:50.986Z</time></trkpt><trkpt lat="44.7225467" lon="9.9384017"><ele>464.0</ele><time>2026-04-04T13:00:51.986Z</time></trkpt><trkpt lat="44.7224733" lon="9.9382917"><ele>464.0</ele><time>2026-04-04T13:00:52.986Z</time></trkpt><trkpt lat="44.7223967" lon="9.9381733"><ele>464.0</ele><time>2026-04-04T13:00:53.985Z</time></trkpt><trkpt lat="44.722315" lon="9.9380617"><ele>464.0</ele><time>2026-04-04T13:00:54.985Z</time></trkpt><trkpt lat="44.722235" lon="9.93795"><ele>462.99999999999994</ele><time>2026-04-04T13:00:55.986Z</time></trkpt><trkpt lat="44.722165" lon="9.9378383"><ele>462.0</ele><time>2026-04-04T13:00:56.985Z</time></trkpt><trkpt lat="44.7221067" lon="9.9377333"><ele>461.0</ele><time>2026-04-04T13:00:57.986Z</time></trkpt><trkpt lat="44.722055" lon="9.9376433"><ele>460.0</ele><time>2026-04-04T13:00:58.986Z</time></trkpt><trkpt lat="44.722025" lon="9.9375483"><ele>458.99999999999994</ele><time>2026-04-04T13:00:59.985Z</time></trkpt><trkpt lat="44.7220267" lon="9.9374483"><ele>458.0</ele><time>2026-04-04T13:01:00.985Z</time></trkpt><trkpt lat="44.7220567" lon="9.937365"><ele>456.2</ele><time>2026-04-04T13:01:01.985Z</time></trkpt><trkpt lat="44.7221033" lon="9.937305"><ele>454.4</ele><time>2026-04-04T13:01:02.985Z</time></trkpt><trkpt lat="44.7221917" lon="9.9372667"><ele>452.59999999999997</ele><time>2026-04-04T13:01:03.986Z</time></trkpt><trkpt lat="44.7223017" lon="9.9372633"><ele>450.79999999999995</ele><time>2026-04-04T13:01:04.985Z</time></trkpt><trkpt lat="44.7224233" lon="9.93726"><ele>449.0</ele><time>2026-04-04T13:01:05.986Z</time></trkpt><trkpt lat="44.722535" lon="9.93725"><ele>449.0</ele><time>2026-04-04T13:01:06.985Z</time></trkpt><trkpt lat="44.7226367" lon="9.937235"><ele>449.0</ele><time>2026-04-04T13:01:07.986Z</time></trkpt><trkpt lat="44.7227317" lon="9.937225"><ele>449.0</ele><time>2026-04-04T13:01:08.985Z</time></trkpt><trkpt lat="44.72281" lon="9.9372133"><ele>449.0</ele><time>2026-04-04T13:01:09.986Z</time></trkpt><trkpt lat="44.7229067" lon="9.9371683"><ele>449.0</ele><time>2026-04-04T13:01:11.985Z</time></trkpt><trkpt lat="44.72287" lon="9.9370233"><ele>448.99999999999994</ele><time>2026-04-04T13:01:14.985Z</time></trkpt><trkpt lat="44.7228267" lon="9.9369483"><ele>449.0</ele><time>2026-04-04T13:01:15.986Z</time></trkpt><trkpt lat="44.7227717" lon="9.9368683"><ele>449.0</ele><time>2026-04-04T13:01:16.985Z</time></trkpt><trkpt lat="44.7227083" lon="9.9367817"><ele>449.0</ele><time>2026-04-04T13:01:17.986Z</time></trkpt><trkpt lat="44.7226433" lon="9.936705"><ele>448.99999999999994</ele><time>2026-04-04T13:01:18.985Z</time></trkpt><trkpt lat="44.72257" lon="9.9366"><ele>449.0</ele><time>2026-04-04T13:01:19.985Z</time></trkpt><trkpt lat="44.7225" lon="9.9364983"><ele>448.16666666666663</ele><time>2026-04-04T13:01:20.985Z</time></trkpt><trkpt lat="44.7224417" lon="9.9364"><ele>447.3333333333333</ele><time>2026-04-04T13:01:21.985Z</time></trkpt><trkpt lat="44.7223917" lon="9.9362917"><ele>446.5</ele><time>2026-04-04T13:01:22.985Z</time></trkpt><trkpt lat="44.72235" lon="9.936185"><ele>445.66666666666663</ele><time>2026-04-04T13:01:23.985Z</time></trkpt><trkpt lat="44.7223133" lon="9.9360683"><ele>444.8333333333333</ele><time>2026-04-04T13:01:24.985Z</time></trkpt><trkpt lat="44.7222917" lon="9.9359533"><ele>444.0</ele><time>2026-04-04T13:01:25.985Z</time></trkpt><trkpt lat="44.722275" lon="9.9358333"><ele>443.79999999999995</ele><time>2026-04-04T13:01:26.986Z</time></trkpt><trkpt lat="44.7222717" lon="9.9356933"><ele>443.59999999999997</ele><time>2026-04-04T13:01:27.985Z</time></trkpt><trkpt lat="44.7222717" lon="9.935545"><ele>443.4</ele><time>2026-04-04T13:01:28.986Z</time></trkpt><trkpt lat="44.72228" lon="9.9353967"><ele>443.2</ele><time>2026-04-04T13:01:29.986Z</time></trkpt><trkpt lat="44.72229" lon="9.9352583"><ele>443.0</ele><time>2026-04-04T13:01:30.985Z</time></trkpt><trkpt lat="44.7222983" lon="9.93513"><ele>443.42857142857144</ele><time>2026-04-04T13:01:31.985Z</time></trkpt><trkpt lat="44.7222967" lon="9.9350117"><ele>443.8571428571429</ele><time>2026-04-04T13:01:32.985Z</time></trkpt><trkpt lat="44.7223" lon="9.934905"><ele>444.2857142857143</ele><time>2026-04-04T13:01:33.986Z</time></trkpt><trkpt lat="44.7223083" lon="9.93481"><ele>444.7142857142857</ele><time>2026-04-04T13:01:34.986Z</time></trkpt><trkpt lat="44.7223083" lon="9.934705"><ele>445.1428571428571</ele><time>2026-04-04T13:01:35.985Z</time></trkpt><trkpt lat="44.72231" lon="9.93461"><ele>445.57142857142856</ele><time>2026-04-04T13:01:36.985Z</time></trkpt><trkpt lat="44.7223217" lon="9.93451"><ele>446.0</ele><time>2026-04-04T13:01:37.986Z</time></trkpt><trkpt lat="44.7223433" lon="9.9344117"><ele>445.99999999999994</ele><time>2026-04-04T13:01:38.986Z</time></trkpt><trkpt lat="44.7223767" lon="9.9343117"><ele>446.0</ele><time>2026-04-04T13:01:39.985Z</time></trkpt><trkpt lat="44.7224083" lon="9.93421"><ele>446.0</ele><time>2026-04-04T13:01:40.986Z</time></trkpt><trkpt lat="44.72243" lon="9.934105"><ele>446.0</ele><time>2026-04-04T13:01:41.985Z</time></trkpt><trkpt lat="44.7224617" lon="9.9339917"><ele>445.99999999999994</ele><time>2026-04-04T13:01:42.986Z</time></trkpt><trkpt lat="44.7224833" lon="9.9338767"><ele>446.0</ele><time>2026-04-04T13:01:43.985Z</time></trkpt><trkpt lat="44.7225083" lon="9.93376"><ele>447.66666666666663</ele><time>2026-04-04T13:01:44.985Z</time></trkpt><trkpt lat="44.7225283" lon="9.933645"><ele>449.3333333333333</ele><time>2026-04-04T13:01:45.985Z</time></trkpt><trkpt lat="44.7225433" lon="9.933545"><ele>451.0</ele><time>2026-04-04T13:01:46.985Z</time></trkpt><trkpt lat="44.7225467" lon="9.933365"><ele>452.66666666666663</ele><time>2026-04-04T13:01:48.986Z</time></trkpt><trkpt lat="44.7225383" lon="9.9332617"><ele>454.3333333333333</ele><time>2026-04-04T13:01:49.985Z</time></trkpt><trkpt lat="44.7225267" lon="9.93315"><ele>456.0</ele><time>2026-04-04T13:01:50.985Z</time></trkpt><trkpt lat="44.72252" lon="9.9330267"><ele>456.8333333333333</ele><time>2026-04-04T13:01:51.986Z</time></trkpt><trkpt lat="44.7225083" lon="9.932915"><ele>457.66666666666663</ele><time>2026-04-04T13:01:52.985Z</time></trkpt><trkpt lat="44.7224983" lon="9.9328017"><ele>458.5</ele><time>2026-04-04T13:01:53.985Z</time></trkpt><trkpt lat="44.7224967" lon="9.93269"><ele>459.3333333333333</ele><time>2026-04-04T13:01:54.985Z</time></trkpt><trkpt lat="44.72249" lon="9.9325833"><ele>460.16666666666663</ele><time>2026-04-04T13:01:55.985Z</time></trkpt><trkpt lat="44.7224867" lon="9.9324833"><ele>461.0</ele><time>2026-04-04T13:01:56.985Z</time></trkpt><trkpt lat="44.7224817" lon="9.932375"><ele>462.8571428571429</ele><time>2026-04-04T13:01:57.986Z</time></trkpt><trkpt lat="44.7224833" lon="9.9322833"><ele>464.7142857142858</ele><time>2026-04-04T13:01:58.985Z</time></trkpt><trkpt lat="44.7224867" lon="9.93219"><ele>466.57142857142856</ele><time>2026-04-04T13:01:59.985Z</time></trkpt><trkpt lat="44.7224933" lon="9.9320967"><ele>468.42857142857144</ele><time>2026-04-04T13:02:00.985Z</time></trkpt><trkpt lat="44.7224833" lon="9.931995"><ele>470.2857142857143</ele><time>2026-04-04T13:02:01.986Z</time></trkpt><trkpt lat="44.72249" lon="9.931885"><ele>472.1428571428571</ele><time>2026-04-04T13:02:02.985Z</time></trkpt><trkpt lat="44.7225033" lon="9.9317917"><ele>473.99999999999994</ele><time>2026-04-04T13:02:03.985Z</time></trkpt><trkpt lat="44.72254" lon="9.931675"><ele>475.0</ele><time>2026-04-04T13:02:05.985Z</time></trkpt><trkpt lat="44.7226117" lon="9.931645"><ele>476.0</ele><time>2026-04-04T13:02:07.985Z</time></trkpt><trkpt lat="44.7226783" lon="9.93166"><ele>477.0</ele><time>2026-04-04T13:02:08.986Z</time></trkpt><trkpt lat="44.7227533" lon="9.9316917"><ele>478.0</ele><time>2026-04-04T13:02:09.985Z</time></trkpt><trkpt lat="44.722825" lon="9.93173"><ele>479.0</ele><time>2026-04-04T13:02:10.985Z</time></trkpt><trkpt lat="44.7229133" lon="9.9317783"><ele>480.0</ele><time>2026-04-04T13:02:11.985Z</time></trkpt><trkpt lat="44.7229983" lon="9.931835"><ele>480.0</ele><time>2026-04-04T13:02:12.985Z</time></trkpt><trkpt lat="44.7230767" lon="9.93188"><ele>480.0</ele><time>2026-04-04T13:02:13.985Z</time></trkpt><trkpt lat="44.72316" lon="9.93193"><ele>480.0</ele><time>2026-04-04T13:02:14.985Z</time></trkpt><trkpt lat="44.7232317" lon="9.9319767"><ele>480.0</ele><time>2026-04-04T13:02:15.986Z</time></trkpt><trkpt lat="44.723295" lon="9.9319967"><ele>480.0</ele><time>2026-04-04T13:02:16.985Z</time></trkpt><trkpt lat="44.7233617" lon="9.9319967"><ele>480.0</ele><time>2026-04-04T13:02:17.985Z</time></trkpt><trkpt lat="44.72341" lon="9.9319367"><ele>480.0</ele><time>2026-04-04T13:02:18.985Z</time></trkpt><trkpt lat="44.7234433" lon="9.9318517"><ele>480.0</ele><time>2026-04-04T13:02:19.986Z</time></trkpt><trkpt lat="44.7234567" lon="9.9317517"><ele>480.0</ele><time>2026-04-04T13:02:20.985Z</time></trkpt><trkpt lat="44.723475" lon="9.93162"><ele>480.0</ele><time>2026-04-04T13:02:22.985Z</time></trkpt><trkpt lat="44.7234983" lon="9.93151"><ele>480.0</ele><time>2026-04-04T13:02:29.985Z</time></trkpt><trkpt lat="44.7235267" lon="9.93142"><ele>480.0</ele><time>2026-04-04T13:02:31.985Z</time></trkpt><trkpt lat="44.72356" lon="9.9313217"><ele>482.3333333333333</ele><time>2026-04-04T13:02:33.985Z</time></trkpt><trkpt lat="44.7235917" lon="9.931235"><ele>484.66666666666663</ele><time>2026-04-04T13:02:35.985Z</time></trkpt><trkpt lat="44.7236033" lon="9.9311017"><ele>487.0</ele><time>2026-04-04T13:02:37.986Z</time></trkpt><trkpt lat="44.7235383" lon="9.930965"><ele>489.3333333333333</ele><time>2026-04-04T13:02:39.986Z</time></trkpt><trkpt lat="44.7234817" lon="9.93089"><ele>491.66666666666663</ele><time>2026-04-04T13:02:40.985Z</time></trkpt><trkpt lat="44.7234317" lon="9.9308083"><ele>494.0</ele><time>2026-04-04T13:02:41.985Z</time></trkpt><trkpt lat="44.723395" lon="9.930715"><ele>495.14285714285717</ele><time>2026-04-04T13:02:42.985Z</time></trkpt><trkpt lat="44.7233617" lon="9.9306333"><ele>496.2857142857142</ele><time>2026-04-04T13:02:43.985Z</time></trkpt><trkpt lat="44.72334" lon="9.9305467"><ele>497.4285714285714</ele><time>2026-04-04T13:02:44.986Z</time></trkpt><trkpt lat="44.7233217" lon="9.9304583"><ele>498.57142857142856</ele><time>2026-04-04T13:02:45.984Z</time></trkpt><trkpt lat="44.7233" lon="9.9303717"><ele>499.71428571428567</ele><time>2026-04-04T13:02:46.985Z</time></trkpt><trkpt lat="44.7232817" lon="9.9302783"><ele>500.8571428571428</ele><time>2026-04-04T13:02:47.986Z</time></trkpt><trkpt lat="44.7232517" lon="9.9301767"><ele>501.99999999999994</ele><time>2026-04-04T13:02:48.985Z</time></trkpt><trkpt lat="44.72322" lon="9.9300783"><ele>502.50000000000006</ele><time>2026-04-04T13:02:49.985Z</time></trkpt><trkpt lat="44.72319" lon="9.9299867"><ele>503.0</ele><time>2026-04-04T13:02:50.985Z</time></trkpt><trkpt lat="44.7231567" lon="9.9299083"><ele>503.5</ele><time>2026-04-04T13:02:51.985Z</time></trkpt><trkpt lat="44.7231017" lon="9.92977"><ele>504.0</ele><time>2026-04-04T13:02:53.985Z</time></trkpt><trkpt lat="44.723075" lon="9.929595"><ele>504.50000000000006</ele><time>2026-04-04T13:02:55.985Z</time></trkpt><trkpt lat="44.723065" lon="9.9295017"><ele>505.0</ele><time>2026-04-04T13:02:56.985Z</time></trkpt><trkpt lat="44.7230533" lon="9.9293483"><ele>505.0</ele><time>2026-04-04T13:02:58.985Z</time></trkpt><trkpt lat="44.7230117" lon="9.9292517"><ele>505.0</ele><time>2026-04-04T13:03:00.985Z</time></trkpt><trkpt lat="44.7229217" lon="9.9292"><ele>505.0</ele><time>2026-04-04T13:03:02.986Z</time></trkpt><trkpt lat="44.72281" lon="9.9292117"><ele>505.0</ele><time>2026-04-04T13:03:04.985Z</time></trkpt><trkpt lat="44.7227" lon="9.92922"><ele>505.0</ele><time>2026-04-04T13:03:06.986Z</time></trkpt><trkpt lat="44.72259" lon="9.9292083"><ele>507.6</ele><time>2026-04-04T13:03:08.985Z</time></trkpt><trkpt lat="44.7224867" lon="9.929235"><ele>510.2</ele><time>2026-04-04T13:03:10.985Z</time></trkpt><trkpt lat="44.7223933" lon="9.929325"><ele>512.8</ele><time>2026-04-04T13:03:12.985Z</time></trkpt><trkpt lat="44.7223267" lon="9.9293683"><ele>515.4</ele><time>2026-04-04T13:03:14.986Z</time></trkpt><trkpt lat="44.7222517" lon="9.92949"><ele>518.0</ele><time>2026-04-04T13:03:24.985Z</time></trkpt><trkpt lat="44.7222117" lon="9.9295717"><ele>518.0</ele><time>2026-04-04T13:03:25.985Z</time></trkpt><trkpt lat="44.7221367" lon="9.929665"><ele>518.0</ele><time>2026-04-04T13:03:27.985Z</time></trkpt><trkpt lat="44.72208" lon="9.92959"><ele>518.0</ele><time>2026-04-04T13:03:30.985Z</time></trkpt><trkpt lat="44.7220833" lon="9.929495"><ele>518.0</ele><time>2026-04-04T13:03:32.985Z</time></trkpt><trkpt lat="44.7221267" lon="9.929405"><ele>518.0</ele><time>2026-04-04T13:03:34.985Z</time></trkpt><trkpt lat="44.7221717" lon="9.929315"><ele>518.0</ele><time>2026-04-04T13:03:36.985Z</time></trkpt><trkpt lat="44.7222117" lon="9.92922"><ele>520.6666666666666</ele><time>2026-04-04T13:03:38.985Z</time></trkpt><trkpt lat="44.72224" lon="9.92913"><ele>523.3333333333333</ele><time>2026-04-04T13:03:40.985Z</time></trkpt><trkpt lat="44.722275" lon="9.9290333"><ele>526.0</ele><time>2026-04-04T13:03:42.986Z</time></trkpt><trkpt lat="44.7222917" lon="9.9289333"><ele>528.6666666666666</ele><time>2026-04-04T13:03:44.986Z</time></trkpt><trkpt lat="44.72229" lon="9.9288183"><ele>531.3333333333334</ele><time>2026-04-04T13:03:46.985Z</time></trkpt><trkpt lat="44.722285" lon="9.9287083"><ele>534.0</ele><time>2026-04-04T13:03:48.986Z</time></trkpt><trkpt lat="44.7222917" lon="9.9286033"><ele>534.0</ele><time>2026-04-04T13:03:50.986Z</time></trkpt><trkpt lat="44.7223233" lon="9.9284917"><ele>534.0</ele><time>2026-04-04T13:03:52.986Z</time></trkpt><trkpt lat="44.7223583" lon="9.9283883"><ele>534.0</ele><time>2026-04-04T13:03:54.985Z</time></trkpt><trkpt lat="44.72237" lon="9.9282767"><ele>534.0</ele><time>2026-04-04T13:03:56.985Z</time></trkpt><trkpt lat="44.72238" lon="9.92816"><ele>534.0</ele><time>2026-04-04T13:03:58.985Z</time></trkpt><trkpt lat="44.7223833" lon="9.9280117"><ele>534.0</ele><time>2026-04-04T13:04:00.985Z</time></trkpt><trkpt lat="44.7224033" lon="9.9278733"><ele>536.3333333333334</ele><time>2026-04-04T13:04:02.985Z</time></trkpt><trkpt lat="44.7223967" lon="9.9277167"><ele>538.6666666666666</ele><time>2026-04-04T13:04:04.985Z</time></trkpt><trkpt lat="44.7223967" lon="9.927625"><ele>541.0</ele><time>2026-04-04T13:04:06.985Z</time></trkpt><trkpt lat="44.722385" lon="9.9275217"><ele>543.3333333333333</ele><time>2026-04-04T13:04:09.986Z</time></trkpt><trkpt lat="44.7223833" lon="9.92741"><ele>545.6666666666666</ele><time>2026-04-04T13:04:12.986Z</time></trkpt><trkpt lat="44.722315" lon="9.92737"><ele>548.0</ele><time>2026-04-04T13:04:14.986Z</time></trkpt><trkpt lat="44.7221767" lon="9.9273583"><ele>548.6666666666666</ele><time>2026-04-04T13:04:16.985Z</time></trkpt><trkpt lat="44.7221033" lon="9.92735"><ele>549.3333333333333</ele><time>2026-04-04T13:04:17.986Z</time></trkpt><trkpt lat="44.72203" lon="9.9273217"><ele>550.0</ele><time>2026-04-04T13:04:18.986Z</time></trkpt><trkpt lat="44.7219583" lon="9.9272967"><ele>550.6666666666666</ele><time>2026-04-04T13:04:19.985Z</time></trkpt><trkpt lat="44.721885" lon="9.9272867"><ele>551.3333333333334</ele><time>2026-04-04T13:04:20.985Z</time></trkpt><trkpt lat="44.721815" lon="9.92729"><ele>552.0</ele><time>2026-04-04T13:04:21.985Z</time></trkpt><trkpt lat="44.7216883" lon="9.9272983"><ele>549.8000000000001</ele><time>2026-04-04T13:04:23.986Z</time></trkpt><trkpt lat="44.7216217" lon="9.9272933"><ele>547.6</ele><time>2026-04-04T13:04:24.986Z</time></trkpt><trkpt lat="44.7214967" lon="9.9272533"><ele>545.4000000000001</ele><time>2026-04-04T13:04:26.985Z</time></trkpt><trkpt lat="44.7213767" lon="9.9271883"><ele>543.2</ele><time>2026-04-04T13:04:28.986Z</time></trkpt><trkpt lat="44.721315" lon="9.92716"><ele>541.0</ele><time>2026-04-04T13:04:29.985Z</time></trkpt><trkpt lat="44.7212533" lon="9.9271317"><ele>541.0000000000001</ele><time>2026-04-04T13:04:30.985Z</time></trkpt><trkpt lat="44.7211917" lon="9.9270983"><ele>541.0</ele><time>2026-04-04T13:04:31.985Z</time></trkpt><trkpt lat="44.72113" lon="9.92707"><ele>541.0</ele><time>2026-04-04T13:04:32.985Z</time></trkpt><trkpt lat="44.72106" lon="9.927045"><ele>541.0</ele><time>2026-04-04T13:04:33.985Z</time></trkpt><trkpt lat="44.7209867" lon="9.9270233"><ele>541.0</ele><time>2026-04-04T13:04:34.985Z</time></trkpt><trkpt lat="44.720915" lon="9.92701"><ele>541.0000000000001</ele><time>2026-04-04T13:04:35.986Z</time></trkpt><trkpt lat="44.72085" lon="9.926995"><ele>541.0</ele><time>2026-04-04T13:04:36.985Z</time></trkpt><trkpt lat="44.7207483" lon="9.9269483"><ele>540.0</ele><time>2026-04-04T13:04:38.985Z</time></trkpt><trkpt lat="44.7206567" lon="9.926875"><ele>539.0</ele><time>2026-04-04T13:04:40.985Z</time></trkpt><trkpt lat="44.720605" lon="9.92682"><ele>538.0</ele><time>2026-04-04T13:04:41.985Z</time></trkpt><trkpt lat="44.7205433" lon="9.9267533"><ele>537.0</ele><time>2026-04-04T13:04:42.985Z</time></trkpt><trkpt lat="44.720475" lon="9.9267117"><ele>536.0</ele><time>2026-04-04T13:04:43.985Z</time></trkpt><trkpt lat="44.7203967" lon="9.9266783"><ele>535.0</ele><time>2026-04-04T13:04:44.986Z</time></trkpt><trkpt lat="44.7203133" lon="9.9266683"><ele>535.0</ele><time>2026-04-04T13:04:45.986Z</time></trkpt><trkpt lat="44.7202233" lon="9.92667"><ele>535.0</ele><time>2026-04-04T13:04:46.985Z</time></trkpt><trkpt lat="44.72014" lon="9.9266783"><ele>535.0</ele><time>2026-04-04T13:04:47.986Z</time></trkpt><trkpt lat="44.7200617" lon="9.92668"><ele>535.0</ele><time>2026-04-04T13:04:48.985Z</time></trkpt><trkpt lat="44.7199833" lon="9.9266817"><ele>535.0</ele><time>2026-04-04T13:04:49.985Z</time></trkpt><trkpt lat="44.7199117" lon="9.9266833"><ele>535.0</ele><time>2026-04-04T13:04:50.985Z</time></trkpt><trkpt lat="44.7198317" lon="9.9266883"><ele>535.0</ele><time>2026-04-04T13:04:51.985Z</time></trkpt><trkpt lat="44.7197617" lon="9.926695"><ele>535.0</ele><time>2026-04-04T13:04:52.985Z</time></trkpt><trkpt lat="44.719645" lon="9.926695"><ele>535.0</ele><time>2026-04-04T13:04:54.985Z</time></trkpt><trkpt lat="44.719525" lon="9.926675"><ele>535.0</ele><time>2026-04-04T13:04:56.985Z</time></trkpt><trkpt lat="44.71941" lon="9.9266217"><ele>535.0</ele><time>2026-04-04T13:04:58.985Z</time></trkpt><trkpt lat="44.7193483" lon="9.9265817"><ele>534.0</ele><time>2026-04-04T13:04:59.985Z</time></trkpt><trkpt lat="44.7192833" lon="9.92653"><ele>533.0</ele><time>2026-04-04T13:05:00.985Z</time></trkpt><trkpt lat="44.719215" lon="9.9264833"><ele>532.0</ele><time>2026-04-04T13:05:01.985Z</time></trkpt><trkpt lat="44.7191567" lon="9.9264483"><ele>531.0</ele><time>2026-04-04T13:05:03.985Z</time></trkpt><trkpt lat="44.7190483" lon="9.92635"><ele>530.0</ele><time>2026-04-04T13:05:18.986Z</time></trkpt><trkpt lat="44.7189783" lon="9.9262983"><ele>529.0</ele><time>2026-04-04T13:05:19.986Z</time></trkpt><trkpt lat="44.7189017" lon="9.9262533"><ele>529.0</ele><time>2026-04-04T13:05:20.985Z</time></trkpt><trkpt lat="44.71883" lon="9.9262033"><ele>529.0</ele><time>2026-04-04T13:05:21.985Z</time></trkpt><trkpt lat="44.718765" lon="9.9261617"><ele>529.0</ele><time>2026-04-04T13:05:22.986Z</time></trkpt><trkpt lat="44.718705" lon="9.9261167"><ele>529.0</ele><time>2026-04-04T13:05:23.985Z</time></trkpt><trkpt lat="44.718615" lon="9.9260383"><ele>529.0</ele><time>2026-04-04T13:05:25.985Z</time></trkpt><trkpt lat="44.7185117" lon="9.925965"><ele>529.0</ele><time>2026-04-04T13:05:27.985Z</time></trkpt><trkpt lat="44.7184017" lon="9.9259583"><ele>527.2</ele><time>2026-04-04T13:05:29.986Z</time></trkpt><trkpt lat="44.7182767" lon="9.9259533"><ele>525.4</ele><time>2026-04-04T13:05:31.985Z</time></trkpt><trkpt lat="44.718145" lon="9.9259183"><ele>523.6</ele><time>2026-04-04T13:05:33.985Z</time></trkpt><trkpt lat="44.7180583" lon="9.92591"><ele>521.8</ele><time>2026-04-04T13:05:34.985Z</time></trkpt><trkpt lat="44.71798" lon="9.9259083"><ele>520.0</ele><time>2026-04-04T13:05:35.985Z</time></trkpt><trkpt lat="44.7179133" lon="9.9259117"><ele>520.0</ele><time>2026-04-04T13:05:36.985Z</time></trkpt><trkpt lat="44.717835" lon="9.9259267"><ele>520.0</ele><time>2026-04-04T13:05:38.985Z</time></trkpt><trkpt lat="44.71776" lon="9.9259483"><ele>520.0</ele><time>2026-04-04T13:05:41.985Z</time></trkpt><trkpt lat="44.7176783" lon="9.9259767"><ele>520.0</ele><time>2026-04-04T13:06:24.986Z</time></trkpt><trkpt lat="44.7175583" lon="9.9259933"><ele>520.0</ele><time>2026-04-04T13:06:26.985Z</time></trkpt><trkpt lat="44.71745" lon="9.926"><ele>520.4</ele><time>2026-04-04T13:06:28.986Z</time></trkpt><trkpt lat="44.7173317" lon="9.9259583"><ele>520.8</ele><time>2026-04-04T13:06:30.985Z</time></trkpt><trkpt lat="44.7172567" lon="9.9259183"><ele>521.2</ele><time>2026-04-04T13:06:31.985Z</time></trkpt><trkpt lat="44.717175" lon="9.92587"><ele>521.6</ele><time>2026-04-04T13:06:32.985Z</time></trkpt><trkpt lat="44.7170867" lon="9.9258267"><ele>522.0</ele><time>2026-04-04T13:06:33.986Z</time></trkpt><trkpt lat="44.7170133" lon="9.925785"><ele>522.0</ele><time>2026-04-04T13:06:34.985Z</time></trkpt><trkpt lat="44.7169417" lon="9.9257483"><ele>522.0</ele><time>2026-04-04T13:06:35.986Z</time></trkpt><trkpt lat="44.716875" lon="9.92571"><ele>522.0</ele><time>2026-04-04T13:06:36.985Z</time></trkpt><trkpt lat="44.716805" lon="9.9256667"><ele>522.0</ele><time>2026-04-04T13:06:37.985Z</time></trkpt><trkpt lat="44.716735" lon="9.9256217"><ele>522.0</ele><time>2026-04-04T13:06:38.986Z</time></trkpt><trkpt lat="44.7166567" lon="9.9255733"><ele>522.0</ele><time>2026-04-04T13:06:39.985Z</time></trkpt><trkpt lat="44.716585" lon="9.9255317"><ele>521.5</ele><time>2026-04-04T13:06:40.985Z</time></trkpt><trkpt lat="44.71652" lon="9.9254867"><ele>521.0</ele><time>2026-04-04T13:06:41.986Z</time></trkpt><trkpt lat="44.716465" lon="9.9254417"><ele>520.5</ele><time>2026-04-04T13:06:42.986Z</time></trkpt><trkpt lat="44.7163717" lon="9.9253733"><ele>520.0</ele><time>2026-04-04T13:06:44.985Z</time></trkpt><trkpt lat="44.7163183" lon="9.9253067"><ele>519.5</ele><time>2026-04-04T13:06:46.986Z</time></trkpt><trkpt lat="44.71625" lon="9.9252317"><ele>519.0</ele><time>2026-04-04T13:06:48.985Z</time></trkpt><trkpt lat="44.7161433" lon="9.9252033"><ele>520.0</ele><time>2026-04-04T13:06:50.985Z</time></trkpt><trkpt lat="44.71604" lon="9.9251817"><ele>521.0</ele><time>2026-04-04T13:06:52.986Z</time></trkpt><trkpt lat="44.71594" lon="9.925135"><ele>522.0</ele><time>2026-04-04T13:06:54.986Z</time></trkpt><trkpt lat="44.7158467" lon="9.92505"><ele>523.0</ele><time>2026-04-04T13:06:56.986Z</time></trkpt><trkpt lat="44.71576" lon="9.92495"><ele>524.0</ele><time>2026-04-04T13:06:58.985Z</time></trkpt><trkpt lat="44.7156767" lon="9.9248417"><ele>524.0</ele><time>2026-04-04T13:07:00.985Z</time></trkpt><trkpt lat="44.7156167" lon="9.9247917"><ele>524.0</ele><time>2026-04-04T13:07:01.985Z</time></trkpt><trkpt lat="44.7155617" lon="9.924735"><ele>524.0</ele><time>2026-04-04T13:07:02.986Z</time></trkpt><trkpt lat="44.7154667" lon="9.9246367"><ele>524.0</ele><time>2026-04-04T13:07:04.986Z</time></trkpt><trkpt lat="44.71539" lon="9.9245017"><ele>524.0</ele><time>2026-04-04T13:07:06.985Z</time></trkpt><trkpt lat="44.7153517" lon="9.9243683"><ele>524.0</ele><time>2026-04-04T13:07:08.985Z</time></trkpt><trkpt lat="44.7153417" lon="9.92426"><ele>524.0</ele><time>2026-04-04T13:07:10.985Z</time></trkpt><trkpt lat="44.715305" lon="9.9241733"><ele>524.0</ele><time>2026-04-04T13:07:13.985Z</time></trkpt><trkpt lat="44.7152333" lon="9.9242083"><ele>524.0</ele><time>2026-04-04T13:07:16.985Z</time></trkpt><trkpt lat="44.7151967" lon="9.9243067"><ele>524.0</ele><time>2026-04-04T13:07:18.985Z</time></trkpt><trkpt lat="44.7151683" lon="9.9244333"><ele>524.0</ele><time>2026-04-04T13:07:20.985Z</time></trkpt><trkpt lat="44.7151383" lon="9.9245733"><ele>526.6666666666666</ele><time>2026-04-04T13:07:22.985Z</time></trkpt><trkpt lat="44.715125" lon="9.9247433"><ele>529.3333333333333</ele><time>2026-04-04T13:07:24.985Z</time></trkpt><trkpt lat="44.71513" lon="9.92484"><ele>532.0</ele><time>2026-04-04T13:07:25.985Z</time></trkpt><trkpt lat="44.7151417" lon="9.924945"><ele>534.6666666666666</ele><time>2026-04-04T13:07:26.986Z</time></trkpt><trkpt lat="44.71515" lon="9.9250483"><ele>537.3333333333334</ele><time>2026-04-04T13:07:27.985Z</time></trkpt><trkpt lat="44.715155" lon="9.9251417"><ele>540.0</ele><time>2026-04-04T13:07:28.985Z</time></trkpt><trkpt lat="44.7151567" lon="9.9252317"><ele>541.25</ele><time>2026-04-04T13:07:29.985Z</time></trkpt><trkpt lat="44.715105" lon="9.9253733"><ele>542.5</ele><time>2026-04-04T13:07:31.985Z</time></trkpt><trkpt lat="44.7150717" lon="9.9255283"><ele>543.75</ele><time>2026-04-04T13:07:33.986Z</time></trkpt><trkpt lat="44.7150483" lon="9.9257"><ele>545.0</ele><time>2026-04-04T13:07:35.985Z</time></trkpt><trkpt lat="44.7150533" lon="9.9258633"><ele>545.4</ele><time>2026-04-04T13:07:37.985Z</time></trkpt><trkpt lat="44.7150583" lon="9.9260283"><ele>545.8</ele><time>2026-04-04T13:07:39.985Z</time></trkpt><trkpt lat="44.7150367" lon="9.926175"><ele>546.2</ele><time>2026-04-04T13:07:41.986Z</time></trkpt><trkpt lat="44.71504" lon="9.9263083"><ele>546.6</ele><time>2026-04-04T13:07:43.985Z</time></trkpt><trkpt lat="44.7150483" lon="9.9264883"><ele>547.0</ele><time>2026-04-04T13:07:45.985Z</time></trkpt><trkpt lat="44.7150517" lon="9.9265983"><ele>547.0</ele><time>2026-04-04T13:07:46.985Z</time></trkpt><trkpt lat="44.7150533" lon="9.9266967"><ele>547.0</ele><time>2026-04-04T13:07:47.985Z</time></trkpt><trkpt lat="44.715035" lon="9.92685"><ele>547.0</ele><time>2026-04-04T13:07:49.985Z</time></trkpt><trkpt lat="44.715" lon="9.9269817"><ele>547.0</ele><time>2026-04-04T13:07:51.986Z</time></trkpt><trkpt lat="44.714975" lon="9.9270633"><ele>547.0</ele><time>2026-04-04T13:07:52.985Z</time></trkpt><trkpt lat="44.7149267" lon="9.9271967"><ele>546.6666666666667</ele><time>2026-04-04T13:07:54.985Z</time></trkpt><trkpt lat="44.714865" lon="9.9273183"><ele>546.3333333333334</ele><time>2026-04-04T13:07:56.985Z</time></trkpt><trkpt lat="44.7148167" lon="9.9274183"><ele>546.0</ele><time>2026-04-04T13:07:58.986Z</time></trkpt><trkpt lat="44.7147917" lon="9.9275067"><ele>545.6666666666666</ele><time>2026-04-04T13:08:39.985Z</time></trkpt><trkpt lat="44.714755" lon="9.9275867"><ele>545.3333333333333</ele><time>2026-04-04T13:08:41.985Z</time></trkpt><trkpt lat="44.71469" lon="9.92771"><ele>545.0</ele><time>2026-04-04T13:08:43.986Z</time></trkpt><trkpt lat="44.7146583" lon="9.9277867"><ele>544.4</ele><time>2026-04-04T13:08:44.985Z</time></trkpt><trkpt lat="44.7146267" lon="9.927945"><ele>543.8</ele><time>2026-04-04T13:08:46.985Z</time></trkpt><trkpt lat="44.7146333" lon="9.9281017"><ele>543.2</ele><time>2026-04-04T13:08:48.986Z</time></trkpt><trkpt lat="44.7146267" lon="9.9282233"><ele>542.6</ele><time>2026-04-04T13:08:50.985Z</time></trkpt><trkpt lat="44.7146" lon="9.9283167"><ele>542.0</ele><time>2026-04-04T13:08:52.985Z</time></trkpt><trkpt lat="44.7145417" lon="9.9284083"><ele>541.6666666666666</ele><time>2026-04-04T13:08:54.985Z</time></trkpt><trkpt lat="44.7145033" lon="9.928515"><ele>541.3333333333333</ele><time>2026-04-04T13:08:56.985Z</time></trkpt><trkpt lat="44.714485" lon="9.9286233"><ele>541.0</ele><time>2026-04-04T13:08:58.985Z</time></trkpt><trkpt lat="44.71444" lon="9.92872"><ele>540.6666666666666</ele><time>2026-04-04T13:09:01.986Z</time></trkpt><trkpt lat="44.7143967" lon="9.9288483"><ele>540.3333333333334</ele><time>2026-04-04T13:09:03.985Z</time></trkpt><trkpt lat="44.714355" lon="9.9289767"><ele>540.0</ele><time>2026-04-04T13:09:05.986Z</time></trkpt><trkpt lat="44.7143067" lon="9.9290817"><ele>543.0</ele><time>2026-04-04T13:09:07.985Z</time></trkpt><trkpt lat="44.71428" lon="9.9292"><ele>546.0</ele><time>2026-04-04T13:09:09.985Z</time></trkpt><trkpt lat="44.7142583" lon="9.9293167"><ele>549.0</ele><time>2026-04-04T13:09:11.985Z</time></trkpt><trkpt lat="44.7141917" lon="9.929385"><ele>552.0</ele><time>2026-04-04T13:09:13.985Z</time></trkpt><trkpt lat="44.7141133" lon="9.9294117"><ele>555.0</ele><time>2026-04-04T13:09:15.985Z</time></trkpt><trkpt lat="44.7140417" lon="9.9294"><ele>558.0</ele><time>2026-04-04T13:09:17.986Z</time></trkpt><trkpt lat="44.7139867" lon="9.9293567"><ele>558.0</ele><time>2026-04-04T13:09:19.985Z</time></trkpt><trkpt lat="44.7139117" lon="9.929265"><ele>558.0</ele><time>2026-04-04T13:09:21.986Z</time></trkpt><trkpt lat="44.7138533" lon="9.9291767"><ele>558.0</ele><time>2026-04-04T13:09:23.985Z</time></trkpt><trkpt lat="44.713795" lon="9.9291033"><ele>558.0</ele><time>2026-04-04T13:09:25.985Z</time></trkpt><trkpt lat="44.7137333" lon="9.929025"><ele>558.0</ele><time>2026-04-04T13:09:27.985Z</time></trkpt><trkpt lat="44.7136817" lon="9.9289683"><ele>558.0</ele><time>2026-04-04T13:09:30.985Z</time></trkpt><trkpt lat="44.7136117" lon="9.9288917"><ele>562.3333333333334</ele><time>2026-04-04T13:09:34.986Z</time></trkpt><trkpt lat="44.7135267" lon="9.9288867"><ele>566.6666666666666</ele><time>2026-04-04T13:09:36.986Z</time></trkpt><trkpt lat="44.71342" lon="9.9288467"><ele>571.0</ele><time>2026-04-04T13:09:38.985Z</time></trkpt><trkpt lat="44.7133467" lon="9.9288017"><ele>575.3333333333333</ele><time>2026-04-04T13:09:39.985Z</time></trkpt><trkpt lat="44.7132833" lon="9.9287517"><ele>579.6666666666666</ele><time>2026-04-04T13:09:40.985Z</time></trkpt><trkpt lat="44.7132233" lon="9.9286983"><ele>584.0</ele><time>2026-04-04T13:09:41.986Z</time></trkpt><trkpt lat="44.71316" lon="9.9286333"><ele>584.0</ele><time>2026-04-04T13:09:42.985Z</time></trkpt><trkpt lat="44.7131017" lon="9.9285917"><ele>584.0</ele><time>2026-04-04T13:09:43.986Z</time></trkpt><trkpt lat="44.71302" lon="9.9285217"><ele>584.0</ele><time>2026-04-04T13:09:45.985Z</time></trkpt><trkpt lat="44.7129883" lon="9.9284033"><ele>584.0</ele><time>2026-04-04T13:09:47.985Z</time></trkpt><trkpt lat="44.7129633" lon="9.9282333"><ele>584.0</ele><time>2026-04-04T13:09:49.986Z</time></trkpt><trkpt lat="44.71289" lon="9.9281067"><ele>586.75</ele><time>2026-04-04T13:09:51.985Z</time></trkpt><trkpt lat="44.7127717" lon="9.9280483"><ele>589.5</ele><time>2026-04-04T13:09:53.985Z</time></trkpt><trkpt lat="44.712655" lon="9.9280333"><ele>592.25</ele><time>2026-04-04T13:09:55.985Z</time></trkpt><trkpt lat="44.7125467" lon="9.9280267"><ele>595.0</ele><time>2026-04-04T13:09:57.986Z</time></trkpt><trkpt lat="44.7124383" lon="9.9280017"><ele>597.2</ele><time>2026-04-04T13:09:59.986Z</time></trkpt><trkpt lat="44.712325" lon="9.9279767"><ele>599.4</ele><time>2026-04-04T13:10:01.986Z</time></trkpt><trkpt lat="44.7122167" lon="9.9279433"><ele>601.6</ele><time>2026-04-04T13:10:03.985Z</time></trkpt><trkpt lat="44.7121367" lon="9.9279283"><ele>603.8</ele><time>2026-04-04T13:10:05.985Z</time></trkpt><trkpt lat="44.7120483" lon="9.9279517"><ele>606.0</ele><time>2026-04-04T13:10:17.985Z</time></trkpt><trkpt lat="44.7119717" lon="9.9279617"><ele>606.6666666666666</ele><time>2026-04-04T13:10:19.985Z</time></trkpt><trkpt lat="44.711895" lon="9.92798"><ele>607.3333333333334</ele><time>2026-04-04T13:10:21.986Z</time></trkpt><trkpt lat="44.71181" lon="9.928"><ele>608.0</ele><time>2026-04-04T13:10:24.986Z</time></trkpt><trkpt lat="44.7117317" lon="9.9280133"><ele>608.6666666666667</ele><time>2026-04-04T13:10:26.985Z</time></trkpt><trkpt lat="44.711635" lon="9.928035"><ele>609.3333333333334</ele><time>2026-04-04T13:10:28.985Z</time></trkpt><trkpt lat="44.7115583" lon="9.928055"><ele>610.0</ele><time>2026-04-04T13:10:30.985Z</time></trkpt><trkpt lat="44.71146" lon="9.9280683"><ele>610.0</ele><time>2026-04-04T13:10:32.985Z</time></trkpt><trkpt lat="44.7113583" lon="9.9280783"><ele>610.0</ele><time>2026-04-04T13:10:34.986Z</time></trkpt><trkpt lat="44.7112583" lon="9.9280783"><ele>610.0</ele><time>2026-04-04T13:10:36.985Z</time></trkpt><trkpt lat="44.7112067" lon="9.9280117"><ele>610.0</ele><time>2026-04-04T13:10:38.985Z</time></trkpt><trkpt lat="44.7111933" lon="9.9278883"><ele>610.0</ele><time>2026-04-04T13:10:40.986Z</time></trkpt><trkpt lat="44.7111683" lon="9.927745"><ele>610.0</ele><time>2026-04-04T13:10:42.986Z</time></trkpt><trkpt lat="44.7111267" lon="9.92761"><ele>610.0</ele><time>2026-04-04T13:10:44.985Z</time></trkpt><trkpt lat="44.7110917" lon="9.9274817"><ele>610.0</ele><time>2026-04-04T13:10:46.986Z</time></trkpt><trkpt lat="44.7110583" lon="9.9273633"><ele>610.0</ele><time>2026-04-04T13:10:48.986Z</time></trkpt><trkpt lat="44.7110383" lon="9.9272433"><ele>610.0</ele><time>2026-04-04T13:10:50.986Z</time></trkpt><trkpt lat="44.7110233" lon="9.92712"><ele>613.1666666666667</ele><time>2026-04-04T13:10:52.985Z</time></trkpt><trkpt lat="44.7110067" lon="9.9270133"><ele>616.3333333333334</ele><time>2026-04-04T13:10:54.986Z</time></trkpt><trkpt lat="44.71099" lon="9.9268833"><ele>619.5</ele><time>2026-04-04T13:10:56.985Z</time></trkpt><trkpt lat="44.7109383" lon="9.9267633"><ele>622.6666666666666</ele><time>2026-04-04T13:10:58.985Z</time></trkpt><trkpt lat="44.710895" lon="9.9266367"><ele>625.8333333333333</ele><time>2026-04-04T13:11:00.985Z</time></trkpt><trkpt lat="44.7108817" lon="9.9265317"><ele>629.0</ele><time>2026-04-04T13:11:03.985Z</time></trkpt><trkpt lat="44.710895" lon="9.9264017"><ele>629.0</ele><time>2026-04-04T13:11:19.985Z</time></trkpt><trkpt lat="44.7108567" lon="9.9264883"><ele>629.0</ele><time>2026-04-04T13:11:23.986Z</time></trkpt><trkpt lat="44.71087" lon="9.926595"><ele>629.0</ele><time>2026-04-04T13:11:25.985Z</time></trkpt><trkpt lat="44.7108817" lon="9.926685"><ele>629.0</ele><time>2026-04-04T13:11:27.985Z</time></trkpt><trkpt lat="44.7109117" lon="9.9267967"><ele>629.0</ele><time>2026-04-04T13:11:29.985Z</time></trkpt><trkpt lat="44.710955" lon="9.9268967"><ele>629.0</ele><time>2026-04-04T13:11:31.986Z</time></trkpt><trkpt lat="44.7109867" lon="9.9269867"><ele>629.0</ele><time>2026-04-04T13:11:33.985Z</time></trkpt><trkpt lat="44.7110167" lon="9.9270767"><ele>629.0</ele><time>2026-04-04T13:11:35.985Z</time></trkpt><trkpt lat="44.711025" lon="9.92717"><ele>629.0</ele><time>2026-04-04T13:11:37.985Z</time></trkpt><trkpt lat="44.7110367" lon="9.9272667"><ele>629.0</ele><time>2026-04-04T13:11:39.985Z</time></trkpt><trkpt lat="44.7110517" lon="9.9273667"><ele>629.0</ele><time>2026-04-04T13:11:41.985Z</time></trkpt><trkpt lat="44.71108" lon="9.9274717"><ele>629.0</ele><time>2026-04-04T13:11:43.986Z</time></trkpt><trkpt lat="44.7111067" lon="9.9275833"><ele>629.0</ele><time>2026-04-04T13:11:45.986Z</time></trkpt><trkpt lat="44.7111283" lon="9.9276733"><ele>626.2857142857142</ele><time>2026-04-04T13:11:47.986Z</time></trkpt><trkpt lat="44.711145" lon="9.92777"><ele>623.5714285714287</ele><time>2026-04-04T13:11:49.985Z</time></trkpt><trkpt lat="44.7111717" lon="9.9278733"><ele>620.8571428571429</ele><time>2026-04-04T13:11:51.985Z</time></trkpt><trkpt lat="44.71117" lon="9.9279917"><ele>618.1428571428571</ele><time>2026-04-04T13:12:14.985Z</time></trkpt><trkpt lat="44.71122" lon="9.9280533"><ele>615.4285714285713</ele><time>2026-04-04T13:12:34.984Z</time></trkpt><trkpt lat="44.711265" lon="9.9281217"><ele>612.7142857142858</ele><time>2026-04-04T13:12:37.985Z</time></trkpt><trkpt lat="44.7113" lon="9.9282033"><ele>610.0</ele><time>2026-04-04T13:12:40.984Z</time></trkpt><trkpt lat="44.7113167" lon="9.928295"><ele>610.0</ele><time>2026-04-04T13:12:43.984Z</time></trkpt><trkpt lat="44.7113267" lon="9.9283883"><ele>610.0</ele><time>2026-04-04T13:12:45.985Z</time></trkpt><trkpt lat="44.711345" lon="9.9284833"><ele>610.0</ele><time>2026-04-04T13:12:47.984Z</time></trkpt><trkpt lat="44.7113683" lon="9.92859"><ele>610.0</ele><time>2026-04-04T13:12:58.984Z</time></trkpt><trkpt lat="44.7113717" lon="9.9287167"><ele>610.0</ele><time>2026-04-04T13:13:21.984Z</time></trkpt><trkpt lat="44.7113717" lon="9.9288233"><ele>610.0</ele><time>2026-04-04T13:13:25.984Z</time></trkpt><trkpt lat="44.7113767" lon="9.92893"><ele>607.5</ele><time>2026-04-04T13:13:29.984Z</time></trkpt><trkpt lat="44.71138" lon="9.92903"><ele>605.0</ele><time>2026-04-04T13:13:33.985Z</time></trkpt><trkpt lat="44.7113933" lon="9.9291467"><ele>602.5</ele><time>2026-04-04T13:13:36.985Z</time></trkpt><trkpt lat="44.711405" lon="9.929265"><ele>600.0</ele><time>2026-04-04T13:13:39.985Z</time></trkpt><trkpt lat="44.7114117" lon="9.9293717"><ele>597.5</ele><time>2026-04-04T13:13:43.985Z</time></trkpt><trkpt lat="44.711425" lon="9.9294633"><ele>595.0</ele><time>2026-04-04T13:13:47.985Z</time></trkpt><trkpt lat="44.7114467" lon="9.9295667"><ele>592.8333333333334</ele><time>2026-04-04T13:13:50.984Z</time></trkpt><trkpt lat="44.7114683" lon="9.929665"><ele>590.6666666666667</ele><time>2026-04-04T13:13:53.984Z</time></trkpt><trkpt lat="44.7114933" lon="9.929765"><ele>588.5</ele><time>2026-04-04T13:13:56.985Z</time></trkpt><trkpt lat="44.71152" lon="9.9298467"><ele>586.3333333333334</ele><time>2026-04-04T13:13:59.984Z</time></trkpt><trkpt lat="44.71143" lon="9.92999"><ele>584.1666666666666</ele><time>2026-04-04T13:14:12.984Z</time></trkpt><trkpt lat="44.7113633" lon="9.9300167"><ele>582.0</ele><time>2026-04-04T13:14:14.985Z</time></trkpt><trkpt lat="44.71128" lon="9.93003"><ele>582.0</ele><time>2026-04-04T13:14:16.984Z</time></trkpt><trkpt lat="44.7112133" lon="9.9300383"><ele>582.0</ele><time>2026-04-04T13:14:18.984Z</time></trkpt><trkpt lat="44.71115" lon="9.93016"><ele>582.0</ele><time>2026-04-04T13:14:21.984Z</time></trkpt><trkpt lat="44.7110917" lon="9.9302383"><ele>582.0</ele><time>2026-04-04T13:14:23.984Z</time></trkpt><trkpt lat="44.711" lon="9.9302683"><ele>582.0</ele><time>2026-04-04T13:14:26.985Z</time></trkpt><trkpt lat="44.7108767" lon="9.9302733"><ele>583.1666666666666</ele><time>2026-04-04T13:14:28.984Z</time></trkpt><trkpt lat="44.710805" lon="9.9302767"><ele>584.3333333333334</ele><time>2026-04-04T13:14:29.984Z</time></trkpt><trkpt lat="44.7107367" lon="9.9302717"><ele>585.5</ele><time>2026-04-04T13:14:30.985Z</time></trkpt><trkpt lat="44.7106717" lon="9.9302733"><ele>586.6666666666667</ele><time>2026-04-04T13:14:31.984Z</time></trkpt><trkpt lat="44.7105583" lon="9.9303033"><ele>587.8333333333334</ele><time>2026-04-04T13:14:33.985Z</time></trkpt><trkpt lat="44.710455" lon="9.9303367"><ele>589.0</ele><time>2026-04-04T13:14:35.984Z</time></trkpt><trkpt lat="44.71036" lon="9.93037"><ele>589.0</ele><time>2026-04-04T13:14:37.985Z</time></trkpt><trkpt lat="44.7102467" lon="9.9304233"><ele>589.0</ele><time>2026-04-04T13:14:39.984Z</time></trkpt><trkpt lat="44.710135" lon="9.930495"><ele>589.0</ele><time>2026-04-04T13:14:41.984Z</time></trkpt><trkpt lat="44.71004" lon="9.9306233"><ele>589.0</ele><time>2026-04-04T13:14:43.985Z</time></trkpt><trkpt lat="44.71" lon="9.9306967"><ele>589.0</ele><time>2026-04-04T13:14:44.985Z</time></trkpt><trkpt lat="44.7099583" lon="9.93078"><ele>591.6666666666667</ele><time>2026-04-04T13:14:45.985Z</time></trkpt><trkpt lat="44.709915" lon="9.930865"><ele>594.3333333333334</ele><time>2026-04-04T13:14:46.985Z</time></trkpt><trkpt lat="44.7098783" lon="9.9309433"><ele>597.0</ele><time>2026-04-04T13:14:47.984Z</time></trkpt><trkpt lat="44.7098183" lon="9.9310733"><ele>599.6666666666666</ele><time>2026-04-04T13:14:49.984Z</time></trkpt><trkpt lat="44.7097433" lon="9.93117"><ele>602.3333333333333</ele><time>2026-04-04T13:14:51.984Z</time></trkpt><trkpt lat="44.7096667" lon="9.9312383"><ele>605.0</ele><time>2026-04-04T13:14:53.985Z</time></trkpt><trkpt lat="44.7096" lon="9.93128"><ele>605.0</ele><time>2026-04-04T13:14:55.985Z</time></trkpt><trkpt lat="44.7095167" lon="9.93131"><ele>605.0</ele><time>2026-04-04T13:14:58.984Z</time></trkpt><trkpt lat="44.7095883" lon="9.93128"><ele>605.0</ele><time>2026-04-04T13:16:41.985Z</time></trkpt><trkpt lat="44.70966" lon="9.93135"><ele>605.0</ele><time>2026-04-04T13:23:14.985Z</time></trkpt><trkpt lat="44.7096783" lon="9.931485"><ele>605.0</ele><time>2026-04-04T13:23:17.984Z</time></trkpt><trkpt lat="44.7096417" lon="9.9315683"><ele>605.0</ele><time>2026-04-04T13:23:19.984Z</time></trkpt><trkpt lat="44.7095567" lon="9.9316217"><ele>605.0</ele><time>2026-04-04T13:23:21.984Z</time></trkpt><trkpt lat="44.7094667" lon="9.9316517"><ele>605.0</ele><time>2026-04-04T13:23:23.984Z</time></trkpt><trkpt lat="44.70939" lon="9.93168"><ele>605.0</ele><time>2026-04-04T13:23:25.984Z</time></trkpt><trkpt lat="44.7093083" lon="9.9317183"><ele>605.0</ele><time>2026-04-04T13:23:27.984Z</time></trkpt><trkpt lat="44.709215" lon="9.931755"><ele>605.0</ele><time>2026-04-04T13:23:29.984Z</time></trkpt><trkpt lat="44.709155" lon="9.9318233"><ele>605.0</ele><time>2026-04-04T13:23:32.985Z</time></trkpt><trkpt lat="44.7091383" lon="9.9319467"><ele>607.5</ele><time>2026-04-04T13:23:34.984Z</time></trkpt><trkpt lat="44.7091167" lon="9.9320467"><ele>610.0</ele><time>2026-04-04T13:23:36.984Z</time></trkpt><trkpt lat="44.70906" lon="9.9321783"><ele>612.5</ele><time>2026-04-04T13:23:47.984Z</time></trkpt><trkpt lat="44.7090867" lon="9.932285"><ele>615.0</ele><time>2026-04-04T13:23:49.984Z</time></trkpt><trkpt lat="44.7091083" lon="9.932415"><ele>617.5</ele><time>2026-04-04T13:23:51.984Z</time></trkpt><trkpt lat="44.7091133" lon="9.9325283"><ele>620.0</ele><time>2026-04-04T13:23:53.984Z</time></trkpt><trkpt lat="44.70912" lon="9.9326167"><ele>620.0</ele><time>2026-04-04T13:23:55.984Z</time></trkpt><trkpt lat="44.709135" lon="9.932725"><ele>620.0</ele><time>2026-04-04T13:23:58.984Z</time></trkpt><trkpt lat="44.7091567" lon="9.932855"><ele>620.0</ele><time>2026-04-04T13:24:01.984Z</time></trkpt><trkpt lat="44.70915" lon="9.9329783"><ele>620.0</ele><time>2026-04-04T13:24:03.985Z</time></trkpt><trkpt lat="44.7091283" lon="9.933095"><ele>620.0</ele><time>2026-04-04T13:24:05.984Z</time></trkpt><trkpt lat="44.709105" lon="9.933205"><ele>620.0</ele><time>2026-04-04T13:24:07.984Z</time></trkpt><trkpt lat="44.7090733" lon="9.933345"><ele>618.8</ele><time>2026-04-04T13:24:09.984Z</time></trkpt><trkpt lat="44.70906" lon="9.9335033"><ele>617.6</ele><time>2026-04-04T13:24:11.985Z</time></trkpt><trkpt lat="44.709085" lon="9.9336683"><ele>616.4</ele><time>2026-04-04T13:24:13.985Z</time></trkpt><trkpt lat="44.7091117" lon="9.9338367"><ele>615.2</ele><time>2026-04-04T13:24:15.984Z</time></trkpt><trkpt lat="44.70912" lon="9.933925"><ele>614.0</ele><time>2026-04-04T13:24:16.985Z</time></trkpt><trkpt lat="44.7091283" lon="9.934015"><ele>614.0</ele><time>2026-04-04T13:24:17.984Z</time></trkpt><trkpt lat="44.70913" lon="9.934115"><ele>614.0</ele><time>2026-04-04T13:24:18.984Z</time></trkpt><trkpt lat="44.7091367" lon="9.9342167"><ele>614.0</ele><time>2026-04-04T13:24:19.985Z</time></trkpt><trkpt lat="44.7091483" lon="9.93431"><ele>614.0</ele><time>2026-04-04T13:24:20.984Z</time></trkpt><trkpt lat="44.7091783" lon="9.9344617"><ele>614.0</ele><time>2026-04-04T13:24:22.985Z</time></trkpt><trkpt lat="44.7092017" lon="9.934575"><ele>614.0</ele><time>2026-04-04T13:24:24.984Z</time></trkpt><trkpt lat="44.7091367" lon="9.9346317"><ele>613.1666666666666</ele><time>2026-04-04T13:24:27.985Z</time></trkpt><trkpt lat="44.7090517" lon="9.9345683"><ele>612.3333333333333</ele><time>2026-04-04T13:24:29.984Z</time></trkpt><trkpt lat="44.7089917" lon="9.9345083"><ele>611.5</ele><time>2026-04-04T13:24:30.984Z</time></trkpt><trkpt lat="44.7089167" lon="9.9344533"><ele>610.6666666666666</ele><time>2026-04-04T13:24:31.984Z</time></trkpt><trkpt lat="44.7088317" lon="9.9343983"><ele>609.8333333333334</ele><time>2026-04-04T13:24:32.984Z</time></trkpt><trkpt lat="44.70874" lon="9.9343617"><ele>609.0</ele><time>2026-04-04T13:24:33.984Z</time></trkpt><trkpt lat="44.70864" lon="9.934345"><ele>605.8333333333334</ele><time>2026-04-04T13:24:34.984Z</time></trkpt><trkpt lat="44.7085417" lon="9.93433"><ele>602.6666666666666</ele><time>2026-04-04T13:24:35.984Z</time></trkpt><trkpt lat="44.708455" lon="9.934315"><ele>599.5</ele><time>2026-04-04T13:24:36.985Z</time></trkpt><trkpt lat="44.708365" lon="9.9343"><ele>596.3333333333333</ele><time>2026-04-04T13:24:37.985Z</time></trkpt><trkpt lat="44.70828" lon="9.9342767"><ele>593.1666666666666</ele><time>2026-04-04T13:24:38.985Z</time></trkpt><trkpt lat="44.7081967" lon="9.9342583"><ele>590.0</ele><time>2026-04-04T13:24:39.984Z</time></trkpt><trkpt lat="44.70812" lon="9.93424"><ele>590.0</ele><time>2026-04-04T13:24:40.984Z</time></trkpt><trkpt lat="44.7080433" lon="9.934225"><ele>590.0</ele><time>2026-04-04T13:24:41.984Z</time></trkpt><trkpt lat="44.7079617" lon="9.9342"><ele>590.0</ele><time>2026-04-04T13:24:42.984Z</time></trkpt><trkpt lat="44.7078817" lon="9.9341683"><ele>590.0</ele><time>2026-04-04T13:24:43.985Z</time></trkpt><trkpt lat="44.7078083" lon="9.9341267"><ele>590.0</ele><time>2026-04-04T13:24:44.985Z</time></trkpt><trkpt lat="44.7077467" lon="9.9340817"><ele>590.0</ele><time>2026-04-04T13:24:45.984Z</time></trkpt><trkpt lat="44.7076783" lon="9.9340233"><ele>591.0</ele><time>2026-04-04T13:24:46.984Z</time></trkpt><trkpt lat="44.7076083" lon="9.9339567"><ele>592.0</ele><time>2026-04-04T13:24:47.985Z</time></trkpt><trkpt lat="44.7075333" lon="9.9338967"><ele>593.0</ele><time>2026-04-04T13:24:48.984Z</time></trkpt><trkpt lat="44.707455" lon="9.93383"><ele>594.0</ele><time>2026-04-04T13:24:49.984Z</time></trkpt><trkpt lat="44.7073833" lon="9.9337683"><ele>595.0</ele><time>2026-04-04T13:24:50.984Z</time></trkpt><trkpt lat="44.7073083" lon="9.9337183"><ele>596.0</ele><time>2026-04-04T13:24:51.984Z</time></trkpt><trkpt lat="44.707235" lon="9.9336783"><ele>596.0</ele><time>2026-04-04T13:24:52.985Z</time></trkpt><trkpt lat="44.7071717" lon="9.9336367"><ele>596.0</ele><time>2026-04-04T13:24:53.984Z</time></trkpt><trkpt lat="44.7071167" lon="9.933585"><ele>596.0</ele><time>2026-04-04T13:24:54.984Z</time></trkpt><trkpt lat="44.7070783" lon="9.9335133"><ele>596.0</ele><time>2026-04-04T13:24:55.984Z</time></trkpt><trkpt lat="44.7070583" lon="9.9334167"><ele>596.0</ele><time>2026-04-04T13:24:56.985Z</time></trkpt><trkpt lat="44.7070433" lon="9.9333067"><ele>596.0</ele><time>2026-04-04T13:24:57.984Z</time></trkpt><trkpt lat="44.707045" lon="9.9331733"><ele>596.0</ele><time>2026-04-04T13:24:58.984Z</time></trkpt><trkpt lat="44.70707" lon="9.9330433"><ele>597.8333333333333</ele><time>2026-04-04T13:24:59.985Z</time></trkpt><trkpt lat="44.7071" lon="9.9329267"><ele>599.6666666666666</ele><time>2026-04-04T13:25:00.984Z</time></trkpt><trkpt lat="44.707125" lon="9.9328217"><ele>601.5</ele><time>2026-04-04T13:25:01.984Z</time></trkpt><trkpt lat="44.7071533" lon="9.9327167"><ele>603.3333333333334</ele><time>2026-04-04T13:25:02.984Z</time></trkpt><trkpt lat="44.7071767" lon="9.9326133"><ele>605.1666666666667</ele><time>2026-04-04T13:25:03.985Z</time></trkpt><trkpt lat="44.7071933" lon="9.9325133"><ele>607.0</ele><time>2026-04-04T13:25:04.984Z</time></trkpt><trkpt lat="44.707205" lon="9.9324033"><ele>607.0</ele><time>2026-04-04T13:25:05.984Z</time></trkpt><trkpt lat="44.7072067" lon="9.9322817"><ele>607.0</ele><time>2026-04-04T13:25:06.985Z</time></trkpt><trkpt lat="44.7072017" lon="9.9321567"><ele>607.0</ele><time>2026-04-04T13:25:07.984Z</time></trkpt><trkpt lat="44.7071983" lon="9.932035"><ele>607.0</ele><time>2026-04-04T13:25:08.984Z</time></trkpt><trkpt lat="44.70719" lon="9.9319017"><ele>607.0</ele><time>2026-04-04T13:25:09.984Z</time></trkpt><trkpt lat="44.707185" lon="9.9317733"><ele>607.0</ele><time>2026-04-04T13:25:10.985Z</time></trkpt><trkpt lat="44.7071767" lon="9.9316567"><ele>607.0</ele><time>2026-04-04T13:25:11.984Z</time></trkpt><trkpt lat="44.7071567" lon="9.9315417"><ele>607.0</ele><time>2026-04-04T13:25:12.984Z</time></trkpt><trkpt lat="44.7071117" lon="9.9314283"><ele>607.0</ele><time>2026-04-04T13:25:13.984Z</time></trkpt><trkpt lat="44.70706" lon="9.93132"><ele>607.0</ele><time>2026-04-04T13:25:14.985Z</time></trkpt><trkpt lat="44.70699" lon="9.93122"><ele>607.0</ele><time>2026-04-04T13:25:15.985Z</time></trkpt><trkpt lat="44.7068967" lon="9.931125"><ele>601.5</ele><time>2026-04-04T13:25:16.984Z</time></trkpt><trkpt lat="44.7067867" lon="9.9310533"><ele>596.0</ele><time>2026-04-04T13:25:17.985Z</time></trkpt><trkpt lat="44.70668" lon="9.9309683"><ele>590.5</ele><time>2026-04-04T13:25:18.984Z</time></trkpt><trkpt lat="44.70659" lon="9.930875"><ele>585.0</ele><time>2026-04-04T13:25:19.984Z</time></trkpt><trkpt lat="44.70651" lon="9.9307583"><ele>585.0</ele><time>2026-04-04T13:25:20.985Z</time></trkpt><trkpt lat="44.706445" lon="9.9306483"><ele>585.0</ele><time>2026-04-04T13:25:21.983Z</time></trkpt><trkpt lat="44.7063867" lon="9.9305267"><ele>585.0</ele><time>2026-04-04T13:25:22.984Z</time></trkpt><trkpt lat="44.7063283" lon="9.9304033"><ele>585.0</ele><time>2026-04-04T13:25:23.984Z</time></trkpt><trkpt lat="44.7062683" lon="9.9302933"><ele>585.0</ele><time>2026-04-04T13:25:24.983Z</time></trkpt><trkpt lat="44.7061917" lon="9.9302017"><ele>585.0</ele><time>2026-04-04T13:25:25.983Z</time></trkpt><trkpt lat="44.706105" lon="9.93014"><ele>585.0</ele><time>2026-04-04T13:25:26.984Z</time></trkpt><trkpt lat="44.7059967" lon="9.93009"><ele>585.0</ele><time>2026-04-04T13:25:27.983Z</time></trkpt><trkpt lat="44.70589" lon="9.93009"><ele>585.0</ele><time>2026-04-04T13:25:28.984Z</time></trkpt><trkpt lat="44.70579" lon="9.9301267"><ele>585.0</ele><time>2026-04-04T13:25:29.983Z</time></trkpt><trkpt lat="44.7056933" lon="9.930205"><ele>583.6</ele><time>2026-04-04T13:25:30.983Z</time></trkpt><trkpt lat="44.7056067" lon="9.9302967"><ele>582.2</ele><time>2026-04-04T13:25:31.983Z</time></trkpt><trkpt lat="44.7055383" lon="9.9304017"><ele>580.8</ele><time>2026-04-04T13:25:32.983Z</time></trkpt><trkpt lat="44.7054683" lon="9.93051"><ele>579.4</ele><time>2026-04-04T13:25:33.984Z</time></trkpt><trkpt lat="44.7053967" lon="9.93062"><ele>578.0</ele><time>2026-04-04T13:25:34.984Z</time></trkpt><trkpt lat="44.7053267" lon="9.9307183"><ele>578.0</ele><time>2026-04-04T13:25:35.984Z</time></trkpt><trkpt lat="44.7052617" lon="9.930815"><ele>578.0</ele><time>2026-04-04T13:25:36.983Z</time></trkpt><trkpt lat="44.705195" lon="9.9308917"><ele>578.0</ele><time>2026-04-04T13:25:37.984Z</time></trkpt><trkpt lat="44.7051117" lon="9.930975"><ele>578.0</ele><time>2026-04-04T13:25:38.984Z</time></trkpt><trkpt lat="44.70504" lon="9.931035"><ele>578.0</ele><time>2026-04-04T13:25:39.983Z</time></trkpt><trkpt lat="44.7049583" lon="9.931055"><ele>578.0</ele><time>2026-04-04T13:25:40.984Z</time></trkpt><trkpt lat="44.7048717" lon="9.9310283"><ele>576.3333333333333</ele><time>2026-04-04T13:25:41.984Z</time></trkpt><trkpt lat="44.7047817" lon="9.930985"><ele>574.6666666666666</ele><time>2026-04-04T13:25:42.984Z</time></trkpt><trkpt lat="44.7046883" lon="9.930955"><ele>573.0</ele><time>2026-04-04T13:25:43.983Z</time></trkpt><trkpt lat="44.704605" lon="9.93094"><ele>571.3333333333334</ele><time>2026-04-04T13:25:44.983Z</time></trkpt><trkpt lat="44.70453" lon="9.9309583"><ele>569.6666666666667</ele><time>2026-04-04T13:25:45.983Z</time></trkpt><trkpt lat="44.70446" lon="9.9309867"><ele>568.0</ele><time>2026-04-04T13:25:46.984Z</time></trkpt><trkpt lat="44.7043367" lon="9.9310167"><ele>568.0</ele><time>2026-04-04T13:25:48.984Z</time></trkpt><trkpt lat="44.704265" lon="9.9310283"><ele>568.0</ele><time>2026-04-04T13:25:49.983Z</time></trkpt><trkpt lat="44.7042" lon="9.9310383"><ele>568.0</ele><time>2026-04-04T13:25:50.983Z</time></trkpt><trkpt lat="44.7041" lon="9.931045"><ele>568.0</ele><time>2026-04-04T13:25:52.983Z</time></trkpt><trkpt lat="44.7039867" lon="9.9310217"><ele>568.0</ele><time>2026-04-04T13:25:54.983Z</time></trkpt><trkpt lat="44.70393" lon="9.930965"><ele>568.0</ele><time>2026-04-04T13:25:55.983Z</time></trkpt><trkpt lat="44.7038733" lon="9.93089"><ele>571.6</ele><time>2026-04-04T13:25:56.984Z</time></trkpt><trkpt lat="44.7038167" lon="9.9308017"><ele>575.1999999999999</ele><time>2026-04-04T13:25:57.983Z</time></trkpt><trkpt lat="44.7037583" lon="9.9307033"><ele>578.8</ele><time>2026-04-04T13:25:58.983Z</time></trkpt><trkpt lat="44.7037" lon="9.9305967"><ele>582.4</ele><time>2026-04-04T13:25:59.984Z</time></trkpt><trkpt lat="44.7036483" lon="9.930495"><ele>586.0</ele><time>2026-04-04T13:26:00.983Z</time></trkpt><trkpt lat="44.7035833" lon="9.9304"><ele>583.1666666666667</ele><time>2026-04-04T13:26:01.983Z</time></trkpt><trkpt lat="44.703525" lon="9.9303117"><ele>580.3333333333334</ele><time>2026-04-04T13:26:02.983Z</time></trkpt><trkpt lat="44.7034833" lon="9.9302133"><ele>577.5</ele><time>2026-04-04T13:26:03.983Z</time></trkpt><trkpt lat="44.70346" lon="9.930115"><ele>574.6666666666666</ele><time>2026-04-04T13:26:04.984Z</time></trkpt><trkpt lat="44.70345" lon="9.9300117"><ele>571.8333333333333</ele><time>2026-04-04T13:26:05.984Z</time></trkpt><trkpt lat="44.7034833" lon="9.92991"><ele>569.0</ele><time>2026-04-04T13:26:06.983Z</time></trkpt><trkpt lat="44.7035383" lon="9.9298067"><ele>573.75</ele><time>2026-04-04T13:26:07.984Z</time></trkpt><trkpt lat="44.7036233" lon="9.9296983"><ele>578.5</ele><time>2026-04-04T13:26:08.983Z</time></trkpt><trkpt lat="44.7037133" lon="9.929585"><ele>583.25</ele><time>2026-04-04T13:26:09.983Z</time></trkpt><trkpt lat="44.703795" lon="9.92947"><ele>588.0</ele><time>2026-04-04T13:26:10.983Z</time></trkpt><trkpt lat="44.7038533" lon="9.929355"><ele>588.0</ele><time>2026-04-04T13:26:11.983Z</time></trkpt><trkpt lat="44.7038967" lon="9.9292383"><ele>588.0</ele><time>2026-04-04T13:26:12.983Z</time></trkpt><trkpt lat="44.7039133" lon="9.92911"><ele>588.0</ele><time>2026-04-04T13:26:13.983Z</time></trkpt><trkpt lat="44.7039217" lon="9.92899"><ele>588.0</ele><time>2026-04-04T13:26:14.983Z</time></trkpt><trkpt lat="44.7039183" lon="9.9288683"><ele>588.0</ele><time>2026-04-04T13:26:15.983Z</time></trkpt><trkpt lat="44.7039067" lon="9.9287583"><ele>588.0</ele><time>2026-04-04T13:26:16.983Z</time></trkpt><trkpt lat="44.7038917" lon="9.9286533"><ele>587.0</ele><time>2026-04-04T13:26:17.983Z</time></trkpt><trkpt lat="44.703875" lon="9.9285617"><ele>586.0</ele><time>2026-04-04T13:26:18.983Z</time></trkpt><trkpt lat="44.7038483" lon="9.9284317"><ele>585.0</ele><time>2026-04-04T13:26:20.983Z</time></trkpt><trkpt lat="44.703825" lon="9.92832"><ele>584.0</ele><time>2026-04-04T13:26:33.983Z</time></trkpt><trkpt lat="44.7037717" lon="9.9281717"><ele>583.0</ele><time>2026-04-04T13:26:35.983Z</time></trkpt><trkpt lat="44.7037317" lon="9.92808"><ele>582.0</ele><time>2026-04-04T13:26:36.983Z</time></trkpt><trkpt lat="44.7036833" lon="9.9279917"><ele>582.0</ele><time>2026-04-04T13:26:37.983Z</time></trkpt><trkpt lat="44.7036317" lon="9.927915"><ele>582.0</ele><time>2026-04-04T13:26:38.983Z</time></trkpt><trkpt lat="44.703575" lon="9.927845"><ele>582.0</ele><time>2026-04-04T13:26:39.984Z</time></trkpt><trkpt lat="44.7035267" lon="9.9277817"><ele>582.0</ele><time>2026-04-04T13:26:40.983Z</time></trkpt><trkpt lat="44.70347" lon="9.92773"><ele>582.0</ele><time>2026-04-04T13:26:41.984Z</time></trkpt><trkpt lat="44.70342" lon="9.9276733"><ele>582.0</ele><time>2026-04-04T13:26:42.983Z</time></trkpt><trkpt lat="44.703375" lon="9.927605"><ele>582.0</ele><time>2026-04-04T13:26:43.983Z</time></trkpt><trkpt lat="44.7033417" lon="9.9275233"><ele>579.1428571428571</ele><time>2026-04-04T13:26:44.983Z</time></trkpt><trkpt lat="44.7033217" lon="9.927435"><ele>576.2857142857142</ele><time>2026-04-04T13:26:45.983Z</time></trkpt><trkpt lat="44.703305" lon="9.9273267"><ele>573.4285714285714</ele><time>2026-04-04T13:26:46.983Z</time></trkpt><trkpt lat="44.703295" lon="9.9272233"><ele>570.5714285714286</ele><time>2026-04-04T13:26:47.983Z</time></trkpt><trkpt lat="44.7032833" lon="9.9271167"><ele>567.7142857142858</ele><time>2026-04-04T13:26:48.983Z</time></trkpt><trkpt lat="44.7032817" lon="9.9270117"><ele>564.8571428571429</ele><time>2026-04-04T13:26:49.984Z</time></trkpt><trkpt lat="44.7032867" lon="9.9269167"><ele>562.0</ele><time>2026-04-04T13:26:50.983Z</time></trkpt><trkpt lat="44.7033083" lon="9.92682"><ele>562.0</ele><time>2026-04-04T13:26:51.983Z</time></trkpt><trkpt lat="44.7033467" lon="9.9267283"><ele>562.0</ele><time>2026-04-04T13:26:52.983Z</time></trkpt><trkpt lat="44.7033933" lon="9.9266317"><ele>562.0</ele><time>2026-04-04T13:26:53.983Z</time></trkpt><trkpt lat="44.7034483" lon="9.9265433"><ele>562.0</ele><time>2026-04-04T13:26:54.983Z</time></trkpt><trkpt lat="44.7035033" lon="9.9264617"><ele>562.0</ele><time>2026-04-04T13:26:55.984Z</time></trkpt><trkpt lat="44.7035467" lon="9.9263633"><ele>562.0</ele><time>2026-04-04T13:26:56.983Z</time></trkpt><trkpt lat="44.7035783" lon="9.9262533"><ele>561.6666666666667</ele><time>2026-04-04T13:26:57.983Z</time></trkpt><trkpt lat="44.7035883" lon="9.9261433"><ele>561.3333333333334</ele><time>2026-04-04T13:26:58.983Z</time></trkpt><trkpt lat="44.7035867" lon="9.92604"><ele>561.0</ele><time>2026-04-04T13:26:59.983Z</time></trkpt><trkpt lat="44.7035733" lon="9.9259483"><ele>560.6666666666666</ele><time>2026-04-04T13:27:00.983Z</time></trkpt><trkpt lat="44.7035567" lon="9.9258617"><ele>560.3333333333333</ele><time>2026-04-04T13:27:01.983Z</time></trkpt><trkpt lat="44.7035283" lon="9.9256883"><ele>560.0</ele><time>2026-04-04T13:27:03.984Z</time></trkpt><trkpt lat="44.70352" lon="9.9255117"><ele>559.4285714285714</ele><time>2026-04-04T13:27:05.984Z</time></trkpt><trkpt lat="44.70352" lon="9.925415"><ele>558.8571428571429</ele><time>2026-04-04T13:27:06.983Z</time></trkpt><trkpt lat="44.7035183" lon="9.9253117"><ele>558.2857142857142</ele><time>2026-04-04T13:27:07.984Z</time></trkpt><trkpt lat="44.7035133" lon="9.92521"><ele>557.7142857142858</ele><time>2026-04-04T13:27:08.983Z</time></trkpt><trkpt lat="44.70351" lon="9.925115"><ele>557.1428571428571</ele><time>2026-04-04T13:27:09.983Z</time></trkpt><trkpt lat="44.7035133" lon="9.9250167"><ele>556.5714285714286</ele><time>2026-04-04T13:27:10.983Z</time></trkpt><trkpt lat="44.7035283" lon="9.9249033"><ele>556.0</ele><time>2026-04-04T13:27:11.983Z</time></trkpt><trkpt lat="44.70355" lon="9.92478"><ele>556.1666666666667</ele><time>2026-04-04T13:27:12.984Z</time></trkpt><trkpt lat="44.703575" lon="9.924655"><ele>556.3333333333334</ele><time>2026-04-04T13:27:13.984Z</time></trkpt><trkpt lat="44.7036" lon="9.9245267"><ele>556.5</ele><time>2026-04-04T13:27:14.984Z</time></trkpt><trkpt lat="44.70361" lon="9.9243983"><ele>556.6666666666666</ele><time>2026-04-04T13:27:15.983Z</time></trkpt><trkpt lat="44.7035983" lon="9.9242917"><ele>556.8333333333333</ele><time>2026-04-04T13:27:16.984Z</time></trkpt><trkpt lat="44.7035633" lon="9.924195"><ele>557.0</ele><time>2026-04-04T13:27:17.983Z</time></trkpt><trkpt lat="44.7035117" lon="9.9241067"><ele>557.0</ele><time>2026-04-04T13:27:18.983Z</time></trkpt><trkpt lat="44.703465" lon="9.9240267"><ele>557.0</ele><time>2026-04-04T13:27:19.983Z</time></trkpt><trkpt lat="44.7034217" lon="9.923955"><ele>557.0</ele><time>2026-04-04T13:27:20.984Z</time></trkpt><trkpt lat="44.70337" lon="9.9238817"><ele>557.0</ele><time>2026-04-04T13:27:21.984Z</time></trkpt><trkpt lat="44.7033033" lon="9.9238267"><ele>557.0</ele><time>2026-04-04T13:27:22.983Z</time></trkpt><trkpt lat="44.70322" lon="9.9237717"><ele>557.0</ele><time>2026-04-04T13:27:23.983Z</time></trkpt><trkpt lat="44.7031167" lon="9.923725"><ele>557.0</ele><time>2026-04-04T13:27:24.983Z</time></trkpt><trkpt lat="44.7030217" lon="9.923685"><ele>557.0</ele><time>2026-04-04T13:27:25.984Z</time></trkpt><trkpt lat="44.70292" lon="9.9236467"><ele>557.0</ele><time>2026-04-04T13:27:26.983Z</time></trkpt><trkpt lat="44.7028167" lon="9.9236033"><ele>557.0</ele><time>2026-04-04T13:27:27.983Z</time></trkpt><trkpt lat="44.7027183" lon="9.9235633"><ele>557.0</ele><time>2026-04-04T13:27:28.984Z</time></trkpt><trkpt lat="44.702625" lon="9.9235333"><ele>554.5</ele><time>2026-04-04T13:27:29.983Z</time></trkpt><trkpt lat="44.7025333" lon="9.923525"><ele>552.0</ele><time>2026-04-04T13:27:30.983Z</time></trkpt><trkpt lat="44.7024617" lon="9.9235467"><ele>549.5</ele><time>2026-04-04T13:27:31.983Z</time></trkpt><trkpt lat="44.702405" lon="9.9235917"><ele>547.0</ele><time>2026-04-04T13:27:32.983Z</time></trkpt><trkpt lat="44.7023567" lon="9.9236683"><ele>544.5</ele><time>2026-04-04T13:27:33.983Z</time></trkpt><trkpt lat="44.7023083" lon="9.92376"><ele>542.0</ele><time>2026-04-04T13:27:34.984Z</time></trkpt><trkpt lat="44.7022517" lon="9.92385"><ele>542.0</ele><time>2026-04-04T13:27:35.984Z</time></trkpt><trkpt lat="44.7021367" lon="9.9238717"><ele>542.0</ele><time>2026-04-04T13:27:37.983Z</time></trkpt><trkpt lat="44.7020767" lon="9.9238233"><ele>542.0</ele><time>2026-04-04T13:27:38.983Z</time></trkpt><trkpt lat="44.7020117" lon="9.923735"><ele>542.0</ele><time>2026-04-04T13:27:39.984Z</time></trkpt><trkpt lat="44.701945" lon="9.9236167"><ele>542.0</ele><time>2026-04-04T13:27:40.983Z</time></trkpt><trkpt lat="44.7018933" lon="9.9234767"><ele>539.8000000000001</ele><time>2026-04-04T13:27:41.983Z</time></trkpt><trkpt lat="44.7018417" lon="9.9233433"><ele>537.6</ele><time>2026-04-04T13:27:42.983Z</time></trkpt><trkpt lat="44.7017817" lon="9.92323"><ele>535.4000000000001</ele><time>2026-04-04T13:27:43.983Z</time></trkpt><trkpt lat="44.7017133" lon="9.92313"><ele>533.2</ele><time>2026-04-04T13:27:44.984Z</time></trkpt><trkpt lat="44.7016383" lon="9.92304"><ele>531.0</ele><time>2026-04-04T13:27:45.983Z</time></trkpt><trkpt lat="44.701575" lon="9.92294"><ele>531.0</ele><time>2026-04-04T13:27:46.983Z</time></trkpt><trkpt lat="44.7015317" lon="9.9228333"><ele>531.0</ele><time>2026-04-04T13:27:47.983Z</time></trkpt><trkpt lat="44.7015" lon="9.9227233"><ele>531.0</ele><time>2026-04-04T13:27:48.983Z</time></trkpt><trkpt lat="44.7014783" lon="9.9226083"><ele>531.0</ele><time>2026-04-04T13:27:49.983Z</time></trkpt><trkpt lat="44.7014583" lon="9.922495"><ele>531.0</ele><time>2026-04-04T13:27:50.983Z</time></trkpt><trkpt lat="44.7014283" lon="9.9223967"><ele>531.0</ele><time>2026-04-04T13:27:51.984Z</time></trkpt><trkpt lat="44.7013817" lon="9.9223083"><ele>532.6</ele><time>2026-04-04T13:27:52.983Z</time></trkpt><trkpt lat="44.701305" lon="9.9222467"><ele>534.2</ele><time>2026-04-04T13:27:53.983Z</time></trkpt><trkpt lat="44.701215" lon="9.922205"><ele>535.8</ele><time>2026-04-04T13:27:54.984Z</time></trkpt><trkpt lat="44.7011067" lon="9.9221983"><ele>537.4</ele><time>2026-04-04T13:27:55.983Z</time></trkpt><trkpt lat="44.7009883" lon="9.9221917"><ele>539.0</ele><time>2026-04-04T13:27:56.983Z</time></trkpt><trkpt lat="44.7008817" lon="9.9221683"><ele>534.4</ele><time>2026-04-04T13:27:57.984Z</time></trkpt><trkpt lat="44.7007767" lon="9.9221117"><ele>529.8</ele><time>2026-04-04T13:27:58.984Z</time></trkpt><trkpt lat="44.7006833" lon="9.922045"><ele>525.2</ele><time>2026-04-04T13:27:59.983Z</time></trkpt><trkpt lat="44.700585" lon="9.922"><ele>520.6</ele><time>2026-04-04T13:28:00.984Z</time></trkpt><trkpt lat="44.7004817" lon="9.92198"><ele>516.0</ele><time>2026-04-04T13:28:01.984Z</time></trkpt><trkpt lat="44.7003817" lon="9.922"><ele>516.0</ele><time>2026-04-04T13:28:02.983Z</time></trkpt><trkpt lat="44.7003117" lon="9.9220533"><ele>516.0</ele><time>2026-04-04T13:28:03.983Z</time></trkpt><trkpt lat="44.7002533" lon="9.922155"><ele>516.0</ele><time>2026-04-04T13:28:04.984Z</time></trkpt><trkpt lat="44.7002117" lon="9.9222917"><ele>516.0</ele><time>2026-04-04T13:28:05.984Z</time></trkpt><trkpt lat="44.7001883" lon="9.9224483"><ele>516.0</ele><time>2026-04-04T13:28:06.983Z</time></trkpt><trkpt lat="44.7001667" lon="9.92259"><ele>511.8</ele><time>2026-04-04T13:28:07.984Z</time></trkpt><trkpt lat="44.700125" lon="9.9226917"><ele>507.6</ele><time>2026-04-04T13:28:08.983Z</time></trkpt><trkpt lat="44.7000667" lon="9.9227783"><ele>503.4</ele><time>2026-04-04T13:28:09.983Z</time></trkpt><trkpt lat="44.6999933" lon="9.9228217"><ele>499.2</ele><time>2026-04-04T13:28:10.984Z</time></trkpt><trkpt lat="44.699895" lon="9.9228367"><ele>495.0</ele><time>2026-04-04T13:28:11.984Z</time></trkpt><trkpt lat="44.69977" lon="9.9228367"><ele>495.0</ele><time>2026-04-04T13:28:12.984Z</time></trkpt><trkpt lat="44.6996233" lon="9.9228183"><ele>495.0</ele><time>2026-04-04T13:28:13.983Z</time></trkpt><trkpt lat="44.6994783" lon="9.9227733"><ele>495.0</ele><time>2026-04-04T13:28:14.983Z</time></trkpt><trkpt lat="44.6993383" lon="9.9227267"><ele>495.0</ele><time>2026-04-04T13:28:15.984Z</time></trkpt><trkpt lat="44.69921" lon="9.92269"><ele>494.25</ele><time>2026-04-04T13:28:16.983Z</time></trkpt><trkpt lat="44.6990817" lon="9.922675"><ele>493.5</ele><time>2026-04-04T13:28:17.983Z</time></trkpt><trkpt lat="44.698965" lon="9.9226733"><ele>492.75</ele><time>2026-04-04T13:28:18.983Z</time></trkpt><trkpt lat="44.6988617" lon="9.922655"><ele>492.0</ele><time>2026-04-04T13:28:19.983Z</time></trkpt><trkpt lat="44.698755" lon="9.9225983"><ele>493.6</ele><time>2026-04-04T13:28:20.983Z</time></trkpt><trkpt lat="44.6986567" lon="9.9225283"><ele>495.20000000000005</ele><time>2026-04-04T13:28:21.984Z</time></trkpt><trkpt lat="44.6985533" lon="9.922455"><ele>496.8</ele><time>2026-04-04T13:28:22.983Z</time></trkpt><trkpt lat="44.6984583" lon="9.9223983"><ele>498.4</ele><time>2026-04-04T13:28:23.983Z</time></trkpt><trkpt lat="44.6983733" lon="9.9224033"><ele>500.0</ele><time>2026-04-04T13:28:24.983Z</time></trkpt><trkpt lat="44.6982917" lon="9.922435"><ele>500.0</ele><time>2026-04-04T13:28:25.983Z</time></trkpt><trkpt lat="44.6982183" lon="9.9224983"><ele>500.0</ele><time>2026-04-04T13:28:26.984Z</time></trkpt><trkpt lat="44.6981483" lon="9.9225833"><ele>500.0</ele><time>2026-04-04T13:28:27.984Z</time></trkpt><trkpt lat="44.6980733" lon="9.9227117"><ele>500.0</ele><time>2026-04-04T13:28:28.984Z</time></trkpt><trkpt lat="44.698005" lon="9.9228417"><ele>500.0</ele><time>2026-04-04T13:28:29.983Z</time></trkpt><trkpt lat="44.697935" lon="9.9229667"><ele>498.8</ele><time>2026-04-04T13:28:30.983Z</time></trkpt><trkpt lat="44.69786" lon="9.923075"><ele>497.6</ele><time>2026-04-04T13:28:31.983Z</time></trkpt><trkpt lat="44.6977783" lon="9.9231633"><ele>496.4</ele><time>2026-04-04T13:28:32.983Z</time></trkpt><trkpt lat="44.69769" lon="9.923215"><ele>495.2</ele><time>2026-04-04T13:28:33.984Z</time></trkpt><trkpt lat="44.6975917" lon="9.92324"><ele>494.0</ele><time>2026-04-04T13:28:34.983Z</time></trkpt><trkpt lat="44.6974883" lon="9.9232633"><ele>494.0</ele><time>2026-04-04T13:28:35.984Z</time></trkpt><trkpt lat="44.697395" lon="9.9233083"><ele>494.0</ele><time>2026-04-04T13:28:36.984Z</time></trkpt><trkpt lat="44.6973267" lon="9.923385"><ele>494.0</ele><time>2026-04-04T13:28:37.983Z</time></trkpt><trkpt lat="44.6972783" lon="9.9235"><ele>494.0</ele><time>2026-04-04T13:28:38.983Z</time></trkpt><trkpt lat="44.697255" lon="9.9236367"><ele>494.0</ele><time>2026-04-04T13:28:39.983Z</time></trkpt><trkpt lat="44.6972517" lon="9.9237883"><ele>491.4</ele><time>2026-04-04T13:28:40.984Z</time></trkpt><trkpt lat="44.6972433" lon="9.92393"><ele>488.79999999999995</ele><time>2026-04-04T13:28:41.983Z</time></trkpt><trkpt lat="44.6972117" lon="9.9240367"><ele>486.20000000000005</ele><time>2026-04-04T13:28:42.984Z</time></trkpt><trkpt lat="44.6971583" lon="9.92412"><ele>483.6</ele><time>2026-04-04T13:28:43.983Z</time></trkpt><trkpt lat="44.6970817" lon="9.9241867"><ele>481.0</ele><time>2026-04-04T13:28:44.983Z</time></trkpt><trkpt lat="44.69699" lon="9.9242367"><ele>479.5</ele><time>2026-04-04T13:28:45.983Z</time></trkpt><trkpt lat="44.69688" lon="9.9242833"><ele>478.0</ele><time>2026-04-04T13:28:46.984Z</time></trkpt><trkpt lat="44.6967567" lon="9.9243283"><ele>476.5</ele><time>2026-04-04T13:28:47.984Z</time></trkpt><trkpt lat="44.6966233" lon="9.9243733"><ele>475.0</ele><time>2026-04-04T13:28:48.983Z</time></trkpt><trkpt lat="44.696505" lon="9.9244117"><ele>475.0</ele><time>2026-04-04T13:28:49.984Z</time></trkpt><trkpt lat="44.6963917" lon="9.9244617"><ele>475.0</ele><time>2026-04-04T13:28:50.983Z</time></trkpt><trkpt lat="44.6962933" lon="9.9245233"><ele>475.0</ele><time>2026-04-04T13:28:51.984Z</time></trkpt><trkpt lat="44.6961967" lon="9.9245783"><ele>475.0</ele><time>2026-04-04T13:28:52.983Z</time></trkpt><trkpt lat="44.696115" lon="9.92462"><ele>475.0</ele><time>2026-04-04T13:28:53.984Z</time></trkpt><trkpt lat="44.69603" lon="9.924625"><ele>475.2</ele><time>2026-04-04T13:28:54.983Z</time></trkpt><trkpt lat="44.6959517" lon="9.9245683"><ele>475.4</ele><time>2026-04-04T13:28:55.984Z</time></trkpt><trkpt lat="44.6958667" lon="9.9244867"><ele>475.6</ele><time>2026-04-04T13:28:56.984Z</time></trkpt><trkpt lat="44.695775" lon="9.9243733"><ele>475.8</ele><time>2026-04-04T13:28:57.983Z</time></trkpt><trkpt lat="44.695675" lon="9.9242867"><ele>476.0</ele><time>2026-04-04T13:28:58.983Z</time></trkpt><trkpt lat="44.6955667" lon="9.9242467"><ele>476.0</ele><time>2026-04-04T13:28:59.983Z</time></trkpt><trkpt lat="44.6954433" lon="9.9242483"><ele>476.0</ele><time>2026-04-04T13:29:00.983Z</time></trkpt><trkpt lat="44.69532" lon="9.9242817"><ele>476.0</ele><time>2026-04-04T13:29:01.983Z</time></trkpt><trkpt lat="44.695195" lon="9.924365"><ele>476.0</ele><time>2026-04-04T13:29:02.984Z</time></trkpt><trkpt lat="44.69508" lon="9.9244783"><ele>474.0</ele><time>2026-04-04T13:29:03.984Z</time></trkpt><trkpt lat="44.6949733" lon="9.9245883"><ele>472.0</ele><time>2026-04-04T13:29:04.984Z</time></trkpt><trkpt lat="44.694865" lon="9.924695"><ele>470.0</ele><time>2026-04-04T13:29:05.983Z</time></trkpt><trkpt lat="44.6947483" lon="9.9247867"><ele>468.0</ele><time>2026-04-04T13:29:06.983Z</time></trkpt><trkpt lat="44.6946333" lon="9.924875"><ele>468.0</ele><time>2026-04-04T13:29:07.983Z</time></trkpt><trkpt lat="44.6945267" lon="9.9249683"><ele>467.99999999999994</ele><time>2026-04-04T13:29:08.984Z</time></trkpt><trkpt lat="44.6944317" lon="9.9250633"><ele>467.99999999999994</ele><time>2026-04-04T13:29:09.983Z</time></trkpt><trkpt lat="44.694345" lon="9.9251517"><ele>468.0</ele><time>2026-04-04T13:29:10.983Z</time></trkpt><trkpt lat="44.69428" lon="9.925235"><ele>468.0</ele><time>2026-04-04T13:29:11.983Z</time></trkpt><trkpt lat="44.6942183" lon="9.925305"><ele>467.3333333333333</ele><time>2026-04-04T13:29:12.983Z</time></trkpt><trkpt lat="44.69415" lon="9.9253683"><ele>466.66666666666663</ele><time>2026-04-04T13:29:13.983Z</time></trkpt><trkpt lat="44.6940783" lon="9.92539"><ele>466.0</ele><time>2026-04-04T13:29:14.983Z</time></trkpt><trkpt lat="44.694005" lon="9.9253717"><ele>465.3333333333333</ele><time>2026-04-04T13:29:15.984Z</time></trkpt><trkpt lat="44.6939433" lon="9.92532"><ele>464.66666666666663</ele><time>2026-04-04T13:29:16.984Z</time></trkpt><trkpt lat="44.6938833" lon="9.9251917"><ele>464.0</ele><time>2026-04-04T13:29:18.984Z</time></trkpt><trkpt lat="44.693875" lon="9.92503"><ele>464.0</ele><time>2026-04-04T13:29:20.984Z</time></trkpt><trkpt lat="44.693875" lon="9.9249283"><ele>464.0</ele><time>2026-04-04T13:29:21.983Z</time></trkpt><trkpt lat="44.6938717" lon="9.9248167"><ele>464.0</ele><time>2026-04-04T13:29:22.983Z</time></trkpt><trkpt lat="44.69385" lon="9.9246867"><ele>464.0</ele><time>2026-04-04T13:29:23.983Z</time></trkpt><trkpt lat="44.6938133" lon="9.9245467"><ele>464.0</ele><time>2026-04-04T13:29:24.983Z</time></trkpt><trkpt lat="44.6937633" lon="9.9244183"><ele>464.0</ele><time>2026-04-04T13:29:25.983Z</time></trkpt><trkpt lat="44.6937067" lon="9.9242883"><ele>464.0</ele><time>2026-04-04T13:29:26.984Z</time></trkpt><trkpt lat="44.6936517" lon="9.924145"><ele>464.0</ele><time>2026-04-04T13:29:27.983Z</time></trkpt><trkpt lat="44.6935933" lon="9.9240167"><ele>464.0</ele><time>2026-04-04T13:29:28.983Z</time></trkpt><trkpt lat="44.6935167" lon="9.9238783"><ele>460.0</ele><time>2026-04-04T13:29:29.984Z</time></trkpt><trkpt lat="44.6934317" lon="9.92375"><ele>456.0</ele><time>2026-04-04T13:29:30.984Z</time></trkpt><trkpt lat="44.69335" lon="9.92362"><ele>452.0</ele><time>2026-04-04T13:29:31.983Z</time></trkpt><trkpt lat="44.6932667" lon="9.9234883"><ele>448.0</ele><time>2026-04-04T13:29:32.983Z</time></trkpt><trkpt lat="44.6931883" lon="9.9233533"><ele>448.0</ele><time>2026-04-04T13:29:33.983Z</time></trkpt><trkpt lat="44.69311" lon="9.9232183"><ele>448.0</ele><time>2026-04-04T13:29:34.983Z</time></trkpt><trkpt lat="44.6930333" lon="9.9230883"><ele>448.0</ele><time>2026-04-04T13:29:35.983Z</time></trkpt><trkpt lat="44.6929567" lon="9.922965"><ele>448.0</ele><time>2026-04-04T13:29:36.983Z</time></trkpt><trkpt lat="44.692895" lon="9.9228383"><ele>448.0</ele><time>2026-04-04T13:29:37.984Z</time></trkpt><trkpt lat="44.6928567" lon="9.9226883"><ele>448.0</ele><time>2026-04-04T13:29:38.983Z</time></trkpt><trkpt lat="44.6928433" lon="9.922525"><ele>448.0</ele><time>2026-04-04T13:29:39.983Z</time></trkpt><trkpt lat="44.6928467" lon="9.9223467"><ele>448.0</ele><time>2026-04-04T13:29:40.983Z</time></trkpt><trkpt lat="44.6928867" lon="9.922155"><ele>449.0</ele><time>2026-04-04T13:29:41.983Z</time></trkpt><trkpt lat="44.69293" lon="9.92196"><ele>450.0</ele><time>2026-04-04T13:29:42.983Z</time></trkpt><trkpt lat="44.6929683" lon="9.9217567"><ele>451.0</ele><time>2026-04-04T13:29:43.983Z</time></trkpt><trkpt lat="44.6930117" lon="9.9215633"><ele>452.0</ele><time>2026-04-04T13:29:44.984Z</time></trkpt><trkpt lat="44.6930483" lon="9.92139"><ele>453.0</ele><time>2026-04-04T13:29:45.983Z</time></trkpt><trkpt lat="44.6930617" lon="9.9212383"><ele>454.0</ele><time>2026-04-04T13:29:46.983Z</time></trkpt><trkpt lat="44.6930617" lon="9.9210767"><ele>455.0</ele><time>2026-04-04T13:29:47.983Z</time></trkpt><trkpt lat="44.6930233" lon="9.9209083"><ele>456.0</ele><time>2026-04-04T13:29:48.983Z</time></trkpt><trkpt lat="44.69295" lon="9.9207533"><ele>456.25</ele><time>2026-04-04T13:29:49.983Z</time></trkpt><trkpt lat="44.69285" lon="9.9206133"><ele>456.5</ele><time>2026-04-04T13:29:50.983Z</time></trkpt><trkpt lat="44.6927667" lon="9.9204583"><ele>456.75</ele><time>2026-04-04T13:29:51.983Z</time></trkpt><trkpt lat="44.6926833" lon="9.920295"><ele>457.0</ele><time>2026-04-04T13:29:52.984Z</time></trkpt><trkpt lat="44.6925983" lon="9.9201383"><ele>454.25</ele><time>2026-04-04T13:29:53.984Z</time></trkpt><trkpt lat="44.692515" lon="9.9199833"><ele>451.5</ele><time>2026-04-04T13:29:54.983Z</time></trkpt><trkpt lat="44.6924467" lon="9.9198317"><ele>448.75</ele><time>2026-04-04T13:29:55.983Z</time></trkpt><trkpt lat="44.69239" lon="9.9196967"><ele>446.0</ele><time>2026-04-04T13:29:56.984Z</time></trkpt><trkpt lat="44.6923367" lon="9.9195867"><ele>446.0</ele><time>2026-04-04T13:29:57.983Z</time></trkpt><trkpt lat="44.692305" lon="9.9194833"><ele>446.0</ele><time>2026-04-04T13:29:58.983Z</time></trkpt><trkpt lat="44.69228" lon="9.9193683"><ele>446.0</ele><time>2026-04-04T13:29:59.984Z</time></trkpt><trkpt lat="44.6922733" lon="9.9192433"><ele>446.0</ele><time>2026-04-04T13:30:00.983Z</time></trkpt><trkpt lat="44.6923017" lon="9.9190967"><ele>446.0</ele><time>2026-04-04T13:30:01.983Z</time></trkpt><trkpt lat="44.6923317" lon="9.9189283"><ele>446.0</ele><time>2026-04-04T13:30:02.984Z</time></trkpt><trkpt lat="44.69237" lon="9.9187483"><ele>446.0</ele><time>2026-04-04T13:30:03.984Z</time></trkpt><trkpt lat="44.69241" lon="9.9185717"><ele>446.0</ele><time>2026-04-04T13:30:04.983Z</time></trkpt><trkpt lat="44.692425" lon="9.918405"><ele>446.0</ele><time>2026-04-04T13:30:05.984Z</time></trkpt><trkpt lat="44.69245" lon="9.9182567"><ele>446.0</ele><time>2026-04-04T13:30:06.984Z</time></trkpt><trkpt lat="44.6925033" lon="9.9181333"><ele>446.0</ele><time>2026-04-04T13:30:07.983Z</time></trkpt><trkpt lat="44.6925833" lon="9.918035"><ele>446.0</ele><time>2026-04-04T13:30:08.984Z</time></trkpt><trkpt lat="44.69268" lon="9.91798"><ele>446.0</ele><time>2026-04-04T13:30:09.984Z</time></trkpt><trkpt lat="44.6927767" lon="9.9179383"><ele>446.0</ele><time>2026-04-04T13:30:10.983Z</time></trkpt><trkpt lat="44.692885" lon="9.917905"><ele>450.75</ele><time>2026-04-04T13:30:11.983Z</time></trkpt><trkpt lat="44.6930017" lon="9.9178667"><ele>455.5</ele><time>2026-04-04T13:30:12.984Z</time></trkpt><trkpt lat="44.6931183" lon="9.9178133"><ele>460.25</ele><time>2026-04-04T13:30:13.984Z</time></trkpt><trkpt lat="44.693245" lon="9.9177517"><ele>465.0</ele><time>2026-04-04T13:30:14.983Z</time></trkpt><trkpt lat="44.693375" lon="9.9176767"><ele>465.0</ele><time>2026-04-04T13:30:15.983Z</time></trkpt><trkpt lat="44.6935033" lon="9.9175883"><ele>465.0</ele><time>2026-04-04T13:30:16.984Z</time></trkpt><trkpt lat="44.69362" lon="9.9174933"><ele>465.0</ele><time>2026-04-04T13:30:17.984Z</time></trkpt><trkpt lat="44.693715" lon="9.9173733"><ele>465.0</ele><time>2026-04-04T13:30:18.984Z</time></trkpt><trkpt lat="44.6938033" lon="9.9172283"><ele>468.75</ele><time>2026-04-04T13:30:19.983Z</time></trkpt><trkpt lat="44.69387" lon="9.9170683"><ele>472.5</ele><time>2026-04-04T13:30:20.984Z</time></trkpt><trkpt lat="44.6939267" lon="9.9168917"><ele>476.25</ele><time>2026-04-04T13:30:21.983Z</time></trkpt><trkpt lat="44.693965" lon="9.9167033"><ele>480.0</ele><time>2026-04-04T13:30:22.984Z</time></trkpt><trkpt lat="44.69399" lon="9.916515"><ele>480.25</ele><time>2026-04-04T13:30:23.984Z</time></trkpt><trkpt lat="44.6940083" lon="9.9163267"><ele>480.5</ele><time>2026-04-04T13:30:24.984Z</time></trkpt><trkpt lat="44.6940167" lon="9.91614"><ele>480.75</ele><time>2026-04-04T13:30:25.983Z</time></trkpt><trkpt lat="44.694025" lon="9.9159483"><ele>481.0</ele><time>2026-04-04T13:30:26.983Z</time></trkpt><trkpt lat="44.69404" lon="9.9157567"><ele>482.75</ele><time>2026-04-04T13:30:27.984Z</time></trkpt><trkpt lat="44.694075" lon="9.9155583"><ele>484.5</ele><time>2026-04-04T13:30:28.984Z</time></trkpt><trkpt lat="44.6941317" lon="9.9153567"><ele>486.25</ele><time>2026-04-04T13:30:29.983Z</time></trkpt><trkpt lat="44.6941967" lon="9.9151733"><ele>488.0</ele><time>2026-04-04T13:30:30.983Z</time></trkpt><trkpt lat="44.694245" lon="9.914995"><ele>488.0</ele><time>2026-04-04T13:30:31.983Z</time></trkpt><trkpt lat="44.69428" lon="9.914835"><ele>487.99999999999994</ele><time>2026-04-04T13:30:32.984Z</time></trkpt><trkpt lat="44.6943317" lon="9.914705"><ele>487.99999999999994</ele><time>2026-04-04T13:30:33.983Z</time></trkpt><trkpt lat="44.69439" lon="9.9146133"><ele>488.0</ele><time>2026-04-04T13:30:34.984Z</time></trkpt><trkpt lat="44.69447" lon="9.9145183"><ele>488.0</ele><time>2026-04-04T13:30:35.983Z</time></trkpt><trkpt lat="44.694555" lon="9.9144083"><ele>490.75</ele><time>2026-04-04T13:30:36.983Z</time></trkpt><trkpt lat="44.694645" lon="9.9142783"><ele>493.5</ele><time>2026-04-04T13:30:37.983Z</time></trkpt><trkpt lat="44.6947383" lon="9.9141333"><ele>496.25</ele><time>2026-04-04T13:30:38.983Z</time></trkpt><trkpt lat="44.69482" lon="9.91399"><ele>499.0</ele><time>2026-04-04T13:30:39.983Z</time></trkpt><trkpt lat="44.6948983" lon="9.9138483"><ele>499.0</ele><time>2026-04-04T13:30:40.984Z</time></trkpt><trkpt lat="44.6949683" lon="9.9136917"><ele>499.0</ele><time>2026-04-04T13:30:41.983Z</time></trkpt><trkpt lat="44.6950117" lon="9.9135317"><ele>499.0</ele><time>2026-04-04T13:30:42.984Z</time></trkpt><trkpt lat="44.695035" lon="9.9133583"><ele>499.0</ele><time>2026-04-04T13:30:43.984Z</time></trkpt><trkpt lat="44.6950367" lon="9.91319"><ele>498.25</ele><time>2026-04-04T13:30:44.984Z</time></trkpt><trkpt lat="44.6950417" lon="9.913015"><ele>497.5</ele><time>2026-04-04T13:30:45.984Z</time></trkpt><trkpt lat="44.6950433" lon="9.912835"><ele>496.75</ele><time>2026-04-04T13:30:46.984Z</time></trkpt><trkpt lat="44.69504" lon="9.912645"><ele>496.0</ele><time>2026-04-04T13:30:47.984Z</time></trkpt><trkpt lat="44.6950267" lon="9.912455"><ele>497.4</ele><time>2026-04-04T13:30:48.983Z</time></trkpt><trkpt lat="44.69501" lon="9.9123"><ele>498.8</ele><time>2026-04-04T13:30:49.983Z</time></trkpt><trkpt lat="44.6949767" lon="9.912145"><ele>500.19999999999993</ele><time>2026-04-04T13:30:50.984Z</time></trkpt><trkpt lat="44.6949417" lon="9.912005"><ele>501.59999999999997</ele><time>2026-04-04T13:30:51.984Z</time></trkpt><trkpt lat="44.6948967" lon="9.911875"><ele>503.0</ele><time>2026-04-04T13:30:52.984Z</time></trkpt><trkpt lat="44.6948433" lon="9.9117367"><ele>504.8333333333333</ele><time>2026-04-04T13:30:53.983Z</time></trkpt><trkpt lat="44.694785" lon="9.9116183"><ele>506.66666666666663</ele><time>2026-04-04T13:30:54.984Z</time></trkpt><trkpt lat="44.6947233" lon="9.91152"><ele>508.5</ele><time>2026-04-04T13:30:55.983Z</time></trkpt><trkpt lat="44.69466" lon="9.911435"><ele>510.33333333333337</ele><time>2026-04-04T13:30:56.983Z</time></trkpt><trkpt lat="44.6946033" lon="9.9113517"><ele>512.1666666666667</ele><time>2026-04-04T13:30:57.983Z</time></trkpt><trkpt lat="44.6945667" lon="9.911275"><ele>514.0</ele><time>2026-04-04T13:30:58.983Z</time></trkpt><trkpt lat="44.6945367" lon="9.911185"><ele>514.0</ele><time>2026-04-04T13:30:59.984Z</time></trkpt><trkpt lat="44.6945717" lon="9.9110117"><ele>514.0</ele><time>2026-04-04T13:31:01.984Z</time></trkpt><trkpt lat="44.6946283" lon="9.9109167"><ele>514.0</ele><time>2026-04-04T13:31:02.984Z</time></trkpt><trkpt lat="44.6947" lon="9.9108083"><ele>514.0</ele><time>2026-04-04T13:31:03.983Z</time></trkpt><trkpt lat="44.6947733" lon="9.9106783"><ele>514.0</ele><time>2026-04-04T13:31:04.983Z</time></trkpt><trkpt lat="44.694865" lon="9.9105317"><ele>515.2</ele><time>2026-04-04T13:31:05.984Z</time></trkpt><trkpt lat="44.69495" lon="9.9104167"><ele>516.4</ele><time>2026-04-04T13:31:06.983Z</time></trkpt><trkpt lat="44.69504" lon="9.91033"><ele>517.6</ele><time>2026-04-04T13:31:07.983Z</time></trkpt><trkpt lat="44.6951367" lon="9.910295"><ele>518.8</ele><time>2026-04-04T13:31:08.983Z</time></trkpt><trkpt lat="44.6952417" lon="9.910305"><ele>520.0</ele><time>2026-04-04T13:31:09.983Z</time></trkpt><trkpt lat="44.6953467" lon="9.9103583"><ele>522.5</ele><time>2026-04-04T13:31:10.984Z</time></trkpt><trkpt lat="44.695445" lon="9.9104283"><ele>525.0</ele><time>2026-04-04T13:31:11.984Z</time></trkpt><trkpt lat="44.69555" lon="9.910475"><ele>527.5</ele><time>2026-04-04T13:31:12.983Z</time></trkpt><trkpt lat="44.695665" lon="9.9104867"><ele>530.0</ele><time>2026-04-04T13:31:13.983Z</time></trkpt><trkpt lat="44.695785" lon="9.910475"><ele>530.0</ele><time>2026-04-04T13:31:14.983Z</time></trkpt><trkpt lat="44.6958967" lon="9.9104467"><ele>530.0</ele><time>2026-04-04T13:31:15.983Z</time></trkpt><trkpt lat="44.69601" lon="9.9104333"><ele>530.0</ele><time>2026-04-04T13:31:16.984Z</time></trkpt><trkpt lat="44.69612" lon="9.91043"><ele>530.0</ele><time>2026-04-04T13:31:17.983Z</time></trkpt><trkpt lat="44.69622" lon="9.9104233"><ele>530.0</ele><time>2026-04-04T13:31:18.983Z</time></trkpt><trkpt lat="44.6963183" lon="9.91037"><ele>532.0</ele><time>2026-04-04T13:31:19.983Z</time></trkpt><trkpt lat="44.6964067" lon="9.91028"><ele>534.0</ele><time>2026-04-04T13:31:20.983Z</time></trkpt><trkpt lat="44.6964917" lon="9.910165"><ele>536.0</ele><time>2026-04-04T13:31:21.983Z</time></trkpt><trkpt lat="44.69657" lon="9.9100583"><ele>538.0</ele><time>2026-04-04T13:31:22.984Z</time></trkpt><trkpt lat="44.6966333" lon="9.9099633"><ele>540.0</ele><time>2026-04-04T13:31:23.984Z</time></trkpt><trkpt lat="44.6966717" lon="9.90988"><ele>540.0</ele><time>2026-04-04T13:31:24.984Z</time></trkpt><trkpt lat="44.696695" lon="9.9097917"><ele>540.0</ele><time>2026-04-04T13:31:25.983Z</time></trkpt><trkpt lat="44.6967133" lon="9.9096683"><ele>540.0</ele><time>2026-04-04T13:31:26.983Z</time></trkpt><trkpt lat="44.6967217" lon="9.9095233"><ele>540.0</ele><time>2026-04-04T13:31:27.983Z</time></trkpt><trkpt lat="44.6967083" lon="9.90937"><ele>540.0</ele><time>2026-04-04T13:31:28.983Z</time></trkpt><trkpt lat="44.6966933" lon="9.90921"><ele>540.75</ele><time>2026-04-04T13:31:29.984Z</time></trkpt><trkpt lat="44.69668" lon="9.9090483"><ele>541.5</ele><time>2026-04-04T13:31:30.983Z</time></trkpt><trkpt lat="44.6966617" lon="9.908875"><ele>542.25</ele><time>2026-04-04T13:31:31.983Z</time></trkpt><trkpt lat="44.6966483" lon="9.9087067"><ele>543.0</ele><time>2026-04-04T13:31:32.983Z</time></trkpt><trkpt lat="44.696635" lon="9.9085533"><ele>543.4</ele><time>2026-04-04T13:31:33.983Z</time></trkpt><trkpt lat="44.69663" lon="9.9084083"><ele>543.8</ele><time>2026-04-04T13:31:34.983Z</time></trkpt><trkpt lat="44.6966217" lon="9.9082567"><ele>544.2</ele><time>2026-04-04T13:31:35.984Z</time></trkpt><trkpt lat="44.6966133" lon="9.9080983"><ele>544.6</ele><time>2026-04-04T13:31:36.983Z</time></trkpt><trkpt lat="44.6966117" lon="9.9079467"><ele>545.0</ele><time>2026-04-04T13:31:37.984Z</time></trkpt><trkpt lat="44.6966" lon="9.9077683"><ele>545.0</ele><time>2026-04-04T13:31:38.984Z</time></trkpt><trkpt lat="44.6965883" lon="9.9075883"><ele>545.0</ele><time>2026-04-04T13:31:39.983Z</time></trkpt><trkpt lat="44.69657" lon="9.9074083"><ele>545.0</ele><time>2026-04-04T13:31:40.983Z</time></trkpt><trkpt lat="44.6965833" lon="9.90726"><ele>545.0</ele><time>2026-04-04T13:31:41.983Z</time></trkpt><trkpt lat="44.6965817" lon="9.9071083"><ele>544.75</ele><time>2026-04-04T13:31:42.983Z</time></trkpt><trkpt lat="44.6965767" lon="9.9069517"><ele>544.5</ele><time>2026-04-04T13:31:43.984Z</time></trkpt><trkpt lat="44.69656" lon="9.90678"><ele>544.25</ele><time>2026-04-04T13:31:44.983Z</time></trkpt><trkpt lat="44.6965467" lon="9.9066117"><ele>544.0</ele><time>2026-04-04T13:31:45.984Z</time></trkpt><trkpt lat="44.6965283" lon="9.906435"><ele>544.0</ele><time>2026-04-04T13:31:46.983Z</time></trkpt><trkpt lat="44.6965083" lon="9.9062667"><ele>544.0</ele><time>2026-04-04T13:31:47.983Z</time></trkpt><trkpt lat="44.6964933" lon="9.9061"><ele>544.0</ele><time>2026-04-04T13:31:48.983Z</time></trkpt><trkpt lat="44.6964833" lon="9.905945"><ele>544.0</ele><time>2026-04-04T13:31:49.984Z</time></trkpt><trkpt lat="44.6964883" lon="9.9058"><ele>545.5</ele><time>2026-04-04T13:31:50.984Z</time></trkpt><trkpt lat="44.696515" lon="9.9056483"><ele>547.0</ele><time>2026-04-04T13:31:51.983Z</time></trkpt><trkpt lat="44.6965383" lon="9.9054833"><ele>548.5</ele><time>2026-04-04T13:31:52.983Z</time></trkpt><trkpt lat="44.6965583" lon="9.9053317"><ele>550.0</ele><time>2026-04-04T13:31:53.984Z</time></trkpt><trkpt lat="44.6965717" lon="9.9051633"><ele>551.0</ele><time>2026-04-04T13:31:54.983Z</time></trkpt><trkpt lat="44.6965683" lon="9.9050183"><ele>552.0</ele><time>2026-04-04T13:31:55.984Z</time></trkpt><trkpt lat="44.6965433" lon="9.904895"><ele>553.0</ele><time>2026-04-04T13:31:56.983Z</time></trkpt><trkpt lat="44.6964967" lon="9.9047967"><ele>554.0</ele><time>2026-04-04T13:31:57.983Z</time></trkpt><trkpt lat="44.6964517" lon="9.9047067"><ele>555.0</ele><time>2026-04-04T13:31:58.983Z</time></trkpt><trkpt lat="44.696415" lon="9.904605"><ele>556.0</ele><time>2026-04-04T13:31:59.984Z</time></trkpt><trkpt lat="44.6963917" lon="9.90449"><ele>556.0</ele><time>2026-04-04T13:32:00.983Z</time></trkpt><trkpt lat="44.69639" lon="9.9043483"><ele>556.0</ele><time>2026-04-04T13:32:01.983Z</time></trkpt><trkpt lat="44.6964067" lon="9.9041833"><ele>556.0</ele><time>2026-04-04T13:32:02.984Z</time></trkpt><trkpt lat="44.69643" lon="9.9040083"><ele>556.0</ele><time>2026-04-04T13:32:03.984Z</time></trkpt><trkpt lat="44.6964533" lon="9.9038433"><ele>555.4</ele><time>2026-04-04T13:32:04.984Z</time></trkpt><trkpt lat="44.6964767" lon="9.9036783"><ele>554.8</ele><time>2026-04-04T13:32:05.983Z</time></trkpt><trkpt lat="44.69649" lon="9.90353"><ele>554.1999999999999</ele><time>2026-04-04T13:32:06.983Z</time></trkpt><trkpt lat="44.6964917" lon="9.903385"><ele>553.6</ele><time>2026-04-04T13:32:07.983Z</time></trkpt><trkpt lat="44.69649" lon="9.9032467"><ele>553.0</ele><time>2026-04-04T13:32:08.983Z</time></trkpt><trkpt lat="44.6964983" lon="9.90312"><ele>550.8333333333334</ele><time>2026-04-04T13:32:09.984Z</time></trkpt><trkpt lat="44.696525" lon="9.90302"><ele>548.6666666666667</ele><time>2026-04-04T13:32:10.984Z</time></trkpt><trkpt lat="44.6965517" lon="9.9029367"><ele>546.5</ele><time>2026-04-04T13:32:11.983Z</time></trkpt><trkpt lat="44.69663" lon="9.90283"><ele>544.3333333333334</ele><time>2026-04-04T13:32:13.983Z</time></trkpt><trkpt lat="44.6966883" lon="9.9027817"><ele>542.1666666666666</ele><time>2026-04-04T13:32:14.984Z</time></trkpt><trkpt lat="44.6967533" lon="9.90275"><ele>540.0</ele><time>2026-04-04T13:32:15.983Z</time></trkpt><trkpt lat="44.69683" lon="9.9027217"><ele>540.0</ele><time>2026-04-04T13:32:16.983Z</time></trkpt><trkpt lat="44.6969183" lon="9.90269"><ele>540.0</ele><time>2026-04-04T13:32:17.983Z</time></trkpt><trkpt lat="44.6970183" lon="9.90264"><ele>540.0</ele><time>2026-04-04T13:32:18.984Z</time></trkpt><trkpt lat="44.6971217" lon="9.9025717"><ele>540.0</ele><time>2026-04-04T13:32:19.983Z</time></trkpt><trkpt lat="44.697225" lon="9.9024833"><ele>540.0</ele><time>2026-04-04T13:32:20.983Z</time></trkpt><trkpt lat="44.6973217" lon="9.9023783"><ele>537.25</ele><time>2026-04-04T13:32:21.984Z</time></trkpt><trkpt lat="44.697415" lon="9.9022717"><ele>534.5</ele><time>2026-04-04T13:32:22.984Z</time></trkpt><trkpt lat="44.6975117" lon="9.90216"><ele>531.75</ele><time>2026-04-04T13:32:23.983Z</time></trkpt><trkpt lat="44.6976183" lon="9.902055"><ele>529.0</ele><time>2026-04-04T13:32:24.983Z</time></trkpt><trkpt lat="44.6977367" lon="9.9019683"><ele>530.25</ele><time>2026-04-04T13:32:25.983Z</time></trkpt><trkpt lat="44.6978683" lon="9.9018883"><ele>531.5</ele><time>2026-04-04T13:32:26.983Z</time></trkpt><trkpt lat="44.698" lon="9.9018067"><ele>532.75</ele><time>2026-04-04T13:32:27.983Z</time></trkpt><trkpt lat="44.69813" lon="9.9017167"><ele>534.0</ele><time>2026-04-04T13:32:28.983Z</time></trkpt><trkpt lat="44.69827" lon="9.90163"><ele>535.25</ele><time>2026-04-04T13:32:29.983Z</time></trkpt><trkpt lat="44.698405" lon="9.9015433"><ele>536.5</ele><time>2026-04-04T13:32:30.984Z</time></trkpt><trkpt lat="44.69853" lon="9.9014667"><ele>537.75</ele><time>2026-04-04T13:32:31.984Z</time></trkpt><trkpt lat="44.698645" lon="9.9013917"><ele>539.0</ele><time>2026-04-04T13:32:32.983Z</time></trkpt><trkpt lat="44.6987517" lon="9.901315"><ele>539.0</ele><time>2026-04-04T13:32:33.984Z</time></trkpt><trkpt lat="44.69886" lon="9.90124"><ele>539.0</ele><time>2026-04-04T13:32:34.984Z</time></trkpt><trkpt lat="44.69896" lon="9.9011683"><ele>539.0</ele><time>2026-04-04T13:32:35.983Z</time></trkpt><trkpt lat="44.6990533" lon="9.90109"><ele>539.0</ele><time>2026-04-04T13:32:36.983Z</time></trkpt><trkpt lat="44.6991517" lon="9.9009883"><ele>539.0</ele><time>2026-04-04T13:32:37.984Z</time></trkpt><trkpt lat="44.69924" lon="9.9008733"><ele>539.0</ele><time>2026-04-04T13:32:38.984Z</time></trkpt><trkpt lat="44.699315" lon="9.9007467"><ele>539.0</ele><time>2026-04-04T13:32:39.983Z</time></trkpt><trkpt lat="44.6994033" lon="9.9006133"><ele>539.0</ele><time>2026-04-04T13:32:40.983Z</time></trkpt><trkpt lat="44.69949" lon="9.9004767"><ele>539.0</ele><time>2026-04-04T13:32:41.983Z</time></trkpt><trkpt lat="44.6995783" lon="9.900355"><ele>539.0</ele><time>2026-04-04T13:32:42.983Z</time></trkpt><trkpt lat="44.6996617" lon="9.9002417"><ele>539.0</ele><time>2026-04-04T13:32:43.984Z</time></trkpt><trkpt lat="44.69975" lon="9.9001567"><ele>539.0</ele><time>2026-04-04T13:32:44.983Z</time></trkpt><trkpt lat="44.6998667" lon="9.900085"><ele>536.0</ele><time>2026-04-04T13:32:45.983Z</time></trkpt><trkpt lat="44.6999983" lon="9.900025"><ele>533.0</ele><time>2026-04-04T13:32:46.983Z</time></trkpt><trkpt lat="44.70015" lon="9.89999"><ele>530.0</ele><time>2026-04-04T13:32:47.983Z</time></trkpt><trkpt lat="44.7003083" lon="9.8999517"><ele>530.0</ele><time>2026-04-04T13:32:48.984Z</time></trkpt><trkpt lat="44.7004617" lon="9.8998917"><ele>530.0</ele><time>2026-04-04T13:32:49.983Z</time></trkpt><trkpt lat="44.7005967" lon="9.8998267"><ele>530.0</ele><time>2026-04-04T13:32:50.983Z</time></trkpt><trkpt lat="44.7007283" lon="9.899735"><ele>530.0</ele><time>2026-04-04T13:32:51.984Z</time></trkpt><trkpt lat="44.700825" lon="9.8996433"><ele>530.0</ele><time>2026-04-04T13:32:52.983Z</time></trkpt><trkpt lat="44.7009217" lon="9.8995383"><ele>530.0</ele><time>2026-04-04T13:32:53.983Z</time></trkpt><trkpt lat="44.70101" lon="9.8994267"><ele>530.0</ele><time>2026-04-04T13:32:54.984Z</time></trkpt><trkpt lat="44.701095" lon="9.8993183"><ele>530.0</ele><time>2026-04-04T13:32:55.983Z</time></trkpt><trkpt lat="44.701185" lon="9.899215"><ele>531.3333333333333</ele><time>2026-04-04T13:32:56.983Z</time></trkpt><trkpt lat="44.7012683" lon="9.8991033"><ele>532.6666666666666</ele><time>2026-04-04T13:32:57.983Z</time></trkpt><trkpt lat="44.7013317" lon="9.8989967"><ele>534.0</ele><time>2026-04-04T13:32:58.983Z</time></trkpt><trkpt lat="44.7013567" lon="9.8988967"><ele>535.3333333333334</ele><time>2026-04-04T13:32:59.983Z</time></trkpt><trkpt lat="44.7013667" lon="9.8988017"><ele>536.6666666666667</ele><time>2026-04-04T13:33:00.984Z</time></trkpt><trkpt lat="44.7013733" lon="9.8986917"><ele>538.0</ele><time>2026-04-04T13:33:01.984Z</time></trkpt><trkpt lat="44.7013817" lon="9.8985617"><ele>538.0</ele><time>2026-04-04T13:33:02.983Z</time></trkpt><trkpt lat="44.7013783" lon="9.898425"><ele>538.0</ele><time>2026-04-04T13:33:03.983Z</time></trkpt><trkpt lat="44.7013383" lon="9.89827"><ele>538.0</ele><time>2026-04-04T13:33:04.983Z</time></trkpt><trkpt lat="44.7012767" lon="9.8981117"><ele>538.0</ele><time>2026-04-04T13:33:05.983Z</time></trkpt><trkpt lat="44.7012017" lon="9.89795"><ele>538.6</ele><time>2026-04-04T13:33:06.983Z</time></trkpt><trkpt lat="44.7011367" lon="9.897805"><ele>539.1999999999999</ele><time>2026-04-04T13:33:07.983Z</time></trkpt><trkpt lat="44.7011083" lon="9.8976917"><ele>539.8</ele><time>2026-04-04T13:33:08.983Z</time></trkpt><trkpt lat="44.7011083" lon="9.89759"><ele>540.4</ele><time>2026-04-04T13:33:09.983Z</time></trkpt><trkpt lat="44.7011467" lon="9.897485"><ele>541.0</ele><time>2026-04-04T13:33:10.983Z</time></trkpt><trkpt lat="44.70122" lon="9.89738"><ele>542.5</ele><time>2026-04-04T13:33:11.983Z</time></trkpt><trkpt lat="44.701325" lon="9.897275"><ele>544.0</ele><time>2026-04-04T13:33:12.984Z</time></trkpt><trkpt lat="44.7014383" lon="9.8971733"><ele>545.5</ele><time>2026-04-04T13:33:13.983Z</time></trkpt><trkpt lat="44.7015383" lon="9.8970467"><ele>547.0</ele><time>2026-04-04T13:33:14.983Z</time></trkpt><trkpt lat="44.7015967" lon="9.89688"><ele>544.2</ele><time>2026-04-04T13:33:15.983Z</time></trkpt><trkpt lat="44.701645" lon="9.8967167"><ele>541.4000000000001</ele><time>2026-04-04T13:33:16.983Z</time></trkpt><trkpt lat="44.70169" lon="9.8965867"><ele>538.5999999999999</ele><time>2026-04-04T13:33:17.983Z</time></trkpt><trkpt lat="44.7017483" lon="9.8964883"><ele>535.8</ele><time>2026-04-04T13:33:18.983Z</time></trkpt><trkpt lat="44.70184" lon="9.8964"><ele>533.0</ele><time>2026-04-04T13:33:19.983Z</time></trkpt><trkpt lat="44.70195" lon="9.8963233"><ele>540.6</ele><time>2026-04-04T13:33:20.983Z</time></trkpt><trkpt lat="44.7020617" lon="9.896255"><ele>548.1999999999999</ele><time>2026-04-04T13:33:21.984Z</time></trkpt><trkpt lat="44.7021567" lon="9.8961967"><ele>555.8</ele><time>2026-04-04T13:33:22.983Z</time></trkpt><trkpt lat="44.7022383" lon="9.896145"><ele>563.4</ele><time>2026-04-04T13:33:23.984Z</time></trkpt><trkpt lat="44.7023083" lon="9.896085"><ele>571.0</ele><time>2026-04-04T13:33:24.983Z</time></trkpt><trkpt lat="44.7023517" lon="9.8959917"><ele>568.6</ele><time>2026-04-04T13:33:25.983Z</time></trkpt><trkpt lat="44.7023783" lon="9.8958767"><ele>566.2</ele><time>2026-04-04T13:33:26.984Z</time></trkpt><trkpt lat="44.70237" lon="9.895745"><ele>563.8</ele><time>2026-04-04T13:33:27.984Z</time></trkpt><trkpt lat="44.70234" lon="9.8956083"><ele>561.4</ele><time>2026-04-04T13:33:28.984Z</time></trkpt><trkpt lat="44.70232" lon="9.895485"><ele>559.0</ele><time>2026-04-04T13:33:29.983Z</time></trkpt><trkpt lat="44.7023033" lon="9.89537"><ele>559.0</ele><time>2026-04-04T13:33:30.983Z</time></trkpt><trkpt lat="44.7022967" lon="9.895255"><ele>559.0</ele><time>2026-04-04T13:33:31.984Z</time></trkpt><trkpt lat="44.7022933" lon="9.895135"><ele>559.0</ele><time>2026-04-04T13:33:32.984Z</time></trkpt><trkpt lat="44.7022867" lon="9.8950317"><ele>559.0</ele><time>2026-04-04T13:33:33.983Z</time></trkpt><trkpt lat="44.7022917" lon="9.8949117"><ele>559.0</ele><time>2026-04-04T13:33:34.984Z</time></trkpt><trkpt lat="44.7022983" lon="9.894795"><ele>559.0</ele><time>2026-04-04T13:33:35.983Z</time></trkpt><trkpt lat="44.7023033" lon="9.8946717"><ele>558.6666666666667</ele><time>2026-04-04T13:33:36.984Z</time></trkpt><trkpt lat="44.7023267" lon="9.8945617"><ele>558.3333333333334</ele><time>2026-04-04T13:33:37.984Z</time></trkpt><trkpt lat="44.7023583" lon="9.8944633"><ele>558.0</ele><time>2026-04-04T13:33:38.983Z</time></trkpt><trkpt lat="44.7024" lon="9.8943767"><ele>557.6666666666666</ele><time>2026-04-04T13:33:39.983Z</time></trkpt><trkpt lat="44.7024733" lon="9.89431"><ele>557.3333333333333</ele><time>2026-04-04T13:33:40.984Z</time></trkpt><trkpt lat="44.7025567" lon="9.8942667"><ele>557.0</ele><time>2026-04-04T13:33:41.983Z</time></trkpt><trkpt lat="44.7026533" lon="9.8942217"><ele>559.2</ele><time>2026-04-04T13:33:42.984Z</time></trkpt><trkpt lat="44.70275" lon="9.8941817"><ele>561.4000000000001</ele><time>2026-04-04T13:33:43.983Z</time></trkpt><trkpt lat="44.70285" lon="9.8941467"><ele>563.5999999999999</ele><time>2026-04-04T13:33:44.983Z</time></trkpt><trkpt lat="44.7029483" lon="9.8941017"><ele>565.8</ele><time>2026-04-04T13:33:45.983Z</time></trkpt><trkpt lat="44.7030533" lon="9.894065"><ele>568.0</ele><time>2026-04-04T13:33:46.984Z</time></trkpt><trkpt lat="44.7031633" lon="9.89402"><ele>568.0</ele><time>2026-04-04T13:33:47.983Z</time></trkpt><trkpt lat="44.7032817" lon="9.8939867"><ele>568.0</ele><time>2026-04-04T13:33:48.983Z</time></trkpt><trkpt lat="44.70339" lon="9.89396"><ele>568.0</ele><time>2026-04-04T13:33:49.983Z</time></trkpt><trkpt lat="44.7034783" lon="9.8939467"><ele>568.0</ele><time>2026-04-04T13:33:50.983Z</time></trkpt><trkpt lat="44.7035583" lon="9.8939483"><ele>568.0</ele><time>2026-04-04T13:33:51.983Z</time></trkpt><trkpt lat="44.703635" lon="9.8939533"><ele>570.1666666666667</ele><time>2026-04-04T13:33:52.984Z</time></trkpt><trkpt lat="44.7037117" lon="9.8939683"><ele>572.3333333333334</ele><time>2026-04-04T13:33:53.983Z</time></trkpt><trkpt lat="44.70378" lon="9.89398"><ele>574.5</ele><time>2026-04-04T13:33:54.983Z</time></trkpt><trkpt lat="44.7039083" lon="9.8939917"><ele>576.6666666666666</ele><time>2026-04-04T13:33:56.983Z</time></trkpt><trkpt lat="44.7039733" lon="9.8939967"><ele>578.8333333333333</ele><time>2026-04-04T13:33:57.983Z</time></trkpt><trkpt lat="44.7040433" lon="9.894"><ele>581.0</ele><time>2026-04-04T13:33:58.983Z</time></trkpt><trkpt lat="44.7041183" lon="9.893995"><ele>581.0</ele><time>2026-04-04T13:33:59.984Z</time></trkpt><trkpt lat="44.7041917" lon="9.893975"><ele>581.0</ele><time>2026-04-04T13:34:00.983Z</time></trkpt><trkpt lat="44.70426" lon="9.893945"><ele>581.0</ele><time>2026-04-04T13:34:01.983Z</time></trkpt><trkpt lat="44.7043267" lon="9.893895"><ele>581.0</ele><time>2026-04-04T13:34:02.984Z</time></trkpt><trkpt lat="44.7043867" lon="9.8938417"><ele>581.0</ele><time>2026-04-04T13:34:03.983Z</time></trkpt><trkpt lat="44.70444" lon="9.89379"><ele>581.0</ele><time>2026-04-04T13:34:04.984Z</time></trkpt><trkpt lat="44.70454" lon="9.8937217"><ele>582.75</ele><time>2026-04-04T13:34:06.983Z</time></trkpt><trkpt lat="44.7046583" lon="9.8937217"><ele>584.5</ele><time>2026-04-04T13:34:08.983Z</time></trkpt><trkpt lat="44.704785" lon="9.8937583"><ele>586.25</ele><time>2026-04-04T13:34:10.983Z</time></trkpt><trkpt lat="44.7049133" lon="9.893825"><ele>588.0</ele><time>2026-04-04T13:34:12.983Z</time></trkpt><trkpt lat="44.704985" lon="9.893865"><ele>588.0</ele><time>2026-04-04T13:34:13.983Z</time></trkpt><trkpt lat="44.70505" lon="9.8939083"><ele>588.0</ele><time>2026-04-04T13:34:14.983Z</time></trkpt><trkpt lat="44.7051867" lon="9.8939433"><ele>588.0</ele><time>2026-04-04T13:34:16.984Z</time></trkpt><trkpt lat="44.70526" lon="9.89394"><ele>588.0</ele><time>2026-04-04T13:34:17.984Z</time></trkpt><trkpt lat="44.7053333" lon="9.893925"><ele>588.0</ele><time>2026-04-04T13:34:18.984Z</time></trkpt><trkpt lat="44.705405" lon="9.893895"><ele>588.0</ele><time>2026-04-04T13:34:19.983Z</time></trkpt><trkpt lat="44.7054717" lon="9.893865"><ele>587.6</ele><time>2026-04-04T13:34:20.983Z</time></trkpt><trkpt lat="44.7055833" lon="9.89382"><ele>587.1999999999999</ele><time>2026-04-04T13:34:22.984Z</time></trkpt><trkpt lat="44.7056717" lon="9.8938633"><ele>586.8</ele><time>2026-04-04T13:34:24.984Z</time></trkpt><trkpt lat="44.705725" lon="9.8939667"><ele>586.4</ele><time>2026-04-04T13:34:26.984Z</time></trkpt><trkpt lat="44.7057" lon="9.89408"><ele>586.0</ele><time>2026-04-04T13:34:28.984Z</time></trkpt><trkpt lat="44.705625" lon="9.8941117"><ele>586.0</ele><time>2026-04-04T13:34:29.983Z</time></trkpt><trkpt lat="44.7055283" lon="9.8941417"><ele>586.0</ele><time>2026-04-04T13:34:30.984Z</time></trkpt><trkpt lat="44.7054433" lon="9.8941933"><ele>586.0</ele><time>2026-04-04T13:34:31.983Z</time></trkpt><trkpt lat="44.7053667" lon="9.89425"><ele>586.0</ele><time>2026-04-04T13:34:32.983Z</time></trkpt><trkpt lat="44.7053133" lon="9.8943117"><ele>586.0</ele><time>2026-04-04T13:34:33.984Z</time></trkpt><trkpt lat="44.70527" lon="9.894385"><ele>586.0</ele><time>2026-04-04T13:34:34.984Z</time></trkpt><trkpt lat="44.7052517" lon="9.8945217"><ele>590.8</ele><time>2026-04-04T13:34:36.984Z</time></trkpt><trkpt lat="44.7053367" lon="9.8946433"><ele>595.6</ele><time>2026-04-04T13:34:38.983Z</time></trkpt><trkpt lat="44.705415" lon="9.8946933"><ele>600.4</ele><time>2026-04-04T13:34:39.984Z</time></trkpt><trkpt lat="44.7055083" lon="9.894755"><ele>605.2</ele><time>2026-04-04T13:34:40.983Z</time></trkpt><trkpt lat="44.7056" lon="9.894805"><ele>610.0</ele><time>2026-04-04T13:34:41.983Z</time></trkpt><trkpt lat="44.7056817" lon="9.8948567"><ele>610.0</ele><time>2026-04-04T13:34:42.983Z</time></trkpt><trkpt lat="44.7057567" lon="9.8949067"><ele>610.0</ele><time>2026-04-04T13:34:43.983Z</time></trkpt><trkpt lat="44.7058317" lon="9.8949517"><ele>610.0</ele><time>2026-04-04T13:34:44.983Z</time></trkpt><trkpt lat="44.7059183" lon="9.894985"><ele>610.0</ele><time>2026-04-04T13:34:45.983Z</time></trkpt><trkpt lat="44.7059967" lon="9.8950167"><ele>610.0</ele><time>2026-04-04T13:34:46.983Z</time></trkpt><trkpt lat="44.7060717" lon="9.8950567"><ele>610.0</ele><time>2026-04-04T13:34:47.983Z</time></trkpt><trkpt lat="44.70615" lon="9.8950967"><ele>615.1666666666667</ele><time>2026-04-04T13:34:48.984Z</time></trkpt><trkpt lat="44.7062383" lon="9.8951333"><ele>620.3333333333334</ele><time>2026-04-04T13:34:49.983Z</time></trkpt><trkpt lat="44.7063267" lon="9.8951617"><ele>625.5</ele><time>2026-04-04T13:34:50.983Z</time></trkpt><trkpt lat="44.7064117" lon="9.895185"><ele>630.6666666666666</ele><time>2026-04-04T13:34:51.983Z</time></trkpt><trkpt lat="44.7064967" lon="9.895195"><ele>635.8333333333333</ele><time>2026-04-04T13:34:52.984Z</time></trkpt><trkpt lat="44.706585" lon="9.8952033"><ele>641.0</ele><time>2026-04-04T13:34:53.983Z</time></trkpt><trkpt lat="44.7066683" lon="9.8952117"><ele>641.0</ele><time>2026-04-04T13:34:54.983Z</time></trkpt><trkpt lat="44.7067567" lon="9.895215"><ele>641.0</ele><time>2026-04-04T13:34:55.983Z</time></trkpt><trkpt lat="44.7068483" lon="9.8952283"><ele>641.0</ele><time>2026-04-04T13:34:56.984Z</time></trkpt><trkpt lat="44.7069383" lon="9.895245"><ele>641.0</ele><time>2026-04-04T13:34:57.983Z</time></trkpt><trkpt lat="44.70702" lon="9.89525"><ele>641.0</ele><time>2026-04-04T13:34:58.984Z</time></trkpt><trkpt lat="44.7071083" lon="9.8952467"><ele>641.0</ele><time>2026-04-04T13:34:59.983Z</time></trkpt><trkpt lat="44.7072" lon="9.89525"><ele>641.5</ele><time>2026-04-04T13:35:00.983Z</time></trkpt><trkpt lat="44.7072883" lon="9.8952533"><ele>642.0</ele><time>2026-04-04T13:35:01.984Z</time></trkpt><trkpt lat="44.7073833" lon="9.8952567"><ele>642.5</ele><time>2026-04-04T13:35:02.984Z</time></trkpt><trkpt lat="44.70747" lon="9.8952517"><ele>643.0</ele><time>2026-04-04T13:35:03.983Z</time></trkpt><trkpt lat="44.7075483" lon="9.895235"><ele>643.5</ele><time>2026-04-04T13:35:04.984Z</time></trkpt><trkpt lat="44.7076167" lon="9.89523"><ele>644.0</ele><time>2026-04-04T13:35:05.984Z</time></trkpt><trkpt lat="44.7077383" lon="9.89529"><ele>645.6666666666666</ele><time>2026-04-04T13:35:07.983Z</time></trkpt><trkpt lat="44.7078167" lon="9.8953217"><ele>647.3333333333333</ele><time>2026-04-04T13:35:08.984Z</time></trkpt><trkpt lat="44.7078933" lon="9.8953383"><ele>649.0</ele><time>2026-04-04T13:35:09.983Z</time></trkpt><trkpt lat="44.7079683" lon="9.8953483"><ele>650.6666666666666</ele><time>2026-04-04T13:35:10.983Z</time></trkpt><trkpt lat="44.7080333" lon="9.8953233"><ele>652.3333333333334</ele><time>2026-04-04T13:35:11.984Z</time></trkpt><trkpt lat="44.70811" lon="9.8952817"><ele>654.0</ele><time>2026-04-04T13:35:12.983Z</time></trkpt><trkpt lat="44.7081867" lon="9.8952367"><ele>654.0</ele><time>2026-04-04T13:35:13.983Z</time></trkpt><trkpt lat="44.7082567" lon="9.8951917"><ele>654.0</ele><time>2026-04-04T13:35:14.984Z</time></trkpt><trkpt lat="44.7083183" lon="9.8951517"><ele>654.0</ele><time>2026-04-04T13:35:15.984Z</time></trkpt><trkpt lat="44.7084283" lon="9.895135"><ele>654.0</ele><time>2026-04-04T13:35:17.983Z</time></trkpt><trkpt lat="44.7084967" lon="9.89513"><ele>654.0</ele><time>2026-04-04T13:35:18.983Z</time></trkpt><trkpt lat="44.7085733" lon="9.8951333"><ele>654.0</ele><time>2026-04-04T13:35:19.984Z</time></trkpt><trkpt lat="44.7086617" lon="9.8951367"><ele>654.8333333333334</ele><time>2026-04-04T13:35:20.983Z</time></trkpt><trkpt lat="44.7087483" lon="9.8951383"><ele>655.6666666666666</ele><time>2026-04-04T13:35:21.983Z</time></trkpt><trkpt lat="44.7088317" lon="9.8951417"><ele>656.5</ele><time>2026-04-04T13:35:22.983Z</time></trkpt><trkpt lat="44.708915" lon="9.8951667"><ele>657.3333333333333</ele><time>2026-04-04T13:35:23.984Z</time></trkpt><trkpt lat="44.7089833" lon="9.8952017"><ele>658.1666666666666</ele><time>2026-04-04T13:35:24.984Z</time></trkpt><trkpt lat="44.7090517" lon="9.8952617"><ele>659.0</ele><time>2026-04-04T13:35:25.984Z</time></trkpt><trkpt lat="44.7091233" lon="9.8953217"><ele>659.0</ele><time>2026-04-04T13:35:26.984Z</time></trkpt><trkpt lat="44.7092" lon="9.8953733"><ele>659.0</ele><time>2026-04-04T13:35:27.984Z</time></trkpt><trkpt lat="44.709275" lon="9.8953867"><ele>659.0</ele><time>2026-04-04T13:35:28.983Z</time></trkpt><trkpt lat="44.7093483" lon="9.89539"><ele>659.0</ele><time>2026-04-04T13:35:29.984Z</time></trkpt><trkpt lat="44.7094267" lon="9.8953617"><ele>659.0</ele><time>2026-04-04T13:35:30.984Z</time></trkpt><trkpt lat="44.7094983" lon="9.8953183"><ele>659.0</ele><time>2026-04-04T13:35:31.983Z</time></trkpt><trkpt lat="44.7095667" lon="9.8952667"><ele>658.1666666666666</ele><time>2026-04-04T13:35:32.983Z</time></trkpt><trkpt lat="44.7096267" lon="9.8951933"><ele>657.3333333333333</ele><time>2026-04-04T13:35:33.983Z</time></trkpt><trkpt lat="44.709675" lon="9.895105"><ele>656.5</ele><time>2026-04-04T13:35:34.983Z</time></trkpt><trkpt lat="44.7097167" lon="9.8950283"><ele>655.6666666666666</ele><time>2026-04-04T13:35:35.983Z</time></trkpt><trkpt lat="44.7097717" lon="9.8949583"><ele>654.8333333333334</ele><time>2026-04-04T13:35:36.984Z</time></trkpt><trkpt lat="44.7098333" lon="9.8949"><ele>654.0</ele><time>2026-04-04T13:35:37.983Z</time></trkpt><trkpt lat="44.709905" lon="9.8948467"><ele>654.0</ele><time>2026-04-04T13:35:38.984Z</time></trkpt><trkpt lat="44.7099783" lon="9.89481"><ele>654.0</ele><time>2026-04-04T13:35:39.983Z</time></trkpt><trkpt lat="44.7100483" lon="9.89479"><ele>654.0</ele><time>2026-04-04T13:35:40.983Z</time></trkpt><trkpt lat="44.71012" lon="9.89477"><ele>654.0</ele><time>2026-04-04T13:35:41.984Z</time></trkpt><trkpt lat="44.710195" lon="9.8947467"><ele>654.0</ele><time>2026-04-04T13:35:42.984Z</time></trkpt><trkpt lat="44.710265" lon="9.8947183"><ele>654.0</ele><time>2026-04-04T13:35:43.984Z</time></trkpt><trkpt lat="44.7103233" lon="9.8946783"><ele>654.0</ele><time>2026-04-04T13:35:44.983Z</time></trkpt><trkpt lat="44.71039" lon="9.8946183"><ele>657.5</ele><time>2026-04-04T13:35:45.983Z</time></trkpt><trkpt lat="44.7104467" lon="9.8945567"><ele>661.0</ele><time>2026-04-04T13:35:46.983Z</time></trkpt><trkpt lat="44.7104983" lon="9.89449"><ele>664.5</ele><time>2026-04-04T13:35:47.983Z</time></trkpt><trkpt lat="44.710565" lon="9.8944483"><ele>668.0</ele><time>2026-04-04T13:35:48.983Z</time></trkpt><trkpt lat="44.7106817" lon="9.8944017"><ele>671.5</ele><time>2026-04-04T13:35:50.984Z</time></trkpt><trkpt lat="44.71075" lon="9.89441"><ele>675.0</ele><time>2026-04-04T13:35:51.983Z</time></trkpt><trkpt lat="44.710815" lon="9.8944267"><ele>675.0</ele><time>2026-04-04T13:35:52.984Z</time></trkpt><trkpt lat="44.7108867" lon="9.8944483"><ele>675.0</ele><time>2026-04-04T13:35:53.983Z</time></trkpt><trkpt lat="44.71095" lon="9.8944767"><ele>675.0</ele><time>2026-04-04T13:35:54.983Z</time></trkpt><trkpt lat="44.7110117" lon="9.8945133"><ele>675.0</ele><time>2026-04-04T13:35:55.983Z</time></trkpt><trkpt lat="44.7110767" lon="9.8945683"><ele>675.0</ele><time>2026-04-04T13:35:56.983Z</time></trkpt><trkpt lat="44.7111417" lon="9.894635"><ele>675.0</ele><time>2026-04-04T13:35:57.984Z</time></trkpt><trkpt lat="44.711195" lon="9.8946933"><ele>675.0</ele><time>2026-04-04T13:35:58.983Z</time></trkpt><trkpt lat="44.71131" lon="9.894755"><ele>676.6666666666666</ele><time>2026-04-04T13:36:00.983Z</time></trkpt><trkpt lat="44.711375" lon="9.8947483"><ele>678.3333333333334</ele><time>2026-04-04T13:36:01.983Z</time></trkpt><trkpt lat="44.7114417" lon="9.894725"><ele>680.0</ele><time>2026-04-04T13:36:02.984Z</time></trkpt><trkpt lat="44.7115333" lon="9.894605"><ele>681.6666666666667</ele><time>2026-04-04T13:36:04.984Z</time></trkpt><trkpt lat="44.71157" lon="9.8944983"><ele>683.3333333333334</ele><time>2026-04-04T13:36:05.983Z</time></trkpt><trkpt lat="44.71161" lon="9.8943983"><ele>685.0</ele><time>2026-04-04T13:36:06.984Z</time></trkpt><trkpt lat="44.71165" lon="9.894325"><ele>682.6666666666667</ele><time>2026-04-04T13:36:07.984Z</time></trkpt><trkpt lat="44.7117583" lon="9.8942433"><ele>680.3333333333334</ele><time>2026-04-04T13:36:09.983Z</time></trkpt><trkpt lat="44.71182" lon="9.8942017"><ele>678.0</ele><time>2026-04-04T13:36:10.983Z</time></trkpt><trkpt lat="44.71189" lon="9.894165"><ele>675.6666666666666</ele><time>2026-04-04T13:36:11.984Z</time></trkpt><trkpt lat="44.7119583" lon="9.8941317"><ele>673.3333333333333</ele><time>2026-04-04T13:36:12.984Z</time></trkpt><trkpt lat="44.7120433" lon="9.8941033"><ele>671.0</ele><time>2026-04-04T13:36:13.984Z</time></trkpt><trkpt lat="44.71213" lon="9.894075"><ele>671.0</ele><time>2026-04-04T13:36:14.983Z</time></trkpt><trkpt lat="44.7122133" lon="9.8940333"><ele>671.0</ele><time>2026-04-04T13:36:15.983Z</time></trkpt><trkpt lat="44.71231" lon="9.8939967"><ele>671.0</ele><time>2026-04-04T13:36:16.984Z</time></trkpt><trkpt lat="44.7123967" lon="9.89397"><ele>671.0</ele><time>2026-04-04T13:36:17.983Z</time></trkpt><trkpt lat="44.7124767" lon="9.8939517"><ele>671.0</ele><time>2026-04-04T13:36:18.983Z</time></trkpt><trkpt lat="44.7125483" lon="9.89396"><ele>671.0</ele><time>2026-04-04T13:36:19.984Z</time></trkpt><trkpt lat="44.7126233" lon="9.8939767"><ele>671.0</ele><time>2026-04-04T13:36:20.983Z</time></trkpt><trkpt lat="44.7126883" lon="9.89401"><ele>671.0</ele><time>2026-04-04T13:36:21.984Z</time></trkpt><trkpt lat="44.7127517" lon="9.8940433"><ele>671.0</ele><time>2026-04-04T13:36:22.983Z</time></trkpt><trkpt lat="44.71281" lon="9.8940833"><ele>671.0</ele><time>2026-04-04T13:36:23.983Z</time></trkpt><trkpt lat="44.7128617" lon="9.8941533"><ele>671.0</ele><time>2026-04-04T13:36:24.983Z</time></trkpt><trkpt lat="44.7128933" lon="9.894235"><ele>671.0</ele><time>2026-04-04T13:36:25.984Z</time></trkpt><trkpt lat="44.7129167" lon="9.894335"><ele>671.0</ele><time>2026-04-04T13:36:26.984Z</time></trkpt><trkpt lat="44.7129283" lon="9.8944383"><ele>673.4</ele><time>2026-04-04T13:36:27.983Z</time></trkpt><trkpt lat="44.71295" lon="9.8945233"><ele>675.8</ele><time>2026-04-04T13:36:28.984Z</time></trkpt><trkpt lat="44.7129933" lon="9.8946483"><ele>678.1999999999999</ele><time>2026-04-04T13:36:30.984Z</time></trkpt><trkpt lat="44.7130633" lon="9.8946817"><ele>680.5999999999999</ele><time>2026-04-04T13:36:47.983Z</time></trkpt><trkpt lat="44.7131783" lon="9.8947217"><ele>683.0</ele><time>2026-04-04T13:36:49.984Z</time></trkpt><trkpt lat="44.7132983" lon="9.8947533"><ele>683.0</ele><time>2026-04-04T13:36:51.983Z</time></trkpt><trkpt lat="44.7134167" lon="9.8947933"><ele>683.0</ele><time>2026-04-04T13:36:53.983Z</time></trkpt><trkpt lat="44.7135133" lon="9.8948267"><ele>683.0</ele><time>2026-04-04T13:36:55.983Z</time></trkpt><trkpt lat="44.7136267" lon="9.8948217"><ele>683.0</ele><time>2026-04-04T13:36:57.983Z</time></trkpt><trkpt lat="44.7136933" lon="9.8947983"><ele>683.0</ele><time>2026-04-04T13:36:58.983Z</time></trkpt><trkpt lat="44.7137633" lon="9.894755"><ele>683.8333333333333</ele><time>2026-04-04T13:36:59.983Z</time></trkpt><trkpt lat="44.7138317" lon="9.8947017"><ele>684.6666666666666</ele><time>2026-04-04T13:37:00.983Z</time></trkpt><trkpt lat="44.7139033" lon="9.8946483"><ele>685.5</ele><time>2026-04-04T13:37:01.983Z</time></trkpt><trkpt lat="44.713975" lon="9.8945833"><ele>686.3333333333334</ele><time>2026-04-04T13:37:02.984Z</time></trkpt><trkpt lat="44.71404" lon="9.8945117"><ele>687.1666666666667</ele><time>2026-04-04T13:37:03.984Z</time></trkpt><trkpt lat="44.7141" lon="9.8944567"><ele>688.0</ele><time>2026-04-04T13:37:04.984Z</time></trkpt><trkpt lat="44.714155" lon="9.8944083"><ele>688.0</ele><time>2026-04-04T13:37:05.983Z</time></trkpt><trkpt lat="44.71427" lon="9.8943817"><ele>688.0</ele><time>2026-04-04T13:37:07.984Z</time></trkpt><trkpt lat="44.7143367" lon="9.894395"><ele>688.0</ele><time>2026-04-04T13:37:08.983Z</time></trkpt><trkpt lat="44.71441" lon="9.8944183"><ele>688.0</ele><time>2026-04-04T13:37:09.983Z</time></trkpt><trkpt lat="44.7144867" lon="9.8944367"><ele>688.0</ele><time>2026-04-04T13:37:10.984Z</time></trkpt><trkpt lat="44.7145517" lon="9.8944233"><ele>688.0</ele><time>2026-04-04T13:37:11.984Z</time></trkpt><trkpt lat="44.7146133" lon="9.8943867"><ele>689.3333333333334</ele><time>2026-04-04T13:37:12.983Z</time></trkpt><trkpt lat="44.714675" lon="9.8943033"><ele>690.6666666666667</ele><time>2026-04-04T13:37:13.984Z</time></trkpt><trkpt lat="44.7147283" lon="9.8941983"><ele>692.0</ele><time>2026-04-04T13:37:14.983Z</time></trkpt><trkpt lat="44.7147767" lon="9.8940883"><ele>693.3333333333334</ele><time>2026-04-04T13:37:15.983Z</time></trkpt><trkpt lat="44.7148033" lon="9.8939717"><ele>694.6666666666666</ele><time>2026-04-04T13:37:16.984Z</time></trkpt><trkpt lat="44.714825" lon="9.89385"><ele>696.0</ele><time>2026-04-04T13:37:17.984Z</time></trkpt><trkpt lat="44.714835" lon="9.89372"><ele>696.0</ele><time>2026-04-04T13:37:18.984Z</time></trkpt><trkpt lat="44.7148333" lon="9.893575"><ele>696.0</ele><time>2026-04-04T13:37:19.983Z</time></trkpt><trkpt lat="44.714815" lon="9.8934183"><ele>696.0</ele><time>2026-04-04T13:37:20.984Z</time></trkpt><trkpt lat="44.714795" lon="9.893265"><ele>696.0</ele><time>2026-04-04T13:37:21.983Z</time></trkpt><trkpt lat="44.7147733" lon="9.8931117"><ele>696.0</ele><time>2026-04-04T13:37:22.984Z</time></trkpt><trkpt lat="44.7147533" lon="9.8929783"><ele>695.8333333333334</ele><time>2026-04-04T13:37:23.983Z</time></trkpt><trkpt lat="44.7147317" lon="9.89285"><ele>695.6666666666666</ele><time>2026-04-04T13:37:24.983Z</time></trkpt><trkpt lat="44.7147117" lon="9.8927283"><ele>695.5</ele><time>2026-04-04T13:37:25.983Z</time></trkpt><trkpt lat="44.714705" lon="9.89262"><ele>695.3333333333333</ele><time>2026-04-04T13:37:26.984Z</time></trkpt><trkpt lat="44.7147183" lon="9.8925133"><ele>695.1666666666666</ele><time>2026-04-04T13:37:27.983Z</time></trkpt><trkpt lat="44.71474" lon="9.8924267"><ele>695.0</ele><time>2026-04-04T13:37:28.983Z</time></trkpt><trkpt lat="44.71477" lon="9.8923467"><ele>694.8333333333333</ele><time>2026-04-04T13:37:29.982Z</time></trkpt><trkpt lat="44.714815" lon="9.8922667"><ele>694.6666666666666</ele><time>2026-04-04T13:37:30.983Z</time></trkpt><trkpt lat="44.7148683" lon="9.8922033"><ele>694.5</ele><time>2026-04-04T13:37:31.982Z</time></trkpt><trkpt lat="44.7149533" lon="9.8921333"><ele>694.3333333333334</ele><time>2026-04-04T13:37:33.983Z</time></trkpt><trkpt lat="44.7150117" lon="9.8920867"><ele>694.1666666666667</ele><time>2026-04-04T13:38:40.982Z</time></trkpt><trkpt lat="44.7151183" lon="9.891965"><ele>694.0</ele><time>2026-04-04T13:38:42.983Z</time></trkpt><trkpt lat="44.7151933" lon="9.8918933"><ele>696.8000000000001</ele><time>2026-04-04T13:38:43.982Z</time></trkpt><trkpt lat="44.715265" lon="9.89182"><ele>699.6</ele><time>2026-04-04T13:38:44.983Z</time></trkpt><trkpt lat="44.7153317" lon="9.8917317"><ele>702.4</ele><time>2026-04-04T13:38:45.982Z</time></trkpt><trkpt lat="44.7153867" lon="9.891615"><ele>705.2</ele><time>2026-04-04T13:38:46.982Z</time></trkpt><trkpt lat="44.7154133" lon="9.891495"><ele>708.0</ele><time>2026-04-04T13:38:47.982Z</time></trkpt><trkpt lat="44.7154467" lon="9.8913683"><ele>708.0</ele><time>2026-04-04T13:38:48.982Z</time></trkpt><trkpt lat="44.7154783" lon="9.8912617"><ele>708.0</ele><time>2026-04-04T13:38:49.983Z</time></trkpt><trkpt lat="44.7155133" lon="9.8911517"><ele>708.0</ele><time>2026-04-04T13:38:50.982Z</time></trkpt><trkpt lat="44.715555" lon="9.8910517"><ele>708.0</ele><time>2026-04-04T13:38:51.983Z</time></trkpt><trkpt lat="44.7156133" lon="9.8909583"><ele>708.0</ele><time>2026-04-04T13:38:52.983Z</time></trkpt><trkpt lat="44.715705" lon="9.890885"><ele>708.0</ele><time>2026-04-04T13:38:53.982Z</time></trkpt><trkpt lat="44.7157867" lon="9.89082"><ele>708.0</ele><time>2026-04-04T13:38:54.982Z</time></trkpt><trkpt lat="44.7158767" lon="9.8907583"><ele>708.0</ele><time>2026-04-04T13:38:55.982Z</time></trkpt><trkpt lat="44.71596" lon="9.89071"><ele>708.0</ele><time>2026-04-04T13:38:56.983Z</time></trkpt><trkpt lat="44.716045" lon="9.8906667"><ele>708.0</ele><time>2026-04-04T13:38:57.982Z</time></trkpt><trkpt lat="44.7161317" lon="9.890645"><ele>708.0</ele><time>2026-04-04T13:38:58.982Z</time></trkpt><trkpt lat="44.7162283" lon="9.8906267"><ele>708.0</ele><time>2026-04-04T13:38:59.982Z</time></trkpt><trkpt lat="44.716315" lon="9.8905983"><ele>708.0</ele><time>2026-04-04T13:39:00.982Z</time></trkpt><trkpt lat="44.7163883" lon="9.8905533"><ele>708.0</ele><time>2026-04-04T13:39:01.982Z</time></trkpt><trkpt lat="44.71646" lon="9.890495"><ele>708.0</ele><time>2026-04-04T13:39:02.982Z</time></trkpt><trkpt lat="44.71652" lon="9.8904133"><ele>708.0</ele><time>2026-04-04T13:39:03.982Z</time></trkpt><trkpt lat="44.71655" lon="9.8903017"><ele>708.0</ele><time>2026-04-04T13:39:04.982Z</time></trkpt><trkpt lat="44.7165683" lon="9.8901483"><ele>704.4</ele><time>2026-04-04T13:39:05.983Z</time></trkpt><trkpt lat="44.71661" lon="9.8900033"><ele>700.8</ele><time>2026-04-04T13:39:06.982Z</time></trkpt><trkpt lat="44.7166433" lon="9.8898617"><ele>697.2</ele><time>2026-04-04T13:39:07.982Z</time></trkpt><trkpt lat="44.7166567" lon="9.8896967"><ele>693.6</ele><time>2026-04-04T13:39:08.983Z</time></trkpt><trkpt lat="44.7166767" lon="9.889545"><ele>690.0</ele><time>2026-04-04T13:39:09.982Z</time></trkpt><trkpt lat="44.7166933" lon="9.8894217"><ele>690.0</ele><time>2026-04-04T13:39:10.983Z</time></trkpt><trkpt lat="44.7167167" lon="9.8893283"><ele>690.0</ele><time>2026-04-04T13:39:11.982Z</time></trkpt><trkpt lat="44.7167567" lon="9.8892567"><ele>690.0</ele><time>2026-04-04T13:39:12.983Z</time></trkpt><trkpt lat="44.716855" lon="9.88922"><ele>690.0</ele><time>2026-04-04T13:39:14.983Z</time></trkpt><trkpt lat="44.7169283" lon="9.889245"><ele>690.0</ele><time>2026-04-04T13:39:15.982Z</time></trkpt><trkpt lat="44.7170167" lon="9.8892633"><ele>690.0</ele><time>2026-04-04T13:39:16.982Z</time></trkpt><trkpt lat="44.717105" lon="9.8892617"><ele>691.8</ele><time>2026-04-04T13:39:17.982Z</time></trkpt><trkpt lat="44.7171833" lon="9.889225"><ele>693.6</ele><time>2026-04-04T13:39:18.982Z</time></trkpt><trkpt lat="44.7172533" lon="9.8891667"><ele>695.4000000000001</ele><time>2026-04-04T13:39:19.983Z</time></trkpt><trkpt lat="44.7173133" lon="9.8890733"><ele>697.2</ele><time>2026-04-04T13:39:20.982Z</time></trkpt><trkpt lat="44.7173517" lon="9.8889467"><ele>699.0</ele><time>2026-04-04T13:39:21.983Z</time></trkpt><trkpt lat="44.717395" lon="9.888815"><ele>699.0</ele><time>2026-04-04T13:39:22.982Z</time></trkpt><trkpt lat="44.71745" lon="9.888685"><ele>699.0</ele><time>2026-04-04T13:39:23.982Z</time></trkpt><trkpt lat="44.7175" lon="9.8885517"><ele>699.0</ele><time>2026-04-04T13:39:24.982Z</time></trkpt><trkpt lat="44.71755" lon="9.8884183"><ele>699.0</ele><time>2026-04-04T13:39:25.982Z</time></trkpt><trkpt lat="44.71759" lon="9.8882933"><ele>699.0</ele><time>2026-04-04T13:39:26.982Z</time></trkpt><trkpt lat="44.7176333" lon="9.888175"><ele>698.1666666666666</ele><time>2026-04-04T13:39:27.982Z</time></trkpt><trkpt lat="44.71767" lon="9.8880683"><ele>697.3333333333334</ele><time>2026-04-04T13:39:28.983Z</time></trkpt><trkpt lat="44.7177083" lon="9.887985"><ele>696.5</ele><time>2026-04-04T13:39:29.982Z</time></trkpt><trkpt lat="44.71776" lon="9.8879083"><ele>695.6666666666667</ele><time>2026-04-04T13:39:30.982Z</time></trkpt><trkpt lat="44.7178517" lon="9.8878017"><ele>694.8333333333334</ele><time>2026-04-04T13:39:32.982Z</time></trkpt><trkpt lat="44.7179167" lon="9.887725"><ele>694.0</ele><time>2026-04-04T13:39:34.983Z</time></trkpt><trkpt lat="44.71794" lon="9.8876067"><ele>689.75</ele><time>2026-04-04T13:39:37.983Z</time></trkpt><trkpt lat="44.7179083" lon="9.8874133"><ele>685.5</ele><time>2026-04-04T13:39:39.982Z</time></trkpt><trkpt lat="44.7178867" lon="9.8872783"><ele>681.25</ele><time>2026-04-04T13:39:40.982Z</time></trkpt><trkpt lat="44.7178733" lon="9.8871383"><ele>677.0</ele><time>2026-04-04T13:39:41.982Z</time></trkpt><trkpt lat="44.71785" lon="9.8869783"><ele>677.0</ele><time>2026-04-04T13:39:42.983Z</time></trkpt><trkpt lat="44.71783" lon="9.886815"><ele>677.0</ele><time>2026-04-04T13:39:43.983Z</time></trkpt><trkpt lat="44.7178133" lon="9.88665"><ele>677.0</ele><time>2026-04-04T13:39:44.982Z</time></trkpt><trkpt lat="44.7177933" lon="9.88648"><ele>677.0</ele><time>2026-04-04T13:39:45.982Z</time></trkpt><trkpt lat="44.7177833" lon="9.8863117"><ele>674.8</ele><time>2026-04-04T13:39:46.982Z</time></trkpt><trkpt lat="44.7177867" lon="9.8861483"><ele>672.6</ele><time>2026-04-04T13:39:47.982Z</time></trkpt><trkpt lat="44.7178333" lon="9.8860183"><ele>670.4</ele><time>2026-04-04T13:39:48.983Z</time></trkpt><trkpt lat="44.71786" lon="9.8858717"><ele>668.1999999999999</ele><time>2026-04-04T13:39:49.982Z</time></trkpt><trkpt lat="44.7179017" lon="9.885725"><ele>666.0</ele><time>2026-04-04T13:39:50.982Z</time></trkpt><trkpt lat="44.7179283" lon="9.8855683"><ele>666.0</ele><time>2026-04-04T13:39:51.983Z</time></trkpt><trkpt lat="44.717935" lon="9.8854067"><ele>666.0</ele><time>2026-04-04T13:39:52.982Z</time></trkpt><trkpt lat="44.717925" lon="9.8852333"><ele>666.0</ele><time>2026-04-04T13:39:53.982Z</time></trkpt><trkpt lat="44.7179083" lon="9.8850583"><ele>666.0</ele><time>2026-04-04T13:39:54.983Z</time></trkpt><trkpt lat="44.7178867" lon="9.8848767"><ele>667.5</ele><time>2026-04-04T13:39:55.983Z</time></trkpt><trkpt lat="44.7178783" lon="9.8846967"><ele>669.0</ele><time>2026-04-04T13:39:56.982Z</time></trkpt><trkpt lat="44.7178617" lon="9.884525"><ele>670.5</ele><time>2026-04-04T13:39:57.982Z</time></trkpt><trkpt lat="44.7178383" lon="9.8843567"><ele>672.0</ele><time>2026-04-04T13:39:58.982Z</time></trkpt><trkpt lat="44.717825" lon="9.8841833"><ele>672.0</ele><time>2026-04-04T13:39:59.983Z</time></trkpt><trkpt lat="44.7178367" lon="9.8840283"><ele>672.0</ele><time>2026-04-04T13:40:00.982Z</time></trkpt><trkpt lat="44.7178567" lon="9.8838633"><ele>672.0</ele><time>2026-04-04T13:40:01.982Z</time></trkpt><trkpt lat="44.71789" lon="9.8837033"><ele>672.0</ele><time>2026-04-04T13:40:02.983Z</time></trkpt><trkpt lat="44.7179317" lon="9.88355"><ele>674.0</ele><time>2026-04-04T13:40:03.983Z</time></trkpt><trkpt lat="44.71798" lon="9.8833683"><ele>676.0</ele><time>2026-04-04T13:40:04.983Z</time></trkpt><trkpt lat="44.7180383" lon="9.88319"><ele>678.0</ele><time>2026-04-04T13:40:05.982Z</time></trkpt><trkpt lat="44.7180983" lon="9.882995"><ele>680.0</ele><time>2026-04-04T13:40:06.982Z</time></trkpt><trkpt lat="44.71815" lon="9.8827967"><ele>680.0</ele><time>2026-04-04T13:40:07.983Z</time></trkpt><trkpt lat="44.7182" lon="9.8825933"><ele>680.0</ele><time>2026-04-04T13:40:08.983Z</time></trkpt><trkpt lat="44.7182583" lon="9.8823967"><ele>680.0</ele><time>2026-04-04T13:40:09.983Z</time></trkpt><trkpt lat="44.7183133" lon="9.8822183"><ele>680.0</ele><time>2026-04-04T13:40:10.982Z</time></trkpt><trkpt lat="44.7183767" lon="9.8820683"><ele>680.0</ele><time>2026-04-04T13:40:11.983Z</time></trkpt><trkpt lat="44.7184583" lon="9.8819383"><ele>680.0</ele><time>2026-04-04T13:40:12.982Z</time></trkpt><trkpt lat="44.7185617" lon="9.88181"><ele>680.0</ele><time>2026-04-04T13:40:13.982Z</time></trkpt><trkpt lat="44.71867" lon="9.88168"><ele>680.0</ele><time>2026-04-04T13:40:14.983Z</time></trkpt><trkpt lat="44.718775" lon="9.8815367"><ele>677.5</ele><time>2026-04-04T13:40:15.982Z</time></trkpt><trkpt lat="44.7188717" lon="9.88138"><ele>675.0</ele><time>2026-04-04T13:40:16.982Z</time></trkpt><trkpt lat="44.71893" lon="9.881235"><ele>672.5</ele><time>2026-04-04T13:40:17.983Z</time></trkpt><trkpt lat="44.7190133" lon="9.881045"><ele>670.0</ele><time>2026-04-04T13:40:18.983Z</time></trkpt><trkpt lat="44.71908" lon="9.8808583"><ele>670.0</ele><time>2026-04-04T13:40:19.982Z</time></trkpt><trkpt lat="44.7191317" lon="9.88066"><ele>670.0</ele><time>2026-04-04T13:40:20.983Z</time></trkpt><trkpt lat="44.7191683" lon="9.8804567"><ele>670.0</ele><time>2026-04-04T13:40:21.982Z</time></trkpt><trkpt lat="44.7191917" lon="9.8802433"><ele>669.5</ele><time>2026-04-04T13:40:22.982Z</time></trkpt><trkpt lat="44.7192233" lon="9.880035"><ele>669.0</ele><time>2026-04-04T13:40:23.982Z</time></trkpt><trkpt lat="44.7192583" lon="9.87984"><ele>668.5</ele><time>2026-04-04T13:40:24.982Z</time></trkpt><trkpt lat="44.719285" lon="9.8796517"><ele>668.0</ele><time>2026-04-04T13:40:25.982Z</time></trkpt><trkpt lat="44.7193017" lon="9.8794783"><ele>668.0</ele><time>2026-04-04T13:40:26.982Z</time></trkpt><trkpt lat="44.7192917" lon="9.8792917"><ele>668.0</ele><time>2026-04-04T13:40:27.983Z</time></trkpt><trkpt lat="44.7192433" lon="9.879105"><ele>668.0</ele><time>2026-04-04T13:40:28.982Z</time></trkpt><trkpt lat="44.7191633" lon="9.8789333"><ele>668.0</ele><time>2026-04-04T13:40:29.983Z</time></trkpt><trkpt lat="44.7190767" lon="9.8787933"><ele>667.75</ele><time>2026-04-04T13:40:30.983Z</time></trkpt><trkpt lat="44.718995" lon="9.8786567"><ele>667.5</ele><time>2026-04-04T13:40:31.983Z</time></trkpt><trkpt lat="44.7189367" lon="9.8785117"><ele>667.25</ele><time>2026-04-04T13:40:32.982Z</time></trkpt><trkpt lat="44.7188967" lon="9.8783433"><ele>667.0</ele><time>2026-04-04T13:40:33.983Z</time></trkpt><trkpt lat="44.7188967" lon="9.8781483"><ele>667.0</ele><time>2026-04-04T13:40:34.982Z</time></trkpt><trkpt lat="44.71893" lon="9.8779417"><ele>667.0</ele><time>2026-04-04T13:40:35.982Z</time></trkpt><trkpt lat="44.7189683" lon="9.877725"><ele>667.0</ele><time>2026-04-04T13:40:36.983Z</time></trkpt><trkpt lat="44.7190083" lon="9.8775067"><ele>666.5</ele><time>2026-04-04T13:40:37.982Z</time></trkpt><trkpt lat="44.71904" lon="9.8772867"><ele>666.0</ele><time>2026-04-04T13:40:38.982Z</time></trkpt><trkpt lat="44.7190833" lon="9.87708"><ele>665.5</ele><time>2026-04-04T13:40:39.983Z</time></trkpt><trkpt lat="44.7191183" lon="9.876895"><ele>665.0</ele><time>2026-04-04T13:40:40.982Z</time></trkpt><trkpt lat="44.7191633" lon="9.8767233"><ele>665.0</ele><time>2026-04-04T13:40:41.983Z</time></trkpt><trkpt lat="44.719225" lon="9.87657"><ele>665.0</ele><time>2026-04-04T13:40:42.983Z</time></trkpt><trkpt lat="44.71932" lon="9.8764367"><ele>665.0</ele><time>2026-04-04T13:40:43.983Z</time></trkpt><trkpt lat="44.7194333" lon="9.8763233"><ele>665.0</ele><time>2026-04-04T13:40:44.982Z</time></trkpt><trkpt lat="44.7195433" lon="9.8762"><ele>665.0</ele><time>2026-04-04T13:40:45.983Z</time></trkpt><trkpt lat="44.7196483" lon="9.876065"><ele>665.0</ele><time>2026-04-04T13:40:46.983Z</time></trkpt><trkpt lat="44.7197467" lon="9.8759067"><ele>665.0</ele><time>2026-04-04T13:40:47.982Z</time></trkpt><trkpt lat="44.719825" lon="9.8757483"><ele>665.0</ele><time>2026-04-04T13:40:48.982Z</time></trkpt><trkpt lat="44.7198917" lon="9.8755783"><ele>665.0</ele><time>2026-04-04T13:40:49.982Z</time></trkpt><trkpt lat="44.71994" lon="9.875405"><ele>665.0</ele><time>2026-04-04T13:40:50.982Z</time></trkpt><trkpt lat="44.7199617" lon="9.87523"><ele>665.0</ele><time>2026-04-04T13:40:51.983Z</time></trkpt><trkpt lat="44.7199733" lon="9.8750667"><ele>665.0</ele><time>2026-04-04T13:40:52.983Z</time></trkpt><trkpt lat="44.7199983" lon="9.8749033"><ele>664.5</ele><time>2026-04-04T13:40:53.983Z</time></trkpt><trkpt lat="44.7200567" lon="9.8747567"><ele>664.0</ele><time>2026-04-04T13:40:54.982Z</time></trkpt><trkpt lat="44.7201583" lon="9.8746317"><ele>663.5</ele><time>2026-04-04T13:40:55.983Z</time></trkpt><trkpt lat="44.7202817" lon="9.8745167"><ele>663.0</ele><time>2026-04-04T13:40:56.983Z</time></trkpt><trkpt lat="44.72041" lon="9.8743983"><ele>662.75</ele><time>2026-04-04T13:40:57.983Z</time></trkpt><trkpt lat="44.7205283" lon="9.8742767"><ele>662.5</ele><time>2026-04-04T13:40:58.982Z</time></trkpt><trkpt lat="44.720625" lon="9.8741533"><ele>662.25</ele><time>2026-04-04T13:40:59.982Z</time></trkpt><trkpt lat="44.720705" lon="9.8739967"><ele>662.0</ele><time>2026-04-04T13:41:00.982Z</time></trkpt><trkpt lat="44.720765" lon="9.8738117"><ele>662.0</ele><time>2026-04-04T13:41:01.983Z</time></trkpt><trkpt lat="44.7208067" lon="9.8736117"><ele>662.0</ele><time>2026-04-04T13:41:02.982Z</time></trkpt><trkpt lat="44.7208367" lon="9.8734033"><ele>662.0</ele><time>2026-04-04T13:41:03.982Z</time></trkpt><trkpt lat="44.72086" lon="9.8732033"><ele>662.0</ele><time>2026-04-04T13:41:04.982Z</time></trkpt><trkpt lat="44.72087" lon="9.8730067"><ele>662.0</ele><time>2026-04-04T13:41:05.982Z</time></trkpt><trkpt lat="44.7208783" lon="9.8728233"><ele>662.0</ele><time>2026-04-04T13:41:06.982Z</time></trkpt><trkpt lat="44.7208667" lon="9.8726483"><ele>662.0</ele><time>2026-04-04T13:41:07.982Z</time></trkpt><trkpt lat="44.7208367" lon="9.8724667"><ele>662.0</ele><time>2026-04-04T13:41:08.982Z</time></trkpt><trkpt lat="44.72079" lon="9.872285"><ele>662.5</ele><time>2026-04-04T13:41:09.983Z</time></trkpt><trkpt lat="44.72073" lon="9.872105"><ele>663.0</ele><time>2026-04-04T13:41:10.983Z</time></trkpt><trkpt lat="44.720655" lon="9.871955"><ele>663.5</ele><time>2026-04-04T13:41:11.983Z</time></trkpt><trkpt lat="44.720605" lon="9.8717933"><ele>664.0</ele><time>2026-04-04T13:41:12.982Z</time></trkpt><trkpt lat="44.7205583" lon="9.8716"><ele>665.5</ele><time>2026-04-04T13:41:13.982Z</time></trkpt><trkpt lat="44.7205317" lon="9.8714017"><ele>667.0</ele><time>2026-04-04T13:41:14.983Z</time></trkpt><trkpt lat="44.7205133" lon="9.8712067"><ele>668.5</ele><time>2026-04-04T13:41:15.983Z</time></trkpt><trkpt lat="44.7204933" lon="9.8710067"><ele>670.0</ele><time>2026-04-04T13:41:16.982Z</time></trkpt><trkpt lat="44.720515" lon="9.8708183"><ele>671.25</ele><time>2026-04-04T13:41:17.983Z</time></trkpt><trkpt lat="44.720555" lon="9.8706267"><ele>672.5</ele><time>2026-04-04T13:41:18.982Z</time></trkpt><trkpt lat="44.7205783" lon="9.8704333"><ele>673.75</ele><time>2026-04-04T13:41:19.982Z</time></trkpt><trkpt lat="44.72059" lon="9.8702417"><ele>675.0</ele><time>2026-04-04T13:41:20.983Z</time></trkpt><trkpt lat="44.7205733" lon="9.8700583"><ele>677.25</ele><time>2026-04-04T13:41:21.983Z</time></trkpt><trkpt lat="44.7205167" lon="9.8698867"><ele>679.5</ele><time>2026-04-04T13:41:22.982Z</time></trkpt><trkpt lat="44.720425" lon="9.8697317"><ele>681.75</ele><time>2026-04-04T13:41:23.983Z</time></trkpt><trkpt lat="44.7203283" lon="9.869575"><ele>684.0</ele><time>2026-04-04T13:41:24.982Z</time></trkpt><trkpt lat="44.7202533" lon="9.8693983"><ele>680.6666666666666</ele><time>2026-04-04T13:41:25.983Z</time></trkpt><trkpt lat="44.7202033" lon="9.8691833"><ele>677.3333333333333</ele><time>2026-04-04T13:41:26.983Z</time></trkpt><trkpt lat="44.720145" lon="9.8689633"><ele>674.0</ele><time>2026-04-04T13:41:27.983Z</time></trkpt><trkpt lat="44.7200733" lon="9.8687417"><ele>674.0</ele><time>2026-04-04T13:41:28.983Z</time></trkpt><trkpt lat="44.7200033" lon="9.868535"><ele>674.0</ele><time>2026-04-04T13:41:29.983Z</time></trkpt><trkpt lat="44.71996" lon="9.86832"><ele>674.0</ele><time>2026-04-04T13:41:30.982Z</time></trkpt><trkpt lat="44.71991" lon="9.8680717"><ele>677.0</ele><time>2026-04-04T13:41:31.982Z</time></trkpt><trkpt lat="44.7198767" lon="9.8678167"><ele>680.0</ele><time>2026-04-04T13:41:32.982Z</time></trkpt><trkpt lat="44.7198317" lon="9.8675683"><ele>683.0</ele><time>2026-04-04T13:41:33.983Z</time></trkpt><trkpt lat="44.7197917" lon="9.8673317"><ele>686.0</ele><time>2026-04-04T13:41:34.982Z</time></trkpt><trkpt lat="44.7197517" lon="9.867105"><ele>689.0</ele><time>2026-04-04T13:41:35.982Z</time></trkpt><trkpt lat="44.7197" lon="9.8668817"><ele>692.0</ele><time>2026-04-04T13:41:36.983Z</time></trkpt><trkpt lat="44.7196617" lon="9.8666633"><ele>693.0</ele><time>2026-04-04T13:41:37.983Z</time></trkpt><trkpt lat="44.7196217" lon="9.8664517"><ele>694.0</ele><time>2026-04-04T13:41:38.983Z</time></trkpt><trkpt lat="44.719565" lon="9.8662667"><ele>695.0</ele><time>2026-04-04T13:41:39.983Z</time></trkpt><trkpt lat="44.7194967" lon="9.8661017"><ele>696.0</ele><time>2026-04-04T13:41:40.982Z</time></trkpt><trkpt lat="44.7194333" lon="9.865945"><ele>688.6666666666666</ele><time>2026-04-04T13:41:41.982Z</time></trkpt><trkpt lat="44.71939" lon="9.8657533"><ele>681.3333333333333</ele><time>2026-04-04T13:41:42.982Z</time></trkpt><trkpt lat="44.7193667" lon="9.8655367"><ele>674.0</ele><time>2026-04-04T13:41:43.982Z</time></trkpt><trkpt lat="44.71937" lon="9.8653233"><ele>680.3333333333333</ele><time>2026-04-04T13:41:44.982Z</time></trkpt><trkpt lat="44.7194083" lon="9.8651017"><ele>686.6666666666666</ele><time>2026-04-04T13:41:45.982Z</time></trkpt><trkpt lat="44.7194517" lon="9.8648833"><ele>693.0</ele><time>2026-04-04T13:41:46.983Z</time></trkpt><trkpt lat="44.719485" lon="9.8646883"><ele>693.0</ele><time>2026-04-04T13:41:47.982Z</time></trkpt><trkpt lat="44.71952" lon="9.8645117"><ele>693.0</ele><time>2026-04-04T13:41:48.982Z</time></trkpt><trkpt lat="44.71956" lon="9.864335"><ele>693.0</ele><time>2026-04-04T13:41:49.982Z</time></trkpt><trkpt lat="44.7195833" lon="9.86415"><ele>693.0</ele><time>2026-04-04T13:41:50.983Z</time></trkpt><trkpt lat="44.7196183" lon="9.8639783"><ele>692.8</ele><time>2026-04-04T13:41:51.983Z</time></trkpt><trkpt lat="44.7196467" lon="9.8638167"><ele>692.5999999999999</ele><time>2026-04-04T13:41:52.983Z</time></trkpt><trkpt lat="44.7196733" lon="9.8636633"><ele>692.4000000000001</ele><time>2026-04-04T13:41:53.982Z</time></trkpt><trkpt lat="44.7196933" lon="9.863525"><ele>692.2</ele><time>2026-04-04T13:41:54.983Z</time></trkpt><trkpt lat="44.7197183" lon="9.8633867"><ele>692.0</ele><time>2026-04-04T13:41:55.983Z</time></trkpt><trkpt lat="44.7197517" lon="9.8632567"><ele>692.0</ele><time>2026-04-04T13:41:56.982Z</time></trkpt><trkpt lat="44.7197867" lon="9.863115"><ele>692.0</ele><time>2026-04-04T13:41:57.982Z</time></trkpt><trkpt lat="44.7198317" lon="9.8629883"><ele>692.0</ele><time>2026-04-04T13:41:58.982Z</time></trkpt><trkpt lat="44.71988" lon="9.8628667"><ele>692.0</ele><time>2026-04-04T13:41:59.982Z</time></trkpt><trkpt lat="44.7199383" lon="9.8627617"><ele>692.0</ele><time>2026-04-04T13:42:00.983Z</time></trkpt><trkpt lat="44.7199933" lon="9.8626717"><ele>692.0</ele><time>2026-04-04T13:42:01.982Z</time></trkpt><trkpt lat="44.7200417" lon="9.8626033"><ele>692.0</ele><time>2026-04-04T13:42:02.982Z</time></trkpt><trkpt lat="44.72012" lon="9.8625683"><ele>692.0</ele><time>2026-04-04T13:42:04.982Z</time></trkpt><trkpt lat="44.7202167" lon="9.8626717"><ele>692.0</ele><time>2026-04-04T13:42:06.983Z</time></trkpt><trkpt lat="44.7202817" lon="9.8627617"><ele>692.0</ele><time>2026-04-04T13:42:07.982Z</time></trkpt><trkpt lat="44.7203517" lon="9.8628667"><ele>692.2</ele><time>2026-04-04T13:42:08.982Z</time></trkpt><trkpt lat="44.7204383" lon="9.8629467"><ele>692.4000000000001</ele><time>2026-04-04T13:42:09.983Z</time></trkpt><trkpt lat="44.7205233" lon="9.8630217"><ele>692.5999999999999</ele><time>2026-04-04T13:42:10.982Z</time></trkpt><trkpt lat="44.7206167" lon="9.86307"><ele>692.8</ele><time>2026-04-04T13:42:11.983Z</time></trkpt><trkpt lat="44.7207217" lon="9.8630933"><ele>693.0</ele><time>2026-04-04T13:42:12.982Z</time></trkpt><trkpt lat="44.7208217" lon="9.8630817"><ele>693.0</ele><time>2026-04-04T13:42:13.982Z</time></trkpt><trkpt lat="44.7209333" lon="9.8630433"><ele>693.0</ele><time>2026-04-04T13:42:14.982Z</time></trkpt><trkpt lat="44.7210583" lon="9.8629817"><ele>693.0</ele><time>2026-04-04T13:42:15.982Z</time></trkpt><trkpt lat="44.7211833" lon="9.8629083"><ele>693.0</ele><time>2026-04-04T13:42:16.982Z</time></trkpt><trkpt lat="44.7213133" lon="9.86283"><ele>692.5</ele><time>2026-04-04T13:42:17.982Z</time></trkpt><trkpt lat="44.721445" lon="9.86276"><ele>692.0</ele><time>2026-04-04T13:42:18.982Z</time></trkpt><trkpt lat="44.72158" lon="9.86268"><ele>691.5</ele><time>2026-04-04T13:42:19.982Z</time></trkpt><trkpt lat="44.7217117" lon="9.86261"><ele>691.0</ele><time>2026-04-04T13:42:20.983Z</time></trkpt><trkpt lat="44.7218433" lon="9.8625433"><ele>689.75</ele><time>2026-04-04T13:42:21.982Z</time></trkpt><trkpt lat="44.7219767" lon="9.86248"><ele>688.5</ele><time>2026-04-04T13:42:22.982Z</time></trkpt><trkpt lat="44.7220983" lon="9.8624183"><ele>687.25</ele><time>2026-04-04T13:42:23.982Z</time></trkpt><trkpt lat="44.7222183" lon="9.8623533"><ele>686.0</ele><time>2026-04-04T13:42:24.983Z</time></trkpt><trkpt lat="44.7223433" lon="9.862275"><ele>686.0</ele><time>2026-04-04T13:42:25.982Z</time></trkpt><trkpt lat="44.72246" lon="9.862195"><ele>686.0</ele><time>2026-04-04T13:42:26.983Z</time></trkpt><trkpt lat="44.7225517" lon="9.862095"><ele>686.0</ele><time>2026-04-04T13:42:27.982Z</time></trkpt><trkpt lat="44.7226317" lon="9.861965"><ele>686.0</ele><time>2026-04-04T13:42:28.983Z</time></trkpt><trkpt lat="44.7227033" lon="9.8618233"><ele>685.0</ele><time>2026-04-04T13:42:29.983Z</time></trkpt><trkpt lat="44.7227747" lon="9.8616604"><ele>684.0</ele><time>2026-04-04T13:42:30.983Z</time></trkpt><trkpt lat="44.7228353" lon="9.8614915"><ele>683.0</ele><time>2026-04-04T13:42:31.983Z</time></trkpt><trkpt lat="44.7228976" lon="9.8613204"><ele>682.0</ele><time>2026-04-04T13:42:32.983Z</time></trkpt><trkpt lat="44.7229713" lon="9.861146"><ele>682.0</ele><time>2026-04-04T13:42:33.982Z</time></trkpt><trkpt lat="44.7230499" lon="9.8609747"><ele>682.0</ele><time>2026-04-04T13:42:34.983Z</time></trkpt><trkpt lat="44.7231311" lon="9.8608116"><ele>682.0</ele><time>2026-04-04T13:42:35.983Z</time></trkpt><trkpt lat="44.723211" lon="9.8606584"><ele>682.0</ele><time>2026-04-04T13:42:36.982Z</time></trkpt><trkpt lat="44.7232945" lon="9.8605188"><ele>682.0</ele><time>2026-04-04T13:42:37.982Z</time></trkpt><trkpt lat="44.7233848" lon="9.8603926"><ele>682.0</ele><time>2026-04-04T13:42:38.982Z</time></trkpt><trkpt lat="44.7234885" lon="9.8602985"><ele>682.0</ele><time>2026-04-04T13:42:39.982Z</time></trkpt><trkpt lat="44.7236113" lon="9.8602313"><ele>682.0</ele><time>2026-04-04T13:42:40.982Z</time></trkpt><trkpt lat="44.7237453" lon="9.8601773"><ele>681.5</ele><time>2026-04-04T13:42:41.983Z</time></trkpt><trkpt lat="44.7238887" lon="9.860127"><ele>681.0</ele><time>2026-04-04T13:42:42.982Z</time></trkpt><trkpt lat="44.7240306" lon="9.8600756"><ele>680.5</ele><time>2026-04-04T13:42:43.983Z</time></trkpt><trkpt lat="44.7241616" lon="9.8600169"><ele>680.0</ele><time>2026-04-04T13:42:44.982Z</time></trkpt><trkpt lat="44.7242852" lon="9.8599557"><ele>680.0</ele><time>2026-04-04T13:42:45.982Z</time></trkpt><trkpt lat="44.7244087" lon="9.859909"><ele>680.0</ele><time>2026-04-04T13:42:46.982Z</time></trkpt><trkpt lat="44.7245458" lon="9.8598973"><ele>680.0</ele><time>2026-04-04T13:42:47.983Z</time></trkpt><trkpt lat="44.7246855" lon="9.8599185"><ele>680.0</ele><time>2026-04-04T13:42:48.982Z</time></trkpt><trkpt lat="44.7248232" lon="9.8599683"><ele>680.0</ele><time>2026-04-04T13:42:49.982Z</time></trkpt><trkpt lat="44.7249609" lon="9.8600333"><ele>680.0</ele><time>2026-04-04T13:42:50.983Z</time></trkpt><trkpt lat="44.7251003" lon="9.8601108"><ele>680.0</ele><time>2026-04-04T13:42:51.982Z</time></trkpt><trkpt lat="44.725241" lon="9.8601808"><ele>680.0</ele><time>2026-04-04T13:42:52.982Z</time></trkpt><trkpt lat="44.7253854" lon="9.8602568"><ele>678.75</ele><time>2026-04-04T13:42:53.982Z</time></trkpt><trkpt lat="44.725522" lon="9.8603389"><ele>677.5</ele><time>2026-04-04T13:42:54.982Z</time></trkpt><trkpt lat="44.72565" lon="9.8604165"><ele>676.25</ele><time>2026-04-04T13:42:55.982Z</time></trkpt><trkpt lat="44.7257713" lon="9.860486"><ele>675.0</ele><time>2026-04-04T13:42:56.982Z</time></trkpt><trkpt lat="44.725899" lon="9.8605351"><ele>675.0</ele><time>2026-04-04T13:42:57.983Z</time></trkpt><trkpt lat="44.7260259" lon="9.8605645"><ele>675.0</ele><time>2026-04-04T13:42:58.982Z</time></trkpt><trkpt lat="44.7261549" lon="9.8605722"><ele>675.0</ele><time>2026-04-04T13:42:59.982Z</time></trkpt><trkpt lat="44.7262921" lon="9.8605619"><ele>675.0</ele><time>2026-04-04T13:43:00.982Z</time></trkpt><trkpt lat="44.7264348" lon="9.8605387"><ele>674.5</ele><time>2026-04-04T13:43:01.982Z</time></trkpt><trkpt lat="44.7265742" lon="9.8605216"><ele>674.0</ele><time>2026-04-04T13:43:02.983Z</time></trkpt><trkpt lat="44.7267108" lon="9.8605053"><ele>673.5</ele><time>2026-04-04T13:43:03.982Z</time></trkpt><trkpt lat="44.7268291" lon="9.8604833"><ele>673.0</ele><time>2026-04-04T13:43:04.982Z</time></trkpt><trkpt lat="44.7269574" lon="9.8604337"><ele>671.0</ele><time>2026-04-04T13:43:05.982Z</time></trkpt><trkpt lat="44.7270583" lon="9.8603521"><ele>669.0</ele><time>2026-04-04T13:43:06.983Z</time></trkpt><trkpt lat="44.7271566" lon="9.8602434"><ele>667.0</ele><time>2026-04-04T13:43:07.983Z</time></trkpt><trkpt lat="44.7272539" lon="9.860133"><ele>665.0</ele><time>2026-04-04T13:43:08.982Z</time></trkpt><trkpt lat="44.7273543" lon="9.8600456"><ele>667.75</ele><time>2026-04-04T13:43:09.982Z</time></trkpt><trkpt lat="44.7274638" lon="9.8599848"><ele>670.5</ele><time>2026-04-04T13:43:10.982Z</time></trkpt><trkpt lat="44.7275971" lon="9.8599664"><ele>673.25</ele><time>2026-04-04T13:43:11.982Z</time></trkpt><trkpt lat="44.7277344" lon="9.8599799"><ele>676.0</ele><time>2026-04-04T13:43:12.983Z</time></trkpt><trkpt lat="44.7278577" lon="9.8599823"><ele>676.0</ele><time>2026-04-04T13:43:13.983Z</time></trkpt><trkpt lat="44.7279673" lon="9.8599586"><ele>676.0</ele><time>2026-04-04T13:43:14.982Z</time></trkpt><trkpt lat="44.7280695" lon="9.8599046"><ele>676.0</ele><time>2026-04-04T13:43:15.982Z</time></trkpt><trkpt lat="44.7281706" lon="9.8598122"><ele>676.0</ele><time>2026-04-04T13:43:16.982Z</time></trkpt><trkpt lat="44.7282791" lon="9.8596946"><ele>676.0</ele><time>2026-04-04T13:43:17.982Z</time></trkpt><trkpt lat="44.728405" lon="9.8595615"><ele>676.0</ele><time>2026-04-04T13:43:18.983Z</time></trkpt><trkpt lat="44.7285368" lon="9.8594234"><ele>676.0</ele><time>2026-04-04T13:43:19.983Z</time></trkpt><trkpt lat="44.7286691" lon="9.8592817"><ele>678.3333333333334</ele><time>2026-04-04T13:43:20.982Z</time></trkpt><trkpt lat="44.728798" lon="9.8591396"><ele>680.6666666666666</ele><time>2026-04-04T13:43:21.983Z</time></trkpt><trkpt lat="44.728921" lon="9.8590015"><ele>683.0</ele><time>2026-04-04T13:43:22.982Z</time></trkpt><trkpt lat="44.7290352" lon="9.8588829"><ele>683.0</ele><time>2026-04-04T13:43:23.983Z</time></trkpt><trkpt lat="44.7291554" lon="9.8587945"><ele>683.0</ele><time>2026-04-04T13:43:24.982Z</time></trkpt><trkpt lat="44.7292812" lon="9.8587367"><ele>683.0</ele><time>2026-04-04T13:43:25.982Z</time></trkpt><trkpt lat="44.7294051" lon="9.858704"><ele>683.0</ele><time>2026-04-04T13:43:26.982Z</time></trkpt><trkpt lat="44.7295161" lon="9.8587028"><ele>683.75</ele><time>2026-04-04T13:43:27.982Z</time></trkpt><trkpt lat="44.7296215" lon="9.8587313"><ele>684.5</ele><time>2026-04-04T13:43:28.982Z</time></trkpt><trkpt lat="44.7297317" lon="9.8588011"><ele>685.25</ele><time>2026-04-04T13:43:29.983Z</time></trkpt><trkpt lat="44.7298454" lon="9.8588945"><ele>686.0</ele><time>2026-04-04T13:43:30.983Z</time></trkpt><trkpt lat="44.7299727" lon="9.8589883"><ele>686.0</ele><time>2026-04-04T13:43:31.982Z</time></trkpt><trkpt lat="44.7301127" lon="9.859077"><ele>686.0</ele><time>2026-04-04T13:43:32.982Z</time></trkpt><trkpt lat="44.7302555" lon="9.8591586"><ele>686.0</ele><time>2026-04-04T13:43:33.982Z</time></trkpt><trkpt lat="44.7304021" lon="9.8592523"><ele>686.0</ele><time>2026-04-04T13:43:34.982Z</time></trkpt><trkpt lat="44.7305431" lon="9.8593588"><ele>686.0</ele><time>2026-04-04T13:43:35.983Z</time></trkpt><trkpt lat="44.7306811" lon="9.8594696"><ele>686.0</ele><time>2026-04-04T13:43:36.982Z</time></trkpt><trkpt lat="44.7308129" lon="9.8595782"><ele>686.0</ele><time>2026-04-04T13:43:37.983Z</time></trkpt><trkpt lat="44.7309486" lon="9.859692"><ele>686.0</ele><time>2026-04-04T13:43:38.983Z</time></trkpt><trkpt lat="44.7310799" lon="9.8598099"><ele>686.0</ele><time>2026-04-04T13:43:39.983Z</time></trkpt><trkpt lat="44.7312179" lon="9.8599228"><ele>687.5</ele><time>2026-04-04T13:43:40.982Z</time></trkpt><trkpt lat="44.7313587" lon="9.8600314"><ele>689.0</ele><time>2026-04-04T13:43:41.982Z</time></trkpt><trkpt lat="44.7314892" lon="9.8601324"><ele>690.5</ele><time>2026-04-04T13:43:42.982Z</time></trkpt><trkpt lat="44.7316027" lon="9.8602389"><ele>692.0</ele><time>2026-04-04T13:43:43.983Z</time></trkpt><trkpt lat="44.73169" lon="9.8603678"><ele>691.2</ele><time>2026-04-04T13:43:44.982Z</time></trkpt><trkpt lat="44.7317683" lon="9.8605099"><ele>690.4000000000001</ele><time>2026-04-04T13:43:45.982Z</time></trkpt><trkpt lat="44.7318273" lon="9.8606422"><ele>689.5999999999999</ele><time>2026-04-04T13:43:46.982Z</time></trkpt><trkpt lat="44.7318794" lon="9.8607463"><ele>688.8</ele><time>2026-04-04T13:43:47.983Z</time></trkpt><trkpt lat="44.7319529" lon="9.8608198"><ele>688.0</ele><time>2026-04-04T13:43:48.982Z</time></trkpt><trkpt lat="44.73205" lon="9.8608681"><ele>688.0</ele><time>2026-04-04T13:43:49.982Z</time></trkpt><trkpt lat="44.7321701" lon="9.8609018"><ele>688.0</ele><time>2026-04-04T13:43:50.983Z</time></trkpt><trkpt lat="44.7322988" lon="9.8609357"><ele>688.0</ele><time>2026-04-04T13:43:51.982Z</time></trkpt><trkpt lat="44.7324361" lon="9.8609788"><ele>688.0</ele><time>2026-04-04T13:43:52.983Z</time></trkpt><trkpt lat="44.7325655" lon="9.861022"><ele>685.5</ele><time>2026-04-04T13:43:53.982Z</time></trkpt><trkpt lat="44.7326912" lon="9.8610717"><ele>683.0</ele><time>2026-04-04T13:43:54.983Z</time></trkpt><trkpt lat="44.7328126" lon="9.8611293"><ele>680.5</ele><time>2026-04-04T13:43:55.982Z</time></trkpt><trkpt lat="44.7329356" lon="9.8611958"><ele>678.0</ele><time>2026-04-04T13:43:56.983Z</time></trkpt><trkpt lat="44.7330635" lon="9.8612849"><ele>678.0</ele><time>2026-04-04T13:43:57.982Z</time></trkpt><trkpt lat="44.7331807" lon="9.8614149"><ele>678.0</ele><time>2026-04-04T13:43:58.982Z</time></trkpt><trkpt lat="44.7332893" lon="9.8615651"><ele>678.0</ele><time>2026-04-04T13:43:59.983Z</time></trkpt><trkpt lat="44.7333884" lon="9.861728"><ele>676.5</ele><time>2026-04-04T13:44:00.983Z</time></trkpt><trkpt lat="44.7334839" lon="9.8618887"><ele>675.0</ele><time>2026-04-04T13:44:01.982Z</time></trkpt><trkpt lat="44.7335697" lon="9.8620364"><ele>673.5</ele><time>2026-04-04T13:44:02.983Z</time></trkpt><trkpt lat="44.733642" lon="9.8621627"><ele>672.0</ele><time>2026-04-04T13:44:03.982Z</time></trkpt><trkpt lat="44.7337051" lon="9.86226"><ele>672.0</ele><time>2026-04-04T13:44:04.982Z</time></trkpt><trkpt lat="44.733756" lon="9.8623427"><ele>672.0</ele><time>2026-04-04T13:44:05.982Z</time></trkpt><trkpt lat="44.7338454" lon="9.8624556"><ele>672.0</ele><time>2026-04-04T13:44:07.983Z</time></trkpt><trkpt lat="44.7339779" lon="9.8624735"><ele>672.0</ele><time>2026-04-04T13:44:09.982Z</time></trkpt><trkpt lat="44.7340504" lon="9.8624336"><ele>672.0</ele><time>2026-04-04T13:44:10.983Z</time></trkpt><trkpt lat="44.7341289" lon="9.8623625"><ele>672.0</ele><time>2026-04-04T13:44:11.983Z</time></trkpt><trkpt lat="44.7342118" lon="9.8622536"><ele>672.0</ele><time>2026-04-04T13:44:12.982Z</time></trkpt><trkpt lat="44.7342947" lon="9.8621332"><ele>672.0</ele><time>2026-04-04T13:44:13.982Z</time></trkpt><trkpt lat="44.73438" lon="9.862012"><ele>672.0</ele><time>2026-04-04T13:44:14.982Z</time></trkpt><trkpt lat="44.7344675" lon="9.8618942"><ele>672.25</ele><time>2026-04-04T13:44:15.982Z</time></trkpt><trkpt lat="44.7345604" lon="9.8617843"><ele>672.5</ele><time>2026-04-04T13:44:16.983Z</time></trkpt><trkpt lat="44.7346493" lon="9.8616799"><ele>672.75</ele><time>2026-04-04T13:44:17.983Z</time></trkpt><trkpt lat="44.734732" lon="9.8615728"><ele>673.0</ele><time>2026-04-04T13:44:18.983Z</time></trkpt><trkpt lat="44.7348127" lon="9.8614699"><ele>674.8</ele><time>2026-04-04T13:44:19.982Z</time></trkpt><trkpt lat="44.734886" lon="9.8613745"><ele>676.5999999999999</ele><time>2026-04-04T13:44:20.982Z</time></trkpt><trkpt lat="44.7349588" lon="9.8612906"><ele>678.4000000000001</ele><time>2026-04-04T13:44:21.982Z</time></trkpt><trkpt lat="44.7350222" lon="9.8612232"><ele>680.2</ele><time>2026-04-04T13:44:22.982Z</time></trkpt><trkpt lat="44.7350765" lon="9.8611631"><ele>682.0</ele><time>2026-04-04T13:44:23.982Z</time></trkpt><trkpt lat="44.7351654" lon="9.8610779"><ele>682.0</ele><time>2026-04-04T13:44:25.983Z</time></trkpt><trkpt lat="44.7352105" lon="9.8610104"><ele>682.0</ele><time>2026-04-04T13:44:27.983Z</time></trkpt><trkpt lat="44.7352551" lon="9.8608482"><ele>682.0</ele><time>2026-04-04T13:45:09.983Z</time></trkpt><trkpt lat="44.7352884" lon="9.8607499"><ele>682.0</ele><time>2026-04-04T13:45:10.983Z</time></trkpt><trkpt lat="44.7353176" lon="9.860645"><ele>682.0</ele><time>2026-04-04T13:45:11.982Z</time></trkpt><trkpt lat="44.7353466" lon="9.8605335"><ele>682.0</ele><time>2026-04-04T13:45:12.982Z</time></trkpt><trkpt lat="44.7353772" lon="9.8604231"><ele>681.8571428571429</ele><time>2026-04-04T13:45:13.983Z</time></trkpt><trkpt lat="44.7354231" lon="9.8603366"><ele>681.7142857142858</ele><time>2026-04-04T13:45:14.983Z</time></trkpt><trkpt lat="44.7354764" lon="9.8602666"><ele>681.5714285714287</ele><time>2026-04-04T13:45:15.983Z</time></trkpt><trkpt lat="44.7355377" lon="9.8602068"><ele>681.4285714285714</ele><time>2026-04-04T13:45:16.982Z</time></trkpt><trkpt lat="44.7355961" lon="9.8601569"><ele>681.2857142857143</ele><time>2026-04-04T13:45:17.982Z</time></trkpt><trkpt lat="44.735657" lon="9.860122"><ele>681.1428571428572</ele><time>2026-04-04T13:45:18.982Z</time></trkpt><trkpt lat="44.7357212" lon="9.8600975"><ele>681.0</ele><time>2026-04-04T13:45:19.982Z</time></trkpt><trkpt lat="44.7357985" lon="9.8600825"><ele>682.0</ele><time>2026-04-04T13:45:20.982Z</time></trkpt><trkpt lat="44.7358894" lon="9.8600686"><ele>683.0</ele><time>2026-04-04T13:45:21.982Z</time></trkpt><trkpt lat="44.7359905" lon="9.8600642"><ele>684.0</ele><time>2026-04-04T13:45:22.982Z</time></trkpt><trkpt lat="44.7361067" lon="9.8600582"><ele>685.0</ele><time>2026-04-04T13:45:23.982Z</time></trkpt><trkpt lat="44.7362166" lon="9.860043"><ele>686.0</ele><time>2026-04-04T13:45:24.982Z</time></trkpt><trkpt lat="44.7363248" lon="9.8600158"><ele>683.25</ele><time>2026-04-04T13:45:25.983Z</time></trkpt><trkpt lat="44.7364295" lon="9.8599884"><ele>680.5</ele><time>2026-04-04T13:45:26.982Z</time></trkpt><trkpt lat="44.7365361" lon="9.859972"><ele>677.75</ele><time>2026-04-04T13:45:27.983Z</time></trkpt><trkpt lat="44.7366535" lon="9.8599673"><ele>675.0</ele><time>2026-04-04T13:45:28.982Z</time></trkpt><trkpt lat="44.7367805" lon="9.8599866"><ele>673.25</ele><time>2026-04-04T13:45:29.983Z</time></trkpt><trkpt lat="44.7369146" lon="9.8600205"><ele>671.5</ele><time>2026-04-04T13:45:30.982Z</time></trkpt><trkpt lat="44.7370617" lon="9.8600606"><ele>669.75</ele><time>2026-04-04T13:45:31.982Z</time></trkpt><trkpt lat="44.737217" lon="9.8601034"><ele>668.0</ele><time>2026-04-04T13:45:32.983Z</time></trkpt><trkpt lat="44.7373739" lon="9.8601391"><ele>668.3333333333333</ele><time>2026-04-04T13:45:33.983Z</time></trkpt><trkpt lat="44.7375349" lon="9.8601677"><ele>668.6666666666666</ele><time>2026-04-04T13:45:34.982Z</time></trkpt><trkpt lat="44.7376845" lon="9.8601846"><ele>669.0</ele><time>2026-04-04T13:45:35.982Z</time></trkpt><trkpt lat="44.7378237" lon="9.8602068"><ele>669.0</ele><time>2026-04-04T13:45:36.983Z</time></trkpt><trkpt lat="44.7379417" lon="9.8602283"><ele>669.0</ele><time>2026-04-04T13:45:37.983Z</time></trkpt><trkpt lat="44.7380545" lon="9.860265"><ele>669.0</ele><time>2026-04-04T13:45:38.982Z</time></trkpt><trkpt lat="44.7381671" lon="9.860325"><ele>669.0</ele><time>2026-04-04T13:45:39.982Z</time></trkpt><trkpt lat="44.7382912" lon="9.8604109"><ele>669.0</ele><time>2026-04-04T13:45:40.982Z</time></trkpt><trkpt lat="44.7384192" lon="9.8605073"><ele>669.0</ele><time>2026-04-04T13:45:41.982Z</time></trkpt><trkpt lat="44.7385589" lon="9.8605892"><ele>669.0</ele><time>2026-04-04T13:45:42.982Z</time></trkpt><trkpt lat="44.7387057" lon="9.8606492"><ele>669.0</ele><time>2026-04-04T13:45:43.982Z</time></trkpt><trkpt lat="44.7388539" lon="9.8606949"><ele>667.6666666666666</ele><time>2026-04-04T13:45:44.983Z</time></trkpt><trkpt lat="44.7390102" lon="9.8607307"><ele>666.3333333333333</ele><time>2026-04-04T13:45:45.982Z</time></trkpt><trkpt lat="44.7391658" lon="9.8607599"><ele>665.0</ele><time>2026-04-04T13:45:46.983Z</time></trkpt><trkpt lat="44.7393175" lon="9.8607863"><ele>664.3333333333333</ele><time>2026-04-04T13:45:47.982Z</time></trkpt><trkpt lat="44.7394681" lon="9.8608185"><ele>663.6666666666666</ele><time>2026-04-04T13:45:48.982Z</time></trkpt><trkpt lat="44.7396174" lon="9.8608625"><ele>663.0</ele><time>2026-04-04T13:45:49.983Z</time></trkpt><trkpt lat="44.7397726" lon="9.8609028"><ele>661.6666666666666</ele><time>2026-04-04T13:45:50.982Z</time></trkpt><trkpt lat="44.739932" lon="9.860956"><ele>660.3333333333333</ele><time>2026-04-04T13:45:51.982Z</time></trkpt><trkpt lat="44.7401009" lon="9.8610231"><ele>659.0</ele><time>2026-04-04T13:45:52.983Z</time></trkpt><trkpt lat="44.740267" lon="9.8610866"><ele>662.5</ele><time>2026-04-04T13:45:53.982Z</time></trkpt><trkpt lat="44.740425" lon="9.8611422"><ele>666.0</ele><time>2026-04-04T13:45:54.983Z</time></trkpt><trkpt lat="44.740569" lon="9.8611878"><ele>669.5</ele><time>2026-04-04T13:45:55.982Z</time></trkpt><trkpt lat="44.7406941" lon="9.8612238"><ele>673.0</ele><time>2026-04-04T13:45:56.982Z</time></trkpt><trkpt lat="44.7408004" lon="9.8612622"><ele>673.0</ele><time>2026-04-04T13:45:57.982Z</time></trkpt><trkpt lat="44.7408944" lon="9.8613155"><ele>673.0</ele><time>2026-04-04T13:45:58.982Z</time></trkpt><trkpt lat="44.7409707" lon="9.8613857"><ele>673.0</ele><time>2026-04-04T13:45:59.982Z</time></trkpt><trkpt lat="44.7410379" lon="9.8614716"><ele>673.0</ele><time>2026-04-04T13:46:00.982Z</time></trkpt><trkpt lat="44.7410982" lon="9.8615715"><ele>673.0</ele><time>2026-04-04T13:46:01.982Z</time></trkpt><trkpt lat="44.7411393" lon="9.8616733"><ele>675.8</ele><time>2026-04-04T13:46:02.982Z</time></trkpt><trkpt lat="44.7411722" lon="9.861786"><ele>678.5999999999999</ele><time>2026-04-04T13:46:03.982Z</time></trkpt><trkpt lat="44.7411942" lon="9.8619055"><ele>681.4000000000001</ele><time>2026-04-04T13:46:04.983Z</time></trkpt><trkpt lat="44.7412189" lon="9.8620317"><ele>684.2</ele><time>2026-04-04T13:46:05.982Z</time></trkpt><trkpt lat="44.741245" lon="9.8621648"><ele>687.0</ele><time>2026-04-04T13:46:06.982Z</time></trkpt><trkpt lat="44.7412701" lon="9.8623009"><ele>687.0</ele><time>2026-04-04T13:46:07.983Z</time></trkpt><trkpt lat="44.7412934" lon="9.8624361"><ele>687.0</ele><time>2026-04-04T13:46:08.982Z</time></trkpt><trkpt lat="44.7413149" lon="9.8625678"><ele>687.0</ele><time>2026-04-04T13:46:09.983Z</time></trkpt><trkpt lat="44.7413297" lon="9.8627017"><ele>687.0</ele><time>2026-04-04T13:46:10.982Z</time></trkpt><trkpt lat="44.7413419" lon="9.8628188"><ele>687.0</ele><time>2026-04-04T13:46:11.982Z</time></trkpt><trkpt lat="44.741347" lon="9.8629115"><ele>687.0</ele><time>2026-04-04T13:46:12.982Z</time></trkpt><trkpt lat="44.7413534" lon="9.8630282"><ele>685.0</ele><time>2026-04-04T13:46:14.982Z</time></trkpt><trkpt lat="44.7413572" lon="9.8631434"><ele>683.0</ele><time>2026-04-04T13:46:17.983Z</time></trkpt><trkpt lat="44.7413697" lon="9.8632857"><ele>681.0</ele><time>2026-04-04T13:47:13.982Z</time></trkpt><trkpt lat="44.7413707" lon="9.8633782"><ele>679.0</ele><time>2026-04-04T13:47:14.983Z</time></trkpt><trkpt lat="44.7413722" lon="9.8634906"><ele>677.0</ele><time>2026-04-04T13:47:15.983Z</time></trkpt><trkpt lat="44.7413713" lon="9.8636118"><ele>675.0</ele><time>2026-04-04T13:47:16.982Z</time></trkpt><trkpt lat="44.7413671" lon="9.8637349"><ele>672.5</ele><time>2026-04-04T13:47:17.982Z</time></trkpt><trkpt lat="44.7413648" lon="9.8638576"><ele>670.0</ele><time>2026-04-04T13:47:18.982Z</time></trkpt><trkpt lat="44.7413734" lon="9.8639747"><ele>667.5</ele><time>2026-04-04T13:47:19.982Z</time></trkpt><trkpt lat="44.7413955" lon="9.8640879"><ele>665.0</ele><time>2026-04-04T13:47:20.982Z</time></trkpt><trkpt lat="44.7414311" lon="9.8641969"><ele>662.5</ele><time>2026-04-04T13:47:21.983Z</time></trkpt><trkpt lat="44.7414873" lon="9.8642983"><ele>660.0</ele><time>2026-04-04T13:47:22.982Z</time></trkpt><trkpt lat="44.7415576" lon="9.8643841"><ele>657.5</ele><time>2026-04-04T13:47:23.982Z</time></trkpt><trkpt lat="44.741654" lon="9.8644593"><ele>655.0</ele><time>2026-04-04T13:47:24.982Z</time></trkpt><trkpt lat="44.7417548" lon="9.8645485"><ele>652.5</ele><time>2026-04-04T13:47:25.982Z</time></trkpt><trkpt lat="44.7418586" lon="9.8646371"><ele>650.0</ele><time>2026-04-04T13:47:26.982Z</time></trkpt><trkpt lat="44.7419521" lon="9.8647381"><ele>650.0</ele><time>2026-04-04T13:47:27.982Z</time></trkpt><trkpt lat="44.7420369" lon="9.8648397"><ele>650.0</ele><time>2026-04-04T13:47:28.982Z</time></trkpt><trkpt lat="44.7421249" lon="9.8649324"><ele>650.0</ele><time>2026-04-04T13:47:29.982Z</time></trkpt><trkpt lat="44.7422088" lon="9.8650199"><ele>650.0</ele><time>2026-04-04T13:47:30.983Z</time></trkpt><trkpt lat="44.742286" lon="9.8650991"><ele>650.0</ele><time>2026-04-04T13:47:31.982Z</time></trkpt><trkpt lat="44.7423621" lon="9.8651662"><ele>647.6</ele><time>2026-04-04T13:47:32.982Z</time></trkpt><trkpt lat="44.7424491" lon="9.8652178"><ele>645.2</ele><time>2026-04-04T13:47:33.982Z</time></trkpt><trkpt lat="44.7425431" lon="9.8652527"><ele>642.8</ele><time>2026-04-04T13:47:34.983Z</time></trkpt><trkpt lat="44.7426476" lon="9.8652739"><ele>640.4</ele><time>2026-04-04T13:47:35.983Z</time></trkpt><trkpt lat="44.7427546" lon="9.8652832"><ele>638.0</ele><time>2026-04-04T13:47:36.982Z</time></trkpt><trkpt lat="44.7428607" lon="9.8652903"><ele>638.0</ele><time>2026-04-04T13:47:37.982Z</time></trkpt><trkpt lat="44.7429586" lon="9.8652945"><ele>638.0</ele><time>2026-04-04T13:47:38.982Z</time></trkpt><trkpt lat="44.7430542" lon="9.8653066"><ele>638.0</ele><time>2026-04-04T13:47:39.982Z</time></trkpt><trkpt lat="44.7431461" lon="9.8653452"><ele>638.0</ele><time>2026-04-04T13:47:40.982Z</time></trkpt><trkpt lat="44.74323" lon="9.8654136"><ele>638.0</ele><time>2026-04-04T13:47:41.982Z</time></trkpt><trkpt lat="44.743299" lon="9.8655104"><ele>638.0</ele><time>2026-04-04T13:47:42.983Z</time></trkpt><trkpt lat="44.7433579" lon="9.8656178"><ele>638.0</ele><time>2026-04-04T13:47:43.982Z</time></trkpt><trkpt lat="44.7434059" lon="9.8657307"><ele>638.0</ele><time>2026-04-04T13:47:44.982Z</time></trkpt><trkpt lat="44.7434442" lon="9.8658478"><ele>638.0</ele><time>2026-04-04T13:47:45.982Z</time></trkpt><trkpt lat="44.7434707" lon="9.8659726"><ele>638.0</ele><time>2026-04-04T13:47:46.983Z</time></trkpt><trkpt lat="44.7434763" lon="9.8661037"><ele>638.0</ele><time>2026-04-04T13:47:47.982Z</time></trkpt><trkpt lat="44.7434574" lon="9.8662296"><ele>638.0</ele><time>2026-04-04T13:47:48.982Z</time></trkpt><trkpt lat="44.7434076" lon="9.8663405"><ele>638.0</ele><time>2026-04-04T13:47:49.982Z</time></trkpt><trkpt lat="44.7433274" lon="9.8664265"><ele>638.0</ele><time>2026-04-04T13:47:50.982Z</time></trkpt><trkpt lat="44.7432319" lon="9.866498"><ele>638.0</ele><time>2026-04-04T13:47:51.982Z</time></trkpt><trkpt lat="44.7431319" lon="9.8665826"><ele>638.0</ele><time>2026-04-04T13:47:52.982Z</time></trkpt><trkpt lat="44.7430337" lon="9.8666721"><ele>638.0</ele><time>2026-04-04T13:47:53.983Z</time></trkpt><trkpt lat="44.7429457" lon="9.8667676"><ele>638.0</ele><time>2026-04-04T13:47:54.983Z</time></trkpt><trkpt lat="44.7428625" lon="9.8668603"><ele>638.0</ele><time>2026-04-04T13:47:55.982Z</time></trkpt><trkpt lat="44.7427977" lon="9.8669567"><ele>638.0</ele><time>2026-04-04T13:47:56.982Z</time></trkpt><trkpt lat="44.7427595" lon="9.8670574"><ele>638.6666666666666</ele><time>2026-04-04T13:47:57.982Z</time></trkpt><trkpt lat="44.7427437" lon="9.8671635"><ele>639.3333333333333</ele><time>2026-04-04T13:47:58.982Z</time></trkpt><trkpt lat="44.7427425" lon="9.8672812"><ele>640.0</ele><time>2026-04-04T13:47:59.982Z</time></trkpt><trkpt lat="44.7427484" lon="9.8674104"><ele>640.6666666666666</ele><time>2026-04-04T13:48:00.982Z</time></trkpt><trkpt lat="44.7427541" lon="9.8675448"><ele>641.3333333333334</ele><time>2026-04-04T13:48:01.982Z</time></trkpt><trkpt lat="44.7427511" lon="9.8676861"><ele>642.0</ele><time>2026-04-04T13:48:02.983Z</time></trkpt><trkpt lat="44.7427335" lon="9.8678261"><ele>638.0</ele><time>2026-04-04T13:48:03.982Z</time></trkpt><trkpt lat="44.7427084" lon="9.8679667"><ele>634.0</ele><time>2026-04-04T13:48:04.982Z</time></trkpt><trkpt lat="44.7426766" lon="9.8681047"><ele>630.0</ele><time>2026-04-04T13:48:05.982Z</time></trkpt><trkpt lat="44.7426356" lon="9.8682471"><ele>626.0</ele><time>2026-04-04T13:48:06.983Z</time></trkpt><trkpt lat="44.7425865" lon="9.8683856"><ele>622.0</ele><time>2026-04-04T13:48:07.982Z</time></trkpt><trkpt lat="44.7425325" lon="9.8685082"><ele>622.0</ele><time>2026-04-04T13:48:08.982Z</time></trkpt><trkpt lat="44.742486" lon="9.868623"><ele>622.0</ele><time>2026-04-04T13:48:09.983Z</time></trkpt><trkpt lat="44.7424419" lon="9.8687265"><ele>622.0</ele><time>2026-04-04T13:48:10.983Z</time></trkpt><trkpt lat="44.7424027" lon="9.8688311"><ele>622.0</ele><time>2026-04-04T13:48:11.983Z</time></trkpt><trkpt lat="44.7423715" lon="9.8689318"><ele>622.0</ele><time>2026-04-04T13:48:12.982Z</time></trkpt><trkpt lat="44.7423529" lon="9.8690394"><ele>622.0</ele><time>2026-04-04T13:48:13.983Z</time></trkpt><trkpt lat="44.7423499" lon="9.8691481"><ele>622.0</ele><time>2026-04-04T13:48:14.982Z</time></trkpt><trkpt lat="44.7423436" lon="9.8692627"><ele>622.0</ele><time>2026-04-04T13:48:15.983Z</time></trkpt><trkpt lat="44.7423309" lon="9.8693875"><ele>622.0</ele><time>2026-04-04T13:48:16.983Z</time></trkpt><trkpt lat="44.7423232" lon="9.8695172"><ele>622.0</ele><time>2026-04-04T13:48:17.983Z</time></trkpt><trkpt lat="44.7423249" lon="9.8696452"><ele>622.0</ele><time>2026-04-04T13:48:18.983Z</time></trkpt><trkpt lat="44.7423392" lon="9.8697658"><ele>622.0</ele><time>2026-04-04T13:48:19.983Z</time></trkpt><trkpt lat="44.7423789" lon="9.8698766"><ele>622.2</ele><time>2026-04-04T13:48:20.983Z</time></trkpt><trkpt lat="44.7424423" lon="9.869972"><ele>622.4000000000001</ele><time>2026-04-04T13:48:21.983Z</time></trkpt><trkpt lat="44.7425335" lon="9.8700463"><ele>622.5999999999999</ele><time>2026-04-04T13:48:22.982Z</time></trkpt><trkpt lat="44.7426458" lon="9.8701037"><ele>622.8</ele><time>2026-04-04T13:48:23.982Z</time></trkpt><trkpt lat="44.74275" lon="9.8701672"><ele>623.0</ele><time>2026-04-04T13:48:24.982Z</time></trkpt><trkpt lat="44.7428333" lon="9.8702643"><ele>623.0</ele><time>2026-04-04T13:48:25.983Z</time></trkpt><trkpt lat="44.7428947" lon="9.8703838"><ele>623.0</ele><time>2026-04-04T13:48:26.982Z</time></trkpt><trkpt lat="44.7429433" lon="9.8705196"><ele>623.0</ele><time>2026-04-04T13:48:27.982Z</time></trkpt><trkpt lat="44.7429835" lon="9.8706582"><ele>623.0</ele><time>2026-04-04T13:48:28.982Z</time></trkpt><trkpt lat="44.7430193" lon="9.8707982"><ele>623.0</ele><time>2026-04-04T13:48:29.982Z</time></trkpt><trkpt lat="44.743051" lon="9.8709382"><ele>619.1999999999999</ele><time>2026-04-04T13:48:30.982Z</time></trkpt><trkpt lat="44.7430836" lon="9.8710755"><ele>615.4</ele><time>2026-04-04T13:48:31.982Z</time></trkpt><trkpt lat="44.7431258" lon="9.8712061"><ele>611.5999999999999</ele><time>2026-04-04T13:48:32.982Z</time></trkpt><trkpt lat="44.7431757" lon="9.8713375"><ele>607.8</ele><time>2026-04-04T13:48:33.983Z</time></trkpt><trkpt lat="44.7432467" lon="9.8714528"><ele>604.0</ele><time>2026-04-04T13:48:34.982Z</time></trkpt><trkpt lat="44.7433247" lon="9.8715646"><ele>604.0</ele><time>2026-04-04T13:48:35.983Z</time></trkpt><trkpt lat="44.7433855" lon="9.8716863"><ele>604.0</ele><time>2026-04-04T13:48:36.982Z</time></trkpt><trkpt lat="44.7434312" lon="9.8718175"><ele>604.0</ele><time>2026-04-04T13:48:37.982Z</time></trkpt><trkpt lat="44.7434588" lon="9.8719512"><ele>604.0</ele><time>2026-04-04T13:48:38.982Z</time></trkpt><trkpt lat="44.7434809" lon="9.872084"><ele>604.0</ele><time>2026-04-04T13:48:39.983Z</time></trkpt><trkpt lat="44.7434976" lon="9.8722188"><ele>604.4</ele><time>2026-04-04T13:48:40.982Z</time></trkpt><trkpt lat="44.7435133" lon="9.8723553"><ele>604.8</ele><time>2026-04-04T13:48:41.983Z</time></trkpt><trkpt lat="44.7435411" lon="9.8724864"><ele>605.2</ele><time>2026-04-04T13:48:42.982Z</time></trkpt><trkpt lat="44.7435868" lon="9.8725976"><ele>605.6</ele><time>2026-04-04T13:48:43.983Z</time></trkpt><trkpt lat="44.7436625" lon="9.8726958"><ele>606.0</ele><time>2026-04-04T13:48:44.983Z</time></trkpt><trkpt lat="44.7437599" lon="9.8727724"><ele>601.4</ele><time>2026-04-04T13:48:45.982Z</time></trkpt><trkpt lat="44.7438607" lon="9.8728467"><ele>596.8</ele><time>2026-04-04T13:48:46.983Z</time></trkpt><trkpt lat="44.7439569" lon="9.8729265"><ele>592.1999999999999</ele><time>2026-04-04T13:48:47.982Z</time></trkpt><trkpt lat="44.7440461" lon="9.8730014"><ele>587.6</ele><time>2026-04-04T13:48:48.983Z</time></trkpt><trkpt lat="44.7441281" lon="9.873084"><ele>583.0</ele><time>2026-04-04T13:48:49.982Z</time></trkpt><trkpt lat="44.7442138" lon="9.8731882"><ele>583.0</ele><time>2026-04-04T13:48:50.983Z</time></trkpt><trkpt lat="44.7443094" lon="9.8733095"><ele>583.0</ele><time>2026-04-04T13:48:51.982Z</time></trkpt><trkpt lat="44.7444064" lon="9.8734391"><ele>583.0</ele><time>2026-04-04T13:48:52.982Z</time></trkpt><trkpt lat="44.7445062" lon="9.8735778"><ele>583.0</ele><time>2026-04-04T13:48:53.983Z</time></trkpt><trkpt lat="44.7446021" lon="9.8737192"><ele>581.5</ele><time>2026-04-04T13:48:54.982Z</time></trkpt><trkpt lat="44.7446946" lon="9.8738589"><ele>580.0</ele><time>2026-04-04T13:48:55.982Z</time></trkpt><trkpt lat="44.7447817" lon="9.8740005"><ele>578.5</ele><time>2026-04-04T13:48:56.983Z</time></trkpt><trkpt lat="44.744857" lon="9.874122"><ele>577.0</ele><time>2026-04-04T13:48:57.982Z</time></trkpt><trkpt lat="44.7449383" lon="9.8742204"><ele>574.5</ele><time>2026-04-04T13:48:58.983Z</time></trkpt><trkpt lat="44.7450345" lon="9.8743087"><ele>572.0</ele><time>2026-04-04T13:48:59.983Z</time></trkpt><trkpt lat="44.7451437" lon="9.8743828"><ele>569.5</ele><time>2026-04-04T13:49:00.982Z</time></trkpt><trkpt lat="44.7452644" lon="9.8744514"><ele>567.0</ele><time>2026-04-04T13:49:01.983Z</time></trkpt><trkpt lat="44.7453765" lon="9.8745153"><ele>566.8000000000001</ele><time>2026-04-04T13:49:02.983Z</time></trkpt><trkpt lat="44.7454827" lon="9.8745745"><ele>566.6</ele><time>2026-04-04T13:49:03.982Z</time></trkpt><trkpt lat="44.745575" lon="9.8746281"><ele>566.4000000000001</ele><time>2026-04-04T13:49:04.983Z</time></trkpt><trkpt lat="44.7456433" lon="9.8746794"><ele>566.2</ele><time>2026-04-04T13:49:05.983Z</time></trkpt><trkpt lat="44.7456914" lon="9.8747463"><ele>566.0</ele><time>2026-04-04T13:49:06.982Z</time></trkpt><trkpt lat="44.7457139" lon="9.8748938"><ele>566.0</ele><time>2026-04-04T13:49:08.982Z</time></trkpt><trkpt lat="44.7456119" lon="9.8750103"><ele>566.0</ele><time>2026-04-04T13:49:10.982Z</time></trkpt><trkpt lat="44.7455386" lon="9.8750124"><ele>566.0</ele><time>2026-04-04T13:49:11.982Z</time></trkpt><trkpt lat="44.7454492" lon="9.8749801"><ele>566.0</ele><time>2026-04-04T13:49:12.983Z</time></trkpt><trkpt lat="44.7453556" lon="9.8749226"><ele>566.0</ele><time>2026-04-04T13:49:13.982Z</time></trkpt><trkpt lat="44.7452681" lon="9.8748715"><ele>566.1666666666666</ele><time>2026-04-04T13:49:14.983Z</time></trkpt><trkpt lat="44.7451824" lon="9.8748469"><ele>566.3333333333333</ele><time>2026-04-04T13:49:15.983Z</time></trkpt><trkpt lat="44.745105" lon="9.8748383"><ele>566.5</ele><time>2026-04-04T13:49:16.982Z</time></trkpt><trkpt lat="44.7450303" lon="9.8748357"><ele>566.6666666666666</ele><time>2026-04-04T13:49:17.983Z</time></trkpt><trkpt lat="44.7449528" lon="9.8748332"><ele>566.8333333333334</ele><time>2026-04-04T13:49:18.983Z</time></trkpt><trkpt lat="44.7448717" lon="9.8748266"><ele>567.0</ele><time>2026-04-04T13:49:19.982Z</time></trkpt><trkpt lat="44.7447859" lon="9.87482"><ele>567.0</ele><time>2026-04-04T13:49:20.982Z</time></trkpt><trkpt lat="44.7447028" lon="9.8748175"><ele>567.0</ele><time>2026-04-04T13:49:21.983Z</time></trkpt><trkpt lat="44.7446195" lon="9.8748148"><ele>567.0</ele><time>2026-04-04T13:49:22.983Z</time></trkpt><trkpt lat="44.7445448" lon="9.8747997"><ele>567.0</ele><time>2026-04-04T13:49:23.982Z</time></trkpt><trkpt lat="44.7444687" lon="9.874792"><ele>567.0</ele><time>2026-04-04T13:49:24.982Z</time></trkpt><trkpt lat="44.7443849" lon="9.8747857"><ele>567.0</ele><time>2026-04-04T13:49:25.982Z</time></trkpt><trkpt lat="44.7443004" lon="9.8747989"><ele>565.3333333333334</ele><time>2026-04-04T13:49:26.983Z</time></trkpt><trkpt lat="44.7442237" lon="9.8748186"><ele>563.6666666666666</ele><time>2026-04-04T13:49:27.982Z</time></trkpt><trkpt lat="44.7441602" lon="9.8748359"><ele>562.0</ele><time>2026-04-04T13:49:28.983Z</time></trkpt><trkpt lat="44.7440906" lon="9.8748708"><ele>560.3333333333333</ele><time>2026-04-04T13:49:30.982Z</time></trkpt><trkpt lat="44.7440654" lon="9.8749844"><ele>558.6666666666666</ele><time>2026-04-04T13:49:34.982Z</time></trkpt><trkpt lat="44.7441349" lon="9.8751223"><ele>557.0</ele><time>2026-04-04T13:49:36.982Z</time></trkpt><trkpt lat="44.7441956" lon="9.8752182"><ele>556.5</ele><time>2026-04-04T13:49:37.983Z</time></trkpt><trkpt lat="44.7442647" lon="9.8753388"><ele>556.0</ele><time>2026-04-04T13:49:38.982Z</time></trkpt><trkpt lat="44.7443342" lon="9.8754708"><ele>555.5</ele><time>2026-04-04T13:49:39.983Z</time></trkpt><trkpt lat="44.744415" lon="9.875612"><ele>555.0</ele><time>2026-04-04T13:49:40.983Z</time></trkpt><trkpt lat="44.7445144" lon="9.875753"><ele>555.0</ele><time>2026-04-04T13:49:41.982Z</time></trkpt><trkpt lat="44.7446249" lon="9.8758897"><ele>555.0</ele><time>2026-04-04T13:49:42.982Z</time></trkpt><trkpt lat="44.7447359" lon="9.8760375"><ele>555.0</ele><time>2026-04-04T13:49:43.983Z</time></trkpt><trkpt lat="44.7448314" lon="9.8761886"><ele>555.0</ele><time>2026-04-04T13:49:44.982Z</time></trkpt><trkpt lat="44.7449138" lon="9.8763355"><ele>552.5</ele><time>2026-04-04T13:49:45.983Z</time></trkpt><trkpt lat="44.745002" lon="9.8764643"><ele>550.0</ele><time>2026-04-04T13:49:46.982Z</time></trkpt><trkpt lat="44.7451037" lon="9.8765719"><ele>547.5</ele><time>2026-04-04T13:49:47.981Z</time></trkpt><trkpt lat="44.7452082" lon="9.876659"><ele>545.0</ele><time>2026-04-04T13:49:48.981Z</time></trkpt><trkpt lat="44.7453291" lon="9.8767142"><ele>545.0</ele><time>2026-04-04T13:49:49.981Z</time></trkpt><trkpt lat="44.7454636" lon="9.8767574"><ele>545.0</ele><time>2026-04-04T13:49:50.982Z</time></trkpt><trkpt lat="44.7455992" lon="9.876797"><ele>545.0</ele><time>2026-04-04T13:49:51.981Z</time></trkpt><trkpt lat="44.7457247" lon="9.8768387"><ele>545.0</ele><time>2026-04-04T13:49:52.981Z</time></trkpt><trkpt lat="44.7458482" lon="9.8768694"><ele>544.4</ele><time>2026-04-04T13:49:53.982Z</time></trkpt><trkpt lat="44.7459653" lon="9.8768863"><ele>543.8</ele><time>2026-04-04T13:49:54.981Z</time></trkpt><trkpt lat="44.7460714" lon="9.8769136"><ele>543.2</ele><time>2026-04-04T13:49:55.982Z</time></trkpt><trkpt lat="44.7461643" lon="9.8769744"><ele>542.6</ele><time>2026-04-04T13:49:56.982Z</time></trkpt><trkpt lat="44.7462452" lon="9.877062"><ele>542.0</ele><time>2026-04-04T13:49:57.981Z</time></trkpt><trkpt lat="44.7463156" lon="9.8771788"><ele>542.0</ele><time>2026-04-04T13:49:58.981Z</time></trkpt><trkpt lat="44.7463754" lon="9.8773169"><ele>542.0</ele><time>2026-04-04T13:49:59.981Z</time></trkpt><trkpt lat="44.7464175" lon="9.877476"><ele>542.0</ele><time>2026-04-04T13:50:00.982Z</time></trkpt><trkpt lat="44.7464473" lon="9.8776557"><ele>542.0</ele><time>2026-04-04T13:50:01.981Z</time></trkpt><trkpt lat="44.7464593" lon="9.8778525"><ele>539.6666666666666</ele><time>2026-04-04T13:50:02.982Z</time></trkpt><trkpt lat="44.7464727" lon="9.8780596"><ele>537.3333333333334</ele><time>2026-04-04T13:50:03.982Z</time></trkpt><trkpt lat="44.746476" lon="9.8782713"><ele>535.0</ele><time>2026-04-04T13:50:04.982Z</time></trkpt><trkpt lat="44.7464696" lon="9.878492"><ele>534.0</ele><time>2026-04-04T13:50:05.982Z</time></trkpt><trkpt lat="44.7464573" lon="9.8787218"><ele>533.0</ele><time>2026-04-04T13:50:06.981Z</time></trkpt><trkpt lat="44.7464397" lon="9.8789363"><ele>532.0</ele><time>2026-04-04T13:50:07.982Z</time></trkpt><trkpt lat="44.746424" lon="9.8791396"><ele>532.5</ele><time>2026-04-04T13:50:08.981Z</time></trkpt><trkpt lat="44.7464162" lon="9.879331"><ele>533.0</ele><time>2026-04-04T13:50:09.982Z</time></trkpt><trkpt lat="44.7463853" lon="9.8795162"><ele>533.5</ele><time>2026-04-04T13:50:10.981Z</time></trkpt><trkpt lat="44.7463432" lon="9.8796905"><ele>534.0</ele><time>2026-04-04T13:50:11.982Z</time></trkpt><trkpt lat="44.7463051" lon="9.8798591"><ele>534.0</ele><time>2026-04-04T13:50:12.982Z</time></trkpt><trkpt lat="44.7462605" lon="9.8800244"><ele>534.0</ele><time>2026-04-04T13:50:13.981Z</time></trkpt><trkpt lat="44.7462395" lon="9.8801934"><ele>534.0</ele><time>2026-04-04T13:50:14.981Z</time></trkpt><trkpt lat="44.7462407" lon="9.8803681"><ele>534.0</ele><time>2026-04-04T13:50:15.981Z</time></trkpt><trkpt lat="44.7462399" lon="9.8805427"><ele>534.25</ele><time>2026-04-04T13:50:16.982Z</time></trkpt><trkpt lat="44.7462183" lon="9.8806996"><ele>534.5</ele><time>2026-04-04T13:50:17.981Z</time></trkpt><trkpt lat="44.7461604" lon="9.8808532"><ele>534.75</ele><time>2026-04-04T13:50:18.981Z</time></trkpt><trkpt lat="44.7460856" lon="9.881019"><ele>535.0</ele><time>2026-04-04T13:50:19.982Z</time></trkpt><trkpt lat="44.7460144" lon="9.8811965"><ele>529.25</ele><time>2026-04-04T13:50:20.981Z</time></trkpt><trkpt lat="44.7459637" lon="9.881386"><ele>523.5</ele><time>2026-04-04T13:50:21.982Z</time></trkpt><trkpt lat="44.7459266" lon="9.8815733"><ele>517.75</ele><time>2026-04-04T13:50:22.982Z</time></trkpt><trkpt lat="44.7458846" lon="9.8817546"><ele>512.0</ele><time>2026-04-04T13:50:23.981Z</time></trkpt><trkpt lat="44.7458346" lon="9.8819166"><ele>512.0</ele><time>2026-04-04T13:50:24.981Z</time></trkpt><trkpt lat="44.7457722" lon="9.8820519"><ele>512.0</ele><time>2026-04-04T13:50:25.982Z</time></trkpt><trkpt lat="44.7457164" lon="9.8821718"><ele>512.0</ele><time>2026-04-04T13:50:26.981Z</time></trkpt><trkpt lat="44.7456801" lon="9.8822957"><ele>512.0</ele><time>2026-04-04T13:50:27.982Z</time></trkpt><trkpt lat="44.74568" lon="9.8824327"><ele>512.0</ele><time>2026-04-04T13:50:28.982Z</time></trkpt><trkpt lat="44.7457183" lon="9.8825742"><ele>512.8000000000001</ele><time>2026-04-04T13:50:29.982Z</time></trkpt><trkpt lat="44.7457903" lon="9.8826949"><ele>513.6</ele><time>2026-04-04T13:50:30.982Z</time></trkpt><trkpt lat="44.745844" lon="9.8828014"><ele>514.4000000000001</ele><time>2026-04-04T13:50:31.982Z</time></trkpt><trkpt lat="44.7458718" lon="9.8829111"><ele>515.2</ele><time>2026-04-04T13:50:32.981Z</time></trkpt><trkpt lat="44.7458657" lon="9.8830255"><ele>516.0</ele><time>2026-04-04T13:50:33.982Z</time></trkpt><trkpt lat="44.7458149" lon="9.8831264"><ele>516.0</ele><time>2026-04-04T13:50:34.982Z</time></trkpt><trkpt lat="44.7457378" lon="9.8832147"><ele>516.0</ele><time>2026-04-04T13:50:35.981Z</time></trkpt><trkpt lat="44.7456119" lon="9.8832635"><ele>516.0</ele><time>2026-04-04T13:50:36.982Z</time></trkpt><trkpt lat="44.7454734" lon="9.8832732"><ele>516.0</ele><time>2026-04-04T13:50:37.981Z</time></trkpt><trkpt lat="44.7453494" lon="9.8832798"><ele>516.0</ele><time>2026-04-04T13:50:38.981Z</time></trkpt><trkpt lat="44.7452494" lon="9.8833146"><ele>516.0</ele><time>2026-04-04T13:50:39.982Z</time></trkpt><trkpt lat="44.7451669" lon="9.8834059"><ele>516.0</ele><time>2026-04-04T13:50:40.981Z</time></trkpt><trkpt lat="44.7450893" lon="9.8835369"><ele>516.0</ele><time>2026-04-04T13:50:41.981Z</time></trkpt><trkpt lat="44.7450058" lon="9.8836682"><ele>513.0</ele><time>2026-04-04T13:50:42.981Z</time></trkpt><trkpt lat="44.7449218" lon="9.8837607"><ele>510.0</ele><time>2026-04-04T13:50:43.982Z</time></trkpt><trkpt lat="44.7448338" lon="9.8838337"><ele>507.0</ele><time>2026-04-04T13:50:44.981Z</time></trkpt><trkpt lat="44.744758" lon="9.8839206"><ele>504.0</ele><time>2026-04-04T13:50:45.982Z</time></trkpt><trkpt lat="44.7447085" lon="9.8840309"><ele>501.0</ele><time>2026-04-04T13:50:46.981Z</time></trkpt><trkpt lat="44.7446885" lon="9.8841679"><ele>502.0</ele><time>2026-04-04T13:50:47.981Z</time></trkpt><trkpt lat="44.7446902" lon="9.8843347"><ele>503.0</ele><time>2026-04-04T13:50:48.982Z</time></trkpt><trkpt lat="44.744701" lon="9.8845095"><ele>504.0</ele><time>2026-04-04T13:50:49.982Z</time></trkpt><trkpt lat="44.7447015" lon="9.8846742"><ele>505.0</ele><time>2026-04-04T13:50:50.981Z</time></trkpt><trkpt lat="44.744682" lon="9.8848304"><ele>505.0</ele><time>2026-04-04T13:50:51.982Z</time></trkpt><trkpt lat="44.7446487" lon="9.8849763"><ele>505.0</ele><time>2026-04-04T13:50:52.982Z</time></trkpt><trkpt lat="44.7445978" lon="9.8851161"><ele>505.0</ele><time>2026-04-04T13:50:53.981Z</time></trkpt><trkpt lat="44.7445304" lon="9.8852392"><ele>505.0</ele><time>2026-04-04T13:50:54.981Z</time></trkpt><trkpt lat="44.7444466" lon="9.8853351"><ele>505.0</ele><time>2026-04-04T13:50:55.981Z</time></trkpt><trkpt lat="44.74434" lon="9.8853915"><ele>500.25</ele><time>2026-04-04T13:50:56.981Z</time></trkpt><trkpt lat="44.744219" lon="9.8854108"><ele>495.5</ele><time>2026-04-04T13:50:57.981Z</time></trkpt><trkpt lat="44.7440905" lon="9.8854249"><ele>490.75</ele><time>2026-04-04T13:50:58.981Z</time></trkpt><trkpt lat="44.7439807" lon="9.8854649"><ele>486.0</ele><time>2026-04-04T13:50:59.981Z</time></trkpt><trkpt lat="44.7438876" lon="9.8855309"><ele>486.0</ele><time>2026-04-04T13:51:00.982Z</time></trkpt><trkpt lat="44.7438164" lon="9.8856291"><ele>486.0</ele><time>2026-04-04T13:51:01.981Z</time></trkpt><trkpt lat="44.7437664" lon="9.8857626"><ele>486.0</ele><time>2026-04-04T13:51:02.981Z</time></trkpt><trkpt lat="44.7437247" lon="9.8859079"><ele>486.0</ele><time>2026-04-04T13:51:03.982Z</time></trkpt><trkpt lat="44.7436538" lon="9.8860438"><ele>486.0</ele><time>2026-04-04T13:51:04.982Z</time></trkpt><trkpt lat="44.743566" lon="9.8861737"><ele>481.75</ele><time>2026-04-04T13:51:05.981Z</time></trkpt><trkpt lat="44.7434643" lon="9.886292"><ele>477.5</ele><time>2026-04-04T13:51:06.982Z</time></trkpt><trkpt lat="44.7433651" lon="9.8864121"><ele>473.25</ele><time>2026-04-04T13:51:07.982Z</time></trkpt><trkpt lat="44.7432635" lon="9.8865169"><ele>469.0</ele><time>2026-04-04T13:51:08.981Z</time></trkpt><trkpt lat="44.7431723" lon="9.886602"><ele>469.0</ele><time>2026-04-04T13:51:09.982Z</time></trkpt><trkpt lat="44.7431059" lon="9.8866881"><ele>469.0</ele><time>2026-04-04T13:51:10.982Z</time></trkpt><trkpt lat="44.7430593" lon="9.8867848"><ele>469.0</ele><time>2026-04-04T13:51:11.981Z</time></trkpt><trkpt lat="44.7430357" lon="9.8869045"><ele>469.0</ele><time>2026-04-04T13:51:12.981Z</time></trkpt><trkpt lat="44.7430264" lon="9.8870548"><ele>469.0</ele><time>2026-04-04T13:51:13.982Z</time></trkpt><trkpt lat="44.743021" lon="9.8872148"><ele>469.75</ele><time>2026-04-04T13:51:14.981Z</time></trkpt><trkpt lat="44.7430141" lon="9.8873773"><ele>470.5</ele><time>2026-04-04T13:51:15.981Z</time></trkpt><trkpt lat="44.7430011" lon="9.8875309"><ele>471.25</ele><time>2026-04-04T13:51:16.981Z</time></trkpt><trkpt lat="44.7429864" lon="9.8876884"><ele>472.0</ele><time>2026-04-04T13:51:17.981Z</time></trkpt><trkpt lat="44.7429744" lon="9.8878489"><ele>468.6</ele><time>2026-04-04T13:51:18.981Z</time></trkpt><trkpt lat="44.7429644" lon="9.8880035"><ele>465.20000000000005</ele><time>2026-04-04T13:51:19.982Z</time></trkpt><trkpt lat="44.7429566" lon="9.8881522"><ele>461.8</ele><time>2026-04-04T13:51:20.981Z</time></trkpt><trkpt lat="44.7429552" lon="9.8882787"><ele>458.4</ele><time>2026-04-04T13:51:21.981Z</time></trkpt><trkpt lat="44.7429804" lon="9.8883909"><ele>455.0</ele><time>2026-04-04T13:51:22.981Z</time></trkpt><trkpt lat="44.743039" lon="9.8884825"><ele>451.25</ele><time>2026-04-04T13:51:23.981Z</time></trkpt><trkpt lat="44.7431403" lon="9.8885555"><ele>447.5</ele><time>2026-04-04T13:51:24.981Z</time></trkpt><trkpt lat="44.7432804" lon="9.8886125"><ele>443.75</ele><time>2026-04-04T13:51:25.981Z</time></trkpt><trkpt lat="44.7434369" lon="9.8886642"><ele>440.0</ele><time>2026-04-04T13:51:26.982Z</time></trkpt><trkpt lat="44.7435934" lon="9.8886934"><ele>440.0</ele><time>2026-04-04T13:51:27.981Z</time></trkpt><trkpt lat="44.7437388" lon="9.8887074"><ele>440.0</ele><time>2026-04-04T13:51:28.982Z</time></trkpt><trkpt lat="44.7438735" lon="9.888713"><ele>440.0</ele><time>2026-04-04T13:51:29.982Z</time></trkpt><trkpt lat="44.7439958" lon="9.888726"><ele>440.0</ele><time>2026-04-04T13:51:30.982Z</time></trkpt><trkpt lat="44.7441001" lon="9.8887599"><ele>440.0</ele><time>2026-04-04T13:51:31.982Z</time></trkpt><trkpt lat="44.7441941" lon="9.8888239"><ele>440.0</ele><time>2026-04-04T13:51:32.981Z</time></trkpt><trkpt lat="44.7442692" lon="9.8889331"><ele>440.0</ele><time>2026-04-04T13:51:33.982Z</time></trkpt><trkpt lat="44.7443216" lon="9.8891033"><ele>440.0</ele><time>2026-04-04T13:51:34.982Z</time></trkpt><trkpt lat="44.7443487" lon="9.8893051"><ele>437.25</ele><time>2026-04-04T13:51:35.981Z</time></trkpt><trkpt lat="44.7443695" lon="9.8895091"><ele>434.5</ele><time>2026-04-04T13:51:36.982Z</time></trkpt><trkpt lat="44.7443888" lon="9.8896918"><ele>431.75</ele><time>2026-04-04T13:51:37.981Z</time></trkpt><trkpt lat="44.7444014" lon="9.8898531"><ele>429.0</ele><time>2026-04-04T13:51:38.981Z</time></trkpt><trkpt lat="44.7443818" lon="9.889999"><ele>428.25</ele><time>2026-04-04T13:51:39.981Z</time></trkpt><trkpt lat="44.7443268" lon="9.8901294"><ele>427.5</ele><time>2026-04-04T13:51:40.982Z</time></trkpt><trkpt lat="44.7442586" lon="9.8902721"><ele>426.75</ele><time>2026-04-04T13:51:41.981Z</time></trkpt><trkpt lat="44.7442114" lon="9.8904473"><ele>426.0</ele><time>2026-04-04T13:51:42.981Z</time></trkpt><trkpt lat="44.7441774" lon="9.8906507"><ele>426.0</ele><time>2026-04-04T13:51:43.982Z</time></trkpt><trkpt lat="44.7441498" lon="9.8908516"><ele>426.0</ele><time>2026-04-04T13:51:44.982Z</time></trkpt><trkpt lat="44.7441262" lon="9.8910218"><ele>426.0</ele><time>2026-04-04T13:51:45.982Z</time></trkpt><trkpt lat="44.7441061" lon="9.8911566"><ele>426.0</ele><time>2026-04-04T13:51:46.981Z</time></trkpt><trkpt lat="44.7440819" lon="9.8912584"><ele>426.0</ele><time>2026-04-04T13:51:47.981Z</time></trkpt><trkpt lat="44.7440512" lon="9.8913393"><ele>424.8333333333333</ele><time>2026-04-04T13:51:48.982Z</time></trkpt><trkpt lat="44.7439773" lon="9.8913538"><ele>423.66666666666663</ele><time>2026-04-04T13:51:50.981Z</time></trkpt><trkpt lat="44.7439404" lon="9.8912781"><ele>422.5</ele><time>2026-04-04T13:51:51.982Z</time></trkpt><trkpt lat="44.743893" lon="9.8911696"><ele>421.3333333333333</ele><time>2026-04-04T13:51:52.981Z</time></trkpt><trkpt lat="44.7438392" lon="9.8910993"><ele>420.16666666666663</ele><time>2026-04-04T13:51:53.981Z</time></trkpt><trkpt lat="44.7437754" lon="9.8910836"><ele>419.0</ele><time>2026-04-04T13:51:54.982Z</time></trkpt><trkpt lat="44.7437067" lon="9.8912444"><ele>419.0</ele><time>2026-04-04T13:51:56.982Z</time></trkpt><trkpt lat="44.7437128" lon="9.8913927"><ele>419.0</ele><time>2026-04-04T13:51:57.981Z</time></trkpt><trkpt lat="44.7437422" lon="9.8915596"><ele>419.0</ele><time>2026-04-04T13:51:58.982Z</time></trkpt><trkpt lat="44.7437677" lon="9.8917508"><ele>419.0</ele><time>2026-04-04T13:51:59.982Z</time></trkpt><trkpt lat="44.7437819" lon="9.8919286"><ele>415.3333333333333</ele><time>2026-04-04T13:52:00.981Z</time></trkpt><trkpt lat="44.7438091" lon="9.8920813"><ele>411.66666666666663</ele><time>2026-04-04T13:52:01.981Z</time></trkpt><trkpt lat="44.7438398" lon="9.8921981"><ele>408.0</ele><time>2026-04-04T13:52:02.981Z</time></trkpt><trkpt lat="44.743886" lon="9.8922796"><ele>404.33333333333337</ele><time>2026-04-04T13:52:03.981Z</time></trkpt><trkpt lat="44.743953" lon="9.8923206"><ele>400.6666666666667</ele><time>2026-04-04T13:52:04.981Z</time></trkpt><trkpt lat="44.7440484" lon="9.8923328"><ele>397.0</ele><time>2026-04-04T13:52:05.982Z</time></trkpt><trkpt lat="44.7441461" lon="9.8923494"><ele>397.0</ele><time>2026-04-04T13:52:06.982Z</time></trkpt><trkpt lat="44.7442316" lon="9.892417"><ele>397.0</ele><time>2026-04-04T13:52:07.982Z</time></trkpt><trkpt lat="44.7442795" lon="9.8925337"><ele>397.0</ele><time>2026-04-04T13:52:08.982Z</time></trkpt><trkpt lat="44.744296" lon="9.8926673"><ele>397.0</ele><time>2026-04-04T13:52:09.982Z</time></trkpt><trkpt lat="44.7442982" lon="9.8928062"><ele>397.0</ele><time>2026-04-04T13:52:10.982Z</time></trkpt><trkpt lat="44.7443042" lon="9.8929395"><ele>396.33333333333337</ele><time>2026-04-04T13:52:11.982Z</time></trkpt><trkpt lat="44.7443218" lon="9.8930588"><ele>395.6666666666667</ele><time>2026-04-04T13:52:12.981Z</time></trkpt><trkpt lat="44.7443576" lon="9.893162"><ele>395.0</ele><time>2026-04-04T13:52:13.981Z</time></trkpt><trkpt lat="44.7444116" lon="9.8932404"><ele>394.33333333333337</ele><time>2026-04-04T13:52:14.982Z</time></trkpt><trkpt lat="44.7444803" lon="9.893298"><ele>393.6666666666667</ele><time>2026-04-04T13:52:15.981Z</time></trkpt><trkpt lat="44.7445586" lon="9.8933597"><ele>393.0</ele><time>2026-04-04T13:52:16.981Z</time></trkpt><trkpt lat="44.7446375" lon="9.8934492"><ele>390.2</ele><time>2026-04-04T13:52:17.981Z</time></trkpt><trkpt lat="44.7447065" lon="9.8935525"><ele>387.4</ele><time>2026-04-04T13:52:18.981Z</time></trkpt><trkpt lat="44.7447579" lon="9.8936772"><ele>384.59999999999997</ele><time>2026-04-04T13:52:19.981Z</time></trkpt><trkpt lat="44.7447814" lon="9.8938245"><ele>381.79999999999995</ele><time>2026-04-04T13:52:20.981Z</time></trkpt><trkpt lat="44.7447786" lon="9.8939642"><ele>379.0</ele><time>2026-04-04T13:52:21.982Z</time></trkpt><trkpt lat="44.7447447" lon="9.8940945"><ele>379.0</ele><time>2026-04-04T13:52:22.981Z</time></trkpt><trkpt lat="44.7447068" lon="9.8942231"><ele>379.0</ele><time>2026-04-04T13:52:23.982Z</time></trkpt><trkpt lat="44.7446955" lon="9.8943465"><ele>379.0</ele><time>2026-04-04T13:52:24.982Z</time></trkpt><trkpt lat="44.7447052" lon="9.8944644"><ele>379.0</ele><time>2026-04-04T13:52:25.981Z</time></trkpt><trkpt lat="44.7447557" lon="9.8945669"><ele>379.0</ele><time>2026-04-04T13:52:26.981Z</time></trkpt><trkpt lat="44.7448347" lon="9.8946445"><ele>375.4</ele><time>2026-04-04T13:52:27.982Z</time></trkpt><trkpt lat="44.7449402" lon="9.8946885"><ele>371.79999999999995</ele><time>2026-04-04T13:52:28.982Z</time></trkpt><trkpt lat="44.7450554" lon="9.8946982"><ele>368.20000000000005</ele><time>2026-04-04T13:52:29.982Z</time></trkpt><trkpt lat="44.7451637" lon="9.8946732"><ele>364.6</ele><time>2026-04-04T13:52:30.981Z</time></trkpt><trkpt lat="44.7452391" lon="9.894606"><ele>361.0</ele><time>2026-04-04T13:52:31.981Z</time></trkpt><trkpt lat="44.7452793" lon="9.8945081"><ele>361.0</ele><time>2026-04-04T13:52:32.981Z</time></trkpt><trkpt lat="44.7452953" lon="9.894388"><ele>361.0</ele><time>2026-04-04T13:52:33.982Z</time></trkpt><trkpt lat="44.7452802" lon="9.8942559"><ele>361.0</ele><time>2026-04-04T13:52:34.982Z</time></trkpt><trkpt lat="44.7452748" lon="9.8941555"><ele>361.0</ele><time>2026-04-04T13:52:35.982Z</time></trkpt><trkpt lat="44.745308" lon="9.8940741"><ele>361.0</ele><time>2026-04-04T13:52:37.982Z</time></trkpt><trkpt lat="44.7453631" lon="9.8941706"><ele>361.0</ele><time>2026-04-04T13:52:40.982Z</time></trkpt><trkpt lat="44.7453743" lon="9.894294"><ele>359.5</ele><time>2026-04-04T13:52:48.982Z</time></trkpt><trkpt lat="44.7454001" lon="9.8944635"><ele>358.0</ele><time>2026-04-04T13:52:50.981Z</time></trkpt><trkpt lat="44.7454144" lon="9.8945703"><ele>356.5</ele><time>2026-04-04T13:52:51.981Z</time></trkpt><trkpt lat="44.7454288" lon="9.8946854"><ele>355.0</ele><time>2026-04-04T13:52:52.982Z</time></trkpt><trkpt lat="44.7454289" lon="9.894797"><ele>353.5</ele><time>2026-04-04T13:52:53.982Z</time></trkpt><trkpt lat="44.7453992" lon="9.8949117"><ele>352.0</ele><time>2026-04-04T13:52:54.981Z</time></trkpt><trkpt lat="44.7453292" lon="9.895012"><ele>351.75</ele><time>2026-04-04T13:52:55.981Z</time></trkpt><trkpt lat="44.745235" lon="9.8950876"><ele>351.5</ele><time>2026-04-04T13:52:56.981Z</time></trkpt><trkpt lat="44.7451182" lon="9.8951245"><ele>351.25</ele><time>2026-04-04T13:52:57.981Z</time></trkpt><trkpt lat="44.7449887" lon="9.895121"><ele>351.0</ele><time>2026-04-04T13:52:58.981Z</time></trkpt><trkpt lat="44.7448739" lon="9.8951034"><ele>353.0</ele><time>2026-04-04T13:52:59.981Z</time></trkpt><trkpt lat="44.744765" lon="9.8950635"><ele>355.0</ele><time>2026-04-04T13:53:00.981Z</time></trkpt><trkpt lat="44.7446671" lon="9.8949955"><ele>357.0</ele><time>2026-04-04T13:53:01.982Z</time></trkpt><trkpt lat="44.7445883" lon="9.8949019"><ele>359.0</ele><time>2026-04-04T13:53:02.982Z</time></trkpt><trkpt lat="44.7445283" lon="9.8947943"><ele>361.0</ele><time>2026-04-04T13:53:03.981Z</time></trkpt><trkpt lat="44.7444635" lon="9.8946766"><ele>361.0</ele><time>2026-04-04T13:53:04.981Z</time></trkpt><trkpt lat="44.7444" lon="9.8945659"><ele>361.0</ele><time>2026-04-04T13:53:05.982Z</time></trkpt><trkpt lat="44.7443302" lon="9.8944519"><ele>361.0</ele><time>2026-04-04T13:53:06.981Z</time></trkpt><trkpt lat="44.7442593" lon="9.8943622"><ele>361.0</ele><time>2026-04-04T13:53:07.981Z</time></trkpt><trkpt lat="44.7441866" lon="9.8943206"><ele>361.0</ele><time>2026-04-04T13:53:08.981Z</time></trkpt><trkpt lat="44.7440982" lon="9.894322"><ele>360.6</ele><time>2026-04-04T13:53:09.981Z</time></trkpt><trkpt lat="44.744013" lon="9.8943675"><ele>360.20000000000005</ele><time>2026-04-04T13:53:10.982Z</time></trkpt><trkpt lat="44.7439205" lon="9.8944441"><ele>359.79999999999995</ele><time>2026-04-04T13:53:11.981Z</time></trkpt><trkpt lat="44.7438219" lon="9.8945336"><ele>359.4</ele><time>2026-04-04T13:53:12.982Z</time></trkpt><trkpt lat="44.7437299" lon="9.8946158"><ele>359.0</ele><time>2026-04-04T13:53:13.981Z</time></trkpt><trkpt lat="44.7436417" lon="9.894697"><ele>359.0</ele><time>2026-04-04T13:53:14.981Z</time></trkpt><trkpt lat="44.7435596" lon="9.8947834"><ele>359.0</ele><time>2026-04-04T13:53:15.982Z</time></trkpt><trkpt lat="44.7434884" lon="9.8948845"><ele>359.0</ele><time>2026-04-04T13:53:16.981Z</time></trkpt><trkpt lat="44.7434498" lon="9.8950093"><ele>359.0</ele><time>2026-04-04T13:53:17.981Z</time></trkpt><trkpt lat="44.7434529" lon="9.8951408"><ele>359.0</ele><time>2026-04-04T13:53:18.981Z</time></trkpt><trkpt lat="44.7434867" lon="9.8952742"><ele>358.75</ele><time>2026-04-04T13:53:19.981Z</time></trkpt><trkpt lat="44.7435626" lon="9.8953907"><ele>358.5</ele><time>2026-04-04T13:53:20.982Z</time></trkpt><trkpt lat="44.7436705" lon="9.8954896"><ele>358.25</ele><time>2026-04-04T13:53:21.982Z</time></trkpt><trkpt lat="44.7437842" lon="9.8955889"><ele>358.0</ele><time>2026-04-04T13:53:22.981Z</time></trkpt><trkpt lat="44.7438791" lon="9.8956893"><ele>358.0</ele><time>2026-04-04T13:53:23.981Z</time></trkpt><trkpt lat="44.7439543" lon="9.8958092"><ele>358.0</ele><time>2026-04-04T13:53:24.981Z</time></trkpt><trkpt lat="44.7440078" lon="9.8959475"><ele>358.0</ele><time>2026-04-04T13:53:25.982Z</time></trkpt><trkpt lat="44.744041" lon="9.8960983"><ele>358.0</ele><time>2026-04-04T13:53:26.981Z</time></trkpt><trkpt lat="44.7440397" lon="9.8962587"><ele>357.5</ele><time>2026-04-04T13:53:27.981Z</time></trkpt><trkpt lat="44.7440074" lon="9.8964302"><ele>357.0</ele><time>2026-04-04T13:53:28.981Z</time></trkpt><trkpt lat="44.743951" lon="9.8966166"><ele>356.5</ele><time>2026-04-04T13:53:29.981Z</time></trkpt><trkpt lat="44.743877" lon="9.8968158"><ele>356.0</ele><time>2026-04-04T13:53:30.981Z</time></trkpt><trkpt lat="44.7438108" lon="9.8970112"><ele>356.0</ele><time>2026-04-04T13:53:31.981Z</time></trkpt><trkpt lat="44.743733" lon="9.897208"><ele>356.0</ele><time>2026-04-04T13:53:32.981Z</time></trkpt><trkpt lat="44.7436495" lon="9.8974038"><ele>356.0</ele><time>2026-04-04T13:53:33.981Z</time></trkpt><trkpt lat="44.7435611" lon="9.8975823"><ele>358.6666666666667</ele><time>2026-04-04T13:53:34.981Z</time></trkpt><trkpt lat="44.7434555" lon="9.8977364"><ele>361.3333333333333</ele><time>2026-04-04T13:53:35.982Z</time></trkpt><trkpt lat="44.7433335" lon="9.8978625"><ele>364.0</ele><time>2026-04-04T13:53:36.981Z</time></trkpt><trkpt lat="44.7432022" lon="9.8979829"><ele>364.0</ele><time>2026-04-04T13:53:37.981Z</time></trkpt><trkpt lat="44.7430787" lon="9.8981308"><ele>364.0</ele><time>2026-04-04T13:53:38.981Z</time></trkpt><trkpt lat="44.742985" lon="9.898323"><ele>364.0</ele><time>2026-04-04T13:53:39.981Z</time></trkpt><trkpt lat="44.742927" lon="9.898542"><ele>363.0</ele><time>2026-04-04T13:53:40.981Z</time></trkpt><trkpt lat="44.7428891" lon="9.8987676"><ele>362.0</ele><time>2026-04-04T13:53:41.981Z</time></trkpt><trkpt lat="44.7428265" lon="9.8989696"><ele>361.0</ele><time>2026-04-04T13:53:42.982Z</time></trkpt><trkpt lat="44.742751" lon="9.8991581"><ele>370.0</ele><time>2026-04-04T13:53:43.981Z</time></trkpt><trkpt lat="44.7426806" lon="9.8993601"><ele>379.0</ele><time>2026-04-04T13:53:44.981Z</time></trkpt><trkpt lat="44.7426301" lon="9.8996011"><ele>388.0</ele><time>2026-04-04T13:53:45.981Z</time></trkpt><trkpt lat="44.7425914" lon="9.8998619"><ele>384.33333333333337</ele><time>2026-04-04T13:53:46.981Z</time></trkpt><trkpt lat="44.742534" lon="9.9001433"><ele>380.6666666666667</ele><time>2026-04-04T13:53:47.981Z</time></trkpt><trkpt lat="44.7424554" lon="9.9004291"><ele>377.0</ele><time>2026-04-04T13:53:48.981Z</time></trkpt><trkpt lat="44.742361" lon="9.9007095"><ele>375.33333333333337</ele><time>2026-04-04T13:53:49.982Z</time></trkpt><trkpt lat="44.7422802" lon="9.9009693"><ele>373.6666666666667</ele><time>2026-04-04T13:53:50.981Z</time></trkpt><trkpt lat="44.7422228" lon="9.9012046"><ele>372.0</ele><time>2026-04-04T13:53:51.981Z</time></trkpt><trkpt lat="44.7421807" lon="9.9014165"><ele>372.0</ele><time>2026-04-04T13:53:52.981Z</time></trkpt><trkpt lat="44.7421523" lon="9.9015941"><ele>372.0</ele><time>2026-04-04T13:53:53.981Z</time></trkpt><trkpt lat="44.7421066" lon="9.9017421"><ele>372.0</ele><time>2026-04-04T13:53:54.981Z</time></trkpt><trkpt lat="44.742039" lon="9.9018646"><ele>372.0</ele><time>2026-04-04T13:53:55.982Z</time></trkpt><trkpt lat="44.7419431" lon="9.9019804"><ele>374.5</ele><time>2026-04-04T13:53:56.981Z</time></trkpt><trkpt lat="44.741838" lon="9.9021015"><ele>377.0</ele><time>2026-04-04T13:53:57.981Z</time></trkpt><trkpt lat="44.7417549" lon="9.9022628"><ele>379.5</ele><time>2026-04-04T13:53:58.981Z</time></trkpt><trkpt lat="44.7417134" lon="9.9024675"><ele>382.0</ele><time>2026-04-04T13:53:59.981Z</time></trkpt><trkpt lat="44.7416949" lon="9.9026857"><ele>382.0</ele><time>2026-04-04T13:54:00.982Z</time></trkpt><trkpt lat="44.7416815" lon="9.9028889"><ele>382.0</ele><time>2026-04-04T13:54:01.981Z</time></trkpt><trkpt lat="44.741657" lon="9.90308"><ele>382.0</ele><time>2026-04-04T13:54:02.981Z</time></trkpt><trkpt lat="44.7416073" lon="9.9032541"><ele>382.0</ele><time>2026-04-04T13:54:03.981Z</time></trkpt><trkpt lat="44.7415453" lon="9.9034023"><ele>378.25</ele><time>2026-04-04T13:54:04.982Z</time></trkpt><trkpt lat="44.7414693" lon="9.9035352"><ele>374.5</ele><time>2026-04-04T13:54:05.981Z</time></trkpt><trkpt lat="44.7413794" lon="9.9036638"><ele>370.75</ele><time>2026-04-04T13:54:06.981Z</time></trkpt><trkpt lat="44.7412764" lon="9.9037735"><ele>367.0</ele><time>2026-04-04T13:54:07.981Z</time></trkpt><trkpt lat="44.7411627" lon="9.9038701"><ele>367.0</ele><time>2026-04-04T13:54:08.981Z</time></trkpt><trkpt lat="44.7410589" lon="9.903981"><ele>367.0</ele><time>2026-04-04T13:54:09.981Z</time></trkpt><trkpt lat="44.7409681" lon="9.904112"><ele>367.0</ele><time>2026-04-04T13:54:10.981Z</time></trkpt><trkpt lat="44.740884" lon="9.9042712"><ele>367.0</ele><time>2026-04-04T13:54:11.982Z</time></trkpt><trkpt lat="44.7408099" lon="9.9044419"><ele>369.25</ele><time>2026-04-04T13:54:12.982Z</time></trkpt><trkpt lat="44.7407326" lon="9.9046144"><ele>371.5</ele><time>2026-04-04T13:54:13.981Z</time></trkpt><trkpt lat="44.7406588" lon="9.9047898"><ele>373.75</ele><time>2026-04-04T13:54:14.981Z</time></trkpt><trkpt lat="44.7405921" lon="9.9049644"><ele>376.0</ele><time>2026-04-04T13:54:15.982Z</time></trkpt><trkpt lat="44.7405265" lon="9.9051341"><ele>376.0</ele><time>2026-04-04T13:54:16.981Z</time></trkpt><trkpt lat="44.7404707" lon="9.9052886"><ele>376.0</ele><time>2026-04-04T13:54:17.981Z</time></trkpt><trkpt lat="44.7404163" lon="9.9054384"><ele>376.0</ele><time>2026-04-04T13:54:18.981Z</time></trkpt><trkpt lat="44.7403444" lon="9.905583"><ele>376.0</ele><time>2026-04-04T13:54:19.982Z</time></trkpt><trkpt lat="44.7402485" lon="9.9057089"><ele>380.0</ele><time>2026-04-04T13:54:20.981Z</time></trkpt><trkpt lat="44.7401497" lon="9.9058184"><ele>384.0</ele><time>2026-04-04T13:54:21.981Z</time></trkpt><trkpt lat="44.7400438" lon="9.9059506"><ele>388.0</ele><time>2026-04-04T13:54:22.981Z</time></trkpt><trkpt lat="44.739959" lon="9.9061346"><ele>392.0</ele><time>2026-04-04T13:54:23.981Z</time></trkpt><trkpt lat="44.7398981" lon="9.9063503"><ele>392.0</ele><time>2026-04-04T13:54:24.981Z</time></trkpt><trkpt lat="44.7398396" lon="9.9065588"><ele>392.0</ele><time>2026-04-04T13:54:25.981Z</time></trkpt><trkpt lat="44.7397567" lon="9.9067394"><ele>392.0</ele><time>2026-04-04T13:54:26.982Z</time></trkpt><trkpt lat="44.7396585" lon="9.906881"><ele>391.66666666666663</ele><time>2026-04-04T13:54:27.981Z</time></trkpt><trkpt lat="44.7395254" lon="9.9070081"><ele>391.33333333333337</ele><time>2026-04-04T13:54:28.981Z</time></trkpt><trkpt lat="44.7393856" lon="9.9071149"><ele>391.0</ele><time>2026-04-04T13:54:29.982Z</time></trkpt><trkpt lat="44.7392342" lon="9.9072357"><ele>391.0</ele><time>2026-04-04T13:54:30.981Z</time></trkpt><trkpt lat="44.7390814" lon="9.9073921"><ele>391.0</ele><time>2026-04-04T13:54:31.982Z</time></trkpt><trkpt lat="44.7389393" lon="9.907591"><ele>391.0</ele><time>2026-04-04T13:54:32.981Z</time></trkpt><trkpt lat="44.7387991" lon="9.9078057"><ele>392.6666666666667</ele><time>2026-04-04T13:54:33.982Z</time></trkpt><trkpt lat="44.7386495" lon="9.9080175"><ele>394.33333333333337</ele><time>2026-04-04T13:54:34.981Z</time></trkpt><trkpt lat="44.738511" lon="9.9082133"><ele>396.0</ele><time>2026-04-04T13:54:35.981Z</time></trkpt><trkpt lat="44.7383767" lon="9.908395"><ele>393.33333333333337</ele><time>2026-04-04T13:54:36.981Z</time></trkpt><trkpt lat="44.738251" lon="9.9085779"><ele>390.6666666666667</ele><time>2026-04-04T13:54:37.982Z</time></trkpt><trkpt lat="44.7381669" lon="9.908788"><ele>388.0</ele><time>2026-04-04T13:54:38.981Z</time></trkpt><trkpt lat="44.738117" lon="9.9090181"><ele>388.0</ele><time>2026-04-04T13:54:39.981Z</time></trkpt><trkpt lat="44.738065" lon="9.9092344"><ele>388.0</ele><time>2026-04-04T13:54:40.981Z</time></trkpt><trkpt lat="44.7379978" lon="9.90943"><ele>388.0</ele><time>2026-04-04T13:54:41.982Z</time></trkpt><trkpt lat="44.7378928" lon="9.9096173"><ele>387.6666666666667</ele><time>2026-04-04T13:54:42.981Z</time></trkpt><trkpt lat="44.7377721" lon="9.9098089"><ele>387.33333333333337</ele><time>2026-04-04T13:54:43.981Z</time></trkpt><trkpt lat="44.7376483" lon="9.9100085"><ele>387.0</ele><time>2026-04-04T13:54:44.982Z</time></trkpt><trkpt lat="44.7375286" lon="9.9102165"><ele>387.66666666666663</ele><time>2026-04-04T13:54:45.982Z</time></trkpt><trkpt lat="44.7374118" lon="9.9104245"><ele>388.3333333333333</ele><time>2026-04-04T13:54:46.981Z</time></trkpt><trkpt lat="44.7373175" lon="9.9106473"><ele>389.0</ele><time>2026-04-04T13:54:47.981Z</time></trkpt><trkpt lat="44.737242" lon="9.9108883"><ele>387.66666666666663</ele><time>2026-04-04T13:54:48.982Z</time></trkpt><trkpt lat="44.7371935" lon="9.9111319"><ele>386.33333333333337</ele><time>2026-04-04T13:54:49.982Z</time></trkpt><trkpt lat="44.7371652" lon="9.9113608"><ele>385.0</ele><time>2026-04-04T13:54:50.981Z</time></trkpt><trkpt lat="44.7371398" lon="9.9115679"><ele>384.75</ele><time>2026-04-04T13:54:51.982Z</time></trkpt><trkpt lat="44.7370974" lon="9.9117497"><ele>384.5</ele><time>2026-04-04T13:54:52.982Z</time></trkpt><trkpt lat="44.7370389" lon="9.9119223"><ele>384.25</ele><time>2026-04-04T13:54:53.982Z</time></trkpt><trkpt lat="44.7369636" lon="9.9120961"><ele>384.0</ele><time>2026-04-04T13:54:54.981Z</time></trkpt><trkpt lat="44.7368784" lon="9.9122869"><ele>386.33333333333337</ele><time>2026-04-04T13:54:55.981Z</time></trkpt><trkpt lat="44.7367977" lon="9.9124932"><ele>388.6666666666667</ele><time>2026-04-04T13:54:56.982Z</time></trkpt><trkpt lat="44.7367263" lon="9.9127083"><ele>391.0</ele><time>2026-04-04T13:54:57.981Z</time></trkpt><trkpt lat="44.7366744" lon="9.9129293"><ele>391.0</ele><time>2026-04-04T13:54:58.981Z</time></trkpt><trkpt lat="44.7366358" lon="9.9131388"><ele>391.0</ele><time>2026-04-04T13:54:59.981Z</time></trkpt><trkpt lat="44.7365775" lon="9.9133406"><ele>391.0</ele><time>2026-04-04T13:55:00.982Z</time></trkpt><trkpt lat="44.7364824" lon="9.9135341"><ele>390.0</ele><time>2026-04-04T13:55:01.981Z</time></trkpt><trkpt lat="44.7363596" lon="9.9137301"><ele>389.0</ele><time>2026-04-04T13:55:02.981Z</time></trkpt><trkpt lat="44.7362398" lon="9.9139377"><ele>388.0</ele><time>2026-04-04T13:55:03.981Z</time></trkpt><trkpt lat="44.7361288" lon="9.9141751"><ele>391.6666666666667</ele><time>2026-04-04T13:55:04.982Z</time></trkpt><trkpt lat="44.7360439" lon="9.914419"><ele>395.33333333333337</ele><time>2026-04-04T13:55:05.981Z</time></trkpt><trkpt lat="44.7359928" lon="9.9146826"><ele>399.0</ele><time>2026-04-04T13:55:06.981Z</time></trkpt><trkpt lat="44.7359681" lon="9.9149623"><ele>399.0</ele><time>2026-04-04T13:55:07.982Z</time></trkpt><trkpt lat="44.7359665" lon="9.9152432"><ele>399.0</ele><time>2026-04-04T13:55:08.981Z</time></trkpt><trkpt lat="44.7359641" lon="9.9155107"><ele>399.0</ele><time>2026-04-04T13:55:09.982Z</time></trkpt><trkpt lat="44.7359581" lon="9.9157672"><ele>400.0</ele><time>2026-04-04T13:55:10.981Z</time></trkpt><trkpt lat="44.7359554" lon="9.9160235"><ele>401.0</ele><time>2026-04-04T13:55:11.981Z</time></trkpt><trkpt lat="44.7359759" lon="9.9162766"><ele>402.0</ele><time>2026-04-04T13:55:12.981Z</time></trkpt><trkpt lat="44.7360167" lon="9.9165259"><ele>401.33333333333337</ele><time>2026-04-04T13:55:13.981Z</time></trkpt><trkpt lat="44.7360722" lon="9.9167715"><ele>400.6666666666667</ele><time>2026-04-04T13:55:14.981Z</time></trkpt><trkpt lat="44.7361524" lon="9.9170125"><ele>400.0</ele><time>2026-04-04T13:55:15.982Z</time></trkpt><trkpt lat="44.7362337" lon="9.9172357"><ele>400.0</ele><time>2026-04-04T13:55:16.982Z</time></trkpt><trkpt lat="44.7363023" lon="9.9174465"><ele>400.0</ele><time>2026-04-04T13:55:17.981Z</time></trkpt><trkpt lat="44.7363586" lon="9.9176604"><ele>400.0</ele><time>2026-04-04T13:55:18.981Z</time></trkpt><trkpt lat="44.7364041" lon="9.9178874"><ele>400.6666666666667</ele><time>2026-04-04T13:55:19.982Z</time></trkpt><trkpt lat="44.7364362" lon="9.918122"><ele>401.33333333333337</ele><time>2026-04-04T13:55:20.982Z</time></trkpt><trkpt lat="44.7364568" lon="9.9183778"><ele>402.0</ele><time>2026-04-04T13:55:21.982Z</time></trkpt><trkpt lat="44.7364822" lon="9.9186408"><ele>402.0</ele><time>2026-04-04T13:55:22.982Z</time></trkpt><trkpt lat="44.7365091" lon="9.9188982"><ele>402.0</ele><time>2026-04-04T13:55:23.982Z</time></trkpt><trkpt lat="44.7365243" lon="9.9191537"><ele>402.0</ele><time>2026-04-04T13:55:24.982Z</time></trkpt><trkpt lat="44.7365178" lon="9.9194091"><ele>402.33333333333337</ele><time>2026-04-04T13:55:25.982Z</time></trkpt><trkpt lat="44.7364897" lon="9.9196535"><ele>402.6666666666667</ele><time>2026-04-04T13:55:26.981Z</time></trkpt><trkpt lat="44.736431" lon="9.9199014"><ele>403.0</ele><time>2026-04-04T13:55:27.982Z</time></trkpt><trkpt lat="44.7363611" lon="9.9201458"><ele>403.33333333333337</ele><time>2026-04-04T13:55:28.981Z</time></trkpt><trkpt lat="44.736293" lon="9.920402"><ele>403.66666666666663</ele><time>2026-04-04T13:55:29.982Z</time></trkpt><trkpt lat="44.7362183" lon="9.9206518"><ele>404.0</ele><time>2026-04-04T13:55:30.981Z</time></trkpt><trkpt lat="44.7361442" lon="9.9209042"><ele>403.3333333333333</ele><time>2026-04-04T13:55:31.982Z</time></trkpt><trkpt lat="44.7360739" lon="9.9211541"><ele>402.66666666666663</ele><time>2026-04-04T13:55:32.982Z</time></trkpt><trkpt lat="44.7360125" lon="9.9213928"><ele>402.0</ele><time>2026-04-04T13:55:33.981Z</time></trkpt><trkpt lat="44.7359545" lon="9.9216204"><ele>402.0</ele><time>2026-04-04T13:55:34.982Z</time></trkpt><trkpt lat="44.7358982" lon="9.9218331"><ele>402.0</ele><time>2026-04-04T13:55:35.981Z</time></trkpt><trkpt lat="44.735851" lon="9.9220299"><ele>402.0</ele><time>2026-04-04T13:55:36.981Z</time></trkpt><trkpt lat="44.735807" lon="9.9222126"><ele>402.0</ele><time>2026-04-04T13:55:37.982Z</time></trkpt><trkpt lat="44.7357652" lon="9.9223811"><ele>402.0</ele><time>2026-04-04T13:55:38.981Z</time></trkpt><trkpt lat="44.7357205" lon="9.9225349"><ele>402.0</ele><time>2026-04-04T13:55:39.981Z</time></trkpt><trkpt lat="44.7356724" lon="9.9226764"><ele>402.0</ele><time>2026-04-04T13:55:40.982Z</time></trkpt><trkpt lat="44.7355985" lon="9.9228064"><ele>402.0</ele><time>2026-04-04T13:55:41.981Z</time></trkpt><trkpt lat="44.7354985" lon="9.9229183"><ele>401.66666666666663</ele><time>2026-04-04T13:55:42.981Z</time></trkpt><trkpt lat="44.7353643" lon="9.9230032"><ele>401.3333333333333</ele><time>2026-04-04T13:55:43.981Z</time></trkpt><trkpt lat="44.7352035" lon="9.9230586"><ele>401.0</ele><time>2026-04-04T13:55:44.981Z</time></trkpt><trkpt lat="44.7350433" lon="9.9231082"><ele>401.0</ele><time>2026-04-04T13:55:45.981Z</time></trkpt><trkpt lat="44.7348991" lon="9.9231642"><ele>401.0</ele><time>2026-04-04T13:55:46.981Z</time></trkpt><trkpt lat="44.7347779" lon="9.923247"><ele>401.0</ele><time>2026-04-04T13:55:47.981Z</time></trkpt><trkpt lat="44.7346741" lon="9.9233549"><ele>401.0</ele><time>2026-04-04T13:55:48.981Z</time></trkpt><trkpt lat="44.7345899" lon="9.9234758"><ele>401.25</ele><time>2026-04-04T13:55:49.982Z</time></trkpt><trkpt lat="44.7345273" lon="9.9236134"><ele>401.5</ele><time>2026-04-04T13:55:50.981Z</time></trkpt><trkpt lat="44.7344718" lon="9.9237559"><ele>401.75</ele><time>2026-04-04T13:55:51.981Z</time></trkpt><trkpt lat="44.7344081" lon="9.92389"><ele>402.0</ele><time>2026-04-04T13:55:52.982Z</time></trkpt><trkpt lat="44.7343398" lon="9.9240045"><ele>402.6666666666667</ele><time>2026-04-04T13:55:53.982Z</time></trkpt><trkpt lat="44.7342658" lon="9.924085"><ele>403.33333333333337</ele><time>2026-04-04T13:55:54.981Z</time></trkpt><trkpt lat="44.7341905" lon="9.9241355"><ele>404.0</ele><time>2026-04-04T13:55:55.981Z</time></trkpt><trkpt lat="44.7341204" lon="9.9241493"><ele>404.6666666666667</ele><time>2026-04-04T13:55:56.981Z</time></trkpt><trkpt lat="44.734053" lon="9.9241146"><ele>405.33333333333337</ele><time>2026-04-04T13:55:57.981Z</time></trkpt><trkpt lat="44.7339828" lon="9.924039"><ele>406.0</ele><time>2026-04-04T13:55:58.982Z</time></trkpt><trkpt lat="44.7339165" lon="9.9239316"><ele>406.0</ele><time>2026-04-04T13:55:59.981Z</time></trkpt><trkpt lat="44.7338324" lon="9.9238165"><ele>406.0</ele><time>2026-04-04T13:56:00.981Z</time></trkpt><trkpt lat="44.7337324" lon="9.9237293"><ele>406.0</ele><time>2026-04-04T13:56:01.982Z</time></trkpt><trkpt lat="44.7336219" lon="9.9236781"><ele>406.0</ele><time>2026-04-04T13:56:02.981Z</time></trkpt><trkpt lat="44.7334997" lon="9.9236557"><ele>406.75</ele><time>2026-04-04T13:56:03.981Z</time></trkpt><trkpt lat="44.7333737" lon="9.9236698"><ele>407.5</ele><time>2026-04-04T13:56:04.981Z</time></trkpt><trkpt lat="44.7332512" lon="9.923732"><ele>408.25</ele><time>2026-04-04T13:56:05.981Z</time></trkpt><trkpt lat="44.7331303" lon="9.9238285"><ele>409.0</ele><time>2026-04-04T13:56:06.982Z</time></trkpt><trkpt lat="44.7330034" lon="9.9239399"><ele>409.0</ele><time>2026-04-04T13:56:07.981Z</time></trkpt><trkpt lat="44.7328802" lon="9.9240524"><ele>409.0</ele><time>2026-04-04T13:56:08.981Z</time></trkpt><trkpt lat="44.7327563" lon="9.9241645"><ele>409.0</ele><time>2026-04-04T13:56:09.981Z</time></trkpt><trkpt lat="44.7326375" lon="9.9242733"><ele>409.0</ele><time>2026-04-04T13:56:10.981Z</time></trkpt><trkpt lat="44.7325263" lon="9.9243689"><ele>409.79999999999995</ele><time>2026-04-04T13:56:11.981Z</time></trkpt><trkpt lat="44.7324248" lon="9.9244484"><ele>410.59999999999997</ele><time>2026-04-04T13:56:12.981Z</time></trkpt><trkpt lat="44.7323334" lon="9.9245032"><ele>411.4</ele><time>2026-04-04T13:56:13.981Z</time></trkpt><trkpt lat="44.732239" lon="9.9245257"><ele>412.2</ele><time>2026-04-04T13:56:14.981Z</time></trkpt><trkpt lat="44.7321437" lon="9.9245249"><ele>413.0</ele><time>2026-04-04T13:56:15.982Z</time></trkpt><trkpt lat="44.7320549" lon="9.9245221"><ele>412.99999999999994</ele><time>2026-04-04T13:56:16.981Z</time></trkpt><trkpt lat="44.7319813" lon="9.9245336"><ele>413.0</ele><time>2026-04-04T13:56:17.982Z</time></trkpt><trkpt lat="44.7319231" lon="9.9245811"><ele>413.0</ele><time>2026-04-04T13:56:18.982Z</time></trkpt><trkpt lat="44.7318702" lon="9.9246679"><ele>413.0</ele><time>2026-04-04T13:56:19.981Z</time></trkpt><trkpt lat="44.7318368" lon="9.9247954"><ele>412.99999999999994</ele><time>2026-04-04T13:56:20.981Z</time></trkpt><trkpt lat="44.7318225" lon="9.9249656"><ele>413.0</ele><time>2026-04-04T13:56:21.981Z</time></trkpt><trkpt lat="44.7318086" lon="9.9251663"><ele>415.66666666666663</ele><time>2026-04-04T13:56:22.981Z</time></trkpt><trkpt lat="44.731778" lon="9.9253785"><ele>418.33333333333337</ele><time>2026-04-04T13:56:23.981Z</time></trkpt><trkpt lat="44.7317369" lon="9.925591"><ele>421.0</ele><time>2026-04-04T13:56:24.981Z</time></trkpt><trkpt lat="44.7316879" lon="9.9257949"><ele>420.0</ele><time>2026-04-04T13:56:25.981Z</time></trkpt><trkpt lat="44.7316425" lon="9.9259899"><ele>419.0</ele><time>2026-04-04T13:56:26.982Z</time></trkpt><trkpt lat="44.7315987" lon="9.9261742"><ele>418.0</ele><time>2026-04-04T13:56:27.981Z</time></trkpt><trkpt lat="44.7315579" lon="9.9263457"><ele>417.0</ele><time>2026-04-04T13:56:28.981Z</time></trkpt><trkpt lat="44.7315186" lon="9.9265154"><ele>417.0</ele><time>2026-04-04T13:56:29.981Z</time></trkpt><trkpt lat="44.73148" lon="9.9266784"><ele>417.0</ele><time>2026-04-04T13:56:30.981Z</time></trkpt><trkpt lat="44.7314455" lon="9.9268311"><ele>417.0</ele><time>2026-04-04T13:56:31.982Z</time></trkpt><trkpt lat="44.7314109" lon="9.9269762"><ele>417.0</ele><time>2026-04-04T13:56:32.981Z</time></trkpt><trkpt lat="44.7313855" lon="9.9271134"><ele>417.0</ele><time>2026-04-04T13:56:33.981Z</time></trkpt><trkpt lat="44.7313679" lon="9.9272403"><ele>416.8</ele><time>2026-04-04T13:56:34.981Z</time></trkpt><trkpt lat="44.7313733" lon="9.9273704"><ele>416.6</ele><time>2026-04-04T13:56:35.981Z</time></trkpt><trkpt lat="44.7314047" lon="9.9275002"><ele>416.40000000000003</ele><time>2026-04-04T13:56:36.982Z</time></trkpt><trkpt lat="44.7314614" lon="9.9276263"><ele>416.20000000000005</ele><time>2026-04-04T13:56:37.981Z</time></trkpt><trkpt lat="44.7315387" lon="9.9277491"><ele>416.0</ele><time>2026-04-04T13:56:38.981Z</time></trkpt><trkpt lat="44.7316134" lon="9.9278451"><ele>415.99999999999994</ele><time>2026-04-04T13:56:39.982Z</time></trkpt><trkpt lat="44.7316781" lon="9.9279422"><ele>416.0</ele><time>2026-04-04T13:56:40.981Z</time></trkpt><trkpt lat="44.7317359" lon="9.9280369"><ele>416.0</ele><time>2026-04-04T13:56:41.981Z</time></trkpt><trkpt lat="44.7317827" lon="9.9281162"><ele>416.0</ele><time>2026-04-04T13:56:42.981Z</time></trkpt><trkpt lat="44.7318208" lon="9.9282398"><ele>415.99999999999994</ele><time>2026-04-04T13:56:44.982Z</time></trkpt><trkpt lat="44.7317738" lon="9.9283474"><ele>416.0</ele><time>2026-04-04T13:56:46.981Z</time></trkpt><trkpt lat="44.7317143" lon="9.928412"><ele>417.20000000000005</ele><time>2026-04-04T13:56:47.982Z</time></trkpt><trkpt lat="44.7316435" lon="9.9284912"><ele>418.40000000000003</ele><time>2026-04-04T13:56:48.981Z</time></trkpt><trkpt lat="44.7315741" lon="9.9285869"><ele>419.6</ele><time>2026-04-04T13:56:49.982Z</time></trkpt><trkpt lat="44.7314899" lon="9.9286938"><ele>420.8</ele><time>2026-04-04T13:56:50.982Z</time></trkpt><trkpt lat="44.73141" lon="9.9288143"><ele>422.0</ele><time>2026-04-04T13:56:51.981Z</time></trkpt><trkpt lat="44.7313296" lon="9.9289542"><ele>422.0</ele><time>2026-04-04T13:56:52.982Z</time></trkpt><trkpt lat="44.7312511" lon="9.929111"><ele>422.0</ele><time>2026-04-04T13:56:53.981Z</time></trkpt><trkpt lat="44.7311776" lon="9.9292711"><ele>422.0</ele><time>2026-04-04T13:56:54.981Z</time></trkpt><trkpt lat="44.7311075" lon="9.9294441"><ele>422.0</ele><time>2026-04-04T13:56:55.982Z</time></trkpt><trkpt lat="44.7310308" lon="9.9296135"><ele>422.75</ele><time>2026-04-04T13:56:56.981Z</time></trkpt><trkpt lat="44.7309574" lon="9.9297765"><ele>423.5</ele><time>2026-04-04T13:56:57.981Z</time></trkpt><trkpt lat="44.7308838" lon="9.9299424"><ele>424.25</ele><time>2026-04-04T13:56:58.981Z</time></trkpt><trkpt lat="44.730808" lon="9.9301068"><ele>425.0</ele><time>2026-04-04T13:56:59.981Z</time></trkpt><trkpt lat="44.7307331" lon="9.9302729"><ele>425.75</ele><time>2026-04-04T13:57:00.981Z</time></trkpt><trkpt lat="44.7306631" lon="9.9304329"><ele>426.5</ele><time>2026-04-04T13:57:01.982Z</time></trkpt><trkpt lat="44.7305858" lon="9.9305875"><ele>427.25</ele><time>2026-04-04T13:57:02.981Z</time></trkpt><trkpt lat="44.7305153" lon="9.9307448"><ele>428.0</ele><time>2026-04-04T13:57:03.981Z</time></trkpt><trkpt lat="44.7304417" lon="9.930903"><ele>428.25</ele><time>2026-04-04T13:57:04.982Z</time></trkpt><trkpt lat="44.7303715" lon="9.9310588"><ele>428.5</ele><time>2026-04-04T13:57:05.981Z</time></trkpt><trkpt lat="44.7302995" lon="9.9312125"><ele>428.75</ele><time>2026-04-04T13:57:06.981Z</time></trkpt><trkpt lat="44.7302208" lon="9.9313664"><ele>429.0</ele><time>2026-04-04T13:57:07.982Z</time></trkpt><trkpt lat="44.7301368" lon="9.9315142"><ele>429.0</ele><time>2026-04-04T13:57:08.982Z</time></trkpt><trkpt lat="44.7300587" lon="9.9316782"><ele>429.0</ele><time>2026-04-04T13:57:09.981Z</time></trkpt><trkpt lat="44.7299754" lon="9.9318444"><ele>429.0</ele><time>2026-04-04T13:57:10.982Z</time></trkpt><trkpt lat="44.7298893" lon="9.9320118"><ele>429.0</ele><time>2026-04-04T13:57:11.981Z</time></trkpt><trkpt lat="44.7297974" lon="9.9321855"><ele>430.33333333333337</ele><time>2026-04-04T13:57:12.982Z</time></trkpt><trkpt lat="44.7296973" lon="9.932365"><ele>431.6666666666667</ele><time>2026-04-04T13:57:13.982Z</time></trkpt><trkpt lat="44.729602" lon="9.9325506"><ele>433.0</ele><time>2026-04-04T13:57:14.981Z</time></trkpt><trkpt lat="44.7295036" lon="9.9327382"><ele>431.6666666666667</ele><time>2026-04-04T13:57:15.981Z</time></trkpt><trkpt lat="44.729404" lon="9.9329281"><ele>430.33333333333337</ele><time>2026-04-04T13:57:16.982Z</time></trkpt><trkpt lat="44.7293075" lon="9.9331226"><ele>429.0</ele><time>2026-04-04T13:57:17.982Z</time></trkpt><trkpt lat="44.7292059" lon="9.9333189"><ele>430.33333333333337</ele><time>2026-04-04T13:57:18.981Z</time></trkpt><trkpt lat="44.7291001" lon="9.9335204"><ele>431.6666666666667</ele><time>2026-04-04T13:57:19.982Z</time></trkpt><trkpt lat="44.7289972" lon="9.9337185"><ele>433.0</ele><time>2026-04-04T13:57:20.981Z</time></trkpt><trkpt lat="44.7288941" lon="9.9339072"><ele>433.0</ele><time>2026-04-04T13:57:21.981Z</time></trkpt><trkpt lat="44.7287898" lon="9.9341057"><ele>433.0</ele><time>2026-04-04T13:57:22.981Z</time></trkpt><trkpt lat="44.7286877" lon="9.9342956"><ele>433.0</ele><time>2026-04-04T13:57:23.981Z</time></trkpt><trkpt lat="44.7285899" lon="9.9344727"><ele>432.75</ele><time>2026-04-04T13:57:24.981Z</time></trkpt><trkpt lat="44.7284934" lon="9.9346403"><ele>432.5</ele><time>2026-04-04T13:57:25.981Z</time></trkpt><trkpt lat="44.7284012" lon="9.9348007"><ele>432.25</ele><time>2026-04-04T13:57:26.982Z</time></trkpt><trkpt lat="44.7283109" lon="9.9349538"><ele>432.0</ele><time>2026-04-04T13:57:27.981Z</time></trkpt><trkpt lat="44.7282169" lon="9.9350918"><ele>435.25</ele><time>2026-04-04T13:57:28.981Z</time></trkpt><trkpt lat="44.7281173" lon="9.9352122"><ele>438.5</ele><time>2026-04-04T13:57:29.982Z</time></trkpt><trkpt lat="44.7280062" lon="9.9353025"><ele>441.75</ele><time>2026-04-04T13:57:30.981Z</time></trkpt><trkpt lat="44.7278885" lon="9.9353714"><ele>445.0</ele><time>2026-04-04T13:57:31.981Z</time></trkpt><trkpt lat="44.7277679" lon="9.9354146"><ele>441.5</ele><time>2026-04-04T13:57:32.981Z</time></trkpt><trkpt lat="44.727634" lon="9.9354487"><ele>438.0</ele><time>2026-04-04T13:57:33.981Z</time></trkpt><trkpt lat="44.727497" lon="9.9354793"><ele>434.5</ele><time>2026-04-04T13:57:34.982Z</time></trkpt><trkpt lat="44.7273583" lon="9.9355232"><ele>431.0</ele><time>2026-04-04T13:57:35.981Z</time></trkpt><trkpt lat="44.7272277" lon="9.9355712"><ele>431.0</ele><time>2026-04-04T13:57:36.981Z</time></trkpt><trkpt lat="44.7270876" lon="9.9356154"><ele>431.0</ele><time>2026-04-04T13:57:37.981Z</time></trkpt><trkpt lat="44.7269471" lon="9.9356583"><ele>431.0</ele><time>2026-04-04T13:57:38.981Z</time></trkpt><trkpt lat="44.7268075" lon="9.9356979"><ele>431.0</ele><time>2026-04-04T13:57:39.981Z</time></trkpt><trkpt lat="44.7266744" lon="9.9357345"><ele>431.0</ele><time>2026-04-04T13:57:40.981Z</time></trkpt><trkpt lat="44.7265383" lon="9.93578"><ele>431.0</ele><time>2026-04-04T13:57:41.981Z</time></trkpt><trkpt lat="44.7263978" lon="9.9358293"><ele>431.0</ele><time>2026-04-04T13:57:42.981Z</time></trkpt><trkpt lat="44.7262537" lon="9.9358751"><ele>431.0</ele><time>2026-04-04T13:57:43.981Z</time></trkpt><trkpt lat="44.7261095" lon="9.9359225"><ele>431.25</ele><time>2026-04-04T13:57:44.981Z</time></trkpt><trkpt lat="44.7259668" lon="9.935972"><ele>431.5</ele><time>2026-04-04T13:57:45.981Z</time></trkpt><trkpt lat="44.7258187" lon="9.9360198"><ele>431.75</ele><time>2026-04-04T13:57:46.981Z</time></trkpt><trkpt lat="44.7256754" lon="9.9360723"><ele>432.0</ele><time>2026-04-04T13:57:47.982Z</time></trkpt><trkpt lat="44.7255306" lon="9.9361252"><ele>432.0</ele><time>2026-04-04T13:57:48.981Z</time></trkpt><trkpt lat="44.7253856" lon="9.9361846"><ele>432.0</ele><time>2026-04-04T13:57:49.982Z</time></trkpt><trkpt lat="44.725247" lon="9.9362575"><ele>432.0</ele><time>2026-04-04T13:57:50.981Z</time></trkpt><trkpt lat="44.7251079" lon="9.9363419"><ele>433.0</ele><time>2026-04-04T13:57:51.982Z</time></trkpt><trkpt lat="44.7249758" lon="9.9364298"><ele>434.0</ele><time>2026-04-04T13:57:52.981Z</time></trkpt><trkpt lat="44.7248368" lon="9.9365088"><ele>435.0</ele><time>2026-04-04T13:57:53.982Z</time></trkpt><trkpt lat="44.724697" lon="9.9365922"><ele>436.0</ele><time>2026-04-04T13:57:54.981Z</time></trkpt><trkpt lat="44.724559" lon="9.936675"><ele>436.33333333333337</ele><time>2026-04-04T13:57:55.982Z</time></trkpt><trkpt lat="44.7244135" lon="9.9367685"><ele>436.66666666666663</ele><time>2026-04-04T13:57:56.981Z</time></trkpt><trkpt lat="44.7242545" lon="9.9368535"><ele>437.0</ele><time>2026-04-04T13:57:57.982Z</time></trkpt><trkpt lat="44.7240793" lon="9.9369277"><ele>438.66666666666663</ele><time>2026-04-04T13:57:58.981Z</time></trkpt><trkpt lat="44.7239004" lon="9.9369848"><ele>440.33333333333337</ele><time>2026-04-04T13:57:59.982Z</time></trkpt><trkpt lat="44.7237247" lon="9.9370214"><ele>442.0</ele><time>2026-04-04T13:58:00.982Z</time></trkpt><trkpt lat="44.7235491" lon="9.937047"><ele>444.33333333333337</ele><time>2026-04-04T13:58:01.981Z</time></trkpt><trkpt lat="44.7233774" lon="9.9370676"><ele>446.66666666666663</ele><time>2026-04-04T13:58:02.981Z</time></trkpt><trkpt lat="44.7232083" lon="9.937092"><ele>449.0</ele><time>2026-04-04T13:58:03.981Z</time></trkpt><trkpt lat="44.7230425" lon="9.9371193"><ele>449.0</ele><time>2026-04-04T13:58:04.981Z</time></trkpt><trkpt lat="44.7228777" lon="9.9371525"><ele>449.0</ele><time>2026-04-04T13:58:05.981Z</time></trkpt><trkpt lat="44.7227119" lon="9.9371804"><ele>449.0</ele><time>2026-04-04T13:58:06.981Z</time></trkpt><trkpt lat="44.7225485" lon="9.9372048"><ele>449.0</ele><time>2026-04-04T13:58:07.982Z</time></trkpt><trkpt lat="44.7223966" lon="9.9372268"><ele>449.0</ele><time>2026-04-04T13:58:08.981Z</time></trkpt><trkpt lat="44.7222652" lon="9.9372449"><ele>449.0</ele><time>2026-04-04T13:58:09.981Z</time></trkpt><trkpt lat="44.722158" lon="9.9372608"><ele>449.0</ele><time>2026-04-04T13:58:10.981Z</time></trkpt><trkpt lat="44.7220746" lon="9.9372991"><ele>449.0</ele><time>2026-04-04T13:58:11.981Z</time></trkpt><trkpt lat="44.7220119" lon="9.9373711"><ele>449.0</ele><time>2026-04-04T13:58:12.981Z</time></trkpt><trkpt lat="44.7219733" lon="9.937468"><ele>449.0</ele><time>2026-04-04T13:58:13.981Z</time></trkpt><trkpt lat="44.7219643" lon="9.9375826"><ele>449.0</ele><time>2026-04-04T13:58:14.981Z</time></trkpt><trkpt lat="44.7220006" lon="9.9377234"><ele>449.0</ele><time>2026-04-04T13:58:15.981Z</time></trkpt><trkpt lat="44.7220898" lon="9.9378819"><ele>452.0</ele><time>2026-04-04T13:58:16.982Z</time></trkpt><trkpt lat="44.7222403" lon="9.9380601"><ele>455.0</ele><time>2026-04-04T13:58:17.981Z</time></trkpt><trkpt lat="44.7223859" lon="9.938228"><ele>458.0</ele><time>2026-04-04T13:58:18.981Z</time></trkpt><trkpt lat="44.722517" lon="9.9383865"><ele>458.0</ele><time>2026-04-04T13:58:19.981Z</time></trkpt><trkpt lat="44.7226424" lon="9.9385463"><ele>458.0</ele><time>2026-04-04T13:58:20.981Z</time></trkpt><trkpt lat="44.7227622" lon="9.9387185"><ele>458.0</ele><time>2026-04-04T13:58:21.981Z</time></trkpt><trkpt lat="44.7228787" lon="9.9388876"><ele>458.0</ele><time>2026-04-04T13:58:22.981Z</time></trkpt><trkpt lat="44.7229904" lon="9.9390436"><ele>458.0</ele><time>2026-04-04T13:58:23.981Z</time></trkpt><trkpt lat="44.7230978" lon="9.9392054"><ele>458.0</ele><time>2026-04-04T13:58:24.981Z</time></trkpt><trkpt lat="44.7232063" lon="9.9393597"><ele>460.5</ele><time>2026-04-04T13:58:25.981Z</time></trkpt><trkpt lat="44.723307" lon="9.9394983"><ele>463.0</ele><time>2026-04-04T13:58:26.982Z</time></trkpt><trkpt lat="44.7233931" lon="9.9396224"><ele>465.5</ele><time>2026-04-04T13:58:27.982Z</time></trkpt><trkpt lat="44.7234643" lon="9.9397462"><ele>468.0</ele><time>2026-04-04T13:58:28.981Z</time></trkpt><trkpt lat="44.7235215" lon="9.9398662"><ele>468.0</ele><time>2026-04-04T13:58:29.981Z</time></trkpt><trkpt lat="44.723556" lon="9.9400041"><ele>468.0</ele><time>2026-04-04T13:58:30.981Z</time></trkpt><trkpt lat="44.723559" lon="9.9401553"><ele>468.0</ele><time>2026-04-04T13:58:31.982Z</time></trkpt><trkpt lat="44.7235057" lon="9.9403259"><ele>468.0</ele><time>2026-04-04T13:58:32.982Z</time></trkpt><trkpt lat="44.7233995" lon="9.9405019"><ele>468.0</ele><time>2026-04-04T13:58:33.981Z</time></trkpt><trkpt lat="44.7232696" lon="9.9406749"><ele>468.0</ele><time>2026-04-04T13:58:34.982Z</time></trkpt><trkpt lat="44.7231367" lon="9.9408553"><ele>468.0</ele><time>2026-04-04T13:58:35.981Z</time></trkpt><trkpt lat="44.7230433" lon="9.9410582"><ele>467.66666666666663</ele><time>2026-04-04T13:58:36.982Z</time></trkpt><trkpt lat="44.7229696" lon="9.941292"><ele>467.3333333333333</ele><time>2026-04-04T13:58:37.982Z</time></trkpt><trkpt lat="44.7229227" lon="9.9415395"><ele>467.0</ele><time>2026-04-04T13:58:38.981Z</time></trkpt><trkpt lat="44.7228804" lon="9.94179"><ele>468.0</ele><time>2026-04-04T13:58:39.982Z</time></trkpt><trkpt lat="44.7228442" lon="9.9420354"><ele>469.0</ele><time>2026-04-04T13:58:40.981Z</time></trkpt><trkpt lat="44.7227987" lon="9.9422761"><ele>470.0</ele><time>2026-04-04T13:58:41.982Z</time></trkpt><trkpt lat="44.7227417" lon="9.9425239"><ele>477.0</ele><time>2026-04-04T13:58:42.981Z</time></trkpt><trkpt lat="44.7226828" lon="9.9427773"><ele>484.0</ele><time>2026-04-04T13:58:43.982Z</time></trkpt><trkpt lat="44.7226272" lon="9.9430314"><ele>491.0</ele><time>2026-04-04T13:58:44.981Z</time></trkpt><trkpt lat="44.722574" lon="9.9432878"><ele>490.66666666666663</ele><time>2026-04-04T13:58:45.981Z</time></trkpt><trkpt lat="44.7225242" lon="9.9435406"><ele>490.33333333333337</ele><time>2026-04-04T13:58:46.982Z</time></trkpt><trkpt lat="44.7224688" lon="9.94379"><ele>490.0</ele><time>2026-04-04T13:58:47.981Z</time></trkpt><trkpt lat="44.7224094" lon="9.9440422"><ele>491.33333333333337</ele><time>2026-04-04T13:58:48.981Z</time></trkpt><trkpt lat="44.7223545" lon="9.9442868"><ele>492.66666666666663</ele><time>2026-04-04T13:58:49.981Z</time></trkpt><trkpt lat="44.7222948" lon="9.9445076"><ele>494.0</ele><time>2026-04-04T13:58:50.981Z</time></trkpt><trkpt lat="44.7222322" lon="9.9446986"><ele>494.0</ele><time>2026-04-04T13:58:51.982Z</time></trkpt><trkpt lat="44.7221425" lon="9.9448541"><ele>494.0</ele><time>2026-04-04T13:58:52.981Z</time></trkpt><trkpt lat="44.7220222" lon="9.9449806"><ele>494.0</ele><time>2026-04-04T13:58:53.981Z</time></trkpt><trkpt lat="44.7218743" lon="9.9450848"><ele>494.0</ele><time>2026-04-04T13:58:54.981Z</time></trkpt><trkpt lat="44.7217201" lon="9.9451847"><ele>494.0</ele><time>2026-04-04T13:58:55.982Z</time></trkpt><trkpt lat="44.7215761" lon="9.945286"><ele>494.0</ele><time>2026-04-04T13:58:56.981Z</time></trkpt><trkpt lat="44.7214594" lon="9.9453932"><ele>494.0</ele><time>2026-04-04T13:58:57.982Z</time></trkpt><trkpt lat="44.7213688" lon="9.9455096"><ele>494.0</ele><time>2026-04-04T13:58:58.981Z</time></trkpt><trkpt lat="44.7213175" lon="9.9456589"><ele>494.0</ele><time>2026-04-04T13:58:59.981Z</time></trkpt><trkpt lat="44.7213041" lon="9.945845"><ele>494.0</ele><time>2026-04-04T13:59:00.982Z</time></trkpt><trkpt lat="44.7213268" lon="9.9460606"><ele>494.0</ele><time>2026-04-04T13:59:01.981Z</time></trkpt><trkpt lat="44.7213794" lon="9.9462715"><ele>494.0</ele><time>2026-04-04T13:59:02.981Z</time></trkpt><trkpt lat="44.7214558" lon="9.9464703"><ele>494.0</ele><time>2026-04-04T13:59:03.981Z</time></trkpt><trkpt lat="44.7215476" lon="9.9466676"><ele>492.0</ele><time>2026-04-04T13:59:04.981Z</time></trkpt><trkpt lat="44.7216387" lon="9.9468465"><ele>490.0</ele><time>2026-04-04T13:59:05.981Z</time></trkpt><trkpt lat="44.7216938" lon="9.9470497"><ele>488.0</ele><time>2026-04-04T13:59:06.981Z</time></trkpt><trkpt lat="44.7217123" lon="9.9472785"><ele>488.0</ele><time>2026-04-04T13:59:07.981Z</time></trkpt><trkpt lat="44.7217125" lon="9.9475331"><ele>488.0</ele><time>2026-04-04T13:59:08.982Z</time></trkpt><trkpt lat="44.7217182" lon="9.94779"><ele>488.0</ele><time>2026-04-04T13:59:09.982Z</time></trkpt><trkpt lat="44.7217258" lon="9.9480304"><ele>487.66666666666663</ele><time>2026-04-04T13:59:10.982Z</time></trkpt><trkpt lat="44.721751" lon="9.9482525"><ele>487.33333333333337</ele><time>2026-04-04T13:59:11.981Z</time></trkpt><trkpt lat="44.7218058" lon="9.9484641"><ele>487.0</ele><time>2026-04-04T13:59:12.981Z</time></trkpt><trkpt lat="44.7218881" lon="9.9486446"><ele>493.0</ele><time>2026-04-04T13:59:13.982Z</time></trkpt><trkpt lat="44.7219911" lon="9.9488126"><ele>499.0</ele><time>2026-04-04T13:59:14.981Z</time></trkpt><trkpt lat="44.7220805" lon="9.9489774"><ele>505.0</ele><time>2026-04-04T13:59:15.981Z</time></trkpt><trkpt lat="44.7221453" lon="9.9491597"><ele>504.6666666666667</ele><time>2026-04-04T13:59:16.981Z</time></trkpt><trkpt lat="44.7221745" lon="9.9493664"><ele>504.33333333333337</ele><time>2026-04-04T13:59:17.981Z</time></trkpt><trkpt lat="44.7221455" lon="9.9495961"><ele>504.0</ele><time>2026-04-04T13:59:18.982Z</time></trkpt><trkpt lat="44.7220774" lon="9.9498371"><ele>507.0</ele><time>2026-04-04T13:59:19.981Z</time></trkpt><trkpt lat="44.7219909" lon="9.95007"><ele>510.0</ele><time>2026-04-04T13:59:20.981Z</time></trkpt><trkpt lat="44.7218901" lon="9.9502796"><ele>513.0</ele><time>2026-04-04T13:59:21.981Z</time></trkpt><trkpt lat="44.7217797" lon="9.9504676"><ele>508.25</ele><time>2026-04-04T13:59:22.981Z</time></trkpt><trkpt lat="44.7216811" lon="9.9506442"><ele>503.5</ele><time>2026-04-04T13:59:23.982Z</time></trkpt><trkpt lat="44.7216009" lon="9.9508103"><ele>498.75</ele><time>2026-04-04T13:59:24.981Z</time></trkpt><trkpt lat="44.721541" lon="9.9509831"><ele>494.0</ele><time>2026-04-04T13:59:25.982Z</time></trkpt><trkpt lat="44.7215146" lon="9.9511665"><ele>494.0</ele><time>2026-04-04T13:59:26.981Z</time></trkpt><trkpt lat="44.7215241" lon="9.9513664"><ele>494.0</ele><time>2026-04-04T13:59:27.982Z</time></trkpt><trkpt lat="44.7215583" lon="9.9515852"><ele>494.0</ele><time>2026-04-04T13:59:28.981Z</time></trkpt><trkpt lat="44.7216084" lon="9.9518046"><ele>491.0</ele><time>2026-04-04T13:59:29.982Z</time></trkpt><trkpt lat="44.7216683" lon="9.9520171"><ele>488.0</ele><time>2026-04-04T13:59:30.981Z</time></trkpt><trkpt lat="44.721741" lon="9.9522102"><ele>485.0</ele><time>2026-04-04T13:59:31.982Z</time></trkpt><trkpt lat="44.7218161" lon="9.9523675"><ele>485.0</ele><time>2026-04-04T13:59:32.982Z</time></trkpt><trkpt lat="44.7218916" lon="9.9524933"><ele>485.0</ele><time>2026-04-04T13:59:33.981Z</time></trkpt><trkpt lat="44.7219811" lon="9.9525902"><ele>485.0</ele><time>2026-04-04T13:59:34.982Z</time></trkpt><trkpt lat="44.7220675" lon="9.9526504"><ele>485.0</ele><time>2026-04-04T13:59:35.982Z</time></trkpt><trkpt lat="44.7221702" lon="9.9526708"><ele>485.0</ele><time>2026-04-04T13:59:36.981Z</time></trkpt><trkpt lat="44.7222694" lon="9.9526579"><ele>483.8</ele><time>2026-04-04T13:59:37.981Z</time></trkpt><trkpt lat="44.7223707" lon="9.9526393"><ele>482.6</ele><time>2026-04-04T13:59:38.981Z</time></trkpt><trkpt lat="44.7224677" lon="9.9526397"><ele>481.4</ele><time>2026-04-04T13:59:39.981Z</time></trkpt><trkpt lat="44.7225671" lon="9.9526632"><ele>480.2</ele><time>2026-04-04T13:59:40.982Z</time></trkpt><trkpt lat="44.7226692" lon="9.9527126"><ele>479.0</ele><time>2026-04-04T13:59:41.981Z</time></trkpt><trkpt lat="44.7227618" lon="9.9527798"><ele>479.5</ele><time>2026-04-04T13:59:42.982Z</time></trkpt><trkpt lat="44.7228569" lon="9.9528698"><ele>480.0</ele><time>2026-04-04T13:59:43.982Z</time></trkpt><trkpt lat="44.7229505" lon="9.9530009"><ele>480.5</ele><time>2026-04-04T13:59:44.981Z</time></trkpt><trkpt lat="44.7230385" lon="9.9531853"><ele>481.0</ele><time>2026-04-04T13:59:45.981Z</time></trkpt><trkpt lat="44.7231238" lon="9.9533886"><ele>481.0</ele><time>2026-04-04T13:59:46.981Z</time></trkpt><trkpt lat="44.7232214" lon="9.9535634"><ele>481.0</ele><time>2026-04-04T13:59:47.981Z</time></trkpt><trkpt lat="44.7233369" lon="9.9536861"><ele>481.0</ele><time>2026-04-04T13:59:48.981Z</time></trkpt><trkpt lat="44.7234769" lon="9.9537612"><ele>486.33333333333337</ele><time>2026-04-04T13:59:49.982Z</time></trkpt><trkpt lat="44.7236376" lon="9.9537996"><ele>491.66666666666663</ele><time>2026-04-04T13:59:50.981Z</time></trkpt><trkpt lat="44.72381" lon="9.9538396"><ele>497.0</ele><time>2026-04-04T13:59:51.982Z</time></trkpt><trkpt lat="44.7239826" lon="9.9539031"><ele>497.0</ele><time>2026-04-04T13:59:52.981Z</time></trkpt><trkpt lat="44.7241371" lon="9.9539798"><ele>497.0</ele><time>2026-04-04T13:59:53.982Z</time></trkpt><trkpt lat="44.7242738" lon="9.954062"><ele>497.0</ele><time>2026-04-04T13:59:54.981Z</time></trkpt><trkpt lat="44.7244188" lon="9.9541081"><ele>495.66666666666663</ele><time>2026-04-04T13:59:55.981Z</time></trkpt><trkpt lat="44.7245811" lon="9.9541005"><ele>494.33333333333337</ele><time>2026-04-04T13:59:56.981Z</time></trkpt><trkpt lat="44.7247529" lon="9.9540396"><ele>493.0</ele><time>2026-04-04T13:59:57.982Z</time></trkpt><trkpt lat="44.7249317" lon="9.9539689"><ele>493.0</ele><time>2026-04-04T13:59:58.981Z</time></trkpt><trkpt lat="44.7251147" lon="9.9538994"><ele>493.0</ele><time>2026-04-04T13:59:59.981Z</time></trkpt><trkpt lat="44.725301" lon="9.9538135"><ele>493.0</ele><time>2026-04-04T14:00:00.982Z</time></trkpt><trkpt lat="44.7254802" lon="9.9537234"><ele>493.0</ele><time>2026-04-04T14:00:01.981Z</time></trkpt><trkpt lat="44.7256483" lon="9.9536317"><ele>493.0</ele><time>2026-04-04T14:00:02.982Z</time></trkpt><trkpt lat="44.7257995" lon="9.9535465"><ele>493.0</ele><time>2026-04-04T14:00:03.982Z</time></trkpt><trkpt lat="44.7259376" lon="9.953478"><ele>495.75</ele><time>2026-04-04T14:00:04.981Z</time></trkpt><trkpt lat="44.726069" lon="9.9534251"><ele>498.5</ele><time>2026-04-04T14:00:05.981Z</time></trkpt><trkpt lat="44.7261962" lon="9.9534051"><ele>501.25</ele><time>2026-04-04T14:00:06.981Z</time></trkpt><trkpt lat="44.7263255" lon="9.953414"><ele>504.0</ele><time>2026-04-04T14:00:07.982Z</time></trkpt><trkpt lat="44.7264559" lon="9.953444"><ele>504.0</ele><time>2026-04-04T14:00:08.982Z</time></trkpt><trkpt lat="44.7265829" lon="9.9535095"><ele>504.0</ele><time>2026-04-04T14:00:09.982Z</time></trkpt><trkpt lat="44.7266947" lon="9.953617"><ele>504.0</ele><time>2026-04-04T14:00:10.982Z</time></trkpt><trkpt lat="44.7267889" lon="9.9537729"><ele>504.0</ele><time>2026-04-04T14:00:11.982Z</time></trkpt><trkpt lat="44.7268593" lon="9.9539587"><ele>508.0</ele><time>2026-04-04T14:00:12.981Z</time></trkpt><trkpt lat="44.7269129" lon="9.954156"><ele>512.0</ele><time>2026-04-04T14:00:13.981Z</time></trkpt><trkpt lat="44.7269507" lon="9.9543781"><ele>516.0</ele><time>2026-04-04T14:00:14.982Z</time></trkpt><trkpt lat="44.7269741" lon="9.95459"><ele>516.0</ele><time>2026-04-04T14:00:15.981Z</time></trkpt><trkpt lat="44.7269729" lon="9.9547715"><ele>516.0</ele><time>2026-04-04T14:00:16.981Z</time></trkpt><trkpt lat="44.7269382" lon="9.9549264"><ele>516.0</ele><time>2026-04-04T14:00:17.982Z</time></trkpt><trkpt lat="44.726858" lon="9.9550512"><ele>516.0</ele><time>2026-04-04T14:00:18.981Z</time></trkpt><trkpt lat="44.7267359" lon="9.9551377"><ele>514.0</ele><time>2026-04-04T14:00:19.981Z</time></trkpt><trkpt lat="44.7265968" lon="9.9552308"><ele>512.0</ele><time>2026-04-04T14:00:20.981Z</time></trkpt><trkpt lat="44.726486" lon="9.9553685"><ele>510.0</ele><time>2026-04-04T14:00:21.981Z</time></trkpt><trkpt lat="44.7263901" lon="9.9555564"><ele>510.0</ele><time>2026-04-04T14:00:22.981Z</time></trkpt><trkpt lat="44.7263222" lon="9.955741"><ele>510.0</ele><time>2026-04-04T14:00:23.982Z</time></trkpt><trkpt lat="44.7262755" lon="9.9559084"><ele>510.0</ele><time>2026-04-04T14:00:24.981Z</time></trkpt><trkpt lat="44.7262693" lon="9.9560723"><ele>510.0</ele><time>2026-04-04T14:00:25.981Z</time></trkpt><trkpt lat="44.7263015" lon="9.9562414"><ele>510.25</ele><time>2026-04-04T14:00:26.981Z</time></trkpt><trkpt lat="44.7263571" lon="9.9564082"><ele>510.5</ele><time>2026-04-04T14:00:27.982Z</time></trkpt><trkpt lat="44.7263951" lon="9.9565752"><ele>510.75</ele><time>2026-04-04T14:00:28.981Z</time></trkpt><trkpt lat="44.7263963" lon="9.9567198"><ele>511.0</ele><time>2026-04-04T14:00:29.982Z</time></trkpt><trkpt lat="44.7263502" lon="9.9568498"><ele>510.25</ele><time>2026-04-04T14:00:30.981Z</time></trkpt><trkpt lat="44.7262595" lon="9.9569578"><ele>509.5</ele><time>2026-04-04T14:00:31.981Z</time></trkpt><trkpt lat="44.7261224" lon="9.9570494"><ele>508.75</ele><time>2026-04-04T14:00:32.981Z</time></trkpt><trkpt lat="44.7259653" lon="9.9571378"><ele>508.0</ele><time>2026-04-04T14:00:33.982Z</time></trkpt><trkpt lat="44.7258119" lon="9.9572286"><ele>508.0</ele><time>2026-04-04T14:00:34.981Z</time></trkpt><trkpt lat="44.7256767" lon="9.9573104"><ele>508.0</ele><time>2026-04-04T14:00:35.981Z</time></trkpt><trkpt lat="44.7255666" lon="9.9573984"><ele>508.0</ele><time>2026-04-04T14:00:36.981Z</time></trkpt><trkpt lat="44.7254862" lon="9.9575121"><ele>508.0</ele><time>2026-04-04T14:00:37.982Z</time></trkpt><trkpt lat="44.7254367" lon="9.9576602"><ele>507.5</ele><time>2026-04-04T14:00:38.981Z</time></trkpt><trkpt lat="44.7254309" lon="9.9578273"><ele>507.0</ele><time>2026-04-04T14:00:39.981Z</time></trkpt><trkpt lat="44.7254923" lon="9.9579998"><ele>506.5</ele><time>2026-04-04T14:00:40.981Z</time></trkpt><trkpt lat="44.7256054" lon="9.9581862"><ele>506.0</ele><time>2026-04-04T14:00:41.981Z</time></trkpt><trkpt lat="44.7257325" lon="9.958385"><ele>503.66666666666663</ele><time>2026-04-04T14:00:42.982Z</time></trkpt><trkpt lat="44.7258574" lon="9.9585951"><ele>501.33333333333337</ele><time>2026-04-04T14:00:43.981Z</time></trkpt><trkpt lat="44.7259699" lon="9.9588135"><ele>499.0</ele><time>2026-04-04T14:00:44.981Z</time></trkpt><trkpt lat="44.7260846" lon="9.959047"><ele>504.6666666666667</ele><time>2026-04-04T14:00:45.981Z</time></trkpt><trkpt lat="44.7261894" lon="9.9592904"><ele>510.33333333333337</ele><time>2026-04-04T14:00:46.981Z</time></trkpt><trkpt lat="44.7262769" lon="9.959513"><ele>516.0</ele><time>2026-04-04T14:00:47.982Z</time></trkpt><trkpt lat="44.7263485" lon="9.9597163"><ele>516.0</ele><time>2026-04-04T14:00:48.981Z</time></trkpt><trkpt lat="44.7263991" lon="9.9599036"><ele>516.0</ele><time>2026-04-04T14:00:49.981Z</time></trkpt><trkpt lat="44.7264302" lon="9.9600785"><ele>516.0</ele><time>2026-04-04T14:00:50.981Z</time></trkpt><trkpt lat="44.7264349" lon="9.9602298"><ele>516.0</ele><time>2026-04-04T14:00:51.982Z</time></trkpt><trkpt lat="44.7264306" lon="9.9603782"><ele>516.2</ele><time>2026-04-04T14:00:52.981Z</time></trkpt><trkpt lat="44.7264262" lon="9.9605305"><ele>516.4000000000001</ele><time>2026-04-04T14:00:53.981Z</time></trkpt><trkpt lat="44.7264155" lon="9.9606887"><ele>516.6</ele><time>2026-04-04T14:00:54.981Z</time></trkpt><trkpt lat="44.7264053" lon="9.9608454"><ele>516.8000000000001</ele><time>2026-04-04T14:00:55.981Z</time></trkpt><trkpt lat="44.7264026" lon="9.9609881"><ele>517.0</ele><time>2026-04-04T14:00:56.982Z</time></trkpt><trkpt lat="44.7264056" lon="9.9611282"><ele>516.0</ele><time>2026-04-04T14:00:57.981Z</time></trkpt><trkpt lat="44.7264366" lon="9.9612761"><ele>515.0</ele><time>2026-04-04T14:00:58.981Z</time></trkpt><trkpt lat="44.7265051" lon="9.9614264"><ele>514.0</ele><time>2026-04-04T14:00:59.982Z</time></trkpt><trkpt lat="44.7266015" lon="9.9615901"><ele>513.0</ele><time>2026-04-04T14:01:00.982Z</time></trkpt><trkpt lat="44.7267107" lon="9.9617707"><ele>512.3333333333334</ele><time>2026-04-04T14:01:01.982Z</time></trkpt><trkpt lat="44.7268096" lon="9.9619447"><ele>511.6666666666667</ele><time>2026-04-04T14:01:02.981Z</time></trkpt><trkpt lat="44.726892" lon="9.9621218"><ele>511.0</ele><time>2026-04-04T14:01:03.981Z</time></trkpt><trkpt lat="44.7269529" lon="9.962309"><ele>511.6666666666667</ele><time>2026-04-04T14:01:04.981Z</time></trkpt><trkpt lat="44.7269798" lon="9.9625004"><ele>512.3333333333334</ele><time>2026-04-04T14:01:05.981Z</time></trkpt><trkpt lat="44.7269508" lon="9.9627061"><ele>513.0</ele><time>2026-04-04T14:01:06.981Z</time></trkpt><trkpt lat="44.7268811" lon="9.962924"><ele>513.0</ele><time>2026-04-04T14:01:07.981Z</time></trkpt><trkpt lat="44.7268088" lon="9.9631481"><ele>513.0</ele><time>2026-04-04T14:01:08.981Z</time></trkpt><trkpt lat="44.726766" lon="9.9633938"><ele>513.0</ele><time>2026-04-04T14:01:09.982Z</time></trkpt><trkpt lat="44.7267671" lon="9.9636547"><ele>513.0</ele><time>2026-04-04T14:01:10.981Z</time></trkpt><trkpt lat="44.7267985" lon="9.9639181"><ele>513.0</ele><time>2026-04-04T14:01:11.981Z</time></trkpt><trkpt lat="44.7268354" lon="9.9641683"><ele>513.0</ele><time>2026-04-04T14:01:12.982Z</time></trkpt><trkpt lat="44.7268614" lon="9.9643969"><ele>513.5</ele><time>2026-04-04T14:01:13.981Z</time></trkpt><trkpt lat="44.726878" lon="9.9645992"><ele>514.0</ele><time>2026-04-04T14:01:14.982Z</time></trkpt><trkpt lat="44.7268967" lon="9.9647845"><ele>514.5</ele><time>2026-04-04T14:01:15.981Z</time></trkpt><trkpt lat="44.7269162" lon="9.9649562"><ele>515.0</ele><time>2026-04-04T14:01:16.982Z</time></trkpt><trkpt lat="44.7269422" lon="9.9651204"><ele>517.5</ele><time>2026-04-04T14:01:17.981Z</time></trkpt><trkpt lat="44.7269858" lon="9.9652725"><ele>520.0</ele><time>2026-04-04T14:01:18.981Z</time></trkpt><trkpt lat="44.7270796" lon="9.9654021"><ele>522.5</ele><time>2026-04-04T14:01:19.982Z</time></trkpt><trkpt lat="44.7272038" lon="9.9655044"><ele>525.0</ele><time>2026-04-04T14:01:20.981Z</time></trkpt><trkpt lat="44.7273443" lon="9.9656008"><ele>525.0</ele><time>2026-04-04T14:01:21.982Z</time></trkpt><trkpt lat="44.7274737" lon="9.965699"><ele>525.0</ele><time>2026-04-04T14:01:22.981Z</time></trkpt><trkpt lat="44.7275965" lon="9.9658067"><ele>525.0</ele><time>2026-04-04T14:01:23.981Z</time></trkpt><trkpt lat="44.7277194" lon="9.9659147"><ele>525.0</ele><time>2026-04-04T14:01:24.981Z</time></trkpt><trkpt lat="44.727838" lon="9.9660482"><ele>528.3333333333334</ele><time>2026-04-04T14:01:25.981Z</time></trkpt><trkpt lat="44.7279403" lon="9.9662248"><ele>531.6666666666667</ele><time>2026-04-04T14:01:26.981Z</time></trkpt><trkpt lat="44.728035" lon="9.9664281"><ele>535.0</ele><time>2026-04-04T14:01:27.982Z</time></trkpt><trkpt lat="44.7281425" lon="9.9666547"><ele>533.3333333333334</ele><time>2026-04-04T14:01:28.981Z</time></trkpt><trkpt lat="44.7282513" lon="9.9668894"><ele>531.6666666666666</ele><time>2026-04-04T14:01:29.982Z</time></trkpt><trkpt lat="44.7283626" lon="9.9671136"><ele>530.0</ele><time>2026-04-04T14:01:30.982Z</time></trkpt><trkpt lat="44.7284516" lon="9.9673204"><ele>530.0</ele><time>2026-04-04T14:01:31.981Z</time></trkpt><trkpt lat="44.7285253" lon="9.9675209"><ele>530.0</ele><time>2026-04-04T14:01:32.981Z</time></trkpt><trkpt lat="44.7285717" lon="9.9677393"><ele>530.0</ele><time>2026-04-04T14:01:33.981Z</time></trkpt><trkpt lat="44.7286059" lon="9.967961"><ele>536.6666666666666</ele><time>2026-04-04T14:01:34.982Z</time></trkpt><trkpt lat="44.7286257" lon="9.9681735"><ele>543.3333333333334</ele><time>2026-04-04T14:01:35.981Z</time></trkpt><trkpt lat="44.7286267" lon="9.968383"><ele>550.0</ele><time>2026-04-04T14:01:36.981Z</time></trkpt><trkpt lat="44.7285827" lon="9.9685952"><ele>545.6666666666667</ele><time>2026-04-04T14:01:37.981Z</time></trkpt><trkpt lat="44.7285096" lon="9.9687995"><ele>541.3333333333334</ele><time>2026-04-04T14:01:38.982Z</time></trkpt><trkpt lat="44.7284307" lon="9.9689985"><ele>537.0</ele><time>2026-04-04T14:01:39.982Z</time></trkpt><trkpt lat="44.7283648" lon="9.9691821"><ele>536.75</ele><time>2026-04-04T14:01:40.982Z</time></trkpt><trkpt lat="44.7283284" lon="9.9693585"><ele>536.5</ele><time>2026-04-04T14:01:41.981Z</time></trkpt><trkpt lat="44.7283351" lon="9.9695276"><ele>536.25</ele><time>2026-04-04T14:01:42.981Z</time></trkpt><trkpt lat="44.7283836" lon="9.9696927"><ele>536.0</ele><time>2026-04-04T14:01:43.981Z</time></trkpt><trkpt lat="44.7284838" lon="9.9698351"><ele>539.0</ele><time>2026-04-04T14:01:44.982Z</time></trkpt><trkpt lat="44.728614" lon="9.9699691"><ele>542.0</ele><time>2026-04-04T14:01:45.981Z</time></trkpt><trkpt lat="44.7287389" lon="9.9701143"><ele>545.0</ele><time>2026-04-04T14:01:46.981Z</time></trkpt><trkpt lat="44.7288419" lon="9.9702733"><ele>545.0</ele><time>2026-04-04T14:01:47.981Z</time></trkpt><trkpt lat="44.728905" lon="9.9704476"><ele>545.0</ele><time>2026-04-04T14:01:48.981Z</time></trkpt><trkpt lat="44.7289459" lon="9.9706314"><ele>545.0</ele><time>2026-04-04T14:01:49.981Z</time></trkpt><trkpt lat="44.729007" lon="9.9707853"><ele>545.0</ele><time>2026-04-04T14:01:50.982Z</time></trkpt><trkpt lat="44.729119" lon="9.9709027"><ele>544.3333333333333</ele><time>2026-04-04T14:01:51.982Z</time></trkpt><trkpt lat="44.729271" lon="9.9709903"><ele>543.6666666666666</ele><time>2026-04-04T14:01:52.981Z</time></trkpt><trkpt lat="44.7294203" lon="9.9710754"><ele>543.0</ele><time>2026-04-04T14:01:53.982Z</time></trkpt><trkpt lat="44.729539" lon="9.9711729"><ele>543.0</ele><time>2026-04-04T14:01:54.981Z</time></trkpt><trkpt lat="44.7296298" lon="9.9713016"><ele>543.0</ele><time>2026-04-04T14:01:55.981Z</time></trkpt><trkpt lat="44.7296921" lon="9.9714734"><ele>543.0</ele><time>2026-04-04T14:01:56.982Z</time></trkpt><trkpt lat="44.7297066" lon="9.9716806"><ele>543.0</ele><time>2026-04-04T14:01:57.981Z</time></trkpt><trkpt lat="44.7296855" lon="9.9718953"><ele>539.0</ele><time>2026-04-04T14:01:58.982Z</time></trkpt><trkpt lat="44.7296431" lon="9.9721279"><ele>535.0</ele><time>2026-04-04T14:01:59.982Z</time></trkpt><trkpt lat="44.7295986" lon="9.9723658"><ele>531.0</ele><time>2026-04-04T14:02:00.981Z</time></trkpt><trkpt lat="44.7295413" lon="9.972608"><ele>531.0</ele><time>2026-04-04T14:02:01.982Z</time></trkpt><trkpt lat="44.729465" lon="9.9728422"><ele>531.0</ele><time>2026-04-04T14:02:02.982Z</time></trkpt><trkpt lat="44.7293777" lon="9.9730591"><ele>531.0</ele><time>2026-04-04T14:02:03.981Z</time></trkpt><trkpt lat="44.7292753" lon="9.9732478"><ele>530.5</ele><time>2026-04-04T14:02:04.981Z</time></trkpt><trkpt lat="44.7291609" lon="9.9733916"><ele>530.0</ele><time>2026-04-04T14:02:05.982Z</time></trkpt><trkpt lat="44.7290505" lon="9.9735047"><ele>529.5</ele><time>2026-04-04T14:02:06.982Z</time></trkpt><trkpt lat="44.7289716" lon="9.9736254"><ele>529.0</ele><time>2026-04-04T14:02:07.981Z</time></trkpt><trkpt lat="44.7289312" lon="9.9738006"><ele>529.0</ele><time>2026-04-04T14:02:08.981Z</time></trkpt><trkpt lat="44.7289191" lon="9.9740105"><ele>529.0</ele><time>2026-04-04T14:02:09.981Z</time></trkpt><trkpt lat="44.7289079" lon="9.9742182"><ele>529.0</ele><time>2026-04-04T14:02:10.981Z</time></trkpt><trkpt lat="44.7288523" lon="9.9744068"><ele>529.0</ele><time>2026-04-04T14:02:11.982Z</time></trkpt><trkpt lat="44.7287515" lon="9.9745758"><ele>528.3333333333334</ele><time>2026-04-04T14:02:12.981Z</time></trkpt><trkpt lat="44.7286271" lon="9.9747562"><ele>527.6666666666666</ele><time>2026-04-04T14:02:13.981Z</time></trkpt><trkpt lat="44.7285087" lon="9.9749657"><ele>527.0</ele><time>2026-04-04T14:02:14.981Z</time></trkpt><trkpt lat="44.7284165" lon="9.9751973"><ele>527.0</ele><time>2026-04-04T14:02:15.981Z</time></trkpt><trkpt lat="44.728344" lon="9.975425"><ele>527.0</ele><time>2026-04-04T14:02:16.982Z</time></trkpt><trkpt lat="44.7282975" lon="9.9756293"><ele>527.0</ele><time>2026-04-04T14:02:17.981Z</time></trkpt><trkpt lat="44.7282719" lon="9.9758139"><ele>526.0</ele><time>2026-04-04T14:02:18.982Z</time></trkpt><trkpt lat="44.7282597" lon="9.975981"><ele>525.0</ele><time>2026-04-04T14:02:19.981Z</time></trkpt><trkpt lat="44.7282626" lon="9.9761339"><ele>524.0</ele><time>2026-04-04T14:02:20.981Z</time></trkpt><trkpt lat="44.7282654" lon="9.9762703"><ele>523.0</ele><time>2026-04-04T14:02:21.981Z</time></trkpt><trkpt lat="44.7282758" lon="9.9763965"><ele>522.0</ele><time>2026-04-04T14:02:22.981Z</time></trkpt><trkpt lat="44.7282985" lon="9.9765277"><ele>522.0</ele><time>2026-04-04T14:02:23.981Z</time></trkpt><trkpt lat="44.728333" lon="9.9766532"><ele>522.0</ele><time>2026-04-04T14:02:24.981Z</time></trkpt><trkpt lat="44.7283683" lon="9.9767743"><ele>522.0</ele><time>2026-04-04T14:02:25.981Z</time></trkpt><trkpt lat="44.7284032" lon="9.9768903"><ele>522.0</ele><time>2026-04-04T14:02:26.981Z</time></trkpt><trkpt lat="44.728411" lon="9.9770124"><ele>522.0</ele><time>2026-04-04T14:02:27.982Z</time></trkpt><trkpt lat="44.7283903" lon="9.9771303"><ele>520.6</ele><time>2026-04-04T14:02:28.981Z</time></trkpt><trkpt lat="44.728353" lon="9.9772391"><ele>519.2</ele><time>2026-04-04T14:02:29.981Z</time></trkpt><trkpt lat="44.7282822" lon="9.9773312"><ele>517.8</ele><time>2026-04-04T14:02:30.981Z</time></trkpt><trkpt lat="44.7281776" lon="9.9773998"><ele>516.4</ele><time>2026-04-04T14:02:31.981Z</time></trkpt><trkpt lat="44.7280537" lon="9.9774466"><ele>515.0</ele><time>2026-04-04T14:02:32.981Z</time></trkpt><trkpt lat="44.727943" lon="9.977492"><ele>514.2</ele><time>2026-04-04T14:02:33.982Z</time></trkpt><trkpt lat="44.7278358" lon="9.9775412"><ele>513.4</ele><time>2026-04-04T14:02:34.982Z</time></trkpt><trkpt lat="44.7277355" lon="9.9775696"><ele>512.6</ele><time>2026-04-04T14:02:35.981Z</time></trkpt><trkpt lat="44.7276351" lon="9.9775695"><ele>511.8</ele><time>2026-04-04T14:02:36.981Z</time></trkpt><trkpt lat="44.7275401" lon="9.977529"><ele>511.0</ele><time>2026-04-04T14:02:37.981Z</time></trkpt><trkpt lat="44.7274539" lon="9.9774639"><ele>511.0</ele><time>2026-04-04T14:02:38.982Z</time></trkpt><trkpt lat="44.7273616" lon="9.9773795"><ele>511.0</ele><time>2026-04-04T14:02:39.982Z</time></trkpt><trkpt lat="44.727263" lon="9.9772978"><ele>511.0</ele><time>2026-04-04T14:02:40.981Z</time></trkpt><trkpt lat="44.7271436" lon="9.9772362"><ele>511.0</ele><time>2026-04-04T14:02:41.981Z</time></trkpt><trkpt lat="44.7269957" lon="9.9771995"><ele>508.0</ele><time>2026-04-04T14:02:42.982Z</time></trkpt><trkpt lat="44.7268197" lon="9.9771741"><ele>505.0</ele><time>2026-04-04T14:02:43.981Z</time></trkpt><trkpt lat="44.7266396" lon="9.9771431"><ele>502.0</ele><time>2026-04-04T14:02:44.981Z</time></trkpt><trkpt lat="44.7264609" lon="9.9771364"><ele>502.0</ele><time>2026-04-04T14:02:45.981Z</time></trkpt><trkpt lat="44.7262916" lon="9.9771426"><ele>502.0</ele><time>2026-04-04T14:02:46.982Z</time></trkpt><trkpt lat="44.726133" lon="9.9771482"><ele>502.0</ele><time>2026-04-04T14:02:47.981Z</time></trkpt><trkpt lat="44.7259852" lon="9.9771248"><ele>501.75</ele><time>2026-04-04T14:02:48.981Z</time></trkpt><trkpt lat="44.7258474" lon="9.9770422"><ele>501.5</ele><time>2026-04-04T14:02:49.982Z</time></trkpt><trkpt lat="44.7257234" lon="9.9769177"><ele>501.25</ele><time>2026-04-04T14:02:50.981Z</time></trkpt><trkpt lat="44.7256149" lon="9.9767827"><ele>501.0</ele><time>2026-04-04T14:02:51.982Z</time></trkpt><trkpt lat="44.7255242" lon="9.9766656"><ele>501.0</ele><time>2026-04-04T14:02:52.982Z</time></trkpt><trkpt lat="44.7254318" lon="9.9765804"><ele>501.0</ele><time>2026-04-04T14:02:53.981Z</time></trkpt><trkpt lat="44.7253368" lon="9.9765356"><ele>501.0</ele><time>2026-04-04T14:02:54.981Z</time></trkpt><trkpt lat="44.7252452" lon="9.9765504"><ele>501.0</ele><time>2026-04-04T14:02:55.981Z</time></trkpt><trkpt lat="44.7251663" lon="9.9766231"><ele>501.0</ele><time>2026-04-04T14:02:56.982Z</time></trkpt><trkpt lat="44.7251045" lon="9.9767504"><ele>497.75</ele><time>2026-04-04T14:02:57.981Z</time></trkpt><trkpt lat="44.7250674" lon="9.9769182"><ele>494.5</ele><time>2026-04-04T14:02:58.981Z</time></trkpt><trkpt lat="44.7250365" lon="9.9771191"><ele>491.25</ele><time>2026-04-04T14:02:59.982Z</time></trkpt><trkpt lat="44.7250049" lon="9.9773308"><ele>488.0</ele><time>2026-04-04T14:03:00.981Z</time></trkpt><trkpt lat="44.7249717" lon="9.9775259"><ele>487.5</ele><time>2026-04-04T14:03:01.982Z</time></trkpt><trkpt lat="44.7249294" lon="9.9777112"><ele>487.0</ele><time>2026-04-04T14:03:02.981Z</time></trkpt><trkpt lat="44.7248795" lon="9.9778982"><ele>486.5</ele><time>2026-04-04T14:03:03.981Z</time></trkpt><trkpt lat="44.7247925" lon="9.9780896"><ele>486.0</ele><time>2026-04-04T14:03:04.981Z</time></trkpt><trkpt lat="44.7246871" lon="9.9782711"><ele>484.66666666666663</ele><time>2026-04-04T14:03:05.982Z</time></trkpt><trkpt lat="44.7245523" lon="9.9784457"><ele>483.3333333333333</ele><time>2026-04-04T14:03:06.982Z</time></trkpt><trkpt lat="44.7244066" lon="9.9786123"><ele>482.0</ele><time>2026-04-04T14:03:07.982Z</time></trkpt><trkpt lat="44.7242627" lon="9.9787849"><ele>480.3333333333333</ele><time>2026-04-04T14:03:08.982Z</time></trkpt><trkpt lat="44.7241127" lon="9.9789687"><ele>478.66666666666663</ele><time>2026-04-04T14:03:09.981Z</time></trkpt><trkpt lat="44.7239683" lon="9.9791732"><ele>477.0</ele><time>2026-04-04T14:03:10.981Z</time></trkpt><trkpt lat="44.72382" lon="9.9793953"><ele>477.33333333333337</ele><time>2026-04-04T14:03:11.981Z</time></trkpt><trkpt lat="44.7236781" lon="9.9796158"><ele>477.6666666666667</ele><time>2026-04-04T14:03:12.981Z</time></trkpt><trkpt lat="44.7235463" lon="9.9798179"><ele>478.0</ele><time>2026-04-04T14:03:13.982Z</time></trkpt><trkpt lat="44.7234263" lon="9.9799833"><ele>474.5</ele><time>2026-04-04T14:03:14.982Z</time></trkpt><trkpt lat="44.7233163" lon="9.9801113"><ele>471.0</ele><time>2026-04-04T14:03:15.981Z</time></trkpt><trkpt lat="44.7232124" lon="9.980203"><ele>467.5</ele><time>2026-04-04T14:03:16.981Z</time></trkpt><trkpt lat="44.723099" lon="9.980245"><ele>464.0</ele><time>2026-04-04T14:03:17.981Z</time></trkpt><trkpt lat="44.7229552" lon="9.9802348"><ele>464.0</ele><time>2026-04-04T14:03:18.982Z</time></trkpt><trkpt lat="44.7227957" lon="9.980179"><ele>464.0</ele><time>2026-04-04T14:03:19.981Z</time></trkpt><trkpt lat="44.7226256" lon="9.9801349"><ele>464.0</ele><time>2026-04-04T14:03:20.981Z</time></trkpt><trkpt lat="44.7224639" lon="9.9801491"><ele>464.66666666666663</ele><time>2026-04-04T14:03:21.981Z</time></trkpt><trkpt lat="44.722304" lon="9.9802395"><ele>465.33333333333337</ele><time>2026-04-04T14:03:22.981Z</time></trkpt><trkpt lat="44.7221637" lon="9.9803767"><ele>466.0</ele><time>2026-04-04T14:03:23.981Z</time></trkpt><trkpt lat="44.7220473" lon="9.9805262"><ele>466.0</ele><time>2026-04-04T14:03:24.981Z</time></trkpt><trkpt lat="44.7219207" lon="9.9806497"><ele>466.0</ele><time>2026-04-04T14:03:25.982Z</time></trkpt><trkpt lat="44.7217751" lon="9.9807301"><ele>466.0</ele><time>2026-04-04T14:03:26.981Z</time></trkpt><trkpt lat="44.721596" lon="9.9807678"><ele>468.0</ele><time>2026-04-04T14:03:27.981Z</time></trkpt><trkpt lat="44.7213987" lon="9.9808022"><ele>470.0</ele><time>2026-04-04T14:03:28.981Z</time></trkpt><trkpt lat="44.7212049" lon="9.9808194"><ele>472.0</ele><time>2026-04-04T14:03:29.981Z</time></trkpt><trkpt lat="44.7210213" lon="9.9808328"><ele>472.6666666666667</ele><time>2026-04-04T14:03:30.982Z</time></trkpt><trkpt lat="44.7208467" lon="9.9808481"><ele>473.33333333333337</ele><time>2026-04-04T14:03:31.98Z</time></trkpt><trkpt lat="44.7206794" lon="9.9808654"><ele>474.0</ele><time>2026-04-04T14:03:32.98Z</time></trkpt><trkpt lat="44.7205258" lon="9.9809092"><ele>471.66666666666663</ele><time>2026-04-04T14:03:33.981Z</time></trkpt><trkpt lat="44.720374" lon="9.9810005"><ele>469.3333333333333</ele><time>2026-04-04T14:03:34.981Z</time></trkpt><trkpt lat="44.7202499" lon="9.9811521"><ele>467.0</ele><time>2026-04-04T14:03:35.981Z</time></trkpt><trkpt lat="44.7201511" lon="9.9813575"><ele>467.0</ele><time>2026-04-04T14:03:36.98Z</time></trkpt><trkpt lat="44.7200549" lon="9.9815374"><ele>467.0</ele><time>2026-04-04T14:03:37.98Z</time></trkpt><trkpt lat="44.7199366" lon="9.9816679"><ele>467.0</ele><time>2026-04-04T14:03:38.98Z</time></trkpt><trkpt lat="44.7197986" lon="9.9817768"><ele>461.75</ele><time>2026-04-04T14:03:39.98Z</time></trkpt><trkpt lat="44.7196461" lon="9.9818856"><ele>456.5</ele><time>2026-04-04T14:03:40.981Z</time></trkpt><trkpt lat="44.7195112" lon="9.9819697"><ele>451.25</ele><time>2026-04-04T14:03:41.981Z</time></trkpt><trkpt lat="44.7193954" lon="9.9820128"><ele>446.0</ele><time>2026-04-04T14:03:42.98Z</time></trkpt><trkpt lat="44.719286" lon="9.9819953"><ele>445.66666666666663</ele><time>2026-04-04T14:03:43.981Z</time></trkpt><trkpt lat="44.7191698" lon="9.9819131"><ele>445.33333333333337</ele><time>2026-04-04T14:03:44.98Z</time></trkpt><trkpt lat="44.7190331" lon="9.981794"><ele>445.0</ele><time>2026-04-04T14:03:45.981Z</time></trkpt><trkpt lat="44.7188855" lon="9.9816872"><ele>452.33333333333337</ele><time>2026-04-04T14:03:46.981Z</time></trkpt><trkpt lat="44.718723" lon="9.9816107"><ele>459.66666666666663</ele><time>2026-04-04T14:03:47.98Z</time></trkpt><trkpt lat="44.7185406" lon="9.9815848"><ele>467.0</ele><time>2026-04-04T14:03:48.98Z</time></trkpt><trkpt lat="44.7183634" lon="9.9815978"><ele>467.0</ele><time>2026-04-04T14:03:49.98Z</time></trkpt><trkpt lat="44.7182059" lon="9.9816369"><ele>467.0</ele><time>2026-04-04T14:03:50.98Z</time></trkpt><trkpt lat="44.7180604" lon="9.9817016"><ele>467.0</ele><time>2026-04-04T14:03:51.98Z</time></trkpt><trkpt lat="44.7179411" lon="9.9817815"><ele>467.0</ele><time>2026-04-04T14:03:52.98Z</time></trkpt><trkpt lat="44.7178312" lon="9.9818676"><ele>459.0</ele><time>2026-04-04T14:03:53.98Z</time></trkpt><trkpt lat="44.7177244" lon="9.9819441"><ele>451.0</ele><time>2026-04-04T14:03:54.981Z</time></trkpt><trkpt lat="44.717617" lon="9.9819849"><ele>443.0</ele><time>2026-04-04T14:03:55.981Z</time></trkpt><trkpt lat="44.7175057" lon="9.9819688"><ele>435.0</ele><time>2026-04-04T14:03:56.98Z</time></trkpt><trkpt lat="44.7173865" lon="9.9819389"><ele>435.0</ele><time>2026-04-04T14:03:57.98Z</time></trkpt><trkpt lat="44.7172658" lon="9.9819367"><ele>435.0</ele><time>2026-04-04T14:03:58.981Z</time></trkpt><trkpt lat="44.7171463" lon="9.9819623"><ele>435.0</ele><time>2026-04-04T14:03:59.981Z</time></trkpt><trkpt lat="44.7170376" lon="9.9820091"><ele>435.0</ele><time>2026-04-04T14:04:00.981Z</time></trkpt><trkpt lat="44.716933" lon="9.982065"><ele>436.2</ele><time>2026-04-04T14:04:01.98Z</time></trkpt><trkpt lat="44.716831" lon="9.9821264"><ele>437.4</ele><time>2026-04-04T14:04:02.981Z</time></trkpt><trkpt lat="44.7167388" lon="9.9822006"><ele>438.6</ele><time>2026-04-04T14:04:03.981Z</time></trkpt><trkpt lat="44.7166496" lon="9.9822837"><ele>439.8</ele><time>2026-04-04T14:04:04.98Z</time></trkpt><trkpt lat="44.7165633" lon="9.982381"><ele>441.0</ele><time>2026-04-04T14:04:05.98Z</time></trkpt><trkpt lat="44.7164755" lon="9.9824605"><ele>436.0</ele><time>2026-04-04T14:04:06.98Z</time></trkpt><trkpt lat="44.7163783" lon="9.9825227"><ele>431.0</ele><time>2026-04-04T14:04:07.981Z</time></trkpt><trkpt lat="44.7162781" lon="9.9825685"><ele>426.0</ele><time>2026-04-04T14:04:08.981Z</time></trkpt><trkpt lat="44.7161735" lon="9.9825868"><ele>421.0</ele><time>2026-04-04T14:04:09.981Z</time></trkpt><trkpt lat="44.7160671" lon="9.9825779"><ele>416.0</ele><time>2026-04-04T14:04:10.981Z</time></trkpt><trkpt lat="44.7159814" lon="9.9825388"><ele>419.49999999999994</ele><time>2026-04-04T14:04:11.98Z</time></trkpt><trkpt lat="44.7159081" lon="9.9824914"><ele>423.0</ele><time>2026-04-04T14:04:12.98Z</time></trkpt><trkpt lat="44.7158439" lon="9.9824332"><ele>426.5</ele><time>2026-04-04T14:04:13.98Z</time></trkpt><trkpt lat="44.7157997" lon="9.9823473"><ele>430.0</ele><time>2026-04-04T14:04:14.981Z</time></trkpt><trkpt lat="44.7157807" lon="9.982231"><ele>433.49999999999994</ele><time>2026-04-04T14:04:15.98Z</time></trkpt><trkpt lat="44.7157844" lon="9.9820952"><ele>437.0</ele><time>2026-04-04T14:04:16.98Z</time></trkpt><trkpt lat="44.7157899" lon="9.9819564"><ele>437.0</ele><time>2026-04-04T14:04:17.98Z</time></trkpt><trkpt lat="44.7157885" lon="9.9818149"><ele>437.00000000000006</ele><time>2026-04-04T14:04:18.98Z</time></trkpt><trkpt lat="44.7157798" lon="9.9816731"><ele>437.00000000000006</ele><time>2026-04-04T14:04:19.98Z</time></trkpt><trkpt lat="44.7157428" lon="9.9815337"><ele>437.0</ele><time>2026-04-04T14:04:20.98Z</time></trkpt><trkpt lat="44.7156751" lon="9.9814093"><ele>437.0</ele><time>2026-04-04T14:04:21.98Z</time></trkpt><trkpt lat="44.7155877" lon="9.981306"><ele>435.0</ele><time>2026-04-04T14:04:22.98Z</time></trkpt><trkpt lat="44.7154849" lon="9.9812221"><ele>433.00000000000006</ele><time>2026-04-04T14:04:23.981Z</time></trkpt><trkpt lat="44.7153741" lon="9.9811664"><ele>431.00000000000006</ele><time>2026-04-04T14:04:24.981Z</time></trkpt><trkpt lat="44.7152678" lon="9.9811393"><ele>429.0</ele><time>2026-04-04T14:04:25.981Z</time></trkpt><trkpt lat="44.715169" lon="9.9811253"><ele>427.0</ele><time>2026-04-04T14:04:26.98Z</time></trkpt><trkpt lat="44.7150721" lon="9.9811108"><ele>427.0</ele><time>2026-04-04T14:04:27.981Z</time></trkpt><trkpt lat="44.71498" lon="9.9810895"><ele>427.00000000000006</ele><time>2026-04-04T14:04:28.981Z</time></trkpt><trkpt lat="44.7149015" lon="9.9810425"><ele>427.00000000000006</ele><time>2026-04-04T14:04:29.981Z</time></trkpt><trkpt lat="44.7148216" lon="9.9809722"><ele>427.0</ele><time>2026-04-04T14:04:30.981Z</time></trkpt><trkpt lat="44.7147564" lon="9.9808677"><ele>427.0</ele><time>2026-04-04T14:04:31.98Z</time></trkpt><trkpt lat="44.7146849" lon="9.9807297"><ele>426.0</ele><time>2026-04-04T14:04:32.98Z</time></trkpt><trkpt lat="44.7146" lon="9.9805626"><ele>425.0</ele><time>2026-04-04T14:04:33.98Z</time></trkpt><trkpt lat="44.7144979" lon="9.9803866"><ele>424.0</ele><time>2026-04-04T14:04:34.98Z</time></trkpt><trkpt lat="44.7143774" lon="9.9801974"><ele>431.0</ele><time>2026-04-04T14:04:35.981Z</time></trkpt><trkpt lat="44.7142482" lon="9.9800079"><ele>438.0</ele><time>2026-04-04T14:04:36.98Z</time></trkpt><trkpt lat="44.7141069" lon="9.979804"><ele>445.0</ele><time>2026-04-04T14:04:37.98Z</time></trkpt><trkpt lat="44.7139814" lon="9.9795939"><ele>445.0</ele><time>2026-04-04T14:04:38.98Z</time></trkpt><trkpt lat="44.7138776" lon="9.9793811"><ele>445.0</ele><time>2026-04-04T14:04:39.98Z</time></trkpt><trkpt lat="44.7137731" lon="9.9791755"><ele>445.0</ele><time>2026-04-04T14:04:40.981Z</time></trkpt><trkpt lat="44.713669" lon="9.9789882"><ele>438.0</ele><time>2026-04-04T14:04:41.981Z</time></trkpt><trkpt lat="44.7135515" lon="9.9788163"><ele>431.0</ele><time>2026-04-04T14:04:42.98Z</time></trkpt><trkpt lat="44.7134284" lon="9.9786762"><ele>424.0</ele><time>2026-04-04T14:04:43.98Z</time></trkpt><trkpt lat="44.7132892" lon="9.9785847"><ele>424.0</ele><time>2026-04-04T14:04:44.98Z</time></trkpt><trkpt lat="44.7131202" lon="9.978539"><ele>424.0</ele><time>2026-04-04T14:04:45.98Z</time></trkpt><trkpt lat="44.712937" lon="9.9784975"><ele>424.0</ele><time>2026-04-04T14:04:46.981Z</time></trkpt><trkpt lat="44.7127682" lon="9.9784381"><ele>422.6666666666667</ele><time>2026-04-04T14:04:47.981Z</time></trkpt><trkpt lat="44.7126141" lon="9.9783453"><ele>421.33333333333337</ele><time>2026-04-04T14:04:48.981Z</time></trkpt><trkpt lat="44.7124845" lon="9.9782226"><ele>420.0</ele><time>2026-04-04T14:04:49.98Z</time></trkpt><trkpt lat="44.7123795" lon="9.9780779"><ele>420.0</ele><time>2026-04-04T14:04:50.98Z</time></trkpt><trkpt lat="44.7122975" lon="9.9779181"><ele>420.0</ele><time>2026-04-04T14:04:51.98Z</time></trkpt><trkpt lat="44.7122281" lon="9.9777698"><ele>420.0</ele><time>2026-04-04T14:04:52.98Z</time></trkpt><trkpt lat="44.7121556" lon="9.9776599"><ele>420.0</ele><time>2026-04-04T14:04:53.98Z</time></trkpt><trkpt lat="44.7120646" lon="9.9776031"><ele>420.0</ele><time>2026-04-04T14:04:54.981Z</time></trkpt><trkpt lat="44.7119602" lon="9.9776089"><ele>420.0</ele><time>2026-04-04T14:04:55.981Z</time></trkpt><trkpt lat="44.711866" lon="9.9776841"><ele>420.0</ele><time>2026-04-04T14:04:56.981Z</time></trkpt><trkpt lat="44.7117748" lon="9.9778122"><ele>420.0</ele><time>2026-04-04T14:04:57.98Z</time></trkpt><trkpt lat="44.7116787" lon="9.9779612"><ele>419.75</ele><time>2026-04-04T14:04:58.981Z</time></trkpt><trkpt lat="44.7115786" lon="9.9780843"><ele>419.5</ele><time>2026-04-04T14:04:59.981Z</time></trkpt><trkpt lat="44.7114753" lon="9.9781743"><ele>419.25</ele><time>2026-04-04T14:05:00.98Z</time></trkpt><trkpt lat="44.7113688" lon="9.9782176"><ele>419.0</ele><time>2026-04-04T14:05:01.981Z</time></trkpt><trkpt lat="44.7112487" lon="9.9782218"><ele>419.0</ele><time>2026-04-04T14:05:02.98Z</time></trkpt><trkpt lat="44.7111339" lon="9.9781604"><ele>419.0</ele><time>2026-04-04T14:05:03.98Z</time></trkpt><trkpt lat="44.7110373" lon="9.9780563"><ele>419.0</ele><time>2026-04-04T14:05:04.981Z</time></trkpt><trkpt lat="44.7109673" lon="9.9779135"><ele>419.0</ele><time>2026-04-04T14:05:05.98Z</time></trkpt><trkpt lat="44.7109231" lon="9.9777287"><ele>418.75</ele><time>2026-04-04T14:05:06.98Z</time></trkpt><trkpt lat="44.7109071" lon="9.9775286"><ele>418.5</ele><time>2026-04-04T14:05:07.98Z</time></trkpt><trkpt lat="44.7108966" lon="9.9773421"><ele>418.25</ele><time>2026-04-04T14:05:08.98Z</time></trkpt><trkpt lat="44.7108594" lon="9.9771705"><ele>418.0</ele><time>2026-04-04T14:05:09.98Z</time></trkpt><trkpt lat="44.7107905" lon="9.9770041"><ele>417.25</ele><time>2026-04-04T14:05:10.98Z</time></trkpt><trkpt lat="44.710705" lon="9.9768388"><ele>416.5</ele><time>2026-04-04T14:05:11.98Z</time></trkpt><trkpt lat="44.7105986" lon="9.9766822"><ele>415.75</ele><time>2026-04-04T14:05:12.98Z</time></trkpt><trkpt lat="44.7104888" lon="9.9765454"><ele>415.0</ele><time>2026-04-04T14:05:13.981Z</time></trkpt><trkpt lat="44.7103685" lon="9.9764341"><ele>414.0</ele><time>2026-04-04T14:05:14.981Z</time></trkpt><trkpt lat="44.7102314" lon="9.9763796"><ele>413.0</ele><time>2026-04-04T14:05:15.98Z</time></trkpt><trkpt lat="44.7100908" lon="9.9763693"><ele>412.0</ele><time>2026-04-04T14:05:16.98Z</time></trkpt><trkpt lat="44.7099641" lon="9.9764074"><ele>411.0</ele><time>2026-04-04T14:05:17.98Z</time></trkpt><trkpt lat="44.7098491" lon="9.9764959"><ele>411.0</ele><time>2026-04-04T14:05:18.98Z</time></trkpt><trkpt lat="44.7097599" lon="9.9766132"><ele>411.0</ele><time>2026-04-04T14:05:19.98Z</time></trkpt><trkpt lat="44.7097058" lon="9.9767738"><ele>411.0</ele><time>2026-04-04T14:05:20.98Z</time></trkpt><trkpt lat="44.7096883" lon="9.976977"><ele>411.0</ele><time>2026-04-04T14:05:21.98Z</time></trkpt><trkpt lat="44.7097154" lon="9.9771919"><ele>411.33333333333337</ele><time>2026-04-04T14:05:22.981Z</time></trkpt><trkpt lat="44.7097817" lon="9.9773996"><ele>411.6666666666667</ele><time>2026-04-04T14:05:23.98Z</time></trkpt><trkpt lat="44.7098672" lon="9.977585"><ele>412.0</ele><time>2026-04-04T14:05:24.98Z</time></trkpt><trkpt lat="44.7099299" lon="9.977776"><ele>409.33333333333337</ele><time>2026-04-04T14:05:25.98Z</time></trkpt><trkpt lat="44.7099537" lon="9.9780051"><ele>406.66666666666663</ele><time>2026-04-04T14:05:26.98Z</time></trkpt><trkpt lat="44.7099544" lon="9.978256"><ele>404.0</ele><time>2026-04-04T14:05:27.981Z</time></trkpt><trkpt lat="44.7099767" lon="9.9785001"><ele>401.66666666666663</ele><time>2026-04-04T14:05:28.981Z</time></trkpt><trkpt lat="44.7100198" lon="9.9787511"><ele>399.33333333333337</ele><time>2026-04-04T14:05:29.98Z</time></trkpt><trkpt lat="44.7100851" lon="9.9789896"><ele>397.0</ele><time>2026-04-04T14:05:30.98Z</time></trkpt><trkpt lat="44.7101307" lon="9.9792116"><ele>396.0</ele><time>2026-04-04T14:05:31.98Z</time></trkpt><trkpt lat="44.7101528" lon="9.979401"><ele>395.0</ele><time>2026-04-04T14:05:32.98Z</time></trkpt><trkpt lat="44.7101683" lon="9.9795494"><ele>394.0</ele><time>2026-04-04T14:05:33.981Z</time></trkpt><trkpt lat="44.7102112" lon="9.979673"><ele>393.0</ele><time>2026-04-04T14:05:34.98Z</time></trkpt><trkpt lat="44.7102985" lon="9.9797733"><ele>393.0</ele><time>2026-04-04T14:05:35.98Z</time></trkpt><trkpt lat="44.7104397" lon="9.9798335"><ele>393.0</ele><time>2026-04-04T14:05:36.98Z</time></trkpt><trkpt lat="44.7106081" lon="9.9798885"><ele>393.0</ele><time>2026-04-04T14:05:37.98Z</time></trkpt><trkpt lat="44.7107784" lon="9.9799826"><ele>390.66666666666663</ele><time>2026-04-04T14:05:38.98Z</time></trkpt><trkpt lat="44.7109237" lon="9.9801345"><ele>388.3333333333333</ele><time>2026-04-04T14:05:39.98Z</time></trkpt><trkpt lat="44.7110473" lon="9.9803196"><ele>386.0</ele><time>2026-04-04T14:05:40.981Z</time></trkpt><trkpt lat="44.7111565" lon="9.9804919"><ele>385.25</ele><time>2026-04-04T14:05:41.981Z</time></trkpt><trkpt lat="44.7112366" lon="9.980635"><ele>384.5</ele><time>2026-04-04T14:05:42.98Z</time></trkpt><trkpt lat="44.7113013" lon="9.980759"><ele>383.75</ele><time>2026-04-04T14:05:43.98Z</time></trkpt><trkpt lat="44.7113242" lon="9.9809014"><ele>383.0</ele><time>2026-04-04T14:05:44.981Z</time></trkpt><trkpt lat="44.7113048" lon="9.981061"><ele>382.6666666666667</ele><time>2026-04-04T14:05:45.981Z</time></trkpt><trkpt lat="44.7112351" lon="9.9812106"><ele>382.3333333333333</ele><time>2026-04-04T14:05:46.981Z</time></trkpt><trkpt lat="44.7110944" lon="9.9813523"><ele>382.0</ele><time>2026-04-04T14:05:47.98Z</time></trkpt><trkpt lat="44.7109318" lon="9.9814701"><ele>382.0</ele><time>2026-04-04T14:05:48.981Z</time></trkpt><trkpt lat="44.7107855" lon="9.9815725"><ele>382.0</ele><time>2026-04-04T14:05:49.98Z</time></trkpt><trkpt lat="44.7106486" lon="9.9816388"><ele>382.0</ele><time>2026-04-04T14:05:50.98Z</time></trkpt><trkpt lat="44.7105282" lon="9.9816464"><ele>382.0</ele><time>2026-04-04T14:05:51.981Z</time></trkpt><trkpt lat="44.7104173" lon="9.9815828"><ele>382.0</ele><time>2026-04-04T14:05:52.981Z</time></trkpt><trkpt lat="44.7103068" lon="9.9814547"><ele>382.0</ele><time>2026-04-04T14:05:53.98Z</time></trkpt><trkpt lat="44.710186" lon="9.9812828"><ele>382.0</ele><time>2026-04-04T14:05:54.981Z</time></trkpt><trkpt lat="44.710064" lon="9.9810791"><ele>380.5</ele><time>2026-04-04T14:05:55.98Z</time></trkpt><trkpt lat="44.7099525" lon="9.9808998"><ele>379.0</ele><time>2026-04-04T14:05:56.98Z</time></trkpt><trkpt lat="44.7098416" lon="9.9807438"><ele>377.5</ele><time>2026-04-04T14:05:57.98Z</time></trkpt><trkpt lat="44.7097574" lon="9.9806277"><ele>376.0</ele><time>2026-04-04T14:05:58.98Z</time></trkpt><trkpt lat="44.7096779" lon="9.9805555"><ele>376.0</ele><time>2026-04-04T14:05:59.98Z</time></trkpt><trkpt lat="44.7095733" lon="9.9805348"><ele>376.0</ele><time>2026-04-04T14:06:00.98Z</time></trkpt><trkpt lat="44.7094719" lon="9.9806014"><ele>376.0</ele><time>2026-04-04T14:06:01.98Z</time></trkpt><trkpt lat="44.7093678" lon="9.9807498"><ele>376.0</ele><time>2026-04-04T14:06:02.98Z</time></trkpt><trkpt lat="44.7092731" lon="9.9809394"><ele>371.66666666666663</ele><time>2026-04-04T14:06:03.98Z</time></trkpt><trkpt lat="44.7091662" lon="9.9811383"><ele>367.3333333333333</ele><time>2026-04-04T14:06:04.98Z</time></trkpt><trkpt lat="44.7090555" lon="9.9813252"><ele>363.0</ele><time>2026-04-04T14:06:05.981Z</time></trkpt><trkpt lat="44.7089502" lon="9.9815052"><ele>363.0</ele><time>2026-04-04T14:06:06.98Z</time></trkpt><trkpt lat="44.7088446" lon="9.9816805"><ele>363.0</ele><time>2026-04-04T14:06:07.98Z</time></trkpt><trkpt lat="44.7087352" lon="9.9818326"><ele>363.0</ele><time>2026-04-04T14:06:08.98Z</time></trkpt><trkpt lat="44.7086273" lon="9.9819567"><ele>363.5</ele><time>2026-04-04T14:06:09.981Z</time></trkpt><trkpt lat="44.7085081" lon="9.9820456"><ele>364.0</ele><time>2026-04-04T14:06:10.98Z</time></trkpt><trkpt lat="44.7083817" lon="9.9820988"><ele>364.5</ele><time>2026-04-04T14:06:11.981Z</time></trkpt><trkpt lat="44.708247" lon="9.9821282"><ele>365.0</ele><time>2026-04-04T14:06:12.98Z</time></trkpt><trkpt lat="44.7081147" lon="9.9821418"><ele>365.0</ele><time>2026-04-04T14:06:13.981Z</time></trkpt><trkpt lat="44.7079972" lon="9.9821511"><ele>365.0</ele><time>2026-04-04T14:06:14.981Z</time></trkpt><trkpt lat="44.7078907" lon="9.9821654"><ele>365.0</ele><time>2026-04-04T14:06:15.981Z</time></trkpt><trkpt lat="44.7077801" lon="9.9821871"><ele>365.0</ele><time>2026-04-04T14:06:16.981Z</time></trkpt><trkpt lat="44.7076527" lon="9.9822102"><ele>364.6666666666667</ele><time>2026-04-04T14:06:17.981Z</time></trkpt><trkpt lat="44.7075127" lon="9.9822367"><ele>364.3333333333333</ele><time>2026-04-04T14:06:18.981Z</time></trkpt><trkpt lat="44.7073598" lon="9.9822714"><ele>364.0</ele><time>2026-04-04T14:06:19.981Z</time></trkpt><trkpt lat="44.707204" lon="9.9823098"><ele>364.0</ele><time>2026-04-04T14:06:20.98Z</time></trkpt><trkpt lat="44.7070412" lon="9.982338"><ele>364.0</ele><time>2026-04-04T14:06:21.981Z</time></trkpt><trkpt lat="44.7068724" lon="9.9823609"><ele>364.0</ele><time>2026-04-04T14:06:22.98Z</time></trkpt><trkpt lat="44.7066925" lon="9.9823891"><ele>363.0</ele><time>2026-04-04T14:06:23.98Z</time></trkpt><trkpt lat="44.7065133" lon="9.9824188"><ele>362.0</ele><time>2026-04-04T14:06:24.98Z</time></trkpt><trkpt lat="44.7063472" lon="9.9824455"><ele>361.0</ele><time>2026-04-04T14:06:25.981Z</time></trkpt><trkpt lat="44.7061878" lon="9.9824595"><ele>363.0</ele><time>2026-04-04T14:06:26.981Z</time></trkpt><trkpt lat="44.7060195" lon="9.9824329"><ele>365.0</ele><time>2026-04-04T14:06:27.98Z</time></trkpt><trkpt lat="44.7058471" lon="9.9823554"><ele>367.0</ele><time>2026-04-04T14:06:28.981Z</time></trkpt><trkpt lat="44.7056909" lon="9.982249"><ele>367.0</ele><time>2026-04-04T14:06:29.98Z</time></trkpt><trkpt lat="44.7055516" lon="9.9821341"><ele>367.0</ele><time>2026-04-04T14:06:30.981Z</time></trkpt><trkpt lat="44.7054233" lon="9.9820335"><ele>367.0</ele><time>2026-04-04T14:06:31.981Z</time></trkpt><trkpt lat="44.7053047" lon="9.9819608"><ele>367.0</ele><time>2026-04-04T14:06:32.98Z</time></trkpt><trkpt lat="44.7051957" lon="9.9819452"><ele>367.75</ele><time>2026-04-04T14:06:33.981Z</time></trkpt><trkpt lat="44.7050898" lon="9.9820055"><ele>368.5</ele><time>2026-04-04T14:06:34.981Z</time></trkpt><trkpt lat="44.7049874" lon="9.982136"><ele>369.25</ele><time>2026-04-04T14:06:35.981Z</time></trkpt><trkpt lat="44.7048826" lon="9.9823219"><ele>370.0</ele><time>2026-04-04T14:06:36.981Z</time></trkpt><trkpt lat="44.7047869" lon="9.982512"><ele>369.75</ele><time>2026-04-04T14:06:37.98Z</time></trkpt><trkpt lat="44.7046878" lon="9.9826823"><ele>369.5</ele><time>2026-04-04T14:06:38.98Z</time></trkpt><trkpt lat="44.7045915" lon="9.9828287"><ele>369.25</ele><time>2026-04-04T14:06:39.981Z</time></trkpt><trkpt lat="44.7044959" lon="9.9829538"><ele>369.0</ele><time>2026-04-04T14:06:40.98Z</time></trkpt><trkpt lat="44.7043736" lon="9.9830528"><ele>369.0</ele><time>2026-04-04T14:06:41.981Z</time></trkpt><trkpt lat="44.7042259" lon="9.9830922"><ele>369.0</ele><time>2026-04-04T14:06:42.98Z</time></trkpt><trkpt lat="44.7040636" lon="9.9830542"><ele>369.0</ele><time>2026-04-04T14:06:43.981Z</time></trkpt><trkpt lat="44.7038871" lon="9.9829586"><ele>369.0</ele><time>2026-04-04T14:06:44.981Z</time></trkpt><trkpt lat="44.703719" lon="9.9828541"><ele>369.0</ele><time>2026-04-04T14:06:45.98Z</time></trkpt><trkpt lat="44.7035753" lon="9.982802"><ele>369.0</ele><time>2026-04-04T14:06:46.98Z</time></trkpt><trkpt lat="44.7034558" lon="9.9828083"><ele>369.25</ele><time>2026-04-04T14:06:47.98Z</time></trkpt><trkpt lat="44.7033485" lon="9.9828542"><ele>369.5</ele><time>2026-04-04T14:06:48.98Z</time></trkpt><trkpt lat="44.7032297" lon="9.9828924"><ele>369.75</ele><time>2026-04-04T14:06:49.98Z</time></trkpt><trkpt lat="44.7030986" lon="9.9828616"><ele>370.0</ele><time>2026-04-04T14:06:50.981Z</time></trkpt><trkpt lat="44.702971" lon="9.9827408"><ele>370.0</ele><time>2026-04-04T14:06:51.98Z</time></trkpt><trkpt lat="44.7028638" lon="9.9825888"><ele>370.0</ele><time>2026-04-04T14:06:52.981Z</time></trkpt><trkpt lat="44.7027662" lon="9.9824509"><ele>370.0</ele><time>2026-04-04T14:06:53.981Z</time></trkpt><trkpt lat="44.702666" lon="9.9823548"><ele>370.0</ele><time>2026-04-04T14:06:54.98Z</time></trkpt><trkpt lat="44.7025338" lon="9.9823246"><ele>365.3333333333333</ele><time>2026-04-04T14:06:55.98Z</time></trkpt><trkpt lat="44.7023724" lon="9.9823491"><ele>360.6666666666667</ele><time>2026-04-04T14:06:56.981Z</time></trkpt><trkpt lat="44.7022066" lon="9.9823799"><ele>356.0</ele><time>2026-04-04T14:06:57.981Z</time></trkpt><trkpt lat="44.7020374" lon="9.9823819"><ele>357.0</ele><time>2026-04-04T14:06:58.98Z</time></trkpt><trkpt lat="44.7018853" lon="9.9823515"><ele>358.0</ele><time>2026-04-04T14:06:59.981Z</time></trkpt><trkpt lat="44.7017341" lon="9.9823393"><ele>359.0</ele><time>2026-04-04T14:07:00.98Z</time></trkpt><trkpt lat="44.7015808" lon="9.9823841"><ele>359.0</ele><time>2026-04-04T14:07:01.98Z</time></trkpt><trkpt lat="44.7014195" lon="9.9824828"><ele>359.0</ele><time>2026-04-04T14:07:02.981Z</time></trkpt><trkpt lat="44.7012671" lon="9.982597"><ele>359.0</ele><time>2026-04-04T14:07:03.98Z</time></trkpt><trkpt lat="44.701129" lon="9.9826841"><ele>358.0</ele><time>2026-04-04T14:07:04.98Z</time></trkpt><trkpt lat="44.7009932" lon="9.9827279"><ele>357.0</ele><time>2026-04-04T14:07:05.98Z</time></trkpt><trkpt lat="44.700865" lon="9.9827054"><ele>356.0</ele><time>2026-04-04T14:07:06.981Z</time></trkpt><trkpt lat="44.7007653" lon="9.9825979"><ele>355.0</ele><time>2026-04-04T14:07:07.98Z</time></trkpt><trkpt lat="44.7006926" lon="9.9824419"><ele>355.0</ele><time>2026-04-04T14:07:08.98Z</time></trkpt><trkpt lat="44.7006237" lon="9.9822838"><ele>355.0</ele><time>2026-04-04T14:07:09.98Z</time></trkpt><trkpt lat="44.7005448" lon="9.9821687"><ele>355.0</ele><time>2026-04-04T14:07:10.98Z</time></trkpt><trkpt lat="44.7004354" lon="9.9821095"><ele>355.0</ele><time>2026-04-04T14:07:11.98Z</time></trkpt><trkpt lat="44.7003037" lon="9.9820881"><ele>357.0</ele><time>2026-04-04T14:07:12.981Z</time></trkpt><trkpt lat="44.7001447" lon="9.9820642"><ele>359.0</ele><time>2026-04-04T14:07:13.981Z</time></trkpt><trkpt lat="44.6999954" lon="9.9819807"><ele>361.0</ele><time>2026-04-04T14:07:14.98Z</time></trkpt><trkpt lat="44.6998601" lon="9.9818727"><ele>361.0</ele><time>2026-04-04T14:07:15.98Z</time></trkpt><trkpt lat="44.6997518" lon="9.9817659"><ele>361.0</ele><time>2026-04-04T14:07:16.98Z</time></trkpt><trkpt lat="44.699644" lon="9.9817079"><ele>361.0</ele><time>2026-04-04T14:07:17.98Z</time></trkpt><trkpt lat="44.6995216" lon="9.9817146"><ele>361.0</ele><time>2026-04-04T14:07:18.98Z</time></trkpt><trkpt lat="44.6993819" lon="9.981796"><ele>361.25</ele><time>2026-04-04T14:07:19.98Z</time></trkpt><trkpt lat="44.6992444" lon="9.9818674"><ele>361.5</ele><time>2026-04-04T14:07:20.981Z</time></trkpt><trkpt lat="44.6991031" lon="9.9818928"><ele>361.75</ele><time>2026-04-04T14:07:21.981Z</time></trkpt><trkpt lat="44.6989557" lon="9.9818448"><ele>362.0</ele><time>2026-04-04T14:07:22.981Z</time></trkpt><trkpt lat="44.6988115" lon="9.9817269"><ele>354.6666666666667</ele><time>2026-04-04T14:07:23.98Z</time></trkpt><trkpt lat="44.6986641" lon="9.9815762"><ele>347.3333333333333</ele><time>2026-04-04T14:07:24.98Z</time></trkpt><trkpt lat="44.6985346" lon="9.9814129"><ele>340.0</ele><time>2026-04-04T14:07:25.981Z</time></trkpt><trkpt lat="44.69841" lon="9.9812428"><ele>340.0</ele><time>2026-04-04T14:07:26.98Z</time></trkpt><trkpt lat="44.6982943" lon="9.981054"><ele>340.0</ele><time>2026-04-04T14:07:27.98Z</time></trkpt><trkpt lat="44.6982" lon="9.9808807"><ele>340.0</ele><time>2026-04-04T14:07:28.981Z</time></trkpt><trkpt lat="44.6981208" lon="9.9807464"><ele>338.25</ele><time>2026-04-04T14:07:29.98Z</time></trkpt><trkpt lat="44.6980328" lon="9.9806547"><ele>336.5</ele><time>2026-04-04T14:07:30.98Z</time></trkpt><trkpt lat="44.6979224" lon="9.9806134"><ele>334.75</ele><time>2026-04-04T14:07:31.98Z</time></trkpt><trkpt lat="44.6977724" lon="9.9806341"><ele>333.0</ele><time>2026-04-04T14:07:32.98Z</time></trkpt><trkpt lat="44.6976295" lon="9.9806841"><ele>333.0</ele><time>2026-04-04T14:07:33.98Z</time></trkpt><trkpt lat="44.6975079" lon="9.9807493"><ele>333.0</ele><time>2026-04-04T14:07:34.981Z</time></trkpt><trkpt lat="44.6974289" lon="9.9808308"><ele>333.0</ele><time>2026-04-04T14:07:35.98Z</time></trkpt><trkpt lat="44.697378" lon="9.9809355"><ele>333.0</ele><time>2026-04-04T14:07:36.981Z</time></trkpt><trkpt lat="44.6973571" lon="9.9810609"><ele>333.0</ele><time>2026-04-04T14:07:37.98Z</time></trkpt><trkpt lat="44.6973689" lon="9.9812005"><ele>333.0</ele><time>2026-04-04T14:07:38.98Z</time></trkpt><trkpt lat="44.6974072" lon="9.9813507"><ele>333.0</ele><time>2026-04-04T14:07:39.981Z</time></trkpt><trkpt lat="44.6974581" lon="9.9815055"><ele>333.0</ele><time>2026-04-04T14:07:40.98Z</time></trkpt><trkpt lat="44.6975111" lon="9.9816628"><ele>333.0</ele><time>2026-04-04T14:07:41.98Z</time></trkpt><trkpt lat="44.6975553" lon="9.9818318"><ele>331.0</ele><time>2026-04-04T14:07:42.98Z</time></trkpt><trkpt lat="44.6976001" lon="9.982014"><ele>329.0</ele><time>2026-04-04T14:07:43.98Z</time></trkpt><trkpt lat="44.6976401" lon="9.9822006"><ele>327.0</ele><time>2026-04-04T14:07:44.98Z</time></trkpt><trkpt lat="44.6976762" lon="9.9823942"><ele>325.0</ele><time>2026-04-04T14:07:45.98Z</time></trkpt><trkpt lat="44.6977141" lon="9.9825945"><ele>333.3333333333333</ele><time>2026-04-04T14:07:46.98Z</time></trkpt><trkpt lat="44.6977576" lon="9.9828037"><ele>341.6666666666667</ele><time>2026-04-04T14:07:47.98Z</time></trkpt><trkpt lat="44.6978001" lon="9.9830072"><ele>350.0</ele><time>2026-04-04T14:07:48.98Z</time></trkpt><trkpt lat="44.6978338" lon="9.9832043"><ele>352.0</ele><time>2026-04-04T14:07:49.98Z</time></trkpt><trkpt lat="44.6978672" lon="9.9833999"><ele>354.0</ele><time>2026-04-04T14:07:50.981Z</time></trkpt><trkpt lat="44.6978776" lon="9.9835748"><ele>356.0</ele><time>2026-04-04T14:07:51.98Z</time></trkpt><trkpt lat="44.6978667" lon="9.9837453"><ele>358.0</ele><time>2026-04-04T14:07:52.981Z</time></trkpt><trkpt lat="44.6978272" lon="9.9839092"><ele>354.3333333333333</ele><time>2026-04-04T14:07:53.98Z</time></trkpt><trkpt lat="44.6977492" lon="9.9840595"><ele>350.6666666666667</ele><time>2026-04-04T14:07:54.98Z</time></trkpt><trkpt lat="44.6976116" lon="9.9842084"><ele>347.0</ele><time>2026-04-04T14:07:55.98Z</time></trkpt><trkpt lat="44.6974594" lon="9.9843702"><ele>347.0</ele><time>2026-04-04T14:07:56.98Z</time></trkpt><trkpt lat="44.6973081" lon="9.9845361"><ele>347.0</ele><time>2026-04-04T14:07:57.98Z</time></trkpt><trkpt lat="44.697175" lon="9.9846935"><ele>347.0</ele><time>2026-04-04T14:07:58.98Z</time></trkpt><trkpt lat="44.6970511" lon="9.9848405"><ele>345.33333333333337</ele><time>2026-04-04T14:07:59.981Z</time></trkpt><trkpt lat="44.696919" lon="9.9849637"><ele>343.6666666666667</ele><time>2026-04-04T14:08:00.98Z</time></trkpt><trkpt lat="44.6967663" lon="9.9850687"><ele>342.0</ele><time>2026-04-04T14:08:01.98Z</time></trkpt><trkpt lat="44.6966001" lon="9.9851428"><ele>342.0</ele><time>2026-04-04T14:08:02.981Z</time></trkpt><trkpt lat="44.6964321" lon="9.9852204"><ele>342.0</ele><time>2026-04-04T14:08:03.98Z</time></trkpt><trkpt lat="44.6962787" lon="9.9852984"><ele>342.0</ele><time>2026-04-04T14:08:04.98Z</time></trkpt><trkpt lat="44.6961407" lon="9.9853735"><ele>338.5</ele><time>2026-04-04T14:08:05.98Z</time></trkpt><trkpt lat="44.6960185" lon="9.985453"><ele>335.0</ele><time>2026-04-04T14:08:06.98Z</time></trkpt><trkpt lat="44.6959133" lon="9.9855648"><ele>331.5</ele><time>2026-04-04T14:08:07.98Z</time></trkpt><trkpt lat="44.6958246" lon="9.9857199"><ele>328.0</ele><time>2026-04-04T14:08:08.98Z</time></trkpt><trkpt lat="44.6957307" lon="9.9859197"><ele>328.0</ele><time>2026-04-04T14:08:09.981Z</time></trkpt><trkpt lat="44.6956249" lon="9.9861223"><ele>328.0</ele><time>2026-04-04T14:08:10.98Z</time></trkpt><trkpt lat="44.6955027" lon="9.9863139"><ele>328.0</ele><time>2026-04-04T14:08:11.98Z</time></trkpt><trkpt lat="44.6953879" lon="9.9864852"><ele>328.0</ele><time>2026-04-04T14:08:12.981Z</time></trkpt><trkpt lat="44.6952692" lon="9.9866499"><ele>328.0</ele><time>2026-04-04T14:08:13.98Z</time></trkpt><trkpt lat="44.6951391" lon="9.9868117"><ele>328.0</ele><time>2026-04-04T14:08:14.981Z</time></trkpt><trkpt lat="44.6950132" lon="9.9869656"><ele>322.66666666666663</ele><time>2026-04-04T14:08:15.981Z</time></trkpt><trkpt lat="44.6948827" lon="9.9871199"><ele>317.3333333333333</ele><time>2026-04-04T14:08:16.98Z</time></trkpt><trkpt lat="44.6947555" lon="9.9872774"><ele>312.0</ele><time>2026-04-04T14:08:17.98Z</time></trkpt><trkpt lat="44.6946421" lon="9.9874278"><ele>313.25</ele><time>2026-04-04T14:08:18.98Z</time></trkpt><trkpt lat="44.6945569" lon="9.9875677"><ele>314.5</ele><time>2026-04-04T14:08:19.981Z</time></trkpt><trkpt lat="44.6944966" lon="9.9877156"><ele>315.75</ele><time>2026-04-04T14:08:20.98Z</time></trkpt><trkpt lat="44.6944864" lon="9.9878698"><ele>317.0</ele><time>2026-04-04T14:08:21.981Z</time></trkpt><trkpt lat="44.6945099" lon="9.9880182"><ele>317.0</ele><time>2026-04-04T14:08:22.981Z</time></trkpt><trkpt lat="44.6945308" lon="9.9881602"><ele>317.0</ele><time>2026-04-04T14:08:23.981Z</time></trkpt><trkpt lat="44.694517" lon="9.9882918"><ele>317.0</ele><time>2026-04-04T14:08:24.98Z</time></trkpt><trkpt lat="44.6944553" lon="9.9884085"><ele>317.0</ele><time>2026-04-04T14:08:25.98Z</time></trkpt><trkpt lat="44.6943431" lon="9.9884859"><ele>317.0</ele><time>2026-04-04T14:08:26.98Z</time></trkpt><trkpt lat="44.6941788" lon="9.9885127"><ele>314.33333333333337</ele><time>2026-04-04T14:08:27.98Z</time></trkpt><trkpt lat="44.6940055" lon="9.988536"><ele>311.6666666666667</ele><time>2026-04-04T14:08:28.98Z</time></trkpt><trkpt lat="44.6938418" lon="9.9885582"><ele>309.0</ele><time>2026-04-04T14:08:29.98Z</time></trkpt><trkpt lat="44.6937044" lon="9.9885961"><ele>309.0</ele><time>2026-04-04T14:08:30.981Z</time></trkpt><trkpt lat="44.6935908" lon="9.9886531"><ele>309.0</ele><time>2026-04-04T14:08:31.98Z</time></trkpt><trkpt lat="44.6934924" lon="9.9887139"><ele>309.0</ele><time>2026-04-04T14:08:32.981Z</time></trkpt><trkpt lat="44.6934105" lon="9.9887663"><ele>309.0</ele><time>2026-04-04T14:08:33.98Z</time></trkpt><trkpt lat="44.6933467" lon="9.9888151"><ele>309.0</ele><time>2026-04-04T14:08:34.98Z</time></trkpt><trkpt lat="44.6932608" lon="9.9888526"><ele>305.8333333333333</ele><time>2026-04-04T14:08:36.981Z</time></trkpt><trkpt lat="44.6931926" lon="9.9888972"><ele>302.6666666666667</ele><time>2026-04-04T14:08:41.98Z</time></trkpt><trkpt lat="44.6930999" lon="9.9888069"><ele>299.5</ele><time>2026-04-04T14:08:53.98Z</time></trkpt><trkpt lat="44.6930277" lon="9.9887397"><ele>296.33333333333337</ele><time>2026-04-04T14:08:54.981Z</time></trkpt><trkpt lat="44.6929489" lon="9.9886807"><ele>293.1666666666667</ele><time>2026-04-04T14:08:55.981Z</time></trkpt><trkpt lat="44.6928757" lon="9.9886328"><ele>290.0</ele><time>2026-04-04T14:08:56.98Z</time></trkpt><trkpt lat="44.6928056" lon="9.9885859"><ele>289.83333333333337</ele><time>2026-04-04T14:08:57.981Z</time></trkpt><trkpt lat="44.6927417" lon="9.988533"><ele>289.6666666666667</ele><time>2026-04-04T14:08:58.98Z</time></trkpt><trkpt lat="44.6926784" lon="9.9884778"><ele>289.5</ele><time>2026-04-04T14:08:59.981Z</time></trkpt><trkpt lat="44.6926109" lon="9.9884146"><ele>289.3333333333333</ele><time>2026-04-04T14:09:00.98Z</time></trkpt><trkpt lat="44.6925364" lon="9.9883546"><ele>289.16666666666663</ele><time>2026-04-04T14:09:01.981Z</time></trkpt><trkpt lat="44.6924596" lon="9.9883059"><ele>289.0</ele><time>2026-04-04T14:09:02.98Z</time></trkpt><trkpt lat="44.6923845" lon="9.9882719"><ele>289.0</ele><time>2026-04-04T14:09:03.98Z</time></trkpt><trkpt lat="44.6923187" lon="9.9882513"><ele>289.0</ele><time>2026-04-04T14:09:04.981Z</time></trkpt><trkpt lat="44.6922132" lon="9.9882212"><ele>289.0</ele><time>2026-04-04T14:09:06.98Z</time></trkpt><trkpt lat="44.6921236" lon="9.9882119"><ele>289.0</ele><time>2026-04-04T14:09:08.98Z</time></trkpt><trkpt lat="44.6920624" lon="9.9881776"><ele>289.0</ele><time>2026-04-04T14:09:10.98Z</time></trkpt><trkpt lat="44.6920144" lon="9.9880619"><ele>289.0</ele><time>2026-04-04T14:09:14.981Z</time></trkpt><trkpt lat="44.6920233" lon="9.9881033"><ele>289.0</ele><time>2026-04-04T14:12:36.98Z</time></trkpt><trkpt lat="44.6920867" lon="9.9881933"><ele>289.0</ele><time>2026-04-04T14:12:39.98Z</time></trkpt><trkpt lat="44.6921783" lon="9.9882333"><ele>289.0</ele><time>2026-04-04T14:12:42.98Z</time></trkpt><trkpt lat="44.6922467" lon="9.988235"><ele>289.0</ele><time>2026-04-04T14:12:44.981Z</time></trkpt><trkpt lat="44.6923183" lon="9.9882533"><ele>289.0</ele><time>2026-04-04T14:12:46.98Z</time></trkpt><trkpt lat="44.69239" lon="9.9882767"><ele>289.0</ele><time>2026-04-04T14:12:48.98Z</time></trkpt><trkpt lat="44.6924933" lon="9.9883183"><ele>289.2</ele><time>2026-04-04T14:12:50.98Z</time></trkpt><trkpt lat="44.6925867" lon="9.9883967"><ele>289.4</ele><time>2026-04-04T14:12:52.981Z</time></trkpt><trkpt lat="44.69268" lon="9.9884767"><ele>289.6</ele><time>2026-04-04T14:12:54.98Z</time></trkpt><trkpt lat="44.692735" lon="9.9885217"><ele>289.8</ele><time>2026-04-04T14:12:55.98Z</time></trkpt><trkpt lat="44.6928367" lon="9.988615"><ele>290.0</ele><time>2026-04-04T14:12:57.98Z</time></trkpt><trkpt lat="44.6929533" lon="9.988695"><ele>290.0</ele><time>2026-04-04T14:12:59.981Z</time></trkpt><trkpt lat="44.69302" lon="9.9887467"><ele>290.0</ele><time>2026-04-04T14:13:00.98Z</time></trkpt><trkpt lat="44.6930833" lon="9.988815"><ele>290.0</ele><time>2026-04-04T14:13:01.98Z</time></trkpt><trkpt lat="44.693135" lon="9.9888783"><ele>290.0</ele><time>2026-04-04T14:13:02.98Z</time></trkpt><trkpt lat="44.6931933" lon="9.9890033"><ele>290.0</ele><time>2026-04-04T14:13:04.981Z</time></trkpt><trkpt lat="44.6931967" lon="9.9891933"><ele>290.0</ele><time>2026-04-04T14:13:06.98Z</time></trkpt><trkpt lat="44.6931817" lon="9.9893367"><ele>290.0</ele><time>2026-04-04T14:13:07.98Z</time></trkpt><trkpt lat="44.6931717" lon="9.9895133"><ele>290.0</ele><time>2026-04-04T14:13:08.98Z</time></trkpt><trkpt lat="44.693165" lon="9.9896933"><ele>290.0</ele><time>2026-04-04T14:13:09.98Z</time></trkpt><trkpt lat="44.69317" lon="9.9898683"><ele>288.5</ele><time>2026-04-04T14:13:10.98Z</time></trkpt><trkpt lat="44.6931733" lon="9.9900367"><ele>287.0</ele><time>2026-04-04T14:13:11.98Z</time></trkpt><trkpt lat="44.693185" lon="9.9901917"><ele>285.5</ele><time>2026-04-04T14:13:12.98Z</time></trkpt><trkpt lat="44.6932167" lon="9.9903483"><ele>284.0</ele><time>2026-04-04T14:13:13.98Z</time></trkpt><trkpt lat="44.69328" lon="9.9904817"><ele>284.0</ele><time>2026-04-04T14:13:14.98Z</time></trkpt><trkpt lat="44.6933517" lon="9.9906133"><ele>284.0</ele><time>2026-04-04T14:13:15.98Z</time></trkpt><trkpt lat="44.6934217" lon="9.9907383"><ele>284.0</ele><time>2026-04-04T14:13:16.98Z</time></trkpt><trkpt lat="44.69346" lon="9.9908733"><ele>284.0</ele><time>2026-04-04T14:13:17.98Z</time></trkpt><trkpt lat="44.693475" lon="9.991025"><ele>284.0</ele><time>2026-04-04T14:13:18.98Z</time></trkpt><trkpt lat="44.6934483" lon="9.991185"><ele>284.5</ele><time>2026-04-04T14:13:19.981Z</time></trkpt><trkpt lat="44.6933917" lon="9.9913467"><ele>285.0</ele><time>2026-04-04T14:13:20.98Z</time></trkpt><trkpt lat="44.6932967" lon="9.991505"><ele>285.5</ele><time>2026-04-04T14:13:21.98Z</time></trkpt><trkpt lat="44.6931983" lon="9.9916533"><ele>286.0</ele><time>2026-04-04T14:13:22.981Z</time></trkpt><trkpt lat="44.6931217" lon="9.991795"><ele>284.75</ele><time>2026-04-04T14:13:23.98Z</time></trkpt><trkpt lat="44.693065" lon="9.9919317"><ele>283.5</ele><time>2026-04-04T14:13:24.98Z</time></trkpt><trkpt lat="44.6930333" lon="9.992105"><ele>282.25</ele><time>2026-04-04T14:13:25.98Z</time></trkpt><trkpt lat="44.6930433" lon="9.9922767"><ele>281.0</ele><time>2026-04-04T14:13:26.98Z</time></trkpt><trkpt lat="44.693095" lon="9.992445"><ele>283.25</ele><time>2026-04-04T14:13:27.981Z</time></trkpt><trkpt lat="44.693155" lon="9.9925933"><ele>285.5</ele><time>2026-04-04T14:13:28.981Z</time></trkpt><trkpt lat="44.6931917" lon="9.99274"><ele>287.75</ele><time>2026-04-04T14:13:29.98Z</time></trkpt><trkpt lat="44.6931933" lon="9.9928933"><ele>290.0</ele><time>2026-04-04T14:13:30.98Z</time></trkpt><trkpt lat="44.6931433" lon="9.9930533"><ele>290.0</ele><time>2026-04-04T14:13:31.98Z</time></trkpt><trkpt lat="44.6930583" lon="9.9932"><ele>290.0</ele><time>2026-04-04T14:13:32.981Z</time></trkpt><trkpt lat="44.6929433" lon="9.9933433"><ele>290.0</ele><time>2026-04-04T14:13:33.98Z</time></trkpt><trkpt lat="44.6928167" lon="9.9934633"><ele>290.0</ele><time>2026-04-04T14:13:34.98Z</time></trkpt><trkpt lat="44.6927033" lon="9.9936067"><ele>285.33333333333337</ele><time>2026-04-04T14:13:35.98Z</time></trkpt><trkpt lat="44.69262" lon="9.993775"><ele>280.6666666666667</ele><time>2026-04-04T14:13:36.98Z</time></trkpt><trkpt lat="44.6925583" lon="9.9939733"><ele>276.0</ele><time>2026-04-04T14:13:37.98Z</time></trkpt><trkpt lat="44.69251" lon="9.9941883"><ele>275.0</ele><time>2026-04-04T14:13:38.981Z</time></trkpt><trkpt lat="44.6924617" lon="9.9944117"><ele>274.0</ele><time>2026-04-04T14:13:39.98Z</time></trkpt><trkpt lat="44.692425" lon="9.994625"><ele>273.0</ele><time>2026-04-04T14:13:40.98Z</time></trkpt><trkpt lat="44.69238" lon="9.99482"><ele>271.5</ele><time>2026-04-04T14:13:41.981Z</time></trkpt><trkpt lat="44.6923317" lon="9.9950067"><ele>270.0</ele><time>2026-04-04T14:13:42.98Z</time></trkpt><trkpt lat="44.6922967" lon="9.9951683"><ele>268.5</ele><time>2026-04-04T14:13:43.981Z</time></trkpt><trkpt lat="44.6922767" lon="9.995305"><ele>267.0</ele><time>2026-04-04T14:13:44.981Z</time></trkpt><trkpt lat="44.6922967" lon="9.9954467"><ele>267.0</ele><time>2026-04-04T14:13:45.98Z</time></trkpt><trkpt lat="44.6923433" lon="9.99558"><ele>267.0</ele><time>2026-04-04T14:13:46.98Z</time></trkpt><trkpt lat="44.6924183" lon="9.9957233"><ele>267.0</ele><time>2026-04-04T14:13:47.981Z</time></trkpt><trkpt lat="44.6924867" lon="9.9958717"><ele>267.0</ele><time>2026-04-04T14:13:48.98Z</time></trkpt><trkpt lat="44.6925183" lon="9.9960517"><ele>267.0</ele><time>2026-04-04T14:13:49.981Z</time></trkpt><trkpt lat="44.692505" lon="9.9962383"><ele>267.0</ele><time>2026-04-04T14:13:50.98Z</time></trkpt><trkpt lat="44.6924583" lon="9.9964217"><ele>267.0</ele><time>2026-04-04T14:13:51.98Z</time></trkpt><trkpt lat="44.6923867" lon="9.996605"><ele>267.0</ele><time>2026-04-04T14:13:52.981Z</time></trkpt><trkpt lat="44.6923133" lon="9.996795"><ele>268.25</ele><time>2026-04-04T14:13:53.981Z</time></trkpt><trkpt lat="44.6922467" lon="9.996975"><ele>269.5</ele><time>2026-04-04T14:13:54.98Z</time></trkpt><trkpt lat="44.6921783" lon="9.9971483"><ele>270.75</ele><time>2026-04-04T14:13:55.981Z</time></trkpt><trkpt lat="44.6921067" lon="9.9973017"><ele>272.0</ele><time>2026-04-04T14:13:56.98Z</time></trkpt><trkpt lat="44.6920183" lon="9.99743"><ele>268.75</ele><time>2026-04-04T14:13:57.98Z</time></trkpt><trkpt lat="44.6919167" lon="9.9975467"><ele>265.5</ele><time>2026-04-04T14:13:58.98Z</time></trkpt><trkpt lat="44.6917883" lon="9.9976367"><ele>262.25</ele><time>2026-04-04T14:13:59.981Z</time></trkpt><trkpt lat="44.691655" lon="9.9977217"><ele>259.0</ele><time>2026-04-04T14:14:00.981Z</time></trkpt><trkpt lat="44.6915333" lon="9.9978483"><ele>259.0</ele><time>2026-04-04T14:14:01.98Z</time></trkpt><trkpt lat="44.6914367" lon="9.9979983"><ele>259.0</ele><time>2026-04-04T14:14:02.98Z</time></trkpt><trkpt lat="44.69137" lon="9.9981567"><ele>259.0</ele><time>2026-04-04T14:14:03.981Z</time></trkpt><trkpt lat="44.69133" lon="9.9983133"><ele>259.0</ele><time>2026-04-04T14:14:04.98Z</time></trkpt><trkpt lat="44.6913283" lon="9.9984817"><ele>258.0</ele><time>2026-04-04T14:14:05.981Z</time></trkpt><trkpt lat="44.6913683" lon="9.99866"><ele>257.0</ele><time>2026-04-04T14:14:06.98Z</time></trkpt><trkpt lat="44.6914317" lon="9.9988267"><ele>256.0</ele><time>2026-04-04T14:14:07.98Z</time></trkpt><trkpt lat="44.69148" lon="9.9989783"><ele>255.0</ele><time>2026-04-04T14:14:08.98Z</time></trkpt><trkpt lat="44.691495" lon="9.9991283"><ele>255.5</ele><time>2026-04-04T14:14:09.98Z</time></trkpt><trkpt lat="44.6914633" lon="9.9992717"><ele>256.0</ele><time>2026-04-04T14:14:10.981Z</time></trkpt><trkpt lat="44.691385" lon="9.9993833"><ele>256.5</ele><time>2026-04-04T14:14:11.98Z</time></trkpt><trkpt lat="44.6912583" lon="9.9994667"><ele>257.0</ele><time>2026-04-04T14:14:12.98Z</time></trkpt><trkpt lat="44.69114" lon="9.9995067"><ele>251.0</ele><time>2026-04-04T14:14:13.981Z</time></trkpt><trkpt lat="44.691045" lon="9.9995783"><ele>245.0</ele><time>2026-04-04T14:14:14.98Z</time></trkpt><trkpt lat="44.69099" lon="9.9996983"><ele>239.0</ele><time>2026-04-04T14:14:15.981Z</time></trkpt><trkpt lat="44.6909633" lon="9.9998817"><ele>233.0</ele><time>2026-04-04T14:14:16.981Z</time></trkpt><trkpt lat="44.6909933" lon="10.0000783"><ele>233.0</ele><time>2026-04-04T14:14:17.98Z</time></trkpt><trkpt lat="44.6910467" lon="10.0002867"><ele>233.0</ele><time>2026-04-04T14:14:18.98Z</time></trkpt><trkpt lat="44.6910983" lon="10.0005"><ele>233.0</ele><time>2026-04-04T14:14:19.98Z</time></trkpt><trkpt lat="44.69113" lon="10.0007117"><ele>232.75</ele><time>2026-04-04T14:14:20.98Z</time></trkpt><trkpt lat="44.6911367" lon="10.0009183"><ele>232.5</ele><time>2026-04-04T14:14:21.98Z</time></trkpt><trkpt lat="44.6911167" lon="10.0011117"><ele>232.25</ele><time>2026-04-04T14:14:22.981Z</time></trkpt><trkpt lat="44.6910833" lon="10.0012717"><ele>232.0</ele><time>2026-04-04T14:14:23.981Z</time></trkpt><trkpt lat="44.6910283" lon="10.001375"><ele>231.99999999999997</ele><time>2026-04-04T14:14:24.98Z</time></trkpt><trkpt lat="44.6909633" lon="10.00142"><ele>232.0</ele><time>2026-04-04T14:14:25.98Z</time></trkpt><trkpt lat="44.6908983" lon="10.0014133"><ele>232.0</ele><time>2026-04-04T14:14:26.98Z</time></trkpt><trkpt lat="44.6908367" lon="10.0013533"><ele>232.0</ele><time>2026-04-04T14:14:27.981Z</time></trkpt><trkpt lat="44.6907833" lon="10.0012367"><ele>231.99999999999997</ele><time>2026-04-04T14:14:28.98Z</time></trkpt><trkpt lat="44.6907767" lon="10.0010583"><ele>232.0</ele><time>2026-04-04T14:14:29.98Z</time></trkpt><trkpt lat="44.6907917" lon="10.0008567"><ele>232.25</ele><time>2026-04-04T14:14:30.98Z</time></trkpt><trkpt lat="44.6908167" lon="10.0006467"><ele>232.5</ele><time>2026-04-04T14:14:31.98Z</time></trkpt><trkpt lat="44.6908267" lon="10.0004683"><ele>232.75</ele><time>2026-04-04T14:14:32.98Z</time></trkpt><trkpt lat="44.6907883" lon="10.0003467"><ele>233.0</ele><time>2026-04-04T14:14:33.98Z</time></trkpt><trkpt lat="44.690725" lon="10.0002783"><ele>233.0</ele><time>2026-04-04T14:14:34.98Z</time></trkpt><trkpt lat="44.6906483" lon="10.0002533"><ele>233.0</ele><time>2026-04-04T14:14:35.98Z</time></trkpt><trkpt lat="44.6905783" lon="10.00027"><ele>233.0</ele><time>2026-04-04T14:14:36.98Z</time></trkpt><trkpt lat="44.6905167" lon="10.0003517"><ele>233.0</ele><time>2026-04-04T14:14:37.981Z</time></trkpt><trkpt lat="44.6904683" lon="10.0005117"><ele>233.0</ele><time>2026-04-04T14:14:38.98Z</time></trkpt><trkpt lat="44.690445" lon="10.000705"><ele>232.66666666666669</ele><time>2026-04-04T14:14:39.981Z</time></trkpt><trkpt lat="44.6904533" lon="10.0009717"><ele>232.33333333333331</ele><time>2026-04-04T14:14:40.98Z</time></trkpt><trkpt lat="44.690495" lon="10.00127"><ele>232.0</ele><time>2026-04-04T14:14:41.98Z</time></trkpt><trkpt lat="44.6905283" lon="10.0015333"><ele>233.0</ele><time>2026-04-04T14:14:42.981Z</time></trkpt><trkpt lat="44.6905367" lon="10.00176"><ele>234.0</ele><time>2026-04-04T14:14:43.981Z</time></trkpt><trkpt lat="44.6905217" lon="10.001985"><ele>235.0</ele><time>2026-04-04T14:14:44.98Z</time></trkpt><trkpt lat="44.690485" lon="10.002215"><ele>235.0</ele><time>2026-04-04T14:14:45.981Z</time></trkpt><trkpt lat="44.690445" lon="10.0024433"><ele>235.0</ele><time>2026-04-04T14:14:46.98Z</time></trkpt><trkpt lat="44.6904" lon="10.0026767"><ele>235.0</ele><time>2026-04-04T14:14:47.98Z</time></trkpt><trkpt lat="44.6903583" lon="10.002905"><ele>236.66666666666666</ele><time>2026-04-04T14:14:48.981Z</time></trkpt><trkpt lat="44.690315" lon="10.0031283"><ele>238.33333333333331</ele><time>2026-04-04T14:14:49.98Z</time></trkpt><trkpt lat="44.6902867" lon="10.0033467"><ele>240.0</ele><time>2026-04-04T14:14:50.98Z</time></trkpt><trkpt lat="44.6902467" lon="10.0035567"><ele>233.0</ele><time>2026-04-04T14:14:51.98Z</time></trkpt><trkpt lat="44.690205" lon="10.0037567"><ele>226.0</ele><time>2026-04-04T14:14:52.98Z</time></trkpt><trkpt lat="44.690165" lon="10.0039433"><ele>219.0</ele><time>2026-04-04T14:14:53.98Z</time></trkpt><trkpt lat="44.69013" lon="10.0041283"><ele>212.0</ele><time>2026-04-04T14:14:54.981Z</time></trkpt><trkpt lat="44.690095" lon="10.004305"><ele>211.75</ele><time>2026-04-04T14:14:55.98Z</time></trkpt><trkpt lat="44.6900533" lon="10.0044833"><ele>211.5</ele><time>2026-04-04T14:14:56.981Z</time></trkpt><trkpt lat="44.6900033" lon="10.004655"><ele>211.25</ele><time>2026-04-04T14:14:57.981Z</time></trkpt><trkpt lat="44.6899433" lon="10.004825"><ele>211.0</ele><time>2026-04-04T14:14:58.98Z</time></trkpt><trkpt lat="44.689875" lon="10.004985"><ele>210.0</ele><time>2026-04-04T14:14:59.98Z</time></trkpt><trkpt lat="44.6897933" lon="10.0051483"><ele>209.0</ele><time>2026-04-04T14:15:00.981Z</time></trkpt><trkpt lat="44.6897083" lon="10.0053083"><ele>208.0</ele><time>2026-04-04T14:15:01.98Z</time></trkpt><trkpt lat="44.6896183" lon="10.0054667"><ele>207.0</ele><time>2026-04-04T14:15:02.981Z</time></trkpt><trkpt lat="44.6895233" lon="10.0056317"><ele>207.0</ele><time>2026-04-04T14:15:03.98Z</time></trkpt><trkpt lat="44.6894333" lon="10.0057983"><ele>207.0</ele><time>2026-04-04T14:15:04.981Z</time></trkpt><trkpt lat="44.6893517" lon="10.0059467"><ele>207.0</ele><time>2026-04-04T14:15:05.98Z</time></trkpt><trkpt lat="44.6892917" lon="10.006065"><ele>207.0</ele><time>2026-04-04T14:15:06.98Z</time></trkpt><trkpt lat="44.68923" lon="10.0061883"><ele>206.75</ele><time>2026-04-04T14:15:07.98Z</time></trkpt><trkpt lat="44.6891667" lon="10.00632"><ele>206.5</ele><time>2026-04-04T14:15:08.981Z</time></trkpt><trkpt lat="44.689095" lon="10.0064583"><ele>206.25</ele><time>2026-04-04T14:15:09.98Z</time></trkpt><trkpt lat="44.6890233" lon="10.0066083"><ele>206.0</ele><time>2026-04-04T14:15:10.981Z</time></trkpt><trkpt lat="44.6889633" lon="10.0067683"><ele>205.0</ele><time>2026-04-04T14:15:11.98Z</time></trkpt><trkpt lat="44.6889" lon="10.0069417"><ele>204.0</ele><time>2026-04-04T14:15:12.98Z</time></trkpt><trkpt lat="44.688835" lon="10.0071167"><ele>203.0</ele><time>2026-04-04T14:15:13.98Z</time></trkpt><trkpt lat="44.6887733" lon="10.0072867"><ele>202.0</ele><time>2026-04-04T14:15:14.981Z</time></trkpt><trkpt lat="44.6887083" lon="10.007435"><ele>201.49999999999997</ele><time>2026-04-04T14:15:15.98Z</time></trkpt><trkpt lat="44.688645" lon="10.0075467"><ele>201.0</ele><time>2026-04-04T14:15:16.981Z</time></trkpt><trkpt lat="44.6885833" lon="10.0076217"><ele>200.5</ele><time>2026-04-04T14:15:17.98Z</time></trkpt><trkpt lat="44.6885217" lon="10.0076567"><ele>200.0</ele><time>2026-04-04T14:15:18.98Z</time></trkpt><trkpt lat="44.6884333" lon="10.00765"><ele>199.49999999999997</ele><time>2026-04-04T14:15:20.981Z</time></trkpt><trkpt lat="44.6883583" lon="10.0076117"><ele>199.0</ele><time>2026-04-04T14:15:27.98Z</time></trkpt><trkpt lat="44.6882683" lon="10.0075517"><ele>199.0</ele><time>2026-04-04T14:15:29.981Z</time></trkpt><trkpt lat="44.68817" lon="10.0075617"><ele>199.0</ele><time>2026-04-04T14:15:31.98Z</time></trkpt><trkpt lat="44.6881117" lon="10.007725"><ele>199.0</ele><time>2026-04-04T14:15:33.98Z</time></trkpt><trkpt lat="44.6881" lon="10.0078417"><ele>199.0</ele><time>2026-04-04T14:15:34.98Z</time></trkpt><trkpt lat="44.6880983" lon="10.00797"><ele>199.0</ele><time>2026-04-04T14:15:35.979Z</time></trkpt><trkpt lat="44.6880967" lon="10.00812"><ele>199.0</ele><time>2026-04-04T14:15:36.979Z</time></trkpt><trkpt lat="44.6880917" lon="10.008275"><ele>199.0</ele><time>2026-04-04T14:15:37.979Z</time></trkpt><trkpt lat="44.6880917" lon="10.00844"><ele>199.0</ele><time>2026-04-04T14:15:38.979Z</time></trkpt><trkpt lat="44.6880883" lon="10.0086167"><ele>199.0</ele><time>2026-04-04T14:15:39.98Z</time></trkpt><trkpt lat="44.68808" lon="10.00879"><ele>198.5</ele><time>2026-04-04T14:15:40.979Z</time></trkpt><trkpt lat="44.6880783" lon="10.008965"><ele>198.0</ele><time>2026-04-04T14:15:41.98Z</time></trkpt><trkpt lat="44.6880767" lon="10.00913"><ele>197.5</ele><time>2026-04-04T14:15:42.98Z</time></trkpt><trkpt lat="44.688075" lon="10.0092933"><ele>197.0</ele><time>2026-04-04T14:15:43.979Z</time></trkpt><trkpt lat="44.688085" lon="10.0094667"><ele>197.0</ele><time>2026-04-04T14:15:44.98Z</time></trkpt><trkpt lat="44.688085" lon="10.0096383"><ele>197.0</ele><time>2026-04-04T14:15:45.979Z</time></trkpt><trkpt lat="44.68808" lon="10.0098033"><ele>197.0</ele><time>2026-04-04T14:15:46.98Z</time></trkpt><trkpt lat="44.6880883" lon="10.0099683"><ele>197.0</ele><time>2026-04-04T14:15:47.979Z</time></trkpt><trkpt lat="44.68809" lon="10.0101317"><ele>197.6</ele><time>2026-04-04T14:15:48.979Z</time></trkpt><trkpt lat="44.6880833" lon="10.0102967"><ele>198.2</ele><time>2026-04-04T14:15:49.979Z</time></trkpt><trkpt lat="44.6880733" lon="10.0104517"><ele>198.8</ele><time>2026-04-04T14:15:50.979Z</time></trkpt><trkpt lat="44.6880483" lon="10.0106017"><ele>199.4</ele><time>2026-04-04T14:15:51.98Z</time></trkpt><trkpt lat="44.6880233" lon="10.01073"><ele>200.0</ele><time>2026-04-04T14:15:52.979Z</time></trkpt><trkpt lat="44.6879917" lon="10.0108367"><ele>200.8</ele><time>2026-04-04T14:15:53.98Z</time></trkpt><trkpt lat="44.6879433" lon="10.0109383"><ele>201.6</ele><time>2026-04-04T14:15:54.979Z</time></trkpt><trkpt lat="44.6878833" lon="10.01103"><ele>202.39999999999998</ele><time>2026-04-04T14:15:55.979Z</time></trkpt><trkpt lat="44.6878167" lon="10.01113"><ele>203.2</ele><time>2026-04-04T14:15:56.98Z</time></trkpt><trkpt lat="44.6877467" lon="10.011245"><ele>204.0</ele><time>2026-04-04T14:15:57.979Z</time></trkpt><trkpt lat="44.6876717" lon="10.011375"><ele>201.75</ele><time>2026-04-04T14:15:58.979Z</time></trkpt><trkpt lat="44.687595" lon="10.0115033"><ele>199.5</ele><time>2026-04-04T14:15:59.979Z</time></trkpt><trkpt lat="44.687535" lon="10.0116417"><ele>197.25</ele><time>2026-04-04T14:16:00.98Z</time></trkpt><trkpt lat="44.68748" lon="10.01179"><ele>195.0</ele><time>2026-04-04T14:16:01.98Z</time></trkpt><trkpt lat="44.687435" lon="10.0119483"><ele>195.0</ele><time>2026-04-04T14:16:02.979Z</time></trkpt><trkpt lat="44.687385" lon="10.0120967"><ele>195.0</ele><time>2026-04-04T14:16:03.979Z</time></trkpt><trkpt lat="44.68734" lon="10.012255"><ele>195.0</ele><time>2026-04-04T14:16:04.979Z</time></trkpt><trkpt lat="44.6872967" lon="10.012415"><ele>195.0</ele><time>2026-04-04T14:16:05.979Z</time></trkpt><trkpt lat="44.687255" lon="10.012575"><ele>195.25</ele><time>2026-04-04T14:16:06.979Z</time></trkpt><trkpt lat="44.6872067" lon="10.0127383"><ele>195.5</ele><time>2026-04-04T14:16:07.979Z</time></trkpt><trkpt lat="44.68716" lon="10.0129017"><ele>195.75</ele><time>2026-04-04T14:16:08.979Z</time></trkpt><trkpt lat="44.68712" lon="10.0130667"><ele>196.0</ele><time>2026-04-04T14:16:09.979Z</time></trkpt><trkpt lat="44.68708" lon="10.0132317"><ele>195.5</ele><time>2026-04-04T14:16:10.979Z</time></trkpt><trkpt lat="44.6870383" lon="10.01339"><ele>195.0</ele><time>2026-04-04T14:16:11.979Z</time></trkpt><trkpt lat="44.6870017" lon="10.013545"><ele>194.5</ele><time>2026-04-04T14:16:12.979Z</time></trkpt><trkpt lat="44.6869683" lon="10.0137017"><ele>194.0</ele><time>2026-04-04T14:16:13.98Z</time></trkpt><trkpt lat="44.6869383" lon="10.01386"><ele>193.0</ele><time>2026-04-04T14:16:14.979Z</time></trkpt><trkpt lat="44.686915" lon="10.0140267"><ele>192.0</ele><time>2026-04-04T14:16:15.979Z</time></trkpt><trkpt lat="44.6868967" lon="10.0141933"><ele>191.0</ele><time>2026-04-04T14:16:16.98Z</time></trkpt><trkpt lat="44.6868733" lon="10.0143683"><ele>190.0</ele><time>2026-04-04T14:16:17.979Z</time></trkpt><trkpt lat="44.686845" lon="10.0145517"><ele>190.0</ele><time>2026-04-04T14:16:18.98Z</time></trkpt><trkpt lat="44.6868" lon="10.014725"><ele>190.0</ele><time>2026-04-04T14:16:19.979Z</time></trkpt><trkpt lat="44.6867583" lon="10.01489"><ele>190.0</ele><time>2026-04-04T14:16:20.979Z</time></trkpt><trkpt lat="44.6866983" lon="10.0150483"><ele>190.0</ele><time>2026-04-04T14:16:21.979Z</time></trkpt><trkpt lat="44.6866283" lon="10.0152017"><ele>190.0</ele><time>2026-04-04T14:16:22.979Z</time></trkpt><trkpt lat="44.686555" lon="10.01535"><ele>190.0</ele><time>2026-04-04T14:16:23.979Z</time></trkpt><trkpt lat="44.6864633" lon="10.0154967"><ele>190.0</ele><time>2026-04-04T14:16:24.979Z</time></trkpt><trkpt lat="44.68638" lon="10.0156483"><ele>190.0</ele><time>2026-04-04T14:16:25.979Z</time></trkpt><trkpt lat="44.6863067" lon="10.0157833"><ele>190.6</ele><time>2026-04-04T14:16:26.98Z</time></trkpt><trkpt lat="44.6862383" lon="10.0159217"><ele>191.2</ele><time>2026-04-04T14:16:27.979Z</time></trkpt><trkpt lat="44.68617" lon="10.0160367"><ele>191.8</ele><time>2026-04-04T14:16:28.979Z</time></trkpt><trkpt lat="44.686105" lon="10.016135"><ele>192.4</ele><time>2026-04-04T14:16:29.979Z</time></trkpt><trkpt lat="44.6860283" lon="10.016205"><ele>193.0</ele><time>2026-04-04T14:16:30.979Z</time></trkpt><trkpt lat="44.68595" lon="10.01627"><ele>191.60000000000002</ele><time>2026-04-04T14:16:31.98Z</time></trkpt><trkpt lat="44.6858733" lon="10.01632"><ele>190.20000000000002</ele><time>2026-04-04T14:16:32.979Z</time></trkpt><trkpt lat="44.685805" lon="10.016375"><ele>188.8</ele><time>2026-04-04T14:16:33.98Z</time></trkpt><trkpt lat="44.6857483" lon="10.016465"><ele>187.4</ele><time>2026-04-04T14:16:34.979Z</time></trkpt><trkpt lat="44.6857283" lon="10.0165917"><ele>186.0</ele><time>2026-04-04T14:16:35.98Z</time></trkpt><trkpt lat="44.685725" lon="10.0167467"><ele>186.0</ele><time>2026-04-04T14:16:36.979Z</time></trkpt><trkpt lat="44.6857083" lon="10.0169083"><ele>186.0</ele><time>2026-04-04T14:16:37.98Z</time></trkpt><trkpt lat="44.685665" lon="10.0170717"><ele>186.0</ele><time>2026-04-04T14:16:38.98Z</time></trkpt><trkpt lat="44.685605" lon="10.0172333"><ele>186.0</ele><time>2026-04-04T14:16:39.98Z</time></trkpt><trkpt lat="44.6855483" lon="10.0174017"><ele>186.25</ele><time>2026-04-04T14:16:40.98Z</time></trkpt><trkpt lat="44.685505" lon="10.0175867"><ele>186.5</ele><time>2026-04-04T14:16:41.979Z</time></trkpt><trkpt lat="44.685465" lon="10.0177883"><ele>186.75</ele><time>2026-04-04T14:16:42.98Z</time></trkpt><trkpt lat="44.685425" lon="10.0180033"><ele>187.0</ele><time>2026-04-04T14:16:43.979Z</time></trkpt><trkpt lat="44.68539" lon="10.0182283"><ele>186.33333333333334</ele><time>2026-04-04T14:16:44.979Z</time></trkpt><trkpt lat="44.6853617" lon="10.018465"><ele>185.66666666666666</ele><time>2026-04-04T14:16:45.979Z</time></trkpt><trkpt lat="44.685335" lon="10.0187183"><ele>185.0</ele><time>2026-04-04T14:16:46.98Z</time></trkpt><trkpt lat="44.68532" lon="10.0189633"><ele>184.33333333333331</ele><time>2026-04-04T14:16:47.979Z</time></trkpt><trkpt lat="44.6852983" lon="10.0192167"><ele>183.66666666666666</ele><time>2026-04-04T14:16:48.979Z</time></trkpt><trkpt lat="44.6852767" lon="10.019475"><ele>183.0</ele><time>2026-04-04T14:16:49.98Z</time></trkpt><trkpt lat="44.685255" lon="10.0197333"><ele>181.33333333333334</ele><time>2026-04-04T14:16:50.979Z</time></trkpt><trkpt lat="44.6852417" lon="10.019995"><ele>179.66666666666669</ele><time>2026-04-04T14:16:51.98Z</time></trkpt><trkpt lat="44.6852383" lon="10.0202617"><ele>178.0</ele><time>2026-04-04T14:16:52.98Z</time></trkpt><trkpt lat="44.6852533" lon="10.020535"><ele>178.0</ele><time>2026-04-04T14:16:53.979Z</time></trkpt><trkpt lat="44.6852683" lon="10.0208183"><ele>178.0</ele><time>2026-04-04T14:16:54.979Z</time></trkpt><trkpt lat="44.68528" lon="10.021105"><ele>178.0</ele><time>2026-04-04T14:16:55.98Z</time></trkpt><trkpt lat="44.6852917" lon="10.0214"><ele>178.33333333333334</ele><time>2026-04-04T14:16:56.98Z</time></trkpt><trkpt lat="44.6853033" lon="10.0217"><ele>178.66666666666666</ele><time>2026-04-04T14:16:57.98Z</time></trkpt><trkpt lat="44.685315" lon="10.0220083"><ele>179.0</ele><time>2026-04-04T14:16:58.98Z</time></trkpt><trkpt lat="44.6853217" lon="10.0223083"><ele>180.0</ele><time>2026-04-04T14:16:59.979Z</time></trkpt><trkpt lat="44.68533" lon="10.0226"><ele>181.0</ele><time>2026-04-04T14:17:00.979Z</time></trkpt><trkpt lat="44.68534" lon="10.02289"><ele>182.0</ele><time>2026-04-04T14:17:01.98Z</time></trkpt><trkpt lat="44.6853517" lon="10.0231767"><ele>182.33333333333331</ele><time>2026-04-04T14:17:02.979Z</time></trkpt><trkpt lat="44.6853633" lon="10.0234567"><ele>182.66666666666666</ele><time>2026-04-04T14:17:03.979Z</time></trkpt><trkpt lat="44.68538" lon="10.0237333"><ele>183.0</ele><time>2026-04-04T14:17:04.979Z</time></trkpt><trkpt lat="44.68539" lon="10.0240067"><ele>182.33333333333334</ele><time>2026-04-04T14:17:05.979Z</time></trkpt><trkpt lat="44.6854" lon="10.0242833"><ele>181.66666666666669</ele><time>2026-04-04T14:17:06.98Z</time></trkpt><trkpt lat="44.6854217" lon="10.02456"><ele>181.0</ele><time>2026-04-04T14:17:07.979Z</time></trkpt><trkpt lat="44.6854683" lon="10.0248283"><ele>180.66666666666669</ele><time>2026-04-04T14:17:08.979Z</time></trkpt><trkpt lat="44.6855333" lon="10.0250967"><ele>180.33333333333334</ele><time>2026-04-04T14:17:09.979Z</time></trkpt><trkpt lat="44.6856117" lon="10.0253533"><ele>180.0</ele><time>2026-04-04T14:17:10.98Z</time></trkpt><trkpt lat="44.6857167" lon="10.0256067"><ele>180.0</ele><time>2026-04-04T14:17:11.979Z</time></trkpt><trkpt lat="44.6858217" lon="10.02585"><ele>180.0</ele><time>2026-04-04T14:17:12.979Z</time></trkpt><trkpt lat="44.6859383" lon="10.0260867"><ele>180.0</ele><time>2026-04-04T14:17:13.979Z</time></trkpt><trkpt lat="44.6860617" lon="10.0263217"><ele>180.66666666666666</ele><time>2026-04-04T14:17:14.979Z</time></trkpt><trkpt lat="44.6861833" lon="10.02656"><ele>181.33333333333331</ele><time>2026-04-04T14:17:15.98Z</time></trkpt><trkpt lat="44.6862867" lon="10.026805"><ele>182.0</ele><time>2026-04-04T14:17:16.98Z</time></trkpt><trkpt lat="44.6863967" lon="10.0270567"><ele>182.0</ele><time>2026-04-04T14:17:17.98Z</time></trkpt><trkpt lat="44.6864867" lon="10.0273233"><ele>182.0</ele><time>2026-04-04T14:17:18.979Z</time></trkpt><trkpt lat="44.68657" lon="10.02759"><ele>182.0</ele><time>2026-04-04T14:17:19.98Z</time></trkpt><trkpt lat="44.6866483" lon="10.02785"><ele>182.0</ele><time>2026-04-04T14:17:20.979Z</time></trkpt><trkpt lat="44.68672" lon="10.0281217"><ele>182.0</ele><time>2026-04-04T14:17:21.979Z</time></trkpt><trkpt lat="44.6867817" lon="10.02839"><ele>182.0</ele><time>2026-04-04T14:17:22.98Z</time></trkpt><trkpt lat="44.6868383" lon="10.0286617"><ele>181.33333333333331</ele><time>2026-04-04T14:17:23.979Z</time></trkpt><trkpt lat="44.68688" lon="10.02894"><ele>180.66666666666666</ele><time>2026-04-04T14:17:24.979Z</time></trkpt><trkpt lat="44.686915" lon="10.0292217"><ele>180.0</ele><time>2026-04-04T14:17:25.979Z</time></trkpt><trkpt lat="44.6869417" lon="10.0294933"><ele>179.33333333333334</ele><time>2026-04-04T14:17:26.979Z</time></trkpt><trkpt lat="44.686965" lon="10.0297783"><ele>178.66666666666669</ele><time>2026-04-04T14:17:27.98Z</time></trkpt><trkpt lat="44.6869783" lon="10.0300517"><ele>178.0</ele><time>2026-04-04T14:17:28.98Z</time></trkpt><trkpt lat="44.6869733" lon="10.0303383"><ele>178.0</ele><time>2026-04-04T14:17:29.98Z</time></trkpt><trkpt lat="44.6869733" lon="10.0306283"><ele>178.0</ele><time>2026-04-04T14:17:30.98Z</time></trkpt><trkpt lat="44.6869783" lon="10.030925"><ele>178.0</ele><time>2026-04-04T14:17:31.98Z</time></trkpt><trkpt lat="44.6869783" lon="10.031225"><ele>178.0</ele><time>2026-04-04T14:17:32.979Z</time></trkpt><trkpt lat="44.6869717" lon="10.0315283"><ele>178.0</ele><time>2026-04-04T14:17:33.98Z</time></trkpt><trkpt lat="44.686975" lon="10.0318267"><ele>178.0</ele><time>2026-04-04T14:17:34.979Z</time></trkpt><trkpt lat="44.686975" lon="10.03213"><ele>177.66666666666669</ele><time>2026-04-04T14:17:35.979Z</time></trkpt><trkpt lat="44.6869817" lon="10.0324317"><ele>177.33333333333334</ele><time>2026-04-04T14:17:36.979Z</time></trkpt><trkpt lat="44.6869917" lon="10.03273"><ele>177.0</ele><time>2026-04-04T14:17:37.979Z</time></trkpt><trkpt lat="44.687" lon="10.033035"><ele>175.33333333333334</ele><time>2026-04-04T14:17:38.98Z</time></trkpt><trkpt lat="44.6870167" lon="10.0333333"><ele>173.66666666666669</ele><time>2026-04-04T14:17:39.98Z</time></trkpt><trkpt lat="44.68703" lon="10.0336333"><ele>172.0</ele><time>2026-04-04T14:17:40.98Z</time></trkpt><trkpt lat="44.6870283" lon="10.033925"><ele>172.0</ele><time>2026-04-04T14:17:41.979Z</time></trkpt><trkpt lat="44.6870283" lon="10.03422"><ele>172.0</ele><time>2026-04-04T14:17:42.98Z</time></trkpt><trkpt lat="44.6870333" lon="10.03451"><ele>172.0</ele><time>2026-04-04T14:17:43.979Z</time></trkpt><trkpt lat="44.687045" lon="10.0348"><ele>172.33333333333334</ele><time>2026-04-04T14:17:44.979Z</time></trkpt><trkpt lat="44.6870483" lon="10.0350883"><ele>172.66666666666666</ele><time>2026-04-04T14:17:45.98Z</time></trkpt><trkpt lat="44.6870533" lon="10.0353733"><ele>173.0</ele><time>2026-04-04T14:17:46.979Z</time></trkpt><trkpt lat="44.68706" lon="10.0356533"><ele>172.0</ele><time>2026-04-04T14:17:47.98Z</time></trkpt><trkpt lat="44.6870717" lon="10.0359367"><ele>171.0</ele><time>2026-04-04T14:17:48.98Z</time></trkpt><trkpt lat="44.6870817" lon="10.0362117"><ele>170.0</ele><time>2026-04-04T14:17:49.98Z</time></trkpt><trkpt lat="44.6870883" lon="10.0364933"><ele>169.66666666666666</ele><time>2026-04-04T14:17:50.98Z</time></trkpt><trkpt lat="44.687085" lon="10.0367767"><ele>169.33333333333334</ele><time>2026-04-04T14:17:51.98Z</time></trkpt><trkpt lat="44.6870917" lon="10.0370567"><ele>169.0</ele><time>2026-04-04T14:17:52.98Z</time></trkpt><trkpt lat="44.6870983" lon="10.037335"><ele>169.33333333333334</ele><time>2026-04-04T14:17:53.979Z</time></trkpt><trkpt lat="44.6871217" lon="10.037615"><ele>169.66666666666666</ele><time>2026-04-04T14:17:54.979Z</time></trkpt><trkpt lat="44.68714" lon="10.0378867"><ele>170.0</ele><time>2026-04-04T14:17:55.979Z</time></trkpt><trkpt lat="44.6871667" lon="10.0381567"><ele>169.66666666666666</ele><time>2026-04-04T14:17:56.979Z</time></trkpt><trkpt lat="44.6871917" lon="10.03843"><ele>169.33333333333334</ele><time>2026-04-04T14:17:57.979Z</time></trkpt><trkpt lat="44.68722" lon="10.0387033"><ele>169.0</ele><time>2026-04-04T14:17:58.979Z</time></trkpt><trkpt lat="44.6872367" lon="10.03897"><ele>169.0</ele><time>2026-04-04T14:17:59.98Z</time></trkpt><trkpt lat="44.6872567" lon="10.0392383"><ele>169.0</ele><time>2026-04-04T14:18:00.98Z</time></trkpt><trkpt lat="44.68727" lon="10.0394967"><ele>169.0</ele><time>2026-04-04T14:18:01.979Z</time></trkpt><trkpt lat="44.6872883" lon="10.03974"><ele>169.33333333333334</ele><time>2026-04-04T14:18:02.98Z</time></trkpt><trkpt lat="44.6873033" lon="10.0399683"><ele>169.66666666666666</ele><time>2026-04-04T14:18:03.979Z</time></trkpt><trkpt lat="44.6873033" lon="10.040195"><ele>170.0</ele><time>2026-04-04T14:18:04.979Z</time></trkpt><trkpt lat="44.6872867" lon="10.04043"><ele>170.0</ele><time>2026-04-04T14:18:05.979Z</time></trkpt><trkpt lat="44.6872467" lon="10.0406783"><ele>170.0</ele><time>2026-04-04T14:18:06.98Z</time></trkpt><trkpt lat="44.687175" lon="10.0409117"><ele>170.0</ele><time>2026-04-04T14:18:07.979Z</time></trkpt><trkpt lat="44.687075" lon="10.0411383"><ele>170.0</ele><time>2026-04-04T14:18:08.98Z</time></trkpt><trkpt lat="44.6869467" lon="10.0413483"><ele>170.0</ele><time>2026-04-04T14:18:09.979Z</time></trkpt><trkpt lat="44.6867967" lon="10.041545"><ele>170.0</ele><time>2026-04-04T14:18:10.979Z</time></trkpt><trkpt lat="44.68665" lon="10.0417467"><ele>172.66666666666666</ele><time>2026-04-04T14:18:11.979Z</time></trkpt><trkpt lat="44.6865183" lon="10.04195"><ele>175.33333333333334</ele><time>2026-04-04T14:18:12.979Z</time></trkpt><trkpt lat="44.6863867" lon="10.0421517"><ele>178.0</ele><time>2026-04-04T14:18:13.979Z</time></trkpt><trkpt lat="44.6862567" lon="10.042335"><ele>180.66666666666669</ele><time>2026-04-04T14:18:14.979Z</time></trkpt><trkpt lat="44.68614" lon="10.0425233"><ele>183.33333333333334</ele><time>2026-04-04T14:18:15.979Z</time></trkpt><trkpt lat="44.6860417" lon="10.0427217"><ele>186.0</ele><time>2026-04-04T14:18:16.979Z</time></trkpt><trkpt lat="44.6859583" lon="10.0429467"><ele>182.0</ele><time>2026-04-04T14:18:17.98Z</time></trkpt><trkpt lat="44.6858983" lon="10.0431767"><ele>178.0</ele><time>2026-04-04T14:18:18.979Z</time></trkpt><trkpt lat="44.6858517" lon="10.0434233"><ele>174.0</ele><time>2026-04-04T14:18:19.98Z</time></trkpt><trkpt lat="44.6858233" lon="10.0436717"><ele>174.0</ele><time>2026-04-04T14:18:20.98Z</time></trkpt><trkpt lat="44.6858033" lon="10.0439333"><ele>174.0</ele><time>2026-04-04T14:18:21.979Z</time></trkpt><trkpt lat="44.6857933" lon="10.044185"><ele>174.0</ele><time>2026-04-04T14:18:22.98Z</time></trkpt><trkpt lat="44.6857783" lon="10.0444467"><ele>175.33333333333334</ele><time>2026-04-04T14:18:23.979Z</time></trkpt><trkpt lat="44.6857633" lon="10.0447067"><ele>176.66666666666669</ele><time>2026-04-04T14:18:24.979Z</time></trkpt><trkpt lat="44.6857483" lon="10.044965"><ele>178.0</ele><time>2026-04-04T14:18:25.98Z</time></trkpt><trkpt lat="44.6857283" lon="10.0452283"><ele>178.0</ele><time>2026-04-04T14:18:26.98Z</time></trkpt><trkpt lat="44.6857117" lon="10.0454917"><ele>178.0</ele><time>2026-04-04T14:18:27.979Z</time></trkpt><trkpt lat="44.6856783" lon="10.0457617"><ele>178.0</ele><time>2026-04-04T14:18:28.979Z</time></trkpt><trkpt lat="44.6856317" lon="10.04603"><ele>178.0</ele><time>2026-04-04T14:18:29.98Z</time></trkpt><trkpt lat="44.6855833" lon="10.0462967"><ele>178.0</ele><time>2026-04-04T14:18:30.979Z</time></trkpt><trkpt lat="44.685545" lon="10.0465667"><ele>178.0</ele><time>2026-04-04T14:18:31.98Z</time></trkpt><trkpt lat="44.6855" lon="10.0468417"><ele>178.0</ele><time>2026-04-04T14:18:32.979Z</time></trkpt><trkpt lat="44.68546" lon="10.047095"><ele>178.0</ele><time>2026-04-04T14:18:33.979Z</time></trkpt><trkpt lat="44.6854217" lon="10.047335"><ele>178.0</ele><time>2026-04-04T14:18:34.979Z</time></trkpt><trkpt lat="44.6854" lon="10.04757"><ele>178.0</ele><time>2026-04-04T14:18:35.98Z</time></trkpt><trkpt lat="44.6853933" lon="10.0477933"><ele>178.0</ele><time>2026-04-04T14:18:36.979Z</time></trkpt><trkpt lat="44.685395" lon="10.048015"><ele>178.0</ele><time>2026-04-04T14:18:37.979Z</time></trkpt><trkpt lat="44.68541" lon="10.0482367"><ele>177.0</ele><time>2026-04-04T14:18:38.979Z</time></trkpt><trkpt lat="44.6854383" lon="10.0484617"><ele>176.0</ele><time>2026-04-04T14:18:39.98Z</time></trkpt><trkpt lat="44.6854783" lon="10.048685"><ele>175.0</ele><time>2026-04-04T14:18:40.979Z</time></trkpt><trkpt lat="44.685525" lon="10.0489083"><ele>175.0</ele><time>2026-04-04T14:18:41.98Z</time></trkpt><trkpt lat="44.6855833" lon="10.049125"><ele>175.0</ele><time>2026-04-04T14:18:42.979Z</time></trkpt><trkpt lat="44.685645" lon="10.0493517"><ele>175.0</ele><time>2026-04-04T14:18:43.98Z</time></trkpt><trkpt lat="44.6857117" lon="10.0495667"><ele>174.66666666666669</ele><time>2026-04-04T14:18:44.98Z</time></trkpt><trkpt lat="44.68575" lon="10.0497783"><ele>174.33333333333334</ele><time>2026-04-04T14:18:45.979Z</time></trkpt><trkpt lat="44.6857533" lon="10.0500017"><ele>174.0</ele><time>2026-04-04T14:18:46.979Z</time></trkpt><trkpt lat="44.685725" lon="10.0502283"><ele>173.33333333333334</ele><time>2026-04-04T14:18:47.98Z</time></trkpt><trkpt lat="44.6856933" lon="10.050465"><ele>172.66666666666669</ele><time>2026-04-04T14:18:48.979Z</time></trkpt><trkpt lat="44.6856667" lon="10.050715"><ele>172.0</ele><time>2026-04-04T14:18:49.98Z</time></trkpt><trkpt lat="44.6856367" lon="10.0509683"><ele>171.0</ele><time>2026-04-04T14:18:50.979Z</time></trkpt><trkpt lat="44.6856083" lon="10.05122"><ele>170.0</ele><time>2026-04-04T14:18:51.98Z</time></trkpt><trkpt lat="44.6855767" lon="10.0514767"><ele>169.0</ele><time>2026-04-04T14:18:52.98Z</time></trkpt><trkpt lat="44.6855433" lon="10.0517317"><ele>169.0</ele><time>2026-04-04T14:18:53.979Z</time></trkpt><trkpt lat="44.6855117" lon="10.0519867"><ele>169.0</ele><time>2026-04-04T14:18:54.98Z</time></trkpt><trkpt lat="44.6854767" lon="10.052245"><ele>169.0</ele><time>2026-04-04T14:18:55.979Z</time></trkpt><trkpt lat="44.68545" lon="10.0525017"><ele>168.66666666666669</ele><time>2026-04-04T14:18:56.979Z</time></trkpt><trkpt lat="44.685425" lon="10.0527617"><ele>168.33333333333334</ele><time>2026-04-04T14:18:57.979Z</time></trkpt><trkpt lat="44.68539" lon="10.053015"><ele>168.0</ele><time>2026-04-04T14:18:58.979Z</time></trkpt><trkpt lat="44.685365" lon="10.05327"><ele>166.66666666666666</ele><time>2026-04-04T14:18:59.979Z</time></trkpt><trkpt lat="44.6853367" lon="10.053525"><ele>165.33333333333331</ele><time>2026-04-04T14:19:00.98Z</time></trkpt><trkpt lat="44.685315" lon="10.053795"><ele>164.0</ele><time>2026-04-04T14:19:01.979Z</time></trkpt><trkpt lat="44.685285" lon="10.0540633"><ele>164.0</ele><time>2026-04-04T14:19:02.979Z</time></trkpt><trkpt lat="44.685265" lon="10.0543367"><ele>164.0</ele><time>2026-04-04T14:19:03.979Z</time></trkpt><trkpt lat="44.6852617" lon="10.0546133"><ele>164.0</ele><time>2026-04-04T14:19:04.979Z</time></trkpt><trkpt lat="44.6852683" lon="10.054885"><ele>163.0</ele><time>2026-04-04T14:19:05.98Z</time></trkpt><trkpt lat="44.6852917" lon="10.0551567"><ele>162.0</ele><time>2026-04-04T14:19:06.98Z</time></trkpt><trkpt lat="44.6853517" lon="10.05543"><ele>161.0</ele><time>2026-04-04T14:19:07.979Z</time></trkpt><trkpt lat="44.685445" lon="10.0556917"><ele>161.0</ele><time>2026-04-04T14:19:08.98Z</time></trkpt><trkpt lat="44.6855683" lon="10.055935"><ele>161.0</ele><time>2026-04-04T14:19:09.98Z</time></trkpt><trkpt lat="44.6857167" lon="10.0561683"><ele>161.0</ele><time>2026-04-04T14:19:10.979Z</time></trkpt><trkpt lat="44.685875" lon="10.0563917"><ele>161.0</ele><time>2026-04-04T14:19:11.979Z</time></trkpt><trkpt lat="44.6860483" lon="10.056595"><ele>161.0</ele><time>2026-04-04T14:19:12.98Z</time></trkpt><trkpt lat="44.6862317" lon="10.056785"><ele>159.5</ele><time>2026-04-04T14:19:13.98Z</time></trkpt><trkpt lat="44.686415" lon="10.056975"><ele>158.0</ele><time>2026-04-04T14:19:14.979Z</time></trkpt><trkpt lat="44.6866033" lon="10.0571633"><ele>158.0</ele><time>2026-04-04T14:19:15.979Z</time></trkpt><trkpt lat="44.6867967" lon="10.0573417"><ele>158.0</ele><time>2026-04-04T14:19:16.98Z</time></trkpt><trkpt lat="44.6869883" lon="10.0575233"><ele>157.5</ele><time>2026-04-04T14:19:17.98Z</time></trkpt><trkpt lat="44.687175" lon="10.0576983"><ele>157.0</ele><time>2026-04-04T14:19:18.979Z</time></trkpt><trkpt lat="44.6873567" lon="10.0578883"><ele>157.0</ele><time>2026-04-04T14:19:19.979Z</time></trkpt><trkpt lat="44.6875283" lon="10.0580817"><ele>157.0</ele><time>2026-04-04T14:19:20.98Z</time></trkpt><trkpt lat="44.6876983" lon="10.0582867"><ele>157.0</ele><time>2026-04-04T14:19:21.979Z</time></trkpt><trkpt lat="44.6878633" lon="10.0585017"><ele>156.0</ele><time>2026-04-04T14:19:22.979Z</time></trkpt><trkpt lat="44.6880283" lon="10.0587183"><ele>155.0</ele><time>2026-04-04T14:19:23.979Z</time></trkpt><trkpt lat="44.688195" lon="10.0589317"><ele>155.0</ele><time>2026-04-04T14:19:24.98Z</time></trkpt><trkpt lat="44.68835" lon="10.0591583"><ele>155.0</ele><time>2026-04-04T14:19:25.979Z</time></trkpt><trkpt lat="44.6885033" lon="10.059375"><ele>155.0</ele><time>2026-04-04T14:19:26.979Z</time></trkpt><trkpt lat="44.688655" lon="10.059595"><ele>157.33333333333331</ele><time>2026-04-04T14:19:27.979Z</time></trkpt><trkpt lat="44.6888017" lon="10.05981"><ele>159.66666666666666</ele><time>2026-04-04T14:19:28.98Z</time></trkpt><trkpt lat="44.688945" lon="10.06002"><ele>162.0</ele><time>2026-04-04T14:19:29.979Z</time></trkpt><trkpt lat="44.689075" lon="10.06024"><ele>162.0</ele><time>2026-04-04T14:19:30.979Z</time></trkpt><trkpt lat="44.6892017" lon="10.0604683"><ele>162.0</ele><time>2026-04-04T14:19:31.979Z</time></trkpt><trkpt lat="44.6893133" lon="10.06071"><ele>162.0</ele><time>2026-04-04T14:19:32.979Z</time></trkpt><trkpt lat="44.6894217" lon="10.0609617"><ele>162.0</ele><time>2026-04-04T14:19:33.979Z</time></trkpt><trkpt lat="44.6895033" lon="10.0612133"><ele>162.0</ele><time>2026-04-04T14:19:34.979Z</time></trkpt><trkpt lat="44.689575" lon="10.0614817"><ele>162.0</ele><time>2026-04-04T14:19:35.979Z</time></trkpt><trkpt lat="44.6896317" lon="10.061765"><ele>162.0</ele><time>2026-04-04T14:19:36.98Z</time></trkpt><trkpt lat="44.6896833" lon="10.06205"><ele>162.0</ele><time>2026-04-04T14:19:37.979Z</time></trkpt><trkpt lat="44.6897333" lon="10.0623383"><ele>162.0</ele><time>2026-04-04T14:19:38.98Z</time></trkpt><trkpt lat="44.6897933" lon="10.0626283"><ele>161.0</ele><time>2026-04-04T14:19:39.98Z</time></trkpt><trkpt lat="44.6898533" lon="10.0629217"><ele>160.0</ele><time>2026-04-04T14:19:40.98Z</time></trkpt><trkpt lat="44.6899083" lon="10.0632117"><ele>159.0</ele><time>2026-04-04T14:19:41.979Z</time></trkpt><trkpt lat="44.68997" lon="10.063505"><ele>158.0</ele><time>2026-04-04T14:19:42.98Z</time></trkpt><trkpt lat="44.6900333" lon="10.0637983"><ele>157.0</ele><time>2026-04-04T14:19:43.979Z</time></trkpt><trkpt lat="44.6900883" lon="10.0640883"><ele>156.0</ele><time>2026-04-04T14:19:44.98Z</time></trkpt><trkpt lat="44.6901333" lon="10.06437"><ele>155.66666666666666</ele><time>2026-04-04T14:19:45.98Z</time></trkpt><trkpt lat="44.690185" lon="10.0646617"><ele>155.33333333333331</ele><time>2026-04-04T14:19:46.979Z</time></trkpt><trkpt lat="44.69022" lon="10.0649533"><ele>155.0</ele><time>2026-04-04T14:19:47.98Z</time></trkpt><trkpt lat="44.6902567" lon="10.0652583"><ele>156.0</ele><time>2026-04-04T14:19:48.979Z</time></trkpt><trkpt lat="44.6903017" lon="10.0655617"><ele>157.0</ele><time>2026-04-04T14:19:49.98Z</time></trkpt><trkpt lat="44.6903433" lon="10.0658583"><ele>158.0</ele><time>2026-04-04T14:19:50.98Z</time></trkpt><trkpt lat="44.69038" lon="10.0661583"><ele>158.0</ele><time>2026-04-04T14:19:51.979Z</time></trkpt><trkpt lat="44.6904133" lon="10.06646"><ele>158.0</ele><time>2026-04-04T14:19:52.979Z</time></trkpt><trkpt lat="44.6904517" lon="10.06676"><ele>158.0</ele><time>2026-04-04T14:19:53.979Z</time></trkpt><trkpt lat="44.69049" lon="10.0670617"><ele>157.0</ele><time>2026-04-04T14:19:54.98Z</time></trkpt><trkpt lat="44.690525" lon="10.067355"><ele>156.0</ele><time>2026-04-04T14:19:55.979Z</time></trkpt><trkpt lat="44.6905633" lon="10.0676517"><ele>155.0</ele><time>2026-04-04T14:19:56.979Z</time></trkpt><trkpt lat="44.6905933" lon="10.0679467"><ele>154.66666666666666</ele><time>2026-04-04T14:19:57.979Z</time></trkpt><trkpt lat="44.690625" lon="10.0682367"><ele>154.33333333333334</ele><time>2026-04-04T14:19:58.979Z</time></trkpt><trkpt lat="44.69066" lon="10.0685267"><ele>154.0</ele><time>2026-04-04T14:19:59.979Z</time></trkpt><trkpt lat="44.6906917" lon="10.0688183"><ele>153.0</ele><time>2026-04-04T14:20:00.979Z</time></trkpt><trkpt lat="44.6907283" lon="10.069105"><ele>152.0</ele><time>2026-04-04T14:20:01.979Z</time></trkpt><trkpt lat="44.69078" lon="10.069385"><ele>151.0</ele><time>2026-04-04T14:20:02.979Z</time></trkpt><trkpt lat="44.6908517" lon="10.0696617"><ele>150.33333333333334</ele><time>2026-04-04T14:20:03.979Z</time></trkpt><trkpt lat="44.6909267" lon="10.0699267"><ele>149.66666666666666</ele><time>2026-04-04T14:20:04.979Z</time></trkpt><trkpt lat="44.69101" lon="10.0701917"><ele>149.0</ele><time>2026-04-04T14:20:05.98Z</time></trkpt><trkpt lat="44.6910917" lon="10.070455"><ele>151.0</ele><time>2026-04-04T14:20:06.979Z</time></trkpt><trkpt lat="44.6911783" lon="10.0707367"><ele>153.0</ele><time>2026-04-04T14:20:07.98Z</time></trkpt><trkpt lat="44.6912467" lon="10.0710117"><ele>155.0</ele><time>2026-04-04T14:20:08.979Z</time></trkpt><trkpt lat="44.6913233" lon="10.071295"><ele>155.0</ele><time>2026-04-04T14:20:09.98Z</time></trkpt><trkpt lat="44.691395" lon="10.07158"><ele>155.0</ele><time>2026-04-04T14:20:10.979Z</time></trkpt><trkpt lat="44.69148" lon="10.0718667"><ele>155.0</ele><time>2026-04-04T14:20:11.979Z</time></trkpt><trkpt lat="44.6915567" lon="10.0721467"><ele>153.66666666666666</ele><time>2026-04-04T14:20:12.979Z</time></trkpt><trkpt lat="44.6916333" lon="10.0724167"><ele>152.33333333333334</ele><time>2026-04-04T14:20:13.979Z</time></trkpt><trkpt lat="44.6916883" lon="10.0726867"><ele>151.0</ele><time>2026-04-04T14:20:14.979Z</time></trkpt><trkpt lat="44.6917317" lon="10.0729733"><ele>149.0</ele><time>2026-04-04T14:20:15.979Z</time></trkpt><trkpt lat="44.69175" lon="10.0732533"><ele>147.0</ele><time>2026-04-04T14:20:16.979Z</time></trkpt><trkpt lat="44.6917467" lon="10.07354"><ele>145.0</ele><time>2026-04-04T14:20:17.979Z</time></trkpt><trkpt lat="44.691745" lon="10.0738383"><ele>145.0</ele><time>2026-04-04T14:20:18.98Z</time></trkpt><trkpt lat="44.6917383" lon="10.0741367"><ele>145.0</ele><time>2026-04-04T14:20:19.979Z</time></trkpt><trkpt lat="44.691735" lon="10.074445"><ele>145.0</ele><time>2026-04-04T14:20:20.979Z</time></trkpt><trkpt lat="44.69174" lon="10.0747533"><ele>146.0</ele><time>2026-04-04T14:20:21.979Z</time></trkpt><trkpt lat="44.6917367" lon="10.0750617"><ele>147.0</ele><time>2026-04-04T14:20:22.98Z</time></trkpt><trkpt lat="44.691735" lon="10.0753667"><ele>148.0</ele><time>2026-04-04T14:20:23.979Z</time></trkpt><trkpt lat="44.6917383" lon="10.07568"><ele>147.0</ele><time>2026-04-04T14:20:24.98Z</time></trkpt><trkpt lat="44.6917367" lon="10.07599"><ele>146.0</ele><time>2026-04-04T14:20:25.979Z</time></trkpt><trkpt lat="44.6917317" lon="10.076295"><ele>145.0</ele><time>2026-04-04T14:20:26.979Z</time></trkpt><trkpt lat="44.6917383" lon="10.0766083"><ele>144.66666666666669</ele><time>2026-04-04T14:20:27.979Z</time></trkpt><trkpt lat="44.6917483" lon="10.0769167"><ele>144.33333333333334</ele><time>2026-04-04T14:20:28.98Z</time></trkpt><trkpt lat="44.6917467" lon="10.077215"><ele>144.0</ele><time>2026-04-04T14:20:29.98Z</time></trkpt><trkpt lat="44.6917533" lon="10.077515"><ele>143.33333333333334</ele><time>2026-04-04T14:20:30.979Z</time></trkpt><trkpt lat="44.691755" lon="10.0778167"><ele>142.66666666666669</ele><time>2026-04-04T14:20:31.979Z</time></trkpt><trkpt lat="44.6917517" lon="10.07809"><ele>142.0</ele><time>2026-04-04T14:20:32.979Z</time></trkpt><trkpt lat="44.6917467" lon="10.078355"><ele>142.0</ele><time>2026-04-04T14:20:33.98Z</time></trkpt><trkpt lat="44.69175" lon="10.0786083"><ele>142.0</ele><time>2026-04-04T14:20:34.98Z</time></trkpt><trkpt lat="44.6917517" lon="10.0788617"><ele>142.0</ele><time>2026-04-04T14:20:35.979Z</time></trkpt><trkpt lat="44.6917483" lon="10.07911"><ele>142.0</ele><time>2026-04-04T14:20:36.979Z</time></trkpt><trkpt lat="44.6917383" lon="10.079375"><ele>142.0</ele><time>2026-04-04T14:20:37.979Z</time></trkpt><trkpt lat="44.6917167" lon="10.07965"><ele>142.0</ele><time>2026-04-04T14:20:38.98Z</time></trkpt><trkpt lat="44.6916833" lon="10.0799267"><ele>142.66666666666669</ele><time>2026-04-04T14:20:39.979Z</time></trkpt><trkpt lat="44.691635" lon="10.0802083"><ele>143.33333333333334</ele><time>2026-04-04T14:20:40.98Z</time></trkpt><trkpt lat="44.6915817" lon="10.0804817"><ele>144.0</ele><time>2026-04-04T14:20:41.979Z</time></trkpt><trkpt lat="44.691525" lon="10.0807567"><ele>146.66666666666666</ele><time>2026-04-04T14:20:42.979Z</time></trkpt><trkpt lat="44.6914617" lon="10.0810283"><ele>149.33333333333331</ele><time>2026-04-04T14:20:43.979Z</time></trkpt><trkpt lat="44.6914083" lon="10.0812867"><ele>152.0</ele><time>2026-04-04T14:20:44.979Z</time></trkpt><trkpt lat="44.6913517" lon="10.0815517"><ele>154.66666666666666</ele><time>2026-04-04T14:20:45.98Z</time></trkpt><trkpt lat="44.691295" lon="10.0818183"><ele>157.33333333333334</ele><time>2026-04-04T14:20:46.979Z</time></trkpt><trkpt lat="44.69124" lon="10.082075"><ele>160.0</ele><time>2026-04-04T14:20:47.979Z</time></trkpt><trkpt lat="44.6911967" lon="10.082315"><ele>160.0</ele><time>2026-04-04T14:20:48.979Z</time></trkpt><trkpt lat="44.691165" lon="10.0825417"><ele>160.0</ele><time>2026-04-04T14:20:49.98Z</time></trkpt><trkpt lat="44.6911383" lon="10.0827517"><ele>160.0</ele><time>2026-04-04T14:20:50.98Z</time></trkpt><trkpt lat="44.6911317" lon="10.08296"><ele>160.0</ele><time>2026-04-04T14:20:51.98Z</time></trkpt><trkpt lat="44.6911617" lon="10.0831767"><ele>160.0</ele><time>2026-04-04T14:20:52.98Z</time></trkpt><trkpt lat="44.6912233" lon="10.08338"><ele>160.0</ele><time>2026-04-04T14:20:53.98Z</time></trkpt><trkpt lat="44.6913117" lon="10.0835667"><ele>157.33333333333334</ele><time>2026-04-04T14:20:54.98Z</time></trkpt><trkpt lat="44.69143" lon="10.0837417"><ele>154.66666666666666</ele><time>2026-04-04T14:20:55.979Z</time></trkpt><trkpt lat="44.6915583" lon="10.083895"><ele>152.0</ele><time>2026-04-04T14:20:56.979Z</time></trkpt><trkpt lat="44.6917017" lon="10.084035"><ele>152.33333333333331</ele><time>2026-04-04T14:20:57.98Z</time></trkpt><trkpt lat="44.691855" lon="10.0841783"><ele>152.66666666666666</ele><time>2026-04-04T14:20:58.979Z</time></trkpt><trkpt lat="44.6920033" lon="10.084305"><ele>153.0</ele><time>2026-04-04T14:20:59.979Z</time></trkpt><trkpt lat="44.6921583" lon="10.08441"><ele>153.0</ele><time>2026-04-04T14:21:00.979Z</time></trkpt><trkpt lat="44.6923233" lon="10.084495"><ele>153.0</ele><time>2026-04-04T14:21:01.979Z</time></trkpt><trkpt lat="44.6924867" lon="10.08457"><ele>153.0</ele><time>2026-04-04T14:21:02.979Z</time></trkpt><trkpt lat="44.6926617" lon="10.084645"><ele>154.0</ele><time>2026-04-04T14:21:03.979Z</time></trkpt><trkpt lat="44.6928383" lon="10.08472"><ele>155.0</ele><time>2026-04-04T14:21:04.979Z</time></trkpt><trkpt lat="44.6930133" lon="10.08479"><ele>156.0</ele><time>2026-04-04T14:21:05.979Z</time></trkpt><trkpt lat="44.693185" lon="10.08486"><ele>155.0</ele><time>2026-04-04T14:21:06.979Z</time></trkpt><trkpt lat="44.69337" lon="10.084935"><ele>154.0</ele><time>2026-04-04T14:21:07.98Z</time></trkpt><trkpt lat="44.69356" lon="10.0850067"><ele>153.0</ele><time>2026-04-04T14:21:08.98Z</time></trkpt><trkpt lat="44.693735" lon="10.085075"><ele>153.0</ele><time>2026-04-04T14:21:09.979Z</time></trkpt><trkpt lat="44.6939033" lon="10.085145"><ele>153.0</ele><time>2026-04-04T14:21:10.979Z</time></trkpt><trkpt lat="44.694065" lon="10.0852183"><ele>153.0</ele><time>2026-04-04T14:21:11.98Z</time></trkpt><trkpt lat="44.6942233" lon="10.08528"><ele>153.0</ele><time>2026-04-04T14:21:12.98Z</time></trkpt><trkpt lat="44.6943667" lon="10.08534"><ele>153.0</ele><time>2026-04-04T14:21:13.979Z</time></trkpt><trkpt lat="44.6945083" lon="10.0853967"><ele>153.0</ele><time>2026-04-04T14:21:14.98Z</time></trkpt><trkpt lat="44.6946433" lon="10.0854633"><ele>153.0</ele><time>2026-04-04T14:21:15.979Z</time></trkpt><trkpt lat="44.6947783" lon="10.0855283"><ele>153.25</ele><time>2026-04-04T14:21:16.979Z</time></trkpt><trkpt lat="44.6949" lon="10.08563"><ele>153.5</ele><time>2026-04-04T14:21:17.979Z</time></trkpt><trkpt lat="44.6950217" lon="10.08574"><ele>153.75</ele><time>2026-04-04T14:21:18.979Z</time></trkpt><trkpt lat="44.695135" lon="10.08585"><ele>154.0</ele><time>2026-04-04T14:21:19.979Z</time></trkpt><trkpt lat="44.6952533" lon="10.085975"><ele>155.0</ele><time>2026-04-04T14:21:20.979Z</time></trkpt><trkpt lat="44.695375" lon="10.0861033"><ele>156.0</ele><time>2026-04-04T14:21:21.979Z</time></trkpt><trkpt lat="44.69549" lon="10.0862133"><ele>157.0</ele><time>2026-04-04T14:21:22.979Z</time></trkpt><trkpt lat="44.6956033" lon="10.0863267"><ele>158.0</ele><time>2026-04-04T14:21:23.98Z</time></trkpt><trkpt lat="44.6957133" lon="10.0864367"><ele>158.0</ele><time>2026-04-04T14:21:24.98Z</time></trkpt><trkpt lat="44.6958167" lon="10.0865383"><ele>158.0</ele><time>2026-04-04T14:21:25.979Z</time></trkpt><trkpt lat="44.69591" lon="10.0866217"><ele>158.0</ele><time>2026-04-04T14:21:26.979Z</time></trkpt><trkpt lat="44.695995" lon="10.0867067"><ele>158.0</ele><time>2026-04-04T14:21:27.98Z</time></trkpt><trkpt lat="44.6960733" lon="10.0867883"><ele>158.0</ele><time>2026-04-04T14:21:28.979Z</time></trkpt><trkpt lat="44.6961433" lon="10.086855"><ele>157.66666666666666</ele><time>2026-04-04T14:21:29.979Z</time></trkpt><trkpt lat="44.6961967" lon="10.0869233"><ele>157.33333333333331</ele><time>2026-04-04T14:21:30.979Z</time></trkpt><trkpt lat="44.696245" lon="10.0869867"><ele>157.0</ele><time>2026-04-04T14:21:31.979Z</time></trkpt><trkpt lat="44.6963083" lon="10.0870517"><ele>156.66666666666666</ele><time>2026-04-04T14:21:32.979Z</time></trkpt><trkpt lat="44.6963733" lon="10.0871117"><ele>156.33333333333334</ele><time>2026-04-04T14:21:33.979Z</time></trkpt><trkpt lat="44.69646" lon="10.08719"><ele>156.0</ele><time>2026-04-04T14:21:34.979Z</time></trkpt><trkpt lat="44.69656" lon="10.0872817"><ele>156.0</ele><time>2026-04-04T14:21:35.979Z</time></trkpt><trkpt lat="44.6966567" lon="10.08738"><ele>156.0</ele><time>2026-04-04T14:21:36.979Z</time></trkpt><trkpt lat="44.6967583" lon="10.08749"><ele>156.0</ele><time>2026-04-04T14:21:37.979Z</time></trkpt><trkpt lat="44.69688" lon="10.0876133"><ele>156.0</ele><time>2026-04-04T14:21:38.979Z</time></trkpt><trkpt lat="44.6970017" lon="10.0877283"><ele>156.5</ele><time>2026-04-04T14:21:39.979Z</time></trkpt><trkpt lat="44.6971133" lon="10.0878483"><ele>157.0</ele><time>2026-04-04T14:21:40.979Z</time></trkpt><trkpt lat="44.6972333" lon="10.0879683"><ele>157.5</ele><time>2026-04-04T14:21:41.98Z</time></trkpt><trkpt lat="44.6973617" lon="10.0880983"><ele>158.0</ele><time>2026-04-04T14:21:42.979Z</time></trkpt><trkpt lat="44.69749" lon="10.08823"><ele>157.75</ele><time>2026-04-04T14:21:43.98Z</time></trkpt><trkpt lat="44.697615" lon="10.08836"><ele>157.5</ele><time>2026-04-04T14:21:44.98Z</time></trkpt><trkpt lat="44.6977333" lon="10.0884783"><ele>157.25</ele><time>2026-04-04T14:21:45.979Z</time></trkpt><trkpt lat="44.6978433" lon="10.0885933"><ele>157.0</ele><time>2026-04-04T14:21:46.979Z</time></trkpt><trkpt lat="44.6979317" lon="10.08869"><ele>157.0</ele><time>2026-04-04T14:21:47.98Z</time></trkpt><trkpt lat="44.698005" lon="10.088775"><ele>157.0</ele><time>2026-04-04T14:21:48.979Z</time></trkpt><trkpt lat="44.6980583" lon="10.0888517"><ele>157.0</ele><time>2026-04-04T14:21:49.979Z</time></trkpt><trkpt lat="44.6981067" lon="10.0889217"><ele>157.0</ele><time>2026-04-04T14:21:50.98Z</time></trkpt><trkpt lat="44.6981433" lon="10.0890517"><ele>157.0</ele><time>2026-04-04T14:21:52.979Z</time></trkpt><trkpt lat="44.6981833" lon="10.0892233"><ele>157.4</ele><time>2026-04-04T14:21:54.979Z</time></trkpt><trkpt lat="44.6982333" lon="10.0892867"><ele>157.79999999999998</ele><time>2026-04-04T14:21:55.979Z</time></trkpt><trkpt lat="44.6983067" lon="10.0893117"><ele>158.2</ele><time>2026-04-04T14:21:56.979Z</time></trkpt><trkpt lat="44.6984017" lon="10.0893283"><ele>158.6</ele><time>2026-04-04T14:21:57.979Z</time></trkpt><trkpt lat="44.6985067" lon="10.0893533"><ele>159.0</ele><time>2026-04-04T14:21:58.98Z</time></trkpt><trkpt lat="44.6986183" lon="10.089405"><ele>159.0</ele><time>2026-04-04T14:21:59.979Z</time></trkpt><trkpt lat="44.6987283" lon="10.08948"><ele>159.0</ele><time>2026-04-04T14:22:00.979Z</time></trkpt><trkpt lat="44.69883" lon="10.0895733"><ele>159.0</ele><time>2026-04-04T14:22:01.98Z</time></trkpt><trkpt lat="44.6989383" lon="10.0896733"><ele>159.0</ele><time>2026-04-04T14:22:02.98Z</time></trkpt><trkpt lat="44.6990467" lon="10.089785"><ele>159.0</ele><time>2026-04-04T14:22:03.979Z</time></trkpt><trkpt lat="44.6991683" lon="10.0899033"><ele>159.0</ele><time>2026-04-04T14:22:04.98Z</time></trkpt><trkpt lat="44.6992883" lon="10.0900117"><ele>159.0</ele><time>2026-04-04T14:22:05.979Z</time></trkpt><trkpt lat="44.6994083" lon="10.09013"><ele>159.0</ele><time>2026-04-04T14:22:06.979Z</time></trkpt><trkpt lat="44.6995367" lon="10.0902617"><ele>158.0</ele><time>2026-04-04T14:22:07.979Z</time></trkpt><trkpt lat="44.699655" lon="10.0903933"><ele>157.0</ele><time>2026-04-04T14:22:08.979Z</time></trkpt><trkpt lat="44.6997867" lon="10.0905333"><ele>156.0</ele><time>2026-04-04T14:22:09.979Z</time></trkpt><trkpt lat="44.6999083" lon="10.0906633"><ele>156.0</ele><time>2026-04-04T14:22:10.979Z</time></trkpt><trkpt lat="44.7000383" lon="10.0907933"><ele>156.0</ele><time>2026-04-04T14:22:11.979Z</time></trkpt><trkpt lat="44.7001567" lon="10.0909083"><ele>156.0</ele><time>2026-04-04T14:22:12.98Z</time></trkpt><trkpt lat="44.7002783" lon="10.0910183"><ele>156.0</ele><time>2026-04-04T14:22:13.979Z</time></trkpt><trkpt lat="44.700375" lon="10.0911183"><ele>156.0</ele><time>2026-04-04T14:22:14.98Z</time></trkpt><trkpt lat="44.7004583" lon="10.0912067"><ele>156.0</ele><time>2026-04-04T14:22:15.979Z</time></trkpt><trkpt lat="44.7005483" lon="10.0913033"><ele>156.0</ele><time>2026-04-04T14:22:16.98Z</time></trkpt><trkpt lat="44.700645" lon="10.0914033"><ele>156.0</ele><time>2026-04-04T14:22:17.979Z</time></trkpt><trkpt lat="44.700755" lon="10.0914983"><ele>154.5</ele><time>2026-04-04T14:22:18.98Z</time></trkpt><trkpt lat="44.7008683" lon="10.0915967"><ele>153.0</ele><time>2026-04-04T14:22:19.98Z</time></trkpt><trkpt lat="44.700985" lon="10.09171"><ele>151.5</ele><time>2026-04-04T14:22:20.979Z</time></trkpt><trkpt lat="44.7011" lon="10.0918283"><ele>150.0</ele><time>2026-04-04T14:22:21.98Z</time></trkpt><trkpt lat="44.7012133" lon="10.0919467"><ele>150.0</ele><time>2026-04-04T14:22:22.979Z</time></trkpt><trkpt lat="44.701335" lon="10.0920717"><ele>150.0</ele><time>2026-04-04T14:22:23.979Z</time></trkpt><trkpt lat="44.701455" lon="10.0922"><ele>150.0</ele><time>2026-04-04T14:22:24.98Z</time></trkpt><trkpt lat="44.7015783" lon="10.0923233"><ele>150.25</ele><time>2026-04-04T14:22:25.98Z</time></trkpt><trkpt lat="44.7017067" lon="10.09245"><ele>150.5</ele><time>2026-04-04T14:22:26.979Z</time></trkpt><trkpt lat="44.7018233" lon="10.09257"><ele>150.75</ele><time>2026-04-04T14:22:27.979Z</time></trkpt><trkpt lat="44.7019417" lon="10.0926933"><ele>151.0</ele><time>2026-04-04T14:22:28.979Z</time></trkpt><trkpt lat="44.7020517" lon="10.0928033"><ele>151.0</ele><time>2026-04-04T14:22:29.979Z</time></trkpt><trkpt lat="44.7021617" lon="10.0929017"><ele>151.0</ele><time>2026-04-04T14:22:30.98Z</time></trkpt><trkpt lat="44.702255" lon="10.093"><ele>151.0</ele><time>2026-04-04T14:22:31.979Z</time></trkpt><trkpt lat="44.7023417" lon="10.0930983"><ele>151.0</ele><time>2026-04-04T14:22:32.979Z</time></trkpt><trkpt lat="44.7024233" lon="10.0931933"><ele>150.5</ele><time>2026-04-04T14:22:33.979Z</time></trkpt><trkpt lat="44.7025083" lon="10.0932717"><ele>150.0</ele><time>2026-04-04T14:22:34.979Z</time></trkpt><trkpt lat="44.702585" lon="10.0933533"><ele>149.5</ele><time>2026-04-04T14:22:35.979Z</time></trkpt><trkpt lat="44.7026533" lon="10.0934267"><ele>149.0</ele><time>2026-04-04T14:22:36.98Z</time></trkpt><trkpt lat="44.7027067" lon="10.0935067"><ele>148.5</ele><time>2026-04-04T14:22:37.98Z</time></trkpt><trkpt lat="44.7027483" lon="10.0935933"><ele>148.0</ele><time>2026-04-04T14:22:38.979Z</time></trkpt><trkpt lat="44.7027817" lon="10.093675"><ele>154.0</ele><time>2026-04-04T14:22:39.979Z</time></trkpt><trkpt lat="44.7028233" lon="10.0938467"><ele>154.0</ele><time>2026-04-04T14:22:41.979Z</time></trkpt><trkpt lat="44.7028667" lon="10.0939683"><ele>154.0</ele><time>2026-04-04T14:22:43.979Z</time></trkpt><trkpt lat="44.7028767" lon="10.0940817"><ele>154.0</ele><time>2026-04-04T14:22:46.98Z</time></trkpt></trkseg><trkseg><trkpt lat="44.7029617" lon="10.0940183"><ele>154.0</ele><time>2026-04-04T14:33:49.978Z</time></trkpt><trkpt lat="44.7030417" lon="10.0939467"><ele>154.0</ele><time>2026-04-04T14:33:51.979Z</time></trkpt><trkpt lat="44.703165" lon="10.0939333"><ele>154.0</ele><time>2026-04-04T14:34:03.978Z</time></trkpt><trkpt lat="44.7032733" lon="10.0940383"><ele>154.0</ele><time>2026-04-04T14:34:05.979Z</time></trkpt><trkpt lat="44.70334" lon="10.0941117"><ele>154.0</ele><time>2026-04-04T14:34:06.979Z</time></trkpt><trkpt lat="44.7034133" lon="10.094195"><ele>154.0</ele><time>2026-04-04T14:34:07.978Z</time></trkpt><trkpt lat="44.7034967" lon="10.09428"><ele>154.0</ele><time>2026-04-04T14:34:08.978Z</time></trkpt><trkpt lat="44.7035833" lon="10.094365"><ele>154.0</ele><time>2026-04-04T14:34:09.978Z</time></trkpt><trkpt lat="44.7036833" lon="10.0944583"><ele>154.0</ele><time>2026-04-04T14:34:10.979Z</time></trkpt><trkpt lat="44.7037767" lon="10.094565"><ele>154.0</ele><time>2026-04-04T14:34:11.978Z</time></trkpt><trkpt lat="44.7038783" lon="10.09468"><ele>154.0</ele><time>2026-04-04T14:34:12.978Z</time></trkpt><trkpt lat="44.7039783" lon="10.0947983"><ele>154.0</ele><time>2026-04-04T14:34:13.978Z</time></trkpt><trkpt lat="44.7040717" lon="10.0949183"><ele>154.0</ele><time>2026-04-04T14:34:14.978Z</time></trkpt><trkpt lat="44.7041617" lon="10.095035"><ele>154.0</ele><time>2026-04-04T14:34:15.978Z</time></trkpt><trkpt lat="44.7042567" lon="10.0951517"><ele>153.5</ele><time>2026-04-04T14:34:16.979Z</time></trkpt><trkpt lat="44.704345" lon="10.09529"><ele>153.0</ele><time>2026-04-04T14:34:17.978Z</time></trkpt><trkpt lat="44.7044333" lon="10.095435"><ele>152.5</ele><time>2026-04-04T14:34:18.979Z</time></trkpt><trkpt lat="44.7045067" lon="10.095585"><ele>152.0</ele><time>2026-04-04T14:34:19.979Z</time></trkpt><trkpt lat="44.704585" lon="10.095755"><ele>149.33333333333331</ele><time>2026-04-04T14:34:20.978Z</time></trkpt><trkpt lat="44.704665" lon="10.0959383"><ele>146.66666666666666</ele><time>2026-04-04T14:34:21.979Z</time></trkpt><trkpt lat="44.704755" lon="10.096135"><ele>144.0</ele><time>2026-04-04T14:34:22.978Z</time></trkpt><trkpt lat="44.7048517" lon="10.096335"><ele>144.0</ele><time>2026-04-04T14:34:23.978Z</time></trkpt><trkpt lat="44.7049467" lon="10.096545"><ele>144.0</ele><time>2026-04-04T14:34:24.978Z</time></trkpt><trkpt lat="44.7050417" lon="10.096755"><ele>144.0</ele><time>2026-04-04T14:34:25.978Z</time></trkpt><trkpt lat="44.7051417" lon="10.09697"><ele>144.0</ele><time>2026-04-04T14:34:26.978Z</time></trkpt><trkpt lat="44.7052417" lon="10.0971767"><ele>144.0</ele><time>2026-04-04T14:34:27.978Z</time></trkpt><trkpt lat="44.7053383" lon="10.097395"><ele>144.0</ele><time>2026-04-04T14:34:28.978Z</time></trkpt><trkpt lat="44.7054367" lon="10.0976"><ele>144.0</ele><time>2026-04-04T14:34:29.978Z</time></trkpt><trkpt lat="44.7055417" lon="10.0978017"><ele>144.0</ele><time>2026-04-04T14:34:30.978Z</time></trkpt><trkpt lat="44.7056467" lon="10.0979817"><ele>144.0</ele><time>2026-04-04T14:34:31.978Z</time></trkpt><trkpt lat="44.7057667" lon="10.098145"><ele>144.33333333333334</ele><time>2026-04-04T14:34:32.978Z</time></trkpt><trkpt lat="44.7059083" lon="10.0982767"><ele>144.66666666666669</ele><time>2026-04-04T14:34:33.978Z</time></trkpt><trkpt lat="44.7060733" lon="10.0983833"><ele>145.0</ele><time>2026-04-04T14:34:34.979Z</time></trkpt><trkpt lat="44.706245" lon="10.0984967"><ele>145.0</ele><time>2026-04-04T14:34:35.978Z</time></trkpt><trkpt lat="44.7064233" lon="10.0986183"><ele>145.0</ele><time>2026-04-04T14:34:36.978Z</time></trkpt><trkpt lat="44.7066" lon="10.098735"><ele>145.0</ele><time>2026-04-04T14:34:37.979Z</time></trkpt><trkpt lat="44.706765" lon="10.098845"><ele>144.66666666666669</ele><time>2026-04-04T14:34:38.979Z</time></trkpt><trkpt lat="44.70693" lon="10.098975"><ele>144.33333333333334</ele><time>2026-04-04T14:34:39.978Z</time></trkpt><trkpt lat="44.7070933" lon="10.0991067"><ele>144.0</ele><time>2026-04-04T14:34:40.979Z</time></trkpt><trkpt lat="44.7072467" lon="10.09926"><ele>144.0</ele><time>2026-04-04T14:34:41.979Z</time></trkpt><trkpt lat="44.7073967" lon="10.099445"><ele>144.0</ele><time>2026-04-04T14:34:42.978Z</time></trkpt><trkpt lat="44.70754" lon="10.0996417"><ele>144.0</ele><time>2026-04-04T14:34:43.978Z</time></trkpt><trkpt lat="44.7076867" lon="10.099845"><ele>142.33333333333334</ele><time>2026-04-04T14:34:44.979Z</time></trkpt><trkpt lat="44.7078333" lon="10.1000483"><ele>140.66666666666669</ele><time>2026-04-04T14:34:45.978Z</time></trkpt><trkpt lat="44.7079783" lon="10.100245"><ele>139.0</ele><time>2026-04-04T14:34:46.978Z</time></trkpt><trkpt lat="44.70812" lon="10.1004267"><ele>139.0</ele><time>2026-04-04T14:34:47.978Z</time></trkpt><trkpt lat="44.7082517" lon="10.1005933"><ele>139.0</ele><time>2026-04-04T14:34:48.979Z</time></trkpt><trkpt lat="44.70837" lon="10.10076"><ele>139.0</ele><time>2026-04-04T14:34:49.978Z</time></trkpt><trkpt lat="44.70851" lon="10.1008967"><ele>137.33333333333334</ele><time>2026-04-04T14:34:50.979Z</time></trkpt><trkpt lat="44.708675" lon="10.100985"><ele>135.66666666666666</ele><time>2026-04-04T14:34:51.978Z</time></trkpt><trkpt lat="44.7088633" lon="10.10102"><ele>134.0</ele><time>2026-04-04T14:34:52.978Z</time></trkpt><trkpt lat="44.70906" lon="10.101005"><ele>134.0</ele><time>2026-04-04T14:34:53.978Z</time></trkpt><trkpt lat="44.7092667" lon="10.1009983"><ele>134.0</ele><time>2026-04-04T14:34:54.978Z</time></trkpt><trkpt lat="44.70948" lon="10.10099"><ele>134.0</ele><time>2026-04-04T14:34:55.978Z</time></trkpt><trkpt lat="44.7096933" lon="10.1009867"><ele>134.33333333333331</ele><time>2026-04-04T14:34:56.978Z</time></trkpt><trkpt lat="44.7098983" lon="10.10098"><ele>134.66666666666666</ele><time>2026-04-04T14:34:57.978Z</time></trkpt><trkpt lat="44.7101083" lon="10.10098"><ele>135.0</ele><time>2026-04-04T14:34:58.979Z</time></trkpt><trkpt lat="44.7103083" lon="10.100985"><ele>135.66666666666666</ele><time>2026-04-04T14:34:59.979Z</time></trkpt><trkpt lat="44.7105017" lon="10.1009833"><ele>136.33333333333331</ele><time>2026-04-04T14:35:00.978Z</time></trkpt><trkpt lat="44.7107033" lon="10.1009817"><ele>137.0</ele><time>2026-04-04T14:35:01.979Z</time></trkpt><trkpt lat="44.7108767" lon="10.100995"><ele>137.0</ele><time>2026-04-04T14:35:02.979Z</time></trkpt><trkpt lat="44.7110417" lon="10.1010317"><ele>137.0</ele><time>2026-04-04T14:35:03.978Z</time></trkpt><trkpt lat="44.7112033" lon="10.10109"><ele>137.0</ele><time>2026-04-04T14:35:04.978Z</time></trkpt><trkpt lat="44.7113483" lon="10.1011833"><ele>138.0</ele><time>2026-04-04T14:35:05.979Z</time></trkpt><trkpt lat="44.7114867" lon="10.1012883"><ele>139.0</ele><time>2026-04-04T14:35:06.979Z</time></trkpt><trkpt lat="44.7116317" lon="10.1013833"><ele>140.0</ele><time>2026-04-04T14:35:07.978Z</time></trkpt><trkpt lat="44.7117633" lon="10.10149"><ele>140.0</ele><time>2026-04-04T14:35:08.979Z</time></trkpt><trkpt lat="44.7119" lon="10.1015883"><ele>140.0</ele><time>2026-04-04T14:35:09.979Z</time></trkpt><trkpt lat="44.71203" lon="10.1016967"><ele>140.0</ele><time>2026-04-04T14:35:10.978Z</time></trkpt><trkpt lat="44.7121567" lon="10.101795"><ele>140.0</ele><time>2026-04-04T14:35:11.979Z</time></trkpt><trkpt lat="44.712285" lon="10.1018983"><ele>139.33333333333331</ele><time>2026-04-04T14:35:12.978Z</time></trkpt><trkpt lat="44.712425" lon="10.1020017"><ele>138.66666666666666</ele><time>2026-04-04T14:35:13.978Z</time></trkpt><trkpt lat="44.7125683" lon="10.1021133"><ele>138.0</ele><time>2026-04-04T14:35:14.978Z</time></trkpt><trkpt lat="44.71271" lon="10.1022167"><ele>138.0</ele><time>2026-04-04T14:35:15.978Z</time></trkpt><trkpt lat="44.71285" lon="10.10232"><ele>138.0</ele><time>2026-04-04T14:35:16.978Z</time></trkpt><trkpt lat="44.71299" lon="10.1024267"><ele>138.0</ele><time>2026-04-04T14:35:17.978Z</time></trkpt><trkpt lat="44.713125" lon="10.1025333"><ele>137.33333333333334</ele><time>2026-04-04T14:35:18.978Z</time></trkpt><trkpt lat="44.7132617" lon="10.1026467"><ele>136.66666666666669</ele><time>2026-04-04T14:35:19.979Z</time></trkpt><trkpt lat="44.7133933" lon="10.10276"><ele>136.0</ele><time>2026-04-04T14:35:20.978Z</time></trkpt><trkpt lat="44.7135333" lon="10.10287"><ele>136.66666666666669</ele><time>2026-04-04T14:35:21.978Z</time></trkpt><trkpt lat="44.71369" lon="10.1029783"><ele>137.33333333333334</ele><time>2026-04-04T14:35:22.978Z</time></trkpt><trkpt lat="44.7138467" lon="10.1030883"><ele>138.0</ele><time>2026-04-04T14:35:23.978Z</time></trkpt><trkpt lat="44.7139917" lon="10.1032"><ele>137.66666666666666</ele><time>2026-04-04T14:35:24.979Z</time></trkpt><trkpt lat="44.7141267" lon="10.103315"><ele>137.33333333333331</ele><time>2026-04-04T14:35:25.978Z</time></trkpt><trkpt lat="44.7142717" lon="10.10342"><ele>137.0</ele><time>2026-04-04T14:35:26.978Z</time></trkpt><trkpt lat="44.7144217" lon="10.103525"><ele>137.0</ele><time>2026-04-04T14:35:27.978Z</time></trkpt><trkpt lat="44.7145633" lon="10.1036333"><ele>137.0</ele><time>2026-04-04T14:35:28.979Z</time></trkpt><trkpt lat="44.7147167" lon="10.103745"><ele>137.0</ele><time>2026-04-04T14:35:29.978Z</time></trkpt><trkpt lat="44.7148767" lon="10.1038567"><ele>137.0</ele><time>2026-04-04T14:35:30.979Z</time></trkpt><trkpt lat="44.7150233" lon="10.1039733"><ele>137.0</ele><time>2026-04-04T14:35:31.978Z</time></trkpt><trkpt lat="44.715175" lon="10.1040917"><ele>137.0</ele><time>2026-04-04T14:35:32.978Z</time></trkpt><trkpt lat="44.7153217" lon="10.1042133"><ele>137.0</ele><time>2026-04-04T14:35:33.979Z</time></trkpt><trkpt lat="44.7154717" lon="10.1043233"><ele>137.0</ele><time>2026-04-04T14:35:34.979Z</time></trkpt><trkpt lat="44.7156283" lon="10.1044333"><ele>137.0</ele><time>2026-04-04T14:35:35.978Z</time></trkpt><trkpt lat="44.7157883" lon="10.10455"><ele>137.0</ele><time>2026-04-04T14:35:36.979Z</time></trkpt><trkpt lat="44.71595" lon="10.10465"><ele>137.0</ele><time>2026-04-04T14:35:37.979Z</time></trkpt><trkpt lat="44.7161183" lon="10.1047333"><ele>137.0</ele><time>2026-04-04T14:35:38.978Z</time></trkpt><trkpt lat="44.716285" lon="10.1047983"><ele>137.66666666666666</ele><time>2026-04-04T14:35:39.979Z</time></trkpt><trkpt lat="44.7164567" lon="10.1048467"><ele>138.33333333333334</ele><time>2026-04-04T14:35:40.978Z</time></trkpt><trkpt lat="44.7166433" lon="10.1048917"><ele>139.0</ele><time>2026-04-04T14:35:41.978Z</time></trkpt><trkpt lat="44.716825" lon="10.1049083"><ele>137.0</ele><time>2026-04-04T14:35:42.978Z</time></trkpt><trkpt lat="44.71702" lon="10.104915"><ele>135.0</ele><time>2026-04-04T14:35:43.979Z</time></trkpt><trkpt lat="44.7171983" lon="10.1049217"><ele>133.0</ele><time>2026-04-04T14:35:44.978Z</time></trkpt><trkpt lat="44.7173717" lon="10.104935"><ele>133.0</ele><time>2026-04-04T14:35:45.977Z</time></trkpt><trkpt lat="44.71752" lon="10.1049733"><ele>133.0</ele><time>2026-04-04T14:35:46.977Z</time></trkpt><trkpt lat="44.717685" lon="10.1050367"><ele>133.0</ele><time>2026-04-04T14:35:47.978Z</time></trkpt><trkpt lat="44.7178417" lon="10.10512"><ele>134.0</ele><time>2026-04-04T14:35:48.977Z</time></trkpt><trkpt lat="44.717975" lon="10.1052133"><ele>135.0</ele><time>2026-04-04T14:35:49.978Z</time></trkpt><trkpt lat="44.7181167" lon="10.1053133"><ele>136.0</ele><time>2026-04-04T14:35:50.977Z</time></trkpt><trkpt lat="44.71826" lon="10.105425"><ele>136.0</ele><time>2026-04-04T14:35:51.978Z</time></trkpt><trkpt lat="44.7184117" lon="10.1055433"><ele>136.0</ele><time>2026-04-04T14:35:52.978Z</time></trkpt><trkpt lat="44.7185583" lon="10.1056583"><ele>136.0</ele><time>2026-04-04T14:35:53.977Z</time></trkpt><trkpt lat="44.7187067" lon="10.105755"><ele>134.66666666666669</ele><time>2026-04-04T14:35:54.978Z</time></trkpt><trkpt lat="44.7188467" lon="10.1058583"><ele>133.33333333333334</ele><time>2026-04-04T14:35:55.977Z</time></trkpt><trkpt lat="44.7189917" lon="10.1059633"><ele>132.0</ele><time>2026-04-04T14:35:56.978Z</time></trkpt><trkpt lat="44.71914" lon="10.1060767"><ele>132.0</ele><time>2026-04-04T14:35:57.977Z</time></trkpt><trkpt lat="44.7192783" lon="10.1062067"><ele>132.0</ele><time>2026-04-04T14:35:58.978Z</time></trkpt><trkpt lat="44.7194233" lon="10.1063383"><ele>132.0</ele><time>2026-04-04T14:35:59.978Z</time></trkpt><trkpt lat="44.7195633" lon="10.1064833"><ele>131.66666666666666</ele><time>2026-04-04T14:36:00.977Z</time></trkpt><trkpt lat="44.719695" lon="10.1066267"><ele>131.33333333333331</ele><time>2026-04-04T14:36:01.978Z</time></trkpt><trkpt lat="44.7198233" lon="10.1067683"><ele>131.0</ele><time>2026-04-04T14:36:02.977Z</time></trkpt><trkpt lat="44.7199467" lon="10.106915"><ele>131.0</ele><time>2026-04-04T14:36:03.977Z</time></trkpt><trkpt lat="44.720065" lon="10.1070633"><ele>131.0</ele><time>2026-04-04T14:36:04.977Z</time></trkpt><trkpt lat="44.7201833" lon="10.1072117"><ele>131.0</ele><time>2026-04-04T14:36:05.978Z</time></trkpt><trkpt lat="44.7203" lon="10.10737"><ele>131.0</ele><time>2026-04-04T14:36:06.977Z</time></trkpt><trkpt lat="44.7204233" lon="10.1075267"><ele>131.0</ele><time>2026-04-04T14:36:07.978Z</time></trkpt><trkpt lat="44.7205433" lon="10.1076833"><ele>131.0</ele><time>2026-04-04T14:36:08.977Z</time></trkpt><trkpt lat="44.72067" lon="10.1078383"><ele>131.0</ele><time>2026-04-04T14:36:09.978Z</time></trkpt><trkpt lat="44.7207933" lon="10.108"><ele>131.0</ele><time>2026-04-04T14:36:10.978Z</time></trkpt><trkpt lat="44.720915" lon="10.1081617"><ele>131.0</ele><time>2026-04-04T14:36:11.978Z</time></trkpt><trkpt lat="44.7210433" lon="10.1083117"><ele>131.0</ele><time>2026-04-04T14:36:12.978Z</time></trkpt><trkpt lat="44.72117" lon="10.108445"><ele>131.0</ele><time>2026-04-04T14:36:13.978Z</time></trkpt><trkpt lat="44.72132" lon="10.1085683"><ele>131.0</ele><time>2026-04-04T14:36:14.978Z</time></trkpt><trkpt lat="44.7214733" lon="10.10868"><ele>131.0</ele><time>2026-04-04T14:36:15.978Z</time></trkpt><trkpt lat="44.7216267" lon="10.1088033"><ele>131.0</ele><time>2026-04-04T14:36:16.978Z</time></trkpt><trkpt lat="44.7217817" lon="10.1089217"><ele>131.0</ele><time>2026-04-04T14:36:17.978Z</time></trkpt><trkpt lat="44.7219317" lon="10.1090383"><ele>131.0</ele><time>2026-04-04T14:36:18.978Z</time></trkpt><trkpt lat="44.7220867" lon="10.1091583"><ele>131.0</ele><time>2026-04-04T14:36:19.978Z</time></trkpt><trkpt lat="44.72225" lon="10.1092767"><ele>131.0</ele><time>2026-04-04T14:36:20.977Z</time></trkpt><trkpt lat="44.7223967" lon="10.1093933"><ele>131.0</ele><time>2026-04-04T14:36:21.978Z</time></trkpt><trkpt lat="44.7225417" lon="10.1095217"><ele>131.0</ele><time>2026-04-04T14:36:22.977Z</time></trkpt><trkpt lat="44.7226883" lon="10.1096367"><ele>131.0</ele><time>2026-04-04T14:36:23.978Z</time></trkpt><trkpt lat="44.7228317" lon="10.1097517"><ele>131.33333333333331</ele><time>2026-04-04T14:36:24.978Z</time></trkpt><trkpt lat="44.72298" lon="10.10987"><ele>131.66666666666666</ele><time>2026-04-04T14:36:25.977Z</time></trkpt><trkpt lat="44.7231233" lon="10.1099867"><ele>132.0</ele><time>2026-04-04T14:36:26.977Z</time></trkpt><trkpt lat="44.72329" lon="10.11011"><ele>132.0</ele><time>2026-04-04T14:36:27.977Z</time></trkpt><trkpt lat="44.7234467" lon="10.110215"><ele>132.0</ele><time>2026-04-04T14:36:28.977Z</time></trkpt><trkpt lat="44.7236133" lon="10.11031"><ele>132.0</ele><time>2026-04-04T14:36:29.978Z</time></trkpt><trkpt lat="44.7237783" lon="10.1104017"><ele>132.66666666666666</ele><time>2026-04-04T14:36:30.977Z</time></trkpt><trkpt lat="44.7239383" lon="10.1104933"><ele>133.33333333333331</ele><time>2026-04-04T14:36:31.977Z</time></trkpt><trkpt lat="44.724095" lon="10.1105783"><ele>134.0</ele><time>2026-04-04T14:36:32.977Z</time></trkpt><trkpt lat="44.724235" lon="10.1106717"><ele>133.66666666666666</ele><time>2026-04-04T14:36:33.977Z</time></trkpt><trkpt lat="44.7243633" lon="10.110765"><ele>133.33333333333334</ele><time>2026-04-04T14:36:34.977Z</time></trkpt><trkpt lat="44.7244867" lon="10.1108967"><ele>133.0</ele><time>2026-04-04T14:36:35.978Z</time></trkpt><trkpt lat="44.7246017" lon="10.111045"><ele>133.25</ele><time>2026-04-04T14:36:36.978Z</time></trkpt><trkpt lat="44.72467" lon="10.1112333"><ele>133.5</ele><time>2026-04-04T14:36:37.978Z</time></trkpt><trkpt lat="44.7247267" lon="10.1114233"><ele>133.75</ele><time>2026-04-04T14:36:38.978Z</time></trkpt><trkpt lat="44.7247817" lon="10.11161"><ele>134.0</ele><time>2026-04-04T14:36:39.977Z</time></trkpt><trkpt lat="44.7248383" lon="10.1117767"><ele>134.0</ele><time>2026-04-04T14:36:40.977Z</time></trkpt><trkpt lat="44.7248933" lon="10.111935"><ele>134.0</ele><time>2026-04-04T14:36:41.978Z</time></trkpt><trkpt lat="44.72495" lon="10.112075"><ele>134.0</ele><time>2026-04-04T14:36:42.977Z</time></trkpt><trkpt lat="44.7250133" lon="10.112215"><ele>134.0</ele><time>2026-04-04T14:36:43.977Z</time></trkpt><trkpt lat="44.7250783" lon="10.112355"><ele>134.0</ele><time>2026-04-04T14:36:44.977Z</time></trkpt><trkpt lat="44.7251467" lon="10.1124917"><ele>134.0</ele><time>2026-04-04T14:36:45.978Z</time></trkpt><trkpt lat="44.7252183" lon="10.1126367"><ele>134.0</ele><time>2026-04-04T14:36:46.977Z</time></trkpt><trkpt lat="44.7252933" lon="10.1127883"><ele>134.0</ele><time>2026-04-04T14:36:47.977Z</time></trkpt><trkpt lat="44.7253933" lon="10.1129233"><ele>134.0</ele><time>2026-04-04T14:36:48.977Z</time></trkpt><trkpt lat="44.7254883" lon="10.113075"><ele>134.0</ele><time>2026-04-04T14:36:49.978Z</time></trkpt><trkpt lat="44.7255883" lon="10.1132217"><ele>134.0</ele><time>2026-04-04T14:36:50.977Z</time></trkpt><trkpt lat="44.7256933" lon="10.11335"><ele>134.0</ele><time>2026-04-04T14:36:51.978Z</time></trkpt><trkpt lat="44.7257933" lon="10.113485"><ele>133.75</ele><time>2026-04-04T14:36:52.977Z</time></trkpt><trkpt lat="44.72588" lon="10.11363"><ele>133.5</ele><time>2026-04-04T14:36:53.977Z</time></trkpt><trkpt lat="44.7259783" lon="10.11377"><ele>133.25</ele><time>2026-04-04T14:36:54.977Z</time></trkpt><trkpt lat="44.7260717" lon="10.1139017"><ele>133.0</ele><time>2026-04-04T14:36:55.978Z</time></trkpt><trkpt lat="44.726165" lon="10.114045"><ele>133.5</ele><time>2026-04-04T14:36:56.977Z</time></trkpt><trkpt lat="44.7262583" lon="10.1141967"><ele>134.0</ele><time>2026-04-04T14:36:57.977Z</time></trkpt><trkpt lat="44.7263517" lon="10.1143367"><ele>134.5</ele><time>2026-04-04T14:36:58.977Z</time></trkpt><trkpt lat="44.7264467" lon="10.1144783"><ele>135.0</ele><time>2026-04-04T14:36:59.977Z</time></trkpt><trkpt lat="44.72655" lon="10.1146267"><ele>135.0</ele><time>2026-04-04T14:37:00.978Z</time></trkpt><trkpt lat="44.7266617" lon="10.1147833"><ele>135.0</ele><time>2026-04-04T14:37:01.978Z</time></trkpt><trkpt lat="44.7267783" lon="10.1149367"><ele>135.0</ele><time>2026-04-04T14:37:02.977Z</time></trkpt><trkpt lat="44.7268967" lon="10.1150933"><ele>135.33333333333334</ele><time>2026-04-04T14:37:03.977Z</time></trkpt><trkpt lat="44.7270033" lon="10.115265"><ele>135.66666666666669</ele><time>2026-04-04T14:37:04.978Z</time></trkpt><trkpt lat="44.727125" lon="10.1154367"><ele>136.0</ele><time>2026-04-04T14:37:05.977Z</time></trkpt><trkpt lat="44.7272467" lon="10.1156067"><ele>134.66666666666669</ele><time>2026-04-04T14:37:06.977Z</time></trkpt><trkpt lat="44.7273767" lon="10.1157883"><ele>133.33333333333334</ele><time>2026-04-04T14:37:07.977Z</time></trkpt><trkpt lat="44.7275017" lon="10.11596"><ele>132.0</ele><time>2026-04-04T14:37:08.978Z</time></trkpt><trkpt lat="44.7276317" lon="10.1161433"><ele>132.0</ele><time>2026-04-04T14:37:09.977Z</time></trkpt><trkpt lat="44.7277667" lon="10.1163367"><ele>132.0</ele><time>2026-04-04T14:37:10.977Z</time></trkpt><trkpt lat="44.7279" lon="10.1165417"><ele>132.0</ele><time>2026-04-04T14:37:11.977Z</time></trkpt><trkpt lat="44.728035" lon="10.1167467"><ele>132.0</ele><time>2026-04-04T14:37:12.977Z</time></trkpt><trkpt lat="44.7281717" lon="10.1169433"><ele>132.0</ele><time>2026-04-04T14:37:13.977Z</time></trkpt><trkpt lat="44.72831" lon="10.1171417"><ele>132.0</ele><time>2026-04-04T14:37:14.977Z</time></trkpt><trkpt lat="44.7284433" lon="10.1173433"><ele>133.66666666666666</ele><time>2026-04-04T14:37:15.977Z</time></trkpt><trkpt lat="44.7285883" lon="10.1175433"><ele>135.33333333333331</ele><time>2026-04-04T14:37:16.977Z</time></trkpt><trkpt lat="44.7287217" lon="10.1177333"><ele>137.0</ele><time>2026-04-04T14:37:17.978Z</time></trkpt><trkpt lat="44.7288567" lon="10.1179283"><ele>137.0</ele><time>2026-04-04T14:37:18.978Z</time></trkpt><trkpt lat="44.7289883" lon="10.1181267"><ele>137.0</ele><time>2026-04-04T14:37:19.977Z</time></trkpt><trkpt lat="44.7291217" lon="10.1183217"><ele>137.0</ele><time>2026-04-04T14:37:20.977Z</time></trkpt><trkpt lat="44.7292567" lon="10.1185217"><ele>136.0</ele><time>2026-04-04T14:37:21.977Z</time></trkpt><trkpt lat="44.7293917" lon="10.11872"><ele>135.0</ele><time>2026-04-04T14:37:22.977Z</time></trkpt><trkpt lat="44.729535" lon="10.1189167"><ele>134.0</ele><time>2026-04-04T14:37:23.978Z</time></trkpt><trkpt lat="44.729675" lon="10.119125"><ele>134.0</ele><time>2026-04-04T14:37:24.978Z</time></trkpt><trkpt lat="44.7298133" lon="10.1193233"><ele>134.0</ele><time>2026-04-04T14:37:25.978Z</time></trkpt><trkpt lat="44.7299567" lon="10.1195133"><ele>134.0</ele><time>2026-04-04T14:37:26.978Z</time></trkpt><trkpt lat="44.7301017" lon="10.1196917"><ele>132.66666666666666</ele><time>2026-04-04T14:37:27.977Z</time></trkpt><trkpt lat="44.7302633" lon="10.1198567"><ele>131.33333333333334</ele><time>2026-04-04T14:37:28.978Z</time></trkpt><trkpt lat="44.7304167" lon="10.1200233"><ele>130.0</ele><time>2026-04-04T14:37:29.977Z</time></trkpt><trkpt lat="44.7305617" lon="10.1201767"><ele>130.0</ele><time>2026-04-04T14:37:30.977Z</time></trkpt><trkpt lat="44.7306967" lon="10.1203133"><ele>130.0</ele><time>2026-04-04T14:37:31.977Z</time></trkpt><trkpt lat="44.7308333" lon="10.1204467"><ele>130.0</ele><time>2026-04-04T14:37:32.977Z</time></trkpt><trkpt lat="44.7309683" lon="10.120585"><ele>130.66666666666669</ele><time>2026-04-04T14:37:33.978Z</time></trkpt><trkpt lat="44.73112" lon="10.1207417"><ele>131.33333333333334</ele><time>2026-04-04T14:37:34.977Z</time></trkpt><trkpt lat="44.7312667" lon="10.1208983"><ele>132.0</ele><time>2026-04-04T14:37:35.978Z</time></trkpt><trkpt lat="44.7314183" lon="10.12104"><ele>132.0</ele><time>2026-04-04T14:37:36.977Z</time></trkpt><trkpt lat="44.7315567" lon="10.1211967"><ele>132.0</ele><time>2026-04-04T14:37:37.977Z</time></trkpt><trkpt lat="44.7316917" lon="10.1213633"><ele>132.0</ele><time>2026-04-04T14:37:38.978Z</time></trkpt><trkpt lat="44.7318417" lon="10.1215333"><ele>132.33333333333334</ele><time>2026-04-04T14:37:39.977Z</time></trkpt><trkpt lat="44.73199" lon="10.1217017"><ele>132.66666666666669</ele><time>2026-04-04T14:37:40.978Z</time></trkpt><trkpt lat="44.7321267" lon="10.1218633"><ele>133.0</ele><time>2026-04-04T14:37:41.978Z</time></trkpt><trkpt lat="44.7322483" lon="10.1220167"><ele>133.0</ele><time>2026-04-04T14:37:42.977Z</time></trkpt><trkpt lat="44.73238" lon="10.1221733"><ele>133.0</ele><time>2026-04-04T14:37:43.977Z</time></trkpt><trkpt lat="44.73251" lon="10.1223317"><ele>133.0</ele><time>2026-04-04T14:37:44.977Z</time></trkpt><trkpt lat="44.7326383" lon="10.1224733"><ele>131.66666666666669</ele><time>2026-04-04T14:37:45.977Z</time></trkpt><trkpt lat="44.7327667" lon="10.1226167"><ele>130.33333333333334</ele><time>2026-04-04T14:37:46.977Z</time></trkpt><trkpt lat="44.7329033" lon="10.1227467"><ele>129.0</ele><time>2026-04-04T14:37:47.977Z</time></trkpt><trkpt lat="44.7330417" lon="10.1228567"><ele>129.0</ele><time>2026-04-04T14:37:48.978Z</time></trkpt><trkpt lat="44.7331983" lon="10.1229683"><ele>129.0</ele><time>2026-04-04T14:37:49.978Z</time></trkpt><trkpt lat="44.7333567" lon="10.12307"><ele>129.0</ele><time>2026-04-04T14:37:50.978Z</time></trkpt><trkpt lat="44.7335033" lon="10.12317"><ele>126.66666666666666</ele><time>2026-04-04T14:37:51.977Z</time></trkpt><trkpt lat="44.7336633" lon="10.1232767"><ele>124.33333333333333</ele><time>2026-04-04T14:37:52.978Z</time></trkpt><trkpt lat="44.7338183" lon="10.12338"><ele>122.0</ele><time>2026-04-04T14:37:53.978Z</time></trkpt><trkpt lat="44.7339633" lon="10.1234767"><ele>122.0</ele><time>2026-04-04T14:37:54.977Z</time></trkpt><trkpt lat="44.7341283" lon="10.1235867"><ele>122.0</ele><time>2026-04-04T14:37:55.978Z</time></trkpt><trkpt lat="44.7342767" lon="10.12369"><ele>122.0</ele><time>2026-04-04T14:37:56.977Z</time></trkpt><trkpt lat="44.7344217" lon="10.1237933"><ele>121.0</ele><time>2026-04-04T14:37:57.978Z</time></trkpt><trkpt lat="44.7345717" lon="10.1239067"><ele>120.0</ele><time>2026-04-04T14:37:58.977Z</time></trkpt><trkpt lat="44.7347183" lon="10.1240167"><ele>119.0</ele><time>2026-04-04T14:37:59.977Z</time></trkpt><trkpt lat="44.7348633" lon="10.1241367"><ele>119.0</ele><time>2026-04-04T14:38:00.978Z</time></trkpt><trkpt lat="44.735015" lon="10.1242617"><ele>119.0</ele><time>2026-04-04T14:38:01.978Z</time></trkpt><trkpt lat="44.7351583" lon="10.1243817"><ele>119.0</ele><time>2026-04-04T14:38:02.977Z</time></trkpt><trkpt lat="44.7352983" lon="10.1245033"><ele>121.0</ele><time>2026-04-04T14:38:03.977Z</time></trkpt><trkpt lat="44.7354317" lon="10.124615"><ele>123.0</ele><time>2026-04-04T14:38:04.977Z</time></trkpt><trkpt lat="44.7355733" lon="10.12474"><ele>125.0</ele><time>2026-04-04T14:38:05.977Z</time></trkpt><trkpt lat="44.7357117" lon="10.124845"><ele>125.66666666666666</ele><time>2026-04-04T14:38:06.977Z</time></trkpt><trkpt lat="44.7358617" lon="10.124965"><ele>126.33333333333334</ele><time>2026-04-04T14:38:07.978Z</time></trkpt><trkpt lat="44.7360217" lon="10.125085"><ele>127.0</ele><time>2026-04-04T14:38:08.977Z</time></trkpt><trkpt lat="44.736195" lon="10.1252233"><ele>127.0</ele><time>2026-04-04T14:38:09.978Z</time></trkpt><trkpt lat="44.7363683" lon="10.125355"><ele>127.0</ele><time>2026-04-04T14:38:10.977Z</time></trkpt><trkpt lat="44.7365517" lon="10.125515"><ele>127.0</ele><time>2026-04-04T14:38:11.977Z</time></trkpt><trkpt lat="44.7367317" lon="10.12567"><ele>126.33333333333334</ele><time>2026-04-04T14:38:12.977Z</time></trkpt><trkpt lat="44.73692" lon="10.1258467"><ele>125.66666666666666</ele><time>2026-04-04T14:38:13.977Z</time></trkpt><trkpt lat="44.7370983" lon="10.1260133"><ele>125.0</ele><time>2026-04-04T14:38:14.977Z</time></trkpt><trkpt lat="44.73728" lon="10.1261917"><ele>125.0</ele><time>2026-04-04T14:38:15.977Z</time></trkpt><trkpt lat="44.7374567" lon="10.1263767"><ele>125.0</ele><time>2026-04-04T14:38:16.978Z</time></trkpt><trkpt lat="44.7376317" lon="10.126565"><ele>125.0</ele><time>2026-04-04T14:38:17.978Z</time></trkpt><trkpt lat="44.7378017" lon="10.1267567"><ele>124.66666666666666</ele><time>2026-04-04T14:38:18.977Z</time></trkpt><trkpt lat="44.7379717" lon="10.12695"><ele>124.33333333333334</ele><time>2026-04-04T14:38:19.978Z</time></trkpt><trkpt lat="44.7381317" lon="10.127155"><ele>124.0</ele><time>2026-04-04T14:38:20.977Z</time></trkpt><trkpt lat="44.7382783" lon="10.1273717"><ele>124.33333333333334</ele><time>2026-04-04T14:38:21.977Z</time></trkpt><trkpt lat="44.7384283" lon="10.1276017"><ele>124.66666666666666</ele><time>2026-04-04T14:38:22.977Z</time></trkpt><trkpt lat="44.7385717" lon="10.1278183"><ele>125.0</ele><time>2026-04-04T14:38:23.977Z</time></trkpt><trkpt lat="44.738715" lon="10.12804"><ele>124.0</ele><time>2026-04-04T14:38:24.978Z</time></trkpt><trkpt lat="44.7388567" lon="10.1282583"><ele>123.0</ele><time>2026-04-04T14:38:25.977Z</time></trkpt><trkpt lat="44.7389933" lon="10.1284683"><ele>122.0</ele><time>2026-04-04T14:38:26.977Z</time></trkpt><trkpt lat="44.7391267" lon="10.1286667"><ele>122.0</ele><time>2026-04-04T14:38:27.978Z</time></trkpt><trkpt lat="44.7392533" lon="10.1288417"><ele>122.0</ele><time>2026-04-04T14:38:28.977Z</time></trkpt><trkpt lat="44.7393717" lon="10.1290033"><ele>122.0</ele><time>2026-04-04T14:38:29.978Z</time></trkpt><trkpt lat="44.73948" lon="10.129145"><ele>120.75</ele><time>2026-04-04T14:38:30.978Z</time></trkpt><trkpt lat="44.7396033" lon="10.1292617"><ele>119.5</ele><time>2026-04-04T14:38:31.977Z</time></trkpt><trkpt lat="44.739715" lon="10.129365"><ele>118.25</ele><time>2026-04-04T14:38:32.978Z</time></trkpt><trkpt lat="44.7398233" lon="10.1294583"><ele>117.0</ele><time>2026-04-04T14:38:33.978Z</time></trkpt><trkpt lat="44.7399233" lon="10.1295567"><ele>117.0</ele><time>2026-04-04T14:38:34.977Z</time></trkpt><trkpt lat="44.740015" lon="10.1296567"><ele>117.0</ele><time>2026-04-04T14:38:35.977Z</time></trkpt><trkpt lat="44.7401067" lon="10.1297533"><ele>117.0</ele><time>2026-04-04T14:38:36.978Z</time></trkpt><trkpt lat="44.7401767" lon="10.1298717"><ele>117.0</ele><time>2026-04-04T14:38:37.977Z</time></trkpt><trkpt lat="44.74028" lon="10.1299717"><ele>116.66666666666666</ele><time>2026-04-04T14:38:38.977Z</time></trkpt><trkpt lat="44.7404183" lon="10.1300433"><ele>116.33333333333333</ele><time>2026-04-04T14:38:39.978Z</time></trkpt><trkpt lat="44.7405733" lon="10.1300967"><ele>116.0</ele><time>2026-04-04T14:38:40.977Z</time></trkpt><trkpt lat="44.7407333" lon="10.1301667"><ele>116.0</ele><time>2026-04-04T14:38:41.977Z</time></trkpt><trkpt lat="44.7408967" lon="10.1302567"><ele>116.0</ele><time>2026-04-04T14:38:42.977Z</time></trkpt><trkpt lat="44.741065" lon="10.13037"><ele>116.0</ele><time>2026-04-04T14:38:43.977Z</time></trkpt><trkpt lat="44.7412367" lon="10.1304983"><ele>115.33333333333333</ele><time>2026-04-04T14:38:44.978Z</time></trkpt><trkpt lat="44.741405" lon="10.130625"><ele>114.66666666666666</ele><time>2026-04-04T14:38:45.977Z</time></trkpt><trkpt lat="44.7415783" lon="10.1307533"><ele>114.0</ele><time>2026-04-04T14:38:46.977Z</time></trkpt><trkpt lat="44.7417517" lon="10.1308967"><ele>115.33333333333334</ele><time>2026-04-04T14:38:47.977Z</time></trkpt><trkpt lat="44.741925" lon="10.1310433"><ele>116.66666666666667</ele><time>2026-04-04T14:38:48.977Z</time></trkpt><trkpt lat="44.742105" lon="10.1311783"><ele>118.0</ele><time>2026-04-04T14:38:49.977Z</time></trkpt><trkpt lat="44.742285" lon="10.1313233"><ele>118.0</ele><time>2026-04-04T14:38:50.977Z</time></trkpt><trkpt lat="44.7424667" lon="10.13147"><ele>118.0</ele><time>2026-04-04T14:38:51.977Z</time></trkpt><trkpt lat="44.74266" lon="10.1316267"><ele>118.0</ele><time>2026-04-04T14:38:52.977Z</time></trkpt><trkpt lat="44.7428617" lon="10.1317867"><ele>119.0</ele><time>2026-04-04T14:38:53.977Z</time></trkpt><trkpt lat="44.74306" lon="10.131935"><ele>120.0</ele><time>2026-04-04T14:38:54.977Z</time></trkpt><trkpt lat="44.7432617" lon="10.1320917"><ele>120.0</ele><time>2026-04-04T14:38:55.978Z</time></trkpt><trkpt lat="44.7434633" lon="10.1322467"><ele>120.0</ele><time>2026-04-04T14:38:56.977Z</time></trkpt><trkpt lat="44.7436717" lon="10.132405"><ele>120.0</ele><time>2026-04-04T14:38:57.977Z</time></trkpt><trkpt lat="44.743885" lon="10.1325717"><ele>120.0</ele><time>2026-04-04T14:38:58.978Z</time></trkpt><trkpt lat="44.744105" lon="10.13275"><ele>120.0</ele><time>2026-04-04T14:38:59.977Z</time></trkpt><trkpt lat="44.7443167" lon="10.1329367"><ele>120.0</ele><time>2026-04-04T14:39:00.978Z</time></trkpt><trkpt lat="44.7445217" lon="10.1331233"><ele>120.5</ele><time>2026-04-04T14:39:01.978Z</time></trkpt><trkpt lat="44.7447217" lon="10.133305"><ele>121.0</ele><time>2026-04-04T14:39:02.977Z</time></trkpt><trkpt lat="44.7449067" lon="10.133495"><ele>121.0</ele><time>2026-04-04T14:39:03.978Z</time></trkpt><trkpt lat="44.7450933" lon="10.1336783"><ele>121.0</ele><time>2026-04-04T14:39:04.977Z</time></trkpt><trkpt lat="44.7452717" lon="10.1338667"><ele>121.66666666666667</ele><time>2026-04-04T14:39:05.977Z</time></trkpt><trkpt lat="44.745455" lon="10.134055"><ele>122.33333333333334</ele><time>2026-04-04T14:39:06.977Z</time></trkpt><trkpt lat="44.74563" lon="10.1342467"><ele>123.0</ele><time>2026-04-04T14:39:07.978Z</time></trkpt><trkpt lat="44.7457917" lon="10.1344467"><ele>123.0</ele><time>2026-04-04T14:39:08.977Z</time></trkpt><trkpt lat="44.7459633" lon="10.1346467"><ele>123.0</ele><time>2026-04-04T14:39:09.978Z</time></trkpt><trkpt lat="44.7461333" lon="10.134855"><ele>123.0</ele><time>2026-04-04T14:39:10.977Z</time></trkpt><trkpt lat="44.7462983" lon="10.1350533"><ele>123.0</ele><time>2026-04-04T14:39:11.977Z</time></trkpt><trkpt lat="44.7464633" lon="10.1352617"><ele>123.0</ele><time>2026-04-04T14:39:12.978Z</time></trkpt><trkpt lat="44.7466317" lon="10.13547"><ele>123.0</ele><time>2026-04-04T14:39:13.977Z</time></trkpt><trkpt lat="44.7468033" lon="10.1356817"><ele>124.5</ele><time>2026-04-04T14:39:14.977Z</time></trkpt><trkpt lat="44.7469833" lon="10.13589"><ele>126.0</ele><time>2026-04-04T14:39:15.978Z</time></trkpt><trkpt lat="44.7471567" lon="10.136095"><ele>126.0</ele><time>2026-04-04T14:39:16.977Z</time></trkpt><trkpt lat="44.747325" lon="10.1362967"><ele>126.0</ele><time>2026-04-04T14:39:17.977Z</time></trkpt><trkpt lat="44.7474933" lon="10.1364983"><ele>126.0</ele><time>2026-04-04T14:39:18.977Z</time></trkpt><trkpt lat="44.7476567" lon="10.136695"><ele>126.66666666666666</ele><time>2026-04-04T14:39:19.977Z</time></trkpt><trkpt lat="44.7478183" lon="10.1369083"><ele>127.33333333333333</ele><time>2026-04-04T14:39:20.978Z</time></trkpt><trkpt lat="44.7479817" lon="10.1371133"><ele>128.0</ele><time>2026-04-04T14:39:21.977Z</time></trkpt><trkpt lat="44.748145" lon="10.1373233"><ele>128.66666666666666</ele><time>2026-04-04T14:39:22.977Z</time></trkpt><trkpt lat="44.7483067" lon="10.137525"><ele>129.33333333333334</ele><time>2026-04-04T14:39:23.978Z</time></trkpt><trkpt lat="44.7484667" lon="10.137735"><ele>130.0</ele><time>2026-04-04T14:39:24.978Z</time></trkpt><trkpt lat="44.7486283" lon="10.1379383"><ele>130.0</ele><time>2026-04-04T14:39:25.977Z</time></trkpt><trkpt lat="44.7487883" lon="10.1381383"><ele>130.0</ele><time>2026-04-04T14:39:26.977Z</time></trkpt><trkpt lat="44.748945" lon="10.138335"><ele>130.0</ele><time>2026-04-04T14:39:27.977Z</time></trkpt><trkpt lat="44.7491083" lon="10.1385267"><ele>130.33333333333334</ele><time>2026-04-04T14:39:28.977Z</time></trkpt><trkpt lat="44.7492633" lon="10.1387217"><ele>130.66666666666666</ele><time>2026-04-04T14:39:29.977Z</time></trkpt><trkpt lat="44.7494217" lon="10.1389117"><ele>131.0</ele><time>2026-04-04T14:39:30.977Z</time></trkpt><trkpt lat="44.7495717" lon="10.1391083"><ele>127.66666666666666</ele><time>2026-04-04T14:39:31.978Z</time></trkpt><trkpt lat="44.7497217" lon="10.139295"><ele>124.33333333333334</ele><time>2026-04-04T14:39:32.977Z</time></trkpt><trkpt lat="44.74987" lon="10.1394817"><ele>121.0</ele><time>2026-04-04T14:39:33.977Z</time></trkpt><trkpt lat="44.7500183" lon="10.1396633"><ele>121.0</ele><time>2026-04-04T14:39:34.977Z</time></trkpt><trkpt lat="44.750165" lon="10.1398367"><ele>121.0</ele><time>2026-04-04T14:39:35.977Z</time></trkpt><trkpt lat="44.7503033" lon="10.1400083"><ele>121.0</ele><time>2026-04-04T14:39:36.977Z</time></trkpt><trkpt lat="44.7504283" lon="10.1401583"><ele>122.33333333333334</ele><time>2026-04-04T14:39:37.977Z</time></trkpt><trkpt lat="44.7505633" lon="10.140305"><ele>123.66666666666666</ele><time>2026-04-04T14:39:38.977Z</time></trkpt><trkpt lat="44.7506967" lon="10.140445"><ele>125.0</ele><time>2026-04-04T14:39:39.978Z</time></trkpt><trkpt lat="44.75083" lon="10.1405833"><ele>124.0</ele><time>2026-04-04T14:39:40.977Z</time></trkpt><trkpt lat="44.7509483" lon="10.14072"><ele>123.0</ele><time>2026-04-04T14:39:41.977Z</time></trkpt><trkpt lat="44.7510717" lon="10.1408383"><ele>122.0</ele><time>2026-04-04T14:39:42.977Z</time></trkpt><trkpt lat="44.751205" lon="10.1409433"><ele>122.0</ele><time>2026-04-04T14:39:43.978Z</time></trkpt><trkpt lat="44.7513317" lon="10.141025"><ele>122.0</ele><time>2026-04-04T14:39:44.977Z</time></trkpt><trkpt lat="44.751455" lon="10.1411067"><ele>122.0</ele><time>2026-04-04T14:39:45.978Z</time></trkpt><trkpt lat="44.7515617" lon="10.1411717"><ele>122.0</ele><time>2026-04-04T14:39:46.978Z</time></trkpt><trkpt lat="44.751655" lon="10.1412267"><ele>122.0</ele><time>2026-04-04T14:39:47.977Z</time></trkpt><trkpt lat="44.75175" lon="10.1412883"><ele>122.0</ele><time>2026-04-04T14:39:48.978Z</time></trkpt><trkpt lat="44.7518567" lon="10.1413583"><ele>122.0</ele><time>2026-04-04T14:39:49.977Z</time></trkpt><trkpt lat="44.7519633" lon="10.1414533"><ele>122.0</ele><time>2026-04-04T14:39:50.977Z</time></trkpt><trkpt lat="44.7520783" lon="10.1415567"><ele>119.0</ele><time>2026-04-04T14:39:51.977Z</time></trkpt><trkpt lat="44.7522033" lon="10.1416717"><ele>116.0</ele><time>2026-04-04T14:39:52.978Z</time></trkpt><trkpt lat="44.75233" lon="10.141785"><ele>113.0</ele><time>2026-04-04T14:39:53.978Z</time></trkpt><trkpt lat="44.752465" lon="10.1419"><ele>113.0</ele><time>2026-04-04T14:39:54.977Z</time></trkpt><trkpt lat="44.7526067" lon="10.142025"><ele>113.0</ele><time>2026-04-04T14:39:55.977Z</time></trkpt><trkpt lat="44.752755" lon="10.1421483"><ele>113.0</ele><time>2026-04-04T14:39:56.977Z</time></trkpt><trkpt lat="44.7529067" lon="10.1422883"><ele>114.0</ele><time>2026-04-04T14:39:57.977Z</time></trkpt><trkpt lat="44.7530617" lon="10.14243"><ele>115.0</ele><time>2026-04-04T14:39:58.977Z</time></trkpt><trkpt lat="44.7532183" lon="10.1425883"><ele>116.0</ele><time>2026-04-04T14:39:59.978Z</time></trkpt><trkpt lat="44.75336" lon="10.14276"><ele>116.0</ele><time>2026-04-04T14:40:00.977Z</time></trkpt><trkpt lat="44.753495" lon="10.142925"><ele>116.0</ele><time>2026-04-04T14:40:01.977Z</time></trkpt><trkpt lat="44.7536117" lon="10.143075"><ele>116.0</ele><time>2026-04-04T14:40:02.977Z</time></trkpt><trkpt lat="44.753725" lon="10.143215"><ele>115.75</ele><time>2026-04-04T14:40:03.977Z</time></trkpt><trkpt lat="44.7538283" lon="10.1433483"><ele>115.5</ele><time>2026-04-04T14:40:04.978Z</time></trkpt><trkpt lat="44.7539317" lon="10.1434683"><ele>115.25</ele><time>2026-04-04T14:40:05.977Z</time></trkpt><trkpt lat="44.75402" lon="10.143585"><ele>115.0</ele><time>2026-04-04T14:40:06.977Z</time></trkpt><trkpt lat="44.7541" lon="10.1437017"><ele>115.0</ele><time>2026-04-04T14:40:07.977Z</time></trkpt><trkpt lat="44.7541817" lon="10.1438083"><ele>115.0</ele><time>2026-04-04T14:40:08.977Z</time></trkpt><trkpt lat="44.7542717" lon="10.1439233"><ele>115.0</ele><time>2026-04-04T14:40:09.978Z</time></trkpt><trkpt lat="44.7543767" lon="10.1440417"><ele>115.0</ele><time>2026-04-04T14:40:10.977Z</time></trkpt><trkpt lat="44.75448" lon="10.1441683"><ele>115.5</ele><time>2026-04-04T14:40:11.978Z</time></trkpt><trkpt lat="44.754575" lon="10.1442867"><ele>116.0</ele><time>2026-04-04T14:40:12.978Z</time></trkpt><trkpt lat="44.7546533" lon="10.1444133"><ele>116.5</ele><time>2026-04-04T14:40:13.977Z</time></trkpt><trkpt lat="44.7547233" lon="10.1445417"><ele>117.0</ele><time>2026-04-04T14:40:14.977Z</time></trkpt><trkpt lat="44.7547583" lon="10.14467"><ele>117.0</ele><time>2026-04-04T14:40:15.978Z</time></trkpt><trkpt lat="44.754745" lon="10.1448033"><ele>116.99999999999999</ele><time>2026-04-04T14:40:16.978Z</time></trkpt><trkpt lat="44.7547183" lon="10.14495"><ele>116.99999999999999</ele><time>2026-04-04T14:40:17.977Z</time></trkpt><trkpt lat="44.7547217" lon="10.1451"><ele>117.0</ele><time>2026-04-04T14:40:18.977Z</time></trkpt><trkpt lat="44.75475" lon="10.1452867"><ele>117.0</ele><time>2026-04-04T14:40:19.977Z</time></trkpt><trkpt lat="44.75482" lon="10.1454767"><ele>115.75</ele><time>2026-04-04T14:40:20.977Z</time></trkpt><trkpt lat="44.75491" lon="10.1456617"><ele>114.5</ele><time>2026-04-04T14:40:21.977Z</time></trkpt><trkpt lat="44.7550217" lon="10.14581"><ele>113.25</ele><time>2026-04-04T14:40:22.977Z</time></trkpt><trkpt lat="44.7551117" lon="10.14593"><ele>112.0</ele><time>2026-04-04T14:40:23.978Z</time></trkpt><trkpt lat="44.755185" lon="10.146035"><ele>111.83333333333334</ele><time>2026-04-04T14:40:24.977Z</time></trkpt><trkpt lat="44.7552283" lon="10.14612"><ele>111.66666666666667</ele><time>2026-04-04T14:40:25.978Z</time></trkpt><trkpt lat="44.7552333" lon="10.14621"><ele>111.5</ele><time>2026-04-04T14:40:26.977Z</time></trkpt><trkpt lat="44.75521" lon="10.1463033"><ele>111.33333333333334</ele><time>2026-04-04T14:40:27.977Z</time></trkpt><trkpt lat="44.755165" lon="10.14642"><ele>111.16666666666667</ele><time>2026-04-04T14:40:28.977Z</time></trkpt><trkpt lat="44.7551117" lon="10.1465583"><ele>111.0</ele><time>2026-04-04T14:40:29.978Z</time></trkpt><trkpt lat="44.75507" lon="10.1467483"><ele>110.25</ele><time>2026-04-04T14:40:30.977Z</time></trkpt><trkpt lat="44.7550633" lon="10.1469517"><ele>109.5</ele><time>2026-04-04T14:40:31.977Z</time></trkpt><trkpt lat="44.7550817" lon="10.1471567"><ele>108.75</ele><time>2026-04-04T14:40:32.977Z</time></trkpt><trkpt lat="44.7550967" lon="10.1473383"><ele>108.0</ele><time>2026-04-04T14:40:33.977Z</time></trkpt><trkpt lat="44.7550917" lon="10.1475117"><ele>107.25</ele><time>2026-04-04T14:40:34.977Z</time></trkpt><trkpt lat="44.755075" lon="10.1476783"><ele>106.5</ele><time>2026-04-04T14:40:35.977Z</time></trkpt><trkpt lat="44.7550517" lon="10.1478267"><ele>105.75</ele><time>2026-04-04T14:40:36.977Z</time></trkpt><trkpt lat="44.755025" lon="10.1480133"><ele>105.0</ele><time>2026-04-04T14:40:37.977Z</time></trkpt><trkpt lat="44.755" lon="10.148225"><ele>104.0</ele><time>2026-04-04T14:40:38.977Z</time></trkpt><trkpt lat="44.755" lon="10.1484467"><ele>103.0</ele><time>2026-04-04T14:40:39.978Z</time></trkpt><trkpt lat="44.7550333" lon="10.148675"><ele>102.0</ele><time>2026-04-04T14:40:40.977Z</time></trkpt><trkpt lat="44.7550983" lon="10.1489133"><ele>102.0</ele><time>2026-04-04T14:40:41.978Z</time></trkpt><trkpt lat="44.75519" lon="10.1491583"><ele>102.0</ele><time>2026-04-04T14:40:42.977Z</time></trkpt><trkpt lat="44.7552983" lon="10.1493833"><ele>102.0</ele><time>2026-04-04T14:40:43.977Z</time></trkpt><trkpt lat="44.7554183" lon="10.14958"><ele>102.0</ele><time>2026-04-04T14:40:44.977Z</time></trkpt><trkpt lat="44.755515" lon="10.1497817"><ele>102.0</ele><time>2026-04-04T14:40:45.977Z</time></trkpt><trkpt lat="44.755585" lon="10.1499833"><ele>102.0</ele><time>2026-04-04T14:40:46.978Z</time></trkpt><trkpt lat="44.7556317" lon="10.1501567"><ele>102.0</ele><time>2026-04-04T14:40:47.978Z</time></trkpt><trkpt lat="44.75568" lon="10.1503083"><ele>102.0</ele><time>2026-04-04T14:40:48.978Z</time></trkpt><trkpt lat="44.7557683" lon="10.1504483"><ele>102.0</ele><time>2026-04-04T14:40:49.977Z</time></trkpt><trkpt lat="44.7558867" lon="10.150525"><ele>102.0</ele><time>2026-04-04T14:40:50.978Z</time></trkpt><trkpt lat="44.75604" lon="10.1505617"><ele>102.0</ele><time>2026-04-04T14:40:51.977Z</time></trkpt><trkpt lat="44.75621" lon="10.150595"><ele>102.0</ele><time>2026-04-04T14:40:52.977Z</time></trkpt><trkpt lat="44.756395" lon="10.1506667"><ele>102.0</ele><time>2026-04-04T14:40:53.977Z</time></trkpt><trkpt lat="44.756575" lon="10.1507517"><ele>102.0</ele><time>2026-04-04T14:40:54.978Z</time></trkpt><trkpt lat="44.7567633" lon="10.1508267"><ele>102.0</ele><time>2026-04-04T14:40:55.978Z</time></trkpt><trkpt lat="44.7569567" lon="10.1508967"><ele>102.0</ele><time>2026-04-04T14:40:56.977Z</time></trkpt><trkpt lat="44.7571517" lon="10.150955"><ele>101.66666666666666</ele><time>2026-04-04T14:40:57.977Z</time></trkpt><trkpt lat="44.7573467" lon="10.151015"><ele>101.33333333333333</ele><time>2026-04-04T14:40:58.977Z</time></trkpt><trkpt lat="44.757545" lon="10.1510817"><ele>101.0</ele><time>2026-04-04T14:40:59.977Z</time></trkpt><trkpt lat="44.7577433" lon="10.1511633"><ele>101.0</ele><time>2026-04-04T14:41:00.977Z</time></trkpt><trkpt lat="44.7579333" lon="10.1512617"><ele>101.0</ele><time>2026-04-04T14:41:01.977Z</time></trkpt><trkpt lat="44.7581267" lon="10.1513717"><ele>101.0</ele><time>2026-04-04T14:41:02.977Z</time></trkpt><trkpt lat="44.7582917" lon="10.1515133"><ele>100.66666666666666</ele><time>2026-04-04T14:41:03.978Z</time></trkpt><trkpt lat="44.7584417" lon="10.1516883"><ele>100.33333333333334</ele><time>2026-04-04T14:41:04.977Z</time></trkpt><trkpt lat="44.7585683" lon="10.1518833"><ele>100.0</ele><time>2026-04-04T14:41:05.977Z</time></trkpt><trkpt lat="44.7586967" lon="10.1520733"><ele>99.66666666666667</ele><time>2026-04-04T14:41:06.977Z</time></trkpt><trkpt lat="44.7588633" lon="10.1522283"><ele>99.33333333333334</ele><time>2026-04-04T14:41:07.978Z</time></trkpt><trkpt lat="44.7590333" lon="10.1523533"><ele>99.0</ele><time>2026-04-04T14:41:08.978Z</time></trkpt><trkpt lat="44.7592233" lon="10.152465"><ele>98.66666666666666</ele><time>2026-04-04T14:41:09.978Z</time></trkpt><trkpt lat="44.7594217" lon="10.1525833"><ele>98.33333333333333</ele><time>2026-04-04T14:41:10.977Z</time></trkpt><trkpt lat="44.7596267" lon="10.152705"><ele>98.0</ele><time>2026-04-04T14:41:11.977Z</time></trkpt><trkpt lat="44.7598333" lon="10.152835"><ele>98.0</ele><time>2026-04-04T14:41:12.977Z</time></trkpt><trkpt lat="44.760035" lon="10.1529933"><ele>98.0</ele><time>2026-04-04T14:41:13.977Z</time></trkpt><trkpt lat="44.7602217" lon="10.1531783"><ele>96.0</ele><time>2026-04-04T14:41:14.978Z</time></trkpt><trkpt lat="44.7604033" lon="10.153385"><ele>94.0</ele><time>2026-04-04T14:41:15.977Z</time></trkpt><trkpt lat="44.76058" lon="10.1536017"><ele>94.0</ele><time>2026-04-04T14:41:16.978Z</time></trkpt><trkpt lat="44.760765" lon="10.15381"><ele>94.0</ele><time>2026-04-04T14:41:17.978Z</time></trkpt><trkpt lat="44.7609433" lon="10.1540183"><ele>95.0</ele><time>2026-04-04T14:41:18.978Z</time></trkpt><trkpt lat="44.7611217" lon="10.1542283"><ele>96.0</ele><time>2026-04-04T14:41:19.978Z</time></trkpt><trkpt lat="44.7613" lon="10.154435"><ele>96.0</ele><time>2026-04-04T14:41:20.977Z</time></trkpt><trkpt lat="44.76147" lon="10.1546383"><ele>96.0</ele><time>2026-04-04T14:41:21.977Z</time></trkpt><trkpt lat="44.7616367" lon="10.1548417"><ele>96.0</ele><time>2026-04-04T14:41:22.977Z</time></trkpt><trkpt lat="44.761795" lon="10.1550283"><ele>96.33333333333334</ele><time>2026-04-04T14:41:23.977Z</time></trkpt><trkpt lat="44.7619383" lon="10.1552033"><ele>96.66666666666667</ele><time>2026-04-04T14:41:24.978Z</time></trkpt><trkpt lat="44.7620767" lon="10.1553617"><ele>97.0</ele><time>2026-04-04T14:41:25.977Z</time></trkpt><trkpt lat="44.7622083" lon="10.1555167"><ele>97.0</ele><time>2026-04-04T14:41:26.977Z</time></trkpt><trkpt lat="44.762345" lon="10.1556733"><ele>97.0</ele><time>2026-04-04T14:41:27.977Z</time></trkpt><trkpt lat="44.7624883" lon="10.1558333"><ele>97.0</ele><time>2026-04-04T14:41:28.977Z</time></trkpt><trkpt lat="44.7626233" lon="10.1559983"><ele>97.0</ele><time>2026-04-04T14:41:29.978Z</time></trkpt><trkpt lat="44.7627533" lon="10.1561517"><ele>97.0</ele><time>2026-04-04T14:41:30.977Z</time></trkpt><trkpt lat="44.76289" lon="10.1563017"><ele>97.0</ele><time>2026-04-04T14:41:31.977Z</time></trkpt><trkpt lat="44.7630233" lon="10.1564667"><ele>96.0</ele><time>2026-04-04T14:41:32.977Z</time></trkpt><trkpt lat="44.7631283" lon="10.1566433"><ele>95.0</ele><time>2026-04-04T14:41:33.977Z</time></trkpt><trkpt lat="44.763215" lon="10.15686"><ele>94.0</ele><time>2026-04-04T14:41:34.977Z</time></trkpt><trkpt lat="44.763285" lon="10.157105"><ele>94.0</ele><time>2026-04-04T14:41:35.977Z</time></trkpt><trkpt lat="44.7633367" lon="10.1573667"><ele>94.0</ele><time>2026-04-04T14:41:36.978Z</time></trkpt><trkpt lat="44.763375" lon="10.15765"><ele>94.0</ele><time>2026-04-04T14:41:37.978Z</time></trkpt><trkpt lat="44.7634133" lon="10.15795"><ele>93.33333333333333</ele><time>2026-04-04T14:41:38.978Z</time></trkpt><trkpt lat="44.7634483" lon="10.1582517"><ele>92.66666666666667</ele><time>2026-04-04T14:41:39.978Z</time></trkpt><trkpt lat="44.76348" lon="10.158545"><ele>92.0</ele><time>2026-04-04T14:41:40.977Z</time></trkpt><trkpt lat="44.7635167" lon="10.15884"><ele>91.66666666666667</ele><time>2026-04-04T14:41:41.977Z</time></trkpt><trkpt lat="44.7635617" lon="10.159145"><ele>91.33333333333333</ele><time>2026-04-04T14:41:42.977Z</time></trkpt><trkpt lat="44.7636" lon="10.1594617"><ele>91.0</ele><time>2026-04-04T14:41:43.977Z</time></trkpt><trkpt lat="44.7636317" lon="10.15976"><ele>92.33333333333333</ele><time>2026-04-04T14:41:44.977Z</time></trkpt><trkpt lat="44.7636467" lon="10.16004"><ele>93.66666666666667</ele><time>2026-04-04T14:41:45.977Z</time></trkpt><trkpt lat="44.7636683" lon="10.1603167"><ele>95.0</ele><time>2026-04-04T14:41:46.977Z</time></trkpt><trkpt lat="44.7637133" lon="10.1605967"><ele>94.66666666666667</ele><time>2026-04-04T14:41:47.977Z</time></trkpt><trkpt lat="44.7637867" lon="10.160875"><ele>94.33333333333333</ele><time>2026-04-04T14:41:48.978Z</time></trkpt><trkpt lat="44.7638833" lon="10.1611333"><ele>94.0</ele><time>2026-04-04T14:41:49.977Z</time></trkpt><trkpt lat="44.763995" lon="10.1613783"><ele>92.66666666666666</ele><time>2026-04-04T14:41:50.978Z</time></trkpt><trkpt lat="44.7641283" lon="10.16161"><ele>91.33333333333333</ele><time>2026-04-04T14:41:51.978Z</time></trkpt><trkpt lat="44.7642867" lon="10.1618367"><ele>90.0</ele><time>2026-04-04T14:41:52.977Z</time></trkpt><trkpt lat="44.764445" lon="10.162065"><ele>90.0</ele><time>2026-04-04T14:41:53.978Z</time></trkpt><trkpt lat="44.7646033" lon="10.162295"><ele>90.0</ele><time>2026-04-04T14:41:54.977Z</time></trkpt><trkpt lat="44.7647667" lon="10.1625183"><ele>89.0</ele><time>2026-04-04T14:41:55.977Z</time></trkpt><trkpt lat="44.7649233" lon="10.162745"><ele>88.0</ele><time>2026-04-04T14:41:56.977Z</time></trkpt><trkpt lat="44.7650867" lon="10.162965"><ele>87.5</ele><time>2026-04-04T14:41:57.977Z</time></trkpt><trkpt lat="44.7652417" lon="10.1631933"><ele>87.0</ele><time>2026-04-04T14:41:58.977Z</time></trkpt><trkpt lat="44.7653983" lon="10.163425"><ele>87.0</ele><time>2026-04-04T14:41:59.977Z</time></trkpt><trkpt lat="44.765555" lon="10.16365"><ele>87.0</ele><time>2026-04-04T14:42:00.977Z</time></trkpt><trkpt lat="44.7657133" lon="10.1638767"><ele>87.0</ele><time>2026-04-04T14:42:01.977Z</time></trkpt><trkpt lat="44.7658683" lon="10.1641083"><ele>87.0</ele><time>2026-04-04T14:42:02.977Z</time></trkpt><trkpt lat="44.7660183" lon="10.16434"><ele>87.0</ele><time>2026-04-04T14:42:03.977Z</time></trkpt><trkpt lat="44.7661767" lon="10.16457"><ele>87.0</ele><time>2026-04-04T14:42:04.978Z</time></trkpt><trkpt lat="44.7663333" lon="10.1648"><ele>87.0</ele><time>2026-04-04T14:42:05.977Z</time></trkpt><trkpt lat="44.7664917" lon="10.1650283"><ele>88.0</ele><time>2026-04-04T14:42:06.977Z</time></trkpt><trkpt lat="44.766645" lon="10.16526"><ele>89.0</ele><time>2026-04-04T14:42:07.977Z</time></trkpt><trkpt lat="44.7668033" lon="10.1654967"><ele>88.5</ele><time>2026-04-04T14:42:08.977Z</time></trkpt><trkpt lat="44.76696" lon="10.1657333"><ele>88.0</ele><time>2026-04-04T14:42:09.977Z</time></trkpt><trkpt lat="44.767115" lon="10.1659633"><ele>88.0</ele><time>2026-04-04T14:42:10.977Z</time></trkpt><trkpt lat="44.7672717" lon="10.16619"><ele>88.0</ele><time>2026-04-04T14:42:11.978Z</time></trkpt><trkpt lat="44.7674267" lon="10.1664233"><ele>88.33333333333333</ele><time>2026-04-04T14:42:12.977Z</time></trkpt><trkpt lat="44.7675767" lon="10.1666567"><ele>88.66666666666667</ele><time>2026-04-04T14:42:13.978Z</time></trkpt><trkpt lat="44.7677267" lon="10.16689"><ele>89.0</ele><time>2026-04-04T14:42:14.977Z</time></trkpt><trkpt lat="44.7678717" lon="10.167115"><ele>89.33333333333334</ele><time>2026-04-04T14:42:15.977Z</time></trkpt><trkpt lat="44.76802" lon="10.1673383"><ele>89.66666666666667</ele><time>2026-04-04T14:42:16.978Z</time></trkpt><trkpt lat="44.7681667" lon="10.1675467"><ele>90.0</ele><time>2026-04-04T14:42:17.978Z</time></trkpt><trkpt lat="44.7683167" lon="10.1677567"><ele>89.33333333333333</ele><time>2026-04-04T14:42:18.978Z</time></trkpt><trkpt lat="44.7684817" lon="10.1679533"><ele>88.66666666666666</ele><time>2026-04-04T14:42:19.978Z</time></trkpt><trkpt lat="44.7686533" lon="10.1681367"><ele>88.0</ele><time>2026-04-04T14:42:20.977Z</time></trkpt><trkpt lat="44.7688183" lon="10.168315"><ele>87.66666666666666</ele><time>2026-04-04T14:42:21.977Z</time></trkpt><trkpt lat="44.768975" lon="10.1684833"><ele>87.33333333333333</ele><time>2026-04-04T14:42:22.978Z</time></trkpt><trkpt lat="44.7691267" lon="10.1686417"><ele>87.0</ele><time>2026-04-04T14:42:23.977Z</time></trkpt><trkpt lat="44.76927" lon="10.1687933"><ele>86.0</ele><time>2026-04-04T14:42:24.977Z</time></trkpt><trkpt lat="44.7694083" lon="10.16893"><ele>85.0</ele><time>2026-04-04T14:42:25.977Z</time></trkpt><trkpt lat="44.7695367" lon="10.1690633"><ele>84.0</ele><time>2026-04-04T14:42:26.978Z</time></trkpt><trkpt lat="44.76966" lon="10.1691883"><ele>84.0</ele><time>2026-04-04T14:42:27.978Z</time></trkpt><trkpt lat="44.7697817" lon="10.1692733"><ele>84.0</ele><time>2026-04-04T14:42:28.977Z</time></trkpt><trkpt lat="44.7699083" lon="10.16933"><ele>84.0</ele><time>2026-04-04T14:42:29.977Z</time></trkpt><trkpt lat="44.7700267" lon="10.16937"><ele>84.0</ele><time>2026-04-04T14:42:30.977Z</time></trkpt><trkpt lat="44.7701367" lon="10.169415"><ele>84.0</ele><time>2026-04-04T14:42:31.977Z</time></trkpt><trkpt lat="44.77024" lon="10.169465"><ele>84.0</ele><time>2026-04-04T14:42:32.978Z</time></trkpt><trkpt lat="44.7703167" lon="10.1695483"><ele>84.0</ele><time>2026-04-04T14:42:33.977Z</time></trkpt><trkpt lat="44.7703583" lon="10.1696517"><ele>84.0</ele><time>2026-04-04T14:42:34.977Z</time></trkpt><trkpt lat="44.7703533" lon="10.1697683"><ele>84.0</ele><time>2026-04-04T14:42:35.977Z</time></trkpt><trkpt lat="44.7703017" lon="10.1699233"><ele>84.5</ele><time>2026-04-04T14:42:36.977Z</time></trkpt><trkpt lat="44.770215" lon="10.1700833"><ele>85.0</ele><time>2026-04-04T14:42:37.978Z</time></trkpt><trkpt lat="44.7701133" lon="10.1702383"><ele>85.5</ele><time>2026-04-04T14:42:38.977Z</time></trkpt><trkpt lat="44.7700117" lon="10.170405"><ele>86.0</ele><time>2026-04-04T14:42:39.977Z</time></trkpt><trkpt lat="44.7699017" lon="10.1705867"><ele>86.33333333333334</ele><time>2026-04-04T14:42:40.977Z</time></trkpt><trkpt lat="44.76979" lon="10.1707783"><ele>86.66666666666667</ele><time>2026-04-04T14:42:41.978Z</time></trkpt><trkpt lat="44.76967" lon="10.170975"><ele>87.0</ele><time>2026-04-04T14:42:42.977Z</time></trkpt><trkpt lat="44.7695433" lon="10.1711767"><ele>87.0</ele><time>2026-04-04T14:42:43.978Z</time></trkpt><trkpt lat="44.769425" lon="10.1713883"><ele>87.0</ele><time>2026-04-04T14:42:44.977Z</time></trkpt><trkpt lat="44.7693033" lon="10.1716067"><ele>87.0</ele><time>2026-04-04T14:42:45.977Z</time></trkpt><trkpt lat="44.769185" lon="10.1718267"><ele>86.33333333333333</ele><time>2026-04-04T14:42:46.977Z</time></trkpt><trkpt lat="44.76906" lon="10.1720567"><ele>85.66666666666666</ele><time>2026-04-04T14:42:47.977Z</time></trkpt><trkpt lat="44.7689417" lon="10.1722933"><ele>85.0</ele><time>2026-04-04T14:42:48.977Z</time></trkpt><trkpt lat="44.7688283" lon="10.1725317"><ele>85.0</ele><time>2026-04-04T14:42:49.977Z</time></trkpt><trkpt lat="44.7687133" lon="10.1727733"><ele>85.0</ele><time>2026-04-04T14:42:50.978Z</time></trkpt><trkpt lat="44.7685933" lon="10.17302"><ele>85.0</ele><time>2026-04-04T14:42:51.977Z</time></trkpt><trkpt lat="44.7684733" lon="10.17327"><ele>84.0</ele><time>2026-04-04T14:42:52.978Z</time></trkpt><trkpt lat="44.7683633" lon="10.1735267"><ele>83.0</ele><time>2026-04-04T14:42:53.977Z</time></trkpt><trkpt lat="44.7682533" lon="10.1737917"><ele>82.0</ele><time>2026-04-04T14:42:54.977Z</time></trkpt><trkpt lat="44.76814" lon="10.1740683"><ele>82.0</ele><time>2026-04-04T14:42:55.977Z</time></trkpt><trkpt lat="44.7680317" lon="10.1743367"><ele>82.0</ele><time>2026-04-04T14:42:56.978Z</time></trkpt><trkpt lat="44.7679267" lon="10.174605"><ele>82.0</ele><time>2026-04-04T14:42:57.978Z</time></trkpt><trkpt lat="44.76783" lon="10.1748833"><ele>82.66666666666666</ele><time>2026-04-04T14:42:58.977Z</time></trkpt><trkpt lat="44.7677333" lon="10.175165"><ele>83.33333333333333</ele><time>2026-04-04T14:42:59.978Z</time></trkpt><trkpt lat="44.767635" lon="10.1754483"><ele>84.0</ele><time>2026-04-04T14:43:00.977Z</time></trkpt><trkpt lat="44.7675367" lon="10.175725"><ele>84.33333333333333</ele><time>2026-04-04T14:43:01.977Z</time></trkpt><trkpt lat="44.76744" lon="10.176"><ele>84.66666666666666</ele><time>2026-04-04T14:43:02.977Z</time></trkpt><trkpt lat="44.7673467" lon="10.176285"><ele>85.0</ele><time>2026-04-04T14:43:03.977Z</time></trkpt><trkpt lat="44.7672567" lon="10.1765817"><ele>85.5</ele><time>2026-04-04T14:43:04.977Z</time></trkpt><trkpt lat="44.767165" lon="10.1768767"><ele>86.0</ele><time>2026-04-04T14:43:05.977Z</time></trkpt><trkpt lat="44.7670717" lon="10.1771667"><ele>85.5</ele><time>2026-04-04T14:43:06.977Z</time></trkpt><trkpt lat="44.76697" lon="10.17746"><ele>85.0</ele><time>2026-04-04T14:43:07.977Z</time></trkpt><trkpt lat="44.7668683" lon="10.1777517"><ele>85.0</ele><time>2026-04-04T14:43:08.977Z</time></trkpt><trkpt lat="44.7667717" lon="10.1780517"><ele>85.0</ele><time>2026-04-04T14:43:09.978Z</time></trkpt><trkpt lat="44.7666733" lon="10.1783583"><ele>85.5</ele><time>2026-04-04T14:43:10.977Z</time></trkpt><trkpt lat="44.76658" lon="10.178665"><ele>86.0</ele><time>2026-04-04T14:43:11.978Z</time></trkpt><trkpt lat="44.766475" lon="10.1789567"><ele>84.5</ele><time>2026-04-04T14:43:12.978Z</time></trkpt><trkpt lat="44.7663783" lon="10.1792467"><ele>83.0</ele><time>2026-04-04T14:43:13.978Z</time></trkpt><trkpt lat="44.7662767" lon="10.1795533"><ele>82.5</ele><time>2026-04-04T14:43:14.977Z</time></trkpt><trkpt lat="44.7661767" lon="10.1798567"><ele>82.0</ele><time>2026-04-04T14:43:15.977Z</time></trkpt><trkpt lat="44.766085" lon="10.1801567"><ele>82.0</ele><time>2026-04-04T14:43:16.977Z</time></trkpt><trkpt lat="44.7659833" lon="10.180475"><ele>82.0</ele><time>2026-04-04T14:43:17.978Z</time></trkpt><trkpt lat="44.765885" lon="10.18078"><ele>81.5</ele><time>2026-04-04T14:43:18.977Z</time></trkpt><trkpt lat="44.76579" lon="10.1810817"><ele>81.0</ele><time>2026-04-04T14:43:19.977Z</time></trkpt><trkpt lat="44.7656917" lon="10.181385"><ele>81.0</ele><time>2026-04-04T14:43:20.977Z</time></trkpt><trkpt lat="44.7655967" lon="10.1817"><ele>81.0</ele><time>2026-04-04T14:43:21.977Z</time></trkpt><trkpt lat="44.7655" lon="10.1820017"><ele>81.0</ele><time>2026-04-04T14:43:22.978Z</time></trkpt><trkpt lat="44.7653967" lon="10.182305"><ele>81.0</ele><time>2026-04-04T14:43:23.977Z</time></trkpt><trkpt lat="44.7652967" lon="10.182605"><ele>81.5</ele><time>2026-04-04T14:43:24.977Z</time></trkpt><trkpt lat="44.7652" lon="10.1829"><ele>82.0</ele><time>2026-04-04T14:43:25.977Z</time></trkpt><trkpt lat="44.7650983" lon="10.1832033"><ele>82.0</ele><time>2026-04-04T14:43:26.977Z</time></trkpt><trkpt lat="44.7650033" lon="10.1835117"><ele>82.0</ele><time>2026-04-04T14:43:27.977Z</time></trkpt><trkpt lat="44.764905" lon="10.183805"><ele>83.0</ele><time>2026-04-04T14:43:28.978Z</time></trkpt><trkpt lat="44.764805" lon="10.1841017"><ele>84.0</ele><time>2026-04-04T14:43:29.977Z</time></trkpt><trkpt lat="44.7647083" lon="10.184395"><ele>84.0</ele><time>2026-04-04T14:43:30.978Z</time></trkpt><trkpt lat="44.7646133" lon="10.1847017"><ele>84.0</ele><time>2026-04-04T14:43:31.977Z</time></trkpt><trkpt lat="44.7645233" lon="10.1850117"><ele>85.5</ele><time>2026-04-04T14:43:32.977Z</time></trkpt><trkpt lat="44.76443" lon="10.1853117"><ele>87.0</ele><time>2026-04-04T14:43:33.977Z</time></trkpt><trkpt lat="44.7643367" lon="10.18561"><ele>89.5</ele><time>2026-04-04T14:43:34.977Z</time></trkpt><trkpt lat="44.7642433" lon="10.1858917"><ele>92.0</ele><time>2026-04-04T14:43:35.978Z</time></trkpt><trkpt lat="44.76415" lon="10.1861967"><ele>92.0</ele><time>2026-04-04T14:43:36.977Z</time></trkpt><trkpt lat="44.7640567" lon="10.1865"><ele>92.0</ele><time>2026-04-04T14:43:37.977Z</time></trkpt><trkpt lat="44.7639533" lon="10.1867933"><ele>92.0</ele><time>2026-04-04T14:43:38.977Z</time></trkpt><trkpt lat="44.7638567" lon="10.1870817"><ele>92.0</ele><time>2026-04-04T14:43:39.977Z</time></trkpt><trkpt lat="44.7637617" lon="10.1873733"><ele>91.5</ele><time>2026-04-04T14:43:40.977Z</time></trkpt><trkpt lat="44.7636583" lon="10.1876667"><ele>91.0</ele><time>2026-04-04T14:43:41.978Z</time></trkpt><trkpt lat="44.76356" lon="10.18797"><ele>90.0</ele><time>2026-04-04T14:43:42.977Z</time></trkpt><trkpt lat="44.763465" lon="10.1882633"><ele>89.0</ele><time>2026-04-04T14:43:43.977Z</time></trkpt><trkpt lat="44.76336" lon="10.18856"><ele>89.0</ele><time>2026-04-04T14:43:44.977Z</time></trkpt><trkpt lat="44.7632567" lon="10.1888567"><ele>89.0</ele><time>2026-04-04T14:43:45.978Z</time></trkpt><trkpt lat="44.763155" lon="10.1891667"><ele>88.0</ele><time>2026-04-04T14:43:46.978Z</time></trkpt><trkpt lat="44.7630533" lon="10.18946"><ele>87.0</ele><time>2026-04-04T14:43:47.977Z</time></trkpt><trkpt lat="44.7629567" lon="10.1897717"><ele>87.0</ele><time>2026-04-04T14:43:48.978Z</time></trkpt><trkpt lat="44.7628617" lon="10.1900667"><ele>87.0</ele><time>2026-04-04T14:43:49.977Z</time></trkpt><trkpt lat="44.762765" lon="10.1903667"><ele>87.0</ele><time>2026-04-04T14:43:50.977Z</time></trkpt><trkpt lat="44.76266" lon="10.190665"><ele>87.0</ele><time>2026-04-04T14:43:51.977Z</time></trkpt><trkpt lat="44.7625617" lon="10.1909617"><ele>89.0</ele><time>2026-04-04T14:43:52.977Z</time></trkpt><trkpt lat="44.7624667" lon="10.19126"><ele>91.0</ele><time>2026-04-04T14:43:53.978Z</time></trkpt><trkpt lat="44.7623733" lon="10.1915667"><ele>91.0</ele><time>2026-04-04T14:43:54.977Z</time></trkpt><trkpt lat="44.762285" lon="10.191875"><ele>91.0</ele><time>2026-04-04T14:43:55.977Z</time></trkpt><trkpt lat="44.7621883" lon="10.192185"><ele>90.5</ele><time>2026-04-04T14:43:56.978Z</time></trkpt><trkpt lat="44.7620933" lon="10.1924883"><ele>90.0</ele><time>2026-04-04T14:43:57.977Z</time></trkpt><trkpt lat="44.761995" lon="10.1927867"><ele>90.0</ele><time>2026-04-04T14:43:58.977Z</time></trkpt><trkpt lat="44.7618933" lon="10.1930883"><ele>90.0</ele><time>2026-04-04T14:43:59.977Z</time></trkpt><trkpt lat="44.7617967" lon="10.1933783"><ele>90.66666666666667</ele><time>2026-04-04T14:44:00.978Z</time></trkpt><trkpt lat="44.76171" lon="10.1936733"><ele>91.33333333333334</ele><time>2026-04-04T14:44:01.977Z</time></trkpt><trkpt lat="44.76162" lon="10.19396"><ele>92.0</ele><time>2026-04-04T14:44:02.978Z</time></trkpt><trkpt lat="44.7615217" lon="10.1942483"><ele>92.0</ele><time>2026-04-04T14:44:03.978Z</time></trkpt><trkpt lat="44.7614333" lon="10.1945333"><ele>92.0</ele><time>2026-04-04T14:44:04.978Z</time></trkpt><trkpt lat="44.7613417" lon="10.1948167"><ele>92.0</ele><time>2026-04-04T14:44:05.977Z</time></trkpt><trkpt lat="44.761255" lon="10.1950967"><ele>92.0</ele><time>2026-04-04T14:44:06.977Z</time></trkpt><trkpt lat="44.76116" lon="10.1953767"><ele>92.0</ele><time>2026-04-04T14:44:07.977Z</time></trkpt><trkpt lat="44.7610683" lon="10.1956483"><ele>92.0</ele><time>2026-04-04T14:44:08.977Z</time></trkpt><trkpt lat="44.760975" lon="10.19593"><ele>92.33333333333334</ele><time>2026-04-04T14:44:09.977Z</time></trkpt><trkpt lat="44.76089" lon="10.19622"><ele>92.66666666666667</ele><time>2026-04-04T14:44:10.977Z</time></trkpt><trkpt lat="44.760805" lon="10.1965083"><ele>93.0</ele><time>2026-04-04T14:44:11.977Z</time></trkpt><trkpt lat="44.76072" lon="10.1967983"><ele>93.66666666666667</ele><time>2026-04-04T14:44:12.977Z</time></trkpt><trkpt lat="44.7606383" lon="10.1970867"><ele>94.33333333333334</ele><time>2026-04-04T14:44:13.977Z</time></trkpt><trkpt lat="44.7605583" lon="10.1973767"><ele>95.0</ele><time>2026-04-04T14:44:14.978Z</time></trkpt><trkpt lat="44.7604783" lon="10.1976717"><ele>95.66666666666667</ele><time>2026-04-04T14:44:15.978Z</time></trkpt><trkpt lat="44.7604033" lon="10.197965"><ele>96.33333333333334</ele><time>2026-04-04T14:44:16.977Z</time></trkpt><trkpt lat="44.76033" lon="10.1982567"><ele>97.0</ele><time>2026-04-04T14:44:17.978Z</time></trkpt><trkpt lat="44.7602633" lon="10.1985517"><ele>97.33333333333334</ele><time>2026-04-04T14:44:18.978Z</time></trkpt><trkpt lat="44.76019" lon="10.198845"><ele>97.66666666666666</ele><time>2026-04-04T14:44:19.977Z</time></trkpt><trkpt lat="44.7601117" lon="10.1991267"><ele>98.0</ele><time>2026-04-04T14:44:20.978Z</time></trkpt><trkpt lat="44.76004" lon="10.1994083"><ele>97.33333333333333</ele><time>2026-04-04T14:44:21.977Z</time></trkpt><trkpt lat="44.75997" lon="10.199675"><ele>96.66666666666666</ele><time>2026-04-04T14:44:22.978Z</time></trkpt><trkpt lat="44.7598983" lon="10.1999567"><ele>96.0</ele><time>2026-04-04T14:44:23.978Z</time></trkpt><trkpt lat="44.759825" lon="10.2002233"><ele>96.0</ele><time>2026-04-04T14:44:24.978Z</time></trkpt><trkpt lat="44.7597517" lon="10.2004933"><ele>96.0</ele><time>2026-04-04T14:44:25.978Z</time></trkpt><trkpt lat="44.7596833" lon="10.2007583"><ele>96.0</ele><time>2026-04-04T14:44:26.977Z</time></trkpt><trkpt lat="44.7596167" lon="10.2010283"><ele>96.33333333333334</ele><time>2026-04-04T14:44:27.977Z</time></trkpt><trkpt lat="44.7595533" lon="10.2012933"><ele>96.66666666666667</ele><time>2026-04-04T14:44:28.977Z</time></trkpt><trkpt lat="44.759495" lon="10.20154"><ele>97.0</ele><time>2026-04-04T14:44:29.977Z</time></trkpt><trkpt lat="44.7594333" lon="10.2017833"><ele>97.0</ele><time>2026-04-04T14:44:30.977Z</time></trkpt><trkpt lat="44.7593733" lon="10.2020067"><ele>97.0</ele><time>2026-04-04T14:44:31.977Z</time></trkpt><trkpt lat="44.759315" lon="10.2022133"><ele>97.0</ele><time>2026-04-04T14:44:32.977Z</time></trkpt><trkpt lat="44.7592583" lon="10.202405"><ele>97.5</ele><time>2026-04-04T14:44:33.977Z</time></trkpt><trkpt lat="44.7591983" lon="10.2025767"><ele>98.0</ele><time>2026-04-04T14:44:34.978Z</time></trkpt><trkpt lat="44.7591433" lon="10.2027183"><ele>98.5</ele><time>2026-04-04T14:44:35.977Z</time></trkpt><trkpt lat="44.7590767" lon="10.202835"><ele>99.0</ele><time>2026-04-04T14:44:36.977Z</time></trkpt><trkpt lat="44.7589983" lon="10.2029433"><ele>99.0</ele><time>2026-04-04T14:44:37.978Z</time></trkpt><trkpt lat="44.7588917" lon="10.2030317"><ele>99.0</ele><time>2026-04-04T14:44:38.977Z</time></trkpt><trkpt lat="44.7587867" lon="10.20312"><ele>99.0</ele><time>2026-04-04T14:44:39.978Z</time></trkpt><trkpt lat="44.7586833" lon="10.2032167"><ele>99.0</ele><time>2026-04-04T14:44:40.977Z</time></trkpt><trkpt lat="44.758605" lon="10.2033467"><ele>99.25</ele><time>2026-04-04T14:44:41.977Z</time></trkpt><trkpt lat="44.7585583" lon="10.203505"><ele>99.5</ele><time>2026-04-04T14:44:42.977Z</time></trkpt><trkpt lat="44.7585567" lon="10.2036767"><ele>99.75</ele><time>2026-04-04T14:44:43.978Z</time></trkpt><trkpt lat="44.75859" lon="10.20385"><ele>100.0</ele><time>2026-04-04T14:44:44.977Z</time></trkpt><trkpt lat="44.7586667" lon="10.2040133"><ele>100.0</ele><time>2026-04-04T14:44:45.977Z</time></trkpt><trkpt lat="44.75878" lon="10.2041467"><ele>100.0</ele><time>2026-04-04T14:44:46.978Z</time></trkpt><trkpt lat="44.758915" lon="10.204255"><ele>100.0</ele><time>2026-04-04T14:44:47.978Z</time></trkpt><trkpt lat="44.759055" lon="10.204365"><ele>100.0</ele><time>2026-04-04T14:44:48.977Z</time></trkpt><trkpt lat="44.7591733" lon="10.20454"><ele>100.0</ele><time>2026-04-04T14:44:49.977Z</time></trkpt><trkpt lat="44.7592567" lon="10.2047667"><ele>100.0</ele><time>2026-04-04T14:44:50.977Z</time></trkpt><trkpt lat="44.7593233" lon="10.2050317"><ele>99.0</ele><time>2026-04-04T14:44:51.977Z</time></trkpt><trkpt lat="44.759395" lon="10.2053017"><ele>98.0</ele><time>2026-04-04T14:44:52.978Z</time></trkpt><trkpt lat="44.75946" lon="10.2055717"><ele>97.0</ele><time>2026-04-04T14:44:53.978Z</time></trkpt><trkpt lat="44.759515" lon="10.205875"><ele>96.66666666666667</ele><time>2026-04-04T14:44:54.978Z</time></trkpt><trkpt lat="44.7595517" lon="10.2061733"><ele>96.33333333333334</ele><time>2026-04-04T14:44:55.977Z</time></trkpt><trkpt lat="44.7595767" lon="10.206475"><ele>96.0</ele><time>2026-04-04T14:44:56.977Z</time></trkpt><trkpt lat="44.7595883" lon="10.2067833"><ele>96.0</ele><time>2026-04-04T14:44:57.977Z</time></trkpt><trkpt lat="44.75958" lon="10.2070783"><ele>96.0</ele><time>2026-04-04T14:44:58.977Z</time></trkpt><trkpt lat="44.7595517" lon="10.207365"><ele>96.0</ele><time>2026-04-04T14:44:59.978Z</time></trkpt><trkpt lat="44.75951" lon="10.2076483"><ele>97.0</ele><time>2026-04-04T14:45:00.978Z</time></trkpt><trkpt lat="44.759455" lon="10.2079133"><ele>98.0</ele><time>2026-04-04T14:45:01.977Z</time></trkpt><trkpt lat="44.7593917" lon="10.2081717"><ele>99.0</ele><time>2026-04-04T14:45:02.978Z</time></trkpt><trkpt lat="44.75932" lon="10.2084183"><ele>99.0</ele><time>2026-04-04T14:45:03.977Z</time></trkpt><trkpt lat="44.7592367" lon="10.20865"><ele>99.0</ele><time>2026-04-04T14:45:04.977Z</time></trkpt><trkpt lat="44.7591567" lon="10.2088783"><ele>99.0</ele><time>2026-04-04T14:45:05.977Z</time></trkpt><trkpt lat="44.7590783" lon="10.2090833"><ele>100.0</ele><time>2026-04-04T14:45:06.978Z</time></trkpt><trkpt lat="44.7589967" lon="10.2092917"><ele>101.0</ele><time>2026-04-04T14:45:07.977Z</time></trkpt><trkpt lat="44.7589217" lon="10.20949"><ele>102.0</ele><time>2026-04-04T14:45:08.977Z</time></trkpt><trkpt lat="44.758845" lon="10.2096917"><ele>101.66666666666666</ele><time>2026-04-04T14:45:09.978Z</time></trkpt><trkpt lat="44.7587683" lon="10.2098933"><ele>101.33333333333333</ele><time>2026-04-04T14:45:10.978Z</time></trkpt><trkpt lat="44.7586917" lon="10.2100933"><ele>101.0</ele><time>2026-04-04T14:45:11.977Z</time></trkpt><trkpt lat="44.7586133" lon="10.210305"><ele>102.33333333333333</ele><time>2026-04-04T14:45:12.978Z</time></trkpt><trkpt lat="44.75853" lon="10.2105067"><ele>103.66666666666666</ele><time>2026-04-04T14:45:13.977Z</time></trkpt><trkpt lat="44.7584533" lon="10.2107033"><ele>105.0</ele><time>2026-04-04T14:45:14.978Z</time></trkpt><trkpt lat="44.7583683" lon="10.2109033"><ele>105.33333333333334</ele><time>2026-04-04T14:45:15.977Z</time></trkpt><trkpt lat="44.758285" lon="10.211105"><ele>105.66666666666667</ele><time>2026-04-04T14:45:16.978Z</time></trkpt><trkpt lat="44.7581983" lon="10.2113167"><ele>106.0</ele><time>2026-04-04T14:45:17.978Z</time></trkpt><trkpt lat="44.7581183" lon="10.2115267"><ele>105.33333333333334</ele><time>2026-04-04T14:45:18.978Z</time></trkpt><trkpt lat="44.7580367" lon="10.211735"><ele>104.66666666666666</ele><time>2026-04-04T14:45:19.978Z</time></trkpt><trkpt lat="44.7579533" lon="10.211945"><ele>104.0</ele><time>2026-04-04T14:45:20.978Z</time></trkpt><trkpt lat="44.7578767" lon="10.2121517"><ele>103.66666666666666</ele><time>2026-04-04T14:45:21.977Z</time></trkpt><trkpt lat="44.7577967" lon="10.2123767"><ele>103.33333333333334</ele><time>2026-04-04T14:45:22.978Z</time></trkpt><trkpt lat="44.7577267" lon="10.2125983"><ele>103.0</ele><time>2026-04-04T14:45:23.977Z</time></trkpt><trkpt lat="44.7576633" lon="10.2128433"><ele>103.0</ele><time>2026-04-04T14:45:24.977Z</time></trkpt><trkpt lat="44.7576033" lon="10.2130833"><ele>103.0</ele><time>2026-04-04T14:45:25.977Z</time></trkpt><trkpt lat="44.7575483" lon="10.21332"><ele>103.0</ele><time>2026-04-04T14:45:26.977Z</time></trkpt><trkpt lat="44.7574983" lon="10.2135517"><ele>103.66666666666667</ele><time>2026-04-04T14:45:27.977Z</time></trkpt><trkpt lat="44.757455" lon="10.21378"><ele>104.33333333333334</ele><time>2026-04-04T14:45:28.977Z</time></trkpt><trkpt lat="44.7574217" lon="10.2140167"><ele>105.0</ele><time>2026-04-04T14:45:29.977Z</time></trkpt><trkpt lat="44.75739" lon="10.214255"><ele>105.66666666666666</ele><time>2026-04-04T14:45:30.978Z</time></trkpt><trkpt lat="44.7573667" lon="10.214515"><ele>106.33333333333333</ele><time>2026-04-04T14:45:31.978Z</time></trkpt><trkpt lat="44.757345" lon="10.2147933"><ele>107.0</ele><time>2026-04-04T14:45:32.977Z</time></trkpt><trkpt lat="44.7573267" lon="10.2150767"><ele>107.0</ele><time>2026-04-04T14:45:33.977Z</time></trkpt><trkpt lat="44.757305" lon="10.2153667"><ele>107.0</ele><time>2026-04-04T14:45:34.978Z</time></trkpt><trkpt lat="44.7572817" lon="10.2156683"><ele>107.0</ele><time>2026-04-04T14:45:35.977Z</time></trkpt><trkpt lat="44.7572583" lon="10.2159783"><ele>107.33333333333333</ele><time>2026-04-04T14:45:36.977Z</time></trkpt><trkpt lat="44.7572317" lon="10.2162917"><ele>107.66666666666666</ele><time>2026-04-04T14:45:37.977Z</time></trkpt><trkpt lat="44.7572183" lon="10.2165983"><ele>108.0</ele><time>2026-04-04T14:45:38.978Z</time></trkpt><trkpt lat="44.7572133" lon="10.2168717"><ele>107.33333333333334</ele><time>2026-04-04T14:45:39.977Z</time></trkpt><trkpt lat="44.7572183" lon="10.2171217"><ele>106.66666666666667</ele><time>2026-04-04T14:45:40.977Z</time></trkpt><trkpt lat="44.757235" lon="10.21737"><ele>106.0</ele><time>2026-04-04T14:45:41.977Z</time></trkpt><trkpt lat="44.7572567" lon="10.21762"><ele>106.0</ele><time>2026-04-04T14:45:42.978Z</time></trkpt><trkpt lat="44.7572833" lon="10.21788"><ele>106.0</ele><time>2026-04-04T14:45:43.978Z</time></trkpt><trkpt lat="44.7573217" lon="10.2181683"><ele>106.0</ele><time>2026-04-04T14:45:44.978Z</time></trkpt><trkpt lat="44.75736" lon="10.2184667"><ele>106.0</ele><time>2026-04-04T14:45:45.977Z</time></trkpt><trkpt lat="44.7574" lon="10.2187617"><ele>106.0</ele><time>2026-04-04T14:45:46.977Z</time></trkpt><trkpt lat="44.7574483" lon="10.21906"><ele>106.0</ele><time>2026-04-04T14:45:47.977Z</time></trkpt><trkpt lat="44.7574967" lon="10.2193433"><ele>106.0</ele><time>2026-04-04T14:45:48.977Z</time></trkpt><trkpt lat="44.75754" lon="10.2196233"><ele>106.0</ele><time>2026-04-04T14:45:49.977Z</time></trkpt><trkpt lat="44.7575833" lon="10.2199033"><ele>106.0</ele><time>2026-04-04T14:45:50.978Z</time></trkpt><trkpt lat="44.7576317" lon="10.2201867"><ele>106.66666666666667</ele><time>2026-04-04T14:45:51.978Z</time></trkpt><trkpt lat="44.757675" lon="10.22047"><ele>107.33333333333334</ele><time>2026-04-04T14:45:52.978Z</time></trkpt><trkpt lat="44.7577183" lon="10.2207617"><ele>108.0</ele><time>2026-04-04T14:45:53.977Z</time></trkpt><trkpt lat="44.75777" lon="10.2210633"><ele>108.5</ele><time>2026-04-04T14:45:54.978Z</time></trkpt><trkpt lat="44.757825" lon="10.221375"><ele>109.0</ele><time>2026-04-04T14:45:55.978Z</time></trkpt><trkpt lat="44.7578867" lon="10.2216967"><ele>109.0</ele><time>2026-04-04T14:45:56.977Z</time></trkpt><trkpt lat="44.7579383" lon="10.2220183"><ele>109.0</ele><time>2026-04-04T14:45:57.977Z</time></trkpt><trkpt lat="44.7579833" lon="10.2223383"><ele>109.0</ele><time>2026-04-04T14:45:58.978Z</time></trkpt><trkpt lat="44.7580283" lon="10.22266"><ele>109.0</ele><time>2026-04-04T14:45:59.977Z</time></trkpt><trkpt lat="44.7580733" lon="10.22298"><ele>108.0</ele><time>2026-04-04T14:46:00.977Z</time></trkpt><trkpt lat="44.7581183" lon="10.2232983"><ele>107.0</ele><time>2026-04-04T14:46:01.978Z</time></trkpt><trkpt lat="44.75815" lon="10.223615"><ele>107.0</ele><time>2026-04-04T14:46:02.978Z</time></trkpt><trkpt lat="44.7581717" lon="10.2239367"><ele>107.0</ele><time>2026-04-04T14:46:03.978Z</time></trkpt><trkpt lat="44.7581867" lon="10.2242567"><ele>107.66666666666666</ele><time>2026-04-04T14:46:04.977Z</time></trkpt><trkpt lat="44.758195" lon="10.2245767"><ele>108.33333333333334</ele><time>2026-04-04T14:46:05.977Z</time></trkpt><trkpt lat="44.7581933" lon="10.2248783"><ele>109.0</ele><time>2026-04-04T14:46:06.977Z</time></trkpt><trkpt lat="44.7581817" lon="10.2251633"><ele>109.33333333333334</ele><time>2026-04-04T14:46:07.977Z</time></trkpt><trkpt lat="44.75817" lon="10.2254383"><ele>109.66666666666666</ele><time>2026-04-04T14:46:08.977Z</time></trkpt><trkpt lat="44.7581467" lon="10.2256917"><ele>110.0</ele><time>2026-04-04T14:46:09.978Z</time></trkpt><trkpt lat="44.758115" lon="10.225935"><ele>110.0</ele><time>2026-04-04T14:46:10.977Z</time></trkpt><trkpt lat="44.7580783" lon="10.226165"><ele>110.0</ele><time>2026-04-04T14:46:11.978Z</time></trkpt><trkpt lat="44.758035" lon="10.2263867"><ele>110.0</ele><time>2026-04-04T14:46:12.978Z</time></trkpt><trkpt lat="44.75799" lon="10.2266133"><ele>110.0</ele><time>2026-04-04T14:46:13.977Z</time></trkpt><trkpt lat="44.7579283" lon="10.226825"><ele>110.0</ele><time>2026-04-04T14:46:14.977Z</time></trkpt><trkpt lat="44.7578717" lon="10.2270383"><ele>110.0</ele><time>2026-04-04T14:46:15.978Z</time></trkpt><trkpt lat="44.7578133" lon="10.2272567"><ele>110.0</ele><time>2026-04-04T14:46:16.977Z</time></trkpt><trkpt lat="44.7577517" lon="10.2274683"><ele>110.0</ele><time>2026-04-04T14:46:17.977Z</time></trkpt><trkpt lat="44.7576833" lon="10.227665"><ele>110.0</ele><time>2026-04-04T14:46:18.978Z</time></trkpt><trkpt lat="44.757605" lon="10.22786"><ele>110.0</ele><time>2026-04-04T14:46:19.978Z</time></trkpt><trkpt lat="44.75753" lon="10.2280533"><ele>110.0</ele><time>2026-04-04T14:46:20.977Z</time></trkpt><trkpt lat="44.7574567" lon="10.2282467"><ele>110.0</ele><time>2026-04-04T14:46:21.978Z</time></trkpt><trkpt lat="44.7573883" lon="10.2284317"><ele>110.0</ele><time>2026-04-04T14:46:22.977Z</time></trkpt><trkpt lat="44.7573067" lon="10.2285917"><ele>110.0</ele><time>2026-04-04T14:46:23.977Z</time></trkpt><trkpt lat="44.7572267" lon="10.228735"><ele>110.0</ele><time>2026-04-04T14:46:24.977Z</time></trkpt><trkpt lat="44.7571583" lon="10.22887"><ele>110.0</ele><time>2026-04-04T14:46:25.977Z</time></trkpt><trkpt lat="44.7570817" lon="10.2290017"><ele>110.0</ele><time>2026-04-04T14:46:26.977Z</time></trkpt><trkpt lat="44.7570067" lon="10.229135"><ele>110.0</ele><time>2026-04-04T14:46:27.978Z</time></trkpt><trkpt lat="44.75692" lon="10.2292683"><ele>110.0</ele><time>2026-04-04T14:46:28.977Z</time></trkpt><trkpt lat="44.756825" lon="10.2293933"><ele>110.0</ele><time>2026-04-04T14:46:29.977Z</time></trkpt><trkpt lat="44.75673" lon="10.2295233"><ele>110.75</ele><time>2026-04-04T14:46:30.977Z</time></trkpt><trkpt lat="44.75664" lon="10.229655"><ele>111.5</ele><time>2026-04-04T14:46:31.977Z</time></trkpt><trkpt lat="44.7565467" lon="10.229785"><ele>112.25</ele><time>2026-04-04T14:46:32.977Z</time></trkpt><trkpt lat="44.7564583" lon="10.2299133"><ele>113.0</ele><time>2026-04-04T14:46:33.977Z</time></trkpt><trkpt lat="44.756385" lon="10.2300417"><ele>113.2</ele><time>2026-04-04T14:46:34.977Z</time></trkpt><trkpt lat="44.75632" lon="10.230155"><ele>113.4</ele><time>2026-04-04T14:46:35.977Z</time></trkpt><trkpt lat="44.7562667" lon="10.2302617"><ele>113.60000000000001</ele><time>2026-04-04T14:46:36.977Z</time></trkpt><trkpt lat="44.7562183" lon="10.2303583"><ele>113.80000000000001</ele><time>2026-04-04T14:46:37.978Z</time></trkpt><trkpt lat="44.7561783" lon="10.2304367"><ele>114.0</ele><time>2026-04-04T14:46:38.977Z</time></trkpt><trkpt lat="44.7561017" lon="10.23056"><ele>113.66666666666667</ele><time>2026-04-04T14:46:40.977Z</time></trkpt><trkpt lat="44.7560067" lon="10.230655"><ele>113.33333333333334</ele><time>2026-04-04T14:46:42.977Z</time></trkpt><trkpt lat="44.75594" lon="10.2306917"><ele>113.0</ele><time>2026-04-04T14:46:43.977Z</time></trkpt><trkpt lat="44.7558667" lon="10.2307217"><ele>112.66666666666667</ele><time>2026-04-04T14:46:44.977Z</time></trkpt><trkpt lat="44.7558033" lon="10.230765"><ele>112.33333333333334</ele><time>2026-04-04T14:46:45.977Z</time></trkpt><trkpt lat="44.7557383" lon="10.2308183"><ele>112.0</ele><time>2026-04-04T14:46:46.977Z</time></trkpt><trkpt lat="44.7556683" lon="10.2309"><ele>112.00000000000001</ele><time>2026-04-04T14:46:47.978Z</time></trkpt><trkpt lat="44.755625" lon="10.2309933"><ele>112.0</ele><time>2026-04-04T14:46:48.977Z</time></trkpt><trkpt lat="44.755605" lon="10.2311183"><ele>112.0</ele><time>2026-04-04T14:46:49.978Z</time></trkpt><trkpt lat="44.7556217" lon="10.231245"><ele>112.0</ele><time>2026-04-04T14:46:50.977Z</time></trkpt><trkpt lat="44.755665" lon="10.2313533"><ele>112.00000000000001</ele><time>2026-04-04T14:46:51.977Z</time></trkpt><trkpt lat="44.7557433" lon="10.2314317"><ele>112.0</ele><time>2026-04-04T14:46:52.978Z</time></trkpt><trkpt lat="44.7558333" lon="10.231495"><ele>111.5</ele><time>2026-04-04T14:46:53.978Z</time></trkpt><trkpt lat="44.7559467" lon="10.231565"><ele>111.0</ele><time>2026-04-04T14:46:54.977Z</time></trkpt><trkpt lat="44.756045" lon="10.2316783"><ele>110.5</ele><time>2026-04-04T14:46:55.978Z</time></trkpt><trkpt lat="44.7561233" lon="10.2318467"><ele>110.0</ele><time>2026-04-04T14:46:56.978Z</time></trkpt><trkpt lat="44.75619" lon="10.2320417"><ele>109.33333333333333</ele><time>2026-04-04T14:46:57.977Z</time></trkpt><trkpt lat="44.756255" lon="10.2322683"><ele>108.66666666666666</ele><time>2026-04-04T14:46:58.978Z</time></trkpt><trkpt lat="44.7563367" lon="10.232515"><ele>108.0</ele><time>2026-04-04T14:46:59.978Z</time></trkpt><trkpt lat="44.75643" lon="10.2327767"><ele>108.0</ele><time>2026-04-04T14:47:00.977Z</time></trkpt><trkpt lat="44.7565333" lon="10.23302"><ele>108.0</ele><time>2026-04-04T14:47:01.977Z</time></trkpt><trkpt lat="44.756635" lon="10.23325"><ele>108.0</ele><time>2026-04-04T14:47:02.977Z</time></trkpt><trkpt lat="44.7567267" lon="10.2334667"><ele>108.0</ele><time>2026-04-04T14:47:03.977Z</time></trkpt><trkpt lat="44.7568167" lon="10.2336733"><ele>108.0</ele><time>2026-04-04T14:47:04.977Z</time></trkpt><trkpt lat="44.756905" lon="10.2338667"><ele>108.0</ele><time>2026-04-04T14:47:05.977Z</time></trkpt><trkpt lat="44.757" lon="10.2340617"><ele>109.0</ele><time>2026-04-04T14:47:06.977Z</time></trkpt><trkpt lat="44.757085" lon="10.2342483"><ele>110.0</ele><time>2026-04-04T14:47:07.978Z</time></trkpt><trkpt lat="44.7571683" lon="10.2344283"><ele>111.0</ele><time>2026-04-04T14:47:08.977Z</time></trkpt><trkpt lat="44.7572533" lon="10.2346067"><ele>111.0</ele><time>2026-04-04T14:47:09.977Z</time></trkpt><trkpt lat="44.757335" lon="10.2347783"><ele>111.0</ele><time>2026-04-04T14:47:10.977Z</time></trkpt><trkpt lat="44.757415" lon="10.2349533"><ele>111.0</ele><time>2026-04-04T14:47:11.978Z</time></trkpt><trkpt lat="44.7574967" lon="10.2351317"><ele>111.0</ele><time>2026-04-04T14:47:12.977Z</time></trkpt><trkpt lat="44.75758" lon="10.2353117"><ele>111.0</ele><time>2026-04-04T14:47:13.978Z</time></trkpt><trkpt lat="44.757665" lon="10.23549"><ele>111.0</ele><time>2026-04-04T14:47:14.977Z</time></trkpt><trkpt lat="44.7577483" lon="10.2356733"><ele>111.0</ele><time>2026-04-04T14:47:15.978Z</time></trkpt><trkpt lat="44.75784" lon="10.235855"><ele>110.0</ele><time>2026-04-04T14:47:16.977Z</time></trkpt><trkpt lat="44.7579383" lon="10.23606"><ele>109.0</ele><time>2026-04-04T14:47:17.977Z</time></trkpt><trkpt lat="44.7580417" lon="10.2362783"><ele>108.0</ele><time>2026-04-04T14:47:18.977Z</time></trkpt><trkpt lat="44.7581417" lon="10.2365017"><ele>108.0</ele><time>2026-04-04T14:47:19.977Z</time></trkpt><trkpt lat="44.7582417" lon="10.23673"><ele>108.0</ele><time>2026-04-04T14:47:20.978Z</time></trkpt><trkpt lat="44.75834" lon="10.2369583"><ele>108.0</ele><time>2026-04-04T14:47:21.977Z</time></trkpt><trkpt lat="44.758435" lon="10.23719"><ele>108.0</ele><time>2026-04-04T14:47:22.977Z</time></trkpt><trkpt lat="44.7585383" lon="10.2374167"><ele>108.0</ele><time>2026-04-04T14:47:23.977Z</time></trkpt><trkpt lat="44.7586483" lon="10.2376367"><ele>108.0</ele><time>2026-04-04T14:47:24.977Z</time></trkpt><trkpt lat="44.7587483" lon="10.2378383"><ele>108.0</ele><time>2026-04-04T14:47:25.978Z</time></trkpt><trkpt lat="44.75884" lon="10.2380317"><ele>108.0</ele><time>2026-04-04T14:47:26.977Z</time></trkpt><trkpt lat="44.7589283" lon="10.2382317"><ele>108.0</ele><time>2026-04-04T14:47:27.977Z</time></trkpt><trkpt lat="44.7590133" lon="10.2384117"><ele>108.0</ele><time>2026-04-04T14:47:28.977Z</time></trkpt><trkpt lat="44.7590967" lon="10.2385917"><ele>108.0</ele><time>2026-04-04T14:47:29.977Z</time></trkpt><trkpt lat="44.75918" lon="10.2387783"><ele>108.0</ele><time>2026-04-04T14:47:30.977Z</time></trkpt><trkpt lat="44.75927" lon="10.23896"><ele>108.0</ele><time>2026-04-04T14:47:31.978Z</time></trkpt><trkpt lat="44.7593583" lon="10.239145"><ele>108.0</ele><time>2026-04-04T14:47:32.978Z</time></trkpt><trkpt lat="44.7594467" lon="10.23933"><ele>108.0</ele><time>2026-04-04T14:47:33.977Z</time></trkpt><trkpt lat="44.7595317" lon="10.2395167"><ele>107.66666666666666</ele><time>2026-04-04T14:47:34.977Z</time></trkpt><trkpt lat="44.759615" lon="10.2397"><ele>107.33333333333333</ele><time>2026-04-04T14:47:35.977Z</time></trkpt><trkpt lat="44.7596983" lon="10.23988"><ele>107.0</ele><time>2026-04-04T14:47:36.977Z</time></trkpt><trkpt lat="44.75978" lon="10.24006"><ele>108.66666666666666</ele><time>2026-04-04T14:47:37.978Z</time></trkpt><trkpt lat="44.759865" lon="10.2402417"><ele>110.33333333333334</ele><time>2026-04-04T14:47:38.977Z</time></trkpt><trkpt lat="44.759945" lon="10.2404233"><ele>112.0</ele><time>2026-04-04T14:47:39.977Z</time></trkpt><trkpt lat="44.76003" lon="10.2406067"><ele>111.66666666666667</ele><time>2026-04-04T14:47:40.977Z</time></trkpt><trkpt lat="44.7601317" lon="10.2407933"><ele>111.33333333333334</ele><time>2026-04-04T14:47:41.978Z</time></trkpt><trkpt lat="44.7602383" lon="10.2409983"><ele>111.0</ele><time>2026-04-04T14:47:42.977Z</time></trkpt><trkpt lat="44.7603467" lon="10.2412183"><ele>110.66666666666666</ele><time>2026-04-04T14:47:43.978Z</time></trkpt><trkpt lat="44.7604467" lon="10.2414567"><ele>110.33333333333333</ele><time>2026-04-04T14:47:44.977Z</time></trkpt><trkpt lat="44.7605467" lon="10.2416917"><ele>110.0</ele><time>2026-04-04T14:47:45.977Z</time></trkpt><trkpt lat="44.7606567" lon="10.2419183"><ele>109.66666666666666</ele><time>2026-04-04T14:47:46.977Z</time></trkpt><trkpt lat="44.7607633" lon="10.2421567"><ele>109.33333333333334</ele><time>2026-04-04T14:47:47.978Z</time></trkpt><trkpt lat="44.760865" lon="10.2423983"><ele>109.0</ele><time>2026-04-04T14:47:48.977Z</time></trkpt><trkpt lat="44.7609717" lon="10.24262"><ele>108.0</ele><time>2026-04-04T14:47:49.977Z</time></trkpt><trkpt lat="44.76107" lon="10.24285"><ele>107.0</ele><time>2026-04-04T14:47:50.977Z</time></trkpt><trkpt lat="44.7611717" lon="10.243075"><ele>106.0</ele><time>2026-04-04T14:47:51.978Z</time></trkpt><trkpt lat="44.761275" lon="10.243305"><ele>105.0</ele><time>2026-04-04T14:47:52.977Z</time></trkpt><trkpt lat="44.7613817" lon="10.2435417"><ele>104.0</ele><time>2026-04-04T14:47:53.977Z</time></trkpt><trkpt lat="44.76149" lon="10.243785"><ele>103.0</ele><time>2026-04-04T14:47:54.977Z</time></trkpt><trkpt lat="44.7616017" lon="10.2440267"><ele>102.66666666666667</ele><time>2026-04-04T14:47:55.978Z</time></trkpt><trkpt lat="44.7617133" lon="10.2442733"><ele>102.33333333333334</ele><time>2026-04-04T14:47:56.978Z</time></trkpt><trkpt lat="44.761835" lon="10.2445167"><ele>102.0</ele><time>2026-04-04T14:47:57.977Z</time></trkpt><trkpt lat="44.7619533" lon="10.2447633"><ele>102.0</ele><time>2026-04-04T14:47:58.978Z</time></trkpt><trkpt lat="44.7620683" lon="10.245015"><ele>102.0</ele><time>2026-04-04T14:47:59.977Z</time></trkpt><trkpt lat="44.7621817" lon="10.2452583"><ele>102.0</ele><time>2026-04-04T14:48:00.978Z</time></trkpt><trkpt lat="44.7623" lon="10.2455"><ele>102.66666666666666</ele><time>2026-04-04T14:48:01.977Z</time></trkpt><trkpt lat="44.7624233" lon="10.2457433"><ele>103.33333333333333</ele><time>2026-04-04T14:48:02.978Z</time></trkpt><trkpt lat="44.7625333" lon="10.2459867"><ele>104.0</ele><time>2026-04-04T14:48:03.977Z</time></trkpt><trkpt lat="44.76264" lon="10.2462267"><ele>103.66666666666666</ele><time>2026-04-04T14:48:04.977Z</time></trkpt><trkpt lat="44.762755" lon="10.2464617"><ele>103.33333333333334</ele><time>2026-04-04T14:48:05.977Z</time></trkpt><trkpt lat="44.7628733" lon="10.2467017"><ele>103.0</ele><time>2026-04-04T14:48:06.977Z</time></trkpt><trkpt lat="44.762985" lon="10.246935"><ele>103.0</ele><time>2026-04-04T14:48:07.977Z</time></trkpt><trkpt lat="44.7630917" lon="10.2471567"><ele>103.0</ele><time>2026-04-04T14:48:08.977Z</time></trkpt><trkpt lat="44.7631967" lon="10.2473767"><ele>103.0</ele><time>2026-04-04T14:48:09.977Z</time></trkpt><trkpt lat="44.7633083" lon="10.2475933"><ele>103.66666666666667</ele><time>2026-04-04T14:48:10.978Z</time></trkpt><trkpt lat="44.7634117" lon="10.2478283"><ele>104.33333333333334</ele><time>2026-04-04T14:48:11.977Z</time></trkpt><trkpt lat="44.7635217" lon="10.2480583"><ele>105.0</ele><time>2026-04-04T14:48:12.977Z</time></trkpt><trkpt lat="44.7636317" lon="10.2482783"><ele>104.0</ele><time>2026-04-04T14:48:13.978Z</time></trkpt><trkpt lat="44.7637433" lon="10.248515"><ele>103.0</ele><time>2026-04-04T14:48:14.978Z</time></trkpt><trkpt lat="44.763855" lon="10.2487567"><ele>102.0</ele><time>2026-04-04T14:48:15.977Z</time></trkpt><trkpt lat="44.7639633" lon="10.248995"><ele>102.0</ele><time>2026-04-04T14:48:16.978Z</time></trkpt><trkpt lat="44.764075" lon="10.2492183"><ele>102.0</ele><time>2026-04-04T14:48:17.977Z</time></trkpt><trkpt lat="44.7641867" lon="10.249455"><ele>102.0</ele><time>2026-04-04T14:48:18.977Z</time></trkpt><trkpt lat="44.7642833" lon="10.2496883"><ele>100.66666666666666</ele><time>2026-04-04T14:48:19.978Z</time></trkpt><trkpt lat="44.7643867" lon="10.2499217"><ele>99.33333333333333</ele><time>2026-04-04T14:48:20.978Z</time></trkpt><trkpt lat="44.7644933" lon="10.2501567"><ele>98.0</ele><time>2026-04-04T14:48:21.977Z</time></trkpt><trkpt lat="44.7646067" lon="10.25038"><ele>98.0</ele><time>2026-04-04T14:48:22.977Z</time></trkpt><trkpt lat="44.764715" lon="10.2506083"><ele>98.0</ele><time>2026-04-04T14:48:23.978Z</time></trkpt><trkpt lat="44.76482" lon="10.2508467"><ele>98.0</ele><time>2026-04-04T14:48:24.978Z</time></trkpt><trkpt lat="44.7649183" lon="10.251085"><ele>98.0</ele><time>2026-04-04T14:48:25.977Z</time></trkpt><trkpt lat="44.7650233" lon="10.251325"><ele>98.0</ele><time>2026-04-04T14:48:26.977Z</time></trkpt><trkpt lat="44.76513" lon="10.2515717"><ele>98.0</ele><time>2026-04-04T14:48:27.977Z</time></trkpt><trkpt lat="44.7652417" lon="10.25181"><ele>98.0</ele><time>2026-04-04T14:48:28.978Z</time></trkpt><trkpt lat="44.76536" lon="10.2520483"><ele>98.0</ele><time>2026-04-04T14:48:29.978Z</time></trkpt><trkpt lat="44.76547" lon="10.25229"><ele>98.0</ele><time>2026-04-04T14:48:30.978Z</time></trkpt><trkpt lat="44.7655683" lon="10.2525367"><ele>98.0</ele><time>2026-04-04T14:48:31.977Z</time></trkpt><trkpt lat="44.7656783" lon="10.2527783"><ele>98.0</ele><time>2026-04-04T14:48:32.977Z</time></trkpt><trkpt lat="44.7657817" lon="10.2530217"><ele>98.0</ele><time>2026-04-04T14:48:33.978Z</time></trkpt><trkpt lat="44.7658833" lon="10.25325"><ele>98.0</ele><time>2026-04-04T14:48:34.977Z</time></trkpt><trkpt lat="44.7659867" lon="10.2534783"><ele>98.0</ele><time>2026-04-04T14:48:35.978Z</time></trkpt><trkpt lat="44.7660867" lon="10.2537067"><ele>98.0</ele><time>2026-04-04T14:48:36.978Z</time></trkpt><trkpt lat="44.766185" lon="10.2539233"><ele>97.33333333333333</ele><time>2026-04-04T14:48:37.978Z</time></trkpt><trkpt lat="44.76628" lon="10.25414"><ele>96.66666666666666</ele><time>2026-04-04T14:48:38.977Z</time></trkpt><trkpt lat="44.76638" lon="10.2543433"><ele>96.0</ele><time>2026-04-04T14:48:39.977Z</time></trkpt><trkpt lat="44.766475" lon="10.254525"><ele>96.0</ele><time>2026-04-04T14:48:40.977Z</time></trkpt><trkpt lat="44.7665633" lon="10.25471"><ele>96.0</ele><time>2026-04-04T14:48:41.977Z</time></trkpt><trkpt lat="44.7666517" lon="10.2548883"><ele>96.0</ele><time>2026-04-04T14:48:42.977Z</time></trkpt><trkpt lat="44.7667433" lon="10.2550717"><ele>95.66666666666667</ele><time>2026-04-04T14:48:43.978Z</time></trkpt><trkpt lat="44.7668283" lon="10.2552517"><ele>95.33333333333334</ele><time>2026-04-04T14:48:44.978Z</time></trkpt><trkpt lat="44.7669183" lon="10.2554367"><ele>95.0</ele><time>2026-04-04T14:48:45.977Z</time></trkpt><trkpt lat="44.7670017" lon="10.2556183"><ele>95.0</ele><time>2026-04-04T14:48:46.977Z</time></trkpt><trkpt lat="44.7670783" lon="10.2557967"><ele>95.0</ele><time>2026-04-04T14:48:47.977Z</time></trkpt><trkpt lat="44.7671567" lon="10.2559567"><ele>95.0</ele><time>2026-04-04T14:48:48.977Z</time></trkpt><trkpt lat="44.7672283" lon="10.2561167"><ele>95.0</ele><time>2026-04-04T14:48:49.977Z</time></trkpt><trkpt lat="44.7673017" lon="10.2562783"><ele>95.0</ele><time>2026-04-04T14:48:50.977Z</time></trkpt><trkpt lat="44.7673733" lon="10.2564417"><ele>95.0</ele><time>2026-04-04T14:48:51.978Z</time></trkpt><trkpt lat="44.7674467" lon="10.2565933"><ele>95.0</ele><time>2026-04-04T14:48:52.977Z</time></trkpt><trkpt lat="44.7675267" lon="10.256745"><ele>95.0</ele><time>2026-04-04T14:48:53.978Z</time></trkpt><trkpt lat="44.767605" lon="10.2569"><ele>95.0</ele><time>2026-04-04T14:48:54.977Z</time></trkpt><trkpt lat="44.7676733" lon="10.25706"><ele>95.0</ele><time>2026-04-04T14:48:55.977Z</time></trkpt><trkpt lat="44.7677417" lon="10.2572167"><ele>95.0</ele><time>2026-04-04T14:48:56.977Z</time></trkpt><trkpt lat="44.7678133" lon="10.2573883"><ele>95.0</ele><time>2026-04-04T14:48:57.977Z</time></trkpt><trkpt lat="44.7678967" lon="10.257555"><ele>94.75</ele><time>2026-04-04T14:48:58.977Z</time></trkpt><trkpt lat="44.7679717" lon="10.2577167"><ele>94.5</ele><time>2026-04-04T14:48:59.977Z</time></trkpt><trkpt lat="44.7680467" lon="10.257885"><ele>94.25</ele><time>2026-04-04T14:49:00.978Z</time></trkpt><trkpt lat="44.76813" lon="10.258065"><ele>94.0</ele><time>2026-04-04T14:49:01.977Z</time></trkpt><trkpt lat="44.7682317" lon="10.2582633"><ele>94.0</ele><time>2026-04-04T14:49:02.977Z</time></trkpt><trkpt lat="44.7683267" lon="10.2584683"><ele>94.0</ele><time>2026-04-04T14:49:03.978Z</time></trkpt><trkpt lat="44.7684283" lon="10.258685"><ele>94.0</ele><time>2026-04-04T14:49:04.977Z</time></trkpt><trkpt lat="44.7685233" lon="10.2589133"><ele>93.66666666666666</ele><time>2026-04-04T14:49:05.977Z</time></trkpt><trkpt lat="44.7686233" lon="10.259135"><ele>93.33333333333333</ele><time>2026-04-04T14:49:06.977Z</time></trkpt><trkpt lat="44.768725" lon="10.2593567"><ele>93.0</ele><time>2026-04-04T14:49:07.977Z</time></trkpt><trkpt lat="44.7688283" lon="10.2595917"><ele>93.0</ele><time>2026-04-04T14:49:08.977Z</time></trkpt><trkpt lat="44.7689317" lon="10.2598233"><ele>93.0</ele><time>2026-04-04T14:49:09.978Z</time></trkpt><trkpt lat="44.76904" lon="10.2600617"><ele>93.0</ele><time>2026-04-04T14:49:10.977Z</time></trkpt><trkpt lat="44.7691483" lon="10.2602933"><ele>93.0</ele><time>2026-04-04T14:49:11.978Z</time></trkpt><trkpt lat="44.7692667" lon="10.26053"><ele>93.0</ele><time>2026-04-04T14:49:12.977Z</time></trkpt><trkpt lat="44.769385" lon="10.2607783"><ele>93.0</ele><time>2026-04-04T14:49:13.977Z</time></trkpt><trkpt lat="44.7694967" lon="10.26102"><ele>92.66666666666667</ele><time>2026-04-04T14:49:14.977Z</time></trkpt><trkpt lat="44.76962" lon="10.2612567"><ele>92.33333333333334</ele><time>2026-04-04T14:49:15.978Z</time></trkpt><trkpt lat="44.7697317" lon="10.2614933"><ele>92.0</ele><time>2026-04-04T14:49:16.978Z</time></trkpt><trkpt lat="44.769855" lon="10.261735"><ele>91.66666666666667</ele><time>2026-04-04T14:49:17.977Z</time></trkpt><trkpt lat="44.7699717" lon="10.2619833"><ele>91.33333333333333</ele><time>2026-04-04T14:49:18.977Z</time></trkpt><trkpt lat="44.770085" lon="10.26224"><ele>91.0</ele><time>2026-04-04T14:49:19.977Z</time></trkpt><trkpt lat="44.7701883" lon="10.2624817"><ele>90.66666666666666</ele><time>2026-04-04T14:49:20.977Z</time></trkpt><trkpt lat="44.7703017" lon="10.2627267"><ele>90.33333333333333</ele><time>2026-04-04T14:49:21.978Z</time></trkpt><trkpt lat="44.7704133" lon="10.2629783"><ele>90.0</ele><time>2026-04-04T14:49:22.977Z</time></trkpt><trkpt lat="44.7705233" lon="10.2632133"><ele>90.0</ele><time>2026-04-04T14:49:23.977Z</time></trkpt><trkpt lat="44.7706333" lon="10.263465"><ele>90.0</ele><time>2026-04-04T14:49:24.977Z</time></trkpt><trkpt lat="44.7707533" lon="10.2637133"><ele>90.0</ele><time>2026-04-04T14:49:25.977Z</time></trkpt><trkpt lat="44.770885" lon="10.2639533"><ele>89.66666666666667</ele><time>2026-04-04T14:49:26.977Z</time></trkpt><trkpt lat="44.7710067" lon="10.2641833"><ele>89.33333333333334</ele><time>2026-04-04T14:49:27.977Z</time></trkpt><trkpt lat="44.771125" lon="10.2644167"><ele>89.0</ele><time>2026-04-04T14:49:28.977Z</time></trkpt><trkpt lat="44.7712433" lon="10.264655"><ele>88.66666666666667</ele><time>2026-04-04T14:49:29.978Z</time></trkpt><trkpt lat="44.7713567" lon="10.26489"><ele>88.33333333333333</ele><time>2026-04-04T14:49:30.977Z</time></trkpt><trkpt lat="44.7714667" lon="10.2651167"><ele>88.0</ele><time>2026-04-04T14:49:31.978Z</time></trkpt><trkpt lat="44.771575" lon="10.2653483"><ele>88.0</ele><time>2026-04-04T14:49:32.977Z</time></trkpt><trkpt lat="44.7716867" lon="10.2655933"><ele>88.0</ele><time>2026-04-04T14:49:33.977Z</time></trkpt><trkpt lat="44.77179" lon="10.2658317"><ele>88.0</ele><time>2026-04-04T14:49:34.977Z</time></trkpt><trkpt lat="44.7718983" lon="10.266065"><ele>88.0</ele><time>2026-04-04T14:49:35.977Z</time></trkpt><trkpt lat="44.77201" lon="10.2662967"><ele>88.0</ele><time>2026-04-04T14:49:36.977Z</time></trkpt><trkpt lat="44.7721183" lon="10.2665367"><ele>88.0</ele><time>2026-04-04T14:49:37.978Z</time></trkpt><trkpt lat="44.7722217" lon="10.2667483"><ele>88.0</ele><time>2026-04-04T14:49:38.977Z</time></trkpt><trkpt lat="44.7723167" lon="10.2669667"><ele>88.0</ele><time>2026-04-04T14:49:39.977Z</time></trkpt><trkpt lat="44.7724067" lon="10.2671617"><ele>88.0</ele><time>2026-04-04T14:49:40.977Z</time></trkpt><trkpt lat="44.7724933" lon="10.2673383"><ele>88.0</ele><time>2026-04-04T14:49:41.977Z</time></trkpt><trkpt lat="44.7725717" lon="10.2674967"><ele>88.0</ele><time>2026-04-04T14:49:42.978Z</time></trkpt><trkpt lat="44.7726433" lon="10.2676467"><ele>88.0</ele><time>2026-04-04T14:49:43.977Z</time></trkpt><trkpt lat="44.772725" lon="10.2677883"><ele>88.0</ele><time>2026-04-04T14:49:44.978Z</time></trkpt><trkpt lat="44.7728033" lon="10.2679583"><ele>88.0</ele><time>2026-04-04T14:49:45.977Z</time></trkpt><trkpt lat="44.7728933" lon="10.2681483"><ele>88.0</ele><time>2026-04-04T14:49:46.977Z</time></trkpt><trkpt lat="44.772985" lon="10.2683633"><ele>88.0</ele><time>2026-04-04T14:49:47.977Z</time></trkpt><trkpt lat="44.7731017" lon="10.2685833"><ele>88.0</ele><time>2026-04-04T14:49:48.978Z</time></trkpt><trkpt lat="44.7732" lon="10.26881"><ele>88.0</ele><time>2026-04-04T14:49:49.978Z</time></trkpt><trkpt lat="44.7733017" lon="10.26903"><ele>88.0</ele><time>2026-04-04T14:49:50.978Z</time></trkpt><trkpt lat="44.773395" lon="10.269235"><ele>88.33333333333333</ele><time>2026-04-04T14:49:51.977Z</time></trkpt><trkpt lat="44.7734817" lon="10.26943"><ele>88.66666666666667</ele><time>2026-04-04T14:49:52.977Z</time></trkpt><trkpt lat="44.77356" lon="10.2696183"><ele>89.0</ele><time>2026-04-04T14:49:53.977Z</time></trkpt><trkpt lat="44.7736333" lon="10.269795"><ele>88.5</ele><time>2026-04-04T14:49:54.978Z</time></trkpt><trkpt lat="44.7737067" lon="10.2699517"><ele>88.0</ele><time>2026-04-04T14:49:55.978Z</time></trkpt><trkpt lat="44.7737783" lon="10.2701067"><ele>87.5</ele><time>2026-04-04T14:49:56.977Z</time></trkpt><trkpt lat="44.7738533" lon="10.270265"><ele>87.0</ele><time>2026-04-04T14:49:57.977Z</time></trkpt><trkpt lat="44.7739217" lon="10.2704283"><ele>87.0</ele><time>2026-04-04T14:49:58.977Z</time></trkpt><trkpt lat="44.7739967" lon="10.2705967"><ele>87.0</ele><time>2026-04-04T14:49:59.977Z</time></trkpt><trkpt lat="44.7740717" lon="10.2707667"><ele>87.0</ele><time>2026-04-04T14:50:00.978Z</time></trkpt><trkpt lat="44.77416" lon="10.2709567"><ele>87.0</ele><time>2026-04-04T14:50:01.977Z</time></trkpt><trkpt lat="44.7742583" lon="10.271155"><ele>86.33333333333333</ele><time>2026-04-04T14:50:02.978Z</time></trkpt><trkpt lat="44.7743567" lon="10.2713667"><ele>85.66666666666666</ele><time>2026-04-04T14:50:03.978Z</time></trkpt><trkpt lat="44.7744483" lon="10.2715933"><ele>85.0</ele><time>2026-04-04T14:50:04.977Z</time></trkpt><trkpt lat="44.7745383" lon="10.2718133"><ele>85.0</ele><time>2026-04-04T14:50:05.978Z</time></trkpt><trkpt lat="44.774625" lon="10.2720033"><ele>85.0</ele><time>2026-04-04T14:50:06.978Z</time></trkpt><trkpt lat="44.7747183" lon="10.2721783"><ele>85.0</ele><time>2026-04-04T14:50:07.977Z</time></trkpt><trkpt lat="44.774805" lon="10.27235"><ele>85.5</ele><time>2026-04-04T14:50:08.978Z</time></trkpt><trkpt lat="44.7748883" lon="10.27251"><ele>86.0</ele><time>2026-04-04T14:50:09.977Z</time></trkpt><trkpt lat="44.774955" lon="10.2726667"><ele>86.5</ele><time>2026-04-04T14:50:10.977Z</time></trkpt><trkpt lat="44.77502" lon="10.2728267"><ele>87.0</ele><time>2026-04-04T14:50:11.978Z</time></trkpt><trkpt lat="44.7751033" lon="10.2729917"><ele>86.25</ele><time>2026-04-04T14:50:12.977Z</time></trkpt><trkpt lat="44.7751883" lon="10.2731617"><ele>85.5</ele><time>2026-04-04T14:50:13.977Z</time></trkpt><trkpt lat="44.7752683" lon="10.2733317"><ele>84.75</ele><time>2026-04-04T14:50:14.977Z</time></trkpt><trkpt lat="44.7753383" lon="10.2734933"><ele>84.0</ele><time>2026-04-04T14:50:15.977Z</time></trkpt><trkpt lat="44.77542" lon="10.273665"><ele>84.0</ele><time>2026-04-04T14:50:16.977Z</time></trkpt><trkpt lat="44.7754983" lon="10.273825"><ele>84.0</ele><time>2026-04-04T14:50:17.977Z</time></trkpt><trkpt lat="44.7755783" lon="10.2739833"><ele>84.0</ele><time>2026-04-04T14:50:18.977Z</time></trkpt><trkpt lat="44.7756633" lon="10.27415"><ele>84.0</ele><time>2026-04-04T14:50:19.978Z</time></trkpt><trkpt lat="44.7757467" lon="10.2743283"><ele>84.0</ele><time>2026-04-04T14:50:20.977Z</time></trkpt><trkpt lat="44.7758267" lon="10.2745217"><ele>84.0</ele><time>2026-04-04T14:50:21.978Z</time></trkpt><trkpt lat="44.7759233" lon="10.274725"><ele>84.0</ele><time>2026-04-04T14:50:22.977Z</time></trkpt><trkpt lat="44.7760333" lon="10.274935"><ele>83.33333333333333</ele><time>2026-04-04T14:50:23.977Z</time></trkpt><trkpt lat="44.7761333" lon="10.2751483"><ele>82.66666666666666</ele><time>2026-04-04T14:50:24.978Z</time></trkpt><trkpt lat="44.7762233" lon="10.2753517"><ele>82.0</ele><time>2026-04-04T14:50:25.977Z</time></trkpt><trkpt lat="44.7763017" lon="10.275545"><ele>82.66666666666666</ele><time>2026-04-04T14:50:26.977Z</time></trkpt><trkpt lat="44.7763983" lon="10.2757383"><ele>83.33333333333333</ele><time>2026-04-04T14:50:27.978Z</time></trkpt><trkpt lat="44.7765017" lon="10.2759533"><ele>84.0</ele><time>2026-04-04T14:50:28.977Z</time></trkpt><trkpt lat="44.77661" lon="10.276175"><ele>84.0</ele><time>2026-04-04T14:50:29.977Z</time></trkpt><trkpt lat="44.776715" lon="10.2763967"><ele>84.0</ele><time>2026-04-04T14:50:30.977Z</time></trkpt><trkpt lat="44.7768133" lon="10.27663"><ele>84.0</ele><time>2026-04-04T14:50:31.977Z</time></trkpt><trkpt lat="44.7769117" lon="10.2768633"><ele>83.66666666666667</ele><time>2026-04-04T14:50:32.977Z</time></trkpt><trkpt lat="44.7770217" lon="10.2771017"><ele>83.33333333333334</ele><time>2026-04-04T14:50:33.977Z</time></trkpt><trkpt lat="44.777125" lon="10.27734"><ele>83.0</ele><time>2026-04-04T14:50:34.977Z</time></trkpt><trkpt lat="44.7772283" lon="10.2775883"><ele>83.0</ele><time>2026-04-04T14:50:35.978Z</time></trkpt><trkpt lat="44.7773317" lon="10.2778217"><ele>83.0</ele><time>2026-04-04T14:50:36.977Z</time></trkpt><trkpt lat="44.7774417" lon="10.2780617"><ele>83.0</ele><time>2026-04-04T14:50:37.977Z</time></trkpt><trkpt lat="44.7775567" lon="10.2782983"><ele>83.0</ele><time>2026-04-04T14:50:38.977Z</time></trkpt><trkpt lat="44.77767" lon="10.2785367"><ele>83.0</ele><time>2026-04-04T14:50:39.977Z</time></trkpt><trkpt lat="44.77779" lon="10.2787667"><ele>83.0</ele><time>2026-04-04T14:50:40.977Z</time></trkpt><trkpt lat="44.7778867" lon="10.2790067"><ele>82.33333333333334</ele><time>2026-04-04T14:50:41.978Z</time></trkpt><trkpt lat="44.7780033" lon="10.27923"><ele>81.66666666666667</ele><time>2026-04-04T14:50:42.977Z</time></trkpt><trkpt lat="44.7781067" lon="10.27945"><ele>81.0</ele><time>2026-04-04T14:50:43.978Z</time></trkpt><trkpt lat="44.7782133" lon="10.27967"><ele>81.66666666666667</ele><time>2026-04-04T14:50:44.977Z</time></trkpt><trkpt lat="44.7783117" lon="10.2798967"><ele>82.33333333333334</ele><time>2026-04-04T14:50:45.978Z</time></trkpt><trkpt lat="44.7784167" lon="10.2801167"><ele>83.0</ele><time>2026-04-04T14:50:46.977Z</time></trkpt><trkpt lat="44.7785167" lon="10.2803483"><ele>82.66666666666667</ele><time>2026-04-04T14:50:47.977Z</time></trkpt><trkpt lat="44.7786167" lon="10.2805767"><ele>82.33333333333333</ele><time>2026-04-04T14:50:48.977Z</time></trkpt><trkpt lat="44.77872" lon="10.2807917"><ele>82.0</ele><time>2026-04-04T14:50:49.978Z</time></trkpt><trkpt lat="44.7788267" lon="10.2810083"><ele>82.0</ele><time>2026-04-04T14:50:50.978Z</time></trkpt><trkpt lat="44.7789267" lon="10.2812083"><ele>82.0</ele><time>2026-04-04T14:50:51.977Z</time></trkpt><trkpt lat="44.779015" lon="10.2814"><ele>82.0</ele><time>2026-04-04T14:50:52.977Z</time></trkpt><trkpt lat="44.7790967" lon="10.2815667"><ele>82.0</ele><time>2026-04-04T14:50:53.977Z</time></trkpt><trkpt lat="44.779175" lon="10.28172"><ele>82.0</ele><time>2026-04-04T14:50:54.976Z</time></trkpt><trkpt lat="44.7792417" lon="10.281865"><ele>82.0</ele><time>2026-04-04T14:50:55.977Z</time></trkpt><trkpt lat="44.7792933" lon="10.28199"><ele>82.0</ele><time>2026-04-04T14:50:56.976Z</time></trkpt><trkpt lat="44.7793267" lon="10.2820933"><ele>82.0</ele><time>2026-04-04T14:50:57.976Z</time></trkpt><trkpt lat="44.77936" lon="10.2822317"><ele>81.19999999999999</ele><time>2026-04-04T14:50:59.977Z</time></trkpt><trkpt lat="44.7793617" lon="10.282395"><ele>80.39999999999999</ele><time>2026-04-04T14:51:01.976Z</time></trkpt><trkpt lat="44.779365" lon="10.2825167"><ele>79.6</ele><time>2026-04-04T14:51:02.977Z</time></trkpt><trkpt lat="44.7793967" lon="10.282655"><ele>78.8</ele><time>2026-04-04T14:51:03.976Z</time></trkpt><trkpt lat="44.7794683" lon="10.2827833"><ele>78.0</ele><time>2026-04-04T14:51:04.977Z</time></trkpt><trkpt lat="44.7795433" lon="10.282925"><ele>78.0</ele><time>2026-04-04T14:51:05.976Z</time></trkpt><trkpt lat="44.7796333" lon="10.2830567"><ele>78.0</ele><time>2026-04-04T14:51:06.976Z</time></trkpt><trkpt lat="44.7797433" lon="10.28318"><ele>78.0</ele><time>2026-04-04T14:51:07.976Z</time></trkpt><trkpt lat="44.7798683" lon="10.2832933"><ele>78.0</ele><time>2026-04-04T14:51:08.976Z</time></trkpt><trkpt lat="44.7799783" lon="10.2834383"><ele>78.0</ele><time>2026-04-04T14:51:09.976Z</time></trkpt><trkpt lat="44.780075" lon="10.2836167"><ele>78.0</ele><time>2026-04-04T14:51:10.976Z</time></trkpt><trkpt lat="44.7801683" lon="10.2838367"><ele>78.0</ele><time>2026-04-04T14:51:11.976Z</time></trkpt><trkpt lat="44.7802617" lon="10.2840617"><ele>78.0</ele><time>2026-04-04T14:51:12.976Z</time></trkpt><trkpt lat="44.7803617" lon="10.2842867"><ele>78.0</ele><time>2026-04-04T14:51:13.976Z</time></trkpt><trkpt lat="44.780465" lon="10.28451"><ele>78.0</ele><time>2026-04-04T14:51:14.977Z</time></trkpt><trkpt lat="44.7805683" lon="10.28474"><ele>77.66666666666667</ele><time>2026-04-04T14:51:15.976Z</time></trkpt><trkpt lat="44.7806733" lon="10.2849767"><ele>77.33333333333334</ele><time>2026-04-04T14:51:16.976Z</time></trkpt><trkpt lat="44.7807917" lon="10.2852117"><ele>77.0</ele><time>2026-04-04T14:51:17.976Z</time></trkpt><trkpt lat="44.7808967" lon="10.2854533"><ele>76.33333333333334</ele><time>2026-04-04T14:51:18.977Z</time></trkpt><trkpt lat="44.7810017" lon="10.2856967"><ele>75.66666666666667</ele><time>2026-04-04T14:51:19.976Z</time></trkpt><trkpt lat="44.7811117" lon="10.285935"><ele>75.0</ele><time>2026-04-04T14:51:20.976Z</time></trkpt><trkpt lat="44.7812183" lon="10.286165"><ele>75.0</ele><time>2026-04-04T14:51:21.977Z</time></trkpt><trkpt lat="44.7813267" lon="10.2864017"><ele>75.0</ele><time>2026-04-04T14:51:22.977Z</time></trkpt><trkpt lat="44.7814333" lon="10.2866333"><ele>75.0</ele><time>2026-04-04T14:51:23.976Z</time></trkpt><trkpt lat="44.781535" lon="10.2868567"><ele>75.0</ele><time>2026-04-04T14:51:24.976Z</time></trkpt><trkpt lat="44.7816433" lon="10.2870833"><ele>75.0</ele><time>2026-04-04T14:51:25.976Z</time></trkpt><trkpt lat="44.7817583" lon="10.2873067"><ele>75.0</ele><time>2026-04-04T14:51:26.976Z</time></trkpt><trkpt lat="44.781855" lon="10.2875217"><ele>75.0</ele><time>2026-04-04T14:51:27.976Z</time></trkpt><trkpt lat="44.7819533" lon="10.2877267"><ele>75.0</ele><time>2026-04-04T14:51:28.976Z</time></trkpt><trkpt lat="44.7820367" lon="10.28792"><ele>75.0</ele><time>2026-04-04T14:51:29.977Z</time></trkpt><trkpt lat="44.7821233" lon="10.2880983"><ele>75.0</ele><time>2026-04-04T14:51:30.977Z</time></trkpt><trkpt lat="44.7821933" lon="10.2882767"><ele>75.0</ele><time>2026-04-04T14:51:31.977Z</time></trkpt><trkpt lat="44.7822617" lon="10.288445"><ele>75.0</ele><time>2026-04-04T14:51:32.976Z</time></trkpt><trkpt lat="44.7823317" lon="10.2886"><ele>75.0</ele><time>2026-04-04T14:51:33.977Z</time></trkpt><trkpt lat="44.7823917" lon="10.2887433"><ele>75.0</ele><time>2026-04-04T14:51:34.976Z</time></trkpt><trkpt lat="44.78245" lon="10.288875"><ele>75.0</ele><time>2026-04-04T14:51:35.976Z</time></trkpt><trkpt lat="44.7824833" lon="10.289"><ele>75.0</ele><time>2026-04-04T14:51:36.976Z</time></trkpt><trkpt lat="44.782505" lon="10.289135"><ele>75.0</ele><time>2026-04-04T14:51:37.977Z</time></trkpt><trkpt lat="44.782515" lon="10.2892833"><ele>75.0</ele><time>2026-04-04T14:51:38.976Z</time></trkpt><trkpt lat="44.7825333" lon="10.2894233"><ele>75.0</ele><time>2026-04-04T14:51:39.977Z</time></trkpt><trkpt lat="44.7825617" lon="10.2895583"><ele>75.0</ele><time>2026-04-04T14:51:40.977Z</time></trkpt><trkpt lat="44.78263" lon="10.2896617"><ele>75.0</ele><time>2026-04-04T14:51:41.976Z</time></trkpt><trkpt lat="44.7827217" lon="10.2897617"><ele>75.0</ele><time>2026-04-04T14:51:42.976Z</time></trkpt><trkpt lat="44.7828217" lon="10.2898467"><ele>75.0</ele><time>2026-04-04T14:51:43.976Z</time></trkpt><trkpt lat="44.7829167" lon="10.28993"><ele>74.6</ele><time>2026-04-04T14:51:44.976Z</time></trkpt><trkpt lat="44.783" lon="10.2900267"><ele>74.2</ele><time>2026-04-04T14:51:45.977Z</time></trkpt><trkpt lat="44.7830733" lon="10.2901283"><ele>73.8</ele><time>2026-04-04T14:51:46.976Z</time></trkpt><trkpt lat="44.7831383" lon="10.2902583"><ele>73.4</ele><time>2026-04-04T14:51:47.977Z</time></trkpt><trkpt lat="44.7832083" lon="10.2904033"><ele>73.0</ele><time>2026-04-04T14:51:48.976Z</time></trkpt><trkpt lat="44.78329" lon="10.290575"><ele>73.0</ele><time>2026-04-04T14:51:49.976Z</time></trkpt><trkpt lat="44.7833733" lon="10.2907483"><ele>73.0</ele><time>2026-04-04T14:51:50.977Z</time></trkpt><trkpt lat="44.783455" lon="10.2909333"><ele>73.0</ele><time>2026-04-04T14:51:51.977Z</time></trkpt><trkpt lat="44.783545" lon="10.2911183"><ele>73.0</ele><time>2026-04-04T14:51:52.976Z</time></trkpt><trkpt lat="44.7836267" lon="10.2913217"><ele>73.0</ele><time>2026-04-04T14:51:53.976Z</time></trkpt><trkpt lat="44.7837083" lon="10.2915033"><ele>73.0</ele><time>2026-04-04T14:51:54.976Z</time></trkpt><trkpt lat="44.7837883" lon="10.2916733"><ele>73.0</ele><time>2026-04-04T14:51:55.976Z</time></trkpt><trkpt lat="44.78386" lon="10.2918483"><ele>73.0</ele><time>2026-04-04T14:51:56.976Z</time></trkpt><trkpt lat="44.7839183" lon="10.2919917"><ele>73.0</ele><time>2026-04-04T14:51:57.976Z</time></trkpt><trkpt lat="44.7839633" lon="10.2920983"><ele>73.0</ele><time>2026-04-04T14:51:58.977Z</time></trkpt><trkpt lat="44.7839967" lon="10.292175"><ele>73.0</ele><time>2026-04-04T14:51:59.977Z</time></trkpt><trkpt lat="44.7840867" lon="10.2923267"><ele>73.0</ele><time>2026-04-04T14:52:01.977Z</time></trkpt><trkpt lat="44.78414" lon="10.2924267"><ele>73.0</ele><time>2026-04-04T14:52:02.976Z</time></trkpt><trkpt lat="44.7842" lon="10.2925383"><ele>73.0</ele><time>2026-04-04T14:52:03.976Z</time></trkpt><trkpt lat="44.7842517" lon="10.2926533"><ele>73.0</ele><time>2026-04-04T14:52:04.976Z</time></trkpt><trkpt lat="44.7843017" lon="10.2927617"><ele>73.0</ele><time>2026-04-04T14:52:05.976Z</time></trkpt><trkpt lat="44.78434" lon="10.292875"><ele>72.83333333333333</ele><time>2026-04-04T14:52:06.976Z</time></trkpt><trkpt lat="44.7843817" lon="10.29298"><ele>72.66666666666666</ele><time>2026-04-04T14:52:07.976Z</time></trkpt><trkpt lat="44.7844233" lon="10.2930833"><ele>72.5</ele><time>2026-04-04T14:52:08.976Z</time></trkpt><trkpt lat="44.784465" lon="10.2931667"><ele>72.33333333333333</ele><time>2026-04-04T14:52:09.976Z</time></trkpt><trkpt lat="44.7845083" lon="10.2932483"><ele>72.16666666666667</ele><time>2026-04-04T14:52:10.977Z</time></trkpt><trkpt lat="44.78454" lon="10.29333"><ele>72.0</ele><time>2026-04-04T14:52:11.977Z</time></trkpt><trkpt lat="44.784575" lon="10.2934167"><ele>71.85714285714286</ele><time>2026-04-04T14:52:12.976Z</time></trkpt><trkpt lat="44.7846067" lon="10.2935017"><ele>71.71428571428572</ele><time>2026-04-04T14:52:13.976Z</time></trkpt><trkpt lat="44.7846433" lon="10.2935883"><ele>71.57142857142857</ele><time>2026-04-04T14:52:14.976Z</time></trkpt><trkpt lat="44.7846667" lon="10.2936767"><ele>71.42857142857143</ele><time>2026-04-04T14:52:15.977Z</time></trkpt><trkpt lat="44.7846833" lon="10.29377"><ele>71.28571428571428</ele><time>2026-04-04T14:52:16.977Z</time></trkpt><trkpt lat="44.7846833" lon="10.2938733"><ele>71.14285714285714</ele><time>2026-04-04T14:52:17.976Z</time></trkpt><trkpt lat="44.784665" lon="10.2939733"><ele>71.0</ele><time>2026-04-04T14:52:18.976Z</time></trkpt><trkpt lat="44.78464" lon="10.2940783"><ele>70.85714285714286</ele><time>2026-04-04T14:52:19.976Z</time></trkpt><trkpt lat="44.7846283" lon="10.29418"><ele>70.71428571428571</ele><time>2026-04-04T14:52:20.976Z</time></trkpt><trkpt lat="44.78464" lon="10.29429"><ele>70.57142857142857</ele><time>2026-04-04T14:52:21.977Z</time></trkpt><trkpt lat="44.7846817" lon="10.294365"><ele>70.42857142857143</ele><time>2026-04-04T14:52:22.977Z</time></trkpt><trkpt lat="44.7847417" lon="10.294405"><ele>70.28571428571428</ele><time>2026-04-04T14:52:23.976Z</time></trkpt><trkpt lat="44.7848117" lon="10.2944133"><ele>70.14285714285714</ele><time>2026-04-04T14:52:24.976Z</time></trkpt><trkpt lat="44.7848867" lon="10.2944183"><ele>70.0</ele><time>2026-04-04T14:52:25.976Z</time></trkpt><trkpt lat="44.7849617" lon="10.29444"><ele>70.0</ele><time>2026-04-04T14:52:26.977Z</time></trkpt><trkpt lat="44.7850383" lon="10.2945017"><ele>70.0</ele><time>2026-04-04T14:52:27.977Z</time></trkpt><trkpt lat="44.7851083" lon="10.2945933"><ele>70.0</ele><time>2026-04-04T14:52:28.977Z</time></trkpt><trkpt lat="44.7851667" lon="10.2947133"><ele>70.0</ele><time>2026-04-04T14:52:29.976Z</time></trkpt><trkpt lat="44.7852383" lon="10.294865"><ele>70.0</ele><time>2026-04-04T14:52:30.976Z</time></trkpt><trkpt lat="44.7853283" lon="10.2950333"><ele>69.66666666666666</ele><time>2026-04-04T14:52:31.976Z</time></trkpt><trkpt lat="44.7854167" lon="10.2952167"><ele>69.33333333333333</ele><time>2026-04-04T14:52:32.976Z</time></trkpt><trkpt lat="44.785505" lon="10.2954033"><ele>69.0</ele><time>2026-04-04T14:52:33.976Z</time></trkpt><trkpt lat="44.7855983" lon="10.29561"><ele>69.0</ele><time>2026-04-04T14:52:34.977Z</time></trkpt><trkpt lat="44.7856983" lon="10.2958267"><ele>69.0</ele><time>2026-04-04T14:52:35.976Z</time></trkpt><trkpt lat="44.7857883" lon="10.2960333"><ele>69.0</ele><time>2026-04-04T14:52:36.977Z</time></trkpt><trkpt lat="44.7858817" lon="10.2962383"><ele>68.33333333333333</ele><time>2026-04-04T14:52:37.976Z</time></trkpt><trkpt lat="44.78597" lon="10.296435"><ele>67.66666666666666</ele><time>2026-04-04T14:52:38.977Z</time></trkpt><trkpt lat="44.7860633" lon="10.2966333"><ele>67.0</ele><time>2026-04-04T14:52:39.977Z</time></trkpt><trkpt lat="44.7861467" lon="10.296815"><ele>67.0</ele><time>2026-04-04T14:52:40.976Z</time></trkpt><trkpt lat="44.7862333" lon="10.2969867"><ele>67.0</ele><time>2026-04-04T14:52:41.976Z</time></trkpt><trkpt lat="44.78631" lon="10.2971517"><ele>67.0</ele><time>2026-04-04T14:52:42.977Z</time></trkpt><trkpt lat="44.7863883" lon="10.2973167"><ele>67.0</ele><time>2026-04-04T14:52:43.976Z</time></trkpt><trkpt lat="44.7864667" lon="10.2974867"><ele>67.0</ele><time>2026-04-04T14:52:44.976Z</time></trkpt><trkpt lat="44.7865383" lon="10.297655"><ele>67.0</ele><time>2026-04-04T14:52:45.977Z</time></trkpt><trkpt lat="44.7866183" lon="10.2978017"><ele>67.0</ele><time>2026-04-04T14:52:46.976Z</time></trkpt><trkpt lat="44.7867" lon="10.29796"><ele>67.0</ele><time>2026-04-04T14:52:47.977Z</time></trkpt><trkpt lat="44.7867817" lon="10.2980933"><ele>66.75</ele><time>2026-04-04T14:52:48.976Z</time></trkpt><trkpt lat="44.786855" lon="10.2982233"><ele>66.5</ele><time>2026-04-04T14:52:49.977Z</time></trkpt><trkpt lat="44.7869233" lon="10.2983683"><ele>66.25</ele><time>2026-04-04T14:52:50.976Z</time></trkpt><trkpt lat="44.7869833" lon="10.2985067"><ele>66.0</ele><time>2026-04-04T14:52:51.976Z</time></trkpt><trkpt lat="44.78704" lon="10.29865"><ele>66.0</ele><time>2026-04-04T14:52:52.976Z</time></trkpt><trkpt lat="44.787105" lon="10.2987983"><ele>66.0</ele><time>2026-04-04T14:52:53.977Z</time></trkpt><trkpt lat="44.787175" lon="10.2989517"><ele>66.0</ele><time>2026-04-04T14:52:54.976Z</time></trkpt><trkpt lat="44.7872467" lon="10.2991183"><ele>66.0</ele><time>2026-04-04T14:52:55.976Z</time></trkpt><trkpt lat="44.787325" lon="10.29928"><ele>66.25</ele><time>2026-04-04T14:52:56.976Z</time></trkpt><trkpt lat="44.7873983" lon="10.2994383"><ele>66.5</ele><time>2026-04-04T14:52:57.976Z</time></trkpt><trkpt lat="44.7874617" lon="10.2995967"><ele>66.75</ele><time>2026-04-04T14:52:58.976Z</time></trkpt><trkpt lat="44.7875317" lon="10.299745"><ele>67.0</ele><time>2026-04-04T14:52:59.977Z</time></trkpt><trkpt lat="44.7875817" lon="10.29986"><ele>67.0</ele><time>2026-04-04T14:53:00.976Z</time></trkpt><trkpt lat="44.7876317" lon="10.299965"><ele>67.0</ele><time>2026-04-04T14:53:01.977Z</time></trkpt><trkpt lat="44.787675" lon="10.300055"><ele>67.0</ele><time>2026-04-04T14:53:02.976Z</time></trkpt><trkpt lat="44.7877167" lon="10.30013"><ele>67.0</ele><time>2026-04-04T14:53:03.977Z</time></trkpt><trkpt lat="44.7877717" lon="10.3002533"><ele>67.0</ele><time>2026-04-04T14:53:05.977Z</time></trkpt><trkpt lat="44.7878217" lon="10.3003667"><ele>67.0</ele><time>2026-04-04T14:53:07.977Z</time></trkpt><trkpt lat="44.7878567" lon="10.3004667"><ele>67.16666666666666</ele><time>2026-04-04T14:53:09.977Z</time></trkpt><trkpt lat="44.7879017" lon="10.3005667"><ele>67.33333333333333</ele><time>2026-04-04T14:53:13.977Z</time></trkpt><trkpt lat="44.7879417" lon="10.3006383"><ele>67.5</ele><time>2026-04-04T14:53:15.977Z</time></trkpt><trkpt lat="44.7879883" lon="10.3007283"><ele>67.66666666666667</ele><time>2026-04-04T14:53:17.976Z</time></trkpt><trkpt lat="44.788035" lon="10.3008517"><ele>67.83333333333334</ele><time>2026-04-04T14:53:19.976Z</time></trkpt><trkpt lat="44.7880333" lon="10.30102"><ele>68.0</ele><time>2026-04-04T14:53:21.977Z</time></trkpt><trkpt lat="44.7880033" lon="10.3011283"><ele>68.0</ele><time>2026-04-04T14:53:22.977Z</time></trkpt><trkpt lat="44.78794" lon="10.3012383"><ele>68.0</ele><time>2026-04-04T14:53:23.976Z</time></trkpt><trkpt lat="44.7878567" lon="10.3013517"><ele>68.0</ele><time>2026-04-04T14:53:24.976Z</time></trkpt><trkpt lat="44.7877617" lon="10.30145"><ele>68.0</ele><time>2026-04-04T14:53:25.976Z</time></trkpt><trkpt lat="44.7876617" lon="10.3015483"><ele>67.8</ele><time>2026-04-04T14:53:26.976Z</time></trkpt><trkpt lat="44.7875783" lon="10.3016317"><ele>67.6</ele><time>2026-04-04T14:53:27.976Z</time></trkpt><trkpt lat="44.7874983" lon="10.301705"><ele>67.4</ele><time>2026-04-04T14:53:28.977Z</time></trkpt><trkpt lat="44.7874267" lon="10.30179"><ele>67.2</ele><time>2026-04-04T14:53:29.977Z</time></trkpt><trkpt lat="44.7873517" lon="10.301875"><ele>67.0</ele><time>2026-04-04T14:53:30.976Z</time></trkpt><trkpt lat="44.7872883" lon="10.3019817"><ele>67.0</ele><time>2026-04-04T14:53:31.976Z</time></trkpt><trkpt lat="44.787205" lon="10.3020867"><ele>67.0</ele><time>2026-04-04T14:53:32.977Z</time></trkpt><trkpt lat="44.78714" lon="10.3022133"><ele>67.0</ele><time>2026-04-04T14:53:33.976Z</time></trkpt><trkpt lat="44.7870717" lon="10.3023383"><ele>67.0</ele><time>2026-04-04T14:53:34.976Z</time></trkpt><trkpt lat="44.7870033" lon="10.3024817"><ele>67.25</ele><time>2026-04-04T14:53:35.976Z</time></trkpt><trkpt lat="44.7869483" lon="10.3026317"><ele>67.5</ele><time>2026-04-04T14:53:36.976Z</time></trkpt><trkpt lat="44.7868967" lon="10.3027783"><ele>67.75</ele><time>2026-04-04T14:53:37.977Z</time></trkpt><trkpt lat="44.7868433" lon="10.3029417"><ele>68.0</ele><time>2026-04-04T14:53:38.977Z</time></trkpt><trkpt lat="44.7867967" lon="10.3031167"><ele>68.0</ele><time>2026-04-04T14:53:39.977Z</time></trkpt><trkpt lat="44.7867533" lon="10.3032833"><ele>68.0</ele><time>2026-04-04T14:53:40.977Z</time></trkpt><trkpt lat="44.7867117" lon="10.3034667"><ele>68.0</ele><time>2026-04-04T14:53:41.977Z</time></trkpt><trkpt lat="44.78667" lon="10.3036583"><ele>68.0</ele><time>2026-04-04T14:53:42.976Z</time></trkpt><trkpt lat="44.7866383" lon="10.3038583"><ele>68.0</ele><time>2026-04-04T14:53:43.976Z</time></trkpt><trkpt lat="44.7865967" lon="10.3040433"><ele>68.0</ele><time>2026-04-04T14:53:44.976Z</time></trkpt><trkpt lat="44.786545" lon="10.3042583"><ele>68.0</ele><time>2026-04-04T14:53:45.977Z</time></trkpt><trkpt lat="44.786495" lon="10.3044767"><ele>68.0</ele><time>2026-04-04T14:53:46.976Z</time></trkpt><trkpt lat="44.7864483" lon="10.3046783"><ele>68.0</ele><time>2026-04-04T14:53:47.976Z</time></trkpt><trkpt lat="44.7864067" lon="10.3048733"><ele>68.0</ele><time>2026-04-04T14:53:48.977Z</time></trkpt><trkpt lat="44.7863633" lon="10.3050833"><ele>67.5</ele><time>2026-04-04T14:53:49.976Z</time></trkpt><trkpt lat="44.78632" lon="10.3052883"><ele>67.0</ele><time>2026-04-04T14:53:50.976Z</time></trkpt><trkpt lat="44.7862683" lon="10.3054817"><ele>66.5</ele><time>2026-04-04T14:53:51.977Z</time></trkpt><trkpt lat="44.78622" lon="10.3056767"><ele>66.0</ele><time>2026-04-04T14:53:52.977Z</time></trkpt><trkpt lat="44.786175" lon="10.30587"><ele>66.0</ele><time>2026-04-04T14:53:53.976Z</time></trkpt><trkpt lat="44.78613" lon="10.3060567"><ele>66.0</ele><time>2026-04-04T14:53:54.977Z</time></trkpt><trkpt lat="44.7860883" lon="10.306235"><ele>66.0</ele><time>2026-04-04T14:53:55.977Z</time></trkpt><trkpt lat="44.786045" lon="10.306415"><ele>66.0</ele><time>2026-04-04T14:53:56.976Z</time></trkpt><trkpt lat="44.7860133" lon="10.306575"><ele>65.83333333333333</ele><time>2026-04-04T14:53:57.977Z</time></trkpt><trkpt lat="44.78598" lon="10.306705"><ele>65.66666666666667</ele><time>2026-04-04T14:53:58.977Z</time></trkpt><trkpt lat="44.7859467" lon="10.3068033"><ele>65.5</ele><time>2026-04-04T14:53:59.977Z</time></trkpt><trkpt lat="44.7858883" lon="10.3069517"><ele>65.33333333333334</ele><time>2026-04-04T14:54:01.976Z</time></trkpt><trkpt lat="44.7858567" lon="10.30703"><ele>65.16666666666667</ele><time>2026-04-04T14:54:02.976Z</time></trkpt><trkpt lat="44.7858117" lon="10.3071133"><ele>65.0</ele><time>2026-04-04T14:54:03.976Z</time></trkpt><trkpt lat="44.785755" lon="10.307185"><ele>64.5</ele><time>2026-04-04T14:54:04.976Z</time></trkpt><trkpt lat="44.7856983" lon="10.30726"><ele>64.0</ele><time>2026-04-04T14:54:05.977Z</time></trkpt><trkpt lat="44.7856467" lon="10.3073383"><ele>63.5</ele><time>2026-04-04T14:54:06.976Z</time></trkpt><trkpt lat="44.78561" lon="10.3074217"><ele>63.0</ele><time>2026-04-04T14:54:07.976Z</time></trkpt><trkpt lat="44.785595" lon="10.3075233"><ele>62.50000000000001</ele><time>2026-04-04T14:54:08.976Z</time></trkpt><trkpt lat="44.7856083" lon="10.3076317"><ele>62.0</ele><time>2026-04-04T14:54:09.976Z</time></trkpt><trkpt lat="44.785625" lon="10.3077517"><ele>62.0</ele><time>2026-04-04T14:54:10.976Z</time></trkpt><trkpt lat="44.7856333" lon="10.3078783"><ele>62.0</ele><time>2026-04-04T14:54:11.976Z</time></trkpt><trkpt lat="44.7856283" lon="10.308025"><ele>62.0</ele><time>2026-04-04T14:54:12.976Z</time></trkpt><trkpt lat="44.78561" lon="10.3081817"><ele>62.0</ele><time>2026-04-04T14:54:13.976Z</time></trkpt><trkpt lat="44.7855783" lon="10.3083383"><ele>62.0</ele><time>2026-04-04T14:54:14.977Z</time></trkpt><trkpt lat="44.7855467" lon="10.30851"><ele>62.0</ele><time>2026-04-04T14:54:15.977Z</time></trkpt><trkpt lat="44.7855083" lon="10.308715"><ele>62.0</ele><time>2026-04-04T14:54:16.976Z</time></trkpt><trkpt lat="44.785455" lon="10.3089283"><ele>62.0</ele><time>2026-04-04T14:54:17.977Z</time></trkpt><trkpt lat="44.7853933" lon="10.3091383"><ele>63.0</ele><time>2026-04-04T14:54:18.976Z</time></trkpt><trkpt lat="44.7853267" lon="10.3093317"><ele>64.0</ele><time>2026-04-04T14:54:19.976Z</time></trkpt><trkpt lat="44.7852567" lon="10.3095117"><ele>65.0</ele><time>2026-04-04T14:54:20.976Z</time></trkpt><trkpt lat="44.78518" lon="10.309705"><ele>64.75</ele><time>2026-04-04T14:54:21.976Z</time></trkpt><trkpt lat="44.7850883" lon="10.3099067"><ele>64.5</ele><time>2026-04-04T14:54:22.977Z</time></trkpt><trkpt lat="44.7850067" lon="10.3100783"><ele>64.25</ele><time>2026-04-04T14:54:23.976Z</time></trkpt><trkpt lat="44.784925" lon="10.3102183"><ele>64.0</ele><time>2026-04-04T14:54:24.976Z</time></trkpt><trkpt lat="44.7848583" lon="10.3103333"><ele>64.0</ele><time>2026-04-04T14:54:25.976Z</time></trkpt><trkpt lat="44.784815" lon="10.3104133"><ele>64.0</ele><time>2026-04-04T14:54:26.976Z</time></trkpt><trkpt lat="44.7847117" lon="10.3105367"><ele>64.0</ele><time>2026-04-04T14:54:28.976Z</time></trkpt><trkpt lat="44.784625" lon="10.3105633"><ele>64.0</ele><time>2026-04-04T14:54:29.976Z</time></trkpt><trkpt lat="44.7845517" lon="10.3106083"><ele>64.0</ele><time>2026-04-04T14:54:30.977Z</time></trkpt><trkpt lat="44.7844933" lon="10.3106933"><ele>64.4</ele><time>2026-04-04T14:54:31.976Z</time></trkpt><trkpt lat="44.7844817" lon="10.3108067"><ele>64.80000000000001</ele><time>2026-04-04T14:54:32.976Z</time></trkpt><trkpt lat="44.7845067" lon="10.3109133"><ele>65.19999999999999</ele><time>2026-04-04T14:54:33.976Z</time></trkpt><trkpt lat="44.78457" lon="10.311015"><ele>65.6</ele><time>2026-04-04T14:54:34.976Z</time></trkpt><trkpt lat="44.784665" lon="10.3111117"><ele>66.0</ele><time>2026-04-04T14:54:35.977Z</time></trkpt><trkpt lat="44.7847733" lon="10.3112033"><ele>66.0</ele><time>2026-04-04T14:54:36.976Z</time></trkpt><trkpt lat="44.784865" lon="10.3112917"><ele>66.0</ele><time>2026-04-04T14:54:37.976Z</time></trkpt><trkpt lat="44.7849483" lon="10.3113883"><ele>66.0</ele><time>2026-04-04T14:54:38.977Z</time></trkpt><trkpt lat="44.7850233" lon="10.3115133"><ele>66.0</ele><time>2026-04-04T14:54:39.976Z</time></trkpt><trkpt lat="44.7850867" lon="10.31167"><ele>66.25</ele><time>2026-04-04T14:54:40.977Z</time></trkpt><trkpt lat="44.7851567" lon="10.3118417"><ele>66.5</ele><time>2026-04-04T14:54:41.977Z</time></trkpt><trkpt lat="44.785225" lon="10.31202"><ele>66.75</ele><time>2026-04-04T14:54:42.977Z</time></trkpt><trkpt lat="44.7853" lon="10.3122033"><ele>67.0</ele><time>2026-04-04T14:54:43.976Z</time></trkpt><trkpt lat="44.7853767" lon="10.31239"><ele>67.0</ele><time>2026-04-04T14:54:44.976Z</time></trkpt><trkpt lat="44.78545" lon="10.3125817"><ele>67.0</ele><time>2026-04-04T14:54:45.976Z</time></trkpt><trkpt lat="44.7855183" lon="10.3127583"><ele>67.0</ele><time>2026-04-04T14:54:46.977Z</time></trkpt><trkpt lat="44.78559" lon="10.3129317"><ele>67.0</ele><time>2026-04-04T14:54:47.976Z</time></trkpt><trkpt lat="44.7856633" lon="10.3131067"><ele>67.0</ele><time>2026-04-04T14:54:48.977Z</time></trkpt><trkpt lat="44.7857283" lon="10.3132783"><ele>67.0</ele><time>2026-04-04T14:54:49.976Z</time></trkpt><trkpt lat="44.785795" lon="10.31344"><ele>67.0</ele><time>2026-04-04T14:54:50.977Z</time></trkpt><trkpt lat="44.7858683" lon="10.313585"><ele>67.0</ele><time>2026-04-04T14:54:51.976Z</time></trkpt><trkpt lat="44.78593" lon="10.3137233"><ele>67.0</ele><time>2026-04-04T14:54:52.976Z</time></trkpt><trkpt lat="44.7859817" lon="10.313865"><ele>67.0</ele><time>2026-04-04T14:54:53.976Z</time></trkpt><trkpt lat="44.7860333" lon="10.314005"><ele>67.0</ele><time>2026-04-04T14:54:54.976Z</time></trkpt><trkpt lat="44.7860917" lon="10.3141433"><ele>67.0</ele><time>2026-04-04T14:54:55.977Z</time></trkpt><trkpt lat="44.78614" lon="10.314285"><ele>67.0</ele><time>2026-04-04T14:54:56.977Z</time></trkpt><trkpt lat="44.7861967" lon="10.3144183"><ele>67.0</ele><time>2026-04-04T14:54:57.976Z</time></trkpt><trkpt lat="44.7862617" lon="10.3145567"><ele>67.0</ele><time>2026-04-04T14:54:58.977Z</time></trkpt><trkpt lat="44.786315" lon="10.3146867"><ele>67.0</ele><time>2026-04-04T14:54:59.976Z</time></trkpt><trkpt lat="44.78637" lon="10.3148283"><ele>67.0</ele><time>2026-04-04T14:55:00.976Z</time></trkpt><trkpt lat="44.7864333" lon="10.314975"><ele>67.0</ele><time>2026-04-04T14:55:01.976Z</time></trkpt><trkpt lat="44.7865033" lon="10.31513"><ele>67.0</ele><time>2026-04-04T14:55:02.977Z</time></trkpt><trkpt lat="44.78658" lon="10.315305"><ele>67.0</ele><time>2026-04-04T14:55:03.976Z</time></trkpt><trkpt lat="44.78666" lon="10.31549"><ele>67.0</ele><time>2026-04-04T14:55:04.977Z</time></trkpt><trkpt lat="44.7867383" lon="10.315675"><ele>67.25</ele><time>2026-04-04T14:55:05.976Z</time></trkpt><trkpt lat="44.786815" lon="10.31586"><ele>67.5</ele><time>2026-04-04T14:55:06.976Z</time></trkpt><trkpt lat="44.7868933" lon="10.3160467"><ele>67.75</ele><time>2026-04-04T14:55:07.977Z</time></trkpt><trkpt lat="44.7869683" lon="10.3162183"><ele>68.0</ele><time>2026-04-04T14:55:08.977Z</time></trkpt><trkpt lat="44.7870467" lon="10.3163733"><ele>68.0</ele><time>2026-04-04T14:55:09.976Z</time></trkpt><trkpt lat="44.7871283" lon="10.3165117"><ele>68.0</ele><time>2026-04-04T14:55:10.977Z</time></trkpt><trkpt lat="44.7872467" lon="10.3166283"><ele>68.0</ele><time>2026-04-04T14:55:11.977Z</time></trkpt><trkpt lat="44.78738" lon="10.31675"><ele>68.0</ele><time>2026-04-04T14:55:12.977Z</time></trkpt><trkpt lat="44.7875267" lon="10.3168633"><ele>68.0</ele><time>2026-04-04T14:55:13.976Z</time></trkpt><trkpt lat="44.7876683" lon="10.3169883"><ele>68.0</ele><time>2026-04-04T14:55:14.976Z</time></trkpt><trkpt lat="44.78782" lon="10.3171133"><ele>68.0</ele><time>2026-04-04T14:55:15.977Z</time></trkpt><trkpt lat="44.7879667" lon="10.31723"><ele>67.0</ele><time>2026-04-04T14:55:16.977Z</time></trkpt><trkpt lat="44.788105" lon="10.3173533"><ele>66.0</ele><time>2026-04-04T14:55:17.976Z</time></trkpt><trkpt lat="44.788245" lon="10.3174717"><ele>65.0</ele><time>2026-04-04T14:55:18.977Z</time></trkpt><trkpt lat="44.7883783" lon="10.3175717"><ele>65.0</ele><time>2026-04-04T14:55:19.977Z</time></trkpt><trkpt lat="44.7885083" lon="10.317685"><ele>65.0</ele><time>2026-04-04T14:55:20.977Z</time></trkpt><trkpt lat="44.78864" lon="10.3177833"><ele>65.0</ele><time>2026-04-04T14:55:21.976Z</time></trkpt><trkpt lat="44.7887717" lon="10.3178667"><ele>65.0</ele><time>2026-04-04T14:55:22.976Z</time></trkpt><trkpt lat="44.788915" lon="10.317935"><ele>65.25</ele><time>2026-04-04T14:55:23.976Z</time></trkpt><trkpt lat="44.78906" lon="10.3179883"><ele>65.5</ele><time>2026-04-04T14:55:24.976Z</time></trkpt><trkpt lat="44.789205" lon="10.3180467"><ele>65.75</ele><time>2026-04-04T14:55:25.977Z</time></trkpt><trkpt lat="44.7893383" lon="10.31811"><ele>66.0</ele><time>2026-04-04T14:55:26.976Z</time></trkpt><trkpt lat="44.789475" lon="10.3181683"><ele>65.5</ele><time>2026-04-04T14:55:27.976Z</time></trkpt><trkpt lat="44.789605" lon="10.3182183"><ele>65.0</ele><time>2026-04-04T14:55:28.977Z</time></trkpt><trkpt lat="44.789725" lon="10.31826"><ele>64.5</ele><time>2026-04-04T14:55:29.976Z</time></trkpt><trkpt lat="44.7898417" lon="10.3183017"><ele>64.0</ele><time>2026-04-04T14:55:30.977Z</time></trkpt><trkpt lat="44.7899467" lon="10.3183417"><ele>64.0</ele><time>2026-04-04T14:55:31.976Z</time></trkpt><trkpt lat="44.7900283" lon="10.3183667"><ele>64.0</ele><time>2026-04-04T14:55:32.976Z</time></trkpt><trkpt lat="44.7900983" lon="10.3183783"><ele>64.0</ele><time>2026-04-04T14:55:33.977Z</time></trkpt><trkpt lat="44.79019" lon="10.318405"><ele>64.0</ele><time>2026-04-04T14:55:35.976Z</time></trkpt><trkpt lat="44.7901383" lon="10.3186"><ele>64.0</ele><time>2026-04-04T14:55:42.976Z</time></trkpt><trkpt lat="44.79008" lon="10.3186917"><ele>64.0</ele><time>2026-04-04T14:55:43.976Z</time></trkpt><trkpt lat="44.7900033" lon="10.3188033"><ele>64.0</ele><time>2026-04-04T14:55:44.977Z</time></trkpt><trkpt lat="44.7899283" lon="10.3189"><ele>64.0</ele><time>2026-04-04T14:55:45.977Z</time></trkpt><trkpt lat="44.78987" lon="10.3189917"><ele>64.0</ele><time>2026-04-04T14:55:46.977Z</time></trkpt><trkpt lat="44.78982" lon="10.319065"><ele>64.0</ele><time>2026-04-04T14:55:47.976Z</time></trkpt><trkpt lat="44.78973" lon="10.31917"><ele>63.800000000000004</ele><time>2026-04-04T14:55:49.976Z</time></trkpt><trkpt lat="44.7896833" lon="10.319235"><ele>63.60000000000001</ele><time>2026-04-04T14:55:50.976Z</time></trkpt><trkpt lat="44.7896083" lon="10.3193517"><ele>63.4</ele><time>2026-04-04T14:55:52.977Z</time></trkpt><trkpt lat="44.78954" lon="10.3194617"><ele>63.2</ele><time>2026-04-04T14:55:54.977Z</time></trkpt><trkpt lat="44.78945" lon="10.3195817"><ele>63.0</ele><time>2026-04-04T14:55:56.977Z</time></trkpt><trkpt lat="44.789385" lon="10.3196717"><ele>63.4</ele><time>2026-04-04T14:55:57.976Z</time></trkpt><trkpt lat="44.78932" lon="10.3197767"><ele>63.8</ele><time>2026-04-04T14:55:58.977Z</time></trkpt><trkpt lat="44.789245" lon="10.3198817"><ele>64.2</ele><time>2026-04-04T14:55:59.976Z</time></trkpt><trkpt lat="44.789175" lon="10.319975"><ele>64.6</ele><time>2026-04-04T14:56:00.976Z</time></trkpt><trkpt lat="44.789095" lon="10.3200633"><ele>65.0</ele><time>2026-04-04T14:56:01.977Z</time></trkpt><trkpt lat="44.7890133" lon="10.3201617"><ele>65.0</ele><time>2026-04-04T14:56:02.976Z</time></trkpt><trkpt lat="44.7889267" lon="10.3202683"><ele>65.0</ele><time>2026-04-04T14:56:03.976Z</time></trkpt><trkpt lat="44.7888283" lon="10.3204033"><ele>65.0</ele><time>2026-04-04T14:56:04.976Z</time></trkpt><trkpt lat="44.78872" lon="10.3205483"><ele>65.0</ele><time>2026-04-04T14:56:05.976Z</time></trkpt><trkpt lat="44.7886017" lon="10.3206817"><ele>65.0</ele><time>2026-04-04T14:56:06.977Z</time></trkpt><trkpt lat="44.788485" lon="10.3208217"><ele>65.0</ele><time>2026-04-04T14:56:07.976Z</time></trkpt><trkpt lat="44.7883833" lon="10.3209367"><ele>65.0</ele><time>2026-04-04T14:56:08.976Z</time></trkpt><trkpt lat="44.788285" lon="10.3210783"><ele>65.0</ele><time>2026-04-04T14:56:09.976Z</time></trkpt><trkpt lat="44.788195" lon="10.3212083"><ele>65.0</ele><time>2026-04-04T14:56:10.976Z</time></trkpt><trkpt lat="44.7881083" lon="10.32133"><ele>65.0</ele><time>2026-04-04T14:56:11.976Z</time></trkpt><trkpt lat="44.7880217" lon="10.321445"><ele>65.0</ele><time>2026-04-04T14:56:12.977Z</time></trkpt><trkpt lat="44.7879433" lon="10.32155"><ele>65.0</ele><time>2026-04-04T14:56:13.976Z</time></trkpt><trkpt lat="44.7878767" lon="10.321645"><ele>65.0</ele><time>2026-04-04T14:56:14.976Z</time></trkpt><trkpt lat="44.7878067" lon="10.3217417"><ele>65.0</ele><time>2026-04-04T14:56:15.976Z</time></trkpt><trkpt lat="44.787735" lon="10.321825"><ele>65.0</ele><time>2026-04-04T14:56:16.977Z</time></trkpt><trkpt lat="44.7876567" lon="10.3219467"><ele>65.0</ele><time>2026-04-04T14:56:17.977Z</time></trkpt><trkpt lat="44.78757" lon="10.3220467"><ele>65.0</ele><time>2026-04-04T14:56:18.977Z</time></trkpt><trkpt lat="44.7874833" lon="10.3221533"><ele>65.0</ele><time>2026-04-04T14:56:19.976Z</time></trkpt><trkpt lat="44.7873867" lon="10.322265"><ele>65.25</ele><time>2026-04-04T14:56:20.977Z</time></trkpt><trkpt lat="44.78729" lon="10.3223867"><ele>65.5</ele><time>2026-04-04T14:56:21.976Z</time></trkpt><trkpt lat="44.78719" lon="10.3225083"><ele>65.75</ele><time>2026-04-04T14:56:22.976Z</time></trkpt><trkpt lat="44.7870867" lon="10.3226433"><ele>66.0</ele><time>2026-04-04T14:56:23.976Z</time></trkpt><trkpt lat="44.7869883" lon="10.322775"><ele>66.0</ele><time>2026-04-04T14:56:24.976Z</time></trkpt><trkpt lat="44.7869133" lon="10.32289"><ele>66.0</ele><time>2026-04-04T14:56:25.977Z</time></trkpt><trkpt lat="44.7868483" lon="10.3230067"><ele>66.0</ele><time>2026-04-04T14:56:26.976Z</time></trkpt><trkpt lat="44.7867967" lon="10.32309"><ele>66.0</ele><time>2026-04-04T14:56:27.976Z</time></trkpt><trkpt lat="44.78672" lon="10.323195"><ele>66.0</ele><time>2026-04-04T14:56:29.976Z</time></trkpt><trkpt lat="44.7866617" lon="10.3232617"><ele>65.6</ele><time>2026-04-04T14:56:31.977Z</time></trkpt><trkpt lat="44.7865967" lon="10.3233383"><ele>65.19999999999999</ele><time>2026-04-04T14:56:34.976Z</time></trkpt><trkpt lat="44.786505" lon="10.3234"><ele>64.80000000000001</ele><time>2026-04-04T14:56:37.977Z</time></trkpt><trkpt lat="44.7864117" lon="10.3234433"><ele>64.4</ele><time>2026-04-04T14:56:39.976Z</time></trkpt><trkpt lat="44.78632" lon="10.32351"><ele>64.0</ele><time>2026-04-04T14:56:41.977Z</time></trkpt><trkpt lat="44.7862733" lon="10.323585"><ele>63.99999999999999</ele><time>2026-04-04T14:56:42.976Z</time></trkpt><trkpt lat="44.78622" lon="10.323655"><ele>64.0</ele><time>2026-04-04T14:56:43.976Z</time></trkpt><trkpt lat="44.7861567" lon="10.3237033"><ele>64.0</ele><time>2026-04-04T14:56:44.977Z</time></trkpt><trkpt lat="44.7860683" lon="10.3237583"><ele>64.0</ele><time>2026-04-04T14:56:45.976Z</time></trkpt><trkpt lat="44.7859733" lon="10.3238033"><ele>63.99999999999999</ele><time>2026-04-04T14:56:46.976Z</time></trkpt><trkpt lat="44.7858733" lon="10.3238283"><ele>64.0</ele><time>2026-04-04T14:56:47.977Z</time></trkpt><trkpt lat="44.7857467" lon="10.323845"><ele>65.25</ele><time>2026-04-04T14:56:48.976Z</time></trkpt><trkpt lat="44.78561" lon="10.3238567"><ele>66.5</ele><time>2026-04-04T14:56:49.976Z</time></trkpt><trkpt lat="44.7854717" lon="10.323865"><ele>67.75</ele><time>2026-04-04T14:56:50.976Z</time></trkpt><trkpt lat="44.7853483" lon="10.3238833"><ele>69.0</ele><time>2026-04-04T14:56:51.976Z</time></trkpt><trkpt lat="44.7852467" lon="10.323885"><ele>68.8</ele><time>2026-04-04T14:56:52.977Z</time></trkpt><trkpt lat="44.78514" lon="10.3238933"><ele>68.60000000000001</ele><time>2026-04-04T14:56:53.976Z</time></trkpt><trkpt lat="44.7850283" lon="10.3238967"><ele>68.4</ele><time>2026-04-04T14:56:54.976Z</time></trkpt><trkpt lat="44.78492" lon="10.3238983"><ele>68.2</ele><time>2026-04-04T14:56:55.977Z</time></trkpt><trkpt lat="44.784805" lon="10.3238983"><ele>68.0</ele><time>2026-04-04T14:56:56.977Z</time></trkpt><trkpt lat="44.7846733" lon="10.3239083"><ele>69.0</ele><time>2026-04-04T14:56:57.976Z</time></trkpt><trkpt lat="44.7845233" lon="10.3239183"><ele>70.0</ele><time>2026-04-04T14:56:58.977Z</time></trkpt><trkpt lat="44.7843717" lon="10.3239317"><ele>71.0</ele><time>2026-04-04T14:56:59.976Z</time></trkpt><trkpt lat="44.78419" lon="10.323915"><ele>71.0</ele><time>2026-04-04T14:57:00.977Z</time></trkpt><trkpt lat="44.78403" lon="10.323935"><ele>71.0</ele><time>2026-04-04T14:57:01.977Z</time></trkpt><trkpt lat="44.783865" lon="10.3239583"><ele>71.0</ele><time>2026-04-04T14:57:02.976Z</time></trkpt><trkpt lat="44.7837133" lon="10.323985"><ele>71.0</ele><time>2026-04-04T14:57:03.976Z</time></trkpt><trkpt lat="44.78356" lon="10.3240233"><ele>71.0</ele><time>2026-04-04T14:57:04.977Z</time></trkpt><trkpt lat="44.78342" lon="10.3240533"><ele>71.0</ele><time>2026-04-04T14:57:05.976Z</time></trkpt><trkpt lat="44.7832817" lon="10.3240783"><ele>71.0</ele><time>2026-04-04T14:57:06.977Z</time></trkpt><trkpt lat="44.78315" lon="10.3240783"><ele>70.5</ele><time>2026-04-04T14:57:07.977Z</time></trkpt><trkpt lat="44.7830183" lon="10.3240867"><ele>70.0</ele><time>2026-04-04T14:57:08.976Z</time></trkpt><trkpt lat="44.7829083" lon="10.3240817"><ele>69.5</ele><time>2026-04-04T14:57:09.976Z</time></trkpt><trkpt lat="44.7827983" lon="10.3240867"><ele>69.0</ele><time>2026-04-04T14:57:10.976Z</time></trkpt><trkpt lat="44.7826817" lon="10.32407"><ele>69.0</ele><time>2026-04-04T14:57:11.977Z</time></trkpt><trkpt lat="44.78256" lon="10.3240283"><ele>69.0</ele><time>2026-04-04T14:57:12.976Z</time></trkpt><trkpt lat="44.7824383" lon="10.3239633"><ele>69.0</ele><time>2026-04-04T14:57:13.976Z</time></trkpt><trkpt lat="44.782315" lon="10.3238767"><ele>69.0</ele><time>2026-04-04T14:57:14.976Z</time></trkpt><trkpt lat="44.78219" lon="10.323755"><ele>69.0</ele><time>2026-04-04T14:57:15.976Z</time></trkpt><trkpt lat="44.7820533" lon="10.3236283"><ele>69.0</ele><time>2026-04-04T14:57:16.976Z</time></trkpt><trkpt lat="44.7818967" lon="10.32351"><ele>69.0</ele><time>2026-04-04T14:57:17.976Z</time></trkpt><trkpt lat="44.781745" lon="10.3234067"><ele>69.25</ele><time>2026-04-04T14:57:18.976Z</time></trkpt><trkpt lat="44.7816217" lon="10.3233167"><ele>69.5</ele><time>2026-04-04T14:57:19.976Z</time></trkpt><trkpt lat="44.78149" lon="10.32326"><ele>69.75</ele><time>2026-04-04T14:57:20.976Z</time></trkpt><trkpt lat="44.7813633" lon="10.3231933"><ele>70.0</ele><time>2026-04-04T14:57:21.976Z</time></trkpt><trkpt lat="44.781245" lon="10.3231183"><ele>70.0</ele><time>2026-04-04T14:57:22.976Z</time></trkpt><trkpt lat="44.78114" lon="10.323065"><ele>70.0</ele><time>2026-04-04T14:57:23.976Z</time></trkpt><trkpt lat="44.7810483" lon="10.3230117"><ele>70.0</ele><time>2026-04-04T14:57:24.977Z</time></trkpt><trkpt lat="44.7809583" lon="10.3229633"><ele>70.0</ele><time>2026-04-04T14:57:25.977Z</time></trkpt><trkpt lat="44.7808767" lon="10.322915"><ele>70.0</ele><time>2026-04-04T14:57:26.976Z</time></trkpt><trkpt lat="44.780805" lon="10.3228833"><ele>70.0</ele><time>2026-04-04T14:57:27.977Z</time></trkpt><trkpt lat="44.7807383" lon="10.322895"><ele>70.0</ele><time>2026-04-04T14:57:28.977Z</time></trkpt><trkpt lat="44.780675" lon="10.3229583"><ele>70.0</ele><time>2026-04-04T14:57:29.977Z</time></trkpt><trkpt lat="44.7805767" lon="10.3230183"><ele>70.0</ele><time>2026-04-04T14:57:30.976Z</time></trkpt><trkpt lat="44.7804617" lon="10.32307"><ele>70.0</ele><time>2026-04-04T14:57:31.977Z</time></trkpt><trkpt lat="44.7803467" lon="10.3230933"><ele>70.25</ele><time>2026-04-04T14:57:32.976Z</time></trkpt><trkpt lat="44.78021" lon="10.3231133"><ele>70.5</ele><time>2026-04-04T14:57:33.976Z</time></trkpt><trkpt lat="44.7800733" lon="10.3231233"><ele>70.75</ele><time>2026-04-04T14:57:34.977Z</time></trkpt><trkpt lat="44.7799267" lon="10.3231333"><ele>71.0</ele><time>2026-04-04T14:57:35.977Z</time></trkpt><trkpt lat="44.77978" lon="10.32316"><ele>70.33333333333334</ele><time>2026-04-04T14:57:36.976Z</time></trkpt><trkpt lat="44.7796267" lon="10.323165"><ele>69.66666666666667</ele><time>2026-04-04T14:57:37.977Z</time></trkpt><trkpt lat="44.779475" lon="10.3231733"><ele>69.0</ele><time>2026-04-04T14:57:38.977Z</time></trkpt><trkpt lat="44.7793267" lon="10.3231867"><ele>69.0</ele><time>2026-04-04T14:57:39.977Z</time></trkpt><trkpt lat="44.7791867" lon="10.3232033"><ele>69.0</ele><time>2026-04-04T14:57:40.976Z</time></trkpt><trkpt lat="44.7790383" lon="10.3232067"><ele>69.0</ele><time>2026-04-04T14:57:41.976Z</time></trkpt><trkpt lat="44.778895" lon="10.3231867"><ele>69.0</ele><time>2026-04-04T14:57:42.976Z</time></trkpt><trkpt lat="44.7787433" lon="10.3231667"><ele>69.0</ele><time>2026-04-04T14:57:43.976Z</time></trkpt><trkpt lat="44.778605" lon="10.3231133"><ele>69.0</ele><time>2026-04-04T14:57:44.977Z</time></trkpt><trkpt lat="44.7784667" lon="10.3230367"><ele>69.0</ele><time>2026-04-04T14:57:45.977Z</time></trkpt><trkpt lat="44.7783333" lon="10.3229767"><ele>69.0</ele><time>2026-04-04T14:57:46.976Z</time></trkpt><trkpt lat="44.7782033" lon="10.3229183"><ele>69.25</ele><time>2026-04-04T14:57:47.976Z</time></trkpt><trkpt lat="44.7780767" lon="10.322865"><ele>69.5</ele><time>2026-04-04T14:57:48.976Z</time></trkpt><trkpt lat="44.77794" lon="10.322805"><ele>69.75</ele><time>2026-04-04T14:57:49.976Z</time></trkpt><trkpt lat="44.7778083" lon="10.3227533"><ele>70.0</ele><time>2026-04-04T14:57:50.977Z</time></trkpt><trkpt lat="44.7776867" lon="10.3227083"><ele>70.25</ele><time>2026-04-04T14:57:51.976Z</time></trkpt><trkpt lat="44.7775767" lon="10.3226567"><ele>70.5</ele><time>2026-04-04T14:57:52.976Z</time></trkpt><trkpt lat="44.7774617" lon="10.3226067"><ele>70.75</ele><time>2026-04-04T14:57:53.976Z</time></trkpt><trkpt lat="44.7773333" lon="10.3225467"><ele>71.0</ele><time>2026-04-04T14:57:54.976Z</time></trkpt><trkpt lat="44.777195" lon="10.3224917"><ele>71.0</ele><time>2026-04-04T14:57:55.977Z</time></trkpt><trkpt lat="44.777055" lon="10.3224383"><ele>71.0</ele><time>2026-04-04T14:57:56.976Z</time></trkpt><trkpt lat="44.7769083" lon="10.3223783"><ele>71.0</ele><time>2026-04-04T14:57:57.976Z</time></trkpt><trkpt lat="44.776765" lon="10.3223233"><ele>71.0</ele><time>2026-04-04T14:57:58.976Z</time></trkpt><trkpt lat="44.7766367" lon="10.3222683"><ele>71.0</ele><time>2026-04-04T14:57:59.976Z</time></trkpt><trkpt lat="44.7765167" lon="10.3222233"><ele>71.0</ele><time>2026-04-04T14:58:00.976Z</time></trkpt><trkpt lat="44.7764133" lon="10.322185"><ele>71.0</ele><time>2026-04-04T14:58:01.977Z</time></trkpt><trkpt lat="44.7763367" lon="10.3221683"><ele>71.0</ele><time>2026-04-04T14:58:02.977Z</time></trkpt><trkpt lat="44.776245" lon="10.3221533"><ele>71.0</ele><time>2026-04-04T14:58:04.976Z</time></trkpt><trkpt lat="44.77617" lon="10.3221233"><ele>71.0</ele><time>2026-04-04T14:58:06.977Z</time></trkpt><trkpt lat="44.7760467" lon="10.3220883"><ele>71.0</ele><time>2026-04-04T14:58:08.976Z</time></trkpt><trkpt lat="44.7759817" lon="10.3221283"><ele>71.0</ele><time>2026-04-04T14:58:09.976Z</time></trkpt><trkpt lat="44.7759367" lon="10.3221967"><ele>71.0</ele><time>2026-04-04T14:58:10.976Z</time></trkpt><trkpt lat="44.7759267" lon="10.3223033"><ele>71.0</ele><time>2026-04-04T14:58:11.977Z</time></trkpt><trkpt lat="44.7759633" lon="10.3224433"><ele>71.0</ele><time>2026-04-04T14:58:12.976Z</time></trkpt><trkpt lat="44.77602" lon="10.3226083"><ele>71.0</ele><time>2026-04-04T14:58:13.976Z</time></trkpt><trkpt lat="44.776085" lon="10.3227983"><ele>71.0</ele><time>2026-04-04T14:58:14.976Z</time></trkpt><trkpt lat="44.77613" lon="10.3230083"><ele>71.0</ele><time>2026-04-04T14:58:15.977Z</time></trkpt><trkpt lat="44.7761633" lon="10.3232217"><ele>70.66666666666667</ele><time>2026-04-04T14:58:16.976Z</time></trkpt><trkpt lat="44.7761833" lon="10.3234433"><ele>70.33333333333333</ele><time>2026-04-04T14:58:17.976Z</time></trkpt><trkpt lat="44.7762033" lon="10.323685"><ele>70.0</ele><time>2026-04-04T14:58:18.977Z</time></trkpt><trkpt lat="44.776215" lon="10.3239383"><ele>70.0</ele><time>2026-04-04T14:58:19.976Z</time></trkpt><trkpt lat="44.77621" lon="10.3241917"><ele>70.0</ele><time>2026-04-04T14:58:20.976Z</time></trkpt><trkpt lat="44.7761883" lon="10.3244433"><ele>70.0</ele><time>2026-04-04T14:58:21.977Z</time></trkpt><trkpt lat="44.7761633" lon="10.32471"><ele>69.66666666666666</ele><time>2026-04-04T14:58:22.976Z</time></trkpt><trkpt lat="44.776145" lon="10.3249983"><ele>69.33333333333333</ele><time>2026-04-04T14:58:23.976Z</time></trkpt><trkpt lat="44.7761317" lon="10.3252883"><ele>69.0</ele><time>2026-04-04T14:58:24.976Z</time></trkpt><trkpt lat="44.7761167" lon="10.325585"><ele>69.0</ele><time>2026-04-04T14:58:25.977Z</time></trkpt><trkpt lat="44.7761017" lon="10.32588"><ele>69.0</ele><time>2026-04-04T14:58:26.976Z</time></trkpt><trkpt lat="44.7760933" lon="10.3261717"><ele>69.0</ele><time>2026-04-04T14:58:27.976Z</time></trkpt><trkpt lat="44.7760767" lon="10.3264717"><ele>69.33333333333333</ele><time>2026-04-04T14:58:28.976Z</time></trkpt><trkpt lat="44.7760567" lon="10.32677"><ele>69.66666666666666</ele><time>2026-04-04T14:58:29.976Z</time></trkpt><trkpt lat="44.77604" lon="10.3270633"><ele>70.0</ele><time>2026-04-04T14:58:30.977Z</time></trkpt><trkpt lat="44.7760217" lon="10.32735"><ele>70.0</ele><time>2026-04-04T14:58:31.977Z</time></trkpt><trkpt lat="44.7760133" lon="10.3276317"><ele>70.0</ele><time>2026-04-04T14:58:32.976Z</time></trkpt><trkpt lat="44.77599" lon="10.3278983"><ele>70.0</ele><time>2026-04-04T14:58:33.976Z</time></trkpt><trkpt lat="44.77597" lon="10.3281667"><ele>70.33333333333333</ele><time>2026-04-04T14:58:34.977Z</time></trkpt><trkpt lat="44.7759517" lon="10.328425"><ele>70.66666666666667</ele><time>2026-04-04T14:58:35.977Z</time></trkpt><trkpt lat="44.7759283" lon="10.32867"><ele>71.0</ele><time>2026-04-04T14:58:36.977Z</time></trkpt><trkpt lat="44.7759" lon="10.3289033"><ele>71.25</ele><time>2026-04-04T14:58:37.977Z</time></trkpt><trkpt lat="44.775875" lon="10.329115"><ele>71.5</ele><time>2026-04-04T14:58:38.976Z</time></trkpt><trkpt lat="44.7758567" lon="10.3292933"><ele>71.75</ele><time>2026-04-04T14:58:39.977Z</time></trkpt><trkpt lat="44.775845" lon="10.32944"><ele>72.0</ele><time>2026-04-04T14:58:40.976Z</time></trkpt><trkpt lat="44.77583" lon="10.3295667"><ele>72.00000000000001</ele><time>2026-04-04T14:58:41.976Z</time></trkpt><trkpt lat="44.7758167" lon="10.3296567"><ele>72.0</ele><time>2026-04-04T14:58:42.976Z</time></trkpt><trkpt lat="44.7757883" lon="10.32974"><ele>72.0</ele><time>2026-04-04T14:58:43.976Z</time></trkpt><trkpt lat="44.7757483" lon="10.32981"><ele>72.0</ele><time>2026-04-04T14:58:44.976Z</time></trkpt><trkpt lat="44.7756917" lon="10.3298617"><ele>72.0</ele><time>2026-04-04T14:58:45.976Z</time></trkpt><trkpt lat="44.7756083" lon="10.3298917"><ele>72.00000000000001</ele><time>2026-04-04T14:58:46.976Z</time></trkpt><trkpt lat="44.7755167" lon="10.3299283"><ele>72.0</ele><time>2026-04-04T14:58:47.976Z</time></trkpt><trkpt lat="44.7754417" lon="10.3300067"><ele>72.4</ele><time>2026-04-04T14:58:48.976Z</time></trkpt><trkpt lat="44.7753917" lon="10.3301267"><ele>72.80000000000001</ele><time>2026-04-04T14:58:49.976Z</time></trkpt><trkpt lat="44.775375" lon="10.3302617"><ele>73.2</ele><time>2026-04-04T14:58:50.977Z</time></trkpt><trkpt lat="44.77536" lon="10.330375"><ele>73.60000000000001</ele><time>2026-04-04T14:58:51.976Z</time></trkpt><trkpt lat="44.7752817" lon="10.3305"><ele>74.0</ele><time>2026-04-04T14:58:53.976Z</time></trkpt><trkpt lat="44.7752083" lon="10.3305083"><ele>73.25</ele><time>2026-04-04T14:58:54.976Z</time></trkpt><trkpt lat="44.775125" lon="10.33048"><ele>72.5</ele><time>2026-04-04T14:58:55.976Z</time></trkpt><trkpt lat="44.7750183" lon="10.3304367"><ele>71.75</ele><time>2026-04-04T14:58:56.976Z</time></trkpt><trkpt lat="44.7748883" lon="10.3303883"><ele>71.0</ele><time>2026-04-04T14:58:57.976Z</time></trkpt><trkpt lat="44.7747383" lon="10.330335"><ele>71.0</ele><time>2026-04-04T14:58:58.976Z</time></trkpt><trkpt lat="44.7745733" lon="10.330275"><ele>71.0</ele><time>2026-04-04T14:58:59.976Z</time></trkpt><trkpt lat="44.7743983" lon="10.33022"><ele>71.0</ele><time>2026-04-04T14:59:00.976Z</time></trkpt><trkpt lat="44.7742183" lon="10.3301683"><ele>71.0</ele><time>2026-04-04T14:59:01.977Z</time></trkpt><trkpt lat="44.7740383" lon="10.3301183"><ele>71.0</ele><time>2026-04-04T14:59:02.976Z</time></trkpt><trkpt lat="44.77386" lon="10.3300883"><ele>71.0</ele><time>2026-04-04T14:59:03.976Z</time></trkpt><trkpt lat="44.773685" lon="10.33005"><ele>71.66666666666667</ele><time>2026-04-04T14:59:04.976Z</time></trkpt><trkpt lat="44.77351" lon="10.330005"><ele>72.33333333333333</ele><time>2026-04-04T14:59:05.976Z</time></trkpt><trkpt lat="44.7733333" lon="10.3299533"><ele>73.0</ele><time>2026-04-04T14:59:06.976Z</time></trkpt><trkpt lat="44.7731483" lon="10.3298983"><ele>73.0</ele><time>2026-04-04T14:59:07.977Z</time></trkpt><trkpt lat="44.77296" lon="10.329855"><ele>73.0</ele><time>2026-04-04T14:59:08.977Z</time></trkpt><trkpt lat="44.7727617" lon="10.3298267"><ele>73.0</ele><time>2026-04-04T14:59:09.976Z</time></trkpt><trkpt lat="44.7725633" lon="10.3298167"><ele>73.66666666666666</ele><time>2026-04-04T14:59:10.976Z</time></trkpt><trkpt lat="44.772375" lon="10.329815"><ele>74.33333333333333</ele><time>2026-04-04T14:59:11.976Z</time></trkpt><trkpt lat="44.7721783" lon="10.3298333"><ele>75.0</ele><time>2026-04-04T14:59:12.976Z</time></trkpt><trkpt lat="44.771995" lon="10.3298617"><ele>74.33333333333333</ele><time>2026-04-04T14:59:13.976Z</time></trkpt><trkpt lat="44.7718233" lon="10.3299133"><ele>73.66666666666666</ele><time>2026-04-04T14:59:14.976Z</time></trkpt><trkpt lat="44.771665" lon="10.3299783"><ele>73.0</ele><time>2026-04-04T14:59:15.976Z</time></trkpt><trkpt lat="44.7715117" lon="10.330045"><ele>73.0</ele><time>2026-04-04T14:59:16.976Z</time></trkpt><trkpt lat="44.7713567" lon="10.3301017"><ele>73.0</ele><time>2026-04-04T14:59:17.977Z</time></trkpt><trkpt lat="44.7711933" lon="10.3301567"><ele>73.0</ele><time>2026-04-04T14:59:18.977Z</time></trkpt><trkpt lat="44.7710233" lon="10.3302167"><ele>73.33333333333333</ele><time>2026-04-04T14:59:19.976Z</time></trkpt><trkpt lat="44.77085" lon="10.33028"><ele>73.66666666666667</ele><time>2026-04-04T14:59:20.976Z</time></trkpt><trkpt lat="44.7706783" lon="10.33033"><ele>74.0</ele><time>2026-04-04T14:59:21.976Z</time></trkpt><trkpt lat="44.770515" lon="10.3303833"><ele>74.0</ele><time>2026-04-04T14:59:22.977Z</time></trkpt><trkpt lat="44.7703667" lon="10.33043"><ele>74.0</ele><time>2026-04-04T14:59:23.977Z</time></trkpt><trkpt lat="44.770235" lon="10.3304767"><ele>74.0</ele><time>2026-04-04T14:59:24.976Z</time></trkpt><trkpt lat="44.7701083" lon="10.33051"><ele>74.0</ele><time>2026-04-04T14:59:25.977Z</time></trkpt><trkpt lat="44.7699867" lon="10.3305533"><ele>74.25</ele><time>2026-04-04T14:59:26.977Z</time></trkpt><trkpt lat="44.7698467" lon="10.3305883"><ele>74.5</ele><time>2026-04-04T14:59:27.977Z</time></trkpt><trkpt lat="44.769725" lon="10.330635"><ele>74.75</ele><time>2026-04-04T14:59:28.977Z</time></trkpt><trkpt lat="44.7695983" lon="10.3306717"><ele>75.0</ele><time>2026-04-04T14:59:29.977Z</time></trkpt><trkpt lat="44.7694733" lon="10.3307217"><ele>75.0</ele><time>2026-04-04T14:59:30.976Z</time></trkpt><trkpt lat="44.7693583" lon="10.3307567"><ele>75.0</ele><time>2026-04-04T14:59:31.976Z</time></trkpt><trkpt lat="44.769235" lon="10.330795"><ele>75.0</ele><time>2026-04-04T14:59:32.976Z</time></trkpt><trkpt lat="44.7691083" lon="10.3308367"><ele>75.0</ele><time>2026-04-04T14:59:33.976Z</time></trkpt><trkpt lat="44.7689783" lon="10.3308867"><ele>75.0</ele><time>2026-04-04T14:59:34.976Z</time></trkpt><trkpt lat="44.76883" lon="10.330965"><ele>75.0</ele><time>2026-04-04T14:59:35.976Z</time></trkpt><trkpt lat="44.7686717" lon="10.3310517"><ele>75.0</ele><time>2026-04-04T14:59:36.977Z</time></trkpt><trkpt lat="44.7685" lon="10.3311433"><ele>76.0</ele><time>2026-04-04T14:59:37.976Z</time></trkpt><trkpt lat="44.76834" lon="10.3312283"><ele>77.0</ele><time>2026-04-04T14:59:38.977Z</time></trkpt><trkpt lat="44.76819" lon="10.3313067"><ele>78.0</ele><time>2026-04-04T14:59:39.976Z</time></trkpt><trkpt lat="44.7680567" lon="10.3313833"><ele>77.5</ele><time>2026-04-04T14:59:40.977Z</time></trkpt><trkpt lat="44.7679383" lon="10.3314583"><ele>77.0</ele><time>2026-04-04T14:59:41.976Z</time></trkpt><trkpt lat="44.7678233" lon="10.3315283"><ele>76.5</ele><time>2026-04-04T14:59:42.977Z</time></trkpt><trkpt lat="44.767715" lon="10.331615"><ele>76.0</ele><time>2026-04-04T14:59:43.977Z</time></trkpt><trkpt lat="44.7676033" lon="10.3317067"><ele>76.0</ele><time>2026-04-04T14:59:44.976Z</time></trkpt><trkpt lat="44.7674983" lon="10.33182"><ele>76.0</ele><time>2026-04-04T14:59:45.976Z</time></trkpt><trkpt lat="44.7674" lon="10.331945"><ele>76.0</ele><time>2026-04-04T14:59:46.977Z</time></trkpt><trkpt lat="44.7672967" lon="10.332075"><ele>76.0</ele><time>2026-04-04T14:59:47.976Z</time></trkpt><trkpt lat="44.76719" lon="10.33221"><ele>76.33333333333333</ele><time>2026-04-04T14:59:48.976Z</time></trkpt><trkpt lat="44.767075" lon="10.3323567"><ele>76.66666666666667</ele><time>2026-04-04T14:59:49.976Z</time></trkpt><trkpt lat="44.7669433" lon="10.3325067"><ele>77.0</ele><time>2026-04-04T14:59:50.977Z</time></trkpt><trkpt lat="44.7667967" lon="10.3326533"><ele>77.0</ele><time>2026-04-04T14:59:51.976Z</time></trkpt><trkpt lat="44.76663" lon="10.332795"><ele>77.0</ele><time>2026-04-04T14:59:52.976Z</time></trkpt><trkpt lat="44.7664633" lon="10.332935"><ele>77.0</ele><time>2026-04-04T14:59:53.976Z</time></trkpt><trkpt lat="44.76629" lon="10.33308"><ele>77.33333333333334</ele><time>2026-04-04T14:59:54.977Z</time></trkpt><trkpt lat="44.7661083" lon="10.3332333"><ele>77.66666666666667</ele><time>2026-04-04T14:59:55.976Z</time></trkpt><trkpt lat="44.7659367" lon="10.3334017"><ele>78.0</ele><time>2026-04-04T14:59:56.976Z</time></trkpt><trkpt lat="44.7657667" lon="10.333595"><ele>78.0</ele><time>2026-04-04T14:59:57.976Z</time></trkpt><trkpt lat="44.76559" lon="10.3338183"><ele>78.0</ele><time>2026-04-04T14:59:58.977Z</time></trkpt><trkpt lat="44.765415" lon="10.334035"><ele>78.0</ele><time>2026-04-04T14:59:59.977Z</time></trkpt><trkpt lat="44.765245" lon="10.3342383"><ele>78.0</ele><time>2026-04-04T15:00:00.977Z</time></trkpt><trkpt lat="44.765075" lon="10.3344417"><ele>78.0</ele><time>2026-04-04T15:00:01.977Z</time></trkpt><trkpt lat="44.7649083" lon="10.334655"><ele>77.66666666666667</ele><time>2026-04-04T15:00:02.977Z</time></trkpt><trkpt lat="44.7647383" lon="10.3348517"><ele>77.33333333333334</ele><time>2026-04-04T15:00:03.976Z</time></trkpt><trkpt lat="44.7645683" lon="10.3350433"><ele>77.0</ele><time>2026-04-04T15:00:04.976Z</time></trkpt><trkpt lat="44.7644017" lon="10.3352383"><ele>77.66666666666667</ele><time>2026-04-04T15:00:05.976Z</time></trkpt><trkpt lat="44.7642317" lon="10.335435"><ele>78.33333333333333</ele><time>2026-04-04T15:00:06.976Z</time></trkpt><trkpt lat="44.7640583" lon="10.3356333"><ele>79.0</ele><time>2026-04-04T15:00:07.977Z</time></trkpt><trkpt lat="44.763895" lon="10.33581"><ele>79.0</ele><time>2026-04-04T15:00:08.976Z</time></trkpt><trkpt lat="44.7637417" lon="10.3359917"><ele>79.0</ele><time>2026-04-04T15:00:09.977Z</time></trkpt><trkpt lat="44.7635883" lon="10.3361567"><ele>79.0</ele><time>2026-04-04T15:00:10.976Z</time></trkpt><trkpt lat="44.7634283" lon="10.33629"><ele>78.33333333333333</ele><time>2026-04-04T15:00:11.976Z</time></trkpt><trkpt lat="44.7632617" lon="10.3363967"><ele>77.66666666666667</ele><time>2026-04-04T15:00:12.976Z</time></trkpt><trkpt lat="44.763065" lon="10.3364667"><ele>77.0</ele><time>2026-04-04T15:00:13.976Z</time></trkpt><trkpt lat="44.762865" lon="10.3365117"><ele>77.33333333333334</ele><time>2026-04-04T15:00:14.976Z</time></trkpt><trkpt lat="44.7626517" lon="10.336565"><ele>77.66666666666667</ele><time>2026-04-04T15:00:15.976Z</time></trkpt><trkpt lat="44.7624467" lon="10.3366483"><ele>78.0</ele><time>2026-04-04T15:00:16.977Z</time></trkpt><trkpt lat="44.762245" lon="10.33675"><ele>78.0</ele><time>2026-04-04T15:00:17.976Z</time></trkpt><trkpt lat="44.762045" lon="10.33685"><ele>78.0</ele><time>2026-04-04T15:00:18.976Z</time></trkpt><trkpt lat="44.76184" lon="10.3369517"><ele>78.0</ele><time>2026-04-04T15:00:19.976Z</time></trkpt><trkpt lat="44.7616333" lon="10.3370433"><ele>78.0</ele><time>2026-04-04T15:00:20.976Z</time></trkpt><trkpt lat="44.7614317" lon="10.33714"><ele>78.0</ele><time>2026-04-04T15:00:21.976Z</time></trkpt><trkpt lat="44.7612283" lon="10.33723"><ele>78.0</ele><time>2026-04-04T15:00:22.977Z</time></trkpt><trkpt lat="44.7610217" lon="10.3373233"><ele>78.0</ele><time>2026-04-04T15:00:23.976Z</time></trkpt><trkpt lat="44.7608167" lon="10.337415"><ele>78.0</ele><time>2026-04-04T15:00:24.976Z</time></trkpt><trkpt lat="44.7606083" lon="10.3375133"><ele>78.0</ele><time>2026-04-04T15:00:25.976Z</time></trkpt><trkpt lat="44.7604017" lon="10.33762"><ele>79.0</ele><time>2026-04-04T15:00:26.976Z</time></trkpt><trkpt lat="44.7601983" lon="10.3377317"><ele>80.0</ele><time>2026-04-04T15:00:27.977Z</time></trkpt><trkpt lat="44.7599983" lon="10.33784"><ele>81.0</ele><time>2026-04-04T15:00:28.976Z</time></trkpt><trkpt lat="44.7597917" lon="10.3379533"><ele>80.66666666666667</ele><time>2026-04-04T15:00:29.977Z</time></trkpt><trkpt lat="44.75959" lon="10.338065"><ele>80.33333333333334</ele><time>2026-04-04T15:00:30.977Z</time></trkpt><trkpt lat="44.7593867" lon="10.3381783"><ele>80.0</ele><time>2026-04-04T15:00:31.976Z</time></trkpt><trkpt lat="44.759195" lon="10.3382933"><ele>79.66666666666667</ele><time>2026-04-04T15:00:32.976Z</time></trkpt><trkpt lat="44.759" lon="10.3384167"><ele>79.33333333333333</ele><time>2026-04-04T15:00:33.976Z</time></trkpt><trkpt lat="44.7588083" lon="10.3385317"><ele>79.0</ele><time>2026-04-04T15:00:34.976Z</time></trkpt><trkpt lat="44.7586133" lon="10.3386533"><ele>80.0</ele><time>2026-04-04T15:00:35.976Z</time></trkpt><trkpt lat="44.7584267" lon="10.33877"><ele>81.0</ele><time>2026-04-04T15:00:36.977Z</time></trkpt><trkpt lat="44.758245" lon="10.3388967"><ele>82.0</ele><time>2026-04-04T15:00:37.976Z</time></trkpt><trkpt lat="44.75806" lon="10.339015"><ele>82.0</ele><time>2026-04-04T15:00:38.977Z</time></trkpt><trkpt lat="44.7578717" lon="10.3391383"><ele>82.0</ele><time>2026-04-04T15:00:39.976Z</time></trkpt><trkpt lat="44.757685" lon="10.3392583"><ele>82.0</ele><time>2026-04-04T15:00:40.976Z</time></trkpt><trkpt lat="44.7574983" lon="10.339375"><ele>82.33333333333333</ele><time>2026-04-04T15:00:41.976Z</time></trkpt><trkpt lat="44.7573117" lon="10.339505"><ele>82.66666666666667</ele><time>2026-04-04T15:00:42.976Z</time></trkpt><trkpt lat="44.7571217" lon="10.3396367"><ele>83.0</ele><time>2026-04-04T15:00:43.977Z</time></trkpt><trkpt lat="44.7569283" lon="10.3397667"><ele>83.0</ele><time>2026-04-04T15:00:44.977Z</time></trkpt><trkpt lat="44.7567333" lon="10.3398983"><ele>83.0</ele><time>2026-04-04T15:00:45.977Z</time></trkpt><trkpt lat="44.75654" lon="10.3400233"><ele>83.0</ele><time>2026-04-04T15:00:46.976Z</time></trkpt><trkpt lat="44.7563467" lon="10.3401683"><ele>83.0</ele><time>2026-04-04T15:00:47.976Z</time></trkpt><trkpt lat="44.7561467" lon="10.3403083"><ele>83.0</ele><time>2026-04-04T15:00:48.976Z</time></trkpt><trkpt lat="44.7559567" lon="10.340465"><ele>83.0</ele><time>2026-04-04T15:00:49.976Z</time></trkpt><trkpt lat="44.755755" lon="10.3406083"><ele>83.5</ele><time>2026-04-04T15:00:50.976Z</time></trkpt><trkpt lat="44.7555517" lon="10.3407467"><ele>84.0</ele><time>2026-04-04T15:00:51.976Z</time></trkpt><trkpt lat="44.75535" lon="10.3408833"><ele>84.33333333333333</ele><time>2026-04-04T15:00:52.976Z</time></trkpt><trkpt lat="44.75515" lon="10.341005"><ele>84.66666666666666</ele><time>2026-04-04T15:00:53.977Z</time></trkpt><trkpt lat="44.7549467" lon="10.3411017"><ele>85.0</ele><time>2026-04-04T15:00:54.977Z</time></trkpt><trkpt lat="44.7547467" lon="10.3411917"><ele>85.0</ele><time>2026-04-04T15:00:55.976Z</time></trkpt><trkpt lat="44.7545383" lon="10.3413033"><ele>85.0</ele><time>2026-04-04T15:00:56.976Z</time></trkpt><trkpt lat="44.7543283" lon="10.3414217"><ele>85.0</ele><time>2026-04-04T15:00:57.976Z</time></trkpt><trkpt lat="44.7541267" lon="10.3415483"><ele>85.0</ele><time>2026-04-04T15:00:58.976Z</time></trkpt><trkpt lat="44.7539217" lon="10.3416683"><ele>85.0</ele><time>2026-04-04T15:00:59.976Z</time></trkpt><trkpt lat="44.7537167" lon="10.3417833"><ele>85.0</ele><time>2026-04-04T15:01:00.976Z</time></trkpt><trkpt lat="44.753515" lon="10.3418883"><ele>85.0</ele><time>2026-04-04T15:01:01.976Z</time></trkpt><trkpt lat="44.7533183" lon="10.3420083"><ele>85.0</ele><time>2026-04-04T15:01:02.976Z</time></trkpt><trkpt lat="44.75313" lon="10.342175"><ele>85.0</ele><time>2026-04-04T15:01:03.977Z</time></trkpt><trkpt lat="44.7529567" lon="10.342365"><ele>85.0</ele><time>2026-04-04T15:01:04.976Z</time></trkpt><trkpt lat="44.752795" lon="10.34256"><ele>85.0</ele><time>2026-04-04T15:01:05.976Z</time></trkpt><trkpt lat="44.7526433" lon="10.3427617"><ele>85.0</ele><time>2026-04-04T15:01:06.976Z</time></trkpt><trkpt lat="44.7524867" lon="10.342965"><ele>85.66666666666666</ele><time>2026-04-04T15:01:07.977Z</time></trkpt><trkpt lat="44.752325" lon="10.34317"><ele>86.33333333333333</ele><time>2026-04-04T15:01:08.976Z</time></trkpt><trkpt lat="44.7521667" lon="10.343395"><ele>87.0</ele><time>2026-04-04T15:01:09.976Z</time></trkpt><trkpt lat="44.75202" lon="10.3436333"><ele>87.0</ele><time>2026-04-04T15:01:10.976Z</time></trkpt><trkpt lat="44.7518817" lon="10.343875"><ele>87.0</ele><time>2026-04-04T15:01:11.977Z</time></trkpt><trkpt lat="44.751745" lon="10.344115"><ele>87.0</ele><time>2026-04-04T15:01:12.977Z</time></trkpt><trkpt lat="44.751605" lon="10.3443517"><ele>87.0</ele><time>2026-04-04T15:01:13.977Z</time></trkpt><trkpt lat="44.751475" lon="10.344595"><ele>87.0</ele><time>2026-04-04T15:01:14.976Z</time></trkpt><trkpt lat="44.751345" lon="10.3448233"><ele>87.0</ele><time>2026-04-04T15:01:15.976Z</time></trkpt><trkpt lat="44.7512083" lon="10.3450483"><ele>87.0</ele><time>2026-04-04T15:01:16.977Z</time></trkpt><trkpt lat="44.751085" lon="10.3452483"><ele>87.0</ele><time>2026-04-04T15:01:17.976Z</time></trkpt><trkpt lat="44.7509633" lon="10.3454317"><ele>87.0</ele><time>2026-04-04T15:01:18.977Z</time></trkpt><trkpt lat="44.75083" lon="10.3456"><ele>87.66666666666667</ele><time>2026-04-04T15:01:19.977Z</time></trkpt><trkpt lat="44.7506983" lon="10.34576"><ele>88.33333333333334</ele><time>2026-04-04T15:01:20.976Z</time></trkpt><trkpt lat="44.75056" lon="10.3459283"><ele>89.0</ele><time>2026-04-04T15:01:21.976Z</time></trkpt><trkpt lat="44.75042" lon="10.346095"><ele>89.0</ele><time>2026-04-04T15:01:22.977Z</time></trkpt><trkpt lat="44.7502783" lon="10.34627"><ele>89.0</ele><time>2026-04-04T15:01:23.976Z</time></trkpt><trkpt lat="44.7501383" lon="10.3464383"><ele>89.0</ele><time>2026-04-04T15:01:24.976Z</time></trkpt><trkpt lat="44.7499883" lon="10.34661"><ele>89.33333333333334</ele><time>2026-04-04T15:01:25.976Z</time></trkpt><trkpt lat="44.7498333" lon="10.3467967"><ele>89.66666666666667</ele><time>2026-04-04T15:01:26.976Z</time></trkpt><trkpt lat="44.7496717" lon="10.3469817"><ele>90.0</ele><time>2026-04-04T15:01:27.976Z</time></trkpt><trkpt lat="44.7495083" lon="10.347155"><ele>90.33333333333333</ele><time>2026-04-04T15:01:28.976Z</time></trkpt><trkpt lat="44.7493333" lon="10.34731"><ele>90.66666666666666</ele><time>2026-04-04T15:01:29.976Z</time></trkpt><trkpt lat="44.74916" lon="10.3474583"><ele>91.0</ele><time>2026-04-04T15:01:30.976Z</time></trkpt><trkpt lat="44.748975" lon="10.3476183"><ele>91.0</ele><time>2026-04-04T15:01:31.977Z</time></trkpt><trkpt lat="44.748805" lon="10.3477817"><ele>91.0</ele><time>2026-04-04T15:01:32.976Z</time></trkpt><trkpt lat="44.7486517" lon="10.3479517"><ele>91.0</ele><time>2026-04-04T15:01:33.976Z</time></trkpt><trkpt lat="44.7485083" lon="10.3481317"><ele>91.0</ele><time>2026-04-04T15:01:34.976Z</time></trkpt><trkpt lat="44.7483817" lon="10.3483083"><ele>91.0</ele><time>2026-04-04T15:01:35.977Z</time></trkpt><trkpt lat="44.748255" lon="10.3484683"><ele>91.0</ele><time>2026-04-04T15:01:36.976Z</time></trkpt><trkpt lat="44.7481133" lon="10.348625"><ele>91.0</ele><time>2026-04-04T15:01:37.977Z</time></trkpt><trkpt lat="44.7479433" lon="10.3487517"><ele>91.0</ele><time>2026-04-04T15:01:38.976Z</time></trkpt><trkpt lat="44.7477433" lon="10.3488433"><ele>91.0</ele><time>2026-04-04T15:01:39.977Z</time></trkpt><trkpt lat="44.7475267" lon="10.3489267"><ele>90.5</ele><time>2026-04-04T15:01:40.977Z</time></trkpt><trkpt lat="44.747305" lon="10.3490117"><ele>90.0</ele><time>2026-04-04T15:01:41.977Z</time></trkpt><trkpt lat="44.7470883" lon="10.3491033"><ele>91.0</ele><time>2026-04-04T15:01:42.977Z</time></trkpt><trkpt lat="44.7468717" lon="10.3491867"><ele>92.0</ele><time>2026-04-04T15:01:43.976Z</time></trkpt><trkpt lat="44.746655" lon="10.3492767"><ele>92.0</ele><time>2026-04-04T15:01:44.977Z</time></trkpt><trkpt lat="44.74645" lon="10.3493633"><ele>92.0</ele><time>2026-04-04T15:01:45.976Z</time></trkpt><trkpt lat="44.7462383" lon="10.34945"><ele>92.0</ele><time>2026-04-04T15:01:46.976Z</time></trkpt><trkpt lat="44.7460333" lon="10.3495383"><ele>92.33333333333334</ele><time>2026-04-04T15:01:47.976Z</time></trkpt><trkpt lat="44.7458283" lon="10.3496283"><ele>92.66666666666667</ele><time>2026-04-04T15:01:48.977Z</time></trkpt><trkpt lat="44.74563" lon="10.3497183"><ele>93.0</ele><time>2026-04-04T15:01:49.977Z</time></trkpt><trkpt lat="44.7454233" lon="10.3498217"><ele>93.33333333333333</ele><time>2026-04-04T15:01:50.976Z</time></trkpt><trkpt lat="44.745225" lon="10.3499467"><ele>93.66666666666666</ele><time>2026-04-04T15:01:51.977Z</time></trkpt><trkpt lat="44.7450217" lon="10.350055"><ele>94.0</ele><time>2026-04-04T15:01:52.976Z</time></trkpt><trkpt lat="44.7448167" lon="10.3501683"><ele>93.66666666666666</ele><time>2026-04-04T15:01:53.976Z</time></trkpt><trkpt lat="44.74462" lon="10.35026"><ele>93.33333333333333</ele><time>2026-04-04T15:01:54.977Z</time></trkpt><trkpt lat="44.7444117" lon="10.3503333"><ele>93.0</ele><time>2026-04-04T15:01:55.976Z</time></trkpt><trkpt lat="44.7441967" lon="10.35038"><ele>93.0</ele><time>2026-04-04T15:01:56.976Z</time></trkpt><trkpt lat="44.7439817" lon="10.3504183"><ele>93.0</ele><time>2026-04-04T15:01:57.976Z</time></trkpt><trkpt lat="44.7437533" lon="10.3504583"><ele>93.0</ele><time>2026-04-04T15:01:58.976Z</time></trkpt><trkpt lat="44.7435383" lon="10.3504933"><ele>93.0</ele><time>2026-04-04T15:01:59.976Z</time></trkpt><trkpt lat="44.743315" lon="10.3505283"><ele>93.0</ele><time>2026-04-04T15:02:00.976Z</time></trkpt><trkpt lat="44.7430833" lon="10.3505633"><ele>92.5</ele><time>2026-04-04T15:02:01.976Z</time></trkpt><trkpt lat="44.74285" lon="10.35058"><ele>92.0</ele><time>2026-04-04T15:02:02.976Z</time></trkpt><trkpt lat="44.7426183" lon="10.3505767"><ele>91.5</ele><time>2026-04-04T15:02:03.977Z</time></trkpt><trkpt lat="44.7423833" lon="10.350555"><ele>91.0</ele><time>2026-04-04T15:02:04.976Z</time></trkpt><trkpt lat="44.742155" lon="10.3505433"><ele>90.5</ele><time>2026-04-04T15:02:05.976Z</time></trkpt><trkpt lat="44.7419267" lon="10.3505267"><ele>90.0</ele><time>2026-04-04T15:02:06.976Z</time></trkpt><trkpt lat="44.74169" lon="10.3505083"><ele>92.5</ele><time>2026-04-04T15:02:07.977Z</time></trkpt><trkpt lat="44.7414617" lon="10.3504983"><ele>95.0</ele><time>2026-04-04T15:02:08.976Z</time></trkpt><trkpt lat="44.7412367" lon="10.350495"><ele>95.0</ele><time>2026-04-04T15:02:09.976Z</time></trkpt><trkpt lat="44.7410133" lon="10.3504833"><ele>95.0</ele><time>2026-04-04T15:02:10.976Z</time></trkpt><trkpt lat="44.7407933" lon="10.3505"><ele>95.0</ele><time>2026-04-04T15:02:11.976Z</time></trkpt><trkpt lat="44.74057" lon="10.3505367"><ele>95.5</ele><time>2026-04-04T15:02:12.976Z</time></trkpt><trkpt lat="44.7403417" lon="10.35059"><ele>96.0</ele><time>2026-04-04T15:02:13.976Z</time></trkpt><trkpt lat="44.7401217" lon="10.3506533"><ele>96.0</ele><time>2026-04-04T15:02:14.976Z</time></trkpt><trkpt lat="44.7399017" lon="10.3507233"><ele>96.0</ele><time>2026-04-04T15:02:15.976Z</time></trkpt><trkpt lat="44.7396817" lon="10.3507867"><ele>96.0</ele><time>2026-04-04T15:02:16.976Z</time></trkpt><trkpt lat="44.7394633" lon="10.35085"><ele>96.0</ele><time>2026-04-04T15:02:17.976Z</time></trkpt><trkpt lat="44.73925" lon="10.3509133"><ele>96.0</ele><time>2026-04-04T15:02:18.976Z</time></trkpt><trkpt lat="44.739045" lon="10.350975"><ele>96.33333333333334</ele><time>2026-04-04T15:02:19.976Z</time></trkpt><trkpt lat="44.738855" lon="10.3510367"><ele>96.66666666666667</ele><time>2026-04-04T15:02:20.977Z</time></trkpt><trkpt lat="44.7386767" lon="10.3510933"><ele>97.0</ele><time>2026-04-04T15:02:21.977Z</time></trkpt><trkpt lat="44.7385083" lon="10.3511467"><ele>97.25</ele><time>2026-04-04T15:02:22.977Z</time></trkpt><trkpt lat="44.73835" lon="10.3511833"><ele>97.5</ele><time>2026-04-04T15:02:23.977Z</time></trkpt><trkpt lat="44.73821" lon="10.3512183"><ele>97.75</ele><time>2026-04-04T15:02:24.976Z</time></trkpt><trkpt lat="44.738085" lon="10.3512583"><ele>98.0</ele><time>2026-04-04T15:02:25.976Z</time></trkpt><trkpt lat="44.7379817" lon="10.351285"><ele>97.99999999999999</ele><time>2026-04-04T15:02:26.976Z</time></trkpt><trkpt lat="44.7378983" lon="10.3513167"><ele>98.0</ele><time>2026-04-04T15:02:27.976Z</time></trkpt><trkpt lat="44.7378367" lon="10.35135"><ele>98.0</ele><time>2026-04-04T15:02:28.976Z</time></trkpt><trkpt lat="44.73779" lon="10.351415"><ele>98.0</ele><time>2026-04-04T15:02:29.976Z</time></trkpt><trkpt lat="44.73777" lon="10.3515067"><ele>97.99999999999999</ele><time>2026-04-04T15:02:30.977Z</time></trkpt><trkpt lat="44.73777" lon="10.3516383"><ele>98.0</ele><time>2026-04-04T15:02:31.976Z</time></trkpt><trkpt lat="44.737775" lon="10.3517983"><ele>98.0</ele><time>2026-04-04T15:02:32.976Z</time></trkpt><trkpt lat="44.7377633" lon="10.351975"><ele>98.0</ele><time>2026-04-04T15:02:33.976Z</time></trkpt><trkpt lat="44.7377483" lon="10.3521733"><ele>98.0</ele><time>2026-04-04T15:02:34.976Z</time></trkpt><trkpt lat="44.737735" lon="10.35237"><ele>98.0</ele><time>2026-04-04T15:02:35.976Z</time></trkpt><trkpt lat="44.7377183" lon="10.3525533"><ele>98.0</ele><time>2026-04-04T15:02:36.977Z</time></trkpt><trkpt lat="44.7376883" lon="10.3527167"><ele>98.0</ele><time>2026-04-04T15:02:37.977Z</time></trkpt><trkpt lat="44.7376633" lon="10.3528583"><ele>98.0</ele><time>2026-04-04T15:02:38.976Z</time></trkpt><trkpt lat="44.7376367" lon="10.3529933"><ele>98.0</ele><time>2026-04-04T15:02:39.977Z</time></trkpt><trkpt lat="44.7376117" lon="10.3531267"><ele>98.0</ele><time>2026-04-04T15:02:40.977Z</time></trkpt><trkpt lat="44.7375933" lon="10.3532883"><ele>98.0</ele><time>2026-04-04T15:02:41.976Z</time></trkpt><trkpt lat="44.737565" lon="10.3534667"><ele>98.0</ele><time>2026-04-04T15:02:42.976Z</time></trkpt><trkpt lat="44.7375417" lon="10.3536617"><ele>98.0</ele><time>2026-04-04T15:02:43.977Z</time></trkpt><trkpt lat="44.73751" lon="10.3538683"><ele>98.0</ele><time>2026-04-04T15:02:44.976Z</time></trkpt><trkpt lat="44.737475" lon="10.3540833"><ele>97.33333333333333</ele><time>2026-04-04T15:02:45.976Z</time></trkpt><trkpt lat="44.737435" lon="10.3543033"><ele>96.66666666666666</ele><time>2026-04-04T15:02:46.976Z</time></trkpt><trkpt lat="44.737395" lon="10.3545267"><ele>96.0</ele><time>2026-04-04T15:02:47.976Z</time></trkpt><trkpt lat="44.7373567" lon="10.3547467"><ele>96.0</ele><time>2026-04-04T15:02:48.976Z</time></trkpt><trkpt lat="44.73732" lon="10.354965"><ele>96.0</ele><time>2026-04-04T15:02:49.976Z</time></trkpt><trkpt lat="44.7372833" lon="10.3551867"><ele>96.0</ele><time>2026-04-04T15:02:50.976Z</time></trkpt><trkpt lat="44.7372467" lon="10.3553983"><ele>95.5</ele><time>2026-04-04T15:02:51.976Z</time></trkpt><trkpt lat="44.737205" lon="10.3555917"><ele>95.0</ele><time>2026-04-04T15:02:52.976Z</time></trkpt><trkpt lat="44.7371783" lon="10.3557717"><ele>94.5</ele><time>2026-04-04T15:02:53.977Z</time></trkpt><trkpt lat="44.7371517" lon="10.3559433"><ele>94.0</ele><time>2026-04-04T15:02:54.976Z</time></trkpt><trkpt lat="44.7371233" lon="10.3561283"><ele>94.0</ele><time>2026-04-04T15:02:55.977Z</time></trkpt><trkpt lat="44.737095" lon="10.3563167"><ele>94.0</ele><time>2026-04-04T15:02:56.977Z</time></trkpt><trkpt lat="44.7370567" lon="10.3565333"><ele>94.0</ele><time>2026-04-04T15:02:57.976Z</time></trkpt><trkpt lat="44.737015" lon="10.3567767"><ele>94.33333333333333</ele><time>2026-04-04T15:02:58.977Z</time></trkpt><trkpt lat="44.7369717" lon="10.3570467"><ele>94.66666666666667</ele><time>2026-04-04T15:02:59.976Z</time></trkpt><trkpt lat="44.7369283" lon="10.3573133"><ele>95.0</ele><time>2026-04-04T15:03:00.976Z</time></trkpt><trkpt lat="44.7368817" lon="10.3575867"><ele>95.0</ele><time>2026-04-04T15:03:01.976Z</time></trkpt><trkpt lat="44.736835" lon="10.3578517"><ele>95.0</ele><time>2026-04-04T15:03:02.976Z</time></trkpt><trkpt lat="44.7367917" lon="10.3581233"><ele>95.0</ele><time>2026-04-04T15:03:03.976Z</time></trkpt><trkpt lat="44.7367467" lon="10.3583683"><ele>95.0</ele><time>2026-04-04T15:03:04.976Z</time></trkpt><trkpt lat="44.7367033" lon="10.3586067"><ele>95.0</ele><time>2026-04-04T15:03:05.976Z</time></trkpt><trkpt lat="44.736665" lon="10.3588433"><ele>95.0</ele><time>2026-04-04T15:03:06.977Z</time></trkpt><trkpt lat="44.7366233" lon="10.359065"><ele>95.25</ele><time>2026-04-04T15:03:07.976Z</time></trkpt><trkpt lat="44.7365867" lon="10.3592767"><ele>95.5</ele><time>2026-04-04T15:03:08.976Z</time></trkpt><trkpt lat="44.736555" lon="10.359475"><ele>95.75</ele><time>2026-04-04T15:03:09.976Z</time></trkpt><trkpt lat="44.73652" lon="10.3596683"><ele>96.0</ele><time>2026-04-04T15:03:10.977Z</time></trkpt><trkpt lat="44.7365017" lon="10.3598467"><ele>95.5</ele><time>2026-04-04T15:03:11.976Z</time></trkpt><trkpt lat="44.736505" lon="10.3600033"><ele>95.0</ele><time>2026-04-04T15:03:12.977Z</time></trkpt><trkpt lat="44.7365483" lon="10.3601933"><ele>94.5</ele><time>2026-04-04T15:03:13.976Z</time></trkpt><trkpt lat="44.7366367" lon="10.3603617"><ele>94.0</ele><time>2026-04-04T15:03:14.977Z</time></trkpt><trkpt lat="44.736765" lon="10.360485"><ele>93.33333333333333</ele><time>2026-04-04T15:03:15.977Z</time></trkpt><trkpt lat="44.7369233" lon="10.3605717"><ele>92.66666666666667</ele><time>2026-04-04T15:03:16.976Z</time></trkpt><trkpt lat="44.737095" lon="10.360635"><ele>92.0</ele><time>2026-04-04T15:03:17.976Z</time></trkpt><trkpt lat="44.7372783" lon="10.3606917"><ele>92.0</ele><time>2026-04-04T15:03:18.976Z</time></trkpt><trkpt lat="44.7374633" lon="10.3607583"><ele>92.0</ele><time>2026-04-04T15:03:19.976Z</time></trkpt><trkpt lat="44.7376517" lon="10.36082"><ele>92.0</ele><time>2026-04-04T15:03:20.976Z</time></trkpt><trkpt lat="44.737835" lon="10.3608917"><ele>91.33333333333334</ele><time>2026-04-04T15:03:21.976Z</time></trkpt><trkpt lat="44.7380117" lon="10.3609617"><ele>90.66666666666667</ele><time>2026-04-04T15:03:22.976Z</time></trkpt><trkpt lat="44.73818" lon="10.361025"><ele>90.0</ele><time>2026-04-04T15:03:23.976Z</time></trkpt><trkpt lat="44.73833" lon="10.3610733"><ele>90.0</ele><time>2026-04-04T15:03:24.976Z</time></trkpt><trkpt lat="44.7384667" lon="10.3611217"><ele>90.0</ele><time>2026-04-04T15:03:25.977Z</time></trkpt><trkpt lat="44.7386083" lon="10.3611717"><ele>90.0</ele><time>2026-04-04T15:03:26.977Z</time></trkpt><trkpt lat="44.7387533" lon="10.3612333"><ele>90.0</ele><time>2026-04-04T15:03:27.976Z</time></trkpt><trkpt lat="44.7389133" lon="10.3613017"><ele>90.33333333333333</ele><time>2026-04-04T15:03:28.976Z</time></trkpt><trkpt lat="44.73908" lon="10.3613783"><ele>90.66666666666666</ele><time>2026-04-04T15:03:29.976Z</time></trkpt><trkpt lat="44.739255" lon="10.3614533"><ele>91.0</ele><time>2026-04-04T15:03:30.976Z</time></trkpt><trkpt lat="44.739425" lon="10.3615217"><ele>91.0</ele><time>2026-04-04T15:03:31.976Z</time></trkpt><trkpt lat="44.7395867" lon="10.3615833"><ele>91.0</ele><time>2026-04-04T15:03:32.976Z</time></trkpt><trkpt lat="44.7397317" lon="10.3616533"><ele>91.0</ele><time>2026-04-04T15:03:33.976Z</time></trkpt><trkpt lat="44.7398433" lon="10.3617467"><ele>91.0</ele><time>2026-04-04T15:03:34.976Z</time></trkpt><trkpt lat="44.7399367" lon="10.3618733"><ele>91.0</ele><time>2026-04-04T15:03:35.977Z</time></trkpt><trkpt lat="44.7400117" lon="10.3620383"><ele>91.0</ele><time>2026-04-04T15:03:36.976Z</time></trkpt><trkpt lat="44.7400417" lon="10.3622417"><ele>91.0</ele><time>2026-04-04T15:03:37.977Z</time></trkpt><trkpt lat="44.740035" lon="10.36249"><ele>90.66666666666666</ele><time>2026-04-04T15:03:38.977Z</time></trkpt><trkpt lat="44.74" lon="10.3627567"><ele>90.33333333333333</ele><time>2026-04-04T15:03:39.976Z</time></trkpt><trkpt lat="44.7399667" lon="10.36302"><ele>90.0</ele><time>2026-04-04T15:03:40.976Z</time></trkpt><trkpt lat="44.7399433" lon="10.36329"><ele>90.0</ele><time>2026-04-04T15:03:41.976Z</time></trkpt><trkpt lat="44.7399133" lon="10.36357"><ele>90.0</ele><time>2026-04-04T15:03:42.976Z</time></trkpt><trkpt lat="44.7398867" lon="10.3638467"><ele>90.0</ele><time>2026-04-04T15:03:43.977Z</time></trkpt><trkpt lat="44.7398617" lon="10.36413"><ele>89.66666666666667</ele><time>2026-04-04T15:03:44.976Z</time></trkpt><trkpt lat="44.73983" lon="10.364405"><ele>89.33333333333334</ele><time>2026-04-04T15:03:45.976Z</time></trkpt><trkpt lat="44.7398083" lon="10.364675"><ele>89.0</ele><time>2026-04-04T15:03:46.976Z</time></trkpt><trkpt lat="44.739785" lon="10.36494"><ele>88.33333333333334</ele><time>2026-04-04T15:03:47.976Z</time></trkpt><trkpt lat="44.73976" lon="10.3652133"><ele>87.66666666666667</ele><time>2026-04-04T15:03:48.976Z</time></trkpt><trkpt lat="44.7397417" lon="10.3654733"><ele>87.0</ele><time>2026-04-04T15:03:49.976Z</time></trkpt><trkpt lat="44.7397217" lon="10.3657167"><ele>87.0</ele><time>2026-04-04T15:03:50.976Z</time></trkpt><trkpt lat="44.7397017" lon="10.36593"><ele>87.0</ele><time>2026-04-04T15:03:51.977Z</time></trkpt><trkpt lat="44.7396767" lon="10.3661283"><ele>87.0</ele><time>2026-04-04T15:03:52.977Z</time></trkpt><trkpt lat="44.739655" lon="10.3663033"><ele>87.0</ele><time>2026-04-04T15:03:53.976Z</time></trkpt><trkpt lat="44.7396283" lon="10.3664483"><ele>87.0</ele><time>2026-04-04T15:03:54.977Z</time></trkpt><trkpt lat="44.7395883" lon="10.366575"><ele>87.0</ele><time>2026-04-04T15:03:55.976Z</time></trkpt><trkpt lat="44.739525" lon="10.36669"><ele>87.0</ele><time>2026-04-04T15:03:56.977Z</time></trkpt><trkpt lat="44.7394333" lon="10.3668067"><ele>87.0</ele><time>2026-04-04T15:03:57.977Z</time></trkpt><trkpt lat="44.739335" lon="10.3669183"><ele>87.0</ele><time>2026-04-04T15:03:58.976Z</time></trkpt><trkpt lat="44.7392167" lon="10.3670183"><ele>87.0</ele><time>2026-04-04T15:03:59.976Z</time></trkpt><trkpt lat="44.739085" lon="10.36711"><ele>87.0</ele><time>2026-04-04T15:04:00.976Z</time></trkpt><trkpt lat="44.7389383" lon="10.3672017"><ele>87.0</ele><time>2026-04-04T15:04:01.976Z</time></trkpt><trkpt lat="44.738785" lon="10.36729"><ele>87.33333333333333</ele><time>2026-04-04T15:04:02.976Z</time></trkpt><trkpt lat="44.7386317" lon="10.3673783"><ele>87.66666666666666</ele><time>2026-04-04T15:04:03.976Z</time></trkpt><trkpt lat="44.7384683" lon="10.367465"><ele>88.0</ele><time>2026-04-04T15:04:04.976Z</time></trkpt><trkpt lat="44.7383133" lon="10.3675433"><ele>87.33333333333333</ele><time>2026-04-04T15:04:05.977Z</time></trkpt><trkpt lat="44.7381633" lon="10.3676217"><ele>86.66666666666667</ele><time>2026-04-04T15:04:06.976Z</time></trkpt><trkpt lat="44.738015" lon="10.3676983"><ele>86.0</ele><time>2026-04-04T15:04:07.977Z</time></trkpt><trkpt lat="44.737875" lon="10.367785"><ele>86.0</ele><time>2026-04-04T15:04:08.977Z</time></trkpt><trkpt lat="44.7377267" lon="10.3678717"><ele>86.0</ele><time>2026-04-04T15:04:09.977Z</time></trkpt><trkpt lat="44.73757" lon="10.36796"><ele>86.0</ele><time>2026-04-04T15:04:10.976Z</time></trkpt><trkpt lat="44.7374167" lon="10.36804"><ele>86.5</ele><time>2026-04-04T15:04:11.977Z</time></trkpt><trkpt lat="44.7372783" lon="10.3681117"><ele>87.0</ele><time>2026-04-04T15:04:12.977Z</time></trkpt><trkpt lat="44.7371617" lon="10.3681733"><ele>87.5</ele><time>2026-04-04T15:04:13.976Z</time></trkpt><trkpt lat="44.737045" lon="10.3682383"><ele>88.0</ele><time>2026-04-04T15:04:14.977Z</time></trkpt><trkpt lat="44.7369283" lon="10.3683033"><ele>88.5</ele><time>2026-04-04T15:04:15.976Z</time></trkpt><trkpt lat="44.7368083" lon="10.3683667"><ele>89.0</ele><time>2026-04-04T15:04:16.977Z</time></trkpt><trkpt lat="44.7366917" lon="10.3684283"><ele>89.5</ele><time>2026-04-04T15:04:17.976Z</time></trkpt><trkpt lat="44.7365833" lon="10.3684883"><ele>90.0</ele><time>2026-04-04T15:04:18.976Z</time></trkpt><trkpt lat="44.7364867" lon="10.3685383"><ele>90.0</ele><time>2026-04-04T15:04:19.976Z</time></trkpt><trkpt lat="44.7364117" lon="10.3685817"><ele>90.0</ele><time>2026-04-04T15:04:20.976Z</time></trkpt><trkpt lat="44.7363233" lon="10.3686283"><ele>90.0</ele><time>2026-04-04T15:04:22.976Z</time></trkpt><trkpt lat="44.7362633" lon="10.3686667"><ele>90.0</ele><time>2026-04-04T15:04:25.976Z</time></trkpt><trkpt lat="44.73618" lon="10.3687133"><ele>90.0</ele><time>2026-04-04T15:04:27.976Z</time></trkpt><trkpt lat="44.736055" lon="10.3687833"><ele>90.0</ele><time>2026-04-04T15:04:29.977Z</time></trkpt><trkpt lat="44.7359733" lon="10.3688333"><ele>90.0</ele><time>2026-04-04T15:04:30.976Z</time></trkpt><trkpt lat="44.7358867" lon="10.3688817"><ele>90.0</ele><time>2026-04-04T15:04:31.976Z</time></trkpt><trkpt lat="44.7357983" lon="10.36894"><ele>90.0</ele><time>2026-04-04T15:04:32.976Z</time></trkpt><trkpt lat="44.7357" lon="10.3690017"><ele>90.0</ele><time>2026-04-04T15:04:33.977Z</time></trkpt><trkpt lat="44.735585" lon="10.3690667"><ele>90.0</ele><time>2026-04-04T15:04:34.976Z</time></trkpt><trkpt lat="44.7354617" lon="10.3691333"><ele>90.0</ele><time>2026-04-04T15:04:35.976Z</time></trkpt><trkpt lat="44.7353317" lon="10.3692083"><ele>90.0</ele><time>2026-04-04T15:04:36.977Z</time></trkpt><trkpt lat="44.7351933" lon="10.3692767"><ele>90.0</ele><time>2026-04-04T15:04:37.977Z</time></trkpt><trkpt lat="44.7350583" lon="10.369355"><ele>90.33333333333333</ele><time>2026-04-04T15:04:38.977Z</time></trkpt><trkpt lat="44.73492" lon="10.36943"><ele>90.66666666666666</ele><time>2026-04-04T15:04:39.977Z</time></trkpt><trkpt lat="44.7347817" lon="10.3695117"><ele>91.0</ele><time>2026-04-04T15:04:40.976Z</time></trkpt><trkpt lat="44.7346383" lon="10.3695883"><ele>91.0</ele><time>2026-04-04T15:04:41.976Z</time></trkpt><trkpt lat="44.7344917" lon="10.3696733"><ele>91.0</ele><time>2026-04-04T15:04:42.976Z</time></trkpt><trkpt lat="44.734345" lon="10.3697533"><ele>91.0</ele><time>2026-04-04T15:04:43.976Z</time></trkpt><trkpt lat="44.7341983" lon="10.369835"><ele>90.66666666666666</ele><time>2026-04-04T15:04:44.976Z</time></trkpt><trkpt lat="44.7340567" lon="10.3699183"><ele>90.33333333333333</ele><time>2026-04-04T15:04:45.977Z</time></trkpt><trkpt lat="44.7339117" lon="10.3699983"><ele>90.0</ele><time>2026-04-04T15:04:46.976Z</time></trkpt><trkpt lat="44.733775" lon="10.3700833"><ele>90.0</ele><time>2026-04-04T15:04:47.976Z</time></trkpt><trkpt lat="44.7336367" lon="10.3701667"><ele>90.0</ele><time>2026-04-04T15:04:48.976Z</time></trkpt><trkpt lat="44.7335067" lon="10.3702417"><ele>90.0</ele><time>2026-04-04T15:04:49.977Z</time></trkpt><trkpt lat="44.733385" lon="10.3703017"><ele>90.0</ele><time>2026-04-04T15:04:50.976Z</time></trkpt><trkpt lat="44.73327" lon="10.3703683"><ele>90.25</ele><time>2026-04-04T15:04:51.977Z</time></trkpt><trkpt lat="44.7331533" lon="10.3704267"><ele>90.5</ele><time>2026-04-04T15:04:52.977Z</time></trkpt><trkpt lat="44.73303" lon="10.370485"><ele>90.75</ele><time>2026-04-04T15:04:53.976Z</time></trkpt><trkpt lat="44.7329017" lon="10.370535"><ele>91.0</ele><time>2026-04-04T15:04:54.976Z</time></trkpt><trkpt lat="44.7327683" lon="10.37058"><ele>91.5</ele><time>2026-04-04T15:04:55.977Z</time></trkpt><trkpt lat="44.73264" lon="10.3706267"><ele>92.0</ele><time>2026-04-04T15:04:56.976Z</time></trkpt><trkpt lat="44.73252" lon="10.3706733"><ele>92.5</ele><time>2026-04-04T15:04:57.977Z</time></trkpt><trkpt lat="44.7324183" lon="10.3707"><ele>93.0</ele><time>2026-04-04T15:04:58.977Z</time></trkpt><trkpt lat="44.7323233" lon="10.370705"><ele>93.0</ele><time>2026-04-04T15:04:59.976Z</time></trkpt><trkpt lat="44.7322433" lon="10.3707"><ele>93.0</ele><time>2026-04-04T15:05:00.976Z</time></trkpt><trkpt lat="44.7321667" lon="10.370675"><ele>93.0</ele><time>2026-04-04T15:05:01.976Z</time></trkpt><trkpt lat="44.7320883" lon="10.3706333"><ele>93.0</ele><time>2026-04-04T15:05:02.977Z</time></trkpt><trkpt lat="44.7320067" lon="10.3705983"><ele>93.0</ele><time>2026-04-04T15:05:03.977Z</time></trkpt><trkpt lat="44.7319283" lon="10.3705867"><ele>93.0</ele><time>2026-04-04T15:05:04.977Z</time></trkpt><trkpt lat="44.7318483" lon="10.3705967"><ele>93.16666666666667</ele><time>2026-04-04T15:05:05.976Z</time></trkpt><trkpt lat="44.7317817" lon="10.370655"><ele>93.33333333333333</ele><time>2026-04-04T15:05:06.977Z</time></trkpt><trkpt lat="44.7317383" lon="10.3707467"><ele>93.5</ele><time>2026-04-04T15:05:07.977Z</time></trkpt><trkpt lat="44.7317267" lon="10.3708467"><ele>93.66666666666666</ele><time>2026-04-04T15:05:08.976Z</time></trkpt><trkpt lat="44.7317567" lon="10.3709733"><ele>93.83333333333333</ele><time>2026-04-04T15:05:09.976Z</time></trkpt><trkpt lat="44.7318067" lon="10.371085"><ele>94.0</ele><time>2026-04-04T15:05:10.976Z</time></trkpt><trkpt lat="44.7318717" lon="10.3711767"><ele>94.0</ele><time>2026-04-04T15:05:11.976Z</time></trkpt><trkpt lat="44.73193" lon="10.371265"><ele>94.0</ele><time>2026-04-04T15:05:12.976Z</time></trkpt><trkpt lat="44.7319683" lon="10.37136"><ele>94.0</ele><time>2026-04-04T15:05:13.976Z</time></trkpt><trkpt lat="44.7319767" lon="10.3714717"><ele>94.0</ele><time>2026-04-04T15:05:14.976Z</time></trkpt><trkpt lat="44.7319583" lon="10.3715883"><ele>94.0</ele><time>2026-04-04T15:05:15.976Z</time></trkpt><trkpt lat="44.731915" lon="10.37174"><ele>94.0</ele><time>2026-04-04T15:05:16.976Z</time></trkpt><trkpt lat="44.7318717" lon="10.3719017"><ele>94.0</ele><time>2026-04-04T15:05:17.976Z</time></trkpt><trkpt lat="44.7318233" lon="10.37208"><ele>94.0</ele><time>2026-04-04T15:05:18.976Z</time></trkpt><trkpt lat="44.7317767" lon="10.3722833"><ele>94.0</ele><time>2026-04-04T15:05:19.976Z</time></trkpt><trkpt lat="44.73173" lon="10.37252"><ele>94.0</ele><time>2026-04-04T15:05:20.977Z</time></trkpt><trkpt lat="44.7316617" lon="10.37277"><ele>94.0</ele><time>2026-04-04T15:05:21.976Z</time></trkpt><trkpt lat="44.7315867" lon="10.3730383"><ele>94.0</ele><time>2026-04-04T15:05:22.976Z</time></trkpt><trkpt lat="44.7314983" lon="10.3733183"><ele>94.0</ele><time>2026-04-04T15:05:23.976Z</time></trkpt><trkpt lat="44.7314133" lon="10.373595"><ele>94.0</ele><time>2026-04-04T15:05:24.976Z</time></trkpt><trkpt lat="44.731335" lon="10.37387"><ele>94.0</ele><time>2026-04-04T15:05:25.976Z</time></trkpt><trkpt lat="44.7312583" lon="10.3741483"><ele>94.0</ele><time>2026-04-04T15:05:26.976Z</time></trkpt><trkpt lat="44.73118" lon="10.3744267"><ele>94.0</ele><time>2026-04-04T15:05:27.976Z</time></trkpt><trkpt lat="44.7311083" lon="10.3747017"><ele>94.0</ele><time>2026-04-04T15:05:28.977Z</time></trkpt><trkpt lat="44.731045" lon="10.3749667"><ele>94.0</ele><time>2026-04-04T15:05:29.976Z</time></trkpt><trkpt lat="44.7309817" lon="10.3752017"><ele>94.0</ele><time>2026-04-04T15:05:30.976Z</time></trkpt><trkpt lat="44.7309183" lon="10.375435"><ele>94.0</ele><time>2026-04-04T15:05:31.977Z</time></trkpt><trkpt lat="44.7308567" lon="10.3756367"><ele>93.66666666666666</ele><time>2026-04-04T15:05:32.976Z</time></trkpt><trkpt lat="44.7307967" lon="10.37583"><ele>93.33333333333333</ele><time>2026-04-04T15:05:33.977Z</time></trkpt><trkpt lat="44.73074" lon="10.3760267"><ele>93.0</ele><time>2026-04-04T15:05:34.976Z</time></trkpt><trkpt lat="44.730685" lon="10.3762233"><ele>93.0</ele><time>2026-04-04T15:05:35.977Z</time></trkpt><trkpt lat="44.7306283" lon="10.3764217"><ele>93.0</ele><time>2026-04-04T15:05:36.976Z</time></trkpt><trkpt lat="44.7305783" lon="10.376615"><ele>93.0</ele><time>2026-04-04T15:05:37.976Z</time></trkpt><trkpt lat="44.7305317" lon="10.376815"><ele>93.0</ele><time>2026-04-04T15:05:38.977Z</time></trkpt><trkpt lat="44.7304783" lon="10.377015"><ele>93.0</ele><time>2026-04-04T15:05:39.977Z</time></trkpt><trkpt lat="44.730435" lon="10.3772217"><ele>93.0</ele><time>2026-04-04T15:05:40.977Z</time></trkpt><trkpt lat="44.730395" lon="10.37742"><ele>93.0</ele><time>2026-04-04T15:05:41.976Z</time></trkpt><trkpt lat="44.7303567" lon="10.3776033"><ele>93.0</ele><time>2026-04-04T15:05:42.977Z</time></trkpt><trkpt lat="44.7303117" lon="10.3777633"><ele>93.0</ele><time>2026-04-04T15:05:43.976Z</time></trkpt><trkpt lat="44.7302667" lon="10.3779117"><ele>93.0</ele><time>2026-04-04T15:05:44.976Z</time></trkpt><trkpt lat="44.7302267" lon="10.378065"><ele>93.0</ele><time>2026-04-04T15:05:45.976Z</time></trkpt><trkpt lat="44.730185" lon="10.37822"><ele>93.0</ele><time>2026-04-04T15:05:46.976Z</time></trkpt><trkpt lat="44.730145" lon="10.378375"><ele>93.0</ele><time>2026-04-04T15:05:47.977Z</time></trkpt><trkpt lat="44.7301" lon="10.3785433"><ele>93.0</ele><time>2026-04-04T15:05:48.976Z</time></trkpt><trkpt lat="44.7300517" lon="10.3787183"><ele>93.0</ele><time>2026-04-04T15:05:49.976Z</time></trkpt><trkpt lat="44.7300017" lon="10.378905"><ele>93.0</ele><time>2026-04-04T15:05:50.976Z</time></trkpt><trkpt lat="44.729955" lon="10.3790933"><ele>93.0</ele><time>2026-04-04T15:05:51.976Z</time></trkpt><trkpt lat="44.729905" lon="10.3792817"><ele>93.0</ele><time>2026-04-04T15:05:52.976Z</time></trkpt><trkpt lat="44.7298483" lon="10.3794833"><ele>93.0</ele><time>2026-04-04T15:05:53.976Z</time></trkpt><trkpt lat="44.7297883" lon="10.3796867"><ele>93.0</ele><time>2026-04-04T15:05:54.976Z</time></trkpt><trkpt lat="44.72973" lon="10.3798883"><ele>93.0</ele><time>2026-04-04T15:05:55.977Z</time></trkpt><trkpt lat="44.7296667" lon="10.380095"><ele>93.0</ele><time>2026-04-04T15:05:56.976Z</time></trkpt><trkpt lat="44.7296083" lon="10.3802767"><ele>93.0</ele><time>2026-04-04T15:05:57.976Z</time></trkpt><trkpt lat="44.729555" lon="10.3804383"><ele>93.0</ele><time>2026-04-04T15:05:58.976Z</time></trkpt><trkpt lat="44.7294967" lon="10.3805917"><ele>93.0</ele><time>2026-04-04T15:05:59.977Z</time></trkpt><trkpt lat="44.729445" lon="10.3807383"><ele>93.0</ele><time>2026-04-04T15:06:00.977Z</time></trkpt><trkpt lat="44.729385" lon="10.3808683"><ele>93.16666666666667</ele><time>2026-04-04T15:06:01.977Z</time></trkpt><trkpt lat="44.72933" lon="10.3809633"><ele>93.33333333333333</ele><time>2026-04-04T15:06:02.977Z</time></trkpt><trkpt lat="44.729275" lon="10.3810333"><ele>93.5</ele><time>2026-04-04T15:06:03.976Z</time></trkpt><trkpt lat="44.7292117" lon="10.3810967"><ele>93.66666666666666</ele><time>2026-04-04T15:06:04.977Z</time></trkpt><trkpt lat="44.729135" lon="10.3811417"><ele>93.83333333333333</ele><time>2026-04-04T15:06:05.977Z</time></trkpt><trkpt lat="44.7290533" lon="10.3811767"><ele>94.0</ele><time>2026-04-04T15:06:06.977Z</time></trkpt><trkpt lat="44.7289667" lon="10.3812183"><ele>94.0</ele><time>2026-04-04T15:06:07.976Z</time></trkpt><trkpt lat="44.7288817" lon="10.38129"><ele>94.0</ele><time>2026-04-04T15:06:08.976Z</time></trkpt><trkpt lat="44.7288033" lon="10.38137"><ele>94.0</ele><time>2026-04-04T15:06:09.977Z</time></trkpt><trkpt lat="44.728715" lon="10.3814417"><ele>94.0</ele><time>2026-04-04T15:06:10.977Z</time></trkpt><trkpt lat="44.7286083" lon="10.3814867"><ele>94.0</ele><time>2026-04-04T15:06:11.976Z</time></trkpt><trkpt lat="44.7284883" lon="10.3814983"><ele>94.0</ele><time>2026-04-04T15:06:12.977Z</time></trkpt><trkpt lat="44.7283617" lon="10.38148"><ele>94.0</ele><time>2026-04-04T15:06:13.977Z</time></trkpt><trkpt lat="44.7282283" lon="10.381455"><ele>94.0</ele><time>2026-04-04T15:06:14.976Z</time></trkpt><trkpt lat="44.7280917" lon="10.3814217"><ele>94.0</ele><time>2026-04-04T15:06:15.976Z</time></trkpt><trkpt lat="44.7279583" lon="10.381395"><ele>94.0</ele><time>2026-04-04T15:06:16.977Z</time></trkpt><trkpt lat="44.7278167" lon="10.38137"><ele>94.0</ele><time>2026-04-04T15:06:17.977Z</time></trkpt><trkpt lat="44.7276767" lon="10.3813383"><ele>94.0</ele><time>2026-04-04T15:06:18.976Z</time></trkpt><trkpt lat="44.7275333" lon="10.3813067"><ele>94.0</ele><time>2026-04-04T15:06:19.977Z</time></trkpt><trkpt lat="44.7273733" lon="10.3812867"><ele>95.0</ele><time>2026-04-04T15:06:20.976Z</time></trkpt><trkpt lat="44.7272017" lon="10.3812617"><ele>96.0</ele><time>2026-04-04T15:06:21.977Z</time></trkpt><trkpt lat="44.7270117" lon="10.3812267"><ele>97.0</ele><time>2026-04-04T15:06:22.976Z</time></trkpt><trkpt lat="44.7268283" lon="10.3811867"><ele>97.33333333333334</ele><time>2026-04-04T15:06:23.976Z</time></trkpt><trkpt lat="44.726655" lon="10.38115"><ele>97.66666666666666</ele><time>2026-04-04T15:06:24.976Z</time></trkpt><trkpt lat="44.7265017" lon="10.3811183"><ele>98.0</ele><time>2026-04-04T15:06:25.976Z</time></trkpt><trkpt lat="44.72636" lon="10.3810883"><ele>98.0</ele><time>2026-04-04T15:06:26.976Z</time></trkpt><trkpt lat="44.7262233" lon="10.3810617"><ele>98.0</ele><time>2026-04-04T15:06:27.976Z</time></trkpt><trkpt lat="44.726075" lon="10.3810367"><ele>98.0</ele><time>2026-04-04T15:06:28.976Z</time></trkpt><trkpt lat="44.7259117" lon="10.3810133"><ele>97.66666666666666</ele><time>2026-04-04T15:06:29.976Z</time></trkpt><trkpt lat="44.72573" lon="10.3809867"><ele>97.33333333333334</ele><time>2026-04-04T15:06:30.976Z</time></trkpt><trkpt lat="44.725535" lon="10.3809567"><ele>97.0</ele><time>2026-04-04T15:06:31.977Z</time></trkpt><trkpt lat="44.7253383" lon="10.3809167"><ele>97.0</ele><time>2026-04-04T15:06:32.977Z</time></trkpt><trkpt lat="44.7251433" lon="10.380885"><ele>97.0</ele><time>2026-04-04T15:06:33.977Z</time></trkpt><trkpt lat="44.7249517" lon="10.380875"><ele>97.0</ele><time>2026-04-04T15:06:34.977Z</time></trkpt><trkpt lat="44.72476" lon="10.3809017"><ele>97.0</ele><time>2026-04-04T15:06:35.976Z</time></trkpt><trkpt lat="44.7245733" lon="10.380995"><ele>97.0</ele><time>2026-04-04T15:06:36.977Z</time></trkpt><trkpt lat="44.7243933" lon="10.38112"><ele>97.0</ele><time>2026-04-04T15:06:37.976Z</time></trkpt><trkpt lat="44.7242233" lon="10.38128"><ele>97.0</ele><time>2026-04-04T15:06:38.976Z</time></trkpt><trkpt lat="44.7240767" lon="10.3814717"><ele>97.0</ele><time>2026-04-04T15:06:39.976Z</time></trkpt><trkpt lat="44.7239483" lon="10.3817033"><ele>97.0</ele><time>2026-04-04T15:06:40.977Z</time></trkpt><trkpt lat="44.72385" lon="10.3819683"><ele>97.0</ele><time>2026-04-04T15:06:41.976Z</time></trkpt><trkpt lat="44.7237683" lon="10.382245"><ele>97.0</ele><time>2026-04-04T15:06:42.977Z</time></trkpt><trkpt lat="44.7236867" lon="10.38251"><ele>97.0</ele><time>2026-04-04T15:06:43.977Z</time></trkpt><trkpt lat="44.7236017" lon="10.3827667"><ele>97.0</ele><time>2026-04-04T15:06:44.976Z</time></trkpt><trkpt lat="44.723525" lon="10.3830117"><ele>97.0</ele><time>2026-04-04T15:06:45.976Z</time></trkpt><trkpt lat="44.7234683" lon="10.3832333"><ele>97.0</ele><time>2026-04-04T15:06:46.976Z</time></trkpt><trkpt lat="44.7234367" lon="10.3834383"><ele>97.0</ele><time>2026-04-04T15:06:47.977Z</time></trkpt><trkpt lat="44.7234133" lon="10.3836367"><ele>97.0</ele><time>2026-04-04T15:06:48.977Z</time></trkpt><trkpt lat="44.7233767" lon="10.3838467"><ele>97.0</ele><time>2026-04-04T15:06:49.976Z</time></trkpt><trkpt lat="44.72331" lon="10.3840733"><ele>97.0</ele><time>2026-04-04T15:06:50.977Z</time></trkpt><trkpt lat="44.723215" lon="10.38431"><ele>97.0</ele><time>2026-04-04T15:06:51.976Z</time></trkpt><trkpt lat="44.7231033" lon="10.3845417"><ele>97.0</ele><time>2026-04-04T15:06:52.976Z</time></trkpt><trkpt lat="44.7229817" lon="10.3847783"><ele>97.0</ele><time>2026-04-04T15:06:53.976Z</time></trkpt><trkpt lat="44.7228533" lon="10.385015"><ele>97.0</ele><time>2026-04-04T15:06:54.976Z</time></trkpt><trkpt lat="44.7227317" lon="10.3852533"><ele>97.0</ele><time>2026-04-04T15:06:55.977Z</time></trkpt><trkpt lat="44.7226083" lon="10.3854817"><ele>97.0</ele><time>2026-04-04T15:06:56.977Z</time></trkpt><trkpt lat="44.72247" lon="10.38572"><ele>97.0</ele><time>2026-04-04T15:06:57.977Z</time></trkpt><trkpt lat="44.7223067" lon="10.385935"><ele>97.0</ele><time>2026-04-04T15:06:58.977Z</time></trkpt><trkpt lat="44.7221217" lon="10.3861283"><ele>97.0</ele><time>2026-04-04T15:06:59.976Z</time></trkpt><trkpt lat="44.7219267" lon="10.3863083"><ele>97.0</ele><time>2026-04-04T15:07:00.976Z</time></trkpt><trkpt lat="44.721725" lon="10.3864717"><ele>97.5</ele><time>2026-04-04T15:07:01.976Z</time></trkpt><trkpt lat="44.7215333" lon="10.3866517"><ele>98.0</ele><time>2026-04-04T15:07:02.976Z</time></trkpt><trkpt lat="44.721345" lon="10.3868217"><ele>98.0</ele><time>2026-04-04T15:07:03.977Z</time></trkpt><trkpt lat="44.7211567" lon="10.3869883"><ele>98.0</ele><time>2026-04-04T15:07:04.976Z</time></trkpt><trkpt lat="44.72097" lon="10.3871567"><ele>98.0</ele><time>2026-04-04T15:07:05.977Z</time></trkpt><trkpt lat="44.7207733" lon="10.3873033"><ele>102.33333333333333</ele><time>2026-04-04T15:07:06.977Z</time></trkpt><trkpt lat="44.7205883" lon="10.3874683"><ele>106.66666666666666</ele><time>2026-04-04T15:07:07.977Z</time></trkpt><trkpt lat="44.7204317" lon="10.3876117"><ele>111.0</ele><time>2026-04-04T15:07:08.976Z</time></trkpt><trkpt lat="44.720295" lon="10.387735"><ele>111.25</ele><time>2026-04-04T15:07:09.976Z</time></trkpt><trkpt lat="44.720175" lon="10.3878517"><ele>111.5</ele><time>2026-04-04T15:07:10.976Z</time></trkpt><trkpt lat="44.7200667" lon="10.38796"><ele>111.75</ele><time>2026-04-04T15:07:11.976Z</time></trkpt><trkpt lat="44.7199783" lon="10.3880433"><ele>112.0</ele><time>2026-04-04T15:07:12.977Z</time></trkpt><trkpt lat="44.7198783" lon="10.3881167"><ele>111.5</ele><time>2026-04-04T15:07:13.977Z</time></trkpt><trkpt lat="44.71977" lon="10.3881967"><ele>111.0</ele><time>2026-04-04T15:07:14.976Z</time></trkpt><trkpt lat="44.7196533" lon="10.3883"><ele>110.5</ele><time>2026-04-04T15:07:15.977Z</time></trkpt><trkpt lat="44.71953" lon="10.388425"><ele>110.0</ele><time>2026-04-04T15:07:16.976Z</time></trkpt><trkpt lat="44.7194" lon="10.3885517"><ele>110.0</ele><time>2026-04-04T15:07:17.976Z</time></trkpt><trkpt lat="44.7192567" lon="10.38868"><ele>110.0</ele><time>2026-04-04T15:07:18.976Z</time></trkpt><trkpt lat="44.7191033" lon="10.3888183"><ele>110.0</ele><time>2026-04-04T15:07:19.977Z</time></trkpt><trkpt lat="44.7189383" lon="10.3889667"><ele>110.0</ele><time>2026-04-04T15:07:20.977Z</time></trkpt><trkpt lat="44.7187733" lon="10.3891117"><ele>110.0</ele><time>2026-04-04T15:07:21.977Z</time></trkpt><trkpt lat="44.7186083" lon="10.3892667"><ele>110.0</ele><time>2026-04-04T15:07:22.976Z</time></trkpt><trkpt lat="44.718435" lon="10.389415"><ele>110.0</ele><time>2026-04-04T15:07:23.976Z</time></trkpt><trkpt lat="44.7182617" lon="10.3895683"><ele>110.0</ele><time>2026-04-04T15:07:24.976Z</time></trkpt><trkpt lat="44.7180917" lon="10.3897283"><ele>110.0</ele><time>2026-04-04T15:07:25.976Z</time></trkpt><trkpt lat="44.7179117" lon="10.389885"><ele>110.0</ele><time>2026-04-04T15:07:26.976Z</time></trkpt><trkpt lat="44.717735" lon="10.3900567"><ele>110.0</ele><time>2026-04-04T15:07:27.976Z</time></trkpt><trkpt lat="44.71755" lon="10.3902267"><ele>110.0</ele><time>2026-04-04T15:07:28.976Z</time></trkpt><trkpt lat="44.717365" lon="10.390395"><ele>110.0</ele><time>2026-04-04T15:07:29.977Z</time></trkpt><trkpt lat="44.7171817" lon="10.3905633"><ele>110.0</ele><time>2026-04-04T15:07:30.976Z</time></trkpt><trkpt lat="44.7170017" lon="10.39073"><ele>110.0</ele><time>2026-04-04T15:07:31.976Z</time></trkpt><trkpt lat="44.7168167" lon="10.3908967"><ele>110.0</ele><time>2026-04-04T15:07:32.976Z</time></trkpt><trkpt lat="44.716635" lon="10.3910583"><ele>110.0</ele><time>2026-04-04T15:07:33.976Z</time></trkpt><trkpt lat="44.7164617" lon="10.39123"><ele>110.0</ele><time>2026-04-04T15:07:34.976Z</time></trkpt><trkpt lat="44.71628" lon="10.39139"><ele>109.66666666666666</ele><time>2026-04-04T15:07:35.977Z</time></trkpt><trkpt lat="44.7161033" lon="10.3915517"><ele>109.33333333333334</ele><time>2026-04-04T15:07:36.976Z</time></trkpt><trkpt lat="44.7159267" lon="10.3917133"><ele>109.0</ele><time>2026-04-04T15:07:37.976Z</time></trkpt><trkpt lat="44.7157533" lon="10.3918767"><ele>109.33333333333334</ele><time>2026-04-04T15:07:38.976Z</time></trkpt><trkpt lat="44.7155717" lon="10.3920383"><ele>109.66666666666666</ele><time>2026-04-04T15:07:39.976Z</time></trkpt><trkpt lat="44.7154033" lon="10.3921933"><ele>110.0</ele><time>2026-04-04T15:07:40.977Z</time></trkpt><trkpt lat="44.7152433" lon="10.3923383"><ele>110.0</ele><time>2026-04-04T15:07:41.976Z</time></trkpt><trkpt lat="44.7150833" lon="10.3924733"><ele>110.0</ele><time>2026-04-04T15:07:42.977Z</time></trkpt><trkpt lat="44.7149267" lon="10.39261"><ele>110.0</ele><time>2026-04-04T15:07:43.976Z</time></trkpt><trkpt lat="44.7147667" lon="10.39275"><ele>110.0</ele><time>2026-04-04T15:07:44.977Z</time></trkpt><trkpt lat="44.7146167" lon="10.3928817"><ele>110.0</ele><time>2026-04-04T15:07:45.976Z</time></trkpt><trkpt lat="44.7144767" lon="10.3930117"><ele>110.0</ele><time>2026-04-04T15:07:46.976Z</time></trkpt><trkpt lat="44.7143417" lon="10.393135"><ele>111.0</ele><time>2026-04-04T15:07:47.976Z</time></trkpt><trkpt lat="44.7142033" lon="10.3932633"><ele>112.0</ele><time>2026-04-04T15:07:48.977Z</time></trkpt><trkpt lat="44.7140617" lon="10.39339"><ele>113.0</ele><time>2026-04-04T15:07:49.976Z</time></trkpt><trkpt lat="44.71392" lon="10.3935217"><ele>113.0</ele><time>2026-04-04T15:07:50.976Z</time></trkpt><trkpt lat="44.7137917" lon="10.3936633"><ele>113.0</ele><time>2026-04-04T15:07:51.977Z</time></trkpt><trkpt lat="44.713675" lon="10.3938283"><ele>113.0</ele><time>2026-04-04T15:07:52.977Z</time></trkpt><trkpt lat="44.7135783" lon="10.3939917"><ele>113.0</ele><time>2026-04-04T15:07:53.976Z</time></trkpt><trkpt lat="44.7134817" lon="10.3941617"><ele>113.0</ele><time>2026-04-04T15:07:54.976Z</time></trkpt><trkpt lat="44.71339" lon="10.394325"><ele>113.0</ele><time>2026-04-04T15:07:55.977Z</time></trkpt><trkpt lat="44.7133083" lon="10.3944883"><ele>113.0</ele><time>2026-04-04T15:07:56.977Z</time></trkpt><trkpt lat="44.713225" lon="10.3946483"><ele>113.0</ele><time>2026-04-04T15:07:57.976Z</time></trkpt><trkpt lat="44.7131533" lon="10.394795"><ele>113.0</ele><time>2026-04-04T15:07:58.976Z</time></trkpt><trkpt lat="44.7130783" lon="10.3949367"><ele>113.0</ele><time>2026-04-04T15:07:59.977Z</time></trkpt><trkpt lat="44.7130083" lon="10.395075"><ele>113.0</ele><time>2026-04-04T15:08:00.976Z</time></trkpt><trkpt lat="44.7129333" lon="10.3952067"><ele>113.0</ele><time>2026-04-04T15:08:01.977Z</time></trkpt><trkpt lat="44.7128567" lon="10.3953383"><ele>113.00000000000001</ele><time>2026-04-04T15:08:02.976Z</time></trkpt><trkpt lat="44.7127867" lon="10.3954733"><ele>113.00000000000001</ele><time>2026-04-04T15:08:03.976Z</time></trkpt><trkpt lat="44.7127283" lon="10.3955933"><ele>113.0</ele><time>2026-04-04T15:08:04.976Z</time></trkpt><trkpt lat="44.712675" lon="10.3957017"><ele>113.0</ele><time>2026-04-04T15:08:05.976Z</time></trkpt><trkpt lat="44.7126233" lon="10.3958117"><ele>113.16666666666666</ele><time>2026-04-04T15:08:06.976Z</time></trkpt><trkpt lat="44.7125683" lon="10.39592"><ele>113.33333333333333</ele><time>2026-04-04T15:08:07.977Z</time></trkpt><trkpt lat="44.7125133" lon="10.3960233"><ele>113.5</ele><time>2026-04-04T15:08:08.976Z</time></trkpt><trkpt lat="44.7124633" lon="10.39613"><ele>113.66666666666666</ele><time>2026-04-04T15:08:09.977Z</time></trkpt><trkpt lat="44.71241" lon="10.39622"><ele>113.83333333333333</ele><time>2026-04-04T15:08:10.977Z</time></trkpt><trkpt lat="44.71236" lon="10.3963033"><ele>114.0</ele><time>2026-04-04T15:08:11.976Z</time></trkpt><trkpt lat="44.71232" lon="10.3963767"><ele>114.0</ele><time>2026-04-04T15:08:12.977Z</time></trkpt><trkpt lat="44.712225" lon="10.3964933"><ele>114.0</ele><time>2026-04-04T15:08:14.976Z</time></trkpt><trkpt lat="44.7121667" lon="10.3965417"><ele>114.0</ele><time>2026-04-04T15:08:15.976Z</time></trkpt><trkpt lat="44.7121033" lon="10.3965817"><ele>114.0</ele><time>2026-04-04T15:08:16.976Z</time></trkpt><trkpt lat="44.71199" lon="10.3966433"><ele>114.0</ele><time>2026-04-04T15:08:18.976Z</time></trkpt><trkpt lat="44.7119183" lon="10.3967683"><ele>114.0</ele><time>2026-04-04T15:08:20.977Z</time></trkpt><trkpt lat="44.7119067" lon="10.3968583"><ele>114.0</ele><time>2026-04-04T15:08:21.977Z</time></trkpt><trkpt lat="44.7119133" lon="10.3970467"><ele>114.0</ele><time>2026-04-04T15:08:23.977Z</time></trkpt><trkpt lat="44.711905" lon="10.3971517"><ele>114.0</ele><time>2026-04-04T15:08:24.977Z</time></trkpt><trkpt lat="44.7118567" lon="10.3972767"><ele>114.0</ele><time>2026-04-04T15:08:25.976Z</time></trkpt><trkpt lat="44.711805" lon="10.3974017"><ele>114.25</ele><time>2026-04-04T15:08:26.976Z</time></trkpt><trkpt lat="44.7117367" lon="10.3975417"><ele>114.5</ele><time>2026-04-04T15:08:27.977Z</time></trkpt><trkpt lat="44.7116483" lon="10.3976933"><ele>114.75</ele><time>2026-04-04T15:08:28.977Z</time></trkpt><trkpt lat="44.7115533" lon="10.3978533"><ele>115.0</ele><time>2026-04-04T15:08:29.977Z</time></trkpt><trkpt lat="44.7114633" lon="10.39801"><ele>115.5</ele><time>2026-04-04T15:08:30.976Z</time></trkpt><trkpt lat="44.7113817" lon="10.3981617"><ele>116.0</ele><time>2026-04-04T15:08:31.976Z</time></trkpt><trkpt lat="44.7113167" lon="10.3983017"><ele>116.5</ele><time>2026-04-04T15:08:32.976Z</time></trkpt><trkpt lat="44.711245" lon="10.3984333"><ele>117.0</ele><time>2026-04-04T15:08:33.977Z</time></trkpt><trkpt lat="44.711175" lon="10.3985767"><ele>117.0</ele><time>2026-04-04T15:08:34.976Z</time></trkpt><trkpt lat="44.7111" lon="10.3987"><ele>117.0</ele><time>2026-04-04T15:08:35.976Z</time></trkpt><trkpt lat="44.7110283" lon="10.3988317"><ele>117.0</ele><time>2026-04-04T15:08:36.976Z</time></trkpt><trkpt lat="44.7109533" lon="10.3989683"><ele>117.0</ele><time>2026-04-04T15:08:37.976Z</time></trkpt><trkpt lat="44.7108733" lon="10.3991317"><ele>116.66666666666666</ele><time>2026-04-04T15:08:38.976Z</time></trkpt><trkpt lat="44.7107867" lon="10.3993233"><ele>116.33333333333333</ele><time>2026-04-04T15:08:39.976Z</time></trkpt><trkpt lat="44.710685" lon="10.3995017"><ele>116.0</ele><time>2026-04-04T15:08:40.976Z</time></trkpt><trkpt lat="44.7105883" lon="10.3996833"><ele>115.0</ele><time>2026-04-04T15:08:41.976Z</time></trkpt><trkpt lat="44.7104967" lon="10.39986"><ele>114.0</ele><time>2026-04-04T15:08:42.976Z</time></trkpt><trkpt lat="44.7104" lon="10.4000467"><ele>113.0</ele><time>2026-04-04T15:08:43.976Z</time></trkpt><trkpt lat="44.7103133" lon="10.400245"><ele>113.66666666666666</ele><time>2026-04-04T15:08:44.976Z</time></trkpt><trkpt lat="44.7102" lon="10.400445"><ele>114.33333333333334</ele><time>2026-04-04T15:08:45.976Z</time></trkpt><trkpt lat="44.7100933" lon="10.4006383"><ele>115.0</ele><time>2026-04-04T15:08:46.976Z</time></trkpt><trkpt lat="44.7099983" lon="10.4008333"><ele>115.0</ele><time>2026-04-04T15:08:47.976Z</time></trkpt><trkpt lat="44.70989" lon="10.4010183"><ele>115.0</ele><time>2026-04-04T15:08:48.977Z</time></trkpt><trkpt lat="44.709785" lon="10.4012017"><ele>115.0</ele><time>2026-04-04T15:08:49.977Z</time></trkpt><trkpt lat="44.70969" lon="10.4013917"><ele>115.33333333333334</ele><time>2026-04-04T15:08:50.976Z</time></trkpt><trkpt lat="44.7095917" lon="10.4015783"><ele>115.66666666666666</ele><time>2026-04-04T15:08:51.976Z</time></trkpt><trkpt lat="44.70949" lon="10.4017717"><ele>116.0</ele><time>2026-04-04T15:08:52.976Z</time></trkpt><trkpt lat="44.7093933" lon="10.4019533"><ele>116.0</ele><time>2026-04-04T15:08:53.976Z</time></trkpt><trkpt lat="44.7093" lon="10.4021383"><ele>116.0</ele><time>2026-04-04T15:08:54.976Z</time></trkpt><trkpt lat="44.7092133" lon="10.4022933"><ele>116.0</ele><time>2026-04-04T15:08:55.977Z</time></trkpt><trkpt lat="44.70914" lon="10.4024417"><ele>116.0</ele><time>2026-04-04T15:08:56.976Z</time></trkpt><trkpt lat="44.7090733" lon="10.40257"><ele>115.8</ele><time>2026-04-04T15:08:57.977Z</time></trkpt><trkpt lat="44.7090117" lon="10.4026633"><ele>115.6</ele><time>2026-04-04T15:08:58.976Z</time></trkpt><trkpt lat="44.7089583" lon="10.40275"><ele>115.4</ele><time>2026-04-04T15:08:59.977Z</time></trkpt><trkpt lat="44.7089033" lon="10.4028617"><ele>115.2</ele><time>2026-04-04T15:09:00.976Z</time></trkpt><trkpt lat="44.708845" lon="10.40299"><ele>115.0</ele><time>2026-04-04T15:09:01.976Z</time></trkpt><trkpt lat="44.7087783" lon="10.4031267"><ele>115.0</ele><time>2026-04-04T15:09:02.977Z</time></trkpt><trkpt lat="44.708705" lon="10.40327"><ele>115.0</ele><time>2026-04-04T15:09:03.976Z</time></trkpt><trkpt lat="44.7086283" lon="10.40343"><ele>115.0</ele><time>2026-04-04T15:09:04.977Z</time></trkpt><trkpt lat="44.70854" lon="10.4035883"><ele>115.0</ele><time>2026-04-04T15:09:05.977Z</time></trkpt><trkpt lat="44.708445" lon="10.4037533"><ele>115.0</ele><time>2026-04-04T15:09:06.976Z</time></trkpt><trkpt lat="44.70836" lon="10.403915"><ele>115.0</ele><time>2026-04-04T15:09:07.976Z</time></trkpt><trkpt lat="44.7082667" lon="10.4041067"><ele>115.0</ele><time>2026-04-04T15:09:08.977Z</time></trkpt><trkpt lat="44.70818" lon="10.4042833"><ele>115.0</ele><time>2026-04-04T15:09:09.977Z</time></trkpt><trkpt lat="44.7080933" lon="10.4044533"><ele>115.0</ele><time>2026-04-04T15:09:10.976Z</time></trkpt><trkpt lat="44.7080033" lon="10.4046167"><ele>115.0</ele><time>2026-04-04T15:09:11.976Z</time></trkpt><trkpt lat="44.7079233" lon="10.4047583"><ele>115.0</ele><time>2026-04-04T15:09:12.977Z</time></trkpt><trkpt lat="44.7078383" lon="10.4048967"><ele>115.5</ele><time>2026-04-04T15:09:13.976Z</time></trkpt><trkpt lat="44.7077367" lon="10.405015"><ele>116.0</ele><time>2026-04-04T15:09:14.976Z</time></trkpt><trkpt lat="44.70761" lon="10.4051017"><ele>116.5</ele><time>2026-04-04T15:09:15.976Z</time></trkpt><trkpt lat="44.7074917" lon="10.4051617"><ele>117.0</ele><time>2026-04-04T15:09:16.976Z</time></trkpt><trkpt lat="44.707385" lon="10.4052217"><ele>117.0</ele><time>2026-04-04T15:09:17.976Z</time></trkpt><trkpt lat="44.7071683" lon="10.40538"><ele>117.0</ele><time>2026-04-04T15:09:19.976Z</time></trkpt><trkpt lat="44.7070617" lon="10.405445"><ele>117.0</ele><time>2026-04-04T15:09:20.977Z</time></trkpt><trkpt lat="44.7069517" lon="10.4054983"><ele>116.75</ele><time>2026-04-04T15:09:21.977Z</time></trkpt><trkpt lat="44.706835" lon="10.4055267"><ele>116.5</ele><time>2026-04-04T15:09:22.976Z</time></trkpt><trkpt lat="44.7067117" lon="10.405525"><ele>116.25</ele><time>2026-04-04T15:09:23.976Z</time></trkpt><trkpt lat="44.7065867" lon="10.4054983"><ele>116.0</ele><time>2026-04-04T15:09:24.976Z</time></trkpt><trkpt lat="44.7064567" lon="10.405465"><ele>116.0</ele><time>2026-04-04T15:09:25.977Z</time></trkpt><trkpt lat="44.70633" lon="10.4054267"><ele>116.0</ele><time>2026-04-04T15:09:26.976Z</time></trkpt><trkpt lat="44.7062183" lon="10.4053983"><ele>116.0</ele><time>2026-04-04T15:09:27.976Z</time></trkpt><trkpt lat="44.70611" lon="10.4053733"><ele>116.0</ele><time>2026-04-04T15:09:28.977Z</time></trkpt><trkpt lat="44.7060183" lon="10.4053567"><ele>116.0</ele><time>2026-04-04T15:09:29.976Z</time></trkpt><trkpt lat="44.705935" lon="10.405335"><ele>115.83333333333333</ele><time>2026-04-04T15:09:30.976Z</time></trkpt><trkpt lat="44.7058617" lon="10.4053183"><ele>115.66666666666666</ele><time>2026-04-04T15:09:31.977Z</time></trkpt><trkpt lat="44.705785" lon="10.4053067"><ele>115.5</ele><time>2026-04-04T15:09:32.976Z</time></trkpt><trkpt lat="44.70571" lon="10.4052817"><ele>115.33333333333334</ele><time>2026-04-04T15:09:33.977Z</time></trkpt><trkpt lat="44.705635" lon="10.40525"><ele>115.16666666666667</ele><time>2026-04-04T15:09:34.976Z</time></trkpt><trkpt lat="44.7055733" lon="10.405225"><ele>115.0</ele><time>2026-04-04T15:09:35.976Z</time></trkpt><trkpt lat="44.7054717" lon="10.4051417"><ele>115.0</ele><time>2026-04-04T15:09:37.976Z</time></trkpt><trkpt lat="44.7054233" lon="10.4050833"><ele>115.0</ele><time>2026-04-04T15:09:38.976Z</time></trkpt><trkpt lat="44.705355" lon="10.4049833"><ele>115.0</ele><time>2026-04-04T15:09:40.976Z</time></trkpt><trkpt lat="44.70531" lon="10.404865"><ele>115.0</ele><time>2026-04-04T15:09:42.977Z</time></trkpt><trkpt lat="44.7052717" lon="10.404705"><ele>115.0</ele><time>2026-04-04T15:09:44.976Z</time></trkpt><trkpt lat="44.7052083" lon="10.4046017"><ele>114.8</ele><time>2026-04-04T15:09:46.976Z</time></trkpt><trkpt lat="44.7050967" lon="10.4046467"><ele>114.6</ele><time>2026-04-04T15:09:48.977Z</time></trkpt><trkpt lat="44.705055" lon="10.4047367"><ele>114.4</ele><time>2026-04-04T15:09:49.977Z</time></trkpt><trkpt lat="44.7050217" lon="10.404865"><ele>114.2</ele><time>2026-04-04T15:09:50.977Z</time></trkpt><trkpt lat="44.7049733" lon="10.405"><ele>114.0</ele><time>2026-04-04T15:09:51.976Z</time></trkpt><trkpt lat="44.7048983" lon="10.40514"><ele>114.0</ele><time>2026-04-04T15:09:52.977Z</time></trkpt><trkpt lat="44.7048067" lon="10.4052867"><ele>114.0</ele><time>2026-04-04T15:09:53.976Z</time></trkpt><trkpt lat="44.704705" lon="10.4054383"><ele>114.0</ele><time>2026-04-04T15:09:54.976Z</time></trkpt><trkpt lat="44.7045933" lon="10.40559"><ele>114.0</ele><time>2026-04-04T15:09:55.976Z</time></trkpt><trkpt lat="44.7044717" lon="10.4057417"><ele>113.66666666666666</ele><time>2026-04-04T15:09:56.976Z</time></trkpt><trkpt lat="44.7043467" lon="10.40589"><ele>113.33333333333333</ele><time>2026-04-04T15:09:57.977Z</time></trkpt><trkpt lat="44.704235" lon="10.40606"><ele>113.0</ele><time>2026-04-04T15:09:58.977Z</time></trkpt><trkpt lat="44.7041117" lon="10.406225"><ele>111.33333333333333</ele><time>2026-04-04T15:09:59.976Z</time></trkpt><trkpt lat="44.7039867" lon="10.406395"><ele>109.66666666666666</ele><time>2026-04-04T15:10:00.976Z</time></trkpt><trkpt lat="44.7038583" lon="10.4065583"><ele>108.0</ele><time>2026-04-04T15:10:01.977Z</time></trkpt><trkpt lat="44.7037333" lon="10.4067367"><ele>108.0</ele><time>2026-04-04T15:10:02.976Z</time></trkpt><trkpt lat="44.703595" lon="10.4069183"><ele>108.0</ele><time>2026-04-04T15:10:03.977Z</time></trkpt><trkpt lat="44.7034583" lon="10.4071017"><ele>108.0</ele><time>2026-04-04T15:10:04.977Z</time></trkpt><trkpt lat="44.7033233" lon="10.4072883"><ele>107.66666666666666</ele><time>2026-04-04T15:10:05.976Z</time></trkpt><trkpt lat="44.7031767" lon="10.4074883"><ele>107.33333333333333</ele><time>2026-04-04T15:10:06.977Z</time></trkpt><trkpt lat="44.7030267" lon="10.4076867"><ele>107.0</ele><time>2026-04-04T15:10:07.976Z</time></trkpt><trkpt lat="44.7028733" lon="10.4079017"><ele>107.0</ele><time>2026-04-04T15:10:08.977Z</time></trkpt><trkpt lat="44.7027133" lon="10.4081333"><ele>107.0</ele><time>2026-04-04T15:10:09.977Z</time></trkpt><trkpt lat="44.7025483" lon="10.4083633"><ele>107.0</ele><time>2026-04-04T15:10:10.976Z</time></trkpt><trkpt lat="44.70237" lon="10.40859"><ele>107.0</ele><time>2026-04-04T15:10:11.976Z</time></trkpt><trkpt lat="44.7021783" lon="10.408845"><ele>107.0</ele><time>2026-04-04T15:10:12.977Z</time></trkpt><trkpt lat="44.701985" lon="10.4090883"><ele>107.0</ele><time>2026-04-04T15:10:13.976Z</time></trkpt><trkpt lat="44.701795" lon="10.4093317"><ele>107.0</ele><time>2026-04-04T15:10:14.977Z</time></trkpt><trkpt lat="44.7016217" lon="10.40957"><ele>107.0</ele><time>2026-04-04T15:10:15.977Z</time></trkpt><trkpt lat="44.7014633" lon="10.4098"><ele>107.0</ele><time>2026-04-04T15:10:16.976Z</time></trkpt><trkpt lat="44.7013367" lon="10.4100517"><ele>107.0</ele><time>2026-04-04T15:10:17.976Z</time></trkpt><trkpt lat="44.70123" lon="10.4103367"><ele>107.0</ele><time>2026-04-04T15:10:18.976Z</time></trkpt><trkpt lat="44.7011533" lon="10.4106183"><ele>107.0</ele><time>2026-04-04T15:10:19.976Z</time></trkpt><trkpt lat="44.70108" lon="10.410925"><ele>107.0</ele><time>2026-04-04T15:10:20.977Z</time></trkpt><trkpt lat="44.700995" lon="10.4112483"><ele>107.0</ele><time>2026-04-04T15:10:21.976Z</time></trkpt><trkpt lat="44.7009117" lon="10.4115717"><ele>107.0</ele><time>2026-04-04T15:10:22.977Z</time></trkpt><trkpt lat="44.7008317" lon="10.4118917"><ele>106.0</ele><time>2026-04-04T15:10:23.976Z</time></trkpt><trkpt lat="44.700755" lon="10.4122033"><ele>105.0</ele><time>2026-04-04T15:10:24.976Z</time></trkpt><trkpt lat="44.7006783" lon="10.4125083"><ele>105.0</ele><time>2026-04-04T15:10:25.976Z</time></trkpt><trkpt lat="44.7006033" lon="10.4128217"><ele>105.0</ele><time>2026-04-04T15:10:26.976Z</time></trkpt><trkpt lat="44.70053" lon="10.413135"><ele>104.5</ele><time>2026-04-04T15:10:27.977Z</time></trkpt><trkpt lat="44.7004517" lon="10.413435"><ele>104.0</ele><time>2026-04-04T15:10:28.976Z</time></trkpt><trkpt lat="44.700375" lon="10.4137367"><ele>104.0</ele><time>2026-04-04T15:10:29.976Z</time></trkpt><trkpt lat="44.7002983" lon="10.41404"><ele>104.0</ele><time>2026-04-04T15:10:30.977Z</time></trkpt><trkpt lat="44.7002183" lon="10.4143367"><ele>104.0</ele><time>2026-04-04T15:10:31.977Z</time></trkpt><trkpt lat="44.7001433" lon="10.4146333"><ele>104.0</ele><time>2026-04-04T15:10:32.977Z</time></trkpt><trkpt lat="44.7000667" lon="10.41494"><ele>104.5</ele><time>2026-04-04T15:10:33.977Z</time></trkpt><trkpt lat="44.6999867" lon="10.4152383"><ele>105.0</ele><time>2026-04-04T15:10:34.976Z</time></trkpt><trkpt lat="44.6999133" lon="10.4155433"><ele>105.0</ele><time>2026-04-04T15:10:35.977Z</time></trkpt><trkpt lat="44.6998433" lon="10.4158383"><ele>105.0</ele><time>2026-04-04T15:10:36.976Z</time></trkpt><trkpt lat="44.699765" lon="10.4161233"><ele>105.0</ele><time>2026-04-04T15:10:37.977Z</time></trkpt><trkpt lat="44.699695" lon="10.4164067"><ele>105.66666666666666</ele><time>2026-04-04T15:10:38.976Z</time></trkpt><trkpt lat="44.699625" lon="10.4166867"><ele>106.33333333333333</ele><time>2026-04-04T15:10:39.977Z</time></trkpt><trkpt lat="44.6995517" lon="10.416975"><ele>107.0</ele><time>2026-04-04T15:10:40.976Z</time></trkpt><trkpt lat="44.6994833" lon="10.4172467"><ele>107.66666666666666</ele><time>2026-04-04T15:10:41.976Z</time></trkpt><trkpt lat="44.6994067" lon="10.417515"><ele>108.33333333333334</ele><time>2026-04-04T15:10:42.977Z</time></trkpt><trkpt lat="44.6993283" lon="10.4177733"><ele>109.0</ele><time>2026-04-04T15:10:43.976Z</time></trkpt><trkpt lat="44.6992533" lon="10.4180367"><ele>109.33333333333334</ele><time>2026-04-04T15:10:44.976Z</time></trkpt><trkpt lat="44.6991767" lon="10.4182933"><ele>109.66666666666666</ele><time>2026-04-04T15:10:45.977Z</time></trkpt><trkpt lat="44.6991083" lon="10.4185567"><ele>110.0</ele><time>2026-04-04T15:10:46.976Z</time></trkpt><trkpt lat="44.6990433" lon="10.4188067"><ele>110.33333333333333</ele><time>2026-04-04T15:10:47.976Z</time></trkpt><trkpt lat="44.6989817" lon="10.41904"><ele>110.66666666666666</ele><time>2026-04-04T15:10:48.976Z</time></trkpt><trkpt lat="44.6989233" lon="10.41929"><ele>111.0</ele><time>2026-04-04T15:10:49.977Z</time></trkpt><trkpt lat="44.6988517" lon="10.41954"><ele>110.33333333333334</ele><time>2026-04-04T15:10:50.976Z</time></trkpt><trkpt lat="44.6987767" lon="10.4197917"><ele>109.66666666666667</ele><time>2026-04-04T15:10:51.977Z</time></trkpt><trkpt lat="44.6987133" lon="10.4200683"><ele>109.0</ele><time>2026-04-04T15:10:52.977Z</time></trkpt><trkpt lat="44.6986433" lon="10.4203533"><ele>111.5</ele><time>2026-04-04T15:10:53.976Z</time></trkpt><trkpt lat="44.6985633" lon="10.4206467"><ele>114.0</ele><time>2026-04-04T15:10:54.976Z</time></trkpt><trkpt lat="44.6984833" lon="10.42095"><ele>114.0</ele><time>2026-04-04T15:10:55.977Z</time></trkpt><trkpt lat="44.6984033" lon="10.4212583"><ele>114.0</ele><time>2026-04-04T15:10:56.976Z</time></trkpt><trkpt lat="44.69832" lon="10.4215533"><ele>114.5</ele><time>2026-04-04T15:10:57.975Z</time></trkpt><trkpt lat="44.6982383" lon="10.4218583"><ele>115.0</ele><time>2026-04-04T15:10:58.975Z</time></trkpt><trkpt lat="44.6981517" lon="10.422155"><ele>115.33333333333334</ele><time>2026-04-04T15:10:59.976Z</time></trkpt><trkpt lat="44.69809" lon="10.4224517"><ele>115.66666666666666</ele><time>2026-04-04T15:11:00.976Z</time></trkpt><trkpt lat="44.6980183" lon="10.422755"><ele>116.0</ele><time>2026-04-04T15:11:01.976Z</time></trkpt><trkpt lat="44.6979583" lon="10.42305"><ele>116.33333333333333</ele><time>2026-04-04T15:11:02.975Z</time></trkpt><trkpt lat="44.6979133" lon="10.4233367"><ele>116.66666666666666</ele><time>2026-04-04T15:11:03.975Z</time></trkpt><trkpt lat="44.697875" lon="10.42361"><ele>117.0</ele><time>2026-04-04T15:11:04.976Z</time></trkpt><trkpt lat="44.697845" lon="10.423855"><ele>117.0</ele><time>2026-04-04T15:11:05.975Z</time></trkpt><trkpt lat="44.6978217" lon="10.4240883"><ele>117.0</ele><time>2026-04-04T15:11:06.975Z</time></trkpt><trkpt lat="44.6977883" lon="10.4243033"><ele>117.0</ele><time>2026-04-04T15:11:07.976Z</time></trkpt><trkpt lat="44.6977717" lon="10.424525"><ele>117.75</ele><time>2026-04-04T15:11:08.975Z</time></trkpt><trkpt lat="44.6977483" lon="10.42472"><ele>118.5</ele><time>2026-04-04T15:11:09.975Z</time></trkpt><trkpt lat="44.6977233" lon="10.4249167"><ele>119.25</ele><time>2026-04-04T15:11:10.976Z</time></trkpt><trkpt lat="44.6977017" lon="10.42514"><ele>120.0</ele><time>2026-04-04T15:11:11.976Z</time></trkpt><trkpt lat="44.6976783" lon="10.42535"><ele>120.25</ele><time>2026-04-04T15:11:12.976Z</time></trkpt><trkpt lat="44.6976467" lon="10.42553"><ele>120.5</ele><time>2026-04-04T15:11:13.975Z</time></trkpt><trkpt lat="44.6976183" lon="10.42571"><ele>120.75</ele><time>2026-04-04T15:11:14.975Z</time></trkpt><trkpt lat="44.6975983" lon="10.425865"><ele>121.0</ele><time>2026-04-04T15:11:15.976Z</time></trkpt><trkpt lat="44.6975833" lon="10.4260183"><ele>121.0</ele><time>2026-04-04T15:11:16.976Z</time></trkpt><trkpt lat="44.6975717" lon="10.4261567"><ele>121.0</ele><time>2026-04-04T15:11:17.975Z</time></trkpt><trkpt lat="44.6975583" lon="10.4263133"><ele>121.0</ele><time>2026-04-04T15:11:18.976Z</time></trkpt><trkpt lat="44.6975567" lon="10.4264733"><ele>121.0</ele><time>2026-04-04T15:11:19.975Z</time></trkpt><trkpt lat="44.6975733" lon="10.4266317"><ele>121.0</ele><time>2026-04-04T15:11:20.975Z</time></trkpt><trkpt lat="44.6976033" lon="10.4267917"><ele>120.75</ele><time>2026-04-04T15:11:21.976Z</time></trkpt><trkpt lat="44.6976433" lon="10.426935"><ele>120.5</ele><time>2026-04-04T15:11:22.976Z</time></trkpt><trkpt lat="44.6977033" lon="10.4270883"><ele>120.25</ele><time>2026-04-04T15:11:23.976Z</time></trkpt><trkpt lat="44.69779" lon="10.427255"><ele>120.0</ele><time>2026-04-04T15:11:24.976Z</time></trkpt><trkpt lat="44.6978967" lon="10.4274467"><ele>120.0</ele><time>2026-04-04T15:11:25.976Z</time></trkpt><trkpt lat="44.6980117" lon="10.4276417"><ele>120.0</ele><time>2026-04-04T15:11:26.976Z</time></trkpt><trkpt lat="44.6981217" lon="10.4278383"><ele>120.0</ele><time>2026-04-04T15:11:27.976Z</time></trkpt><trkpt lat="44.6982283" lon="10.4280183"><ele>117.66666666666666</ele><time>2026-04-04T15:11:28.976Z</time></trkpt><trkpt lat="44.6983583" lon="10.4281633"><ele>115.33333333333333</ele><time>2026-04-04T15:11:29.976Z</time></trkpt><trkpt lat="44.698515" lon="10.4282583"><ele>113.0</ele><time>2026-04-04T15:11:30.975Z</time></trkpt><trkpt lat="44.6986783" lon="10.4283233"><ele>113.0</ele><time>2026-04-04T15:11:31.976Z</time></trkpt><trkpt lat="44.6988233" lon="10.4283467"><ele>113.0</ele><time>2026-04-04T15:11:32.976Z</time></trkpt><trkpt lat="44.6989667" lon="10.4283617"><ele>113.0</ele><time>2026-04-04T15:11:33.975Z</time></trkpt><trkpt lat="44.6990983" lon="10.428365"><ele>113.0</ele><time>2026-04-04T15:11:34.976Z</time></trkpt><trkpt lat="44.6992283" lon="10.42838"><ele>113.0</ele><time>2026-04-04T15:11:35.975Z</time></trkpt><trkpt lat="44.6993583" lon="10.42839"><ele>113.0</ele><time>2026-04-04T15:11:36.975Z</time></trkpt><trkpt lat="44.6994867" lon="10.4284033"><ele>113.0</ele><time>2026-04-04T15:11:37.975Z</time></trkpt><trkpt lat="44.6996133" lon="10.4284233"><ele>113.0</ele><time>2026-04-04T15:11:38.976Z</time></trkpt><trkpt lat="44.69974" lon="10.4284583"><ele>113.25</ele><time>2026-04-04T15:11:39.975Z</time></trkpt><trkpt lat="44.6998683" lon="10.4285117"><ele>113.5</ele><time>2026-04-04T15:11:40.975Z</time></trkpt><trkpt lat="44.6999967" lon="10.4285967"><ele>113.75</ele><time>2026-04-04T15:11:41.976Z</time></trkpt><trkpt lat="44.7001083" lon="10.4286967"><ele>114.0</ele><time>2026-04-04T15:11:42.976Z</time></trkpt><trkpt lat="44.7002" lon="10.42882"><ele>113.75</ele><time>2026-04-04T15:11:43.976Z</time></trkpt><trkpt lat="44.7002883" lon="10.4289633"><ele>113.5</ele><time>2026-04-04T15:11:44.976Z</time></trkpt><trkpt lat="44.70036" lon="10.429125"><ele>113.25</ele><time>2026-04-04T15:11:45.975Z</time></trkpt><trkpt lat="44.7004033" lon="10.4293017"><ele>113.0</ele><time>2026-04-04T15:11:46.976Z</time></trkpt><trkpt lat="44.7004283" lon="10.4294967"><ele>110.25</ele><time>2026-04-04T15:11:47.975Z</time></trkpt><trkpt lat="44.70044" lon="10.4297083"><ele>107.5</ele><time>2026-04-04T15:11:48.975Z</time></trkpt><trkpt lat="44.7004383" lon="10.4298983"><ele>104.75</ele><time>2026-04-04T15:11:49.976Z</time></trkpt><trkpt lat="44.7004167" lon="10.4301017"><ele>102.0</ele><time>2026-04-04T15:11:50.975Z</time></trkpt><trkpt lat="44.70037" lon="10.4302933"><ele>101.66666666666666</ele><time>2026-04-04T15:11:51.975Z</time></trkpt><trkpt lat="44.7003117" lon="10.4304967"><ele>101.33333333333333</ele><time>2026-04-04T15:11:52.976Z</time></trkpt><trkpt lat="44.7002467" lon="10.43071"><ele>101.0</ele><time>2026-04-04T15:11:53.975Z</time></trkpt><trkpt lat="44.7001717" lon="10.4309233"><ele>101.0</ele><time>2026-04-04T15:11:54.976Z</time></trkpt><trkpt lat="44.700095" lon="10.4311583"><ele>101.0</ele><time>2026-04-04T15:11:55.976Z</time></trkpt><trkpt lat="44.70002" lon="10.4314033"><ele>101.0</ele><time>2026-04-04T15:11:56.975Z</time></trkpt><trkpt lat="44.6999433" lon="10.4316633"><ele>100.33333333333333</ele><time>2026-04-04T15:11:57.976Z</time></trkpt><trkpt lat="44.6998517" lon="10.43194"><ele>99.66666666666666</ele><time>2026-04-04T15:11:58.976Z</time></trkpt><trkpt lat="44.6997583" lon="10.432225"><ele>99.0</ele><time>2026-04-04T15:11:59.975Z</time></trkpt><trkpt lat="44.6996583" lon="10.4325017"><ele>98.0</ele><time>2026-04-04T15:12:00.976Z</time></trkpt><trkpt lat="44.699565" lon="10.432765"><ele>97.0</ele><time>2026-04-04T15:12:01.975Z</time></trkpt><trkpt lat="44.6994783" lon="10.4330333"><ele>96.0</ele><time>2026-04-04T15:12:02.976Z</time></trkpt><trkpt lat="44.69939" lon="10.4333017"><ele>95.33333333333333</ele><time>2026-04-04T15:12:03.975Z</time></trkpt><trkpt lat="44.6993017" lon="10.4335633"><ele>94.66666666666666</ele><time>2026-04-04T15:12:04.975Z</time></trkpt><trkpt lat="44.6992083" lon="10.4338317"><ele>94.0</ele><time>2026-04-04T15:12:05.976Z</time></trkpt><trkpt lat="44.69912" lon="10.43409"><ele>94.0</ele><time>2026-04-04T15:12:06.975Z</time></trkpt><trkpt lat="44.6990367" lon="10.4343533"><ele>94.0</ele><time>2026-04-04T15:12:07.975Z</time></trkpt><trkpt lat="44.6989583" lon="10.4346117"><ele>94.0</ele><time>2026-04-04T15:12:08.975Z</time></trkpt><trkpt lat="44.6988783" lon="10.4348717"><ele>95.66666666666666</ele><time>2026-04-04T15:12:09.975Z</time></trkpt><trkpt lat="44.698805" lon="10.43513"><ele>97.33333333333333</ele><time>2026-04-04T15:12:10.976Z</time></trkpt><trkpt lat="44.69873" lon="10.435385"><ele>99.0</ele><time>2026-04-04T15:12:11.976Z</time></trkpt><trkpt lat="44.6986567" lon="10.4356333"><ele>99.33333333333334</ele><time>2026-04-04T15:12:12.976Z</time></trkpt><trkpt lat="44.69859" lon="10.4358983"><ele>99.66666666666667</ele><time>2026-04-04T15:12:13.975Z</time></trkpt><trkpt lat="44.6985317" lon="10.43615"><ele>100.0</ele><time>2026-04-04T15:12:14.975Z</time></trkpt><trkpt lat="44.69849" lon="10.4364217"><ele>100.33333333333334</ele><time>2026-04-04T15:12:15.975Z</time></trkpt><trkpt lat="44.6984533" lon="10.4367"><ele>100.66666666666666</ele><time>2026-04-04T15:12:16.976Z</time></trkpt><trkpt lat="44.69844" lon="10.43697"><ele>101.0</ele><time>2026-04-04T15:12:17.975Z</time></trkpt><trkpt lat="44.6984417" lon="10.437245"><ele>101.0</ele><time>2026-04-04T15:12:18.976Z</time></trkpt><trkpt lat="44.698455" lon="10.4375283"><ele>101.0</ele><time>2026-04-04T15:12:19.975Z</time></trkpt><trkpt lat="44.6984767" lon="10.4378067"><ele>101.0</ele><time>2026-04-04T15:12:20.975Z</time></trkpt><trkpt lat="44.6985067" lon="10.438085"><ele>100.0</ele><time>2026-04-04T15:12:21.975Z</time></trkpt><trkpt lat="44.6985433" lon="10.43835"><ele>99.0</ele><time>2026-04-04T15:12:22.975Z</time></trkpt><trkpt lat="44.6985967" lon="10.438615"><ele>98.0</ele><time>2026-04-04T15:12:23.975Z</time></trkpt><trkpt lat="44.6986617" lon="10.4388783"><ele>98.0</ele><time>2026-04-04T15:12:24.975Z</time></trkpt><trkpt lat="44.698735" lon="10.4391333"><ele>98.0</ele><time>2026-04-04T15:12:25.975Z</time></trkpt><trkpt lat="44.698815" lon="10.4393933"><ele>98.0</ele><time>2026-04-04T15:12:26.976Z</time></trkpt><trkpt lat="44.698895" lon="10.4396517"><ele>98.0</ele><time>2026-04-04T15:12:27.976Z</time></trkpt><trkpt lat="44.6989783" lon="10.4399067"><ele>98.0</ele><time>2026-04-04T15:12:28.976Z</time></trkpt><trkpt lat="44.6990633" lon="10.4401567"><ele>98.0</ele><time>2026-04-04T15:12:29.975Z</time></trkpt><trkpt lat="44.6991433" lon="10.4404017"><ele>98.0</ele><time>2026-04-04T15:12:30.975Z</time></trkpt><trkpt lat="44.699215" lon="10.4406583"><ele>98.0</ele><time>2026-04-04T15:12:31.975Z</time></trkpt><trkpt lat="44.6992917" lon="10.440915"><ele>98.0</ele><time>2026-04-04T15:12:32.975Z</time></trkpt><trkpt lat="44.69937" lon="10.44119"><ele>97.66666666666666</ele><time>2026-04-04T15:12:33.975Z</time></trkpt><trkpt lat="44.699445" lon="10.4414383"><ele>97.33333333333334</ele><time>2026-04-04T15:12:34.975Z</time></trkpt><trkpt lat="44.699505" lon="10.4416883"><ele>97.0</ele><time>2026-04-04T15:12:35.975Z</time></trkpt><trkpt lat="44.69955" lon="10.44191"><ele>97.0</ele><time>2026-04-04T15:12:36.975Z</time></trkpt><trkpt lat="44.6995817" lon="10.4421333"><ele>97.0</ele><time>2026-04-04T15:12:37.976Z</time></trkpt><trkpt lat="44.6996" lon="10.4423533"><ele>97.0</ele><time>2026-04-04T15:12:38.976Z</time></trkpt><trkpt lat="44.6996083" lon="10.44258"><ele>97.0</ele><time>2026-04-04T15:12:39.975Z</time></trkpt><trkpt lat="44.6996033" lon="10.4427883"><ele>97.0</ele><time>2026-04-04T15:12:40.975Z</time></trkpt><trkpt lat="44.6996017" lon="10.4430067"><ele>97.0</ele><time>2026-04-04T15:12:41.975Z</time></trkpt><trkpt lat="44.6995967" lon="10.4432217"><ele>97.0</ele><time>2026-04-04T15:12:42.975Z</time></trkpt><trkpt lat="44.6995833" lon="10.44343"><ele>97.0</ele><time>2026-04-04T15:12:43.975Z</time></trkpt><trkpt lat="44.699565" lon="10.44363"><ele>97.0</ele><time>2026-04-04T15:12:44.975Z</time></trkpt><trkpt lat="44.6995433" lon="10.4438183"><ele>97.0</ele><time>2026-04-04T15:12:45.975Z</time></trkpt><trkpt lat="44.6995167" lon="10.4439983"><ele>97.0</ele><time>2026-04-04T15:12:46.975Z</time></trkpt><trkpt lat="44.6994817" lon="10.4441817"><ele>97.0</ele><time>2026-04-04T15:12:47.976Z</time></trkpt><trkpt lat="44.69944" lon="10.4443683"><ele>97.0</ele><time>2026-04-04T15:12:48.976Z</time></trkpt><trkpt lat="44.699395" lon="10.444545"><ele>97.0</ele><time>2026-04-04T15:12:49.975Z</time></trkpt><trkpt lat="44.6993567" lon="10.444695"><ele>97.6</ele><time>2026-04-04T15:12:50.975Z</time></trkpt><trkpt lat="44.6993183" lon="10.444845"><ele>98.19999999999999</ele><time>2026-04-04T15:12:51.975Z</time></trkpt><trkpt lat="44.69928" lon="10.4449883"><ele>98.8</ele><time>2026-04-04T15:12:52.976Z</time></trkpt><trkpt lat="44.6992467" lon="10.4451283"><ele>99.4</ele><time>2026-04-04T15:12:53.975Z</time></trkpt><trkpt lat="44.6992233" lon="10.445265"><ele>100.0</ele><time>2026-04-04T15:12:54.975Z</time></trkpt><trkpt lat="44.6991817" lon="10.4453967"><ele>99.75</ele><time>2026-04-04T15:12:55.975Z</time></trkpt><trkpt lat="44.6991333" lon="10.4455417"><ele>99.5</ele><time>2026-04-04T15:12:56.975Z</time></trkpt><trkpt lat="44.6990783" lon="10.4456933"><ele>99.25</ele><time>2026-04-04T15:12:57.975Z</time></trkpt><trkpt lat="44.69903" lon="10.4458683"><ele>99.0</ele><time>2026-04-04T15:12:58.976Z</time></trkpt><trkpt lat="44.6989867" lon="10.446045"><ele>99.0</ele><time>2026-04-04T15:12:59.975Z</time></trkpt><trkpt lat="44.6989467" lon="10.44621"><ele>99.0</ele><time>2026-04-04T15:13:00.975Z</time></trkpt><trkpt lat="44.6989133" lon="10.4463617"><ele>99.0</ele><time>2026-04-04T15:13:01.975Z</time></trkpt><trkpt lat="44.69888" lon="10.44651"><ele>99.0</ele><time>2026-04-04T15:13:02.975Z</time></trkpt><trkpt lat="44.6988483" lon="10.4466483"><ele>99.0</ele><time>2026-04-04T15:13:03.976Z</time></trkpt><trkpt lat="44.69881" lon="10.4467933"><ele>99.0</ele><time>2026-04-04T15:13:04.975Z</time></trkpt><trkpt lat="44.69878" lon="10.446935"><ele>99.0</ele><time>2026-04-04T15:13:05.975Z</time></trkpt><trkpt lat="44.698745" lon="10.4470617"><ele>99.0</ele><time>2026-04-04T15:13:06.975Z</time></trkpt><trkpt lat="44.69872" lon="10.4471833"><ele>99.0</ele><time>2026-04-04T15:13:07.975Z</time></trkpt><trkpt lat="44.6986883" lon="10.4472967"><ele>99.0</ele><time>2026-04-04T15:13:08.975Z</time></trkpt><trkpt lat="44.6986567" lon="10.447395"><ele>99.0</ele><time>2026-04-04T15:13:09.975Z</time></trkpt><trkpt lat="44.6986317" lon="10.4474933"><ele>99.0</ele><time>2026-04-04T15:13:10.975Z</time></trkpt><trkpt lat="44.6986133" lon="10.4475867"><ele>99.0</ele><time>2026-04-04T15:13:11.976Z</time></trkpt><trkpt lat="44.6985917" lon="10.44768"><ele>99.0</ele><time>2026-04-04T15:13:12.976Z</time></trkpt><trkpt lat="44.69857" lon="10.4477817"><ele>99.0</ele><time>2026-04-04T15:13:13.976Z</time></trkpt><trkpt lat="44.6985517" lon="10.4478717"><ele>99.0</ele><time>2026-04-04T15:13:14.976Z</time></trkpt><trkpt lat="44.6985283" lon="10.4479617"><ele>99.0</ele><time>2026-04-04T15:13:15.975Z</time></trkpt><trkpt lat="44.6985067" lon="10.4480483"><ele>99.0</ele><time>2026-04-04T15:13:16.975Z</time></trkpt><trkpt lat="44.6984733" lon="10.448205"><ele>99.0</ele><time>2026-04-04T15:13:18.976Z</time></trkpt><trkpt lat="44.6984317" lon="10.44834"><ele>99.0</ele><time>2026-04-04T15:13:20.976Z</time></trkpt><trkpt lat="44.6983667" lon="10.4484967"><ele>99.0</ele><time>2026-04-04T15:13:22.976Z</time></trkpt><trkpt lat="44.6983333" lon="10.44862"><ele>99.0</ele><time>2026-04-04T15:13:23.975Z</time></trkpt><trkpt lat="44.6983183" lon="10.4487783"><ele>99.0</ele><time>2026-04-04T15:13:24.975Z</time></trkpt><trkpt lat="44.69831" lon="10.448955"><ele>99.0</ele><time>2026-04-04T15:13:25.975Z</time></trkpt><trkpt lat="44.69829" lon="10.4491517"><ele>99.0</ele><time>2026-04-04T15:13:26.975Z</time></trkpt><trkpt lat="44.6982483" lon="10.4493567"><ele>99.25</ele><time>2026-04-04T15:13:27.975Z</time></trkpt><trkpt lat="44.6982117" lon="10.44954"><ele>99.5</ele><time>2026-04-04T15:13:28.976Z</time></trkpt><trkpt lat="44.6981717" lon="10.44971"><ele>99.75</ele><time>2026-04-04T15:13:29.975Z</time></trkpt><trkpt lat="44.698145" lon="10.4498583"><ele>100.0</ele><time>2026-04-04T15:13:30.975Z</time></trkpt><trkpt lat="44.6981183" lon="10.44999"><ele>100.0</ele><time>2026-04-04T15:13:31.975Z</time></trkpt><trkpt lat="44.69808" lon="10.4501183"><ele>100.0</ele><time>2026-04-04T15:13:32.975Z</time></trkpt><trkpt lat="44.6980433" lon="10.450245"><ele>100.0</ele><time>2026-04-04T15:13:33.976Z</time></trkpt><trkpt lat="44.6980167" lon="10.45041"><ele>100.0</ele><time>2026-04-04T15:13:34.976Z</time></trkpt><trkpt lat="44.6979933" lon="10.4505933"><ele>100.0</ele><time>2026-04-04T15:13:35.975Z</time></trkpt><trkpt lat="44.6979533" lon="10.4508033"><ele>100.0</ele><time>2026-04-04T15:13:36.975Z</time></trkpt><trkpt lat="44.69791" lon="10.4510417"><ele>100.0</ele><time>2026-04-04T15:13:37.976Z</time></trkpt><trkpt lat="44.6978583" lon="10.4512783"><ele>100.0</ele><time>2026-04-04T15:13:38.976Z</time></trkpt><trkpt lat="44.6978083" lon="10.4515283"><ele>100.33333333333334</ele><time>2026-04-04T15:13:39.975Z</time></trkpt><trkpt lat="44.6977567" lon="10.4517883"><ele>100.66666666666666</ele><time>2026-04-04T15:13:40.975Z</time></trkpt><trkpt lat="44.6976967" lon="10.4520467"><ele>101.0</ele><time>2026-04-04T15:13:41.975Z</time></trkpt><trkpt lat="44.6976333" lon="10.4523067"><ele>101.0</ele><time>2026-04-04T15:13:42.976Z</time></trkpt><trkpt lat="44.6975767" lon="10.45257"><ele>101.0</ele><time>2026-04-04T15:13:43.975Z</time></trkpt><trkpt lat="44.6975233" lon="10.4528333"><ele>101.0</ele><time>2026-04-04T15:13:44.976Z</time></trkpt><trkpt lat="44.697465" lon="10.4530933"><ele>101.0</ele><time>2026-04-04T15:13:45.976Z</time></trkpt><trkpt lat="44.6974083" lon="10.453355"><ele>101.0</ele><time>2026-04-04T15:13:46.976Z</time></trkpt><trkpt lat="44.697355" lon="10.4536217"><ele>101.0</ele><time>2026-04-04T15:13:47.975Z</time></trkpt><trkpt lat="44.6972933" lon="10.453885"><ele>101.0</ele><time>2026-04-04T15:13:48.975Z</time></trkpt><trkpt lat="44.6972317" lon="10.454145"><ele>101.0</ele><time>2026-04-04T15:13:49.976Z</time></trkpt><trkpt lat="44.69717" lon="10.4544133"><ele>101.0</ele><time>2026-04-04T15:13:50.975Z</time></trkpt><trkpt lat="44.697125" lon="10.4546767"><ele>101.33333333333333</ele><time>2026-04-04T15:13:51.976Z</time></trkpt><trkpt lat="44.6970767" lon="10.4549483"><ele>101.66666666666666</ele><time>2026-04-04T15:13:52.976Z</time></trkpt><trkpt lat="44.697035" lon="10.45521"><ele>102.0</ele><time>2026-04-04T15:13:53.975Z</time></trkpt><trkpt lat="44.69698" lon="10.455475"><ele>102.0</ele><time>2026-04-04T15:13:54.976Z</time></trkpt><trkpt lat="44.6969333" lon="10.4557267"><ele>102.0</ele><time>2026-04-04T15:13:55.976Z</time></trkpt><trkpt lat="44.6968767" lon="10.4559983"><ele>102.0</ele><time>2026-04-04T15:13:56.975Z</time></trkpt><trkpt lat="44.6968217" lon="10.4562617"><ele>102.0</ele><time>2026-04-04T15:13:57.975Z</time></trkpt><trkpt lat="44.6967733" lon="10.45654"><ele>102.0</ele><time>2026-04-04T15:13:58.975Z</time></trkpt><trkpt lat="44.696715" lon="10.4568133"><ele>102.0</ele><time>2026-04-04T15:13:59.976Z</time></trkpt><trkpt lat="44.6966667" lon="10.4570583"><ele>102.0</ele><time>2026-04-04T15:14:00.976Z</time></trkpt><trkpt lat="44.6966017" lon="10.4573133"><ele>102.0</ele><time>2026-04-04T15:14:01.975Z</time></trkpt><trkpt lat="44.69655" lon="10.4575533"><ele>102.0</ele><time>2026-04-04T15:14:02.975Z</time></trkpt><trkpt lat="44.6965033" lon="10.457775"><ele>101.75</ele><time>2026-04-04T15:14:03.975Z</time></trkpt><trkpt lat="44.6964517" lon="10.45799"><ele>101.5</ele><time>2026-04-04T15:14:04.975Z</time></trkpt><trkpt lat="44.6964117" lon="10.458185"><ele>101.25</ele><time>2026-04-04T15:14:05.975Z</time></trkpt><trkpt lat="44.6963667" lon="10.4583617"><ele>101.0</ele><time>2026-04-04T15:14:06.975Z</time></trkpt><trkpt lat="44.696325" lon="10.4585283"><ele>101.0</ele><time>2026-04-04T15:14:07.975Z</time></trkpt><trkpt lat="44.696285" lon="10.4586883"><ele>101.0</ele><time>2026-04-04T15:14:08.976Z</time></trkpt><trkpt lat="44.6962383" lon="10.4588383"><ele>101.0</ele><time>2026-04-04T15:14:09.975Z</time></trkpt><trkpt lat="44.6961867" lon="10.4589783"><ele>101.0</ele><time>2026-04-04T15:14:10.975Z</time></trkpt><trkpt lat="44.6961533" lon="10.4591183"><ele>100.5</ele><time>2026-04-04T15:14:11.976Z</time></trkpt><trkpt lat="44.6961333" lon="10.4592983"><ele>100.0</ele><time>2026-04-04T15:14:12.976Z</time></trkpt><trkpt lat="44.6961233" lon="10.4595033"><ele>99.5</ele><time>2026-04-04T15:14:13.976Z</time></trkpt><trkpt lat="44.696105" lon="10.4597283"><ele>99.0</ele><time>2026-04-04T15:14:14.976Z</time></trkpt><trkpt lat="44.696075" lon="10.45996"><ele>98.66666666666666</ele><time>2026-04-04T15:14:15.975Z</time></trkpt><trkpt lat="44.69604" lon="10.4602117"><ele>98.33333333333333</ele><time>2026-04-04T15:14:16.975Z</time></trkpt><trkpt lat="44.6959967" lon="10.4604833"><ele>98.0</ele><time>2026-04-04T15:14:17.976Z</time></trkpt><trkpt lat="44.6959483" lon="10.460775"><ele>98.0</ele><time>2026-04-04T15:14:18.975Z</time></trkpt><trkpt lat="44.6959017" lon="10.461085"><ele>98.0</ele><time>2026-04-04T15:14:19.975Z</time></trkpt><trkpt lat="44.69586" lon="10.4614"><ele>98.0</ele><time>2026-04-04T15:14:20.975Z</time></trkpt><trkpt lat="44.69581" lon="10.4617283"><ele>98.0</ele><time>2026-04-04T15:14:21.975Z</time></trkpt><trkpt lat="44.69576" lon="10.46205"><ele>98.0</ele><time>2026-04-04T15:14:22.975Z</time></trkpt><trkpt lat="44.6957083" lon="10.4623833"><ele>98.0</ele><time>2026-04-04T15:14:23.975Z</time></trkpt><trkpt lat="44.6956583" lon="10.46273"><ele>98.0</ele><time>2026-04-04T15:14:24.975Z</time></trkpt><trkpt lat="44.6956033" lon="10.4630817"><ele>98.0</ele><time>2026-04-04T15:14:25.975Z</time></trkpt><trkpt lat="44.6955533" lon="10.463425"><ele>98.0</ele><time>2026-04-04T15:14:26.975Z</time></trkpt><trkpt lat="44.6954983" lon="10.46375"><ele>98.0</ele><time>2026-04-04T15:14:27.976Z</time></trkpt><trkpt lat="44.695445" lon="10.4640567"><ele>98.0</ele><time>2026-04-04T15:14:28.975Z</time></trkpt><trkpt lat="44.6954017" lon="10.4643417"><ele>98.0</ele><time>2026-04-04T15:14:29.976Z</time></trkpt><trkpt lat="44.695375" lon="10.4646017"><ele>98.0</ele><time>2026-04-04T15:14:30.976Z</time></trkpt><trkpt lat="44.695355" lon="10.464855"><ele>97.66666666666666</ele><time>2026-04-04T15:14:31.975Z</time></trkpt><trkpt lat="44.6953417" lon="10.4651083"><ele>97.33333333333334</ele><time>2026-04-04T15:14:32.975Z</time></trkpt><trkpt lat="44.69534" lon="10.46536"><ele>97.0</ele><time>2026-04-04T15:14:33.975Z</time></trkpt><trkpt lat="44.69535" lon="10.4656133"><ele>96.33333333333334</ele><time>2026-04-04T15:14:34.976Z</time></trkpt><trkpt lat="44.695365" lon="10.4658533"><ele>95.66666666666667</ele><time>2026-04-04T15:14:35.975Z</time></trkpt><trkpt lat="44.695385" lon="10.4660867"><ele>95.0</ele><time>2026-04-04T15:14:36.976Z</time></trkpt><trkpt lat="44.6954217" lon="10.46631"><ele>95.0</ele><time>2026-04-04T15:14:37.975Z</time></trkpt><trkpt lat="44.6954733" lon="10.466555"><ele>95.0</ele><time>2026-04-04T15:14:38.975Z</time></trkpt><trkpt lat="44.695535" lon="10.4668167"><ele>95.0</ele><time>2026-04-04T15:14:39.975Z</time></trkpt><trkpt lat="44.6956017" lon="10.467095"><ele>94.66666666666667</ele><time>2026-04-04T15:14:40.975Z</time></trkpt><trkpt lat="44.6956783" lon="10.4673617"><ele>94.33333333333333</ele><time>2026-04-04T15:14:41.975Z</time></trkpt><trkpt lat="44.6957633" lon="10.4676133"><ele>94.0</ele><time>2026-04-04T15:14:42.975Z</time></trkpt><trkpt lat="44.6958467" lon="10.46783"><ele>93.5</ele><time>2026-04-04T15:14:43.975Z</time></trkpt><trkpt lat="44.69593" lon="10.4680267"><ele>93.0</ele><time>2026-04-04T15:14:44.975Z</time></trkpt><trkpt lat="44.6959933" lon="10.4681917"><ele>92.5</ele><time>2026-04-04T15:14:45.975Z</time></trkpt><trkpt lat="44.6960383" lon="10.4683467"><ele>92.0</ele><time>2026-04-04T15:14:46.975Z</time></trkpt><trkpt lat="44.6960583" lon="10.4684967"><ele>92.0</ele><time>2026-04-04T15:14:47.975Z</time></trkpt><trkpt lat="44.69608" lon="10.4686417"><ele>92.0</ele><time>2026-04-04T15:14:48.976Z</time></trkpt><trkpt lat="44.6961283" lon="10.4687767"><ele>92.0</ele><time>2026-04-04T15:14:49.975Z</time></trkpt><trkpt lat="44.6962067" lon="10.46887"><ele>92.0</ele><time>2026-04-04T15:14:50.975Z</time></trkpt><trkpt lat="44.6963" lon="10.4689717"><ele>92.0</ele><time>2026-04-04T15:14:51.975Z</time></trkpt><trkpt lat="44.6963767" lon="10.4690983"><ele>92.25</ele><time>2026-04-04T15:14:52.975Z</time></trkpt><trkpt lat="44.6964433" lon="10.4692567"><ele>92.5</ele><time>2026-04-04T15:14:53.976Z</time></trkpt><trkpt lat="44.6965133" lon="10.4694133"><ele>92.75</ele><time>2026-04-04T15:14:54.975Z</time></trkpt><trkpt lat="44.6965833" lon="10.469575"><ele>93.0</ele><time>2026-04-04T15:14:55.975Z</time></trkpt><trkpt lat="44.6966533" lon="10.4697467"><ele>92.5</ele><time>2026-04-04T15:14:56.975Z</time></trkpt><trkpt lat="44.69672" lon="10.4699183"><ele>92.0</ele><time>2026-04-04T15:14:57.975Z</time></trkpt><trkpt lat="44.69679" lon="10.4700833"><ele>91.5</ele><time>2026-04-04T15:14:58.975Z</time></trkpt><trkpt lat="44.6968517" lon="10.470245"><ele>91.0</ele><time>2026-04-04T15:14:59.975Z</time></trkpt><trkpt lat="44.696905" lon="10.4703933"><ele>91.4</ele><time>2026-04-04T15:15:00.975Z</time></trkpt><trkpt lat="44.696955" lon="10.470535"><ele>91.8</ele><time>2026-04-04T15:15:01.975Z</time></trkpt><trkpt lat="44.696995" lon="10.4706633"><ele>92.2</ele><time>2026-04-04T15:15:02.976Z</time></trkpt><trkpt lat="44.6970267" lon="10.4707867"><ele>92.60000000000001</ele><time>2026-04-04T15:15:03.975Z</time></trkpt><trkpt lat="44.6970433" lon="10.4709067"><ele>93.0</ele><time>2026-04-04T15:15:04.975Z</time></trkpt><trkpt lat="44.6970383" lon="10.4710417"><ele>93.0</ele><time>2026-04-04T15:15:05.976Z</time></trkpt><trkpt lat="44.6970117" lon="10.4711883"><ele>93.0</ele><time>2026-04-04T15:15:06.976Z</time></trkpt><trkpt lat="44.6969717" lon="10.4713317"><ele>93.0</ele><time>2026-04-04T15:15:07.975Z</time></trkpt><trkpt lat="44.6969533" lon="10.4714983"><ele>93.0</ele><time>2026-04-04T15:15:08.975Z</time></trkpt><trkpt lat="44.6969783" lon="10.47169"><ele>93.0</ele><time>2026-04-04T15:15:09.975Z</time></trkpt><trkpt lat="44.6970417" lon="10.471865"><ele>93.0</ele><time>2026-04-04T15:15:10.975Z</time></trkpt><trkpt lat="44.6971383" lon="10.4720383"><ele>93.0</ele><time>2026-04-04T15:15:11.976Z</time></trkpt><trkpt lat="44.69723" lon="10.4722217"><ele>93.0</ele><time>2026-04-04T15:15:12.975Z</time></trkpt><trkpt lat="44.6972933" lon="10.472425"><ele>93.0</ele><time>2026-04-04T15:15:13.975Z</time></trkpt><trkpt lat="44.69733" lon="10.4726583"><ele>93.0</ele><time>2026-04-04T15:15:14.976Z</time></trkpt><trkpt lat="44.697345" lon="10.47292"><ele>92.66666666666667</ele><time>2026-04-04T15:15:15.975Z</time></trkpt><trkpt lat="44.6973517" lon="10.4731867"><ele>92.33333333333334</ele><time>2026-04-04T15:15:16.976Z</time></trkpt><trkpt lat="44.6973633" lon="10.473455"><ele>92.0</ele><time>2026-04-04T15:15:17.975Z</time></trkpt><trkpt lat="44.6973717" lon="10.4737183"><ele>92.33333333333334</ele><time>2026-04-04T15:15:18.975Z</time></trkpt><trkpt lat="44.6973767" lon="10.4739817"><ele>92.66666666666667</ele><time>2026-04-04T15:15:19.975Z</time></trkpt><trkpt lat="44.69738" lon="10.4742367"><ele>93.0</ele><time>2026-04-04T15:15:20.975Z</time></trkpt><trkpt lat="44.6973817" lon="10.4744917"><ele>92.66666666666667</ele><time>2026-04-04T15:15:21.975Z</time></trkpt><trkpt lat="44.6973833" lon="10.4747367"><ele>92.33333333333334</ele><time>2026-04-04T15:15:22.975Z</time></trkpt><trkpt lat="44.6973883" lon="10.4749817"><ele>92.0</ele><time>2026-04-04T15:15:23.976Z</time></trkpt><trkpt lat="44.69739" lon="10.4752267"><ele>91.66666666666667</ele><time>2026-04-04T15:15:24.975Z</time></trkpt><trkpt lat="44.6974" lon="10.4754667"><ele>91.33333333333333</ele><time>2026-04-04T15:15:25.975Z</time></trkpt><trkpt lat="44.6974083" lon="10.475705"><ele>91.0</ele><time>2026-04-04T15:15:26.975Z</time></trkpt><trkpt lat="44.6974167" lon="10.475945"><ele>91.0</ele><time>2026-04-04T15:15:27.976Z</time></trkpt><trkpt lat="44.6974217" lon="10.4761817"><ele>91.0</ele><time>2026-04-04T15:15:28.975Z</time></trkpt><trkpt lat="44.6974267" lon="10.4764267"><ele>91.0</ele><time>2026-04-04T15:15:29.975Z</time></trkpt><trkpt lat="44.6974283" lon="10.4766717"><ele>91.0</ele><time>2026-04-04T15:15:30.976Z</time></trkpt><trkpt lat="44.6974283" lon="10.4769267"><ele>91.0</ele><time>2026-04-04T15:15:31.976Z</time></trkpt><trkpt lat="44.6974333" lon="10.47717"><ele>91.0</ele><time>2026-04-04T15:15:32.975Z</time></trkpt><trkpt lat="44.69744" lon="10.4774033"><ele>91.0</ele><time>2026-04-04T15:15:33.976Z</time></trkpt><trkpt lat="44.69745" lon="10.4776383"><ele>91.0</ele><time>2026-04-04T15:15:34.976Z</time></trkpt><trkpt lat="44.6974583" lon="10.477865"><ele>91.0</ele><time>2026-04-04T15:15:35.976Z</time></trkpt><trkpt lat="44.69747" lon="10.4780983"><ele>90.66666666666666</ele><time>2026-04-04T15:15:36.976Z</time></trkpt><trkpt lat="44.6974733" lon="10.4783317"><ele>90.33333333333333</ele><time>2026-04-04T15:15:37.975Z</time></trkpt><trkpt lat="44.6974817" lon="10.4785767"><ele>90.0</ele><time>2026-04-04T15:15:38.975Z</time></trkpt><trkpt lat="44.6974833" lon="10.4788117"><ele>90.0</ele><time>2026-04-04T15:15:39.976Z</time></trkpt><trkpt lat="44.6974883" lon="10.47905"><ele>90.0</ele><time>2026-04-04T15:15:40.975Z</time></trkpt><trkpt lat="44.697485" lon="10.479285"><ele>90.0</ele><time>2026-04-04T15:15:41.975Z</time></trkpt><trkpt lat="44.6974917" lon="10.4795233"><ele>90.0</ele><time>2026-04-04T15:15:42.976Z</time></trkpt><trkpt lat="44.6975" lon="10.47976"><ele>90.0</ele><time>2026-04-04T15:15:43.975Z</time></trkpt><trkpt lat="44.6975033" lon="10.48"><ele>90.0</ele><time>2026-04-04T15:15:44.975Z</time></trkpt><trkpt lat="44.6975083" lon="10.4802367"><ele>90.33333333333333</ele><time>2026-04-04T15:15:45.975Z</time></trkpt><trkpt lat="44.69751" lon="10.4804733"><ele>90.66666666666666</ele><time>2026-04-04T15:15:46.975Z</time></trkpt><trkpt lat="44.697505" lon="10.48071"><ele>91.0</ele><time>2026-04-04T15:15:47.975Z</time></trkpt><trkpt lat="44.6974983" lon="10.48095"><ele>91.0</ele><time>2026-04-04T15:15:48.975Z</time></trkpt><trkpt lat="44.69749" lon="10.4811917"><ele>91.0</ele><time>2026-04-04T15:15:49.976Z</time></trkpt><trkpt lat="44.6974783" lon="10.4814133"><ele>91.0</ele><time>2026-04-04T15:15:50.975Z</time></trkpt><trkpt lat="44.697465" lon="10.481635"><ele>90.66666666666666</ele><time>2026-04-04T15:15:51.975Z</time></trkpt><trkpt lat="44.697445" lon="10.4818517"><ele>90.33333333333333</ele><time>2026-04-04T15:15:52.975Z</time></trkpt><trkpt lat="44.69742" lon="10.48207"><ele>90.0</ele><time>2026-04-04T15:15:53.975Z</time></trkpt><trkpt lat="44.6973933" lon="10.4822767"><ele>89.66666666666667</ele><time>2026-04-04T15:15:54.975Z</time></trkpt><trkpt lat="44.6973717" lon="10.48249"><ele>89.33333333333334</ele><time>2026-04-04T15:15:55.975Z</time></trkpt><trkpt lat="44.6973467" lon="10.4826967"><ele>89.0</ele><time>2026-04-04T15:15:56.975Z</time></trkpt><trkpt lat="44.6973283" lon="10.4829083"><ele>89.0</ele><time>2026-04-04T15:15:57.975Z</time></trkpt><trkpt lat="44.6973117" lon="10.4831033"><ele>89.0</ele><time>2026-04-04T15:15:58.975Z</time></trkpt><trkpt lat="44.6972983" lon="10.48329"><ele>89.0</ele><time>2026-04-04T15:15:59.975Z</time></trkpt><trkpt lat="44.697285" lon="10.4834767"><ele>89.0</ele><time>2026-04-04T15:16:00.976Z</time></trkpt><trkpt lat="44.69727" lon="10.4836633"><ele>88.75</ele><time>2026-04-04T15:16:01.975Z</time></trkpt><trkpt lat="44.6972617" lon="10.4838633"><ele>88.5</ele><time>2026-04-04T15:16:02.976Z</time></trkpt><trkpt lat="44.6972433" lon="10.4840517"><ele>88.25</ele><time>2026-04-04T15:16:03.975Z</time></trkpt><trkpt lat="44.6972283" lon="10.484245"><ele>88.0</ele><time>2026-04-04T15:16:04.975Z</time></trkpt><trkpt lat="44.69722" lon="10.4844333"><ele>88.0</ele><time>2026-04-04T15:16:05.975Z</time></trkpt><trkpt lat="44.6972067" lon="10.4846133"><ele>88.0</ele><time>2026-04-04T15:16:06.976Z</time></trkpt><trkpt lat="44.697195" lon="10.4848"><ele>88.0</ele><time>2026-04-04T15:16:07.975Z</time></trkpt><trkpt lat="44.6971817" lon="10.484985"><ele>88.0</ele><time>2026-04-04T15:16:08.975Z</time></trkpt><trkpt lat="44.697165" lon="10.4851817"><ele>88.0</ele><time>2026-04-04T15:16:09.975Z</time></trkpt><trkpt lat="44.6971483" lon="10.48537"><ele>88.0</ele><time>2026-04-04T15:16:10.976Z</time></trkpt><trkpt lat="44.6971317" lon="10.4855617"><ele>88.0</ele><time>2026-04-04T15:16:11.975Z</time></trkpt><trkpt lat="44.6971083" lon="10.48575"><ele>88.0</ele><time>2026-04-04T15:16:12.975Z</time></trkpt><trkpt lat="44.69709" lon="10.485935"><ele>88.25</ele><time>2026-04-04T15:16:13.975Z</time></trkpt><trkpt lat="44.6970783" lon="10.4861317"><ele>88.5</ele><time>2026-04-04T15:16:14.975Z</time></trkpt><trkpt lat="44.697065" lon="10.4863167"><ele>88.75</ele><time>2026-04-04T15:16:15.975Z</time></trkpt><trkpt lat="44.6970583" lon="10.4864967"><ele>89.0</ele><time>2026-04-04T15:16:16.975Z</time></trkpt><trkpt lat="44.6970467" lon="10.4866717"><ele>89.0</ele><time>2026-04-04T15:16:17.975Z</time></trkpt><trkpt lat="44.6970283" lon="10.4868467"><ele>89.0</ele><time>2026-04-04T15:16:18.975Z</time></trkpt><trkpt lat="44.69701" lon="10.4870283"><ele>89.0</ele><time>2026-04-04T15:16:19.976Z</time></trkpt><trkpt lat="44.6969883" lon="10.4871983"><ele>89.0</ele><time>2026-04-04T15:16:20.975Z</time></trkpt><trkpt lat="44.6969633" lon="10.4873767"><ele>89.0</ele><time>2026-04-04T15:16:21.976Z</time></trkpt><trkpt lat="44.69694" lon="10.487565"><ele>89.0</ele><time>2026-04-04T15:16:22.976Z</time></trkpt><trkpt lat="44.69692" lon="10.487735"><ele>89.0</ele><time>2026-04-04T15:16:23.975Z</time></trkpt><trkpt lat="44.6968917" lon="10.48791"><ele>89.0</ele><time>2026-04-04T15:16:24.976Z</time></trkpt><trkpt lat="44.6968633" lon="10.4880883"><ele>89.0</ele><time>2026-04-04T15:16:25.975Z</time></trkpt><trkpt lat="44.696835" lon="10.4882617"><ele>89.0</ele><time>2026-04-04T15:16:26.975Z</time></trkpt><trkpt lat="44.6968017" lon="10.4884367"><ele>89.0</ele><time>2026-04-04T15:16:27.976Z</time></trkpt><trkpt lat="44.69677" lon="10.488615"><ele>89.0</ele><time>2026-04-04T15:16:28.976Z</time></trkpt><trkpt lat="44.696735" lon="10.4887967"><ele>89.0</ele><time>2026-04-04T15:16:29.975Z</time></trkpt><trkpt lat="44.6967017" lon="10.4889733"><ele>89.0</ele><time>2026-04-04T15:16:30.976Z</time></trkpt><trkpt lat="44.6966667" lon="10.4891583"><ele>89.0</ele><time>2026-04-04T15:16:31.976Z</time></trkpt><trkpt lat="44.6966333" lon="10.4893417"><ele>89.0</ele><time>2026-04-04T15:16:32.975Z</time></trkpt><trkpt lat="44.69659" lon="10.4895283"><ele>88.75</ele><time>2026-04-04T15:16:33.975Z</time></trkpt><trkpt lat="44.6965583" lon="10.4897133"><ele>88.5</ele><time>2026-04-04T15:16:34.975Z</time></trkpt><trkpt lat="44.6965183" lon="10.4898967"><ele>88.25</ele><time>2026-04-04T15:16:35.975Z</time></trkpt><trkpt lat="44.69648" lon="10.4900883"><ele>88.0</ele><time>2026-04-04T15:16:36.975Z</time></trkpt><trkpt lat="44.6964483" lon="10.4902767"><ele>88.25</ele><time>2026-04-04T15:16:37.975Z</time></trkpt><trkpt lat="44.6964117" lon="10.49046"><ele>88.5</ele><time>2026-04-04T15:16:38.975Z</time></trkpt><trkpt lat="44.69638" lon="10.4906433"><ele>88.75</ele><time>2026-04-04T15:16:39.975Z</time></trkpt><trkpt lat="44.696345" lon="10.4908267"><ele>89.0</ele><time>2026-04-04T15:16:40.976Z</time></trkpt><trkpt lat="44.6963117" lon="10.4910083"><ele>89.0</ele><time>2026-04-04T15:16:41.975Z</time></trkpt><trkpt lat="44.6962733" lon="10.4911983"><ele>89.0</ele><time>2026-04-04T15:16:42.975Z</time></trkpt><trkpt lat="44.6962317" lon="10.4913867"><ele>89.0</ele><time>2026-04-04T15:16:43.975Z</time></trkpt><trkpt lat="44.6961933" lon="10.4915783"><ele>89.0</ele><time>2026-04-04T15:16:44.975Z</time></trkpt><trkpt lat="44.69616" lon="10.4917567"><ele>89.0</ele><time>2026-04-04T15:16:45.975Z</time></trkpt><trkpt lat="44.69613" lon="10.4919417"><ele>89.0</ele><time>2026-04-04T15:16:46.975Z</time></trkpt><trkpt lat="44.696095" lon="10.49213"><ele>89.0</ele><time>2026-04-04T15:16:47.975Z</time></trkpt><trkpt lat="44.6960583" lon="10.4923267"><ele>89.0</ele><time>2026-04-04T15:16:48.975Z</time></trkpt><trkpt lat="44.6960183" lon="10.4925117"><ele>89.0</ele><time>2026-04-04T15:16:49.975Z</time></trkpt><trkpt lat="44.6959833" lon="10.4927"><ele>89.0</ele><time>2026-04-04T15:16:50.975Z</time></trkpt><trkpt lat="44.695945" lon="10.4928867"><ele>89.0</ele><time>2026-04-04T15:16:51.975Z</time></trkpt><trkpt lat="44.6959133" lon="10.4930817"><ele>89.0</ele><time>2026-04-04T15:16:52.976Z</time></trkpt><trkpt lat="44.6958767" lon="10.4932817"><ele>88.75</ele><time>2026-04-04T15:16:53.975Z</time></trkpt><trkpt lat="44.6958317" lon="10.4934633"><ele>88.5</ele><time>2026-04-04T15:16:54.976Z</time></trkpt><trkpt lat="44.6957883" lon="10.4936583"><ele>88.25</ele><time>2026-04-04T15:16:55.975Z</time></trkpt><trkpt lat="44.6957517" lon="10.4938483"><ele>88.0</ele><time>2026-04-04T15:16:56.975Z</time></trkpt><trkpt lat="44.69571" lon="10.4940383"><ele>88.0</ele><time>2026-04-04T15:16:57.975Z</time></trkpt><trkpt lat="44.69567" lon="10.4942267"><ele>88.0</ele><time>2026-04-04T15:16:58.976Z</time></trkpt><trkpt lat="44.69563" lon="10.494425"><ele>88.0</ele><time>2026-04-04T15:16:59.975Z</time></trkpt><trkpt lat="44.6955917" lon="10.4946183"><ele>88.0</ele><time>2026-04-04T15:17:00.976Z</time></trkpt><trkpt lat="44.6955533" lon="10.4948167"><ele>88.0</ele><time>2026-04-04T15:17:01.975Z</time></trkpt><trkpt lat="44.6955133" lon="10.4950183"><ele>88.0</ele><time>2026-04-04T15:17:02.975Z</time></trkpt><trkpt lat="44.6954733" lon="10.4952267"><ele>88.0</ele><time>2026-04-04T15:17:03.976Z</time></trkpt><trkpt lat="44.6954283" lon="10.4954333"><ele>88.0</ele><time>2026-04-04T15:17:04.975Z</time></trkpt><trkpt lat="44.6953817" lon="10.4956383"><ele>88.0</ele><time>2026-04-04T15:17:05.975Z</time></trkpt><trkpt lat="44.6953367" lon="10.4958467"><ele>88.0</ele><time>2026-04-04T15:17:06.975Z</time></trkpt><trkpt lat="44.695295" lon="10.4960533"><ele>88.0</ele><time>2026-04-04T15:17:07.975Z</time></trkpt><trkpt lat="44.6952583" lon="10.4962533"><ele>88.0</ele><time>2026-04-04T15:17:08.976Z</time></trkpt><trkpt lat="44.6952167" lon="10.4964517"><ele>88.0</ele><time>2026-04-04T15:17:09.976Z</time></trkpt><trkpt lat="44.69517" lon="10.4966517"><ele>88.0</ele><time>2026-04-04T15:17:10.975Z</time></trkpt><trkpt lat="44.69514" lon="10.4968483"><ele>88.0</ele><time>2026-04-04T15:17:11.975Z</time></trkpt><trkpt lat="44.6951017" lon="10.4970433"><ele>88.0</ele><time>2026-04-04T15:17:12.976Z</time></trkpt><trkpt lat="44.6950583" lon="10.49724"><ele>88.0</ele><time>2026-04-04T15:17:13.976Z</time></trkpt><trkpt lat="44.6950133" lon="10.4974267"><ele>88.0</ele><time>2026-04-04T15:17:14.975Z</time></trkpt><trkpt lat="44.6949717" lon="10.4976117"><ele>87.75</ele><time>2026-04-04T15:17:15.976Z</time></trkpt><trkpt lat="44.6949367" lon="10.4977983"><ele>87.5</ele><time>2026-04-04T15:17:16.975Z</time></trkpt><trkpt lat="44.6949017" lon="10.49798"><ele>87.25</ele><time>2026-04-04T15:17:17.976Z</time></trkpt><trkpt lat="44.694865" lon="10.4981367"><ele>87.0</ele><time>2026-04-04T15:17:18.975Z</time></trkpt><trkpt lat="44.69483" lon="10.498265"><ele>87.0</ele><time>2026-04-04T15:17:19.976Z</time></trkpt><trkpt lat="44.6948067" lon="10.4983717"><ele>87.0</ele><time>2026-04-04T15:17:20.975Z</time></trkpt><trkpt lat="44.6947933" lon="10.498465"><ele>87.0</ele><time>2026-04-04T15:17:21.975Z</time></trkpt><trkpt lat="44.6947633" lon="10.4986017"><ele>87.0</ele><time>2026-04-04T15:17:23.976Z</time></trkpt><trkpt lat="44.6947217" lon="10.49876"><ele>87.0</ele><time>2026-04-04T15:20:37.975Z</time></trkpt><trkpt lat="44.694695" lon="10.49888"><ele>87.25</ele><time>2026-04-04T15:20:38.976Z</time></trkpt><trkpt lat="44.694665" lon="10.4990167"><ele>87.5</ele><time>2026-04-04T15:20:39.976Z</time></trkpt><trkpt lat="44.69462" lon="10.4991833"><ele>87.75</ele><time>2026-04-04T15:20:40.975Z</time></trkpt><trkpt lat="44.694585" lon="10.4993817"><ele>88.0</ele><time>2026-04-04T15:20:41.976Z</time></trkpt><trkpt lat="44.6945483" lon="10.4995833"><ele>88.33333333333333</ele><time>2026-04-04T15:20:42.976Z</time></trkpt><trkpt lat="44.69451" lon="10.4998033"><ele>88.66666666666667</ele><time>2026-04-04T15:20:43.975Z</time></trkpt><trkpt lat="44.6944767" lon="10.5000317"><ele>89.0</ele><time>2026-04-04T15:20:44.976Z</time></trkpt><trkpt lat="44.6944367" lon="10.5002567"><ele>89.75</ele><time>2026-04-04T15:20:45.975Z</time></trkpt><trkpt lat="44.6943983" lon="10.5004733"><ele>90.5</ele><time>2026-04-04T15:20:46.975Z</time></trkpt><trkpt lat="44.6943683" lon="10.5006867"><ele>91.25</ele><time>2026-04-04T15:20:47.975Z</time></trkpt><trkpt lat="44.6943383" lon="10.5008667"><ele>92.0</ele><time>2026-04-04T15:20:48.975Z</time></trkpt><trkpt lat="44.6943133" lon="10.501035"><ele>92.0</ele><time>2026-04-04T15:20:49.975Z</time></trkpt><trkpt lat="44.6942867" lon="10.5011917"><ele>92.0</ele><time>2026-04-04T15:20:50.975Z</time></trkpt><trkpt lat="44.6942583" lon="10.5013617"><ele>92.0</ele><time>2026-04-04T15:20:51.976Z</time></trkpt><trkpt lat="44.6942367" lon="10.5015317"><ele>92.0</ele><time>2026-04-04T15:20:52.975Z</time></trkpt><trkpt lat="44.6942083" lon="10.5017117"><ele>92.0</ele><time>2026-04-04T15:20:53.975Z</time></trkpt><trkpt lat="44.6941733" lon="10.5018983"><ele>92.0</ele><time>2026-04-04T15:20:54.975Z</time></trkpt><trkpt lat="44.6941433" lon="10.5020867"><ele>92.0</ele><time>2026-04-04T15:20:55.975Z</time></trkpt><trkpt lat="44.6941217" lon="10.5022617"><ele>92.0</ele><time>2026-04-04T15:20:56.975Z</time></trkpt><trkpt lat="44.6941" lon="10.50247"><ele>92.0</ele><time>2026-04-04T15:20:57.975Z</time></trkpt><trkpt lat="44.6940733" lon="10.5026983"><ele>92.0</ele><time>2026-04-04T15:20:58.976Z</time></trkpt><trkpt lat="44.6940283" lon="10.5029267"><ele>92.0</ele><time>2026-04-04T15:20:59.975Z</time></trkpt><trkpt lat="44.6939983" lon="10.5031367"><ele>92.25</ele><time>2026-04-04T15:21:00.975Z</time></trkpt><trkpt lat="44.6939667" lon="10.5033367"><ele>92.5</ele><time>2026-04-04T15:21:01.976Z</time></trkpt><trkpt lat="44.693955" lon="10.503535"><ele>92.75</ele><time>2026-04-04T15:21:02.976Z</time></trkpt><trkpt lat="44.6939433" lon="10.5037617"><ele>93.0</ele><time>2026-04-04T15:21:03.975Z</time></trkpt><trkpt lat="44.6939083" lon="10.5039733"><ele>93.0</ele><time>2026-04-04T15:21:04.975Z</time></trkpt><trkpt lat="44.6938767" lon="10.5041633"><ele>93.0</ele><time>2026-04-04T15:21:05.975Z</time></trkpt><trkpt lat="44.6938217" lon="10.5043283"><ele>93.0</ele><time>2026-04-04T15:21:06.975Z</time></trkpt><trkpt lat="44.693765" lon="10.5044717"><ele>93.0</ele><time>2026-04-04T15:21:07.976Z</time></trkpt><trkpt lat="44.6937083" lon="10.5045983"><ele>92.4</ele><time>2026-04-04T15:21:08.975Z</time></trkpt><trkpt lat="44.693685" lon="10.5047117"><ele>91.80000000000001</ele><time>2026-04-04T15:21:09.975Z</time></trkpt><trkpt lat="44.6936933" lon="10.5048433"><ele>91.2</ele><time>2026-04-04T15:21:10.975Z</time></trkpt><trkpt lat="44.69373" lon="10.505005"><ele>90.6</ele><time>2026-04-04T15:21:11.975Z</time></trkpt><trkpt lat="44.6937483" lon="10.5052067"><ele>90.0</ele><time>2026-04-04T15:21:12.975Z</time></trkpt><trkpt lat="44.6937417" lon="10.5054433"><ele>89.66666666666667</ele><time>2026-04-04T15:21:13.975Z</time></trkpt><trkpt lat="44.693705" lon="10.5057017"><ele>89.33333333333334</ele><time>2026-04-04T15:21:14.975Z</time></trkpt><trkpt lat="44.6936467" lon="10.50597"><ele>89.0</ele><time>2026-04-04T15:21:15.975Z</time></trkpt><trkpt lat="44.6935683" lon="10.5062617"><ele>91.0</ele><time>2026-04-04T15:21:16.975Z</time></trkpt><trkpt lat="44.6934767" lon="10.506555"><ele>93.0</ele><time>2026-04-04T15:21:17.975Z</time></trkpt><trkpt lat="44.6933717" lon="10.5068633"><ele>92.0</ele><time>2026-04-04T15:21:18.975Z</time></trkpt><trkpt lat="44.6932533" lon="10.5071683"><ele>91.0</ele><time>2026-04-04T15:21:19.975Z</time></trkpt><trkpt lat="44.693115" lon="10.507465"><ele>91.0</ele><time>2026-04-04T15:21:20.975Z</time></trkpt><trkpt lat="44.692965" lon="10.5077483"><ele>91.0</ele><time>2026-04-04T15:21:21.975Z</time></trkpt><trkpt lat="44.69279" lon="10.50803"><ele>90.5</ele><time>2026-04-04T15:21:22.975Z</time></trkpt><trkpt lat="44.6926" lon="10.5082983"><ele>90.0</ele><time>2026-04-04T15:21:23.976Z</time></trkpt><trkpt lat="44.6924033" lon="10.508565"><ele>89.5</ele><time>2026-04-04T15:21:24.975Z</time></trkpt><trkpt lat="44.6922067" lon="10.508825"><ele>89.0</ele><time>2026-04-04T15:21:25.975Z</time></trkpt><trkpt lat="44.6920167" lon="10.5090833"><ele>89.5</ele><time>2026-04-04T15:21:26.975Z</time></trkpt><trkpt lat="44.6918317" lon="10.5093417"><ele>90.0</ele><time>2026-04-04T15:21:27.975Z</time></trkpt><trkpt lat="44.691645" lon="10.509595"><ele>90.0</ele><time>2026-04-04T15:21:28.976Z</time></trkpt><trkpt lat="44.6914667" lon="10.5098467"><ele>90.0</ele><time>2026-04-04T15:21:29.976Z</time></trkpt><trkpt lat="44.6912817" lon="10.5100967"><ele>90.0</ele><time>2026-04-04T15:21:30.975Z</time></trkpt><trkpt lat="44.6910967" lon="10.5103433"><ele>90.0</ele><time>2026-04-04T15:21:31.975Z</time></trkpt><trkpt lat="44.6909183" lon="10.5105933"><ele>90.5</ele><time>2026-04-04T15:21:32.976Z</time></trkpt><trkpt lat="44.6907417" lon="10.5108433"><ele>91.0</ele><time>2026-04-04T15:21:33.975Z</time></trkpt><trkpt lat="44.6905667" lon="10.5110967"><ele>90.5</ele><time>2026-04-04T15:21:34.975Z</time></trkpt><trkpt lat="44.6904" lon="10.5113417"><ele>90.0</ele><time>2026-04-04T15:21:35.975Z</time></trkpt><trkpt lat="44.6902233" lon="10.5115783"><ele>90.0</ele><time>2026-04-04T15:21:36.975Z</time></trkpt><trkpt lat="44.6900483" lon="10.5118233"><ele>90.0</ele><time>2026-04-04T15:21:37.975Z</time></trkpt><trkpt lat="44.6898733" lon="10.5120617"><ele>91.0</ele><time>2026-04-04T15:21:38.976Z</time></trkpt><trkpt lat="44.6897033" lon="10.5123017"><ele>92.0</ele><time>2026-04-04T15:21:39.975Z</time></trkpt><trkpt lat="44.68953" lon="10.5125433"><ele>92.5</ele><time>2026-04-04T15:21:40.976Z</time></trkpt><trkpt lat="44.6893617" lon="10.51278"><ele>93.0</ele><time>2026-04-04T15:21:41.976Z</time></trkpt><trkpt lat="44.68919" lon="10.5130167"><ele>93.0</ele><time>2026-04-04T15:21:42.975Z</time></trkpt><trkpt lat="44.6890267" lon="10.5132583"><ele>93.0</ele><time>2026-04-04T15:21:43.975Z</time></trkpt><trkpt lat="44.6888567" lon="10.5135033"><ele>93.5</ele><time>2026-04-04T15:21:44.976Z</time></trkpt><trkpt lat="44.688685" lon="10.5137467"><ele>94.0</ele><time>2026-04-04T15:21:45.976Z</time></trkpt><trkpt lat="44.6885117" lon="10.51399"><ele>93.0</ele><time>2026-04-04T15:21:46.975Z</time></trkpt><trkpt lat="44.68834" lon="10.5142217"><ele>92.0</ele><time>2026-04-04T15:21:47.975Z</time></trkpt><trkpt lat="44.6881683" lon="10.5144533"><ele>91.0</ele><time>2026-04-04T15:21:48.975Z</time></trkpt><trkpt lat="44.688" lon="10.5146883"><ele>90.0</ele><time>2026-04-04T15:21:49.975Z</time></trkpt><trkpt lat="44.6878433" lon="10.5149233"><ele>90.0</ele><time>2026-04-04T15:21:50.975Z</time></trkpt><trkpt lat="44.6876967" lon="10.51517"><ele>90.0</ele><time>2026-04-04T15:21:51.975Z</time></trkpt><trkpt lat="44.6875667" lon="10.5153967"><ele>90.0</ele><time>2026-04-04T15:21:52.975Z</time></trkpt><trkpt lat="44.6874533" lon="10.5156"><ele>89.0</ele><time>2026-04-04T15:21:53.975Z</time></trkpt><trkpt lat="44.687355" lon="10.5158167"><ele>88.0</ele><time>2026-04-04T15:21:54.975Z</time></trkpt><trkpt lat="44.6872567" lon="10.5160517"><ele>87.0</ele><time>2026-04-04T15:21:55.976Z</time></trkpt><trkpt lat="44.6871517" lon="10.5163067"><ele>87.0</ele><time>2026-04-04T15:21:56.976Z</time></trkpt><trkpt lat="44.687055" lon="10.516555"><ele>87.0</ele><time>2026-04-04T15:21:57.975Z</time></trkpt><trkpt lat="44.686975" lon="10.51678"><ele>87.0</ele><time>2026-04-04T15:21:58.975Z</time></trkpt><trkpt lat="44.6868983" lon="10.5169533"><ele>88.0</ele><time>2026-04-04T15:21:59.976Z</time></trkpt><trkpt lat="44.6868133" lon="10.5170783"><ele>89.0</ele><time>2026-04-04T15:22:00.975Z</time></trkpt><trkpt lat="44.6867167" lon="10.5171717"><ele>90.0</ele><time>2026-04-04T15:22:01.975Z</time></trkpt><trkpt lat="44.68663" lon="10.51728"><ele>91.0</ele><time>2026-04-04T15:22:02.975Z</time></trkpt><trkpt lat="44.6865683" lon="10.517425"><ele>91.0</ele><time>2026-04-04T15:22:03.975Z</time></trkpt><trkpt lat="44.6865317" lon="10.517625"><ele>91.0</ele><time>2026-04-04T15:22:04.975Z</time></trkpt><trkpt lat="44.6865217" lon="10.51787"><ele>91.0</ele><time>2026-04-04T15:22:05.975Z</time></trkpt><trkpt lat="44.6864933" lon="10.51814"><ele>91.33333333333333</ele><time>2026-04-04T15:22:06.976Z</time></trkpt><trkpt lat="44.6864483" lon="10.5184167"><ele>91.66666666666667</ele><time>2026-04-04T15:22:07.975Z</time></trkpt><trkpt lat="44.6863817" lon="10.518695"><ele>92.0</ele><time>2026-04-04T15:22:08.975Z</time></trkpt><trkpt lat="44.68629" lon="10.519"><ele>92.0</ele><time>2026-04-04T15:22:09.975Z</time></trkpt><trkpt lat="44.6861867" lon="10.51929"><ele>92.0</ele><time>2026-04-04T15:22:10.976Z</time></trkpt><trkpt lat="44.686085" lon="10.5196033"><ele>91.0</ele><time>2026-04-04T15:22:11.976Z</time></trkpt><trkpt lat="44.685985" lon="10.5199333"><ele>90.0</ele><time>2026-04-04T15:22:12.975Z</time></trkpt><trkpt lat="44.68589" lon="10.5202533"><ele>90.5</ele><time>2026-04-04T15:22:13.975Z</time></trkpt><trkpt lat="44.68582" lon="10.5205767"><ele>91.0</ele><time>2026-04-04T15:22:14.975Z</time></trkpt><trkpt lat="44.6857833" lon="10.5209117"><ele>91.0</ele><time>2026-04-04T15:22:15.976Z</time></trkpt><trkpt lat="44.6857683" lon="10.5212583"><ele>91.0</ele><time>2026-04-04T15:22:16.976Z</time></trkpt><trkpt lat="44.6857683" lon="10.5216067"><ele>91.0</ele><time>2026-04-04T15:22:17.975Z</time></trkpt><trkpt lat="44.6857983" lon="10.521955"><ele>91.0</ele><time>2026-04-04T15:22:18.976Z</time></trkpt><trkpt lat="44.6858433" lon="10.5222983"><ele>92.5</ele><time>2026-04-04T15:22:19.975Z</time></trkpt><trkpt lat="44.6859167" lon="10.52264"><ele>94.0</ele><time>2026-04-04T15:22:20.975Z</time></trkpt><trkpt lat="44.685995" lon="10.5229717"><ele>93.5</ele><time>2026-04-04T15:22:21.975Z</time></trkpt><trkpt lat="44.6860783" lon="10.5233033"><ele>93.0</ele><time>2026-04-04T15:22:22.975Z</time></trkpt><trkpt lat="44.68616" lon="10.5236233"><ele>93.0</ele><time>2026-04-04T15:22:23.975Z</time></trkpt><trkpt lat="44.6862283" lon="10.5238983"><ele>93.0</ele><time>2026-04-04T15:22:24.976Z</time></trkpt><trkpt lat="44.68629" lon="10.52415"><ele>93.0</ele><time>2026-04-04T15:22:25.976Z</time></trkpt><trkpt lat="44.686335" lon="10.5243583"><ele>92.33333333333333</ele><time>2026-04-04T15:22:26.976Z</time></trkpt><trkpt lat="44.686385" lon="10.5245833"><ele>91.66666666666666</ele><time>2026-04-04T15:22:27.975Z</time></trkpt><trkpt lat="44.6864333" lon="10.5247967"><ele>91.0</ele><time>2026-04-04T15:22:28.975Z</time></trkpt><trkpt lat="44.6864983" lon="10.5250367"><ele>91.0</ele><time>2026-04-04T15:22:29.975Z</time></trkpt><trkpt lat="44.6865717" lon="10.5252767"><ele>91.0</ele><time>2026-04-04T15:22:30.975Z</time></trkpt><trkpt lat="44.6866433" lon="10.5255467"><ele>91.0</ele><time>2026-04-04T15:22:31.976Z</time></trkpt><trkpt lat="44.6867167" lon="10.52583"><ele>91.0</ele><time>2026-04-04T15:22:32.976Z</time></trkpt><trkpt lat="44.6867833" lon="10.5261233"><ele>91.0</ele><time>2026-04-04T15:22:33.976Z</time></trkpt><trkpt lat="44.686855" lon="10.526435"><ele>91.0</ele><time>2026-04-04T15:22:34.976Z</time></trkpt><trkpt lat="44.6869317" lon="10.52675"><ele>91.0</ele><time>2026-04-04T15:22:35.975Z</time></trkpt><trkpt lat="44.687015" lon="10.52707"><ele>90.5</ele><time>2026-04-04T15:22:36.976Z</time></trkpt><trkpt lat="44.687095" lon="10.52739"><ele>90.0</ele><time>2026-04-04T15:22:37.976Z</time></trkpt><trkpt lat="44.687175" lon="10.52771"><ele>90.0</ele><time>2026-04-04T15:22:38.975Z</time></trkpt><trkpt lat="44.6872517" lon="10.5280333"><ele>90.0</ele><time>2026-04-04T15:22:39.976Z</time></trkpt><trkpt lat="44.6873267" lon="10.528355"><ele>90.0</ele><time>2026-04-04T15:22:40.975Z</time></trkpt><trkpt lat="44.6874" lon="10.5286783"><ele>90.0</ele><time>2026-04-04T15:22:41.975Z</time></trkpt><trkpt lat="44.6874867" lon="10.5290033"><ele>89.0</ele><time>2026-04-04T15:22:42.975Z</time></trkpt><trkpt lat="44.6875667" lon="10.5293167"><ele>88.0</ele><time>2026-04-04T15:22:43.976Z</time></trkpt><trkpt lat="44.6876567" lon="10.5296317"><ele>88.0</ele><time>2026-04-04T15:22:44.975Z</time></trkpt><trkpt lat="44.6877517" lon="10.5299533"><ele>88.0</ele><time>2026-04-04T15:22:45.976Z</time></trkpt><trkpt lat="44.6878533" lon="10.5302733"><ele>87.0</ele><time>2026-04-04T15:22:46.976Z</time></trkpt><trkpt lat="44.6879717" lon="10.5305733"><ele>86.0</ele><time>2026-04-04T15:22:47.976Z</time></trkpt><trkpt lat="44.688095" lon="10.53088"><ele>86.0</ele><time>2026-04-04T15:22:48.976Z</time></trkpt><trkpt lat="44.6882117" lon="10.5311867"><ele>86.0</ele><time>2026-04-04T15:22:49.975Z</time></trkpt><trkpt lat="44.6883333" lon="10.531505"><ele>85.0</ele><time>2026-04-04T15:22:50.975Z</time></trkpt><trkpt lat="44.6884417" lon="10.53182"><ele>84.0</ele><time>2026-04-04T15:22:51.975Z</time></trkpt><trkpt lat="44.6885617" lon="10.5321283"><ele>85.0</ele><time>2026-04-04T15:22:52.975Z</time></trkpt><trkpt lat="44.6886833" lon="10.5324433"><ele>86.0</ele><time>2026-04-04T15:22:53.976Z</time></trkpt><trkpt lat="44.688795" lon="10.5327433"><ele>84.5</ele><time>2026-04-04T15:22:54.975Z</time></trkpt><trkpt lat="44.6889067" lon="10.5330683"><ele>83.0</ele><time>2026-04-04T15:22:55.975Z</time></trkpt><trkpt lat="44.6889983" lon="10.5333833"><ele>83.0</ele><time>2026-04-04T15:22:56.975Z</time></trkpt><trkpt lat="44.6890683" lon="10.533715"><ele>83.0</ele><time>2026-04-04T15:22:57.976Z</time></trkpt><trkpt lat="44.6891217" lon="10.5340583"><ele>83.5</ele><time>2026-04-04T15:22:58.975Z</time></trkpt><trkpt lat="44.68914" lon="10.5343917"><ele>84.0</ele><time>2026-04-04T15:22:59.975Z</time></trkpt><trkpt lat="44.6891433" lon="10.534735"><ele>84.0</ele><time>2026-04-04T15:23:00.975Z</time></trkpt><trkpt lat="44.68912" lon="10.5350733"><ele>84.0</ele><time>2026-04-04T15:23:01.975Z</time></trkpt><trkpt lat="44.689075" lon="10.5354117"><ele>84.0</ele><time>2026-04-04T15:23:02.975Z</time></trkpt><trkpt lat="44.6890183" lon="10.535735"><ele>84.0</ele><time>2026-04-04T15:23:03.976Z</time></trkpt><trkpt lat="44.6889517" lon="10.5360567"><ele>84.0</ele><time>2026-04-04T15:23:04.976Z</time></trkpt><trkpt lat="44.6888917" lon="10.536385"><ele>84.0</ele><time>2026-04-04T15:23:05.975Z</time></trkpt><trkpt lat="44.6888483" lon="10.5367267"><ele>83.5</ele><time>2026-04-04T15:23:06.975Z</time></trkpt><trkpt lat="44.6887983" lon="10.537055"><ele>83.0</ele><time>2026-04-04T15:23:07.975Z</time></trkpt><trkpt lat="44.6887433" lon="10.53737"><ele>83.0</ele><time>2026-04-04T15:23:08.975Z</time></trkpt><trkpt lat="44.6886967" lon="10.53768"><ele>83.0</ele><time>2026-04-04T15:23:09.976Z</time></trkpt><trkpt lat="44.6886583" lon="10.538"><ele>85.0</ele><time>2026-04-04T15:23:10.975Z</time></trkpt><trkpt lat="44.68863" lon="10.5383167"><ele>87.0</ele><time>2026-04-04T15:23:11.975Z</time></trkpt><trkpt lat="44.6886217" lon="10.5386317"><ele>88.0</ele><time>2026-04-04T15:23:12.975Z</time></trkpt><trkpt lat="44.6886367" lon="10.5389567"><ele>89.0</ele><time>2026-04-04T15:23:13.976Z</time></trkpt><trkpt lat="44.6886533" lon="10.5392783"><ele>89.0</ele><time>2026-04-04T15:23:14.975Z</time></trkpt><trkpt lat="44.6887" lon="10.5395967"><ele>89.0</ele><time>2026-04-04T15:23:15.975Z</time></trkpt><trkpt lat="44.6887633" lon="10.5399083"><ele>89.0</ele><time>2026-04-04T15:23:16.975Z</time></trkpt><trkpt lat="44.6888467" lon="10.5402033"><ele>89.0</ele><time>2026-04-04T15:23:17.976Z</time></trkpt><trkpt lat="44.6889383" lon="10.5404933"><ele>87.5</ele><time>2026-04-04T15:23:18.976Z</time></trkpt><trkpt lat="44.68904" lon="10.54077"><ele>86.0</ele><time>2026-04-04T15:23:19.976Z</time></trkpt><trkpt lat="44.6891467" lon="10.54106"><ele>86.5</ele><time>2026-04-04T15:23:20.976Z</time></trkpt><trkpt lat="44.68926" lon="10.5413333"><ele>87.0</ele><time>2026-04-04T15:23:21.975Z</time></trkpt><trkpt lat="44.689375" lon="10.5416117"><ele>86.0</ele><time>2026-04-04T15:23:22.976Z</time></trkpt><trkpt lat="44.6894833" lon="10.5418867"><ele>85.0</ele><time>2026-04-04T15:23:23.975Z</time></trkpt><trkpt lat="44.6895817" lon="10.542145"><ele>84.0</ele><time>2026-04-04T15:23:24.975Z</time></trkpt><trkpt lat="44.6896817" lon="10.5423783"><ele>83.66666666666667</ele><time>2026-04-04T15:23:25.975Z</time></trkpt><trkpt lat="44.6897717" lon="10.542605"><ele>83.33333333333334</ele><time>2026-04-04T15:23:26.976Z</time></trkpt><trkpt lat="44.6898617" lon="10.5428067"><ele>83.0</ele><time>2026-04-04T15:23:27.975Z</time></trkpt><trkpt lat="44.689955" lon="10.5429683"><ele>82.75</ele><time>2026-04-04T15:23:28.975Z</time></trkpt><trkpt lat="44.6900683" lon="10.543095"><ele>82.5</ele><time>2026-04-04T15:23:29.976Z</time></trkpt><trkpt lat="44.6901783" lon="10.543215"><ele>82.25</ele><time>2026-04-04T15:23:30.975Z</time></trkpt><trkpt lat="44.69028" lon="10.543355"><ele>82.0</ele><time>2026-04-04T15:23:31.975Z</time></trkpt><trkpt lat="44.69037" lon="10.5435117"><ele>81.25</ele><time>2026-04-04T15:23:32.975Z</time></trkpt><trkpt lat="44.6904283" lon="10.5436767"><ele>80.5</ele><time>2026-04-04T15:23:33.976Z</time></trkpt><trkpt lat="44.690445" lon="10.5438533"><ele>79.75</ele><time>2026-04-04T15:23:34.975Z</time></trkpt><trkpt lat="44.6904317" lon="10.5440583"><ele>79.0</ele><time>2026-04-04T15:23:35.975Z</time></trkpt><trkpt lat="44.6904" lon="10.5443017"><ele>77.66666666666666</ele><time>2026-04-04T15:23:36.975Z</time></trkpt><trkpt lat="44.69038" lon="10.5445617"><ele>76.33333333333333</ele><time>2026-04-04T15:23:37.976Z</time></trkpt><trkpt lat="44.6903633" lon="10.5448283"><ele>75.0</ele><time>2026-04-04T15:23:38.975Z</time></trkpt><trkpt lat="44.69036" lon="10.5451117"><ele>74.66666666666667</ele><time>2026-04-04T15:23:39.975Z</time></trkpt><trkpt lat="44.690365" lon="10.5454167"><ele>74.33333333333334</ele><time>2026-04-04T15:23:40.975Z</time></trkpt><trkpt lat="44.6903717" lon="10.545725"><ele>74.0</ele><time>2026-04-04T15:23:41.975Z</time></trkpt><trkpt lat="44.6903783" lon="10.5460233"><ele>74.33333333333334</ele><time>2026-04-04T15:23:42.976Z</time></trkpt><trkpt lat="44.69038" lon="10.5463283"><ele>74.66666666666667</ele><time>2026-04-04T15:23:43.976Z</time></trkpt><trkpt lat="44.690395" lon="10.5466233"><ele>75.0</ele><time>2026-04-04T15:23:44.975Z</time></trkpt><trkpt lat="44.6904067" lon="10.54689"><ele>74.66666666666667</ele><time>2026-04-04T15:23:45.975Z</time></trkpt><trkpt lat="44.6904167" lon="10.5471517"><ele>74.33333333333334</ele><time>2026-04-04T15:23:46.975Z</time></trkpt><trkpt lat="44.69043" lon="10.5474067"><ele>74.0</ele><time>2026-04-04T15:23:47.975Z</time></trkpt><trkpt lat="44.690445" lon="10.54764"><ele>74.0</ele><time>2026-04-04T15:23:48.975Z</time></trkpt><trkpt lat="44.6904617" lon="10.5478683"><ele>74.0</ele><time>2026-04-04T15:23:49.976Z</time></trkpt><trkpt lat="44.6904733" lon="10.5480917"><ele>74.0</ele><time>2026-04-04T15:23:50.975Z</time></trkpt><trkpt lat="44.6904833" lon="10.548295"><ele>73.33333333333334</ele><time>2026-04-04T15:23:51.976Z</time></trkpt><trkpt lat="44.6904917" lon="10.5485167"><ele>72.66666666666667</ele><time>2026-04-04T15:23:52.976Z</time></trkpt><trkpt lat="44.6905067" lon="10.54874"><ele>72.0</ele><time>2026-04-04T15:23:53.975Z</time></trkpt><trkpt lat="44.69052" lon="10.5489767"><ele>71.0</ele><time>2026-04-04T15:23:54.976Z</time></trkpt><trkpt lat="44.6905383" lon="10.5492183"><ele>70.0</ele><time>2026-04-04T15:23:55.976Z</time></trkpt><trkpt lat="44.6905583" lon="10.5494517"><ele>69.0</ele><time>2026-04-04T15:23:56.975Z</time></trkpt><trkpt lat="44.6905767" lon="10.549685"><ele>68.66666666666667</ele><time>2026-04-04T15:23:57.975Z</time></trkpt><trkpt lat="44.6906017" lon="10.5499367"><ele>68.33333333333334</ele><time>2026-04-04T15:23:58.975Z</time></trkpt><trkpt lat="44.6906217" lon="10.5501933"><ele>68.0</ele><time>2026-04-04T15:23:59.975Z</time></trkpt><trkpt lat="44.6906367" lon="10.5504417"><ele>67.0</ele><time>2026-04-04T15:24:00.975Z</time></trkpt><trkpt lat="44.6906467" lon="10.5506933"><ele>66.0</ele><time>2026-04-04T15:24:01.975Z</time></trkpt><trkpt lat="44.690665" lon="10.550925"><ele>65.0</ele><time>2026-04-04T15:24:02.976Z</time></trkpt><trkpt lat="44.6906883" lon="10.5511817"><ele>64.33333333333334</ele><time>2026-04-04T15:24:03.976Z</time></trkpt><trkpt lat="44.6906983" lon="10.5514117"><ele>63.66666666666667</ele><time>2026-04-04T15:24:04.974Z</time></trkpt><trkpt lat="44.6907133" lon="10.5516417"><ele>63.0</ele><time>2026-04-04T15:24:05.974Z</time></trkpt><trkpt lat="44.6907333" lon="10.5518633"><ele>62.66666666666667</ele><time>2026-04-04T15:24:06.974Z</time></trkpt><trkpt lat="44.6907467" lon="10.5520783"><ele>62.333333333333336</ele><time>2026-04-04T15:24:07.974Z</time></trkpt><trkpt lat="44.6907617" lon="10.5522867"><ele>62.0</ele><time>2026-04-04T15:24:08.974Z</time></trkpt><trkpt lat="44.6907717" lon="10.5525117"><ele>62.0</ele><time>2026-04-04T15:24:09.974Z</time></trkpt><trkpt lat="44.69079" lon="10.552725"><ele>62.0</ele><time>2026-04-04T15:24:10.975Z</time></trkpt><trkpt lat="44.6907983" lon="10.5529483"><ele>62.0</ele><time>2026-04-04T15:24:11.974Z</time></trkpt><trkpt lat="44.6908117" lon="10.5531633"><ele>61.5</ele><time>2026-04-04T15:24:12.975Z</time></trkpt><trkpt lat="44.6908267" lon="10.5533733"><ele>61.0</ele><time>2026-04-04T15:24:13.974Z</time></trkpt><trkpt lat="44.6908433" lon="10.55357"><ele>60.5</ele><time>2026-04-04T15:24:14.974Z</time></trkpt><trkpt lat="44.690855" lon="10.5537583"><ele>60.0</ele><time>2026-04-04T15:24:15.974Z</time></trkpt><trkpt lat="44.69086" lon="10.5539317"><ele>59.8</ele><time>2026-04-04T15:24:16.974Z</time></trkpt><trkpt lat="44.6908667" lon="10.5540983"><ele>59.6</ele><time>2026-04-04T15:24:17.974Z</time></trkpt><trkpt lat="44.69088" lon="10.5542583"><ele>59.400000000000006</ele><time>2026-04-04T15:24:18.974Z</time></trkpt><trkpt lat="44.690885" lon="10.554395"><ele>59.2</ele><time>2026-04-04T15:24:19.975Z</time></trkpt><trkpt lat="44.6908717" lon="10.55452"><ele>59.0</ele><time>2026-04-04T15:24:20.975Z</time></trkpt><trkpt lat="44.6908417" lon="10.5546383"><ele>59.0</ele><time>2026-04-04T15:24:21.975Z</time></trkpt><trkpt lat="44.6907983" lon="10.5547383"><ele>59.0</ele><time>2026-04-04T15:24:22.974Z</time></trkpt><trkpt lat="44.6907767" lon="10.5548217"><ele>59.0</ele><time>2026-04-04T15:24:23.975Z</time></trkpt><trkpt lat="44.6907867" lon="10.5549167"><ele>59.0</ele><time>2026-04-04T15:24:24.974Z</time></trkpt><trkpt lat="44.6908233" lon="10.5549983"><ele>59.0</ele><time>2026-04-04T15:24:25.974Z</time></trkpt><trkpt lat="44.6908817" lon="10.5550317"><ele>59.0</ele><time>2026-04-04T15:24:26.974Z</time></trkpt><trkpt lat="44.6909533" lon="10.5550233"><ele>59.0</ele><time>2026-04-04T15:24:27.974Z</time></trkpt><trkpt lat="44.6910217" lon="10.5549633"><ele>59.0</ele><time>2026-04-04T15:24:28.974Z</time></trkpt><trkpt lat="44.6910567" lon="10.5548683"><ele>59.00000000000001</ele><time>2026-04-04T15:24:29.975Z</time></trkpt><trkpt lat="44.691055" lon="10.5547433"><ele>59.00000000000001</ele><time>2026-04-04T15:24:30.975Z</time></trkpt><trkpt lat="44.691025" lon="10.554615"><ele>59.0</ele><time>2026-04-04T15:24:31.974Z</time></trkpt><trkpt lat="44.69098" lon="10.5544817"><ele>59.0</ele><time>2026-04-04T15:24:32.974Z</time></trkpt><trkpt lat="44.6909433" lon="10.55436"><ele>59.00000000000001</ele><time>2026-04-04T15:24:33.975Z</time></trkpt><trkpt lat="44.6909383" lon="10.554265"><ele>59.0</ele><time>2026-04-04T15:24:34.974Z</time></trkpt><trkpt lat="44.6909883" lon="10.5541783"><ele>59.0</ele><time>2026-04-04T15:24:36.975Z</time></trkpt><trkpt lat="44.6910533" lon="10.554185"><ele>59.0</ele><time>2026-04-04T15:24:37.974Z</time></trkpt><trkpt lat="44.6911383" lon="10.5542317"><ele>59.00000000000001</ele><time>2026-04-04T15:24:38.974Z</time></trkpt><trkpt lat="44.691235" lon="10.5542733"><ele>59.0</ele><time>2026-04-04T15:24:39.974Z</time></trkpt><trkpt lat="44.6913383" lon="10.5543067"><ele>58.800000000000004</ele><time>2026-04-04T15:24:40.975Z</time></trkpt><trkpt lat="44.691445" lon="10.5543317"><ele>58.60000000000001</ele><time>2026-04-04T15:24:41.974Z</time></trkpt><trkpt lat="44.6915567" lon="10.55436"><ele>58.4</ele><time>2026-04-04T15:24:42.974Z</time></trkpt><trkpt lat="44.69166" lon="10.5543733"><ele>58.2</ele><time>2026-04-04T15:24:43.974Z</time></trkpt><trkpt lat="44.6917583" lon="10.5543867"><ele>58.0</ele><time>2026-04-04T15:24:44.974Z</time></trkpt><trkpt lat="44.69186" lon="10.5543933"><ele>57.99999999999999</ele><time>2026-04-04T15:24:45.975Z</time></trkpt><trkpt lat="44.6919617" lon="10.5543967"><ele>58.0</ele><time>2026-04-04T15:24:46.974Z</time></trkpt><trkpt lat="44.69205" lon="10.554395"><ele>58.0</ele><time>2026-04-04T15:24:47.975Z</time></trkpt><trkpt lat="44.6921267" lon="10.554385"><ele>58.0</ele><time>2026-04-04T15:24:48.975Z</time></trkpt><trkpt lat="44.6922033" lon="10.5543717"><ele>57.99999999999999</ele><time>2026-04-04T15:24:49.974Z</time></trkpt><trkpt lat="44.69227" lon="10.5543483"><ele>58.0</ele><time>2026-04-04T15:24:50.975Z</time></trkpt><trkpt lat="44.6923417" lon="10.5543133"><ele>57.99999999999999</ele><time>2026-04-04T15:24:51.975Z</time></trkpt><trkpt lat="44.6924167" lon="10.554275"><ele>58.0</ele><time>2026-04-04T15:24:52.975Z</time></trkpt><trkpt lat="44.69248" lon="10.5542367"><ele>58.0</ele><time>2026-04-04T15:24:53.974Z</time></trkpt><trkpt lat="44.6925917" lon="10.5541417"><ele>58.0</ele><time>2026-04-04T15:24:55.975Z</time></trkpt><trkpt lat="44.692655" lon="10.5541183"><ele>57.99999999999999</ele><time>2026-04-04T15:24:56.974Z</time></trkpt><trkpt lat="44.69274" lon="10.554095"><ele>58.0</ele><time>2026-04-04T15:24:58.974Z</time></trkpt><trkpt lat="44.6926583" lon="10.5540867"><ele>58.0</ele><time>2026-04-04T15:25:10.975Z</time></trkpt><trkpt lat="44.6925433" lon="10.554165"><ele>58.0</ele><time>2026-04-04T15:25:11.974Z</time></trkpt><trkpt lat="44.6924133" lon="10.5542417"><ele>58.0</ele><time>2026-04-04T15:25:12.975Z</time></trkpt><trkpt lat="44.6922767" lon="10.5543033"><ele>58.0</ele><time>2026-04-04T15:25:13.974Z</time></trkpt><trkpt lat="44.6921367" lon="10.5543467"><ele>58.0</ele><time>2026-04-04T15:25:14.975Z</time></trkpt><trkpt lat="44.6919967" lon="10.5543717"><ele>58.0</ele><time>2026-04-04T15:25:15.975Z</time></trkpt><trkpt lat="44.6918517" lon="10.5543817"><ele>58.0</ele><time>2026-04-04T15:25:16.975Z</time></trkpt><trkpt lat="44.6917067" lon="10.5543733"><ele>58.0</ele><time>2026-04-04T15:25:17.974Z</time></trkpt><trkpt lat="44.6915733" lon="10.5543617"><ele>58.0</ele><time>2026-04-04T15:25:18.974Z</time></trkpt><trkpt lat="44.691445" lon="10.5543483"><ele>58.0</ele><time>2026-04-04T15:25:19.975Z</time></trkpt><trkpt lat="44.69134" lon="10.55432"><ele>58.0</ele><time>2026-04-04T15:25:20.975Z</time></trkpt><trkpt lat="44.69124" lon="10.5542983"><ele>58.0</ele><time>2026-04-04T15:25:21.975Z</time></trkpt><trkpt lat="44.69114" lon="10.5542583"><ele>58.0</ele><time>2026-04-04T15:25:22.974Z</time></trkpt><trkpt lat="44.69106" lon="10.554215"><ele>58.166666666666664</ele><time>2026-04-04T15:25:23.974Z</time></trkpt><trkpt lat="44.690995" lon="10.554185"><ele>58.33333333333333</ele><time>2026-04-04T15:25:24.974Z</time></trkpt><trkpt lat="44.6909283" lon="10.5541417"><ele>58.5</ele><time>2026-04-04T15:25:26.975Z</time></trkpt><trkpt lat="44.6908933" lon="10.5540333"><ele>58.66666666666667</ele><time>2026-04-04T15:25:28.974Z</time></trkpt><trkpt lat="44.6908783" lon="10.5539233"><ele>58.833333333333336</ele><time>2026-04-04T15:25:29.974Z</time></trkpt><trkpt lat="44.6908733" lon="10.553765"><ele>59.0</ele><time>2026-04-04T15:25:30.974Z</time></trkpt><trkpt lat="44.6908717" lon="10.5535683"><ele>59.333333333333336</ele><time>2026-04-04T15:25:31.974Z</time></trkpt><trkpt lat="44.6908617" lon="10.55335"><ele>59.66666666666667</ele><time>2026-04-04T15:25:32.975Z</time></trkpt><trkpt lat="44.690845" lon="10.55312"><ele>60.0</ele><time>2026-04-04T15:25:33.975Z</time></trkpt><trkpt lat="44.690835" lon="10.55287"><ele>60.66666666666667</ele><time>2026-04-04T15:25:34.974Z</time></trkpt><trkpt lat="44.690815" lon="10.5526117"><ele>61.333333333333336</ele><time>2026-04-04T15:25:35.974Z</time></trkpt><trkpt lat="44.6908017" lon="10.5523533"><ele>62.0</ele><time>2026-04-04T15:25:36.974Z</time></trkpt><trkpt lat="44.6907783" lon="10.552095"><ele>62.333333333333336</ele><time>2026-04-04T15:25:37.974Z</time></trkpt><trkpt lat="44.69076" lon="10.55183"><ele>62.66666666666667</ele><time>2026-04-04T15:25:38.974Z</time></trkpt><trkpt lat="44.690745" lon="10.5515717"><ele>63.0</ele><time>2026-04-04T15:25:39.974Z</time></trkpt><trkpt lat="44.69073" lon="10.5513017"><ele>63.66666666666667</ele><time>2026-04-04T15:25:40.974Z</time></trkpt><trkpt lat="44.6907133" lon="10.5510233"><ele>64.33333333333334</ele><time>2026-04-04T15:25:41.975Z</time></trkpt><trkpt lat="44.6906983" lon="10.550745"><ele>65.0</ele><time>2026-04-04T15:25:42.974Z</time></trkpt><trkpt lat="44.6906783" lon="10.55047"><ele>66.0</ele><time>2026-04-04T15:25:43.975Z</time></trkpt><trkpt lat="44.69066" lon="10.5502117"><ele>67.0</ele><time>2026-04-04T15:25:44.975Z</time></trkpt><trkpt lat="44.6906467" lon="10.549945"><ele>68.0</ele><time>2026-04-04T15:25:45.975Z</time></trkpt><trkpt lat="44.69063" lon="10.549675"><ele>68.33333333333334</ele><time>2026-04-04T15:25:46.974Z</time></trkpt><trkpt lat="44.6906167" lon="10.549405"><ele>68.66666666666667</ele><time>2026-04-04T15:25:47.974Z</time></trkpt><trkpt lat="44.6905967" lon="10.54914"><ele>69.0</ele><time>2026-04-04T15:25:48.974Z</time></trkpt><trkpt lat="44.6905833" lon="10.548875"><ele>70.0</ele><time>2026-04-04T15:25:49.974Z</time></trkpt><trkpt lat="44.6905583" lon="10.5485967"><ele>71.0</ele><time>2026-04-04T15:25:50.974Z</time></trkpt><trkpt lat="44.6905383" lon="10.5483333"><ele>72.0</ele><time>2026-04-04T15:25:51.974Z</time></trkpt><trkpt lat="44.690525" lon="10.548065"><ele>72.66666666666667</ele><time>2026-04-04T15:25:52.974Z</time></trkpt><trkpt lat="44.69051" lon="10.5478"><ele>73.33333333333334</ele><time>2026-04-04T15:25:53.974Z</time></trkpt><trkpt lat="44.69049" lon="10.54754"><ele>74.0</ele><time>2026-04-04T15:25:54.974Z</time></trkpt><trkpt lat="44.6904717" lon="10.5472867"><ele>74.33333333333334</ele><time>2026-04-04T15:25:55.975Z</time></trkpt><trkpt lat="44.69046" lon="10.5470217"><ele>74.66666666666667</ele><time>2026-04-04T15:25:56.974Z</time></trkpt><trkpt lat="44.6904383" lon="10.5467567"><ele>75.0</ele><time>2026-04-04T15:25:57.975Z</time></trkpt><trkpt lat="44.6904233" lon="10.5464883"><ele>75.0</ele><time>2026-04-04T15:25:58.975Z</time></trkpt><trkpt lat="44.69042" lon="10.5462233"><ele>75.0</ele><time>2026-04-04T15:25:59.974Z</time></trkpt><trkpt lat="44.69042" lon="10.5459633"><ele>75.0</ele><time>2026-04-04T15:26:00.974Z</time></trkpt><trkpt lat="44.6904183" lon="10.5456967"><ele>75.0</ele><time>2026-04-04T15:26:01.974Z</time></trkpt><trkpt lat="44.6904183" lon="10.5454233"><ele>75.0</ele><time>2026-04-04T15:26:02.975Z</time></trkpt><trkpt lat="44.690415" lon="10.54516"><ele>75.0</ele><time>2026-04-04T15:26:03.974Z</time></trkpt><trkpt lat="44.6904133" lon="10.54491"><ele>75.0</ele><time>2026-04-04T15:26:04.974Z</time></trkpt><trkpt lat="44.6904183" lon="10.5446883"><ele>75.0</ele><time>2026-04-04T15:26:05.975Z</time></trkpt><trkpt lat="44.69043" lon="10.54448"><ele>75.0</ele><time>2026-04-04T15:26:06.974Z</time></trkpt><trkpt lat="44.6904433" lon="10.5442817"><ele>75.0</ele><time>2026-04-04T15:26:07.975Z</time></trkpt><trkpt lat="44.690465" lon="10.5441033"><ele>75.4</ele><time>2026-04-04T15:26:08.974Z</time></trkpt><trkpt lat="44.6904867" lon="10.5439383"><ele>75.8</ele><time>2026-04-04T15:26:09.974Z</time></trkpt><trkpt lat="44.6905067" lon="10.543795"><ele>76.2</ele><time>2026-04-04T15:26:10.974Z</time></trkpt><trkpt lat="44.690525" lon="10.5436717"><ele>76.6</ele><time>2026-04-04T15:26:11.974Z</time></trkpt><trkpt lat="44.6905483" lon="10.5435733"><ele>77.0</ele><time>2026-04-04T15:26:12.975Z</time></trkpt><trkpt lat="44.6905733" lon="10.54345"><ele>77.4</ele><time>2026-04-04T15:26:14.974Z</time></trkpt><trkpt lat="44.690635" lon="10.5433667"><ele>77.80000000000001</ele><time>2026-04-04T15:26:18.975Z</time></trkpt><trkpt lat="44.69074" lon="10.54323"><ele>78.2</ele><time>2026-04-04T15:26:20.974Z</time></trkpt><trkpt lat="44.6908267" lon="10.5431617"><ele>78.60000000000001</ele><time>2026-04-04T15:26:21.974Z</time></trkpt><trkpt lat="44.69094" lon="10.5431067"><ele>79.0</ele><time>2026-04-04T15:26:22.974Z</time></trkpt><trkpt lat="44.6910867" lon="10.543085"><ele>78.0</ele><time>2026-04-04T15:26:23.974Z</time></trkpt><trkpt lat="44.6912567" lon="10.5431033"><ele>77.0</ele><time>2026-04-04T15:26:24.975Z</time></trkpt><trkpt lat="44.691455" lon="10.5431433"><ele>76.0</ele><time>2026-04-04T15:26:25.974Z</time></trkpt><trkpt lat="44.69165" lon="10.5431883"><ele>76.0</ele><time>2026-04-04T15:26:26.975Z</time></trkpt><trkpt lat="44.69185" lon="10.5432317"><ele>76.0</ele><time>2026-04-04T15:26:27.975Z</time></trkpt><trkpt lat="44.6920583" lon="10.54327"><ele>76.0</ele><time>2026-04-04T15:26:28.974Z</time></trkpt><trkpt lat="44.6922517" lon="10.5433017"><ele>74.0</ele><time>2026-04-04T15:26:29.974Z</time></trkpt><trkpt lat="44.6924367" lon="10.543335"><ele>72.0</ele><time>2026-04-04T15:26:30.974Z</time></trkpt><trkpt lat="44.6926217" lon="10.543365"><ele>70.0</ele><time>2026-04-04T15:26:31.974Z</time></trkpt><trkpt lat="44.6928067" lon="10.543395"><ele>70.0</ele><time>2026-04-04T15:26:32.974Z</time></trkpt><trkpt lat="44.693" lon="10.543425"><ele>70.0</ele><time>2026-04-04T15:26:33.975Z</time></trkpt><trkpt lat="44.6931967" lon="10.54345"><ele>70.0</ele><time>2026-04-04T15:26:34.975Z</time></trkpt><trkpt lat="44.69339" lon="10.54348"><ele>70.0</ele><time>2026-04-04T15:26:35.974Z</time></trkpt><trkpt lat="44.6935883" lon="10.54351"><ele>70.0</ele><time>2026-04-04T15:26:36.974Z</time></trkpt><trkpt lat="44.6938033" lon="10.5435333"><ele>70.0</ele><time>2026-04-04T15:26:37.975Z</time></trkpt><trkpt lat="44.6940183" lon="10.5435567"><ele>69.33333333333333</ele><time>2026-04-04T15:26:38.975Z</time></trkpt><trkpt lat="44.69422" lon="10.5435867"><ele>68.66666666666667</ele><time>2026-04-04T15:26:39.974Z</time></trkpt><trkpt lat="44.6944167" lon="10.5436083"><ele>68.0</ele><time>2026-04-04T15:26:40.974Z</time></trkpt><trkpt lat="44.6946167" lon="10.5436033"><ele>67.33333333333334</ele><time>2026-04-04T15:26:41.975Z</time></trkpt><trkpt lat="44.6948117" lon="10.5435733"><ele>66.66666666666667</ele><time>2026-04-04T15:26:42.975Z</time></trkpt><trkpt lat="44.6950183" lon="10.5435117"><ele>66.0</ele><time>2026-04-04T15:26:43.974Z</time></trkpt><trkpt lat="44.6952367" lon="10.5434383"><ele>64.0</ele><time>2026-04-04T15:26:44.974Z</time></trkpt><trkpt lat="44.6954583" lon="10.5433667"><ele>62.0</ele><time>2026-04-04T15:26:45.974Z</time></trkpt><trkpt lat="44.6956967" lon="10.5433183"><ele>62.0</ele><time>2026-04-04T15:26:46.974Z</time></trkpt><trkpt lat="44.6959367" lon="10.5432717"><ele>62.0</ele><time>2026-04-04T15:26:47.974Z</time></trkpt><trkpt lat="44.6961867" lon="10.54322"><ele>62.5</ele><time>2026-04-04T15:26:48.975Z</time></trkpt><trkpt lat="44.6964233" lon="10.5431583"><ele>63.0</ele><time>2026-04-04T15:26:49.974Z</time></trkpt><trkpt lat="44.6966633" lon="10.5431067"><ele>63.0</ele><time>2026-04-04T15:26:50.975Z</time></trkpt><trkpt lat="44.6969067" lon="10.543055"><ele>63.0</ele><time>2026-04-04T15:26:51.974Z</time></trkpt><trkpt lat="44.697145" lon="10.5429917"><ele>63.0</ele><time>2026-04-04T15:26:52.975Z</time></trkpt><trkpt lat="44.697375" lon="10.542935"><ele>63.0</ele><time>2026-04-04T15:26:53.974Z</time></trkpt><trkpt lat="44.6975967" lon="10.5428583"><ele>63.0</ele><time>2026-04-04T15:26:54.974Z</time></trkpt><trkpt lat="44.6978233" lon="10.5427967"><ele>63.0</ele><time>2026-04-04T15:26:55.975Z</time></trkpt><trkpt lat="44.698055" lon="10.5427467"><ele>63.0</ele><time>2026-04-04T15:26:56.974Z</time></trkpt><trkpt lat="44.6982917" lon="10.5426983"><ele>63.0</ele><time>2026-04-04T15:26:57.975Z</time></trkpt><trkpt lat="44.698525" lon="10.5426433"><ele>62.5</ele><time>2026-04-04T15:26:58.974Z</time></trkpt><trkpt lat="44.698755" lon="10.5425867"><ele>62.0</ele><time>2026-04-04T15:26:59.974Z</time></trkpt><trkpt lat="44.6989783" lon="10.5425233"><ele>62.0</ele><time>2026-04-04T15:27:00.975Z</time></trkpt><trkpt lat="44.699195" lon="10.5424583"><ele>62.0</ele><time>2026-04-04T15:27:01.974Z</time></trkpt><trkpt lat="44.6994133" lon="10.5424067"><ele>62.0</ele><time>2026-04-04T15:27:02.974Z</time></trkpt><trkpt lat="44.69963" lon="10.5423617"><ele>61.333333333333336</ele><time>2026-04-04T15:27:03.975Z</time></trkpt><trkpt lat="44.6998433" lon="10.5423083"><ele>60.66666666666667</ele><time>2026-04-04T15:27:04.974Z</time></trkpt><trkpt lat="44.700045" lon="10.5422533"><ele>60.0</ele><time>2026-04-04T15:27:05.974Z</time></trkpt><trkpt lat="44.7002417" lon="10.5421933"><ele>59.0</ele><time>2026-04-04T15:27:06.974Z</time></trkpt><trkpt lat="44.7004217" lon="10.5421583"><ele>58.0</ele><time>2026-04-04T15:27:07.974Z</time></trkpt><trkpt lat="44.7006067" lon="10.5421133"><ele>57.0</ele><time>2026-04-04T15:27:08.974Z</time></trkpt><trkpt lat="44.7007933" lon="10.542085"><ele>57.0</ele><time>2026-04-04T15:27:09.974Z</time></trkpt><trkpt lat="44.7009767" lon="10.54208"><ele>57.0</ele><time>2026-04-04T15:27:10.975Z</time></trkpt><trkpt lat="44.7011433" lon="10.5420783"><ele>57.0</ele><time>2026-04-04T15:27:11.974Z</time></trkpt><trkpt lat="44.7013067" lon="10.5420917"><ele>57.0</ele><time>2026-04-04T15:27:12.974Z</time></trkpt><trkpt lat="44.7014533" lon="10.5421233"><ele>57.0</ele><time>2026-04-04T15:27:13.975Z</time></trkpt><trkpt lat="44.7015633" lon="10.5421617"><ele>57.0</ele><time>2026-04-04T15:27:14.974Z</time></trkpt><trkpt lat="44.70166" lon="10.5422367"><ele>57.0</ele><time>2026-04-04T15:27:15.975Z</time></trkpt><trkpt lat="44.701755" lon="10.5423133"><ele>57.0</ele><time>2026-04-04T15:27:16.974Z</time></trkpt><trkpt lat="44.7018783" lon="10.5423433"><ele>57.0</ele><time>2026-04-04T15:27:17.975Z</time></trkpt><trkpt lat="44.7020217" lon="10.5423517"><ele>57.0</ele><time>2026-04-04T15:27:18.975Z</time></trkpt><trkpt lat="44.702185" lon="10.5424117"><ele>57.0</ele><time>2026-04-04T15:27:19.974Z</time></trkpt><trkpt lat="44.702355" lon="10.54252"><ele>56.33333333333333</ele><time>2026-04-04T15:27:20.975Z</time></trkpt><trkpt lat="44.702525" lon="10.5426517"><ele>55.666666666666664</ele><time>2026-04-04T15:27:21.975Z</time></trkpt><trkpt lat="44.7026967" lon="10.5427983"><ele>55.0</ele><time>2026-04-04T15:27:22.974Z</time></trkpt><trkpt lat="44.702875" lon="10.5429617"><ele>55.0</ele><time>2026-04-04T15:27:23.974Z</time></trkpt><trkpt lat="44.7030433" lon="10.5431133"><ele>55.0</ele><time>2026-04-04T15:27:24.974Z</time></trkpt><trkpt lat="44.7032267" lon="10.54328"><ele>55.0</ele><time>2026-04-04T15:27:25.975Z</time></trkpt><trkpt lat="44.70342" lon="10.5434317"><ele>55.33333333333333</ele><time>2026-04-04T15:27:26.974Z</time></trkpt><trkpt lat="44.7036033" lon="10.5436033"><ele>55.66666666666667</ele><time>2026-04-04T15:27:27.974Z</time></trkpt><trkpt lat="44.703785" lon="10.543785"><ele>56.0</ele><time>2026-04-04T15:27:28.975Z</time></trkpt><trkpt lat="44.7039633" lon="10.54396"><ele>55.333333333333336</ele><time>2026-04-04T15:27:29.975Z</time></trkpt><trkpt lat="44.70414" lon="10.5441317"><ele>54.66666666666667</ele><time>2026-04-04T15:27:30.974Z</time></trkpt><trkpt lat="44.70432" lon="10.544305"><ele>54.0</ele><time>2026-04-04T15:27:31.974Z</time></trkpt><trkpt lat="44.7045" lon="10.5444683"><ele>53.66666666666667</ele><time>2026-04-04T15:27:32.974Z</time></trkpt><trkpt lat="44.704675" lon="10.544635"><ele>53.333333333333336</ele><time>2026-04-04T15:27:33.974Z</time></trkpt><trkpt lat="44.7048467" lon="10.5448067"><ele>53.0</ele><time>2026-04-04T15:27:34.974Z</time></trkpt><trkpt lat="44.7050067" lon="10.5449883"><ele>53.0</ele><time>2026-04-04T15:27:35.974Z</time></trkpt><trkpt lat="44.7051683" lon="10.5451817"><ele>53.0</ele><time>2026-04-04T15:27:36.974Z</time></trkpt><trkpt lat="44.70532" lon="10.54539"><ele>53.0</ele><time>2026-04-04T15:27:37.974Z</time></trkpt><trkpt lat="44.7054717" lon="10.545615"><ele>51.66666666666667</ele><time>2026-04-04T15:27:38.974Z</time></trkpt><trkpt lat="44.705625" lon="10.5458417"><ele>50.33333333333333</ele><time>2026-04-04T15:27:39.975Z</time></trkpt><trkpt lat="44.7057733" lon="10.54608"><ele>49.0</ele><time>2026-04-04T15:27:40.975Z</time></trkpt><trkpt lat="44.7059283" lon="10.546325"><ele>50.0</ele><time>2026-04-04T15:27:41.974Z</time></trkpt><trkpt lat="44.706085" lon="10.5465733"><ele>51.0</ele><time>2026-04-04T15:27:42.975Z</time></trkpt><trkpt lat="44.70624" lon="10.5468233"><ele>51.0</ele><time>2026-04-04T15:27:43.974Z</time></trkpt><trkpt lat="44.706395" lon="10.547075"><ele>51.0</ele><time>2026-04-04T15:27:44.974Z</time></trkpt><trkpt lat="44.70655" lon="10.5473267"><ele>51.0</ele><time>2026-04-04T15:27:45.974Z</time></trkpt><trkpt lat="44.7067117" lon="10.54758"><ele>51.0</ele><time>2026-04-04T15:27:46.975Z</time></trkpt><trkpt lat="44.70687" lon="10.5478333"><ele>50.0</ele><time>2026-04-04T15:27:47.974Z</time></trkpt><trkpt lat="44.7070233" lon="10.5480817"><ele>49.0</ele><time>2026-04-04T15:27:48.975Z</time></trkpt><trkpt lat="44.7071783" lon="10.5483283"><ele>49.0</ele><time>2026-04-04T15:27:49.974Z</time></trkpt><trkpt lat="44.70733" lon="10.54857"><ele>49.0</ele><time>2026-04-04T15:27:50.974Z</time></trkpt><trkpt lat="44.7074983" lon="10.548785"><ele>48.5</ele><time>2026-04-04T15:27:51.974Z</time></trkpt><trkpt lat="44.707675" lon="10.548995"><ele>48.0</ele><time>2026-04-04T15:27:52.974Z</time></trkpt><trkpt lat="44.707865" lon="10.54918"><ele>49.0</ele><time>2026-04-04T15:27:53.975Z</time></trkpt><trkpt lat="44.7080617" lon="10.5493617"><ele>50.0</ele><time>2026-04-04T15:27:54.974Z</time></trkpt><trkpt lat="44.7082617" lon="10.5495167"><ele>49.66666666666667</ele><time>2026-04-04T15:27:55.975Z</time></trkpt><trkpt lat="44.708455" lon="10.5496483"><ele>49.33333333333333</ele><time>2026-04-04T15:27:56.975Z</time></trkpt><trkpt lat="44.708635" lon="10.549765"><ele>49.0</ele><time>2026-04-04T15:27:57.974Z</time></trkpt><trkpt lat="44.7088067" lon="10.5498817"><ele>48.666666666666664</ele><time>2026-04-04T15:27:58.974Z</time></trkpt><trkpt lat="44.7089733" lon="10.5499883"><ele>48.33333333333333</ele><time>2026-04-04T15:27:59.974Z</time></trkpt><trkpt lat="44.7091333" lon="10.5500817"><ele>48.0</ele><time>2026-04-04T15:28:00.974Z</time></trkpt><trkpt lat="44.70929" lon="10.5501483"><ele>46.666666666666664</ele><time>2026-04-04T15:28:01.974Z</time></trkpt><trkpt lat="44.709435" lon="10.5502017"><ele>45.33333333333333</ele><time>2026-04-04T15:28:02.975Z</time></trkpt><trkpt lat="44.7095783" lon="10.5503"><ele>44.0</ele><time>2026-04-04T15:28:03.974Z</time></trkpt><trkpt lat="44.7097267" lon="10.5504283"><ele>44.0</ele><time>2026-04-04T15:28:04.974Z</time></trkpt><trkpt lat="44.7098617" lon="10.550605"><ele>44.0</ele><time>2026-04-04T15:28:05.974Z</time></trkpt><trkpt lat="44.71" lon="10.5507967"><ele>44.0</ele><time>2026-04-04T15:28:06.975Z</time></trkpt><trkpt lat="44.7101183" lon="10.5509933"><ele>44.0</ele><time>2026-04-04T15:28:07.974Z</time></trkpt><trkpt lat="44.7102333" lon="10.5511817"><ele>44.0</ele><time>2026-04-04T15:28:08.975Z</time></trkpt><trkpt lat="44.7103517" lon="10.5513767"><ele>44.0</ele><time>2026-04-04T15:28:09.974Z</time></trkpt><trkpt lat="44.7104717" lon="10.55158"><ele>45.0</ele><time>2026-04-04T15:28:10.975Z</time></trkpt><trkpt lat="44.710605" lon="10.5517917"><ele>46.0</ele><time>2026-04-04T15:28:11.974Z</time></trkpt><trkpt lat="44.7107567" lon="10.55202"><ele>47.0</ele><time>2026-04-04T15:28:12.975Z</time></trkpt><trkpt lat="44.7109083" lon="10.552255"><ele>47.0</ele><time>2026-04-04T15:28:13.974Z</time></trkpt><trkpt lat="44.71105" lon="10.5524983"><ele>47.0</ele><time>2026-04-04T15:28:14.974Z</time></trkpt><trkpt lat="44.7111917" lon="10.552735"><ele>47.0</ele><time>2026-04-04T15:28:15.975Z</time></trkpt><trkpt lat="44.7113367" lon="10.55298"><ele>46.666666666666664</ele><time>2026-04-04T15:28:16.974Z</time></trkpt><trkpt lat="44.71148" lon="10.553225"><ele>46.333333333333336</ele><time>2026-04-04T15:28:17.974Z</time></trkpt><trkpt lat="44.711625" lon="10.5534617"><ele>46.0</ele><time>2026-04-04T15:28:18.974Z</time></trkpt><trkpt lat="44.7117683" lon="10.553695"><ele>46.0</ele><time>2026-04-04T15:28:19.974Z</time></trkpt><trkpt lat="44.711915" lon="10.5539317"><ele>46.0</ele><time>2026-04-04T15:28:20.975Z</time></trkpt><trkpt lat="44.7120617" lon="10.554155"><ele>46.0</ele><time>2026-04-04T15:28:21.974Z</time></trkpt><trkpt lat="44.71223" lon="10.5543583"><ele>45.5</ele><time>2026-04-04T15:28:22.975Z</time></trkpt><trkpt lat="44.7124167" lon="10.5545383"><ele>45.0</ele><time>2026-04-04T15:28:23.975Z</time></trkpt><trkpt lat="44.7126217" lon="10.5547017"><ele>45.0</ele><time>2026-04-04T15:28:24.974Z</time></trkpt><trkpt lat="44.712845" lon="10.5548567"><ele>45.0</ele><time>2026-04-04T15:28:25.975Z</time></trkpt><trkpt lat="44.7130617" lon="10.5550033"><ele>45.0</ele><time>2026-04-04T15:28:26.974Z</time></trkpt><trkpt lat="44.71327" lon="10.5551633"><ele>45.0</ele><time>2026-04-04T15:28:27.974Z</time></trkpt><trkpt lat="44.7134817" lon="10.555325"><ele>46.0</ele><time>2026-04-04T15:28:28.974Z</time></trkpt><trkpt lat="44.7136933" lon="10.5554817"><ele>47.0</ele><time>2026-04-04T15:28:29.974Z</time></trkpt><trkpt lat="44.7139067" lon="10.5556467"><ele>47.0</ele><time>2026-04-04T15:28:30.974Z</time></trkpt><trkpt lat="44.714115" lon="10.5558083"><ele>47.0</ele><time>2026-04-04T15:28:31.974Z</time></trkpt><trkpt lat="44.7143067" lon="10.5559733"><ele>46.5</ele><time>2026-04-04T15:28:32.975Z</time></trkpt><trkpt lat="44.7145017" lon="10.556145"><ele>46.0</ele><time>2026-04-04T15:28:33.974Z</time></trkpt><trkpt lat="44.7147" lon="10.5563133"><ele>46.0</ele><time>2026-04-04T15:28:34.975Z</time></trkpt><trkpt lat="44.71489" lon="10.5564817"><ele>46.0</ele><time>2026-04-04T15:28:35.975Z</time></trkpt><trkpt lat="44.7150783" lon="10.5566583"><ele>46.5</ele><time>2026-04-04T15:28:36.974Z</time></trkpt><trkpt lat="44.71527" lon="10.5568383"><ele>47.0</ele><time>2026-04-04T15:28:37.974Z</time></trkpt><trkpt lat="44.71546" lon="10.55702"><ele>46.0</ele><time>2026-04-04T15:28:38.974Z</time></trkpt><trkpt lat="44.7156617" lon="10.5572"><ele>45.0</ele><time>2026-04-04T15:28:39.975Z</time></trkpt><trkpt lat="44.715865" lon="10.5573733"><ele>45.5</ele><time>2026-04-04T15:28:40.974Z</time></trkpt><trkpt lat="44.7160783" lon="10.5575433"><ele>46.0</ele><time>2026-04-04T15:28:41.975Z</time></trkpt><trkpt lat="44.7162867" lon="10.55771"><ele>46.0</ele><time>2026-04-04T15:28:42.974Z</time></trkpt><trkpt lat="44.7165117" lon="10.557825"><ele>46.0</ele><time>2026-04-04T15:28:43.974Z</time></trkpt><trkpt lat="44.716735" lon="10.557955"><ele>44.5</ele><time>2026-04-04T15:28:44.974Z</time></trkpt><trkpt lat="44.71695" lon="10.5580683"><ele>43.0</ele><time>2026-04-04T15:28:45.974Z</time></trkpt><trkpt lat="44.7171717" lon="10.5581733"><ele>43.0</ele><time>2026-04-04T15:28:46.975Z</time></trkpt><trkpt lat="44.7174" lon="10.558275"><ele>43.0</ele><time>2026-04-04T15:28:47.974Z</time></trkpt><trkpt lat="44.71762" lon="10.5583767"><ele>44.5</ele><time>2026-04-04T15:28:48.975Z</time></trkpt><trkpt lat="44.7178367" lon="10.5584883"><ele>46.0</ele><time>2026-04-04T15:28:49.975Z</time></trkpt><trkpt lat="44.7180433" lon="10.5586"><ele>45.66666666666667</ele><time>2026-04-04T15:28:50.975Z</time></trkpt><trkpt lat="44.7182483" lon="10.558705"><ele>45.333333333333336</ele><time>2026-04-04T15:28:51.974Z</time></trkpt><trkpt lat="44.7184517" lon="10.5588017"><ele>45.0</ele><time>2026-04-04T15:28:52.975Z</time></trkpt><trkpt lat="44.7186667" lon="10.5588883"><ele>45.0</ele><time>2026-04-04T15:28:53.974Z</time></trkpt><trkpt lat="44.7188833" lon="10.5589833"><ele>45.0</ele><time>2026-04-04T15:28:54.975Z</time></trkpt><trkpt lat="44.7190967" lon="10.5590717"><ele>45.0</ele><time>2026-04-04T15:28:55.974Z</time></trkpt><trkpt lat="44.719305" lon="10.5591483"><ele>44.666666666666664</ele><time>2026-04-04T15:28:56.974Z</time></trkpt><trkpt lat="44.7195167" lon="10.55924"><ele>44.33333333333333</ele><time>2026-04-04T15:28:57.974Z</time></trkpt><trkpt lat="44.7197283" lon="10.5593283"><ele>44.0</ele><time>2026-04-04T15:28:58.975Z</time></trkpt><trkpt lat="44.71993" lon="10.5594117"><ele>44.0</ele><time>2026-04-04T15:28:59.975Z</time></trkpt><trkpt lat="44.7201267" lon="10.5594967"><ele>44.0</ele><time>2026-04-04T15:29:00.974Z</time></trkpt><trkpt lat="44.7203067" lon="10.5595733"><ele>44.0</ele><time>2026-04-04T15:29:01.975Z</time></trkpt><trkpt lat="44.72046" lon="10.55964"><ele>43.75</ele><time>2026-04-04T15:29:02.974Z</time></trkpt><trkpt lat="44.72061" lon="10.5597017"><ele>43.5</ele><time>2026-04-04T15:29:03.974Z</time></trkpt><trkpt lat="44.7207433" lon="10.559755"><ele>43.25</ele><time>2026-04-04T15:29:04.974Z</time></trkpt><trkpt lat="44.7208583" lon="10.5597933"><ele>43.0</ele><time>2026-04-04T15:29:05.974Z</time></trkpt><trkpt lat="44.7209617" lon="10.55984"><ele>43.0</ele><time>2026-04-04T15:29:06.974Z</time></trkpt><trkpt lat="44.7210417" lon="10.5599"><ele>43.0</ele><time>2026-04-04T15:29:07.974Z</time></trkpt><trkpt lat="44.7211167" lon="10.55997"><ele>43.0</ele><time>2026-04-04T15:29:08.974Z</time></trkpt><trkpt lat="44.7212133" lon="10.5600167"><ele>43.0</ele><time>2026-04-04T15:29:09.975Z</time></trkpt><trkpt lat="44.7213283" lon="10.5600467"><ele>43.0</ele><time>2026-04-04T15:29:10.975Z</time></trkpt><trkpt lat="44.7214517" lon="10.5600917"><ele>43.0</ele><time>2026-04-04T15:29:11.974Z</time></trkpt><trkpt lat="44.72158" lon="10.5601417"><ele>43.0</ele><time>2026-04-04T15:29:12.974Z</time></trkpt><trkpt lat="44.721715" lon="10.5602"><ele>43.0</ele><time>2026-04-04T15:29:13.974Z</time></trkpt><trkpt lat="44.7218483" lon="10.5602567"><ele>43.0</ele><time>2026-04-04T15:29:14.974Z</time></trkpt><trkpt lat="44.7219867" lon="10.5603083"><ele>43.0</ele><time>2026-04-04T15:29:15.974Z</time></trkpt><trkpt lat="44.7221217" lon="10.56036"><ele>43.0</ele><time>2026-04-04T15:29:16.974Z</time></trkpt><trkpt lat="44.7222483" lon="10.5604167"><ele>43.0</ele><time>2026-04-04T15:29:17.975Z</time></trkpt><trkpt lat="44.7223667" lon="10.560465"><ele>43.0</ele><time>2026-04-04T15:29:18.974Z</time></trkpt><trkpt lat="44.7224717" lon="10.560505"><ele>42.8</ele><time>2026-04-04T15:29:19.974Z</time></trkpt><trkpt lat="44.7225667" lon="10.5605433"><ele>42.599999999999994</ele><time>2026-04-04T15:29:20.974Z</time></trkpt><trkpt lat="44.7226617" lon="10.5605867"><ele>42.400000000000006</ele><time>2026-04-04T15:29:21.975Z</time></trkpt><trkpt lat="44.72274" lon="10.5606667"><ele>42.2</ele><time>2026-04-04T15:29:22.974Z</time></trkpt><trkpt lat="44.722805" lon="10.5607883"><ele>42.0</ele><time>2026-04-04T15:29:23.974Z</time></trkpt><trkpt lat="44.7228467" lon="10.5609467"><ele>42.0</ele><time>2026-04-04T15:29:24.975Z</time></trkpt><trkpt lat="44.7228467" lon="10.56111"><ele>42.0</ele><time>2026-04-04T15:29:25.974Z</time></trkpt><trkpt lat="44.722825" lon="10.5612667"><ele>42.0</ele><time>2026-04-04T15:29:26.975Z</time></trkpt><trkpt lat="44.7227817" lon="10.5614283"><ele>42.0</ele><time>2026-04-04T15:29:27.974Z</time></trkpt><trkpt lat="44.7227333" lon="10.5615867"><ele>42.25</ele><time>2026-04-04T15:29:28.974Z</time></trkpt><trkpt lat="44.7226833" lon="10.5617533"><ele>42.5</ele><time>2026-04-04T15:29:29.974Z</time></trkpt><trkpt lat="44.7226317" lon="10.5619217"><ele>42.75</ele><time>2026-04-04T15:29:30.974Z</time></trkpt><trkpt lat="44.7225783" lon="10.5621033"><ele>43.0</ele><time>2026-04-04T15:29:31.974Z</time></trkpt><trkpt lat="44.72252" lon="10.56229"><ele>43.0</ele><time>2026-04-04T15:29:32.974Z</time></trkpt><trkpt lat="44.7224683" lon="10.562475"><ele>43.0</ele><time>2026-04-04T15:29:33.974Z</time></trkpt><trkpt lat="44.7224117" lon="10.56265"><ele>43.0</ele><time>2026-04-04T15:29:34.975Z</time></trkpt><trkpt lat="44.7223517" lon="10.5628317"><ele>43.0</ele><time>2026-04-04T15:29:35.974Z</time></trkpt><trkpt lat="44.7222967" lon="10.563005"><ele>43.0</ele><time>2026-04-04T15:29:36.975Z</time></trkpt><trkpt lat="44.722235" lon="10.5631833"><ele>43.0</ele><time>2026-04-04T15:29:37.975Z</time></trkpt><trkpt lat="44.7221767" lon="10.563375"><ele>43.0</ele><time>2026-04-04T15:29:38.974Z</time></trkpt><trkpt lat="44.72211" lon="10.563565"><ele>43.0</ele><time>2026-04-04T15:29:39.974Z</time></trkpt><trkpt lat="44.7220483" lon="10.5637467"><ele>43.0</ele><time>2026-04-04T15:29:40.974Z</time></trkpt><trkpt lat="44.7219833" lon="10.563925"><ele>43.0</ele><time>2026-04-04T15:29:41.974Z</time></trkpt><trkpt lat="44.7219167" lon="10.56412"><ele>43.0</ele><time>2026-04-04T15:29:42.974Z</time></trkpt><trkpt lat="44.721845" lon="10.5643167"><ele>43.0</ele><time>2026-04-04T15:29:43.974Z</time></trkpt><trkpt lat="44.721775" lon="10.56452"><ele>43.0</ele><time>2026-04-04T15:29:44.974Z</time></trkpt><trkpt lat="44.7217" lon="10.5647333"><ele>43.0</ele><time>2026-04-04T15:29:45.974Z</time></trkpt><trkpt lat="44.72163" lon="10.564945"><ele>43.0</ele><time>2026-04-04T15:29:46.974Z</time></trkpt><trkpt lat="44.7215583" lon="10.5651567"><ele>43.0</ele><time>2026-04-04T15:29:47.974Z</time></trkpt><trkpt lat="44.7214783" lon="10.56539"><ele>43.0</ele><time>2026-04-04T15:29:48.974Z</time></trkpt><trkpt lat="44.7213967" lon="10.5656317"><ele>43.0</ele><time>2026-04-04T15:29:49.974Z</time></trkpt><trkpt lat="44.721315" lon="10.5658567"><ele>43.0</ele><time>2026-04-04T15:29:50.975Z</time></trkpt><trkpt lat="44.7212383" lon="10.5660617"><ele>43.0</ele><time>2026-04-04T15:29:51.975Z</time></trkpt><trkpt lat="44.7211567" lon="10.5662733"><ele>43.0</ele><time>2026-04-04T15:29:52.974Z</time></trkpt><trkpt lat="44.72108" lon="10.5664817"><ele>43.0</ele><time>2026-04-04T15:29:53.974Z</time></trkpt><trkpt lat="44.721005" lon="10.5666867"><ele>43.0</ele><time>2026-04-04T15:29:54.974Z</time></trkpt><trkpt lat="44.7209183" lon="10.5668883"><ele>42.66666666666667</ele><time>2026-04-04T15:29:55.974Z</time></trkpt><trkpt lat="44.7208367" lon="10.567095"><ele>42.333333333333336</ele><time>2026-04-04T15:29:56.974Z</time></trkpt><trkpt lat="44.72076" lon="10.56731"><ele>42.0</ele><time>2026-04-04T15:29:57.974Z</time></trkpt><trkpt lat="44.72068" lon="10.5675083"><ele>42.0</ele><time>2026-04-04T15:29:58.974Z</time></trkpt><trkpt lat="44.720595" lon="10.5677233"><ele>42.0</ele><time>2026-04-04T15:29:59.974Z</time></trkpt><trkpt lat="44.7205183" lon="10.567925"><ele>42.0</ele><time>2026-04-04T15:30:00.974Z</time></trkpt><trkpt lat="44.720445" lon="10.5681317"><ele>42.0</ele><time>2026-04-04T15:30:01.975Z</time></trkpt><trkpt lat="44.72037" lon="10.5683617"><ele>42.0</ele><time>2026-04-04T15:30:02.975Z</time></trkpt><trkpt lat="44.7202883" lon="10.568615"><ele>42.0</ele><time>2026-04-04T15:30:03.974Z</time></trkpt><trkpt lat="44.7202017" lon="10.56888"><ele>42.0</ele><time>2026-04-04T15:30:04.975Z</time></trkpt><trkpt lat="44.7201" lon="10.5691267"><ele>42.0</ele><time>2026-04-04T15:30:05.974Z</time></trkpt><trkpt lat="44.7199967" lon="10.5693783"><ele>42.0</ele><time>2026-04-04T15:30:06.974Z</time></trkpt><trkpt lat="44.7198933" lon="10.569635"><ele>43.0</ele><time>2026-04-04T15:30:07.975Z</time></trkpt><trkpt lat="44.7197967" lon="10.5699"><ele>44.0</ele><time>2026-04-04T15:30:08.975Z</time></trkpt><trkpt lat="44.7197033" lon="10.570155"><ele>45.0</ele><time>2026-04-04T15:30:09.975Z</time></trkpt><trkpt lat="44.7196167" lon="10.57041"><ele>45.0</ele><time>2026-04-04T15:30:10.975Z</time></trkpt><trkpt lat="44.7195283" lon="10.5706383"><ele>45.0</ele><time>2026-04-04T15:30:11.975Z</time></trkpt><trkpt lat="44.719455" lon="10.570845"><ele>45.0</ele><time>2026-04-04T15:30:12.975Z</time></trkpt><trkpt lat="44.71939" lon="10.57103"><ele>45.333333333333336</ele><time>2026-04-04T15:30:13.975Z</time></trkpt><trkpt lat="44.7193217" lon="10.5712133"><ele>45.66666666666667</ele><time>2026-04-04T15:30:14.974Z</time></trkpt><trkpt lat="44.719245" lon="10.57141"><ele>46.0</ele><time>2026-04-04T15:30:15.974Z</time></trkpt><trkpt lat="44.7191667" lon="10.5716017"><ele>46.0</ele><time>2026-04-04T15:30:16.974Z</time></trkpt><trkpt lat="44.7190967" lon="10.5717833"><ele>46.0</ele><time>2026-04-04T15:30:17.975Z</time></trkpt><trkpt lat="44.7190333" lon="10.5719683"><ele>46.0</ele><time>2026-04-04T15:30:18.974Z</time></trkpt><trkpt lat="44.718975" lon="10.5721483"><ele>46.0</ele><time>2026-04-04T15:30:19.975Z</time></trkpt><trkpt lat="44.7189117" lon="10.5723117"><ele>46.0</ele><time>2026-04-04T15:30:20.974Z</time></trkpt><trkpt lat="44.7188483" lon="10.572465"><ele>46.0</ele><time>2026-04-04T15:30:21.974Z</time></trkpt><trkpt lat="44.718785" lon="10.5726283"><ele>46.0</ele><time>2026-04-04T15:30:22.974Z</time></trkpt><trkpt lat="44.7187233" lon="10.5727933"><ele>46.0</ele><time>2026-04-04T15:30:23.974Z</time></trkpt><trkpt lat="44.7186617" lon="10.5729667"><ele>46.0</ele><time>2026-04-04T15:30:24.974Z</time></trkpt><trkpt lat="44.7186067" lon="10.5731267"><ele>46.0</ele><time>2026-04-04T15:30:25.974Z</time></trkpt><trkpt lat="44.718555" lon="10.5732933"><ele>46.0</ele><time>2026-04-04T15:30:26.975Z</time></trkpt><trkpt lat="44.7185083" lon="10.5734433"><ele>46.0</ele><time>2026-04-04T15:30:27.974Z</time></trkpt><trkpt lat="44.7184683" lon="10.57358"><ele>45.75</ele><time>2026-04-04T15:30:28.975Z</time></trkpt><trkpt lat="44.7184233" lon="10.57373"><ele>45.5</ele><time>2026-04-04T15:30:29.974Z</time></trkpt><trkpt lat="44.7183767" lon="10.57389"><ele>45.25</ele><time>2026-04-04T15:30:30.974Z</time></trkpt><trkpt lat="44.7183233" lon="10.5740633"><ele>45.0</ele><time>2026-04-04T15:30:31.974Z</time></trkpt><trkpt lat="44.718275" lon="10.57425"><ele>45.0</ele><time>2026-04-04T15:30:32.975Z</time></trkpt><trkpt lat="44.7182267" lon="10.5744417"><ele>45.0</ele><time>2026-04-04T15:30:33.974Z</time></trkpt><trkpt lat="44.7181733" lon="10.5746483"><ele>45.0</ele><time>2026-04-04T15:30:34.974Z</time></trkpt><trkpt lat="44.7181117" lon="10.574855"><ele>45.0</ele><time>2026-04-04T15:30:35.975Z</time></trkpt><trkpt lat="44.7180433" lon="10.575065"><ele>45.0</ele><time>2026-04-04T15:30:36.974Z</time></trkpt><trkpt lat="44.7179833" lon="10.5752617"><ele>45.0</ele><time>2026-04-04T15:30:37.974Z</time></trkpt><trkpt lat="44.7179183" lon="10.5754633"><ele>45.0</ele><time>2026-04-04T15:30:38.975Z</time></trkpt><trkpt lat="44.7178583" lon="10.5756567"><ele>45.0</ele><time>2026-04-04T15:30:39.975Z</time></trkpt><trkpt lat="44.7177983" lon="10.5758283"><ele>45.0</ele><time>2026-04-04T15:30:40.974Z</time></trkpt><trkpt lat="44.7177433" lon="10.575985"><ele>45.0</ele><time>2026-04-04T15:30:41.975Z</time></trkpt><trkpt lat="44.717695" lon="10.57614"><ele>45.0</ele><time>2026-04-04T15:30:42.974Z</time></trkpt><trkpt lat="44.7176433" lon="10.5762867"><ele>45.0</ele><time>2026-04-04T15:30:43.974Z</time></trkpt><trkpt lat="44.71759" lon="10.5764433"><ele>45.0</ele><time>2026-04-04T15:30:44.975Z</time></trkpt><trkpt lat="44.7175417" lon="10.576595"><ele>45.0</ele><time>2026-04-04T15:30:45.975Z</time></trkpt><trkpt lat="44.7174817" lon="10.57677"><ele>45.0</ele><time>2026-04-04T15:30:46.974Z</time></trkpt><trkpt lat="44.7174117" lon="10.576965"><ele>45.0</ele><time>2026-04-04T15:30:47.975Z</time></trkpt><trkpt lat="44.7173433" lon="10.57717"><ele>45.0</ele><time>2026-04-04T15:30:48.974Z</time></trkpt><trkpt lat="44.7172617" lon="10.5773967"><ele>45.0</ele><time>2026-04-04T15:30:49.974Z</time></trkpt><trkpt lat="44.7171817" lon="10.5776333"><ele>45.0</ele><time>2026-04-04T15:30:50.974Z</time></trkpt><trkpt lat="44.7171033" lon="10.57787"><ele>45.0</ele><time>2026-04-04T15:30:51.975Z</time></trkpt><trkpt lat="44.7170317" lon="10.57809"><ele>45.0</ele><time>2026-04-04T15:30:52.974Z</time></trkpt><trkpt lat="44.716965" lon="10.578295"><ele>45.0</ele><time>2026-04-04T15:30:53.975Z</time></trkpt><trkpt lat="44.716905" lon="10.5784833"><ele>45.0</ele><time>2026-04-04T15:30:54.974Z</time></trkpt><trkpt lat="44.7168583" lon="10.5786533"><ele>45.0</ele><time>2026-04-04T15:30:55.974Z</time></trkpt><trkpt lat="44.71682" lon="10.578805"><ele>45.0</ele><time>2026-04-04T15:30:56.974Z</time></trkpt><trkpt lat="44.71678" lon="10.57894"><ele>45.0</ele><time>2026-04-04T15:30:57.974Z</time></trkpt><trkpt lat="44.7167267" lon="10.57905"><ele>45.0</ele><time>2026-04-04T15:30:58.974Z</time></trkpt><trkpt lat="44.7166633" lon="10.579145"><ele>45.0</ele><time>2026-04-04T15:30:59.975Z</time></trkpt><trkpt lat="44.7166083" lon="10.5792483"><ele>45.0</ele><time>2026-04-04T15:31:00.974Z</time></trkpt><trkpt lat="44.7165783" lon="10.5793467"><ele>45.0</ele><time>2026-04-04T15:31:01.974Z</time></trkpt><trkpt lat="44.7165783" lon="10.57946"><ele>45.0</ele><time>2026-04-04T15:31:02.974Z</time></trkpt><trkpt lat="44.7166167" lon="10.5795683"><ele>45.0</ele><time>2026-04-04T15:31:03.974Z</time></trkpt><trkpt lat="44.7166717" lon="10.5797033"><ele>45.0</ele><time>2026-04-04T15:31:04.975Z</time></trkpt><trkpt lat="44.7167367" lon="10.5798783"><ele>45.0</ele><time>2026-04-04T15:31:05.974Z</time></trkpt><trkpt lat="44.7167733" lon="10.5800833"><ele>45.0</ele><time>2026-04-04T15:31:06.975Z</time></trkpt><trkpt lat="44.7168033" lon="10.580305"><ele>45.0</ele><time>2026-04-04T15:31:07.974Z</time></trkpt><trkpt lat="44.7168217" lon="10.5805367"><ele>45.0</ele><time>2026-04-04T15:31:08.974Z</time></trkpt><trkpt lat="44.71684" lon="10.58077"><ele>45.0</ele><time>2026-04-04T15:31:09.974Z</time></trkpt><trkpt lat="44.7168583" lon="10.5810083"><ele>45.0</ele><time>2026-04-04T15:31:10.974Z</time></trkpt><trkpt lat="44.71688" lon="10.5812583"><ele>45.0</ele><time>2026-04-04T15:31:11.974Z</time></trkpt><trkpt lat="44.7168967" lon="10.581495"><ele>45.333333333333336</ele><time>2026-04-04T15:31:12.974Z</time></trkpt><trkpt lat="44.71691" lon="10.5817283"><ele>45.66666666666667</ele><time>2026-04-04T15:31:13.974Z</time></trkpt><trkpt lat="44.71692" lon="10.58195"><ele>46.0</ele><time>2026-04-04T15:31:14.974Z</time></trkpt><trkpt lat="44.7169267" lon="10.5821533"><ele>45.5</ele><time>2026-04-04T15:31:15.975Z</time></trkpt><trkpt lat="44.71694" lon="10.5823417"><ele>45.0</ele><time>2026-04-04T15:31:16.974Z</time></trkpt><trkpt lat="44.71695" lon="10.58253"><ele>44.5</ele><time>2026-04-04T15:31:17.974Z</time></trkpt><trkpt lat="44.7169533" lon="10.5827117"><ele>44.0</ele><time>2026-04-04T15:31:18.974Z</time></trkpt><trkpt lat="44.7169633" lon="10.58291"><ele>44.0</ele><time>2026-04-04T15:31:19.974Z</time></trkpt><trkpt lat="44.7169767" lon="10.5831133"><ele>44.0</ele><time>2026-04-04T15:31:20.974Z</time></trkpt><trkpt lat="44.7169933" lon="10.5833467"><ele>44.0</ele><time>2026-04-04T15:31:21.974Z</time></trkpt><trkpt lat="44.7170117" lon="10.5836067"><ele>43.33333333333333</ele><time>2026-04-04T15:31:22.974Z</time></trkpt><trkpt lat="44.7170233" lon="10.583875"><ele>42.666666666666664</ele><time>2026-04-04T15:31:23.975Z</time></trkpt><trkpt lat="44.7170367" lon="10.58414"><ele>42.0</ele><time>2026-04-04T15:31:24.974Z</time></trkpt><trkpt lat="44.7170467" lon="10.584415"><ele>42.333333333333336</ele><time>2026-04-04T15:31:25.974Z</time></trkpt><trkpt lat="44.7170633" lon="10.5847"><ele>42.66666666666667</ele><time>2026-04-04T15:31:26.974Z</time></trkpt><trkpt lat="44.7170783" lon="10.5849867"><ele>43.0</ele><time>2026-04-04T15:31:27.974Z</time></trkpt><trkpt lat="44.71709" lon="10.5852733"><ele>42.333333333333336</ele><time>2026-04-04T15:31:28.975Z</time></trkpt><trkpt lat="44.7171067" lon="10.5855583"><ele>41.666666666666664</ele><time>2026-04-04T15:31:29.975Z</time></trkpt><trkpt lat="44.7171233" lon="10.5858467"><ele>41.0</ele><time>2026-04-04T15:31:30.975Z</time></trkpt><trkpt lat="44.7171417" lon="10.586125"><ele>40.666666666666664</ele><time>2026-04-04T15:31:31.975Z</time></trkpt><trkpt lat="44.7171583" lon="10.5863967"><ele>40.333333333333336</ele><time>2026-04-04T15:31:32.974Z</time></trkpt><trkpt lat="44.7171667" lon="10.58664"><ele>40.0</ele><time>2026-04-04T15:31:33.974Z</time></trkpt><trkpt lat="44.7171767" lon="10.5868717"><ele>41.0</ele><time>2026-04-04T15:31:34.975Z</time></trkpt><trkpt lat="44.71719" lon="10.5871033"><ele>42.0</ele><time>2026-04-04T15:31:35.974Z</time></trkpt><trkpt lat="44.71719" lon="10.58734"><ele>43.0</ele><time>2026-04-04T15:31:36.975Z</time></trkpt><trkpt lat="44.7171867" lon="10.5875783"><ele>43.0</ele><time>2026-04-04T15:31:37.975Z</time></trkpt><trkpt lat="44.7171817" lon="10.587825"><ele>43.0</ele><time>2026-04-04T15:31:38.974Z</time></trkpt><trkpt lat="44.7171617" lon="10.5880833"><ele>43.0</ele><time>2026-04-04T15:31:39.974Z</time></trkpt><trkpt lat="44.7171383" lon="10.588345"><ele>43.0</ele><time>2026-04-04T15:31:40.975Z</time></trkpt><trkpt lat="44.717105" lon="10.58862"><ele>43.0</ele><time>2026-04-04T15:31:41.974Z</time></trkpt><trkpt lat="44.71706" lon="10.5889033"><ele>43.0</ele><time>2026-04-04T15:31:42.974Z</time></trkpt><trkpt lat="44.7170083" lon="10.5891783"><ele>43.0</ele><time>2026-04-04T15:31:43.974Z</time></trkpt><trkpt lat="44.716945" lon="10.5894633"><ele>43.0</ele><time>2026-04-04T15:31:44.974Z</time></trkpt><trkpt lat="44.7168683" lon="10.58974"><ele>43.0</ele><time>2026-04-04T15:31:45.975Z</time></trkpt><trkpt lat="44.7167783" lon="10.590015"><ele>43.0</ele><time>2026-04-04T15:31:46.974Z</time></trkpt><trkpt lat="44.71668" lon="10.5902833"><ele>43.0</ele><time>2026-04-04T15:31:47.974Z</time></trkpt><trkpt lat="44.716585" lon="10.5905517"><ele>43.0</ele><time>2026-04-04T15:31:48.974Z</time></trkpt><trkpt lat="44.716485" lon="10.59082"><ele>43.333333333333336</ele><time>2026-04-04T15:31:49.974Z</time></trkpt><trkpt lat="44.7163867" lon="10.5910767"><ele>43.666666666666664</ele><time>2026-04-04T15:31:50.975Z</time></trkpt><trkpt lat="44.7162883" lon="10.591345"><ele>44.0</ele><time>2026-04-04T15:31:51.974Z</time></trkpt><trkpt lat="44.7161883" lon="10.5916183"><ele>44.0</ele><time>2026-04-04T15:31:52.975Z</time></trkpt><trkpt lat="44.7160917" lon="10.5918817"><ele>44.0</ele><time>2026-04-04T15:31:53.974Z</time></trkpt><trkpt lat="44.7159983" lon="10.59213"><ele>44.0</ele><time>2026-04-04T15:31:54.974Z</time></trkpt><trkpt lat="44.7158967" lon="10.5923883"><ele>44.0</ele><time>2026-04-04T15:31:55.974Z</time></trkpt><trkpt lat="44.7157983" lon="10.5926583"><ele>44.0</ele><time>2026-04-04T15:31:56.974Z</time></trkpt><trkpt lat="44.715695" lon="10.59293"><ele>44.0</ele><time>2026-04-04T15:31:57.974Z</time></trkpt><trkpt lat="44.71559" lon="10.593205"><ele>43.33333333333333</ele><time>2026-04-04T15:31:58.974Z</time></trkpt><trkpt lat="44.7154833" lon="10.5934783"><ele>42.666666666666664</ele><time>2026-04-04T15:31:59.975Z</time></trkpt><trkpt lat="44.7153783" lon="10.593755"><ele>42.0</ele><time>2026-04-04T15:32:00.975Z</time></trkpt><trkpt lat="44.7152717" lon="10.5940233"><ele>43.0</ele><time>2026-04-04T15:32:01.974Z</time></trkpt><trkpt lat="44.71517" lon="10.594285"><ele>44.0</ele><time>2026-04-04T15:32:02.974Z</time></trkpt><trkpt lat="44.7150717" lon="10.59454"><ele>45.0</ele><time>2026-04-04T15:32:03.975Z</time></trkpt><trkpt lat="44.714975" lon="10.594805"><ele>45.0</ele><time>2026-04-04T15:32:04.974Z</time></trkpt><trkpt lat="44.7148767" lon="10.595065"><ele>45.0</ele><time>2026-04-04T15:32:05.974Z</time></trkpt><trkpt lat="44.7147783" lon="10.595325"><ele>45.0</ele><time>2026-04-04T15:32:06.974Z</time></trkpt><trkpt lat="44.71468" lon="10.5955717"><ele>45.0</ele><time>2026-04-04T15:32:07.974Z</time></trkpt><trkpt lat="44.71458" lon="10.5958333"><ele>45.0</ele><time>2026-04-04T15:32:08.974Z</time></trkpt><trkpt lat="44.7144833" lon="10.5960883"><ele>45.0</ele><time>2026-04-04T15:32:09.974Z</time></trkpt><trkpt lat="44.7143917" lon="10.5963283"><ele>45.0</ele><time>2026-04-04T15:32:10.974Z</time></trkpt><trkpt lat="44.7142983" lon="10.59656"><ele>45.0</ele><time>2026-04-04T15:32:11.975Z</time></trkpt><trkpt lat="44.7142167" lon="10.596785"><ele>45.0</ele><time>2026-04-04T15:32:12.975Z</time></trkpt><trkpt lat="44.7141333" lon="10.5970067"><ele>44.666666666666664</ele><time>2026-04-04T15:32:13.974Z</time></trkpt><trkpt lat="44.7140467" lon="10.5972433"><ele>44.33333333333333</ele><time>2026-04-04T15:32:14.974Z</time></trkpt><trkpt lat="44.7139617" lon="10.5974883"><ele>44.0</ele><time>2026-04-04T15:32:15.974Z</time></trkpt><trkpt lat="44.7138617" lon="10.597735"><ele>44.0</ele><time>2026-04-04T15:32:16.974Z</time></trkpt><trkpt lat="44.71378" lon="10.5979733"><ele>44.0</ele><time>2026-04-04T15:32:17.975Z</time></trkpt><trkpt lat="44.7137033" lon="10.5981817"><ele>44.0</ele><time>2026-04-04T15:32:18.974Z</time></trkpt><trkpt lat="44.7136283" lon="10.59839"><ele>44.0</ele><time>2026-04-04T15:32:19.975Z</time></trkpt><trkpt lat="44.7135617" lon="10.5985733"><ele>44.0</ele><time>2026-04-04T15:32:20.974Z</time></trkpt><trkpt lat="44.7135067" lon="10.5987433"><ele>44.0</ele><time>2026-04-04T15:32:21.974Z</time></trkpt><trkpt lat="44.7134583" lon="10.5988867"><ele>44.0</ele><time>2026-04-04T15:32:22.974Z</time></trkpt><trkpt lat="44.7134167" lon="10.5990217"><ele>44.33333333333333</ele><time>2026-04-04T15:32:23.974Z</time></trkpt><trkpt lat="44.7133833" lon="10.5991317"><ele>44.666666666666664</ele><time>2026-04-04T15:32:24.974Z</time></trkpt><trkpt lat="44.7133517" lon="10.5992333"><ele>45.0</ele><time>2026-04-04T15:32:25.974Z</time></trkpt><trkpt lat="44.7133183" lon="10.5993167"><ele>45.333333333333336</ele><time>2026-04-04T15:32:26.974Z</time></trkpt><trkpt lat="44.7132733" lon="10.5993933"><ele>45.66666666666667</ele><time>2026-04-04T15:32:27.974Z</time></trkpt><trkpt lat="44.713225" lon="10.5994733"><ele>46.0</ele><time>2026-04-04T15:32:28.975Z</time></trkpt><trkpt lat="44.7131917" lon="10.5995667"><ele>46.199999999999996</ele><time>2026-04-04T15:32:29.974Z</time></trkpt><trkpt lat="44.7131733" lon="10.5996833"><ele>46.4</ele><time>2026-04-04T15:32:30.974Z</time></trkpt><trkpt lat="44.71316" lon="10.599825"><ele>46.6</ele><time>2026-04-04T15:32:31.974Z</time></trkpt><trkpt lat="44.7131383" lon="10.59998"><ele>46.8</ele><time>2026-04-04T15:32:32.975Z</time></trkpt><trkpt lat="44.713115" lon="10.60016"><ele>47.0</ele><time>2026-04-04T15:32:33.974Z</time></trkpt><trkpt lat="44.7130767" lon="10.6003567"><ele>47.0</ele><time>2026-04-04T15:32:34.974Z</time></trkpt><trkpt lat="44.713035" lon="10.6005583"><ele>47.0</ele><time>2026-04-04T15:32:35.974Z</time></trkpt><trkpt lat="44.712995" lon="10.600765"><ele>47.0</ele><time>2026-04-04T15:32:36.974Z</time></trkpt><trkpt lat="44.7129483" lon="10.6009833"><ele>47.0</ele><time>2026-04-04T15:32:37.974Z</time></trkpt><trkpt lat="44.71289" lon="10.601205"><ele>47.0</ele><time>2026-04-04T15:32:38.975Z</time></trkpt><trkpt lat="44.7128317" lon="10.601435"><ele>47.0</ele><time>2026-04-04T15:32:39.974Z</time></trkpt><trkpt lat="44.71277" lon="10.6016717"><ele>47.0</ele><time>2026-04-04T15:32:40.974Z</time></trkpt><trkpt lat="44.71271" lon="10.6019117"><ele>47.0</ele><time>2026-04-04T15:32:41.974Z</time></trkpt><trkpt lat="44.7126483" lon="10.6021583"><ele>47.0</ele><time>2026-04-04T15:32:42.974Z</time></trkpt><trkpt lat="44.7125917" lon="10.602405"><ele>46.666666666666664</ele><time>2026-04-04T15:32:43.975Z</time></trkpt><trkpt lat="44.7125367" lon="10.6026317"><ele>46.333333333333336</ele><time>2026-04-04T15:32:44.975Z</time></trkpt><trkpt lat="44.7124917" lon="10.602845"><ele>46.0</ele><time>2026-04-04T15:32:45.974Z</time></trkpt><trkpt lat="44.7124433" lon="10.6030383"><ele>46.0</ele><time>2026-04-04T15:32:46.974Z</time></trkpt><trkpt lat="44.7124033" lon="10.6032183"><ele>46.0</ele><time>2026-04-04T15:32:47.975Z</time></trkpt><trkpt lat="44.712365" lon="10.6033983"><ele>46.0</ele><time>2026-04-04T15:32:48.975Z</time></trkpt><trkpt lat="44.712335" lon="10.603585"><ele>46.0</ele><time>2026-04-04T15:32:49.974Z</time></trkpt><trkpt lat="44.71231" lon="10.6037633"><ele>45.5</ele><time>2026-04-04T15:32:50.974Z</time></trkpt><trkpt lat="44.7122783" lon="10.60395"><ele>45.0</ele><time>2026-04-04T15:32:51.974Z</time></trkpt><trkpt lat="44.7122583" lon="10.604135"><ele>44.5</ele><time>2026-04-04T15:32:52.974Z</time></trkpt><trkpt lat="44.712235" lon="10.6043133"><ele>44.0</ele><time>2026-04-04T15:32:53.974Z</time></trkpt><trkpt lat="44.7122183" lon="10.6044783"><ele>44.0</ele><time>2026-04-04T15:32:54.974Z</time></trkpt><trkpt lat="44.7121983" lon="10.60463"><ele>44.0</ele><time>2026-04-04T15:32:55.975Z</time></trkpt><trkpt lat="44.7121817" lon="10.604785"><ele>44.0</ele><time>2026-04-04T15:32:56.974Z</time></trkpt><trkpt lat="44.7121733" lon="10.6049183"><ele>44.0</ele><time>2026-04-04T15:32:57.974Z</time></trkpt><trkpt lat="44.7121633" lon="10.6050317"><ele>44.0</ele><time>2026-04-04T15:32:58.974Z</time></trkpt><trkpt lat="44.71215" lon="10.6051483"><ele>44.0</ele><time>2026-04-04T15:32:59.974Z</time></trkpt><trkpt lat="44.712135" lon="10.6052417"><ele>44.0</ele><time>2026-04-04T15:33:00.974Z</time></trkpt><trkpt lat="44.7121183" lon="10.6053433"><ele>44.0</ele><time>2026-04-04T15:33:02.974Z</time></trkpt><trkpt lat="44.7120867" lon="10.6054717"><ele>44.0</ele><time>2026-04-04T15:33:06.974Z</time></trkpt><trkpt lat="44.712025" lon="10.60558"><ele>44.0</ele><time>2026-04-04T15:33:08.974Z</time></trkpt><trkpt lat="44.7119817" lon="10.6056917"><ele>44.0</ele><time>2026-04-04T15:33:10.975Z</time></trkpt><trkpt lat="44.7120133" lon="10.6058483"><ele>44.5</ele><time>2026-04-04T15:33:12.974Z</time></trkpt><trkpt lat="44.7120717" lon="10.605905"><ele>45.0</ele><time>2026-04-04T15:33:13.974Z</time></trkpt><trkpt lat="44.7121833" lon="10.60594"><ele>45.5</ele><time>2026-04-04T15:33:14.974Z</time></trkpt><trkpt lat="44.71233" lon="10.6059617"><ele>46.0</ele><time>2026-04-04T15:33:15.974Z</time></trkpt><trkpt lat="44.7125" lon="10.6060017"><ele>46.0</ele><time>2026-04-04T15:33:16.974Z</time></trkpt><trkpt lat="44.7126467" lon="10.6060467"><ele>46.0</ele><time>2026-04-04T15:33:17.975Z</time></trkpt><trkpt lat="44.7127867" lon="10.6060733"><ele>46.0</ele><time>2026-04-04T15:33:18.974Z</time></trkpt><trkpt lat="44.7129067" lon="10.606095"><ele>46.0</ele><time>2026-04-04T15:33:19.974Z</time></trkpt><trkpt lat="44.7130167" lon="10.6061483"><ele>46.5</ele><time>2026-04-04T15:33:20.975Z</time></trkpt><trkpt lat="44.7131" lon="10.6062317"><ele>47.0</ele><time>2026-04-04T15:33:21.974Z</time></trkpt><trkpt lat="44.7131633" lon="10.6063433"><ele>47.5</ele><time>2026-04-04T15:33:22.974Z</time></trkpt><trkpt lat="44.7132117" lon="10.6064983"><ele>48.0</ele><time>2026-04-04T15:33:23.974Z</time></trkpt><trkpt lat="44.71323" lon="10.6066833"><ele>46.5</ele><time>2026-04-04T15:33:24.974Z</time></trkpt><trkpt lat="44.7131817" lon="10.6071167"><ele>45.0</ele><time>2026-04-04T15:33:26.974Z</time></trkpt><trkpt lat="44.7131533" lon="10.6073283"><ele>45.0</ele><time>2026-04-04T15:33:27.974Z</time></trkpt><trkpt lat="44.7131267" lon="10.6075083"><ele>45.0</ele><time>2026-04-04T15:33:28.974Z</time></trkpt><trkpt lat="44.7131067" lon="10.607665"><ele>45.0</ele><time>2026-04-04T15:33:29.975Z</time></trkpt><trkpt lat="44.7130783" lon="10.6077883"><ele>45.0</ele><time>2026-04-04T15:33:30.974Z</time></trkpt><trkpt lat="44.7130517" lon="10.6078933"><ele>45.0</ele><time>2026-04-04T15:33:31.974Z</time></trkpt><trkpt lat="44.7130217" lon="10.6079883"><ele>45.0</ele><time>2026-04-04T15:33:32.974Z</time></trkpt><trkpt lat="44.7129817" lon="10.60807"><ele>45.0</ele><time>2026-04-04T15:33:33.975Z</time></trkpt><trkpt lat="44.7129433" lon="10.60816"><ele>45.0</ele><time>2026-04-04T15:33:34.974Z</time></trkpt><trkpt lat="44.7129417" lon="10.6082567"><ele>45.0</ele><time>2026-04-04T15:33:35.974Z</time></trkpt><trkpt lat="44.7129667" lon="10.6083383"><ele>45.0</ele><time>2026-04-04T15:33:36.974Z</time></trkpt><trkpt lat="44.71303" lon="10.6083983"><ele>45.0</ele><time>2026-04-04T15:33:37.975Z</time></trkpt><trkpt lat="44.7131333" lon="10.6084233"><ele>45.0</ele><time>2026-04-04T15:33:38.974Z</time></trkpt><trkpt lat="44.713275" lon="10.608425"><ele>45.0</ele><time>2026-04-04T15:33:39.975Z</time></trkpt><trkpt lat="44.7134433" lon="10.60846"><ele>45.0</ele><time>2026-04-04T15:33:40.975Z</time></trkpt><trkpt lat="44.7135983" lon="10.608505"><ele>44.666666666666664</ele><time>2026-04-04T15:33:41.974Z</time></trkpt><trkpt lat="44.713755" lon="10.6085483"><ele>44.33333333333333</ele><time>2026-04-04T15:33:42.974Z</time></trkpt><trkpt lat="44.71393" lon="10.6085883"><ele>44.0</ele><time>2026-04-04T15:33:43.975Z</time></trkpt><trkpt lat="44.714105" lon="10.6086217"><ele>44.0</ele><time>2026-04-04T15:33:44.974Z</time></trkpt><trkpt lat="44.71429" lon="10.60866"><ele>44.0</ele><time>2026-04-04T15:33:45.974Z</time></trkpt><trkpt lat="44.714475" lon="10.608695"><ele>44.0</ele><time>2026-04-04T15:33:46.974Z</time></trkpt><trkpt lat="44.7146667" lon="10.6087383"><ele>44.0</ele><time>2026-04-04T15:33:47.974Z</time></trkpt><trkpt lat="44.71487" lon="10.608795"><ele>44.0</ele><time>2026-04-04T15:33:48.975Z</time></trkpt><trkpt lat="44.7150567" lon="10.6088483"><ele>44.0</ele><time>2026-04-04T15:33:49.974Z</time></trkpt><trkpt lat="44.7152317" lon="10.608885"><ele>44.0</ele><time>2026-04-04T15:33:50.974Z</time></trkpt><trkpt lat="44.7153917" lon="10.60893"><ele>44.0</ele><time>2026-04-04T15:33:51.974Z</time></trkpt><trkpt lat="44.71555" lon="10.6089717"><ele>44.0</ele><time>2026-04-04T15:33:52.974Z</time></trkpt><trkpt lat="44.7156883" lon="10.6090117"><ele>44.0</ele><time>2026-04-04T15:33:53.974Z</time></trkpt><trkpt lat="44.715815" lon="10.6090617"><ele>44.0</ele><time>2026-04-04T15:33:54.974Z</time></trkpt><trkpt lat="44.715945" lon="10.6091383"><ele>44.0</ele><time>2026-04-04T15:33:55.974Z</time></trkpt><trkpt lat="44.7160883" lon="10.60923"><ele>44.0</ele><time>2026-04-04T15:33:56.974Z</time></trkpt><trkpt lat="44.716235" lon="10.6093083"><ele>43.33333333333333</ele><time>2026-04-04T15:33:57.975Z</time></trkpt><trkpt lat="44.7163967" lon="10.6093517"><ele>42.666666666666664</ele><time>2026-04-04T15:33:58.974Z</time></trkpt><trkpt lat="44.7165817" lon="10.60939"><ele>42.0</ele><time>2026-04-04T15:33:59.974Z</time></trkpt><trkpt lat="44.716775" lon="10.60945"><ele>42.666666666666664</ele><time>2026-04-04T15:34:00.974Z</time></trkpt><trkpt lat="44.7169683" lon="10.6095283"><ele>43.33333333333333</ele><time>2026-04-04T15:34:01.974Z</time></trkpt><trkpt lat="44.71717" lon="10.609625"><ele>44.0</ele><time>2026-04-04T15:34:02.974Z</time></trkpt><trkpt lat="44.7173733" lon="10.6097133"><ele>44.0</ele><time>2026-04-04T15:34:03.974Z</time></trkpt><trkpt lat="44.71757" lon="10.6098"><ele>44.0</ele><time>2026-04-04T15:34:04.974Z</time></trkpt><trkpt lat="44.71777" lon="10.6098833"><ele>44.0</ele><time>2026-04-04T15:34:05.974Z</time></trkpt><trkpt lat="44.7179683" lon="10.6099633"><ele>43.666666666666664</ele><time>2026-04-04T15:34:06.974Z</time></trkpt><trkpt lat="44.7181717" lon="10.610055"><ele>43.333333333333336</ele><time>2026-04-04T15:34:07.974Z</time></trkpt><trkpt lat="44.7183683" lon="10.61014"><ele>43.0</ele><time>2026-04-04T15:34:08.975Z</time></trkpt><trkpt lat="44.7185617" lon="10.61022"><ele>42.333333333333336</ele><time>2026-04-04T15:34:09.974Z</time></trkpt><trkpt lat="44.71874" lon="10.6102867"><ele>41.666666666666664</ele><time>2026-04-04T15:34:10.974Z</time></trkpt><trkpt lat="44.7189083" lon="10.6103567"><ele>41.0</ele><time>2026-04-04T15:34:11.974Z</time></trkpt><trkpt lat="44.7190667" lon="10.6104167"><ele>41.0</ele><time>2026-04-04T15:34:12.974Z</time></trkpt><trkpt lat="44.7192167" lon="10.6104767"><ele>41.0</ele><time>2026-04-04T15:34:13.975Z</time></trkpt><trkpt lat="44.7193533" lon="10.610535"><ele>41.0</ele><time>2026-04-04T15:34:14.974Z</time></trkpt><trkpt lat="44.7194783" lon="10.6105933"><ele>41.0</ele><time>2026-04-04T15:34:15.974Z</time></trkpt><trkpt lat="44.719595" lon="10.6106483"><ele>41.199999999999996</ele><time>2026-04-04T15:34:16.975Z</time></trkpt><trkpt lat="44.719705" lon="10.6107067"><ele>41.4</ele><time>2026-04-04T15:34:17.974Z</time></trkpt><trkpt lat="44.7198033" lon="10.6107883"><ele>41.6</ele><time>2026-04-04T15:34:18.974Z</time></trkpt><trkpt lat="44.7198833" lon="10.6108733"><ele>41.8</ele><time>2026-04-04T15:34:19.974Z</time></trkpt><trkpt lat="44.7199817" lon="10.61094"><ele>42.0</ele><time>2026-04-04T15:34:20.975Z</time></trkpt><trkpt lat="44.7200967" lon="10.6109583"><ele>42.0</ele><time>2026-04-04T15:34:21.974Z</time></trkpt><trkpt lat="44.7202283" lon="10.61096"><ele>42.0</ele><time>2026-04-04T15:34:22.974Z</time></trkpt><trkpt lat="44.72036" lon="10.6109883"><ele>42.0</ele><time>2026-04-04T15:34:23.974Z</time></trkpt><trkpt lat="44.7204867" lon="10.6110317"><ele>42.0</ele><time>2026-04-04T15:34:24.974Z</time></trkpt><trkpt lat="44.720595" lon="10.6110733"><ele>42.25</ele><time>2026-04-04T15:34:25.975Z</time></trkpt><trkpt lat="44.7206967" lon="10.6111117"><ele>42.5</ele><time>2026-04-04T15:34:26.974Z</time></trkpt><trkpt lat="44.7208117" lon="10.61116"><ele>42.75</ele><time>2026-04-04T15:34:27.975Z</time></trkpt><trkpt lat="44.7209483" lon="10.6112167"><ele>43.0</ele><time>2026-04-04T15:34:28.974Z</time></trkpt><trkpt lat="44.7210883" lon="10.6112783"><ele>43.5</ele><time>2026-04-04T15:34:29.974Z</time></trkpt><trkpt lat="44.7212267" lon="10.61132"><ele>44.0</ele><time>2026-04-04T15:34:30.975Z</time></trkpt><trkpt lat="44.721345" lon="10.6113667"><ele>44.5</ele><time>2026-04-04T15:34:31.974Z</time></trkpt><trkpt lat="44.7214417" lon="10.6114133"><ele>45.0</ele><time>2026-04-04T15:34:32.974Z</time></trkpt><trkpt lat="44.7215317" lon="10.61146"><ele>45.0</ele><time>2026-04-04T15:34:33.974Z</time></trkpt><trkpt lat="44.7216017" lon="10.61149"><ele>45.0</ele><time>2026-04-04T15:34:34.974Z</time></trkpt><trkpt lat="44.72166" lon="10.611535"><ele>45.0</ele><time>2026-04-04T15:34:35.974Z</time></trkpt><trkpt lat="44.7217383" lon="10.61168"><ele>45.0</ele><time>2026-04-04T15:34:37.975Z</time></trkpt><trkpt lat="44.7217417" lon="10.61178"><ele>45.0</ele><time>2026-04-04T15:34:38.975Z</time></trkpt><trkpt lat="44.7217233" lon="10.611885"><ele>45.0</ele><time>2026-04-04T15:34:39.975Z</time></trkpt><trkpt lat="44.7216867" lon="10.6119833"><ele>45.0</ele><time>2026-04-04T15:34:40.975Z</time></trkpt><trkpt lat="44.7216233" lon="10.61208"><ele>45.0</ele><time>2026-04-04T15:34:41.974Z</time></trkpt><trkpt lat="44.721555" lon="10.6121617"><ele>45.0</ele><time>2026-04-04T15:34:42.975Z</time></trkpt><trkpt lat="44.7214833" lon="10.6122483"><ele>45.0</ele><time>2026-04-04T15:34:43.974Z</time></trkpt><trkpt lat="44.7214033" lon="10.6123267"><ele>45.0</ele><time>2026-04-04T15:34:44.975Z</time></trkpt><trkpt lat="44.7213283" lon="10.6124083"><ele>45.0</ele><time>2026-04-04T15:34:45.975Z</time></trkpt><trkpt lat="44.721255" lon="10.612495"><ele>45.0</ele><time>2026-04-04T15:34:46.975Z</time></trkpt><trkpt lat="44.721175" lon="10.6125717"><ele>45.0</ele><time>2026-04-04T15:34:47.975Z</time></trkpt><trkpt lat="44.7210933" lon="10.612665"><ele>45.0</ele><time>2026-04-04T15:34:48.974Z</time></trkpt><trkpt lat="44.72101" lon="10.61277"><ele>45.0</ele><time>2026-04-04T15:34:49.974Z</time></trkpt><trkpt lat="44.720925" lon="10.612885"><ele>45.0</ele><time>2026-04-04T15:34:50.974Z</time></trkpt><trkpt lat="44.7208433" lon="10.6129883"><ele>45.0</ele><time>2026-04-04T15:34:51.974Z</time></trkpt><trkpt lat="44.7207533" lon="10.6131167"><ele>45.0</ele><time>2026-04-04T15:34:52.974Z</time></trkpt><trkpt lat="44.7206617" lon="10.6132633"><ele>45.0</ele><time>2026-04-04T15:34:53.974Z</time></trkpt><trkpt lat="44.7205717" lon="10.6134067"><ele>45.0</ele><time>2026-04-04T15:34:54.974Z</time></trkpt><trkpt lat="44.72048" lon="10.61354"><ele>45.0</ele><time>2026-04-04T15:34:55.975Z</time></trkpt><trkpt lat="44.72039" lon="10.613685"><ele>45.0</ele><time>2026-04-04T15:34:56.975Z</time></trkpt><trkpt lat="44.7203083" lon="10.6138183"><ele>45.0</ele><time>2026-04-04T15:34:57.974Z</time></trkpt><trkpt lat="44.7202317" lon="10.6139417"><ele>45.0</ele><time>2026-04-04T15:34:58.974Z</time></trkpt><trkpt lat="44.720145" lon="10.61407"><ele>45.0</ele><time>2026-04-04T15:34:59.974Z</time></trkpt><trkpt lat="44.72007" lon="10.6142067"><ele>45.0</ele><time>2026-04-04T15:35:00.975Z</time></trkpt><trkpt lat="44.7200233" lon="10.61437"><ele>45.0</ele><time>2026-04-04T15:35:01.974Z</time></trkpt><trkpt lat="44.7199933" lon="10.6145367"><ele>45.333333333333336</ele><time>2026-04-04T15:35:02.974Z</time></trkpt><trkpt lat="44.71997" lon="10.6146917"><ele>45.666666666666664</ele><time>2026-04-04T15:35:03.975Z</time></trkpt><trkpt lat="44.719955" lon="10.614815"><ele>46.0</ele><time>2026-04-04T15:35:04.975Z</time></trkpt><trkpt lat="44.7199483" lon="10.6149217"><ele>46.33333333333333</ele><time>2026-04-04T15:35:05.974Z</time></trkpt><trkpt lat="44.7199317" lon="10.6150133"><ele>46.666666666666664</ele><time>2026-04-04T15:35:06.975Z</time></trkpt><trkpt lat="44.7199183" lon="10.615105"><ele>47.0</ele><time>2026-04-04T15:35:07.975Z</time></trkpt><trkpt lat="44.7199417" lon="10.615255"><ele>47.25</ele><time>2026-04-04T15:35:09.975Z</time></trkpt><trkpt lat="44.720015" lon="10.6153733"><ele>47.5</ele><time>2026-04-04T15:35:11.974Z</time></trkpt><trkpt lat="44.7201117" lon="10.61551"><ele>47.75</ele><time>2026-04-04T15:35:13.975Z</time></trkpt><trkpt lat="44.7201617" lon="10.6156217"><ele>48.0</ele><time>2026-04-04T15:35:14.974Z</time></trkpt><trkpt lat="44.72021" lon="10.6157783"><ele>47.333333333333336</ele><time>2026-04-04T15:35:15.974Z</time></trkpt><trkpt lat="44.72026" lon="10.6159567"><ele>46.66666666666667</ele><time>2026-04-04T15:35:16.974Z</time></trkpt><trkpt lat="44.7203117" lon="10.61617"><ele>46.0</ele><time>2026-04-04T15:35:17.975Z</time></trkpt><trkpt lat="44.720355" lon="10.6164167"><ele>46.0</ele><time>2026-04-04T15:35:18.975Z</time></trkpt><trkpt lat="44.72041" lon="10.6166583"><ele>46.0</ele><time>2026-04-04T15:35:19.975Z</time></trkpt><trkpt lat="44.7204633" lon="10.6169033"><ele>46.0</ele><time>2026-04-04T15:35:20.974Z</time></trkpt><trkpt lat="44.7205217" lon="10.617145"><ele>46.0</ele><time>2026-04-04T15:35:21.974Z</time></trkpt><trkpt lat="44.7205767" lon="10.6173867"><ele>46.0</ele><time>2026-04-04T15:35:22.975Z</time></trkpt><trkpt lat="44.7206367" lon="10.61763"><ele>46.0</ele><time>2026-04-04T15:35:23.975Z</time></trkpt><trkpt lat="44.720695" lon="10.6178733"><ele>47.0</ele><time>2026-04-04T15:35:24.975Z</time></trkpt><trkpt lat="44.7207483" lon="10.6181167"><ele>48.0</ele><time>2026-04-04T15:35:25.975Z</time></trkpt><trkpt lat="44.7208067" lon="10.6183583"><ele>49.0</ele><time>2026-04-04T15:35:26.974Z</time></trkpt><trkpt lat="44.7208567" lon="10.6185933"><ele>48.666666666666664</ele><time>2026-04-04T15:35:27.974Z</time></trkpt><trkpt lat="44.720915" lon="10.6188267"><ele>48.33333333333333</ele><time>2026-04-04T15:35:28.975Z</time></trkpt><trkpt lat="44.7209783" lon="10.6190533"><ele>48.0</ele><time>2026-04-04T15:35:29.975Z</time></trkpt><trkpt lat="44.7210267" lon="10.61927"><ele>47.5</ele><time>2026-04-04T15:35:30.974Z</time></trkpt><trkpt lat="44.721075" lon="10.6194783"><ele>47.0</ele><time>2026-04-04T15:35:31.975Z</time></trkpt><trkpt lat="44.72111" lon="10.6196633"><ele>46.5</ele><time>2026-04-04T15:35:32.974Z</time></trkpt><trkpt lat="44.7211433" lon="10.619835"><ele>46.0</ele><time>2026-04-04T15:35:33.974Z</time></trkpt><trkpt lat="44.721165" lon="10.6199733"><ele>45.833333333333336</ele><time>2026-04-04T15:35:34.974Z</time></trkpt><trkpt lat="44.7211833" lon="10.6200883"><ele>45.66666666666667</ele><time>2026-04-04T15:35:35.974Z</time></trkpt><trkpt lat="44.7211867" lon="10.6202"><ele>45.5</ele><time>2026-04-04T15:35:36.975Z</time></trkpt><trkpt lat="44.72117" lon="10.620295"><ele>45.333333333333336</ele><time>2026-04-04T15:35:37.974Z</time></trkpt><trkpt lat="44.7211367" lon="10.6204"><ele>45.166666666666664</ele><time>2026-04-04T15:35:38.975Z</time></trkpt><trkpt lat="44.7210983" lon="10.620505"><ele>45.0</ele><time>2026-04-04T15:35:39.974Z</time></trkpt><trkpt lat="44.7210433" lon="10.620595"><ele>45.666666666666664</ele><time>2026-04-04T15:35:40.974Z</time></trkpt><trkpt lat="44.72099" lon="10.62068"><ele>46.33333333333333</ele><time>2026-04-04T15:35:41.975Z</time></trkpt><trkpt lat="44.72093" lon="10.6207617"><ele>47.0</ele><time>2026-04-04T15:35:42.974Z</time></trkpt><trkpt lat="44.720885" lon="10.6208317"><ele>47.666666666666664</ele><time>2026-04-04T15:35:43.974Z</time></trkpt><trkpt lat="44.720835" lon="10.6208883"><ele>48.33333333333333</ele><time>2026-04-04T15:35:44.975Z</time></trkpt><trkpt lat="44.7207683" lon="10.6209917"><ele>49.0</ele><time>2026-04-04T15:35:46.974Z</time></trkpt><trkpt lat="44.72079" lon="10.6211183"><ele>48.99999999999999</ele><time>2026-04-04T15:35:48.974Z</time></trkpt><trkpt lat="44.7208867" lon="10.6211767"><ele>49.0</ele><time>2026-04-04T15:35:50.975Z</time></trkpt><trkpt lat="44.72095" lon="10.6211533"><ele>49.0</ele><time>2026-04-04T15:35:51.974Z</time></trkpt><trkpt lat="44.721015" lon="10.6210917"><ele>49.0</ele><time>2026-04-04T15:35:52.975Z</time></trkpt><trkpt lat="44.721095" lon="10.6210233"><ele>48.99999999999999</ele><time>2026-04-04T15:35:53.974Z</time></trkpt><trkpt lat="44.72118" lon="10.62097"><ele>49.0</ele><time>2026-04-04T15:35:54.975Z</time></trkpt><trkpt lat="44.7212617" lon="10.62093"><ele>48.6</ele><time>2026-04-04T15:35:55.974Z</time></trkpt><trkpt lat="44.721345" lon="10.6208917"><ele>48.2</ele><time>2026-04-04T15:35:56.975Z</time></trkpt><trkpt lat="44.72143" lon="10.6208567"><ele>47.800000000000004</ele><time>2026-04-04T15:35:57.975Z</time></trkpt><trkpt lat="44.72152" lon="10.6208233"><ele>47.400000000000006</ele><time>2026-04-04T15:35:58.974Z</time></trkpt><trkpt lat="44.7216133" lon="10.62079"><ele>47.0</ele><time>2026-04-04T15:35:59.974Z</time></trkpt><trkpt lat="44.7217117" lon="10.62076"><ele>47.0</ele><time>2026-04-04T15:36:00.974Z</time></trkpt><trkpt lat="44.72182" lon="10.6207267"><ele>47.0</ele><time>2026-04-04T15:36:01.974Z</time></trkpt><trkpt lat="44.72194" lon="10.6206817"><ele>47.0</ele><time>2026-04-04T15:36:02.975Z</time></trkpt><trkpt lat="44.72207" lon="10.6206167"><ele>47.0</ele><time>2026-04-04T15:36:03.974Z</time></trkpt><trkpt lat="44.7222167" lon="10.6205533"><ele>46.666666666666664</ele><time>2026-04-04T15:36:04.974Z</time></trkpt><trkpt lat="44.7223933" lon="10.6204933"><ele>46.333333333333336</ele><time>2026-04-04T15:36:05.975Z</time></trkpt><trkpt lat="44.7225567" lon="10.6204417"><ele>46.0</ele><time>2026-04-04T15:36:06.975Z</time></trkpt><trkpt lat="44.7226983" lon="10.6204067"><ele>46.0</ele><time>2026-04-04T15:36:07.975Z</time></trkpt><trkpt lat="44.7228167" lon="10.6203767"><ele>46.0</ele><time>2026-04-04T15:36:08.974Z</time></trkpt><trkpt lat="44.72291" lon="10.62036"><ele>46.0</ele><time>2026-04-04T15:36:09.975Z</time></trkpt><trkpt lat="44.72298" lon="10.6203933"><ele>46.0</ele><time>2026-04-04T15:36:10.975Z</time></trkpt><trkpt lat="44.7230367" lon="10.62046"><ele>46.0</ele><time>2026-04-04T15:36:11.975Z</time></trkpt><trkpt lat="44.7231017" lon="10.62052"><ele>46.0</ele><time>2026-04-04T15:36:12.975Z</time></trkpt><trkpt lat="44.7231683" lon="10.6205333"><ele>46.0</ele><time>2026-04-04T15:36:13.975Z</time></trkpt><trkpt lat="44.7232717" lon="10.6204567"><ele>46.0</ele><time>2026-04-04T15:36:15.974Z</time></trkpt><trkpt lat="44.7233067" lon="10.6203417"><ele>46.0</ele><time>2026-04-04T15:36:16.974Z</time></trkpt><trkpt lat="44.7233583" lon="10.62023"><ele>46.0</ele><time>2026-04-04T15:36:17.974Z</time></trkpt><trkpt lat="44.7234433" lon="10.62014"><ele>46.0</ele><time>2026-04-04T15:36:18.974Z</time></trkpt><trkpt lat="44.72357" lon="10.6200633"><ele>46.0</ele><time>2026-04-04T15:36:19.974Z</time></trkpt><trkpt lat="44.7237117" lon="10.6200033"><ele>46.0</ele><time>2026-04-04T15:36:20.974Z</time></trkpt><trkpt lat="44.7238483" lon="10.61997"><ele>46.0</ele><time>2026-04-04T15:36:21.975Z</time></trkpt><trkpt lat="44.7239733" lon="10.6199167"><ele>46.0</ele><time>2026-04-04T15:36:22.974Z</time></trkpt><trkpt lat="44.724095" lon="10.6198617"><ele>46.0</ele><time>2026-04-04T15:36:23.974Z</time></trkpt><trkpt lat="44.72423" lon="10.6197917"><ele>46.0</ele><time>2026-04-04T15:36:24.975Z</time></trkpt><trkpt lat="44.724385" lon="10.6197033"><ele>46.0</ele><time>2026-04-04T15:36:25.975Z</time></trkpt><trkpt lat="44.7245617" lon="10.619615"><ele>46.0</ele><time>2026-04-04T15:36:26.974Z</time></trkpt><trkpt lat="44.7247267" lon="10.6195317"><ele>46.0</ele><time>2026-04-04T15:36:27.975Z</time></trkpt><trkpt lat="44.7248867" lon="10.6194633"><ele>46.0</ele><time>2026-04-04T15:36:28.974Z</time></trkpt><trkpt lat="44.7250167" lon="10.619415"><ele>46.0</ele><time>2026-04-04T15:36:29.974Z</time></trkpt><trkpt lat="44.7251133" lon="10.6193883"><ele>46.0</ele><time>2026-04-04T15:36:30.974Z</time></trkpt><trkpt lat="44.7252067" lon="10.6193967"><ele>46.0</ele><time>2026-04-04T15:36:31.974Z</time></trkpt><trkpt lat="44.7253017" lon="10.6194383"><ele>46.0</ele><time>2026-04-04T15:36:32.975Z</time></trkpt><trkpt lat="44.7253733" lon="10.61951"><ele>46.0</ele><time>2026-04-04T15:36:33.974Z</time></trkpt><trkpt lat="44.725435" lon="10.6195933"><ele>46.0</ele><time>2026-04-04T15:36:34.974Z</time></trkpt><trkpt lat="44.7255017" lon="10.619655"><ele>46.0</ele><time>2026-04-04T15:36:35.974Z</time></trkpt><trkpt lat="44.7255733" lon="10.6196783"><ele>46.0</ele><time>2026-04-04T15:36:36.974Z</time></trkpt><trkpt lat="44.725645" lon="10.6196717"><ele>46.0</ele><time>2026-04-04T15:36:37.975Z</time></trkpt><trkpt lat="44.72571" lon="10.61963"><ele>46.0</ele><time>2026-04-04T15:36:38.975Z</time></trkpt><trkpt lat="44.7257683" lon="10.6195717"><ele>46.0</ele><time>2026-04-04T15:36:39.974Z</time></trkpt><trkpt lat="44.7258183" lon="10.6194933"><ele>46.0</ele><time>2026-04-04T15:36:40.974Z</time></trkpt><trkpt lat="44.7258533" lon="10.6193817"><ele>46.0</ele><time>2026-04-04T15:36:41.974Z</time></trkpt><trkpt lat="44.72589" lon="10.6192667"><ele>46.0</ele><time>2026-04-04T15:36:42.975Z</time></trkpt><trkpt lat="44.7259333" lon="10.6191633"><ele>46.0</ele><time>2026-04-04T15:36:43.974Z</time></trkpt><trkpt lat="44.725985" lon="10.6190633"><ele>46.0</ele><time>2026-04-04T15:36:44.975Z</time></trkpt><trkpt lat="44.7260633" lon="10.6189767"><ele>46.0</ele><time>2026-04-04T15:36:45.974Z</time></trkpt><trkpt lat="44.7261583" lon="10.6188917"><ele>46.0</ele><time>2026-04-04T15:36:46.974Z</time></trkpt><trkpt lat="44.726255" lon="10.618815"><ele>46.0</ele><time>2026-04-04T15:36:47.975Z</time></trkpt><trkpt lat="44.7263567" lon="10.61876"><ele>46.0</ele><time>2026-04-04T15:36:48.975Z</time></trkpt><trkpt lat="44.7264583" lon="10.61871"><ele>46.0</ele><time>2026-04-04T15:36:49.974Z</time></trkpt><trkpt lat="44.72656" lon="10.6186683"><ele>46.0</ele><time>2026-04-04T15:36:50.975Z</time></trkpt><trkpt lat="44.726665" lon="10.618625"><ele>46.0</ele><time>2026-04-04T15:36:51.975Z</time></trkpt><trkpt lat="44.7267667" lon="10.618585"><ele>46.0</ele><time>2026-04-04T15:36:52.975Z</time></trkpt><trkpt lat="44.7268583" lon="10.6185433"><ele>46.0</ele><time>2026-04-04T15:36:53.975Z</time></trkpt><trkpt lat="44.7269483" lon="10.6184933"><ele>46.0</ele><time>2026-04-04T15:36:54.974Z</time></trkpt><trkpt lat="44.7270217" lon="10.6184283"><ele>46.0</ele><time>2026-04-04T15:36:55.974Z</time></trkpt><trkpt lat="44.72711" lon="10.6183767"><ele>45.8</ele><time>2026-04-04T15:36:56.975Z</time></trkpt><trkpt lat="44.7271967" lon="10.6183317"><ele>45.599999999999994</ele><time>2026-04-04T15:36:57.975Z</time></trkpt><trkpt lat="44.7272783" lon="10.6182717"><ele>45.4</ele><time>2026-04-04T15:36:58.975Z</time></trkpt><trkpt lat="44.72738" lon="10.6182033"><ele>45.2</ele><time>2026-04-04T15:36:59.974Z</time></trkpt><trkpt lat="44.7275" lon="10.6181333"><ele>45.0</ele><time>2026-04-04T15:37:00.975Z</time></trkpt><trkpt lat="44.727635" lon="10.6180567"><ele>45.333333333333336</ele><time>2026-04-04T15:37:01.975Z</time></trkpt><trkpt lat="44.727785" lon="10.6179633"><ele>45.66666666666667</ele><time>2026-04-04T15:37:02.974Z</time></trkpt><trkpt lat="44.727945" lon="10.6178733"><ele>46.0</ele><time>2026-04-04T15:37:03.975Z</time></trkpt><trkpt lat="44.7280933" lon="10.617785"><ele>46.0</ele><time>2026-04-04T15:37:04.975Z</time></trkpt><trkpt lat="44.7282433" lon="10.6177"><ele>46.0</ele><time>2026-04-04T15:37:05.974Z</time></trkpt><trkpt lat="44.728375" lon="10.6176267"><ele>46.0</ele><time>2026-04-04T15:37:06.975Z</time></trkpt><trkpt lat="44.7284833" lon="10.6175717"><ele>46.0</ele><time>2026-04-04T15:37:07.974Z</time></trkpt><trkpt lat="44.7285733" lon="10.6175233"><ele>45.833333333333336</ele><time>2026-04-04T15:37:08.975Z</time></trkpt><trkpt lat="44.7286533" lon="10.617485"><ele>45.66666666666667</ele><time>2026-04-04T15:37:09.975Z</time></trkpt><trkpt lat="44.728725" lon="10.6174417"><ele>45.5</ele><time>2026-04-04T15:37:10.974Z</time></trkpt><trkpt lat="44.7287933" lon="10.61741"><ele>45.333333333333336</ele><time>2026-04-04T15:37:11.974Z</time></trkpt><trkpt lat="44.7288567" lon="10.6173717"><ele>45.166666666666664</ele><time>2026-04-04T15:37:12.974Z</time></trkpt><trkpt lat="44.7289217" lon="10.6173317"><ele>45.0</ele><time>2026-04-04T15:37:13.973Z</time></trkpt><trkpt lat="44.729" lon="10.6172983"><ele>45.0</ele><time>2026-04-04T15:37:14.973Z</time></trkpt><trkpt lat="44.7290767" lon="10.6172517"><ele>45.0</ele><time>2026-04-04T15:37:15.973Z</time></trkpt><trkpt lat="44.729165" lon="10.6172017"><ele>45.0</ele><time>2026-04-04T15:37:16.973Z</time></trkpt><trkpt lat="44.7292583" lon="10.6171417"><ele>45.0</ele><time>2026-04-04T15:37:17.973Z</time></trkpt><trkpt lat="44.7293683" lon="10.6170783"><ele>45.0</ele><time>2026-04-04T15:37:18.973Z</time></trkpt><trkpt lat="44.729475" lon="10.617015"><ele>44.5</ele><time>2026-04-04T15:37:19.974Z</time></trkpt><trkpt lat="44.7295867" lon="10.616955"><ele>44.0</ele><time>2026-04-04T15:37:20.974Z</time></trkpt><trkpt lat="44.7296883" lon="10.6168817"><ele>43.5</ele><time>2026-04-04T15:37:21.973Z</time></trkpt><trkpt lat="44.7297867" lon="10.6168117"><ele>43.0</ele><time>2026-04-04T15:37:22.973Z</time></trkpt><trkpt lat="44.7298767" lon="10.61673"><ele>43.0</ele><time>2026-04-04T15:37:23.973Z</time></trkpt><trkpt lat="44.7299867" lon="10.6166383"><ele>43.0</ele><time>2026-04-04T15:37:24.973Z</time></trkpt><trkpt lat="44.7301117" lon="10.6165567"><ele>43.0</ele><time>2026-04-04T15:37:25.973Z</time></trkpt><trkpt lat="44.7302417" lon="10.61649"><ele>43.0</ele><time>2026-04-04T15:37:26.973Z</time></trkpt><trkpt lat="44.7303717" lon="10.6164283"><ele>43.0</ele><time>2026-04-04T15:37:27.974Z</time></trkpt><trkpt lat="44.73052" lon="10.6163833"><ele>43.0</ele><time>2026-04-04T15:37:28.974Z</time></trkpt><trkpt lat="44.73069" lon="10.61635"><ele>43.0</ele><time>2026-04-04T15:37:29.973Z</time></trkpt><trkpt lat="44.7308567" lon="10.6162967"><ele>43.0</ele><time>2026-04-04T15:37:30.974Z</time></trkpt><trkpt lat="44.7310183" lon="10.616245"><ele>43.0</ele><time>2026-04-04T15:37:31.974Z</time></trkpt><trkpt lat="44.731185" lon="10.6161717"><ele>43.0</ele><time>2026-04-04T15:37:32.974Z</time></trkpt><trkpt lat="44.7313633" lon="10.616095"><ele>44.333333333333336</ele><time>2026-04-04T15:37:33.973Z</time></trkpt><trkpt lat="44.7315333" lon="10.616015"><ele>45.666666666666664</ele><time>2026-04-04T15:37:34.974Z</time></trkpt><trkpt lat="44.731705" lon="10.61592"><ele>47.0</ele><time>2026-04-04T15:37:35.974Z</time></trkpt><trkpt lat="44.7318717" lon="10.6158017"><ele>46.666666666666664</ele><time>2026-04-04T15:37:36.973Z</time></trkpt><trkpt lat="44.7320383" lon="10.6156883"><ele>46.333333333333336</ele><time>2026-04-04T15:37:37.973Z</time></trkpt><trkpt lat="44.7322017" lon="10.61557"><ele>46.0</ele><time>2026-04-04T15:37:38.974Z</time></trkpt><trkpt lat="44.7323667" lon="10.6154833"><ele>46.0</ele><time>2026-04-04T15:37:39.974Z</time></trkpt><trkpt lat="44.7325233" lon="10.615385"><ele>46.0</ele><time>2026-04-04T15:37:40.973Z</time></trkpt><trkpt lat="44.7326783" lon="10.6152867"><ele>46.0</ele><time>2026-04-04T15:37:41.973Z</time></trkpt><trkpt lat="44.7328133" lon="10.615165"><ele>45.333333333333336</ele><time>2026-04-04T15:37:42.974Z</time></trkpt><trkpt lat="44.73301" lon="10.61513"><ele>44.666666666666664</ele><time>2026-04-04T15:37:43.973Z</time></trkpt><trkpt lat="44.73317" lon="10.6150667"><ele>44.0</ele><time>2026-04-04T15:37:44.973Z</time></trkpt><trkpt lat="44.7333017" lon="10.615"><ele>44.0</ele><time>2026-04-04T15:37:45.973Z</time></trkpt><trkpt lat="44.7334167" lon="10.6149417"><ele>44.0</ele><time>2026-04-04T15:37:46.973Z</time></trkpt><trkpt lat="44.7335133" lon="10.6148983"><ele>44.0</ele><time>2026-04-04T15:37:47.973Z</time></trkpt><trkpt lat="44.7336033" lon="10.614865"><ele>44.0</ele><time>2026-04-04T15:37:48.974Z</time></trkpt><trkpt lat="44.733695" lon="10.614835"><ele>44.0</ele><time>2026-04-04T15:37:49.973Z</time></trkpt><trkpt lat="44.733785" lon="10.6148083"><ele>43.666666666666664</ele><time>2026-04-04T15:37:50.973Z</time></trkpt><trkpt lat="44.7338683" lon="10.61477"><ele>43.33333333333333</ele><time>2026-04-04T15:37:51.974Z</time></trkpt><trkpt lat="44.7339483" lon="10.6147217"><ele>43.0</ele><time>2026-04-04T15:37:52.973Z</time></trkpt><trkpt lat="44.7340283" lon="10.6146733"><ele>42.666666666666664</ele><time>2026-04-04T15:37:53.973Z</time></trkpt><trkpt lat="44.73411" lon="10.6146333"><ele>42.333333333333336</ele><time>2026-04-04T15:37:54.974Z</time></trkpt><trkpt lat="44.7341833" lon="10.6146083"><ele>42.0</ele><time>2026-04-04T15:37:55.974Z</time></trkpt><trkpt lat="44.7342983" lon="10.6145917"><ele>42.0</ele><time>2026-04-04T15:37:57.973Z</time></trkpt><trkpt lat="44.7343633" lon="10.6146317"><ele>42.0</ele><time>2026-04-04T15:38:00.973Z</time></trkpt><trkpt lat="44.7344033" lon="10.614715"><ele>42.0</ele><time>2026-04-04T15:38:02.973Z</time></trkpt><trkpt lat="44.7344333" lon="10.6148117"><ele>42.0</ele><time>2026-04-04T15:38:03.973Z</time></trkpt><trkpt lat="44.7344433" lon="10.6149417"><ele>42.0</ele><time>2026-04-04T15:38:04.973Z</time></trkpt><trkpt lat="44.7344283" lon="10.6150883"><ele>42.0</ele><time>2026-04-04T15:38:05.974Z</time></trkpt><trkpt lat="44.73438" lon="10.6152667"><ele>42.0</ele><time>2026-04-04T15:38:06.974Z</time></trkpt><trkpt lat="44.7343233" lon="10.6154467"><ele>42.0</ele><time>2026-04-04T15:38:07.973Z</time></trkpt><trkpt lat="44.7342467" lon="10.6156433"><ele>42.0</ele><time>2026-04-04T15:38:08.973Z</time></trkpt><trkpt lat="44.7341567" lon="10.615825"><ele>42.0</ele><time>2026-04-04T15:38:09.973Z</time></trkpt><trkpt lat="44.7340667" lon="10.6159767"><ele>42.0</ele><time>2026-04-04T15:38:10.974Z</time></trkpt><trkpt lat="44.733985" lon="10.6160983"><ele>42.0</ele><time>2026-04-04T15:38:11.974Z</time></trkpt><trkpt lat="44.7339233" lon="10.6162117"><ele>42.0</ele><time>2026-04-04T15:38:12.974Z</time></trkpt><trkpt lat="44.7338767" lon="10.6163"><ele>42.0</ele><time>2026-04-04T15:38:13.974Z</time></trkpt><trkpt lat="44.7338233" lon="10.6164183"><ele>42.0</ele><time>2026-04-04T15:38:15.973Z</time></trkpt><trkpt lat="44.7338717" lon="10.6165317"><ele>42.0</ele><time>2026-04-04T15:38:17.973Z</time></trkpt><trkpt lat="44.7339533" lon="10.6165767"><ele>42.0</ele><time>2026-04-04T15:38:18.973Z</time></trkpt><trkpt lat="44.73406" lon="10.6166183"><ele>42.0</ele><time>2026-04-04T15:38:19.973Z</time></trkpt><trkpt lat="44.7341833" lon="10.6166733"><ele>42.0</ele><time>2026-04-04T15:38:20.973Z</time></trkpt><trkpt lat="44.7343183" lon="10.6167467"><ele>42.0</ele><time>2026-04-04T15:38:21.973Z</time></trkpt><trkpt lat="44.73444" lon="10.6168083"><ele>41.0</ele><time>2026-04-04T15:38:22.974Z</time></trkpt><trkpt lat="44.7345383" lon="10.6168517"><ele>41.0</ele><time>2026-04-04T15:38:23.974Z</time></trkpt><trkpt lat="44.73461" lon="10.61687"><ele>41.0</ele><time>2026-04-04T15:38:24.973Z</time></trkpt><trkpt lat="44.7347017" lon="10.6168933"><ele>41.0</ele><time>2026-04-04T15:38:26.974Z</time></trkpt></trkseg></trk></gpx>